<?xml version='1.0' encoding='UTF-8'?><gpx version="1.1" creator="JPX - https://github.com/jenetics/jpx" xmlns="http://www.topografix.com/GPX/1/1"><trk><trkseg><trkpt lat="45.679737736258275" lon="11.56976007580827"><ele>88.0</ele><time>2026-04-01T18:59:50.999Z</time></trkpt><trkpt lat="45.67990540495695" lon="11.569678918510467"><ele>88.0</ele><time>2026-04-01T18:59:51.999Z</time></trkpt><trkpt lat="45.680075329100234" lon="11.569582847642414"><ele>88.0</ele><time>2026-04-01T18:59:52.999Z</time></trkpt><trkpt lat="45.68024427245651" lon="11.56949575148624"><ele>88.0</ele><time>2026-04-01T18:59:54Z</time></trkpt><trkpt lat="45.680407269810615" lon="11.569403834827368"><ele>88.0</ele><time>2026-04-01T18:59:55Z</time></trkpt><trkpt lat="45.68057534727554" lon="11.569311244611136"><ele>88.0</ele><time>2026-04-01T18:59:56Z</time></trkpt><trkpt lat="45.68073939077786" lon="11.569205004156222"><ele>88.0</ele><time>2026-04-01T18:59:57Z</time></trkpt><trkpt lat="45.680896357636605" lon="11.569085803253763"><ele>88.0</ele><time>2026-04-01T18:59:58Z</time></trkpt><trkpt lat="45.6810586984454" lon="11.568967974879659"><ele>88.0</ele><time>2026-04-01T18:59:59Z</time></trkpt><trkpt lat="45.68121223381697" lon="11.568839412800292"><ele>88.0</ele><time>2026-04-01T19:00:00Z</time></trkpt><trkpt lat="45.681376035239936" lon="11.568713085017944"><ele>88.0</ele><time>2026-04-01T19:00:01Z</time></trkpt><trkpt lat="45.681532226752765" lon="11.568572164666062"><ele>88.0</ele><time>2026-04-01T19:00:02Z</time></trkpt><trkpt lat="45.68168742260995" lon="11.568440450040676"><ele>88.0</ele><time>2026-04-01T19:00:03Z</time></trkpt><trkpt lat="45.68185262664839" lon="11.568304137094973"><ele>88.0</ele><time>2026-04-01T19:00:04Z</time></trkpt><trkpt lat="45.6820137266227" lon="11.568165835472687"><ele>88.0</ele><time>2026-04-01T19:00:05Z</time></trkpt><trkpt lat="45.68217424002584" lon="11.568028455722594"><ele>88.33333333333333</ele><time>2026-04-01T19:00:06Z</time></trkpt><trkpt lat="45.68233951694498" lon="11.567896217177092"><ele>88.66666666666667</ele><time>2026-04-01T19:00:07Z</time></trkpt><trkpt lat="45.682499078991945" lon="11.567766056004352"><ele>89.0</ele><time>2026-04-01T19:00:08Z</time></trkpt><trkpt lat="45.68266029689881" lon="11.567628275358794"><ele>89.33333333333334</ele><time>2026-04-01T19:00:09Z</time></trkpt><trkpt lat="45.682822330846086" lon="11.567487917153096"><ele>89.66666666666667</ele><time>2026-04-01T19:00:10Z</time></trkpt><trkpt lat="45.68298710783259" lon="11.567353694738957"><ele>90.0</ele><time>2026-04-01T19:00:11Z</time></trkpt><trkpt lat="45.683148274644154" lon="11.56721269760555"><ele>90.0</ele><time>2026-04-01T19:00:12Z</time></trkpt><trkpt lat="45.68330682171433" lon="11.567069889385666"><ele>90.0</ele><time>2026-04-01T19:00:13Z</time></trkpt><trkpt lat="45.68346543748489" lon="11.566933586210897"><ele>90.0</ele><time>2026-04-01T19:00:14Z</time></trkpt><trkpt lat="45.683620429000975" lon="11.56679469766768"><ele>90.0</ele><time>2026-04-01T19:00:15Z</time></trkpt><trkpt lat="45.683776703271" lon="11.566661407228963"><ele>90.0</ele><time>2026-04-01T19:00:16Z</time></trkpt><trkpt lat="45.68393595166483" lon="11.566521072203741"><ele>90.0</ele><time>2026-04-01T19:00:17Z</time></trkpt><trkpt lat="45.68409268364907" lon="11.566385065121443"><ele>90.0</ele><time>2026-04-01T19:00:18Z</time></trkpt><trkpt lat="45.68425489634243" lon="11.566249838318416"><ele>90.0</ele><time>2026-04-01T19:00:19Z</time></trkpt><trkpt lat="45.68441497967638" lon="11.566114127493327"><ele>90.0</ele><time>2026-04-01T19:00:20Z</time></trkpt><trkpt lat="45.68457477875479" lon="11.565975388271243"><ele>90.33333333333333</ele><time>2026-04-01T19:00:21Z</time></trkpt><trkpt lat="45.68473298676292" lon="11.565840965335491"><ele>90.66666666666666</ele><time>2026-04-01T19:00:22Z</time></trkpt><trkpt lat="45.68489478402288" lon="11.565700593562635"><ele>91.0</ele><time>2026-04-01T19:00:23Z</time></trkpt><trkpt lat="45.68505467933146" lon="11.565568409479328"><ele>91.0</ele><time>2026-04-01T19:00:23.999Z</time></trkpt><trkpt lat="45.68521576634239" lon="11.565427781224388"><ele>91.0</ele><time>2026-04-01T19:00:24.999Z</time></trkpt><trkpt lat="45.685376366417515" lon="11.565288511030568"><ele>91.0</ele><time>2026-04-01T19:00:25.999Z</time></trkpt><trkpt lat="45.68553888737315" lon="11.565144683500366"><ele>92.0</ele><time>2026-04-01T19:00:26.999Z</time></trkpt><trkpt lat="45.685700732980656" lon="11.565005210189838"><ele>93.0</ele><time>2026-04-01T19:00:27.999Z</time></trkpt><trkpt lat="45.68586496693295" lon="11.564863328962728"><ele>94.0</ele><time>2026-04-01T19:00:28.999Z</time></trkpt><trkpt lat="45.686028663707724" lon="11.564725204415327"><ele>93.66666666666666</ele><time>2026-04-01T19:00:29.999Z</time></trkpt><trkpt lat="45.68618947760634" lon="11.564587027983732"><ele>93.33333333333333</ele><time>2026-04-01T19:00:30.999Z</time></trkpt><trkpt lat="45.686348434903536" lon="11.564447399390042"><ele>93.0</ele><time>2026-04-01T19:00:31.999Z</time></trkpt><trkpt lat="45.6865109147129" lon="11.564311457577563"><ele>93.66666666666667</ele><time>2026-04-01T19:00:32.999Z</time></trkpt><trkpt lat="45.68667023594095" lon="11.564176088978769"><ele>94.33333333333334</ele><time>2026-04-01T19:00:33.999Z</time></trkpt><trkpt lat="45.68683383171008" lon="11.564039306217767"><ele>95.0</ele><time>2026-04-01T19:00:34.999Z</time></trkpt><trkpt lat="45.68699395051409" lon="11.563902223187801"><ele>95.66666666666667</ele><time>2026-04-01T19:00:35.999Z</time></trkpt><trkpt lat="45.68715250978811" lon="11.563764776029812"><ele>96.33333333333334</ele><time>2026-04-01T19:00:36.999Z</time></trkpt><trkpt lat="45.687311905047956" lon="11.56362720640168"><ele>97.0</ele><time>2026-04-01T19:00:37.999Z</time></trkpt><trkpt lat="45.68746841476977" lon="11.563495339570105"><ele>97.33333333333334</ele><time>2026-04-01T19:00:38.999Z</time></trkpt><trkpt lat="45.68761902341522" lon="11.563360527970381"><ele>97.66666666666666</ele><time>2026-04-01T19:00:39.999Z</time></trkpt><trkpt lat="45.68776766341165" lon="11.56323322174464"><ele>98.0</ele><time>2026-04-01T19:00:40.999Z</time></trkpt><trkpt lat="45.6879099177632" lon="11.56311410739693"><ele>97.33333333333333</ele><time>2026-04-01T19:00:41.999Z</time></trkpt><trkpt lat="45.68804273730097" lon="11.563002710297427"><ele>96.66666666666666</ele><time>2026-04-01T19:00:42.999Z</time></trkpt><trkpt lat="45.68818240468081" lon="11.56288619150793"><ele>96.0</ele><time>2026-04-01T19:00:43.999Z</time></trkpt><trkpt lat="45.68831781749279" lon="11.56279130766398"><ele>96.0</ele><time>2026-04-01T19:00:44.999Z</time></trkpt><trkpt lat="45.68845627470702" lon="11.562700424063076"><ele>96.0</ele><time>2026-04-01T19:00:45.999Z</time></trkpt><trkpt lat="45.68859852722913" lon="11.562628929236558"><ele>96.0</ele><time>2026-04-01T19:00:46.999Z</time></trkpt><trkpt lat="45.688748176587225" lon="11.56257491209079"><ele>96.0</ele><time>2026-04-01T19:00:47.999Z</time></trkpt><trkpt lat="45.688905582151556" lon="11.56253611009581"><ele>96.0</ele><time>2026-04-01T19:00:48.999Z</time></trkpt><trkpt lat="45.68906409344182" lon="11.562512629801851"><ele>96.0</ele><time>2026-04-01T19:00:49.999Z</time></trkpt><trkpt lat="45.68922695806486" lon="11.56250108315027"><ele>96.0</ele><time>2026-04-01T19:00:50.999Z</time></trkpt><trkpt lat="45.68938433746452" lon="11.562500680242273"><ele>96.0</ele><time>2026-04-01T19:00:51.999Z</time></trkpt><trkpt lat="45.689555005319264" lon="11.562523284422765"><ele>96.0</ele><time>2026-04-01T19:00:52.999Z</time></trkpt><trkpt lat="45.689721448407056" lon="11.562547015056438"><ele>96.33333333333334</ele><time>2026-04-01T19:00:53.999Z</time></trkpt><trkpt lat="45.68989025072366" lon="11.56257868036718"><ele>96.66666666666667</ele><time>2026-04-01T19:00:54.999Z</time></trkpt><trkpt lat="45.69006649932222" lon="11.562598547339732"><ele>97.0</ele><time>2026-04-01T19:00:55.999Z</time></trkpt><trkpt lat="45.690233932951735" lon="11.562627043914796"><ele>97.0</ele><time>2026-04-01T19:00:56.999Z</time></trkpt><trkpt lat="45.690405110176464" lon="11.562647974091117"><ele>97.0</ele><time>2026-04-01T19:00:57.999Z</time></trkpt><trkpt lat="45.69057706467137" lon="11.56267052042666"><ele>97.0</ele><time>2026-04-01T19:00:58.999Z</time></trkpt><trkpt lat="45.69074423815553" lon="11.562681779199513"><ele>97.0</ele><time>2026-04-01T19:00:59.999Z</time></trkpt><trkpt lat="45.69091991742445" lon="11.562701132297281"><ele>97.0</ele><time>2026-04-01T19:01:00.999Z</time></trkpt><trkpt lat="45.69108751692127" lon="11.562728185848087"><ele>97.0</ele><time>2026-04-01T19:01:01.999Z</time></trkpt><trkpt lat="45.69125910369876" lon="11.562740401475939"><ele>97.0</ele><time>2026-04-01T19:01:02.999Z</time></trkpt><trkpt lat="45.69142983135955" lon="11.56275896143275"><ele>97.0</ele><time>2026-04-01T19:01:03.999Z</time></trkpt><trkpt lat="45.691597610704804" lon="11.562773252532615"><ele>97.0</ele><time>2026-04-01T19:01:04.999Z</time></trkpt><trkpt lat="45.69175996062484" lon="11.562797506612046"><ele>97.0</ele><time>2026-04-01T19:01:05.999Z</time></trkpt><trkpt lat="45.691917723480216" lon="11.562818133391794"><ele>97.0</ele><time>2026-04-01T19:01:06.999Z</time></trkpt><trkpt lat="45.69207695307673" lon="11.562837248942602"><ele>97.0</ele><time>2026-04-01T19:01:07.999Z</time></trkpt><trkpt lat="45.692234771278216" lon="11.562870980755468"><ele>96.66666666666667</ele><time>2026-04-01T19:01:08.999Z</time></trkpt><trkpt lat="45.692384124909275" lon="11.562946915516626"><ele>96.33333333333334</ele><time>2026-04-01T19:01:09.999Z</time></trkpt><trkpt lat="45.69253889253318" lon="11.562987824145813"><ele>96.0</ele><time>2026-04-01T19:01:10.999Z</time></trkpt><trkpt lat="45.6926757303716" lon="11.563076520330368"><ele>96.4</ele><time>2026-04-01T19:01:11.999Z</time></trkpt><trkpt lat="45.692796974049934" lon="11.563139450138129"><ele>96.8</ele><time>2026-04-01T19:01:12.999Z</time></trkpt><trkpt lat="45.69290416315111" lon="11.56318719033892"><ele>97.2</ele><time>2026-04-01T19:01:13.999Z</time></trkpt><trkpt lat="45.69300090194253" lon="11.563234537975655"><ele>97.60000000000001</ele><time>2026-04-01T19:01:14.999Z</time></trkpt><trkpt lat="45.693078905619" lon="11.563291558275711"><ele>98.0</ele><time>2026-04-01T19:01:15.999Z</time></trkpt><trkpt lat="45.69313451447018" lon="11.563341835912368"><ele>97.99999999999999</ele><time>2026-04-01T19:01:16.999Z</time></trkpt><trkpt lat="45.69322075502882" lon="11.563468695080806"><ele>98.0</ele><time>2026-04-01T19:01:18.999Z</time></trkpt><trkpt lat="45.69326169981527" lon="11.563551154806204"><ele>98.0</ele><time>2026-04-01T19:01:19.999Z</time></trkpt><trkpt lat="45.69331384854878" lon="11.563638164053268"><ele>98.0</ele><time>2026-04-01T19:01:20.999Z</time></trkpt><trkpt lat="45.69338220796355" lon="11.563699407912617"><ele>97.99999999999999</ele><time>2026-04-01T19:01:21.999Z</time></trkpt><trkpt lat="45.69346594703438" lon="11.56372460215313"><ele>98.0</ele><time>2026-04-01T19:01:22.999Z</time></trkpt><trkpt lat="45.693554443277954" lon="11.563737070744688"><ele>98.2</ele><time>2026-04-01T19:01:23.999Z</time></trkpt><trkpt lat="45.69362594016885" lon="11.563642543128836"><ele>98.4</ele><time>2026-04-01T19:01:24.999Z</time></trkpt><trkpt lat="45.69368761172408" lon="11.563543865473997"><ele>98.60000000000001</ele><time>2026-04-01T19:01:25.999Z</time></trkpt><trkpt lat="45.69374561693197" lon="11.563447754253161"><ele>98.80000000000001</ele><time>2026-04-01T19:01:26.999Z</time></trkpt><trkpt lat="45.693760312157934" lon="11.5633229822356"><ele>99.0</ele><time>2026-04-01T19:01:27.999Z</time></trkpt><trkpt lat="45.69389337757073" lon="11.56329479541988"><ele>99.0</ele><time>2026-04-01T19:01:28.999Z</time></trkpt><trkpt lat="45.69399215211373" lon="11.563263998153689"><ele>99.0</ele><time>2026-04-01T19:01:29.999Z</time></trkpt><trkpt lat="45.6941029066024" lon="11.563250951222143"><ele>99.0</ele><time>2026-04-01T19:01:30.999Z</time></trkpt><trkpt lat="45.69422031679689" lon="11.563245279380173"><ele>99.0</ele><time>2026-04-01T19:01:31.999Z</time></trkpt><trkpt lat="45.694329710818174" lon="11.563251170425204"><ele>99.0</ele><time>2026-04-01T19:01:32.999Z</time></trkpt><trkpt lat="45.69444138504414" lon="11.563261112514104"><ele>99.25</ele><time>2026-04-01T19:01:33.998Z</time></trkpt><trkpt lat="45.69455577135957" lon="11.563274483613393"><ele>99.5</ele><time>2026-04-01T19:01:34.998Z</time></trkpt><trkpt lat="45.694674414782675" lon="11.563294136477536"><ele>99.75</ele><time>2026-04-01T19:01:35.998Z</time></trkpt><trkpt lat="45.694797186277775" lon="11.563315102231833"><ele>100.0</ele><time>2026-04-01T19:01:36.998Z</time></trkpt><trkpt lat="45.69492221933185" lon="11.56332918318734"><ele>100.0</ele><time>2026-04-01T19:01:37.998Z</time></trkpt><trkpt lat="45.69505171328194" lon="11.563347187929283"><ele>100.0</ele><time>2026-04-01T19:01:38.998Z</time></trkpt><trkpt lat="45.695187356042965" lon="11.563355330682064"><ele>100.0</ele><time>2026-04-01T19:01:39.998Z</time></trkpt><trkpt lat="45.695324609692626" lon="11.563373827852857"><ele>100.0</ele><time>2026-04-01T19:01:40.998Z</time></trkpt><trkpt lat="45.69546246081869" lon="11.563391781661373"><ele>100.25</ele><time>2026-04-01T19:01:41.998Z</time></trkpt><trkpt lat="45.69560047243383" lon="11.563409845854673"><ele>100.5</ele><time>2026-04-01T19:01:42.998Z</time></trkpt><trkpt lat="45.695744786252895" lon="11.56343167784457"><ele>100.75</ele><time>2026-04-01T19:01:43.998Z</time></trkpt><trkpt lat="45.69589054556459" lon="11.563450685034102"><ele>101.0</ele><time>2026-04-01T19:01:45Z</time></trkpt><trkpt lat="45.69603513781976" lon="11.563466580001252"><ele>100.5</ele><time>2026-04-01T19:01:46Z</time></trkpt><trkpt lat="45.69617426341154" lon="11.56348532612571"><ele>100.0</ele><time>2026-04-01T19:01:47Z</time></trkpt><trkpt lat="45.69631844740375" lon="11.563499960354129"><ele>99.5</ele><time>2026-04-01T19:01:48Z</time></trkpt><trkpt lat="45.69646325074755" lon="11.563514571034709"><ele>99.0</ele><time>2026-04-01T19:01:49Z</time></trkpt><trkpt lat="45.69660894801098" lon="11.563526619141726"><ele>99.0</ele><time>2026-04-01T19:01:50Z</time></trkpt><trkpt lat="45.69676254296407" lon="11.563545809879358"><ele>99.0</ele><time>2026-04-01T19:01:51Z</time></trkpt><trkpt lat="45.69691043238655" lon="11.563564474002542"><ele>99.0</ele><time>2026-04-01T19:01:52Z</time></trkpt><trkpt lat="45.6970682647575" lon="11.563589051592391"><ele>99.66666666666666</ele><time>2026-04-01T19:01:53Z</time></trkpt><trkpt lat="45.69721408434295" lon="11.563599806431824"><ele>100.33333333333333</ele><time>2026-04-01T19:01:54Z</time></trkpt><trkpt lat="45.69736226421808" lon="11.563618945379025"><ele>101.0</ele><time>2026-04-01T19:01:55Z</time></trkpt><trkpt lat="45.69752151244022" lon="11.563637299101579"><ele>101.0</ele><time>2026-04-01T19:01:56Z</time></trkpt><trkpt lat="45.69768344999242" lon="11.56365831731828"><ele>101.0</ele><time>2026-04-01T19:01:57Z</time></trkpt><trkpt lat="45.69784001494285" lon="11.563686346248442"><ele>101.0</ele><time>2026-04-01T19:01:58Z</time></trkpt><trkpt lat="45.698002192407195" lon="11.563705400877279"><ele>101.33333333333333</ele><time>2026-04-01T19:01:59Z</time></trkpt><trkpt lat="45.69817022511614" lon="11.56371854015695"><ele>101.66666666666666</ele><time>2026-04-01T19:02:00Z</time></trkpt><trkpt lat="45.69833653040371" lon="11.563728542999678"><ele>102.0</ele><time>2026-04-01T19:02:01Z</time></trkpt><trkpt lat="45.69850433510044" lon="11.56374934867223"><ele>102.0</ele><time>2026-04-01T19:02:02Z</time></trkpt><trkpt lat="45.69867066080999" lon="11.563769564871576"><ele>102.0</ele><time>2026-04-01T19:02:03Z</time></trkpt><trkpt lat="45.698841198540364" lon="11.563791114847293"><ele>102.0</ele><time>2026-04-01T19:02:04Z</time></trkpt><trkpt lat="45.699009138147964" lon="11.563808000906503"><ele>102.0</ele><time>2026-04-01T19:02:05Z</time></trkpt><trkpt lat="45.69917451131317" lon="11.56383124624415"><ele>102.0</ele><time>2026-04-01T19:02:06Z</time></trkpt><trkpt lat="45.699333532527675" lon="11.56385498804366"><ele>102.0</ele><time>2026-04-01T19:02:07Z</time></trkpt><trkpt lat="45.69948793921852" lon="11.563872441640823"><ele>102.25</ele><time>2026-04-01T19:02:08Z</time></trkpt><trkpt lat="45.6996361124007" lon="11.563894681532297"><ele>102.5</ele><time>2026-04-01T19:02:09Z</time></trkpt><trkpt lat="45.69978136493967" lon="11.563922633571627"><ele>102.75</ele><time>2026-04-01T19:02:10Z</time></trkpt><trkpt lat="45.69992078925515" lon="11.563956141759219"><ele>103.0</ele><time>2026-04-01T19:02:11Z</time></trkpt><trkpt lat="45.70005621528197" lon="11.564002615252907"><ele>103.0</ele><time>2026-04-01T19:02:11.999Z</time></trkpt><trkpt lat="45.70018499153498" lon="11.5640451499301"><ele>103.0</ele><time>2026-04-01T19:02:12.999Z</time></trkpt><trkpt lat="45.70029256659306" lon="11.564075875019507"><ele>103.0</ele><time>2026-04-01T19:02:13.999Z</time></trkpt><trkpt lat="45.7003998201748" lon="11.564084938670074"><ele>103.0</ele><time>2026-04-01T19:02:14.999Z</time></trkpt><trkpt lat="45.70048767763648" lon="11.564071979569439"><ele>103.0</ele><time>2026-04-01T19:02:15.999Z</time></trkpt><trkpt lat="45.700560077200336" lon="11.564053711189572"><ele>103.4</ele><time>2026-04-01T19:02:16.999Z</time></trkpt><trkpt lat="45.700664323331786" lon="11.564128544341516"><ele>103.80000000000001</ele><time>2026-04-01T19:02:18.999Z</time></trkpt><trkpt lat="45.700691737947736" lon="11.564211954387103"><ele>104.2</ele><time>2026-04-01T19:02:19.999Z</time></trkpt><trkpt lat="45.70079063383956" lon="11.564316541284079"><ele>104.6</ele><time>2026-04-01T19:02:21.999Z</time></trkpt><trkpt lat="45.70089212674207" lon="11.564342296101437"><ele>105.0</ele><time>2026-04-01T19:02:23.999Z</time></trkpt><trkpt lat="45.70095388797383" lon="11.564361750801574"><ele>105.0</ele><time>2026-04-01T19:02:24.999Z</time></trkpt><trkpt lat="45.7010160355008" lon="11.564397510787789"><ele>105.0</ele><time>2026-04-01T19:02:25.999Z</time></trkpt><trkpt lat="45.701126223859866" lon="11.564391491812634"><ele>105.0</ele><time>2026-04-01T19:02:27.999Z</time></trkpt><trkpt lat="45.701170569415176" lon="11.564465345099993"><ele>105.0</ele><time>2026-04-01T19:02:28.999Z</time></trkpt><trkpt lat="45.70123444130468" lon="11.564494476821954"><ele>105.0</ele><time>2026-04-01T19:02:30.999Z</time></trkpt><trkpt lat="45.701313697739344" lon="11.564528375913051"><ele>105.0</ele><time>2026-04-01T19:02:32.999Z</time></trkpt><trkpt lat="45.70140393022955" lon="11.564560614385806"><ele>105.0</ele><time>2026-04-01T19:02:34.999Z</time></trkpt><trkpt lat="45.701464706454225" lon="11.564584416173847"><ele>105.0</ele><time>2026-04-01T19:02:35.999Z</time></trkpt><trkpt lat="45.7015310082415" lon="11.564606730056905"><ele>105.0</ele><time>2026-04-01T19:02:36.999Z</time></trkpt><trkpt lat="45.70160110451968" lon="11.564628090308313"><ele>105.0</ele><time>2026-04-01T19:02:37.999Z</time></trkpt><trkpt lat="45.701738488344674" lon="11.564666024697916"><ele>105.0</ele><time>2026-04-01T19:02:39.999Z</time></trkpt><trkpt lat="45.7018220532849" lon="11.56469104836266"><ele>105.0</ele><time>2026-04-01T19:02:40.999Z</time></trkpt><trkpt lat="45.701910584428546" lon="11.564712448865881"><ele>104.8</ele><time>2026-04-01T19:02:41.999Z</time></trkpt><trkpt lat="45.70201092229349" lon="11.564731858137366"><ele>104.6</ele><time>2026-04-01T19:02:42.999Z</time></trkpt><trkpt lat="45.70211768527926" lon="11.564745492886274"><ele>104.4</ele><time>2026-04-01T19:02:43.999Z</time></trkpt><trkpt lat="45.702226378129005" lon="11.564758290437576"><ele>104.2</ele><time>2026-04-01T19:02:44.999Z</time></trkpt><trkpt lat="45.702339040226576" lon="11.564771870183757"><ele>104.0</ele><time>2026-04-01T19:02:45.999Z</time></trkpt><trkpt lat="45.70245925324144" lon="11.564788956672933"><ele>104.0</ele><time>2026-04-01T19:02:46.999Z</time></trkpt><trkpt lat="45.70258318793108" lon="11.564797803644652"><ele>104.0</ele><time>2026-04-01T19:02:47.999Z</time></trkpt><trkpt lat="45.70271830315832" lon="11.564801023594931"><ele>104.0</ele><time>2026-04-01T19:02:48.999Z</time></trkpt><trkpt lat="45.70285479872019" lon="11.564814436398231"><ele>104.0</ele><time>2026-04-01T19:02:49.999Z</time></trkpt><trkpt lat="45.702996292823414" lon="11.564824853773239"><ele>104.25</ele><time>2026-04-01T19:02:50.999Z</time></trkpt><trkpt lat="45.70314444451195" lon="11.564835722888724"><ele>104.5</ele><time>2026-04-01T19:02:51.999Z</time></trkpt><trkpt lat="45.70328661538635" lon="11.564843981037255"><ele>104.75</ele><time>2026-04-01T19:02:52.999Z</time></trkpt><trkpt lat="45.70343120350817" lon="11.564854157148066"><ele>105.0</ele><time>2026-04-01T19:02:53.999Z</time></trkpt><trkpt lat="45.70357817212153" lon="11.56486391278799"><ele>105.0</ele><time>2026-04-01T19:02:54.999Z</time></trkpt><trkpt lat="45.7037201286222" lon="11.564881192454925"><ele>105.0</ele><time>2026-04-01T19:02:55.999Z</time></trkpt><trkpt lat="45.703862746589984" lon="11.564899443308693"><ele>105.0</ele><time>2026-04-01T19:02:56.999Z</time></trkpt><trkpt lat="45.704006057019036" lon="11.564919493086267"><ele>105.0</ele><time>2026-04-01T19:02:57.999Z</time></trkpt><trkpt lat="45.70415084311319" lon="11.564943013711325"><ele>105.0</ele><time>2026-04-01T19:02:58.999Z</time></trkpt><trkpt lat="45.70428642593993" lon="11.564966670298254"><ele>105.0</ele><time>2026-04-01T19:02:59.999Z</time></trkpt><trkpt lat="45.70441975982847" lon="11.564986318722807"><ele>105.0</ele><time>2026-04-01T19:03:00.999Z</time></trkpt><trkpt lat="45.704553045009504" lon="11.565005218992807"><ele>105.0</ele><time>2026-04-01T19:03:01.999Z</time></trkpt><trkpt lat="45.704685675588486" lon="11.565021841511834"><ele>105.5</ele><time>2026-04-01T19:03:02.999Z</time></trkpt><trkpt lat="45.70481540244214" lon="11.565038092363395"><ele>106.0</ele><time>2026-04-01T19:03:03.999Z</time></trkpt><trkpt lat="45.70494613878006" lon="11.56505387526107"><ele>106.5</ele><time>2026-04-01T19:03:04.999Z</time></trkpt><trkpt lat="45.70507686015942" lon="11.565070649630947"><ele>107.0</ele><time>2026-04-01T19:03:05.999Z</time></trkpt><trkpt lat="45.70521165282674" lon="11.565086980800134"><ele>107.25</ele><time>2026-04-01T19:03:06.999Z</time></trkpt><trkpt lat="45.70534619080488" lon="11.565105240589897"><ele>107.5</ele><time>2026-04-01T19:03:07.999Z</time></trkpt><trkpt lat="45.705482514116845" lon="11.565126133516667"><ele>107.75</ele><time>2026-04-01T19:03:08.999Z</time></trkpt><trkpt lat="45.705613520947225" lon="11.565140602951873"><ele>108.0</ele><time>2026-04-01T19:03:09.999Z</time></trkpt><trkpt lat="45.70573849703604" lon="11.565150231534279"><ele>108.0</ele><time>2026-04-01T19:03:10.999Z</time></trkpt><trkpt lat="45.705845856899" lon="11.565163578931323"><ele>108.0</ele><time>2026-04-01T19:03:11.999Z</time></trkpt><trkpt lat="45.70593668346652" lon="11.56517138023814"><ele>108.0</ele><time>2026-04-01T19:03:12.999Z</time></trkpt><trkpt lat="45.70601236418113" lon="11.56517722472403"><ele>108.0</ele><time>2026-04-01T19:03:13.999Z</time></trkpt><trkpt lat="45.70607689790285" lon="11.565180362596099"><ele>108.0</ele><time>2026-04-01T19:03:14.999Z</time></trkpt><trkpt lat="45.70613626760167" lon="11.56527180988516"><ele>108.0</ele><time>2026-04-01T19:03:16.999Z</time></trkpt><trkpt lat="45.70609638028016" lon="11.565443636818923"><ele>108.0</ele><time>2026-04-01T19:03:18.999Z</time></trkpt><trkpt lat="45.70607927331884" lon="11.565545903241613"><ele>108.00000000000001</ele><time>2026-04-01T19:03:19.999Z</time></trkpt><trkpt lat="45.706065030296784" lon="11.565657456171868"><ele>108.00000000000001</ele><time>2026-04-01T19:03:20.999Z</time></trkpt><trkpt lat="45.70605051029369" lon="11.56578321164168"><ele>108.0</ele><time>2026-04-01T19:03:21.998Z</time></trkpt><trkpt lat="45.70604052193977" lon="11.565926655805269"><ele>108.0</ele><time>2026-04-01T19:03:22.998Z</time></trkpt><trkpt lat="45.70604082504707" lon="11.566080790287174"><ele>108.0</ele><time>2026-04-01T19:03:23.998Z</time></trkpt><trkpt lat="45.7060486999798" lon="11.566234667283293"><ele>108.0</ele><time>2026-04-01T19:03:24.998Z</time></trkpt><trkpt lat="45.70606097510648" lon="11.56640077479315"><ele>108.0</ele><time>2026-04-01T19:03:25.998Z</time></trkpt><trkpt lat="45.70608543304193" lon="11.566563644902212"><ele>108.0</ele><time>2026-04-01T19:03:26.998Z</time></trkpt><trkpt lat="45.706117698045595" lon="11.56673623658052"><ele>108.0</ele><time>2026-04-01T19:03:27.998Z</time></trkpt><trkpt lat="45.706126114738026" lon="11.566921591035525"><ele>108.0</ele><time>2026-04-01T19:03:28.998Z</time></trkpt><trkpt lat="45.706156839648614" lon="11.567088875048535"><ele>108.0</ele><time>2026-04-01T19:03:29.998Z</time></trkpt><trkpt lat="45.70618652345459" lon="11.5672538787095"><ele>108.0</ele><time>2026-04-01T19:03:30.998Z</time></trkpt><trkpt lat="45.70621842407042" lon="11.56741442388799"><ele>107.75</ele><time>2026-04-01T19:03:31.998Z</time></trkpt><trkpt lat="45.7062523328778" lon="11.567571684111536"><ele>107.5</ele><time>2026-04-01T19:03:32.998Z</time></trkpt><trkpt lat="45.70628273793633" lon="11.567730673866981"><ele>107.25</ele><time>2026-04-01T19:03:33.998Z</time></trkpt><trkpt lat="45.70632025509823" lon="11.567874812974335"><ele>107.0</ele><time>2026-04-01T19:03:34.998Z</time></trkpt><trkpt lat="45.70634860095069" lon="11.568031266737897"><ele>106.8</ele><time>2026-04-01T19:03:35.998Z</time></trkpt><trkpt lat="45.706374383289536" lon="11.568190156645453"><ele>106.6</ele><time>2026-04-01T19:03:36.998Z</time></trkpt><trkpt lat="45.706401686412285" lon="11.568341143800824"><ele>106.39999999999999</ele><time>2026-04-01T19:03:37.998Z</time></trkpt><trkpt lat="45.70642076796127" lon="11.56848693843677"><ele>106.19999999999999</ele><time>2026-04-01T19:03:38.998Z</time></trkpt><trkpt lat="45.70644759167972" lon="11.568632720586775"><ele>106.0</ele><time>2026-04-01T19:03:39.998Z</time></trkpt><trkpt lat="45.70647897130882" lon="11.568777348784831"><ele>106.0</ele><time>2026-04-01T19:03:40.998Z</time></trkpt><trkpt lat="45.70650146664891" lon="11.568907230531785"><ele>106.0</ele><time>2026-04-01T19:03:41.998Z</time></trkpt><trkpt lat="45.706507613609034" lon="11.5690098670746"><ele>106.0</ele><time>2026-04-01T19:03:42.998Z</time></trkpt><trkpt lat="45.706503216215104" lon="11.569174065535659"><ele>106.0</ele><time>2026-04-01T19:03:44.998Z</time></trkpt><trkpt lat="45.7064849290367" lon="11.56929846621309"><ele>106.0</ele><time>2026-04-01T19:03:46.998Z</time></trkpt><trkpt lat="45.70647785323935" lon="11.569440690073383"><ele>106.33333333333334</ele><time>2026-04-01T19:03:48.998Z</time></trkpt><trkpt lat="45.70646461122854" lon="11.569608694784922"><ele>106.66666666666667</ele><time>2026-04-01T19:03:50.999Z</time></trkpt><trkpt lat="45.70646096610878" lon="11.569699853689363"><ele>107.0</ele><time>2026-04-01T19:03:51.999Z</time></trkpt><trkpt lat="45.70645007873162" lon="11.569804598669112"><ele>107.33333333333334</ele><time>2026-04-01T19:03:52.999Z</time></trkpt><trkpt lat="45.706441665720774" lon="11.569916877577393"><ele>107.66666666666667</ele><time>2026-04-01T19:03:53.999Z</time></trkpt><trkpt lat="45.7064329007844" lon="11.57003863090493"><ele>108.0</ele><time>2026-04-01T19:03:55Z</time></trkpt><trkpt lat="45.70642445650736" lon="11.570167874937953"><ele>108.0</ele><time>2026-04-01T19:03:56Z</time></trkpt><trkpt lat="45.70642064338053" lon="11.57029685942687"><ele>108.0</ele><time>2026-04-01T19:03:57Z</time></trkpt><trkpt lat="45.70642081115614" lon="11.570421172221398"><ele>108.0</ele><time>2026-04-01T19:03:58Z</time></trkpt><trkpt lat="45.70642546308451" lon="11.570544073705765"><ele>108.0</ele><time>2026-04-01T19:03:59Z</time></trkpt><trkpt lat="45.70643908420867" lon="11.570666686589016"><ele>108.0</ele><time>2026-04-01T19:04:00Z</time></trkpt><trkpt lat="45.70646555548438" lon="11.570783216012725"><ele>108.0</ele><time>2026-04-01T19:04:01Z</time></trkpt><trkpt lat="45.70649298431466" lon="11.570898693591557"><ele>108.33333333333333</ele><time>2026-04-01T19:04:02Z</time></trkpt><trkpt lat="45.706525755810894" lon="11.571010045901508"><ele>108.66666666666666</ele><time>2026-04-01T19:04:03Z</time></trkpt><trkpt lat="45.7065680121889" lon="11.57111331441954"><ele>109.0</ele><time>2026-04-01T19:04:04Z</time></trkpt><trkpt lat="45.70662320993107" lon="11.571213200360685"><ele>109.33333333333333</ele><time>2026-04-01T19:04:05Z</time></trkpt><trkpt lat="45.70667886738853" lon="11.571302380525763"><ele>109.66666666666666</ele><time>2026-04-01T19:04:06Z</time></trkpt><trkpt lat="45.706744433291995" lon="11.57138469167292"><ele>110.0</ele><time>2026-04-01T19:04:07Z</time></trkpt><trkpt lat="45.706818127623144" lon="11.571463201432707"><ele>110.2</ele><time>2026-04-01T19:04:08Z</time></trkpt><trkpt lat="45.70688795089278" lon="11.571527513813272"><ele>110.4</ele><time>2026-04-01T19:04:09Z</time></trkpt><trkpt lat="45.706974098870276" lon="11.571583023878459"><ele>110.6</ele><time>2026-04-01T19:04:10Z</time></trkpt><trkpt lat="45.70705782885874" lon="11.571638425939383"><ele>110.8</ele><time>2026-04-01T19:04:11Z</time></trkpt><trkpt lat="45.70714509228091" lon="11.57169753606008"><ele>111.0</ele><time>2026-04-01T19:04:12Z</time></trkpt><trkpt lat="45.70723650032689" lon="11.571755178483668"><ele>112.0</ele><time>2026-04-01T19:04:13Z</time></trkpt><trkpt lat="45.707322312321345" lon="11.57181313810273"><ele>113.0</ele><time>2026-04-01T19:04:14Z</time></trkpt><trkpt lat="45.70740864314673" lon="11.571864138603782"><ele>114.0</ele><time>2026-04-01T19:04:15Z</time></trkpt><trkpt lat="45.70750161450641" lon="11.571920545254839"><ele>115.0</ele><time>2026-04-01T19:04:16Z</time></trkpt><trkpt lat="45.707594220127994" lon="11.57197189852228"><ele>116.0</ele><time>2026-04-01T19:04:17Z</time></trkpt><trkpt lat="45.707690255478305" lon="11.572019475681875"><ele>116.4</ele><time>2026-04-01T19:04:18Z</time></trkpt><trkpt lat="45.70778637374368" lon="11.572058961803886"><ele>116.8</ele><time>2026-04-01T19:04:19Z</time></trkpt><trkpt lat="45.70789058035704" lon="11.572093880951764"><ele>117.20000000000002</ele><time>2026-04-01T19:04:20Z</time></trkpt><trkpt lat="45.70798958799844" lon="11.572126774851432"><ele>117.60000000000001</ele><time>2026-04-01T19:04:21Z</time></trkpt><trkpt lat="45.70809392155841" lon="11.572160800187026"><ele>118.0</ele><time>2026-04-01T19:04:22Z</time></trkpt><trkpt lat="45.70820387713831" lon="11.572191931857846"><ele>118.0</ele><time>2026-04-01T19:04:23Z</time></trkpt><trkpt lat="45.70832414621668" lon="11.572219039749726"><ele>118.0</ele><time>2026-04-01T19:04:24Z</time></trkpt><trkpt lat="45.70843516663915" lon="11.572245551237192"><ele>118.0</ele><time>2026-04-01T19:04:25Z</time></trkpt><trkpt lat="45.708545445447754" lon="11.572266751243266"><ele>118.0</ele><time>2026-04-01T19:04:26Z</time></trkpt><trkpt lat="45.708652844053816" lon="11.572285341302674"><ele>118.60000000000001</ele><time>2026-04-01T19:04:27Z</time></trkpt><trkpt lat="45.70875708082037" lon="11.57230348186749"><ele>119.20000000000002</ele><time>2026-04-01T19:04:28Z</time></trkpt><trkpt lat="45.708866081730136" lon="11.572316936887741"><ele>119.8</ele><time>2026-04-01T19:04:29Z</time></trkpt><trkpt lat="45.70897200207348" lon="11.572333185406011"><ele>120.4</ele><time>2026-04-01T19:04:30Z</time></trkpt><trkpt lat="45.70907188251262" lon="11.57234625672354"><ele>121.0</ele><time>2026-04-01T19:04:31Z</time></trkpt><trkpt lat="45.70916854204311" lon="11.572361089618095"><ele>121.00000000000001</ele><time>2026-04-01T19:04:31.999Z</time></trkpt><trkpt lat="45.70926728654997" lon="11.572377798162494"><ele>121.0</ele><time>2026-04-01T19:04:32.999Z</time></trkpt><trkpt lat="45.709357624949654" lon="11.572391717131163"><ele>121.0</ele><time>2026-04-01T19:04:33.999Z</time></trkpt><trkpt lat="45.70943889284586" lon="11.572402966072103"><ele>121.0</ele><time>2026-04-01T19:04:34.999Z</time></trkpt><trkpt lat="45.709526238331094" lon="11.572415005395815"><ele>121.00000000000001</ele><time>2026-04-01T19:04:35.999Z</time></trkpt><trkpt lat="45.70961198799573" lon="11.572431725923707"><ele>121.0</ele><time>2026-04-01T19:04:36.999Z</time></trkpt><trkpt lat="45.70969837534535" lon="11.572472818875918"><ele>122.4</ele><time>2026-04-01T19:04:37.999Z</time></trkpt><trkpt lat="45.709775228566144" lon="11.572552631898642"><ele>123.8</ele><time>2026-04-01T19:04:38.999Z</time></trkpt><trkpt lat="45.70984104463652" lon="11.572659276690409"><ele>125.20000000000002</ele><time>2026-04-01T19:04:39.999Z</time></trkpt><trkpt lat="45.709888698681254" lon="11.572800638664614"><ele>126.60000000000001</ele><time>2026-04-01T19:04:40.999Z</time></trkpt><trkpt lat="45.70993147967976" lon="11.572949201199215"><ele>128.0</ele><time>2026-04-01T19:04:41.999Z</time></trkpt><trkpt lat="45.7099669943747" lon="11.57309194238853"><ele>128.0</ele><time>2026-04-01T19:04:42.999Z</time></trkpt><trkpt lat="45.710011535008434" lon="11.573241420790142"><ele>128.0</ele><time>2026-04-01T19:04:43.999Z</time></trkpt><trkpt lat="45.710077589959134" lon="11.573379326200284"><ele>128.0</ele><time>2026-04-01T19:04:44.999Z</time></trkpt><trkpt lat="45.710151629090184" lon="11.573508046685408"><ele>128.0</ele><time>2026-04-01T19:04:45.999Z</time></trkpt><trkpt lat="45.71021703710074" lon="11.573652324561902"><ele>130.75</ele><time>2026-04-01T19:04:46.999Z</time></trkpt><trkpt lat="45.7102656691633" lon="11.573819820670636"><ele>133.5</ele><time>2026-04-01T19:04:47.999Z</time></trkpt><trkpt lat="45.710294159009734" lon="11.574004145772243"><ele>136.25</ele><time>2026-04-01T19:04:48.999Z</time></trkpt><trkpt lat="45.710326149183174" lon="11.574188606298453"><ele>139.0</ele><time>2026-04-01T19:04:49.999Z</time></trkpt><trkpt lat="45.710361188429" lon="11.574378549246097"><ele>137.75</ele><time>2026-04-01T19:04:50.999Z</time></trkpt><trkpt lat="45.71040760729223" lon="11.574567269098194"><ele>136.5</ele><time>2026-04-01T19:04:51.999Z</time></trkpt><trkpt lat="45.71047002506212" lon="11.574751698881638"><ele>135.25</ele><time>2026-04-01T19:04:52.999Z</time></trkpt><trkpt lat="45.71053251488752" lon="11.574936099357672"><ele>134.0</ele><time>2026-04-01T19:04:53.999Z</time></trkpt><trkpt lat="45.71059758594316" lon="11.575113811686313"><ele>134.0</ele><time>2026-04-01T19:04:54.999Z</time></trkpt><trkpt lat="45.71066559263668" lon="11.575273881911166"><ele>134.0</ele><time>2026-04-01T19:04:55.999Z</time></trkpt><trkpt lat="45.710739078146894" lon="11.575422117991929"><ele>134.0</ele><time>2026-04-01T19:04:56.999Z</time></trkpt><trkpt lat="45.71083004518514" lon="11.575547603906745"><ele>134.0</ele><time>2026-04-01T19:04:57.999Z</time></trkpt><trkpt lat="45.71092779338241" lon="11.575658039819757"><ele>133.5</ele><time>2026-04-01T19:04:58.999Z</time></trkpt><trkpt lat="45.71103389575114" lon="11.5757376594149"><ele>133.0</ele><time>2026-04-01T19:04:59.999Z</time></trkpt><trkpt lat="45.7111512959078" lon="11.57578483971593"><ele>132.5</ele><time>2026-04-01T19:05:00.999Z</time></trkpt><trkpt lat="45.71126197699285" lon="11.575806652586634"><ele>132.0</ele><time>2026-04-01T19:05:01.999Z</time></trkpt><trkpt lat="45.711374422589195" lon="11.575810339287864"><ele>133.5</ele><time>2026-04-01T19:05:02.999Z</time></trkpt><trkpt lat="45.711498348126796" lon="11.575791054145201"><ele>135.0</ele><time>2026-04-01T19:05:03.999Z</time></trkpt><trkpt lat="45.71162379082331" lon="11.575760108264753"><ele>136.5</ele><time>2026-04-01T19:05:04.999Z</time></trkpt><trkpt lat="45.71175346226765" lon="11.575722426981221"><ele>138.0</ele><time>2026-04-01T19:05:05.999Z</time></trkpt><trkpt lat="45.711871950012466" lon="11.575682621309202"><ele>140.0</ele><time>2026-04-01T19:05:06.999Z</time></trkpt><trkpt lat="45.71199135876101" lon="11.575650584219671"><ele>142.0</ele><time>2026-04-01T19:05:07.999Z</time></trkpt><trkpt lat="45.7121076145155" lon="11.575623351854984"><ele>144.0</ele><time>2026-04-01T19:05:08.999Z</time></trkpt><trkpt lat="45.71222387074035" lon="11.575596030852523"><ele>146.0</ele><time>2026-04-01T19:05:09.999Z</time></trkpt><trkpt lat="45.712339701933686" lon="11.575564246087644"><ele>146.0</ele><time>2026-04-01T19:05:10.999Z</time></trkpt><trkpt lat="45.71245773765992" lon="11.575531907989008"><ele>146.0</ele><time>2026-04-01T19:05:11.999Z</time></trkpt><trkpt lat="45.71256978709365" lon="11.575502406684999"><ele>146.0</ele><time>2026-04-01T19:05:12.999Z</time></trkpt><trkpt lat="45.712681687542236" lon="11.575472326748011"><ele>146.0</ele><time>2026-04-01T19:05:13.999Z</time></trkpt><trkpt lat="45.712781885491076" lon="11.575441141067643"><ele>146.2</ele><time>2026-04-01T19:05:14.999Z</time></trkpt><trkpt lat="45.71288247340514" lon="11.57539724675142"><ele>146.39999999999998</ele><time>2026-04-01T19:05:15.999Z</time></trkpt><trkpt lat="45.71298081183284" lon="11.575337207771831"><ele>146.6</ele><time>2026-04-01T19:05:16.999Z</time></trkpt><trkpt lat="45.713081034434055" lon="11.575278739164974"><ele>146.79999999999998</ele><time>2026-04-01T19:05:17.999Z</time></trkpt><trkpt lat="45.71318238394527" lon="11.575211093394364"><ele>147.0</ele><time>2026-04-01T19:05:18.999Z</time></trkpt><trkpt lat="45.71328397009556" lon="11.575142059653842"><ele>149.75</ele><time>2026-04-01T19:05:19.999Z</time></trkpt><trkpt lat="45.713390896923435" lon="11.575069905095157"><ele>152.5</ele><time>2026-04-01T19:05:20.999Z</time></trkpt><trkpt lat="45.71350140803507" lon="11.575002334097194"><ele>155.25</ele><time>2026-04-01T19:05:21.999Z</time></trkpt><trkpt lat="45.71361256022633" lon="11.574930536311774"><ele>158.0</ele><time>2026-04-01T19:05:22.999Z</time></trkpt><trkpt lat="45.713723057002596" lon="11.574861016953689"><ele>158.25</ele><time>2026-04-01T19:05:23.999Z</time></trkpt><trkpt lat="45.7138377948407" lon="11.57478783603265"><ele>158.5</ele><time>2026-04-01T19:05:24.999Z</time></trkpt><trkpt lat="45.71394992847014" lon="11.574719856621964"><ele>158.75</ele><time>2026-04-01T19:05:25.999Z</time></trkpt><trkpt lat="45.71406727141038" lon="11.574667742657363"><ele>159.0</ele><time>2026-04-01T19:05:26.999Z</time></trkpt><trkpt lat="45.71419292952855" lon="11.574637739255948"><ele>159.0</ele><time>2026-04-01T19:05:27.999Z</time></trkpt><trkpt lat="45.71431974059818" lon="11.574630146923951"><ele>159.0</ele><time>2026-04-01T19:05:28.999Z</time></trkpt><trkpt lat="45.71445865201446" lon="11.5746435073263"><ele>159.0</ele><time>2026-04-01T19:05:29.999Z</time></trkpt><trkpt lat="45.714590386565334" lon="11.574686623747912"><ele>159.0</ele><time>2026-04-01T19:05:30.999Z</time></trkpt><trkpt lat="45.714724822863914" lon="11.574737858721631"><ele>159.25</ele><time>2026-04-01T19:05:31.999Z</time></trkpt><trkpt lat="45.71486039476321" lon="11.574783717421901"><ele>159.5</ele><time>2026-04-01T19:05:32.999Z</time></trkpt><trkpt lat="45.715005716728655" lon="11.574820225337982"><ele>159.75</ele><time>2026-04-01T19:05:33.999Z</time></trkpt><trkpt lat="45.71515080487953" lon="11.574865563737482"><ele>160.0</ele><time>2026-04-01T19:05:34.999Z</time></trkpt><trkpt lat="45.715300106748394" lon="11.574909660497596"><ele>160.0</ele><time>2026-04-01T19:05:35.999Z</time></trkpt><trkpt lat="45.71544781749141" lon="11.574951725790655"><ele>160.0</ele><time>2026-04-01T19:05:36.999Z</time></trkpt><trkpt lat="45.715597353435996" lon="11.574999642942348"><ele>160.0</ele><time>2026-04-01T19:05:37.999Z</time></trkpt><trkpt lat="45.71574440859962" lon="11.575050059572622"><ele>160.0</ele><time>2026-04-01T19:05:38.999Z</time></trkpt><trkpt lat="45.715890229994514" lon="11.575093986985307"><ele>160.0</ele><time>2026-04-01T19:05:39.999Z</time></trkpt><trkpt lat="45.716034235608525" lon="11.57514254116977"><ele>160.0</ele><time>2026-04-01T19:05:40.999Z</time></trkpt><trkpt lat="45.716180283766896" lon="11.575191743108197"><ele>160.0</ele><time>2026-04-01T19:05:41.999Z</time></trkpt><trkpt lat="45.716321083556785" lon="11.575247533584044"><ele>160.75</ele><time>2026-04-01T19:05:42.999Z</time></trkpt><trkpt lat="45.716451599925165" lon="11.575327164970254"><ele>161.5</ele><time>2026-04-01T19:05:43.999Z</time></trkpt><trkpt lat="45.716571873329045" lon="11.57543858475042"><ele>162.25</ele><time>2026-04-01T19:05:44.999Z</time></trkpt><trkpt lat="45.71668124777547" lon="11.57556289116078"><ele>163.0</ele><time>2026-04-01T19:05:45.999Z</time></trkpt><trkpt lat="45.71678592164254" lon="11.575676514122161"><ele>163.0</ele><time>2026-04-01T19:05:46.999Z</time></trkpt><trkpt lat="45.716888922196446" lon="11.575744298542004"><ele>163.0</ele><time>2026-04-01T19:05:47.999Z</time></trkpt><trkpt lat="45.717000112502426" lon="11.575790872308946"><ele>163.0</ele><time>2026-04-01T19:05:48.999Z</time></trkpt><trkpt lat="45.71712542070528" lon="11.575816859594859"><ele>163.0</ele><time>2026-04-01T19:05:49.999Z</time></trkpt><trkpt lat="45.717259664180354" lon="11.575825869365943"><ele>165.75</ele><time>2026-04-01T19:05:50.999Z</time></trkpt><trkpt lat="45.71739115275455" lon="11.575830202115686"><ele>168.5</ele><time>2026-04-01T19:05:51.999Z</time></trkpt><trkpt lat="45.71751044052079" lon="11.575844056551022"><ele>171.25</ele><time>2026-04-01T19:05:52.998Z</time></trkpt><trkpt lat="45.71762964539939" lon="11.575860584224852"><ele>174.0</ele><time>2026-04-01T19:05:53.998Z</time></trkpt><trkpt lat="45.71774985561873" lon="11.575885588723903"><ele>176.6</ele><time>2026-04-01T19:05:54.998Z</time></trkpt><trkpt lat="45.717865110878456" lon="11.575909024698344"><ele>179.2</ele><time>2026-04-01T19:05:55.998Z</time></trkpt><trkpt lat="45.717967342105794" lon="11.57593205046767"><ele>181.79999999999998</ele><time>2026-04-01T19:05:57Z</time></trkpt><trkpt lat="45.71806628782844" lon="11.57595741057655"><ele>184.39999999999998</ele><time>2026-04-01T19:05:58Z</time></trkpt><trkpt lat="45.718167895084996" lon="11.57598716361044"><ele>187.0</ele><time>2026-04-01T19:05:59Z</time></trkpt><trkpt lat="45.718271886764846" lon="11.576012107206815"><ele>187.0</ele><time>2026-04-01T19:06:00Z</time></trkpt><trkpt lat="45.71838002226382" lon="11.576034870858114"><ele>187.0</ele><time>2026-04-01T19:06:01Z</time></trkpt><trkpt lat="45.71848629649632" lon="11.576059760526576"><ele>187.0</ele><time>2026-04-01T19:06:02Z</time></trkpt><trkpt lat="45.718593822197576" lon="11.576084786587543"><ele>187.0</ele><time>2026-04-01T19:06:03Z</time></trkpt><trkpt lat="45.71870040747779" lon="11.576114345286564"><ele>187.0</ele><time>2026-04-01T19:06:04Z</time></trkpt><trkpt lat="45.71881035180395" lon="11.576142579554322"><ele>186.75</ele><time>2026-04-01T19:06:05Z</time></trkpt><trkpt lat="45.71892162959287" lon="11.576172631044667"><ele>186.5</ele><time>2026-04-01T19:06:06Z</time></trkpt><trkpt lat="45.71902995719156" lon="11.576205416642248"><ele>186.25</ele><time>2026-04-01T19:06:07Z</time></trkpt><trkpt lat="45.71913770456019" lon="11.576242840146847"><ele>186.0</ele><time>2026-04-01T19:06:08Z</time></trkpt><trkpt lat="45.71925765408781" lon="11.576289220668206"><ele>186.0</ele><time>2026-04-01T19:06:09Z</time></trkpt><trkpt lat="45.71936436431391" lon="11.576347864708351"><ele>186.0</ele><time>2026-04-01T19:06:10Z</time></trkpt><trkpt lat="45.71947755466828" lon="11.576413294127594"><ele>186.0</ele><time>2026-04-01T19:06:11Z</time></trkpt><trkpt lat="45.719592832993825" lon="11.576481448347847"><ele>186.0</ele><time>2026-04-01T19:06:12Z</time></trkpt><trkpt lat="45.71970155042661" lon="11.576564483301508"><ele>187.5</ele><time>2026-04-01T19:06:13Z</time></trkpt><trkpt lat="45.71981207592697" lon="11.57665656326426"><ele>189.0</ele><time>2026-04-01T19:06:14Z</time></trkpt><trkpt lat="45.719924098110866" lon="11.576758401390697"><ele>190.5</ele><time>2026-04-01T19:06:15Z</time></trkpt><trkpt lat="45.72003475977578" lon="11.57687679891593"><ele>192.0</ele><time>2026-04-01T19:06:16Z</time></trkpt><trkpt lat="45.720141112207756" lon="11.577004415679719"><ele>192.75</ele><time>2026-04-01T19:06:17Z</time></trkpt><trkpt lat="45.720235810086066" lon="11.57714142888531"><ele>193.5</ele><time>2026-04-01T19:06:18Z</time></trkpt><trkpt lat="45.720329218079996" lon="11.577281784501029"><ele>194.25</ele><time>2026-04-01T19:06:19Z</time></trkpt><trkpt lat="45.72043444936801" lon="11.577425222009737"><ele>195.0</ele><time>2026-04-01T19:06:20Z</time></trkpt><trkpt lat="45.720526307503114" lon="11.577572048752591"><ele>195.0</ele><time>2026-04-01T19:06:21Z</time></trkpt><trkpt lat="45.7206302288148" lon="11.577708501075113"><ele>195.0</ele><time>2026-04-01T19:06:22Z</time></trkpt><trkpt lat="45.72074189912683" lon="11.577833340522057"><ele>195.0</ele><time>2026-04-01T19:06:23Z</time></trkpt><trkpt lat="45.72086099220192" lon="11.577950065334122"><ele>195.0</ele><time>2026-04-01T19:06:24Z</time></trkpt><trkpt lat="45.72098636728978" lon="11.578057604430139"><ele>195.66666666666669</ele><time>2026-04-01T19:06:25Z</time></trkpt><trkpt lat="45.72112150518106" lon="11.578160161887219"><ele>196.33333333333334</ele><time>2026-04-01T19:06:26Z</time></trkpt><trkpt lat="45.72125821521078" lon="11.57825332868909"><ele>197.0</ele><time>2026-04-01T19:06:27Z</time></trkpt><trkpt lat="45.721398925656935" lon="11.578345252975078"><ele>197.0</ele><time>2026-04-01T19:06:28Z</time></trkpt><trkpt lat="45.721535847596286" lon="11.578438929618718"><ele>197.0</ele><time>2026-04-01T19:06:29Z</time></trkpt><trkpt lat="45.72166356541218" lon="11.578544067831038"><ele>197.0</ele><time>2026-04-01T19:06:30Z</time></trkpt><trkpt lat="45.72178866714003" lon="11.57866122604139"><ele>197.0</ele><time>2026-04-01T19:06:31Z</time></trkpt><trkpt lat="45.72190123611805" lon="11.578804162546474"><ele>199.33333333333334</ele><time>2026-04-01T19:06:32Z</time></trkpt><trkpt lat="45.72200254257717" lon="11.578969397425265"><ele>201.66666666666669</ele><time>2026-04-01T19:06:33Z</time></trkpt><trkpt lat="45.72209193320993" lon="11.579146553971672"><ele>204.0</ele><time>2026-04-01T19:06:34Z</time></trkpt><trkpt lat="45.722180595474605" lon="11.579320450941475"><ele>204.0</ele><time>2026-04-01T19:06:35Z</time></trkpt><trkpt lat="45.72228156463698" lon="11.579483572334064"><ele>204.0</ele><time>2026-04-01T19:06:36Z</time></trkpt><trkpt lat="45.7223930190565" lon="11.579620304406811"><ele>204.0</ele><time>2026-04-01T19:06:37Z</time></trkpt><trkpt lat="45.72251511202881" lon="11.579739849419978"><ele>204.0</ele><time>2026-04-01T19:06:38Z</time></trkpt><trkpt lat="45.72264365058039" lon="11.579839194613605"><ele>205.75</ele><time>2026-04-01T19:06:39Z</time></trkpt><trkpt lat="45.72277436996504" lon="11.579920507304825"><ele>207.5</ele><time>2026-04-01T19:06:40Z</time></trkpt><trkpt lat="45.722904989660044" lon="11.580000337308707"><ele>209.25</ele><time>2026-04-01T19:06:41Z</time></trkpt><trkpt lat="45.72303347972901" lon="11.580079208619699"><ele>211.0</ele><time>2026-04-01T19:06:42Z</time></trkpt><trkpt lat="45.72315979679519" lon="11.580159589700903"><ele>211.0</ele><time>2026-04-01T19:06:43Z</time></trkpt><trkpt lat="45.72328757000611" lon="11.580241445825674"><ele>211.0</ele><time>2026-04-01T19:06:44Z</time></trkpt><trkpt lat="45.7234182346258" lon="11.580322768784837"><ele>211.0</ele><time>2026-04-01T19:06:45Z</time></trkpt><trkpt lat="45.723551575354506" lon="11.580404963767275"><ele>211.0</ele><time>2026-04-01T19:06:46Z</time></trkpt><trkpt lat="45.72368324587842" lon="11.58048493828923"><ele>211.25</ele><time>2026-04-01T19:06:47Z</time></trkpt><trkpt lat="45.72381739210574" lon="11.580565568385131"><ele>211.5</ele><time>2026-04-01T19:06:48Z</time></trkpt><trkpt lat="45.72395255357748" lon="11.580640592385622"><ele>211.75</ele><time>2026-04-01T19:06:49Z</time></trkpt><trkpt lat="45.72408789064098" lon="11.580717557352601"><ele>212.0</ele><time>2026-04-01T19:06:49.999Z</time></trkpt><trkpt lat="45.72421190673141" lon="11.580795559465544"><ele>212.0</ele><time>2026-04-01T19:06:50.999Z</time></trkpt><trkpt lat="45.72432629522955" lon="11.580897617021897"><ele>212.0</ele><time>2026-04-01T19:06:51.999Z</time></trkpt><trkpt lat="45.724426008158495" lon="11.581031550301303"><ele>212.0</ele><time>2026-04-01T19:06:52.999Z</time></trkpt><trkpt lat="45.72451077781096" lon="11.581195110738486"><ele>212.0</ele><time>2026-04-01T19:06:53.999Z</time></trkpt><trkpt lat="45.724576012192415" lon="11.581386336186995"><ele>215.0</ele><time>2026-04-01T19:06:54.999Z</time></trkpt><trkpt lat="45.72463247859173" lon="11.581580105420311"><ele>218.0</ele><time>2026-04-01T19:06:55.999Z</time></trkpt><trkpt lat="45.72469068630106" lon="11.581780140592471"><ele>221.0</ele><time>2026-04-01T19:06:56.999Z</time></trkpt><trkpt lat="45.72475323095682" lon="11.581983681346802"><ele>221.5</ele><time>2026-04-01T19:06:57.999Z</time></trkpt><trkpt lat="45.72481491980103" lon="11.58217346754742"><ele>222.0</ele><time>2026-04-01T19:06:58.999Z</time></trkpt><trkpt lat="45.724872926253084" lon="11.58235768899498"><ele>222.5</ele><time>2026-04-01T19:06:59.999Z</time></trkpt><trkpt lat="45.724932287669105" lon="11.582542670034965"><ele>223.0</ele><time>2026-04-01T19:07:00.999Z</time></trkpt><trkpt lat="45.724993543295724" lon="11.582715977704728"><ele>224.5</ele><time>2026-04-01T19:07:01.999Z</time></trkpt><trkpt lat="45.72507717968938" lon="11.582859889614108"><ele>226.0</ele><time>2026-04-01T19:07:02.999Z</time></trkpt><trkpt lat="45.72518603964404" lon="11.582973617062109"><ele>227.5</ele><time>2026-04-01T19:07:03.999Z</time></trkpt><trkpt lat="45.72529456563895" lon="11.583092043642404"><ele>229.0</ele><time>2026-04-01T19:07:04.999Z</time></trkpt><trkpt lat="45.72540901584307" lon="11.583182562562698"><ele>229.5</ele><time>2026-04-01T19:07:05.999Z</time></trkpt><trkpt lat="45.72551699811483" lon="11.583281817601462"><ele>230.0</ele><time>2026-04-01T19:07:06.999Z</time></trkpt><trkpt lat="45.725632157245045" lon="11.583378594980038"><ele>230.5</ele><time>2026-04-01T19:07:07.999Z</time></trkpt><trkpt lat="45.725743780705066" lon="11.583468909148559"><ele>231.0</ele><time>2026-04-01T19:07:08.999Z</time></trkpt><trkpt lat="45.725857414369045" lon="11.583559487804264"><ele>231.0</ele><time>2026-04-01T19:07:09.999Z</time></trkpt><trkpt lat="45.72597180193232" lon="11.583651766732684"><ele>231.0</ele><time>2026-04-01T19:07:10.999Z</time></trkpt><trkpt lat="45.7260815781653" lon="11.583739000938879"><ele>231.0</ele><time>2026-04-01T19:07:11.999Z</time></trkpt><trkpt lat="45.72619071839713" lon="11.583828414414636"><ele>231.0</ele><time>2026-04-01T19:07:12.999Z</time></trkpt><trkpt lat="45.726289295055594" lon="11.583911027947739"><ele>232.8</ele><time>2026-04-01T19:07:13.999Z</time></trkpt><trkpt lat="45.72638671734177" lon="11.583991102973979"><ele>234.60000000000002</ele><time>2026-04-01T19:07:14.999Z</time></trkpt><trkpt lat="45.72648946176011" lon="11.584072076838023"><ele>236.4</ele><time>2026-04-01T19:07:15.999Z</time></trkpt><trkpt lat="45.72658468837249" lon="11.584151594773841"><ele>238.2</ele><time>2026-04-01T19:07:16.999Z</time></trkpt><trkpt lat="45.726674950122764" lon="11.584217090440632"><ele>240.0</ele><time>2026-04-01T19:07:17.999Z</time></trkpt><trkpt lat="45.72676947210291" lon="11.584253629519427"><ele>240.0</ele><time>2026-04-01T19:07:18.999Z</time></trkpt><trkpt lat="45.72686781008811" lon="11.584248735766817"><ele>240.0</ele><time>2026-04-01T19:07:19.999Z</time></trkpt><trkpt lat="45.726958976674986" lon="11.584188034551739"><ele>240.0</ele><time>2026-04-01T19:07:20.999Z</time></trkpt><trkpt lat="45.727031740203266" lon="11.584086201340394"><ele>240.0</ele><time>2026-04-01T19:07:21.999Z</time></trkpt><trkpt lat="45.7270761136339" lon="11.583948956641153"><ele>240.0</ele><time>2026-04-01T19:07:22.999Z</time></trkpt><trkpt lat="45.72708950898411" lon="11.583791924844569"><ele>242.75</ele><time>2026-04-01T19:07:23.999Z</time></trkpt><trkpt lat="45.72706830533653" lon="11.583629822464358"><ele>245.5</ele><time>2026-04-01T19:07:24.999Z</time></trkpt><trkpt lat="45.72703510057863" lon="11.583466915244099"><ele>248.25</ele><time>2026-04-01T19:07:25.999Z</time></trkpt><trkpt lat="45.726999640196375" lon="11.583284001148291"><ele>251.0</ele><time>2026-04-01T19:07:26.999Z</time></trkpt><trkpt lat="45.726962284290536" lon="11.583092723571934"><ele>251.0</ele><time>2026-04-01T19:07:27.999Z</time></trkpt><trkpt lat="45.72692888208407" lon="11.582921031466421"><ele>251.0</ele><time>2026-04-01T19:07:28.999Z</time></trkpt><trkpt lat="45.72689545069527" lon="11.582737995578"><ele>251.0</ele><time>2026-04-01T19:07:29.999Z</time></trkpt><trkpt lat="45.72685864432825" lon="11.582561053711812"><ele>251.0</ele><time>2026-04-01T19:07:30.999Z</time></trkpt><trkpt lat="45.72682990824037" lon="11.582377399013472"><ele>249.25</ele><time>2026-04-01T19:07:31.999Z</time></trkpt><trkpt lat="45.72679900119953" lon="11.58219638277981"><ele>247.5</ele><time>2026-04-01T19:07:32.999Z</time></trkpt><trkpt lat="45.72676880724664" lon="11.582039943862181"><ele>245.75</ele><time>2026-04-01T19:07:33.999Z</time></trkpt><trkpt lat="45.7267415471" lon="11.581873175651475"><ele>244.0</ele><time>2026-04-01T19:07:34.999Z</time></trkpt><trkpt lat="45.726725587738194" lon="11.58172160148502"><ele>243.99999999999997</ele><time>2026-04-01T19:07:35.999Z</time></trkpt><trkpt lat="45.72672788705165" lon="11.581588557117712"><ele>244.0</ele><time>2026-04-01T19:07:36.999Z</time></trkpt><trkpt lat="45.726758366556346" lon="11.581482043784826"><ele>244.0</ele><time>2026-04-01T19:07:37.999Z</time></trkpt><trkpt lat="45.72681867364531" lon="11.581418379596716"><ele>244.0</ele><time>2026-04-01T19:07:38.999Z</time></trkpt><trkpt lat="45.726901080526794" lon="11.581386866864694"><ele>243.99999999999997</ele><time>2026-04-01T19:07:39.999Z</time></trkpt><trkpt lat="45.726987696664" lon="11.58136389170369"><ele>244.0</ele><time>2026-04-01T19:07:40.999Z</time></trkpt><trkpt lat="45.727078474430144" lon="11.5813445730362"><ele>246.79999999999998</ele><time>2026-04-01T19:07:41.999Z</time></trkpt><trkpt lat="45.72717254116647" lon="11.581331000800404"><ele>249.59999999999997</ele><time>2026-04-01T19:07:42.999Z</time></trkpt><trkpt lat="45.727264142328124" lon="11.581334735405164"><ele>252.4</ele><time>2026-04-01T19:07:43.999Z</time></trkpt><trkpt lat="45.727357576164586" lon="11.581344818908669"><ele>255.2</ele><time>2026-04-01T19:07:44.999Z</time></trkpt><trkpt lat="45.72744516239113" lon="11.58138631753285"><ele>258.0</ele><time>2026-04-01T19:07:45.999Z</time></trkpt><trkpt lat="45.72752952406269" lon="11.581451332320684"><ele>258.0</ele><time>2026-04-01T19:07:46.999Z</time></trkpt><trkpt lat="45.72759882892621" lon="11.581541070660759"><ele>258.0</ele><time>2026-04-01T19:07:47.999Z</time></trkpt><trkpt lat="45.72764031363629" lon="11.581661901817027"><ele>258.0</ele><time>2026-04-01T19:07:48.999Z</time></trkpt><trkpt lat="45.72766424246443" lon="11.581792899307787"><ele>258.0</ele><time>2026-04-01T19:07:49.999Z</time></trkpt><trkpt lat="45.72768650675468" lon="11.581933356235641"><ele>258.0</ele><time>2026-04-01T19:07:50.999Z</time></trkpt><trkpt lat="45.72771316827303" lon="11.582077519083242"><ele>260.0</ele><time>2026-04-01T19:07:51.999Z</time></trkpt><trkpt lat="45.72775404084263" lon="11.582215769543303"><ele>262.0</ele><time>2026-04-01T19:07:52.999Z</time></trkpt><trkpt lat="45.72781875099249" lon="11.582336669078897"><ele>264.0</ele><time>2026-04-01T19:07:53.999Z</time></trkpt><trkpt lat="45.72790014905908" lon="11.582435901767566"><ele>266.0</ele><time>2026-04-01T19:07:54.999Z</time></trkpt><trkpt lat="45.72799037251092" lon="11.582522803827047"><ele>268.0</ele><time>2026-04-01T19:07:55.999Z</time></trkpt><trkpt lat="45.72808811319147" lon="11.582611008951945"><ele>268.0</ele><time>2026-04-01T19:07:56.999Z</time></trkpt><trkpt lat="45.72819309529605" lon="11.58269610220245"><ele>268.0</ele><time>2026-04-01T19:07:57.999Z</time></trkpt><trkpt lat="45.72829293595541" lon="11.582761574444334"><ele>268.0</ele><time>2026-04-01T19:07:58.999Z</time></trkpt><trkpt lat="45.72839536959186" lon="11.582816597886174"><ele>268.0</ele><time>2026-04-01T19:07:59.999Z</time></trkpt><trkpt lat="45.728497479124336" lon="11.582857186988319"><ele>268.0</ele><time>2026-04-01T19:08:00.999Z</time></trkpt><trkpt lat="45.72858986631619" lon="11.582884986188896"><ele>269.2</ele><time>2026-04-01T19:08:02Z</time></trkpt><trkpt lat="45.72868249922726" lon="11.582903600887834"><ele>270.4</ele><time>2026-04-01T19:08:03Z</time></trkpt><trkpt lat="45.72878477811038" lon="11.582917223637013"><ele>271.59999999999997</ele><time>2026-04-01T19:08:04Z</time></trkpt><trkpt lat="45.72888688091998" lon="11.582928654365201"><ele>272.8</ele><time>2026-04-01T19:08:05Z</time></trkpt><trkpt lat="45.72898511673875" lon="11.582940221570738"><ele>274.0</ele><time>2026-04-01T19:08:06Z</time></trkpt><trkpt lat="45.72907831879871" lon="11.58295903105207"><ele>274.0</ele><time>2026-04-01T19:08:07Z</time></trkpt><trkpt lat="45.72916372211606" lon="11.582992244422188"><ele>274.0</ele><time>2026-04-01T19:08:08Z</time></trkpt><trkpt lat="45.72924630403606" lon="11.5830502013503"><ele>274.0</ele><time>2026-04-01T19:08:09Z</time></trkpt><trkpt lat="45.729323970787966" lon="11.583131241945098"><ele>274.0</ele><time>2026-04-01T19:08:10Z</time></trkpt><trkpt lat="45.72939857276669" lon="11.58322333504035"><ele>274.0</ele><time>2026-04-01T19:08:11Z</time></trkpt><trkpt lat="45.729467478650285" lon="11.583327836791934"><ele>275.8</ele><time>2026-04-01T19:08:12Z</time></trkpt><trkpt lat="45.729540979315274" lon="11.583435135237565"><ele>277.59999999999997</ele><time>2026-04-01T19:08:13Z</time></trkpt><trkpt lat="45.729609368142825" lon="11.583545468670515"><ele>279.4</ele><time>2026-04-01T19:08:14Z</time></trkpt><trkpt lat="45.72968211558887" lon="11.583649729892734"><ele>281.2</ele><time>2026-04-01T19:08:15Z</time></trkpt><trkpt lat="45.72976497803569" lon="11.583745217698464"><ele>283.0</ele><time>2026-04-01T19:08:16Z</time></trkpt><trkpt lat="45.729860985564855" lon="11.58381767672489"><ele>283.2</ele><time>2026-04-01T19:08:17Z</time></trkpt><trkpt lat="45.72995919537231" lon="11.583887069601992"><ele>283.4</ele><time>2026-04-01T19:08:18Z</time></trkpt><trkpt lat="45.73006224058159" lon="11.583955228631444"><ele>283.59999999999997</ele><time>2026-04-01T19:08:19Z</time></trkpt><trkpt lat="45.730168725501045" lon="11.584013781620085"><ele>283.8</ele><time>2026-04-01T19:08:20Z</time></trkpt><trkpt lat="45.7302774732387" lon="11.584039618776393"><ele>284.0</ele><time>2026-04-01T19:08:21Z</time></trkpt><trkpt lat="45.730383892971815" lon="11.584029286773688"><ele>284.5</ele><time>2026-04-01T19:08:22Z</time></trkpt><trkpt lat="45.73049632123466" lon="11.583991474867522"><ele>285.0</ele><time>2026-04-01T19:08:23Z</time></trkpt><trkpt lat="45.73060568364438" lon="11.583929551243184"><ele>285.5</ele><time>2026-04-01T19:08:24Z</time></trkpt><trkpt lat="45.73071023856461" lon="11.583841699308788"><ele>286.0</ele><time>2026-04-01T19:08:25Z</time></trkpt><trkpt lat="45.73080701033071" lon="11.583746273358603"><ele>285.75</ele><time>2026-04-01T19:08:26Z</time></trkpt><trkpt lat="45.73089893301861" lon="11.583630762721356"><ele>285.5</ele><time>2026-04-01T19:08:27Z</time></trkpt><trkpt lat="45.73098594369704" lon="11.583496641807637"><ele>285.25</ele><time>2026-04-01T19:08:28Z</time></trkpt><trkpt lat="45.73107581064553" lon="11.58335520902825"><ele>285.0</ele><time>2026-04-01T19:08:29Z</time></trkpt><trkpt lat="45.73116909872055" lon="11.583206065056364"><ele>285.0</ele><time>2026-04-01T19:08:30Z</time></trkpt><trkpt lat="45.731253014343054" lon="11.583065242667578"><ele>285.0</ele><time>2026-04-01T19:08:31Z</time></trkpt><trkpt lat="45.73134067802254" lon="11.582932722414292"><ele>285.0</ele><time>2026-04-01T19:08:32Z</time></trkpt><trkpt lat="45.73142752448745" lon="11.582813497272554"><ele>285.0</ele><time>2026-04-01T19:08:33Z</time></trkpt><trkpt lat="45.73151278037723" lon="11.582713546885984"><ele>285.25</ele><time>2026-04-01T19:08:34Z</time></trkpt><trkpt lat="45.73161268569314" lon="11.582645175806208"><ele>285.5</ele><time>2026-04-01T19:08:35Z</time></trkpt><trkpt lat="45.73172148688603" lon="11.582608046364678"><ele>285.75</ele><time>2026-04-01T19:08:36Z</time></trkpt><trkpt lat="45.73183575362721" lon="11.582600063921511"><ele>286.0</ele><time>2026-04-01T19:08:37Z</time></trkpt><trkpt lat="45.731960923303085" lon="11.582609418027792"><ele>286.0</ele><time>2026-04-01T19:08:38Z</time></trkpt><trkpt lat="45.73208096288942" lon="11.582638696602002"><ele>286.0</ele><time>2026-04-01T19:08:39Z</time></trkpt><trkpt lat="45.732207501488986" lon="11.582673818269292"><ele>286.0</ele><time>2026-04-01T19:08:40Z</time></trkpt><trkpt lat="45.73233768972704" lon="11.582713394157597"><ele>286.0</ele><time>2026-04-01T19:08:41Z</time></trkpt><trkpt lat="45.73246917501387" lon="11.582762046358036"><ele>286.0</ele><time>2026-04-01T19:08:42Z</time></trkpt><trkpt lat="45.732606128958885" lon="11.58281542885782"><ele>286.0</ele><time>2026-04-01T19:08:43Z</time></trkpt><trkpt lat="45.732746487473996" lon="11.58286830194473"><ele>286.0</ele><time>2026-04-01T19:08:44Z</time></trkpt><trkpt lat="45.73288457451112" lon="11.58291905747938"><ele>286.0</ele><time>2026-04-01T19:08:45Z</time></trkpt><trkpt lat="45.73302118086755" lon="11.582962397809306"><ele>286.0</ele><time>2026-04-01T19:08:46Z</time></trkpt><trkpt lat="45.73315573705615" lon="11.583019296372488"><ele>286.0</ele><time>2026-04-01T19:08:47Z</time></trkpt><trkpt lat="45.73329552143247" lon="11.583073655439154"><ele>286.0</ele><time>2026-04-01T19:08:48Z</time></trkpt><trkpt lat="45.733433605888344" lon="11.583123613585185"><ele>286.0</ele><time>2026-04-01T19:08:49Z</time></trkpt><trkpt lat="45.733572080732955" lon="11.583173598457055"><ele>286.0</ele><time>2026-04-01T19:08:49.999Z</time></trkpt><trkpt lat="45.733713762009636" lon="11.583224484552513"><ele>286.0</ele><time>2026-04-01T19:08:50.999Z</time></trkpt><trkpt lat="45.73385990743395" lon="11.58326945974495"><ele>286.0</ele><time>2026-04-01T19:08:51.999Z</time></trkpt><trkpt lat="45.73400189774031" lon="11.583304217871978"><ele>286.0</ele><time>2026-04-01T19:08:52.999Z</time></trkpt><trkpt lat="45.73414690912296" lon="11.583318654507073"><ele>286.0</ele><time>2026-04-01T19:08:53.999Z</time></trkpt><trkpt lat="45.73429012650347" lon="11.58330302612483"><ele>286.0</ele><time>2026-04-01T19:08:54.999Z</time></trkpt><trkpt lat="45.73443441042232" lon="11.583256616614745"><ele>286.0</ele><time>2026-04-01T19:08:55.999Z</time></trkpt><trkpt lat="45.73456491602693" lon="11.583185708681633"><ele>286.0</ele><time>2026-04-01T19:08:56.999Z</time></trkpt><trkpt lat="45.734686043275154" lon="11.583096420178594"><ele>287.0</ele><time>2026-04-01T19:08:57.999Z</time></trkpt><trkpt lat="45.73480520491405" lon="11.58300151278296"><ele>288.0</ele><time>2026-04-01T19:08:58.999Z</time></trkpt><trkpt lat="45.734934188394654" lon="11.58292516921598"><ele>289.0</ele><time>2026-04-01T19:08:59.999Z</time></trkpt><trkpt lat="45.735062110170524" lon="11.582835035316466"><ele>290.0</ele><time>2026-04-01T19:09:00.999Z</time></trkpt><trkpt lat="45.73519571815212" lon="11.582739652132643"><ele>291.25</ele><time>2026-04-01T19:09:01.999Z</time></trkpt><trkpt lat="45.735325906906205" lon="11.58264623986832"><ele>292.5</ele><time>2026-04-01T19:09:02.999Z</time></trkpt><trkpt lat="45.73545562717027" lon="11.582553163756735"><ele>293.75</ele><time>2026-04-01T19:09:03.999Z</time></trkpt><trkpt lat="45.73559067748128" lon="11.582456263236743"><ele>295.0</ele><time>2026-04-01T19:09:04.999Z</time></trkpt><trkpt lat="45.735728198482896" lon="11.582370426310629"><ele>295.0</ele><time>2026-04-01T19:09:05.999Z</time></trkpt><trkpt lat="45.735846433806046" lon="11.58228892535765"><ele>295.0</ele><time>2026-04-01T19:09:06.999Z</time></trkpt><trkpt lat="45.73597371643679" lon="11.582205234430006"><ele>295.0</ele><time>2026-04-01T19:09:07.999Z</time></trkpt><trkpt lat="45.73610388057702" lon="11.58214454472204"><ele>295.0</ele><time>2026-04-01T19:09:08.999Z</time></trkpt><trkpt lat="45.73624658675491" lon="11.582118773011452"><ele>294.5</ele><time>2026-04-01T19:09:09.999Z</time></trkpt><trkpt lat="45.736377681955645" lon="11.582158291494306"><ele>294.0</ele><time>2026-04-01T19:09:10.999Z</time></trkpt><trkpt lat="45.73651714503577" lon="11.582210271095892"><ele>293.5</ele><time>2026-04-01T19:09:11.999Z</time></trkpt><trkpt lat="45.736645031117746" lon="11.582280645523536"><ele>293.0</ele><time>2026-04-01T19:09:12.999Z</time></trkpt><trkpt lat="45.73676482049331" lon="11.582357789311741"><ele>293.5</ele><time>2026-04-01T19:09:13.999Z</time></trkpt><trkpt lat="45.736889262082684" lon="11.582424346116971"><ele>294.0</ele><time>2026-04-01T19:09:14.999Z</time></trkpt><trkpt lat="45.73701621233617" lon="11.582474281811896"><ele>294.5</ele><time>2026-04-01T19:09:15.999Z</time></trkpt><trkpt lat="45.73715967419947" lon="11.582501441737712"><ele>295.0</ele><time>2026-04-01T19:09:16.999Z</time></trkpt><trkpt lat="45.73729540464971" lon="11.582448217192933"><ele>295.0</ele><time>2026-04-01T19:09:17.999Z</time></trkpt><trkpt lat="45.73742573964068" lon="11.582404201210931"><ele>295.0</ele><time>2026-04-01T19:09:18.999Z</time></trkpt><trkpt lat="45.73755812283267" lon="11.582375381846894"><ele>295.0</ele><time>2026-04-01T19:09:19.999Z</time></trkpt><trkpt lat="45.73769694631001" lon="11.58236133130035"><ele>295.0</ele><time>2026-04-01T19:09:20.999Z</time></trkpt><trkpt lat="45.73783571117935" lon="11.582335462951024"><ele>296.0</ele><time>2026-04-01T19:09:21.999Z</time></trkpt><trkpt lat="45.73796614725207" lon="11.582298955270534"><ele>297.0</ele><time>2026-04-01T19:09:22.999Z</time></trkpt><trkpt lat="45.738095737859986" lon="11.582308068544627"><ele>298.0</ele><time>2026-04-01T19:09:23.999Z</time></trkpt><trkpt lat="45.73823097320644" lon="11.582349627315894"><ele>299.0</ele><time>2026-04-01T19:09:24.999Z</time></trkpt><trkpt lat="45.738358060915786" lon="11.582386217098232"><ele>299.0</ele><time>2026-04-01T19:09:25.999Z</time></trkpt><trkpt lat="45.73848729477555" lon="11.582448710084664"><ele>299.0</ele><time>2026-04-01T19:09:26.999Z</time></trkpt><trkpt lat="45.73859930939014" lon="11.582509011831686"><ele>299.0</ele><time>2026-04-01T19:09:27.999Z</time></trkpt><trkpt lat="45.738703429988" lon="11.582540950534947"><ele>299.0</ele><time>2026-04-01T19:09:28.999Z</time></trkpt><trkpt lat="45.7388120758896" lon="11.582527761656626"><ele>298.2</ele><time>2026-04-01T19:09:29.999Z</time></trkpt><trkpt lat="45.73892161933138" lon="11.582495596384442"><ele>297.4</ele><time>2026-04-01T19:09:30.999Z</time></trkpt><trkpt lat="45.739017416048945" lon="11.582455581527281"><ele>296.6</ele><time>2026-04-01T19:09:31.999Z</time></trkpt><trkpt lat="45.73910329416379" lon="11.582396960534085"><ele>295.8</ele><time>2026-04-01T19:09:32.999Z</time></trkpt><trkpt lat="45.739177752626595" lon="11.58230983657997"><ele>295.0</ele><time>2026-04-01T19:09:33.999Z</time></trkpt><trkpt lat="45.739233954060104" lon="11.582185076129656"><ele>295.0</ele><time>2026-04-01T19:09:34.999Z</time></trkpt><trkpt lat="45.73928377716874" lon="11.582048346177197"><ele>295.0</ele><time>2026-04-01T19:09:35.999Z</time></trkpt><trkpt lat="45.73934090342752" lon="11.581914385282252"><ele>295.0</ele><time>2026-04-01T19:09:36.999Z</time></trkpt><trkpt lat="45.73940586731907" lon="11.581786222580257"><ele>295.0</ele><time>2026-04-01T19:09:37.999Z</time></trkpt><trkpt lat="45.73949448046291" lon="11.581670523387336"><ele>295.0</ele><time>2026-04-01T19:09:38.999Z</time></trkpt><trkpt lat="45.739589581400004" lon="11.581580514184973"><ele>292.0</ele><time>2026-04-01T19:09:39.999Z</time></trkpt><trkpt lat="45.73969541238113" lon="11.581517355239336"><ele>289.0</ele><time>2026-04-01T19:09:40.999Z</time></trkpt><trkpt lat="45.73979504359896" lon="11.581451579921577"><ele>286.0</ele><time>2026-04-01T19:09:41.999Z</time></trkpt><trkpt lat="45.73987912654087" lon="11.581356865643302"><ele>283.0</ele><time>2026-04-01T19:09:42.999Z</time></trkpt><trkpt lat="45.739945948976505" lon="11.581212823077834"><ele>285.5</ele><time>2026-04-01T19:09:43.999Z</time></trkpt><trkpt lat="45.73998934246998" lon="11.581062965080232"><ele>288.0</ele><time>2026-04-01T19:09:44.999Z</time></trkpt><trkpt lat="45.7400303489622" lon="11.58091398420712"><ele>290.5</ele><time>2026-04-01T19:09:45.999Z</time></trkpt><trkpt lat="45.74008579280911" lon="11.58077197181773"><ele>293.0</ele><time>2026-04-01T19:09:46.999Z</time></trkpt><trkpt lat="45.74016919591113" lon="11.580645859284228"><ele>291.75</ele><time>2026-04-01T19:09:47.999Z</time></trkpt><trkpt lat="45.74026696748571" lon="11.580549440313163"><ele>290.5</ele><time>2026-04-01T19:09:48.999Z</time></trkpt><trkpt lat="45.74038372536051" lon="11.580466858050677"><ele>289.25</ele><time>2026-04-01T19:09:49.999Z</time></trkpt><trkpt lat="45.74050585120386" lon="11.580391530399899"><ele>288.0</ele><time>2026-04-01T19:09:50.999Z</time></trkpt><trkpt lat="45.740636106304734" lon="11.580305974545032"><ele>288.0</ele><time>2026-04-01T19:09:51.999Z</time></trkpt><trkpt lat="45.740766385156846" lon="11.580217922149204"><ele>288.0</ele><time>2026-04-01T19:09:52.999Z</time></trkpt><trkpt lat="45.74089685779312" lon="11.580134958188403"><ele>288.0</ele><time>2026-04-01T19:09:53.999Z</time></trkpt><trkpt lat="45.741038074563924" lon="11.580068933388713"><ele>288.0</ele><time>2026-04-01T19:09:54.999Z</time></trkpt><trkpt lat="45.741174869597245" lon="11.580007605128273"><ele>287.0</ele><time>2026-04-01T19:09:55.999Z</time></trkpt><trkpt lat="45.7413166926789" lon="11.579938493040519"><ele>286.0</ele><time>2026-04-01T19:09:56.999Z</time></trkpt><trkpt lat="45.74145990470634" lon="11.579889101132817"><ele>285.0</ele><time>2026-04-01T19:09:57.999Z</time></trkpt><trkpt lat="45.74159693037481" lon="11.579861281039689"><ele>284.0</ele><time>2026-04-01T19:09:58.999Z</time></trkpt><trkpt lat="45.741735685381826" lon="11.57986072218903"><ele>284.0</ele><time>2026-04-01T19:09:59.999Z</time></trkpt><trkpt lat="45.74187455185441" lon="11.579879397475215"><ele>284.0</ele><time>2026-04-01T19:10:00.999Z</time></trkpt><trkpt lat="45.74200588450791" lon="11.579923609460161"><ele>284.0</ele><time>2026-04-01T19:10:01.999Z</time></trkpt><trkpt lat="45.74213839625163" lon="11.579977777202236"><ele>284.0</ele><time>2026-04-01T19:10:02.999Z</time></trkpt><trkpt lat="45.74225970781475" lon="11.580010930994"><ele>285.25</ele><time>2026-04-01T19:10:03.999Z</time></trkpt><trkpt lat="45.74238564987838" lon="11.580018321837366"><ele>286.5</ele><time>2026-04-01T19:10:04.999Z</time></trkpt><trkpt lat="45.742524048697604" lon="11.579982337234874"><ele>287.75</ele><time>2026-04-01T19:10:05.999Z</time></trkpt><trkpt lat="45.7426546929706" lon="11.57992669802704"><ele>289.0</ele><time>2026-04-01T19:10:06.999Z</time></trkpt><trkpt lat="45.74277778550048" lon="11.579837731356452"><ele>289.25</ele><time>2026-04-01T19:10:08Z</time></trkpt><trkpt lat="45.74288925470712" lon="11.579735417724159"><ele>289.5</ele><time>2026-04-01T19:10:09Z</time></trkpt><trkpt lat="45.74299224641003" lon="11.579612997031258"><ele>289.75</ele><time>2026-04-01T19:10:10Z</time></trkpt><trkpt lat="45.743079255086734" lon="11.579475233852202"><ele>290.0</ele><time>2026-04-01T19:10:11Z</time></trkpt><trkpt lat="45.74315260687175" lon="11.579321538177782"><ele>290.0</ele><time>2026-04-01T19:10:12Z</time></trkpt><trkpt lat="45.74321183006486" lon="11.579160870350101"><ele>290.0</ele><time>2026-04-01T19:10:13Z</time></trkpt><trkpt lat="45.74327466381087" lon="11.579017224854683"><ele>290.0</ele><time>2026-04-01T19:10:14Z</time></trkpt><trkpt lat="45.743349280279" lon="11.578890105646678"><ele>290.0</ele><time>2026-04-01T19:10:15Z</time></trkpt><trkpt lat="45.74343915886043" lon="11.578789130718596"><ele>290.0</ele><time>2026-04-01T19:10:16Z</time></trkpt><trkpt lat="45.74354006650675" lon="11.578710410114159"><ele>290.0</ele><time>2026-04-01T19:10:17Z</time></trkpt><trkpt lat="45.74364787271132" lon="11.578638796055152"><ele>290.0</ele><time>2026-04-01T19:10:18Z</time></trkpt><trkpt lat="45.74375399867466" lon="11.578568500085584"><ele>290.0</ele><time>2026-04-01T19:10:19Z</time></trkpt><trkpt lat="45.74386036508085" lon="11.578512394786577"><ele>291.0</ele><time>2026-04-01T19:10:20Z</time></trkpt><trkpt lat="45.743966074295095" lon="11.578449758108135"><ele>292.0</ele><time>2026-04-01T19:10:21Z</time></trkpt><trkpt lat="45.74406067569738" lon="11.578393238510094"><ele>293.0</ele><time>2026-04-01T19:10:22Z</time></trkpt><trkpt lat="45.74415649365867" lon="11.578336892295157"><ele>294.0</ele><time>2026-04-01T19:10:23Z</time></trkpt><trkpt lat="45.744255301215" lon="11.578275087934873"><ele>295.0</ele><time>2026-04-01T19:10:24Z</time></trkpt><trkpt lat="45.74435697980045" lon="11.578202951496902"><ele>294.8</ele><time>2026-04-01T19:10:25Z</time></trkpt><trkpt lat="45.74444866989931" lon="11.578132608240637"><ele>294.6</ele><time>2026-04-01T19:10:26Z</time></trkpt><trkpt lat="45.744536169667406" lon="11.578055349374349"><ele>294.4</ele><time>2026-04-01T19:10:27Z</time></trkpt><trkpt lat="45.744607131758606" lon="11.577951013450845"><ele>294.2</ele><time>2026-04-01T19:10:28Z</time></trkpt><trkpt lat="45.74465837615852" lon="11.577821369696053"><ele>294.0</ele><time>2026-04-01T19:10:29Z</time></trkpt><trkpt lat="45.74468574923837" lon="11.577684057856507"><ele>293.5</ele><time>2026-04-01T19:10:30Z</time></trkpt><trkpt lat="45.744709657322964" lon="11.577529685340133"><ele>293.0</ele><time>2026-04-01T19:10:31Z</time></trkpt><trkpt lat="45.74473178163783" lon="11.577371803249253"><ele>292.5</ele><time>2026-04-01T19:10:32Z</time></trkpt><trkpt lat="45.744758409569165" lon="11.577215545298651"><ele>292.0</ele><time>2026-04-01T19:10:33Z</time></trkpt><trkpt lat="45.74478899482241" lon="11.577051389103145"><ele>292.5</ele><time>2026-04-01T19:10:34Z</time></trkpt><trkpt lat="45.74481829990905" lon="11.57688330904375"><ele>293.0</ele><time>2026-04-01T19:10:35Z</time></trkpt><trkpt lat="45.74484990919011" lon="11.576703608624449"><ele>293.5</ele><time>2026-04-01T19:10:36Z</time></trkpt><trkpt lat="45.74488513755989" lon="11.576523329174059"><ele>294.0</ele><time>2026-04-01T19:10:37Z</time></trkpt><trkpt lat="45.74493441283501" lon="11.576345369450944"><ele>293.75</ele><time>2026-04-01T19:10:38Z</time></trkpt><trkpt lat="45.744989777451806" lon="11.576157065022219"><ele>293.5</ele><time>2026-04-01T19:10:39Z</time></trkpt><trkpt lat="45.74505230283949" lon="11.575973208778501"><ele>293.25</ele><time>2026-04-01T19:10:40Z</time></trkpt><trkpt lat="45.74512417437547" lon="11.57578833715613"><ele>293.0</ele><time>2026-04-01T19:10:41Z</time></trkpt><trkpt lat="45.74519828619891" lon="11.575603067492208"><ele>294.5</ele><time>2026-04-01T19:10:42Z</time></trkpt><trkpt lat="45.74526846133831" lon="11.575407181587018"><ele>296.0</ele><time>2026-04-01T19:10:43Z</time></trkpt><trkpt lat="45.745320891585926" lon="11.575210196527545"><ele>297.5</ele><time>2026-04-01T19:10:44Z</time></trkpt><trkpt lat="45.74535469591395" lon="11.575006666448363"><ele>299.0</ele><time>2026-04-01T19:10:45Z</time></trkpt><trkpt lat="45.745385599064306" lon="11.574807911760109"><ele>301.25</ele><time>2026-04-01T19:10:46Z</time></trkpt><trkpt lat="45.74541378013563" lon="11.574608385109178"><ele>303.5</ele><time>2026-04-01T19:10:47Z</time></trkpt><trkpt lat="45.745430834433606" lon="11.574415868713182"><ele>305.75</ele><time>2026-04-01T19:10:48Z</time></trkpt><trkpt lat="45.745457259271795" lon="11.574224192038667"><ele>308.0</ele><time>2026-04-01T19:10:49Z</time></trkpt><trkpt lat="45.74547950245038" lon="11.574032421693621"><ele>308.25</ele><time>2026-04-01T19:10:50Z</time></trkpt><trkpt lat="45.74550028198765" lon="11.573847164068265"><ele>308.5</ele><time>2026-04-01T19:10:51Z</time></trkpt><trkpt lat="45.745522598599294" lon="11.573666072455326"><ele>308.75</ele><time>2026-04-01T19:10:52Z</time></trkpt><trkpt lat="45.74554586430789" lon="11.573495360082575"><ele>309.0</ele><time>2026-04-01T19:10:52.999Z</time></trkpt><trkpt lat="45.74557517942108" lon="11.573345256318342"><ele>308.2</ele><time>2026-04-01T19:10:53.999Z</time></trkpt><trkpt lat="45.74561356399073" lon="11.573220983019567"><ele>307.4</ele><time>2026-04-01T19:10:54.999Z</time></trkpt><trkpt lat="45.7456817909608" lon="11.573122485715045"><ele>306.6</ele><time>2026-04-01T19:10:55.999Z</time></trkpt><trkpt lat="45.745762922279866" lon="11.573067472013912"><ele>305.8</ele><time>2026-04-01T19:10:56.999Z</time></trkpt><trkpt lat="45.745845497180035" lon="11.573058342259586"><ele>305.0</ele><time>2026-04-01T19:10:57.999Z</time></trkpt><trkpt lat="45.74593047597789" lon="11.573068281339756"><ele>305.0</ele><time>2026-04-01T19:10:58.999Z</time></trkpt><trkpt lat="45.746007061595115" lon="11.573129014976974"><ele>305.0</ele><time>2026-04-01T19:10:59.999Z</time></trkpt><trkpt lat="45.74606960654928" lon="11.573210626608809"><ele>305.0</ele><time>2026-04-01T19:11:00.999Z</time></trkpt><trkpt lat="45.74613794793506" lon="11.573319908177895"><ele>305.0</ele><time>2026-04-01T19:11:01.999Z</time></trkpt><trkpt lat="45.746197920566736" lon="11.5734382063241"><ele>305.0</ele><time>2026-04-01T19:11:02.999Z</time></trkpt><trkpt lat="45.74627215463206" lon="11.573559117547596"><ele>305.25</ele><time>2026-04-01T19:11:03.999Z</time></trkpt><trkpt lat="45.74634961106165" lon="11.573685059645964"><ele>305.5</ele><time>2026-04-01T19:11:04.999Z</time></trkpt><trkpt lat="45.74644381697708" lon="11.573771396495479"><ele>305.75</ele><time>2026-04-01T19:11:05.999Z</time></trkpt><trkpt lat="45.74655485053481" lon="11.573835943745657"><ele>306.0</ele><time>2026-04-01T19:11:06.999Z</time></trkpt><trkpt lat="45.74668232917427" lon="11.573881365481448"><ele>308.75</ele><time>2026-04-01T19:11:07.999Z</time></trkpt><trkpt lat="45.74682013962645" lon="11.573907772235934"><ele>311.5</ele><time>2026-04-01T19:11:08.999Z</time></trkpt><trkpt lat="45.74696546876281" lon="11.573922906002375"><ele>314.25</ele><time>2026-04-01T19:11:09.999Z</time></trkpt><trkpt lat="45.747102442924025" lon="11.573938456441775"><ele>317.0</ele><time>2026-04-01T19:11:10.999Z</time></trkpt><trkpt lat="45.74723992739295" lon="11.573936290755901"><ele>318.25</ele><time>2026-04-01T19:11:11.999Z</time></trkpt><trkpt lat="45.7473745367178" lon="11.573929650359306"><ele>319.5</ele><time>2026-04-01T19:11:12.999Z</time></trkpt><trkpt lat="45.7475096521706" lon="11.573923459813626"><ele>320.75</ele><time>2026-04-01T19:11:13.999Z</time></trkpt><trkpt lat="45.747636288832695" lon="11.573918024315253"><ele>322.0</ele><time>2026-04-01T19:11:14.999Z</time></trkpt><trkpt lat="45.74776511434768" lon="11.573913728052867"><ele>323.0</ele><time>2026-04-01T19:11:15.999Z</time></trkpt><trkpt lat="45.74788375458345" lon="11.573906436992482"><ele>324.0</ele><time>2026-04-01T19:11:16.999Z</time></trkpt><trkpt lat="45.74800194633262" lon="11.573927458790633"><ele>325.0</ele><time>2026-04-01T19:11:17.999Z</time></trkpt><trkpt lat="45.7481160138902" lon="11.573960266458645"><ele>326.0</ele><time>2026-04-01T19:11:18.999Z</time></trkpt><trkpt lat="45.74822771855747" lon="11.57402862901947"><ele>326.0</ele><time>2026-04-01T19:11:19.999Z</time></trkpt><trkpt lat="45.74831390769046" lon="11.574102868224479"><ele>326.0</ele><time>2026-04-01T19:11:20.999Z</time></trkpt><trkpt lat="45.748394593041326" lon="11.574186968604044"><ele>326.0</ele><time>2026-04-01T19:11:21.999Z</time></trkpt><trkpt lat="45.74848111254161" lon="11.574268811907576"><ele>326.0</ele><time>2026-04-01T19:11:22.999Z</time></trkpt><trkpt lat="45.748571915050626" lon="11.574347827126177"><ele>326.0</ele><time>2026-04-01T19:11:23.999Z</time></trkpt><trkpt lat="45.74865365552583" lon="11.57441081317787"><ele>328.20000000000005</ele><time>2026-04-01T19:11:24.999Z</time></trkpt><trkpt lat="45.74874295087329" lon="11.574463295016184"><ele>330.40000000000003</ele><time>2026-04-01T19:11:25.999Z</time></trkpt><trkpt lat="45.74883996015072" lon="11.574481598856341"><ele>332.6</ele><time>2026-04-01T19:11:26.999Z</time></trkpt><trkpt lat="45.7489431812317" lon="11.574464977884546"><ele>334.8</ele><time>2026-04-01T19:11:27.999Z</time></trkpt><trkpt lat="45.74903970696995" lon="11.574402901469137"><ele>337.0</ele><time>2026-04-01T19:11:28.999Z</time></trkpt><trkpt lat="45.749123881019685" lon="11.574300686980287"><ele>337.0</ele><time>2026-04-01T19:11:29.999Z</time></trkpt><trkpt lat="45.74918780914831" lon="11.574162078562818"><ele>337.0</ele><time>2026-04-01T19:11:30.999Z</time></trkpt><trkpt lat="45.74924805541026" lon="11.574009267284366"><ele>337.0</ele><time>2026-04-01T19:11:31.999Z</time></trkpt><trkpt lat="45.74930586655919" lon="11.573845556297181"><ele>337.0</ele><time>2026-04-01T19:11:32.999Z</time></trkpt><trkpt lat="45.749357649401695" lon="11.573680992060527"><ele>341.0</ele><time>2026-04-01T19:11:33.999Z</time></trkpt><trkpt lat="45.749397707625846" lon="11.573519207068912"><ele>345.0</ele><time>2026-04-01T19:11:34.999Z</time></trkpt><trkpt lat="45.74941933616236" lon="11.573344569061387"><ele>349.0</ele><time>2026-04-01T19:11:35.999Z</time></trkpt><trkpt lat="45.749434652314335" lon="11.573171806700964"><ele>353.0</ele><time>2026-04-01T19:11:36.999Z</time></trkpt><trkpt lat="45.74945979722627" lon="11.573000304481537"><ele>352.2</ele><time>2026-04-01T19:11:37.999Z</time></trkpt><trkpt lat="45.749473973951595" lon="11.572836248343206"><ele>351.4</ele><time>2026-04-01T19:11:38.999Z</time></trkpt><trkpt lat="45.74951109426333" lon="11.572685250516797"><ele>350.59999999999997</ele><time>2026-04-01T19:11:39.999Z</time></trkpt><trkpt lat="45.749570404927624" lon="11.572550188583424"><ele>349.79999999999995</ele><time>2026-04-01T19:11:40.999Z</time></trkpt><trkpt lat="45.749639332879056" lon="11.572436235256902"><ele>349.0</ele><time>2026-04-01T19:11:41.999Z</time></trkpt><trkpt lat="45.749713294103" lon="11.572354751273155"><ele>349.0</ele><time>2026-04-01T19:11:42.999Z</time></trkpt><trkpt lat="45.749797585145835" lon="11.572288286872263"><ele>349.0</ele><time>2026-04-01T19:11:43.999Z</time></trkpt><trkpt lat="45.74989275608489" lon="11.572276363588017"><ele>349.0</ele><time>2026-04-01T19:11:44.999Z</time></trkpt><trkpt lat="45.749989905395566" lon="11.572287771833052"><ele>349.0</ele><time>2026-04-01T19:11:45.999Z</time></trkpt><trkpt lat="45.75008500437705" lon="11.572330415449034"><ele>349.0</ele><time>2026-04-01T19:11:46.999Z</time></trkpt><trkpt lat="45.750159733604896" lon="11.572452989480059"><ele>349.75</ele><time>2026-04-01T19:11:47.999Z</time></trkpt><trkpt lat="45.750250174295324" lon="11.572556665762708"><ele>350.5</ele><time>2026-04-01T19:11:48.999Z</time></trkpt><trkpt lat="45.75035433039909" lon="11.572650416892094"><ele>351.25</ele><time>2026-04-01T19:11:49.999Z</time></trkpt><trkpt lat="45.75043934296286" lon="11.57277127330057"><ele>352.0</ele><time>2026-04-01T19:11:50.999Z</time></trkpt><trkpt lat="45.75053709200507" lon="11.57287654337635"><ele>352.0</ele><time>2026-04-01T19:11:51.999Z</time></trkpt><trkpt lat="45.750635218158685" lon="11.572982702344827"><ele>352.0</ele><time>2026-04-01T19:11:52.999Z</time></trkpt><trkpt lat="45.75072961285288" lon="11.573092368574116"><ele>352.0</ele><time>2026-04-01T19:11:53.999Z</time></trkpt><trkpt lat="45.750805395212396" lon="11.573205329087813"><ele>352.0</ele><time>2026-04-01T19:11:54.999Z</time></trkpt><trkpt lat="45.750847373699926" lon="11.573349168687756"><ele>352.0</ele><time>2026-04-01T19:11:55.999Z</time></trkpt><trkpt lat="45.75084370214608" lon="11.573506305913154"><ele>352.0</ele><time>2026-04-01T19:11:56.999Z</time></trkpt><trkpt lat="45.750861731868184" lon="11.573654887790246"><ele>352.0</ele><time>2026-04-01T19:11:57.999Z</time></trkpt><trkpt lat="45.750877161950434" lon="11.573812300508404"><ele>352.0</ele><time>2026-04-01T19:11:58.999Z</time></trkpt><trkpt lat="45.75093268305417" lon="11.573955186621847"><ele>352.0</ele><time>2026-04-01T19:11:59.999Z</time></trkpt><trkpt lat="45.75100943426281" lon="11.574069674106806"><ele>352.5</ele><time>2026-04-01T19:12:00.999Z</time></trkpt><trkpt lat="45.75110170332592" lon="11.57416092434782"><ele>353.0</ele><time>2026-04-01T19:12:01.999Z</time></trkpt><trkpt lat="45.75120768587542" lon="11.57421999733301"><ele>353.5</ele><time>2026-04-01T19:12:02.999Z</time></trkpt><trkpt lat="45.75132955639675" lon="11.574227214140308"><ele>354.0</ele><time>2026-04-01T19:12:03.999Z</time></trkpt><trkpt lat="45.751440550936834" lon="11.574195694373659"><ele>354.0</ele><time>2026-04-01T19:12:04.999Z</time></trkpt><trkpt lat="45.75154961112586" lon="11.574142200851464"><ele>354.0</ele><time>2026-04-01T19:12:05.999Z</time></trkpt><trkpt lat="45.75166263544197" lon="11.574097416267637"><ele>354.0</ele><time>2026-04-01T19:12:06.999Z</time></trkpt><trkpt lat="45.75177401150884" lon="11.574054620577822"><ele>354.0</ele><time>2026-04-01T19:12:07.999Z</time></trkpt><trkpt lat="45.75188564523818" lon="11.574006789022198"><ele>353.75</ele><time>2026-04-01T19:12:08.999Z</time></trkpt><trkpt lat="45.75199405323961" lon="11.573937998158309"><ele>353.5</ele><time>2026-04-01T19:12:09.999Z</time></trkpt><trkpt lat="45.75208306719959" lon="11.573827841813209"><ele>353.25</ele><time>2026-04-01T19:12:10.999Z</time></trkpt><trkpt lat="45.75214139820044" lon="11.573687542916486"><ele>353.0</ele><time>2026-04-01T19:12:11.999Z</time></trkpt><trkpt lat="45.75216871012158" lon="11.573528423295855"><ele>356.0</ele><time>2026-04-01T19:12:12.999Z</time></trkpt><trkpt lat="45.75216964523488" lon="11.573362784855224"><ele>359.0</ele><time>2026-04-01T19:12:13.999Z</time></trkpt><trkpt lat="45.752175279565265" lon="11.573213732808098"><ele>362.0</ele><time>2026-04-01T19:12:14.999Z</time></trkpt><trkpt lat="45.75218220416003" lon="11.573078587691803"><ele>365.0</ele><time>2026-04-01T19:12:15.999Z</time></trkpt><trkpt lat="45.752191855366156" lon="11.572948417601006"><ele>368.0</ele><time>2026-04-01T19:12:16.999Z</time></trkpt><trkpt lat="45.752200462269904" lon="11.572801621407427"><ele>369.4</ele><time>2026-04-01T19:12:17.999Z</time></trkpt><trkpt lat="45.75220948008411" lon="11.572660993220694"><ele>370.79999999999995</ele><time>2026-04-01T19:12:18.999Z</time></trkpt><trkpt lat="45.752221021699555" lon="11.572517176525324"><ele>372.2</ele><time>2026-04-01T19:12:19.999Z</time></trkpt><trkpt lat="45.75223484593562" lon="11.572370377053863"><ele>373.6</ele><time>2026-04-01T19:12:20.999Z</time></trkpt><trkpt lat="45.75224698373853" lon="11.57222276666576"><ele>375.0</ele><time>2026-04-01T19:12:21.999Z</time></trkpt><trkpt lat="45.752259456712935" lon="11.572082064281057"><ele>375.4</ele><time>2026-04-01T19:12:22.999Z</time></trkpt><trkpt lat="45.75227270572799" lon="11.571939597725914"><ele>375.8</ele><time>2026-04-01T19:12:23.999Z</time></trkpt><trkpt lat="45.75227927372006" lon="11.571792916894221"><ele>376.20000000000005</ele><time>2026-04-01T19:12:24.999Z</time></trkpt><trkpt lat="45.75229253688791" lon="11.571647028252885"><ele>376.6</ele><time>2026-04-01T19:12:25.999Z</time></trkpt><trkpt lat="45.75230080895334" lon="11.571507602490279"><ele>377.0</ele><time>2026-04-01T19:12:26.999Z</time></trkpt><trkpt lat="45.752312161492824" lon="11.57137490560538"><ele>377.0</ele><time>2026-04-01T19:12:27.999Z</time></trkpt><trkpt lat="45.75231751334377" lon="11.571249856363876"><ele>377.0</ele><time>2026-04-01T19:12:28.999Z</time></trkpt><trkpt lat="45.752336333707895" lon="11.571106551917827"><ele>377.0</ele><time>2026-04-01T19:12:29.999Z</time></trkpt><trkpt lat="45.75237199946924" lon="11.57100928583096"><ele>377.0</ele><time>2026-04-01T19:12:30.999Z</time></trkpt><trkpt lat="45.75242796977235" lon="11.570916365624461"><ele>377.0</ele><time>2026-04-01T19:12:31.999Z</time></trkpt><trkpt lat="45.75250359268228" lon="11.57085884780449"><ele>377.0</ele><time>2026-04-01T19:12:32.999Z</time></trkpt><trkpt lat="45.752567958961" lon="11.570766983440826"><ele>375.20000000000005</ele><time>2026-04-01T19:12:33.999Z</time></trkpt><trkpt lat="45.75264735934056" lon="11.570698349799507"><ele>373.4</ele><time>2026-04-01T19:12:34.999Z</time></trkpt><trkpt lat="45.752726997344126" lon="11.570630882474713"><ele>371.6</ele><time>2026-04-01T19:12:35.999Z</time></trkpt><trkpt lat="45.75280873546691" lon="11.570551558489568"><ele>369.79999999999995</ele><time>2026-04-01T19:12:36.999Z</time></trkpt><trkpt lat="45.75289180905841" lon="11.570468116792714"><ele>368.0</ele><time>2026-04-01T19:12:37.999Z</time></trkpt><trkpt lat="45.752976322823066" lon="11.570380197874533"><ele>368.79999999999995</ele><time>2026-04-01T19:12:38.999Z</time></trkpt><trkpt lat="45.753070487270776" lon="11.570312075952051"><ele>369.6</ele><time>2026-04-01T19:12:39.999Z</time></trkpt><trkpt lat="45.75316287533019" lon="11.57023574246998"><ele>370.4</ele><time>2026-04-01T19:12:40.999Z</time></trkpt><trkpt lat="45.75326732660246" lon="11.570158909722037"><ele>371.20000000000005</ele><time>2026-04-01T19:12:41.999Z</time></trkpt><trkpt lat="45.753366200215474" lon="11.57011165570361"><ele>372.0</ele><time>2026-04-01T19:12:42.999Z</time></trkpt><trkpt lat="45.75346682076807" lon="11.570081062296216"><ele>377.75</ele><time>2026-04-01T19:12:43.999Z</time></trkpt><trkpt lat="45.7535823080214" lon="11.570027553249618"><ele>383.5</ele><time>2026-04-01T19:12:44.999Z</time></trkpt><trkpt lat="45.753686462607504" lon="11.56995021310896"><ele>389.25</ele><time>2026-04-01T19:12:45.999Z</time></trkpt><trkpt lat="45.75377047575279" lon="11.569856844069147"><ele>395.0</ele><time>2026-04-01T19:12:46.999Z</time></trkpt><trkpt lat="45.753900826828435" lon="11.569675382464018"><ele>395.0</ele><time>2026-04-01T19:12:47.999Z</time></trkpt><trkpt lat="45.75392385855976" lon="11.569506507703265"><ele>395.0</ele><time>2026-04-01T19:12:48.999Z</time></trkpt><trkpt lat="45.75392298971872" lon="11.569390773263944"><ele>395.0</ele><time>2026-04-01T19:12:49.999Z</time></trkpt><trkpt lat="45.7539197558899" lon="11.569238976950883"><ele>395.0</ele><time>2026-04-01T19:12:50.999Z</time></trkpt><trkpt lat="45.75390678572598" lon="11.569058500808309"><ele>395.0</ele><time>2026-04-01T19:12:51.999Z</time></trkpt><trkpt lat="45.75388519648342" lon="11.568903733306248"><ele>395.0</ele><time>2026-04-01T19:12:52.999Z</time></trkpt><trkpt lat="45.75385128358169" lon="11.568708336704683"><ele>395.0</ele><time>2026-04-01T19:12:53.999Z</time></trkpt><trkpt lat="45.753795707591024" lon="11.568549563409846"><ele>395.0</ele><time>2026-04-01T19:12:54.999Z</time></trkpt><trkpt lat="45.75373306635587" lon="11.56839840524068"><ele>395.0</ele><time>2026-04-01T19:12:55.999Z</time></trkpt><trkpt lat="45.75368424456143" lon="11.568265138785378"><ele>395.2</ele><time>2026-04-01T19:12:56.999Z</time></trkpt><trkpt lat="45.75365289467703" lon="11.568141980181442"><ele>395.4</ele><time>2026-04-01T19:12:57.999Z</time></trkpt><trkpt lat="45.75363583124823" lon="11.56801245491951"><ele>395.6</ele><time>2026-04-01T19:12:58.999Z</time></trkpt><trkpt lat="45.753642406580404" lon="11.5678949622834"><ele>395.8</ele><time>2026-04-01T19:12:59.999Z</time></trkpt><trkpt lat="45.7536935490833" lon="11.567799624121427"><ele>396.0</ele><time>2026-04-01T19:13:00.999Z</time></trkpt><trkpt lat="45.75376911174737" lon="11.56769944180921"><ele>396.0</ele><time>2026-04-01T19:13:01.999Z</time></trkpt><trkpt lat="45.753840509253116" lon="11.567594309618269"><ele>396.0</ele><time>2026-04-01T19:13:02.999Z</time></trkpt><trkpt lat="45.7539149013708" lon="11.567464900116915"><ele>396.0</ele><time>2026-04-01T19:13:03.999Z</time></trkpt><trkpt lat="45.753997413125" lon="11.567336727878935"><ele>396.0</ele><time>2026-04-01T19:13:04.999Z</time></trkpt><trkpt lat="45.7540843650497" lon="11.567208923955816"><ele>396.0</ele><time>2026-04-01T19:13:05.999Z</time></trkpt><trkpt lat="45.75415936050292" lon="11.567102302608694"><ele>396.0</ele><time>2026-04-01T19:13:06.999Z</time></trkpt><trkpt lat="45.75423257889843" lon="11.567006695741943"><ele>396.0</ele><time>2026-04-01T19:13:07.999Z</time></trkpt><trkpt lat="45.75431762183721" lon="11.566939698762251"><ele>396.0</ele><time>2026-04-01T19:13:08.999Z</time></trkpt><trkpt lat="45.75441311189343" lon="11.566895789434138"><ele>396.0</ele><time>2026-04-01T19:13:09.999Z</time></trkpt><trkpt lat="45.75451364180881" lon="11.566880124243625"><ele>395.8</ele><time>2026-04-01T19:13:10.999Z</time></trkpt><trkpt lat="45.754606369051494" lon="11.566935991432315"><ele>395.6</ele><time>2026-04-01T19:13:11.999Z</time></trkpt><trkpt lat="45.754676019144306" lon="11.567023672224575"><ele>395.4</ele><time>2026-04-01T19:13:12.999Z</time></trkpt><trkpt lat="45.75475212610927" lon="11.567130003358413"><ele>395.2</ele><time>2026-04-01T19:13:13.999Z</time></trkpt><trkpt lat="45.754818554013625" lon="11.567225745902231"><ele>395.0</ele><time>2026-04-01T19:13:14.999Z</time></trkpt><trkpt lat="45.75489892437032" lon="11.567345172158507"><ele>395.0</ele><time>2026-04-01T19:13:15.999Z</time></trkpt><trkpt lat="45.75500571115912" lon="11.567502724614961"><ele>395.0</ele><time>2026-04-01T19:13:16.999Z</time></trkpt><trkpt lat="45.755088587382865" lon="11.567623965115514"><ele>395.0</ele><time>2026-04-01T19:13:17.999Z</time></trkpt><trkpt lat="45.755176096462094" lon="11.567751981295798"><ele>395.0</ele><time>2026-04-01T19:13:18.999Z</time></trkpt><trkpt lat="45.755264014008624" lon="11.56788059498778"><ele>396.25</ele><time>2026-04-01T19:13:19.999Z</time></trkpt><trkpt lat="45.7553636304639" lon="11.56802440737386"><ele>397.5</ele><time>2026-04-01T19:13:20.999Z</time></trkpt><trkpt lat="45.755439614337234" lon="11.568147205690627"><ele>398.75</ele><time>2026-04-01T19:13:21.999Z</time></trkpt><trkpt lat="45.755524016837214" lon="11.568290151728066"><ele>400.0</ele><time>2026-04-01T19:13:22.999Z</time></trkpt><trkpt lat="45.75558357588186" lon="11.568386772701896"><ele>400.0</ele><time>2026-04-01T19:13:23.999Z</time></trkpt><trkpt lat="45.75563959027295" lon="11.568489198448635"><ele>400.0</ele><time>2026-04-01T19:13:24.999Z</time></trkpt><trkpt lat="45.75571893688102" lon="11.568616207534276"><ele>400.0</ele><time>2026-04-01T19:13:25.999Z</time></trkpt><trkpt lat="45.75579479882348" lon="11.568742604754853"><ele>400.0</ele><time>2026-04-01T19:13:26.999Z</time></trkpt><trkpt lat="45.7558632169317" lon="11.568866669730786"><ele>400.0</ele><time>2026-04-01T19:13:27.999Z</time></trkpt><trkpt lat="45.75591983203201" lon="11.568967897322578"><ele>400.6</ele><time>2026-04-01T19:13:28.999Z</time></trkpt><trkpt lat="45.755983112200745" lon="11.569051982128942"><ele>401.2</ele><time>2026-04-01T19:13:29.999Z</time></trkpt><trkpt lat="45.756067182858075" lon="11.569107233973133"><ele>401.79999999999995</ele><time>2026-04-01T19:13:30.999Z</time></trkpt><trkpt lat="45.75614853360268" lon="11.569131597086862"><ele>402.4</ele><time>2026-04-01T19:13:31.999Z</time></trkpt><trkpt lat="45.7562462132817" lon="11.56912809342421"><ele>403.0</ele><time>2026-04-01T19:13:32.999Z</time></trkpt><trkpt lat="45.75636388846928" lon="11.56907756091543"><ele>403.0</ele><time>2026-04-01T19:13:33.999Z</time></trkpt><trkpt lat="45.756479570316166" lon="11.569019219214763"><ele>403.0</ele><time>2026-04-01T19:13:34.999Z</time></trkpt><trkpt lat="45.75657978414616" lon="11.568941838926943"><ele>403.0</ele><time>2026-04-01T19:13:35.999Z</time></trkpt><trkpt lat="45.75667404730056" lon="11.568857695833861"><ele>403.0</ele><time>2026-04-01T19:13:36.999Z</time></trkpt><trkpt lat="45.756763812214025" lon="11.568755725404664"><ele>403.0</ele><time>2026-04-01T19:13:37.999Z</time></trkpt><trkpt lat="45.7568549384584" lon="11.568657355399017"><ele>403.0</ele><time>2026-04-01T19:13:38.999Z</time></trkpt><trkpt lat="45.75694042767463" lon="11.568565181270445"><ele>403.0</ele><time>2026-04-01T19:13:39.999Z</time></trkpt><trkpt lat="45.75704505652867" lon="11.568505964979353"><ele>403.0</ele><time>2026-04-01T19:13:40.999Z</time></trkpt><trkpt lat="45.75716591086409" lon="11.568433896850776"><ele>403.25</ele><time>2026-04-01T19:13:41.999Z</time></trkpt><trkpt lat="45.75728435614908" lon="11.56838057225385"><ele>403.5</ele><time>2026-04-01T19:13:42.999Z</time></trkpt><trkpt lat="45.75740308108696" lon="11.568339458372913"><ele>403.75</ele><time>2026-04-01T19:13:43.999Z</time></trkpt><trkpt lat="45.7575295447682" lon="11.568308565851426"><ele>404.0</ele><time>2026-04-01T19:13:44.999Z</time></trkpt><trkpt lat="45.75765504951709" lon="11.568297101755537"><ele>406.0</ele><time>2026-04-01T19:13:45.999Z</time></trkpt><trkpt lat="45.75778673947626" lon="11.56827259490932"><ele>408.0</ele><time>2026-04-01T19:13:46.999Z</time></trkpt><trkpt lat="45.75792004348218" lon="11.568260519720619"><ele>410.0</ele><time>2026-04-01T19:13:47.999Z</time></trkpt><trkpt lat="45.7580525508887" lon="11.56823807385908"><ele>412.0</ele><time>2026-04-01T19:13:48.999Z</time></trkpt><trkpt lat="45.75818499631458" lon="11.5682049230407"><ele>412.0</ele><time>2026-04-01T19:13:49.999Z</time></trkpt><trkpt lat="45.758309966416" lon="11.56815511804108"><ele>412.0</ele><time>2026-04-01T19:13:50.999Z</time></trkpt><trkpt lat="45.758436624865936" lon="11.568089983054758"><ele>412.0</ele><time>2026-04-01T19:13:51.999Z</time></trkpt><trkpt lat="45.75856412024037" lon="11.568013749513351"><ele>412.0</ele><time>2026-04-01T19:13:52.999Z</time></trkpt><trkpt lat="45.75868242640288" lon="11.567916643368047"><ele>413.0</ele><time>2026-04-01T19:13:53.999Z</time></trkpt><trkpt lat="45.75880684076338" lon="11.567810455451555"><ele>414.0</ele><time>2026-04-01T19:13:54.999Z</time></trkpt><trkpt lat="45.75891842709022" lon="11.567685364628456"><ele>415.0</ele><time>2026-04-01T19:13:55.999Z</time></trkpt><trkpt lat="45.75903022159878" lon="11.567558043934033"><ele>416.0</ele><time>2026-04-01T19:13:56.999Z</time></trkpt><trkpt lat="45.75914254533002" lon="11.567431043938425"><ele>416.0</ele><time>2026-04-01T19:13:57.999Z</time></trkpt><trkpt lat="45.759251991654764" lon="11.56730293795477"><ele>416.0</ele><time>2026-04-01T19:13:58.999Z</time></trkpt><trkpt lat="45.759358882260706" lon="11.567175550862256"><ele>416.0</ele><time>2026-04-01T19:13:59.999Z</time></trkpt><trkpt lat="45.75946811030999" lon="11.567048468262117"><ele>416.0</ele><time>2026-04-01T19:14:00.999Z</time></trkpt><trkpt lat="45.75957681100663" lon="11.566921442725466"><ele>418.5</ele><time>2026-04-01T19:14:01.999Z</time></trkpt><trkpt lat="45.759684876976884" lon="11.566796606656217"><ele>421.0</ele><time>2026-04-01T19:14:02.999Z</time></trkpt><trkpt lat="45.759791938697894" lon="11.566673526970481"><ele>423.5</ele><time>2026-04-01T19:14:03.999Z</time></trkpt><trkpt lat="45.75989718917344" lon="11.56654849955891"><ele>426.0</ele><time>2026-04-01T19:14:04.999Z</time></trkpt><trkpt lat="45.76000279749737" lon="11.56642345545868"><ele>426.0</ele><time>2026-04-01T19:14:05.999Z</time></trkpt><trkpt lat="45.76010319262607" lon="11.566307902197543"><ele>426.0</ele><time>2026-04-01T19:14:06.999Z</time></trkpt><trkpt lat="45.76019729383245" lon="11.56620365209661"><ele>426.0</ele><time>2026-04-01T19:14:07.999Z</time></trkpt><trkpt lat="45.76029368981449" lon="11.566128054440043"><ele>426.0</ele><time>2026-04-01T19:14:08.999Z</time></trkpt><trkpt lat="45.76038825515372" lon="11.566105277780789"><ele>425.6</ele><time>2026-04-01T19:14:09.999Z</time></trkpt><trkpt lat="45.760481029278886" lon="11.566147793358985"><ele>425.20000000000005</ele><time>2026-04-01T19:14:10.999Z</time></trkpt><trkpt lat="45.76055726891776" lon="11.566242658710118"><ele>424.79999999999995</ele><time>2026-04-01T19:14:11.999Z</time></trkpt><trkpt lat="45.7606250287142" lon="11.566346249883392"><ele>424.4</ele><time>2026-04-01T19:14:12.999Z</time></trkpt><trkpt lat="45.760698787488764" lon="11.566456770834716"><ele>424.0</ele><time>2026-04-01T19:14:13.999Z</time></trkpt><trkpt lat="45.76077452872064" lon="11.5665663656793"><ele>425.75</ele><time>2026-04-01T19:14:14.999Z</time></trkpt><trkpt lat="45.76086088548674" lon="11.566667876206997"><ele>427.5</ele><time>2026-04-01T19:14:15.999Z</time></trkpt><trkpt lat="45.76096015428386" lon="11.56676920583042"><ele>429.25</ele><time>2026-04-01T19:14:16.999Z</time></trkpt><trkpt lat="45.761064778475905" lon="11.566873632824008"><ele>431.0</ele><time>2026-04-01T19:14:17.999Z</time></trkpt><trkpt lat="45.76116398114359" lon="11.566970488199672"><ele>433.0</ele><time>2026-04-01T19:14:18.999Z</time></trkpt><trkpt lat="45.76125976779234" lon="11.56706888317058"><ele>435.0</ele><time>2026-04-01T19:14:19.999Z</time></trkpt><trkpt lat="45.76135910897978" lon="11.567169994528898"><ele>437.0</ele><time>2026-04-01T19:14:20.999Z</time></trkpt><trkpt lat="45.761460129692516" lon="11.567268884592062"><ele>439.0</ele><time>2026-04-01T19:14:21.999Z</time></trkpt><trkpt lat="45.76155787981646" lon="11.567367354497792"><ele>439.0</ele><time>2026-04-01T19:14:22.999Z</time></trkpt><trkpt lat="45.761655095322105" lon="11.567468643785615"><ele>439.0</ele><time>2026-04-01T19:14:23.999Z</time></trkpt><trkpt lat="45.761751883443424" lon="11.567571241049333"><ele>439.0</ele><time>2026-04-01T19:14:24.999Z</time></trkpt><trkpt lat="45.76184347040465" lon="11.5676827110542"><ele>439.0</ele><time>2026-04-01T19:14:25.999Z</time></trkpt><trkpt lat="45.76196342417494" lon="11.567725041280651"><ele>441.0</ele><time>2026-04-01T19:14:26.999Z</time></trkpt><trkpt lat="45.76208427540237" lon="11.567740698728734"><ele>443.0</ele><time>2026-04-01T19:14:27.999Z</time></trkpt><trkpt lat="45.76220456184398" lon="11.567715950823821"><ele>445.0</ele><time>2026-04-01T19:14:28.999Z</time></trkpt><trkpt lat="45.76232301346149" lon="11.567658905308573"><ele>447.0</ele><time>2026-04-01T19:14:29.999Z</time></trkpt><trkpt lat="45.762438333760116" lon="11.567580927564615"><ele>447.0</ele><time>2026-04-01T19:14:30.999Z</time></trkpt><trkpt lat="45.762540001340604" lon="11.56747566914593"><ele>447.0</ele><time>2026-04-01T19:14:31.999Z</time></trkpt><trkpt lat="45.76262969770629" lon="11.567348634432863"><ele>447.0</ele><time>2026-04-01T19:14:32.999Z</time></trkpt><trkpt lat="45.76270592195882" lon="11.567199129851952"><ele>447.0</ele><time>2026-04-01T19:14:33.999Z</time></trkpt><trkpt lat="45.762782287825104" lon="11.567048668735206"><ele>448.5</ele><time>2026-04-01T19:14:34.999Z</time></trkpt><trkpt lat="45.76286275696408" lon="11.566904179612521"><ele>450.0</ele><time>2026-04-01T19:14:35.999Z</time></trkpt><trkpt lat="45.76294536544586" lon="11.566756849068616"><ele>451.5</ele><time>2026-04-01T19:14:36.999Z</time></trkpt><trkpt lat="45.76302783639177" lon="11.566608284193702"><ele>453.0</ele><time>2026-04-01T19:14:37.999Z</time></trkpt><trkpt lat="45.763110516102586" lon="11.566462130510818"><ele>453.0</ele><time>2026-04-01T19:14:38.999Z</time></trkpt><trkpt lat="45.76318936684639" lon="11.566319494744407"><ele>453.0</ele><time>2026-04-01T19:14:39.999Z</time></trkpt><trkpt lat="45.76326534863109" lon="11.566178474233839"><ele>453.0</ele><time>2026-04-01T19:14:40.999Z</time></trkpt><trkpt lat="45.763350599418075" lon="11.566052909624544"><ele>453.0</ele><time>2026-04-01T19:14:41.999Z</time></trkpt><trkpt lat="45.763451767811596" lon="11.565954004251394"><ele>454.5</ele><time>2026-04-01T19:14:42.999Z</time></trkpt><trkpt lat="45.76356444373697" lon="11.565880694851742"><ele>456.0</ele><time>2026-04-01T19:14:43.999Z</time></trkpt><trkpt lat="45.76367268139287" lon="11.565795154301707"><ele>457.5</ele><time>2026-04-01T19:14:44.999Z</time></trkpt><trkpt lat="45.76375872820041" lon="11.565666343411236"><ele>459.0</ele><time>2026-04-01T19:14:45.999Z</time></trkpt><trkpt lat="45.76381865833746" lon="11.56552175644807"><ele>459.0</ele><time>2026-04-01T19:14:46.999Z</time></trkpt><trkpt lat="45.76388803211623" lon="11.565407591320623"><ele>459.0</ele><time>2026-04-01T19:14:47.999Z</time></trkpt><trkpt lat="45.76393390119026" lon="11.565327615612015"><ele>459.0</ele><time>2026-04-01T19:14:48.999Z</time></trkpt><trkpt lat="45.76400778488385" lon="11.565337892484669"><ele>459.0</ele><time>2026-04-01T19:14:50.999Z</time></trkpt><trkpt lat="45.764020586453164" lon="11.56548954394388"><ele>459.0</ele><time>2026-04-01T19:14:52.999Z</time></trkpt><trkpt lat="45.76398242104589" lon="11.565581869572448"><ele>459.0</ele><time>2026-04-01T19:14:53.999Z</time></trkpt><trkpt lat="45.76395756699947" lon="11.565693526503871"><ele>459.0</ele><time>2026-04-01T19:14:54.999Z</time></trkpt><trkpt lat="45.763919730648276" lon="11.565821228842553"><ele>459.0</ele><time>2026-04-01T19:14:55.999Z</time></trkpt><trkpt lat="45.76392388225752" lon="11.565947431169153"><ele>459.0</ele><time>2026-04-01T19:14:56.999Z</time></trkpt><trkpt lat="45.76391593786287" lon="11.566081473405484"><ele>459.0</ele><time>2026-04-01T19:14:57.999Z</time></trkpt><trkpt lat="45.76390333969082" lon="11.566225194917994"><ele>459.0</ele><time>2026-04-01T19:14:58.999Z</time></trkpt><trkpt lat="45.763897891110815" lon="11.566379203620732"><ele>460.4</ele><time>2026-04-01T19:14:59.999Z</time></trkpt><trkpt lat="45.76389347968456" lon="11.566541265336983"><ele>461.79999999999995</ele><time>2026-04-01T19:15:00.999Z</time></trkpt><trkpt lat="45.763871411739146" lon="11.566695299450911"><ele>463.20000000000005</ele><time>2026-04-01T19:15:01.999Z</time></trkpt><trkpt lat="45.76383651198898" lon="11.56683576158532"><ele>464.6</ele><time>2026-04-01T19:15:02.999Z</time></trkpt><trkpt lat="45.7637814223183" lon="11.566959957329198"><ele>466.0</ele><time>2026-04-01T19:15:03.999Z</time></trkpt><trkpt lat="45.76372749197713" lon="11.567069271811983"><ele>467.0</ele><time>2026-04-01T19:15:04.999Z</time></trkpt><trkpt lat="45.76370051818661" lon="11.567190027588547"><ele>468.0</ele><time>2026-04-01T19:15:05.999Z</time></trkpt><trkpt lat="45.76369793428287" lon="11.567314968067524"><ele>469.0</ele><time>2026-04-01T19:15:06.999Z</time></trkpt><trkpt lat="45.76378911540282" lon="11.567386112087423"><ele>470.0</ele><time>2026-04-01T19:15:07.999Z</time></trkpt><trkpt lat="45.76387567285729" lon="11.567398068566632"><ele>471.0</ele><time>2026-04-01T19:15:08.999Z</time></trkpt><trkpt lat="45.763956516423235" lon="11.567336487475048"><ele>471.0</ele><time>2026-04-01T19:15:09.999Z</time></trkpt><trkpt lat="45.764022989965476" lon="11.567261912064177"><ele>471.0</ele><time>2026-04-01T19:15:10.999Z</time></trkpt><trkpt lat="45.76407047984372" lon="11.567159543035705"><ele>471.0</ele><time>2026-04-01T19:15:11.999Z</time></trkpt><trkpt lat="45.76411359683794" lon="11.567044958204841"><ele>471.0</ele><time>2026-04-01T19:15:12.999Z</time></trkpt><trkpt lat="45.76414686555" lon="11.566910752818789"><ele>471.0</ele><time>2026-04-01T19:15:13.999Z</time></trkpt><trkpt lat="45.76416939207861" lon="11.566766024245844"><ele>470.0</ele><time>2026-04-01T19:15:14.999Z</time></trkpt><trkpt lat="45.76419121450501" lon="11.566611651655537"><ele>469.0</ele><time>2026-04-01T19:15:15.999Z</time></trkpt><trkpt lat="45.764212040511865" lon="11.566454279898402"><ele>468.0</ele><time>2026-04-01T19:15:16.999Z</time></trkpt><trkpt lat="45.76423211190025" lon="11.56630438657057"><ele>467.0</ele><time>2026-04-01T19:15:17.999Z</time></trkpt><trkpt lat="45.7642590755641" lon="11.566169407774334"><ele>466.0</ele><time>2026-04-01T19:15:18.999Z</time></trkpt><trkpt lat="45.7643067869416" lon="11.566060782997868"><ele>465.8</ele><time>2026-04-01T19:15:19.999Z</time></trkpt><trkpt lat="45.764372273177926" lon="11.566005103374856"><ele>465.6</ele><time>2026-04-01T19:15:20.999Z</time></trkpt><trkpt lat="45.764437032231456" lon="11.566006055620699"><ele>465.4</ele><time>2026-04-01T19:15:21.999Z</time></trkpt><trkpt lat="45.764534563149" lon="11.566133398971965"><ele>465.2</ele><time>2026-04-01T19:15:23.999Z</time></trkpt><trkpt lat="45.76458248886059" lon="11.56624812440688"><ele>465.0</ele><time>2026-04-01T19:15:24.999Z</time></trkpt><trkpt lat="45.76462021766235" lon="11.56635739157687"><ele>466.6</ele><time>2026-04-01T19:15:25.999Z</time></trkpt><trkpt lat="45.76466401215344" lon="11.566471126356255"><ele>468.2</ele><time>2026-04-01T19:15:26.999Z</time></trkpt><trkpt lat="45.76471280554969" lon="11.56659338650572"><ele>469.79999999999995</ele><time>2026-04-01T19:15:27.999Z</time></trkpt><trkpt lat="45.764765872494195" lon="11.566721796153338"><ele>471.4</ele><time>2026-04-01T19:15:28.999Z</time></trkpt><trkpt lat="45.7648339251689" lon="11.56683975352894"><ele>473.0</ele><time>2026-04-01T19:15:29.999Z</time></trkpt><trkpt lat="45.764927635572676" lon="11.5669367236703"><ele>473.0</ele><time>2026-04-01T19:15:30.999Z</time></trkpt><trkpt lat="45.76504344885389" lon="11.567006645639498"><ele>473.0</ele><time>2026-04-01T19:15:31.999Z</time></trkpt><trkpt lat="45.76516522982363" lon="11.567032925725556"><ele>473.0</ele><time>2026-04-01T19:15:32.999Z</time></trkpt><trkpt lat="45.765284323362785" lon="11.567027225585868"><ele>473.0</ele><time>2026-04-01T19:15:33.999Z</time></trkpt><trkpt lat="45.765401087961806" lon="11.566985070906263"><ele>476.75</ele><time>2026-04-01T19:15:34.999Z</time></trkpt><trkpt lat="45.765510905252206" lon="11.566906291834014"><ele>480.5</ele><time>2026-04-01T19:15:35.999Z</time></trkpt><trkpt lat="45.76561212841318" lon="11.566804621871043"><ele>484.25</ele><time>2026-04-01T19:15:36.999Z</time></trkpt><trkpt lat="45.76569892382174" lon="11.566667863849599"><ele>488.0</ele><time>2026-04-01T19:15:37.999Z</time></trkpt><trkpt lat="45.76576171580835" lon="11.56650499287281"><ele>488.0</ele><time>2026-04-01T19:15:38.999Z</time></trkpt><trkpt lat="45.76579539642302" lon="11.566320818286306"><ele>488.0</ele><time>2026-04-01T19:15:39.999Z</time></trkpt><trkpt lat="45.765804374497066" lon="11.566131059735714"><ele>488.0</ele><time>2026-04-01T19:15:40.999Z</time></trkpt><trkpt lat="45.7658113629107" lon="11.565935933259244"><ele>488.0</ele><time>2026-04-01T19:15:41.999Z</time></trkpt><trkpt lat="45.76581920984661" lon="11.565739333450074"><ele>486.5</ele><time>2026-04-01T19:15:42.999Z</time></trkpt><trkpt lat="45.7658273176646" lon="11.565543870710663"><ele>485.0</ele><time>2026-04-01T19:15:43.999Z</time></trkpt><trkpt lat="45.765841989692674" lon="11.56534136598459"><ele>483.5</ele><time>2026-04-01T19:15:44.999Z</time></trkpt><trkpt lat="45.7658577860894" lon="11.565133878789561"><ele>482.0</ele><time>2026-04-01T19:15:45.999Z</time></trkpt><trkpt lat="45.765872436315384" lon="11.564923319723073"><ele>480.75</ele><time>2026-04-01T19:15:46.999Z</time></trkpt><trkpt lat="45.765885279100374" lon="11.564712126707493"><ele>479.5</ele><time>2026-04-01T19:15:47.999Z</time></trkpt><trkpt lat="45.76590104400407" lon="11.564505679505753"><ele>478.25</ele><time>2026-04-01T19:15:48.999Z</time></trkpt><trkpt lat="45.76591818716384" lon="11.564311024734144"><ele>477.0</ele><time>2026-04-01T19:15:49.999Z</time></trkpt><trkpt lat="45.765935373879294" lon="11.564129200951065"><ele>476.5</ele><time>2026-04-01T19:15:50.999Z</time></trkpt><trkpt lat="45.76595515934139" lon="11.56396765285503"><ele>476.0</ele><time>2026-04-01T19:15:51.999Z</time></trkpt><trkpt lat="45.76598442647348" lon="11.563848060753708"><ele>475.5</ele><time>2026-04-01T19:15:52.999Z</time></trkpt><trkpt lat="45.766028512576895" lon="11.563772217310067"><ele>475.0</ele><time>2026-04-01T19:15:53.999Z</time></trkpt><trkpt lat="45.76613317399775" lon="11.56375570860772"><ele>474.5</ele><time>2026-04-01T19:15:55.999Z</time></trkpt><trkpt lat="45.76619524426411" lon="11.5637957362605"><ele>474.0</ele><time>2026-04-01T19:15:56.999Z</time></trkpt><trkpt lat="45.76625208849352" lon="11.563876511244507"><ele>474.0</ele><time>2026-04-01T19:15:57.999Z</time></trkpt><trkpt lat="45.76631076350036" lon="11.563973281099873"><ele>474.0</ele><time>2026-04-01T19:15:58.999Z</time></trkpt><trkpt lat="45.766359171203035" lon="11.564058279500072"><ele>474.0</ele><time>2026-04-01T19:15:59.999Z</time></trkpt><trkpt lat="45.76641145415369" lon="11.564155740090262"><ele>474.0</ele><time>2026-04-01T19:16:00.999Z</time></trkpt><trkpt lat="45.76646828564215" lon="11.564260669650706"><ele>474.0</ele><time>2026-04-01T19:16:01.999Z</time></trkpt><trkpt lat="45.76652934510931" lon="11.564369531333487"><ele>474.0</ele><time>2026-04-01T19:16:02.999Z</time></trkpt><trkpt lat="45.76659339473804" lon="11.564489308184493"><ele>478.25</ele><time>2026-04-01T19:16:03.999Z</time></trkpt><trkpt lat="45.76666097357872" lon="11.564620191223652"><ele>482.5</ele><time>2026-04-01T19:16:04.999Z</time></trkpt><trkpt lat="45.76672738671627" lon="11.564761036665308"><ele>486.75</ele><time>2026-04-01T19:16:05.999Z</time></trkpt><trkpt lat="45.766797221123134" lon="11.5649111072306"><ele>491.0</ele><time>2026-04-01T19:16:06.999Z</time></trkpt><trkpt lat="45.76685451681289" lon="11.565054822350119"><ele>490.25</ele><time>2026-04-01T19:16:07.999Z</time></trkpt><trkpt lat="45.766914070327495" lon="11.56520062289297"><ele>489.5</ele><time>2026-04-01T19:16:08.999Z</time></trkpt><trkpt lat="45.76697021538651" lon="11.565353672955132"><ele>488.75</ele><time>2026-04-01T19:16:09.999Z</time></trkpt><trkpt lat="45.76702593795067" lon="11.56549909366275"><ele>488.0</ele><time>2026-04-01T19:16:10.999Z</time></trkpt><trkpt lat="45.76708280914473" lon="11.565647786488569"><ele>488.0</ele><time>2026-04-01T19:16:11.999Z</time></trkpt><trkpt lat="45.76715489823422" lon="11.565795461173392"><ele>488.0</ele><time>2026-04-01T19:16:12.999Z</time></trkpt><trkpt lat="45.76723778888568" lon="11.56593222537253"><ele>488.0</ele><time>2026-04-01T19:16:13.999Z</time></trkpt><trkpt lat="45.767325000512855" lon="11.566047437510893"><ele>488.0</ele><time>2026-04-01T19:16:14.999Z</time></trkpt><trkpt lat="45.767419307935704" lon="11.566151593804392"><ele>488.75</ele><time>2026-04-01T19:16:15.999Z</time></trkpt><trkpt lat="45.767529949696524" lon="11.56623879514048"><ele>489.5</ele><time>2026-04-01T19:16:16.999Z</time></trkpt><trkpt lat="45.7676405153504" lon="11.56631207997167"><ele>490.25</ele><time>2026-04-01T19:16:17.999Z</time></trkpt><trkpt lat="45.7677400418387" lon="11.566409681439927"><ele>491.0</ele><time>2026-04-01T19:16:18.999Z</time></trkpt><trkpt lat="45.767849116338994" lon="11.566490331942203"><ele>491.0</ele><time>2026-04-01T19:16:19.999Z</time></trkpt><trkpt lat="45.767956169874026" lon="11.566569056389753"><ele>491.0</ele><time>2026-04-01T19:16:20.999Z</time></trkpt><trkpt lat="45.768057900712485" lon="11.56665504516923"><ele>491.0</ele><time>2026-04-01T19:16:21.999Z</time></trkpt><trkpt lat="45.76815520847858" lon="11.566739590415306"><ele>491.0</ele><time>2026-04-01T19:16:22.999Z</time></trkpt><trkpt lat="45.76824849038933" lon="11.566815286442536"><ele>491.0</ele><time>2026-04-01T19:16:23.999Z</time></trkpt><trkpt lat="45.76833681096954" lon="11.566890598121223"><ele>491.0</ele><time>2026-04-01T19:16:24.999Z</time></trkpt><trkpt lat="45.76842228595441" lon="11.5669456751145"><ele>491.0</ele><time>2026-04-01T19:16:25.999Z</time></trkpt><trkpt lat="45.76851793246631" lon="11.566969797771657"><ele>491.0</ele><time>2026-04-01T19:16:26.999Z</time></trkpt><trkpt lat="45.7686096983158" lon="11.566959935641611"><ele>491.0</ele><time>2026-04-01T19:16:27.999Z</time></trkpt><trkpt lat="45.76869470526337" lon="11.566913926077453"><ele>495.6</ele><time>2026-04-01T19:16:28.999Z</time></trkpt><trkpt lat="45.76876536500921" lon="11.566827481489382"><ele>500.20000000000005</ele><time>2026-04-01T19:16:29.999Z</time></trkpt><trkpt lat="45.76880889180904" lon="11.566695995395929"><ele>504.79999999999995</ele><time>2026-04-01T19:16:30.999Z</time></trkpt><trkpt lat="45.76884205119676" lon="11.56656532557738"><ele>509.4</ele><time>2026-04-01T19:16:31.999Z</time></trkpt><trkpt lat="45.76886893337489" lon="11.56641545805354"><ele>514.0</ele><time>2026-04-01T19:16:32.999Z</time></trkpt><trkpt lat="45.768886365290605" lon="11.566261667782507"><ele>514.4</ele><time>2026-04-01T19:16:33.999Z</time></trkpt><trkpt lat="45.76888403179635" lon="11.566105329379198"><ele>514.8</ele><time>2026-04-01T19:16:34.999Z</time></trkpt><trkpt lat="45.76886520013133" lon="11.565947924607336"><ele>515.2</ele><time>2026-04-01T19:16:36Z</time></trkpt><trkpt lat="45.76885094909815" lon="11.565802873805364"><ele>515.6</ele><time>2026-04-01T19:16:37Z</time></trkpt><trkpt lat="45.76885019523828" lon="11.565663683593556"><ele>516.0</ele><time>2026-04-01T19:16:38Z</time></trkpt><trkpt lat="45.76886556825092" lon="11.565528852954184"><ele>516.0</ele><time>2026-04-01T19:16:39Z</time></trkpt><trkpt lat="45.76889811084292" lon="11.565389225636402"><ele>516.0</ele><time>2026-04-01T19:16:40Z</time></trkpt><trkpt lat="45.7689406510374" lon="11.565251514278929"><ele>516.0</ele><time>2026-04-01T19:16:41Z</time></trkpt><trkpt lat="45.76896101065835" lon="11.56508630235485"><ele>516.0</ele><time>2026-04-01T19:16:42Z</time></trkpt><trkpt lat="45.768965499673314" lon="11.564934796056495"><ele>516.0</ele><time>2026-04-01T19:16:43Z</time></trkpt><trkpt lat="45.76896453266971" lon="11.564779737439697"><ele>515.2</ele><time>2026-04-01T19:16:44Z</time></trkpt><trkpt lat="45.76896870209307" lon="11.564628186164574"><ele>514.4000000000001</ele><time>2026-04-01T19:16:45Z</time></trkpt><trkpt lat="45.76899396310002" lon="11.564484412065656"><ele>513.6</ele><time>2026-04-01T19:16:46Z</time></trkpt><trkpt lat="45.7690402887439" lon="11.564355900138994"><ele>512.8000000000001</ele><time>2026-04-01T19:16:47Z</time></trkpt><trkpt lat="45.769102398793756" lon="11.564227084222939"><ele>512.0</ele><time>2026-04-01T19:16:48Z</time></trkpt><trkpt lat="45.76916343169828" lon="11.564105881989205"><ele>511.0</ele><time>2026-04-01T19:16:49Z</time></trkpt><trkpt lat="45.769219803479054" lon="11.563975398444265"><ele>510.00000000000006</ele><time>2026-04-01T19:16:50Z</time></trkpt><trkpt lat="45.76926750462314" lon="11.56383655600304"><ele>509.00000000000006</ele><time>2026-04-01T19:16:51Z</time></trkpt><trkpt lat="45.76931133451239" lon="11.5636861612326"><ele>508.0</ele><time>2026-04-01T19:16:52Z</time></trkpt><trkpt lat="45.76935265004008" lon="11.563523436794991"><ele>507.0</ele><time>2026-04-01T19:16:53Z</time></trkpt><trkpt lat="45.76939656535282" lon="11.563348805015869"><ele>515.0</ele><time>2026-04-01T19:16:54Z</time></trkpt><trkpt lat="45.76944163410155" lon="11.56317740430591"><ele>523.0</ele><time>2026-04-01T19:16:55Z</time></trkpt><trkpt lat="45.76948388180801" lon="11.563022258062212"><ele>531.0</ele><time>2026-04-01T19:16:56Z</time></trkpt><trkpt lat="45.76952795768124" lon="11.562859940999246"><ele>539.0</ele><time>2026-04-01T19:16:57Z</time></trkpt><trkpt lat="45.76957049379948" lon="11.56269836532603"><ele>539.0</ele><time>2026-04-01T19:16:58Z</time></trkpt><trkpt lat="45.76960912941956" lon="11.562548449464414"><ele>539.0</ele><time>2026-04-01T19:16:59Z</time></trkpt><trkpt lat="45.76964089210081" lon="11.562384713113612"><ele>539.0</ele><time>2026-04-01T19:17:00Z</time></trkpt><trkpt lat="45.76965245778008" lon="11.562209538860246"><ele>539.0</ele><time>2026-04-01T19:17:01Z</time></trkpt><trkpt lat="45.76965206851211" lon="11.562033760095805"><ele>538.0</ele><time>2026-04-01T19:17:02Z</time></trkpt><trkpt lat="45.76964734979112" lon="11.56186760706239"><ele>537.0</ele><time>2026-04-01T19:17:03Z</time></trkpt><trkpt lat="45.76965934740037" lon="11.561702274850056"><ele>536.0</ele><time>2026-04-01T19:17:04Z</time></trkpt><trkpt lat="45.769689184830966" lon="11.561550697992821"><ele>535.0</ele><time>2026-04-01T19:17:05Z</time></trkpt><trkpt lat="45.769740625983104" lon="11.561416894430192"><ele>534.0</ele><time>2026-04-01T19:17:06Z</time></trkpt><trkpt lat="45.7697815732843" lon="11.561290802571465"><ele>534.0</ele><time>2026-04-01T19:17:07Z</time></trkpt><trkpt lat="45.769818360536036" lon="11.561184608041918"><ele>534.0</ele><time>2026-04-01T19:17:08Z</time></trkpt><trkpt lat="45.76987873964653" lon="11.561106160097758"><ele>534.0</ele><time>2026-04-01T19:17:10Z</time></trkpt><trkpt lat="45.76992227124645" lon="11.561188970974593"><ele>534.0</ele><time>2026-04-01T19:17:12Z</time></trkpt><trkpt lat="45.76987253559317" lon="11.561363668597762"><ele>534.0</ele><time>2026-04-01T19:17:14Z</time></trkpt><trkpt lat="45.76983950211318" lon="11.561464926666641"><ele>534.0</ele><time>2026-04-01T19:17:15Z</time></trkpt><trkpt lat="45.769813665617534" lon="11.5615763502802"><ele>534.0</ele><time>2026-04-01T19:17:16Z</time></trkpt><trkpt lat="45.76980119888163" lon="11.561682793234066"><ele>534.0</ele><time>2026-04-01T19:17:17Z</time></trkpt><trkpt lat="45.769801514834455" lon="11.5617984599505"><ele>534.0</ele><time>2026-04-01T19:17:18Z</time></trkpt><trkpt lat="45.76981480118459" lon="11.56191564854252"><ele>534.0</ele><time>2026-04-01T19:17:19Z</time></trkpt><trkpt lat="45.76983513711991" lon="11.562041930353189"><ele>534.0</ele><time>2026-04-01T19:17:20Z</time></trkpt><trkpt lat="45.769855802651016" lon="11.562169000407318"><ele>534.0</ele><time>2026-04-01T19:17:21Z</time></trkpt><trkpt lat="45.7698784243082" lon="11.562304713333633"><ele>535.0</ele><time>2026-04-01T19:17:22Z</time></trkpt><trkpt lat="45.76989218958531" lon="11.562455211054209"><ele>536.0</ele><time>2026-04-01T19:17:23Z</time></trkpt><trkpt lat="45.76990076859111" lon="11.562611557121334"><ele>537.0</ele><time>2026-04-01T19:17:24Z</time></trkpt><trkpt lat="45.7699032599638" lon="11.56277437144308"><ele>538.0</ele><time>2026-04-01T19:17:25Z</time></trkpt><trkpt lat="45.7699034557862" lon="11.562945783641156"><ele>539.0</ele><time>2026-04-01T19:17:26Z</time></trkpt><trkpt lat="45.769897045201056" lon="11.56311697082056"><ele>540.25</ele><time>2026-04-01T19:17:27Z</time></trkpt><trkpt lat="45.76987763441148" lon="11.56328891576126"><ele>541.5</ele><time>2026-04-01T19:17:28Z</time></trkpt><trkpt lat="45.76983962946977" lon="11.56345717840595"><ele>542.75</ele><time>2026-04-01T19:17:29Z</time></trkpt><trkpt lat="45.769797387860265" lon="11.563624991188524"><ele>544.0</ele><time>2026-04-01T19:17:30Z</time></trkpt><trkpt lat="45.769770419415124" lon="11.563798845732984"><ele>548.0</ele><time>2026-04-01T19:17:31Z</time></trkpt><trkpt lat="45.76975702123475" lon="11.563982345578209"><ele>552.0</ele><time>2026-04-01T19:17:32Z</time></trkpt><trkpt lat="45.76975124634607" lon="11.564168692917704"><ele>556.0</ele><time>2026-04-01T19:17:33Z</time></trkpt><trkpt lat="45.7697391163974" lon="11.564359890103557"><ele>560.0</ele><time>2026-04-01T19:17:33.999Z</time></trkpt><trkpt lat="45.76972845424319" lon="11.564540739626175"><ele>562.0</ele><time>2026-04-01T19:17:34.999Z</time></trkpt><trkpt lat="45.76971343152162" lon="11.564718082457453"><ele>564.0</ele><time>2026-04-01T19:17:35.999Z</time></trkpt><trkpt lat="45.76969642314311" lon="11.564878175895194"><ele>566.0</ele><time>2026-04-01T19:17:36.999Z</time></trkpt><trkpt lat="45.769682583052244" lon="11.565019891920857"><ele>568.0</ele><time>2026-04-01T19:17:37.999Z</time></trkpt><trkpt lat="45.76966885436583" lon="11.56512893009947"><ele>570.0</ele><time>2026-04-01T19:17:38.999Z</time></trkpt><trkpt lat="45.769699096771674" lon="11.565273058092824"><ele>570.0</ele><time>2026-04-01T19:17:40.999Z</time></trkpt><trkpt lat="45.769804818113684" lon="11.56524818231423"><ele>570.0</ele><time>2026-04-01T19:17:42.999Z</time></trkpt><trkpt lat="45.76982486147359" lon="11.56513356149042"><ele>570.0</ele><time>2026-04-01T19:17:43.999Z</time></trkpt><trkpt lat="45.769835515807486" lon="11.56502675317262"><ele>570.0</ele><time>2026-04-01T19:17:44.999Z</time></trkpt><trkpt lat="45.769846539320085" lon="11.56491030581627"><ele>570.0</ele><time>2026-04-01T19:17:45.999Z</time></trkpt><trkpt lat="45.76987257631291" lon="11.564797078488409"><ele>570.0</ele><time>2026-04-01T19:17:46.999Z</time></trkpt><trkpt lat="45.769886598811816" lon="11.564677454202362"><ele>570.0</ele><time>2026-04-01T19:17:47.999Z</time></trkpt><trkpt lat="45.76989889612564" lon="11.564551367532957"><ele>570.0</ele><time>2026-04-01T19:17:48.999Z</time></trkpt><trkpt lat="45.76991190335767" lon="11.564417381201514"><ele>570.0</ele><time>2026-04-01T19:17:49.999Z</time></trkpt><trkpt lat="45.76992697055626" lon="11.564282995155796"><ele>570.0</ele><time>2026-04-01T19:17:50.999Z</time></trkpt><trkpt lat="45.76994349358579" lon="11.564141052282661"><ele>570.0</ele><time>2026-04-01T19:17:51.999Z</time></trkpt><trkpt lat="45.7699640139231" lon="11.563996423357496"><ele>567.5</ele><time>2026-04-01T19:17:52.999Z</time></trkpt><trkpt lat="45.76999180323951" lon="11.563846093677757"><ele>565.0</ele><time>2026-04-01T19:17:53.999Z</time></trkpt><trkpt lat="45.770033899919135" lon="11.563701344716458"><ele>562.5</ele><time>2026-04-01T19:17:54.999Z</time></trkpt><trkpt lat="45.770083056241845" lon="11.563545002490635"><ele>560.0</ele><time>2026-04-01T19:17:55.999Z</time></trkpt><trkpt lat="45.7701423080161" lon="11.563398487039427"><ele>556.8</ele><time>2026-04-01T19:17:56.999Z</time></trkpt><trkpt lat="45.77018354329743" lon="11.563251285459133"><ele>553.6</ele><time>2026-04-01T19:17:57.999Z</time></trkpt><trkpt lat="45.77022224673104" lon="11.563099559332851"><ele>550.4</ele><time>2026-04-01T19:17:58.999Z</time></trkpt><trkpt lat="45.77026007050082" lon="11.562946741698035"><ele>547.2</ele><time>2026-04-01T19:17:59.999Z</time></trkpt><trkpt lat="45.770296644850845" lon="11.562793958622748"><ele>544.0</ele><time>2026-04-01T19:18:00.999Z</time></trkpt><trkpt lat="45.770335546770326" lon="11.562636954445711"><ele>552.8</ele><time>2026-04-01T19:18:01.999Z</time></trkpt><trkpt lat="45.770370066766084" lon="11.562484041412294"><ele>561.5999999999999</ele><time>2026-04-01T19:18:02.999Z</time></trkpt><trkpt lat="45.77039850734407" lon="11.562332844763986"><ele>570.4</ele><time>2026-04-01T19:18:03.999Z</time></trkpt><trkpt lat="45.77041952989885" lon="11.562181504489415"><ele>579.1999999999999</ele><time>2026-04-01T19:18:04.999Z</time></trkpt><trkpt lat="45.770436555271765" lon="11.562021845809399"><ele>588.0</ele><time>2026-04-01T19:18:05.999Z</time></trkpt><trkpt lat="45.77044991859466" lon="11.561863463957591"><ele>588.0</ele><time>2026-04-01T19:18:06.999Z</time></trkpt><trkpt lat="45.77046153505094" lon="11.561710114736707"><ele>588.0</ele><time>2026-04-01T19:18:07.999Z</time></trkpt><trkpt lat="45.770476396261614" lon="11.561560918617944"><ele>588.0</ele><time>2026-04-01T19:18:08.999Z</time></trkpt><trkpt lat="45.77049447728493" lon="11.561430182710112"><ele>588.0</ele><time>2026-04-01T19:18:09.999Z</time></trkpt><trkpt lat="45.77051410061416" lon="11.561287949212101"><ele>588.0</ele><time>2026-04-01T19:18:10.999Z</time></trkpt><trkpt lat="45.770541920980044" lon="11.561145718794084"><ele>586.6</ele><time>2026-04-01T19:18:11.999Z</time></trkpt><trkpt lat="45.77057348796595" lon="11.561002224485216"><ele>585.1999999999999</ele><time>2026-04-01T19:18:12.999Z</time></trkpt><trkpt lat="45.770610855407746" lon="11.56085606799697"><ele>583.8</ele><time>2026-04-01T19:18:13.999Z</time></trkpt><trkpt lat="45.77064447571376" lon="11.56071362892625"><ele>582.4</ele><time>2026-04-01T19:18:14.999Z</time></trkpt><trkpt lat="45.770670638083054" lon="11.560575748055383"><ele>581.0</ele><time>2026-04-01T19:18:15.999Z</time></trkpt><trkpt lat="45.770702138755496" lon="11.56043599535995"><ele>579.2</ele><time>2026-04-01T19:18:16.999Z</time></trkpt><trkpt lat="45.77072945193153" lon="11.560293146563748"><ele>577.4000000000001</ele><time>2026-04-01T19:18:17.999Z</time></trkpt><trkpt lat="45.77075981791216" lon="11.560162178722317"><ele>575.6</ele><time>2026-04-01T19:18:18.999Z</time></trkpt><trkpt lat="45.770797354823706" lon="11.560031175863488"><ele>573.8000000000001</ele><time>2026-04-01T19:18:19.999Z</time></trkpt><trkpt lat="45.77083399613971" lon="11.559899056987831"><ele>572.0</ele><time>2026-04-01T19:18:20.999Z</time></trkpt><trkpt lat="45.77086730866899" lon="11.559777713633173"><ele>572.0</ele><time>2026-04-01T19:18:21.999Z</time></trkpt><trkpt lat="45.77089980634444" lon="11.559664074263885"><ele>572.0</ele><time>2026-04-01T19:18:22.999Z</time></trkpt><trkpt lat="45.770941558656375" lon="11.559563194803259"><ele>572.0</ele><time>2026-04-01T19:18:23.999Z</time></trkpt><trkpt lat="45.77099736340623" lon="11.559501100341414"><ele>572.0</ele><time>2026-04-01T19:18:25.999Z</time></trkpt><trkpt lat="45.77107008434208" lon="11.559597081166816"><ele>572.0</ele><time>2026-04-01T19:18:28.999Z</time></trkpt><trkpt lat="45.77101697326577" lon="11.559735640394546"><ele>572.0</ele><time>2026-04-01T19:18:30.999Z</time></trkpt><trkpt lat="45.77100222014255" lon="11.559831982856801"><ele>571.9999999999999</ele><time>2026-04-01T19:18:32Z</time></trkpt><trkpt lat="45.77097687861828" lon="11.55991753747137"><ele>572.0</ele><time>2026-04-01T19:18:33Z</time></trkpt><trkpt lat="45.770946797394984" lon="11.560031818600482"><ele>572.0</ele><time>2026-04-01T19:18:34Z</time></trkpt><trkpt lat="45.770935025114674" lon="11.560129160243338"><ele>572.0</ele><time>2026-04-01T19:18:35Z</time></trkpt><trkpt lat="45.77091764469331" lon="11.560228048054856"><ele>572.0</ele><time>2026-04-01T19:18:36Z</time></trkpt><trkpt lat="45.77090814851578" lon="11.560323446473781"><ele>571.9999999999999</ele><time>2026-04-01T19:18:37Z</time></trkpt><trkpt lat="45.77090446057859" lon="11.560423741860104"><ele>572.0</ele><time>2026-04-01T19:18:38Z</time></trkpt><trkpt lat="45.770871077554695" lon="11.560584859386141"><ele>573.5</ele><time>2026-04-01T19:18:40Z</time></trkpt><trkpt lat="45.77086233192721" lon="11.560689056190375"><ele>575.0</ele><time>2026-04-01T19:18:41Z</time></trkpt><trkpt lat="45.770854450869315" lon="11.560805096530142"><ele>576.5</ele><time>2026-04-01T19:18:42Z</time></trkpt><trkpt lat="45.77084707498242" lon="11.560903850568149"><ele>578.0</ele><time>2026-04-01T19:18:43Z</time></trkpt><trkpt lat="45.77083989358509" lon="11.561011624039025"><ele>579.5</ele><time>2026-04-01T19:18:44Z</time></trkpt><trkpt lat="45.77082860357131" lon="11.561116053951388"><ele>581.0</ele><time>2026-04-01T19:18:45Z</time></trkpt><trkpt lat="45.77081857491611" lon="11.561225232266116"><ele>582.4</ele><time>2026-04-01T19:18:46Z</time></trkpt><trkpt lat="45.77080938683579" lon="11.561344782463886"><ele>583.8</ele><time>2026-04-01T19:18:47Z</time></trkpt><trkpt lat="45.77080126024075" lon="11.56146796893246"><ele>585.1999999999999</ele><time>2026-04-01T19:18:48Z</time></trkpt><trkpt lat="45.770793479432655" lon="11.561597951033715"><ele>586.6</ele><time>2026-04-01T19:18:49Z</time></trkpt><trkpt lat="45.770785625629834" lon="11.561732371158197"><ele>588.0</ele><time>2026-04-01T19:18:50Z</time></trkpt><trkpt lat="45.77078055164214" lon="11.561869431837358"><ele>588.0</ele><time>2026-04-01T19:18:51Z</time></trkpt><trkpt lat="45.7707768925661" lon="11.56200805401266"><ele>588.0</ele><time>2026-04-01T19:18:52Z</time></trkpt><trkpt lat="45.77077104945495" lon="11.562154591497398"><ele>588.0</ele><time>2026-04-01T19:18:53Z</time></trkpt><trkpt lat="45.77077055913546" lon="11.562302448324147"><ele>588.0</ele><time>2026-04-01T19:18:54Z</time></trkpt><trkpt lat="45.77077269285143" lon="11.562451270543331"><ele>588.0</ele><time>2026-04-01T19:18:55Z</time></trkpt><trkpt lat="45.77077324485425" lon="11.562591956066758"><ele>589.0</ele><time>2026-04-01T19:18:56Z</time></trkpt><trkpt lat="45.77077154336398" lon="11.562729273126786"><ele>590.0</ele><time>2026-04-01T19:18:57Z</time></trkpt><trkpt lat="45.77077320914778" lon="11.562857528743699"><ele>591.0</ele><time>2026-04-01T19:18:58Z</time></trkpt><trkpt lat="45.77077381871645" lon="11.562970912209856"><ele>592.0</ele><time>2026-04-01T19:18:59Z</time></trkpt><trkpt lat="45.77079330997843" lon="11.563114523570714"><ele>593.0</ele><time>2026-04-01T19:19:01Z</time></trkpt><trkpt lat="45.77085613360624" lon="11.563155427002698"><ele>594.0</ele><time>2026-04-01T19:19:03Z</time></trkpt><trkpt lat="45.77095435592467" lon="11.563075913119182"><ele>594.0</ele><time>2026-04-01T19:19:05Z</time></trkpt><trkpt lat="45.77094327604711" lon="11.56296424038037"><ele>594.0</ele><time>2026-04-01T19:19:06Z</time></trkpt><trkpt lat="45.77094970874352" lon="11.562865761946691"><ele>594.0</ele><time>2026-04-01T19:19:07Z</time></trkpt><trkpt lat="45.77097874234202" lon="11.562756238481153"><ele>594.0</ele><time>2026-04-01T19:19:08Z</time></trkpt><trkpt lat="45.770985836440985" lon="11.562650878473368"><ele>594.0</ele><time>2026-04-01T19:19:09Z</time></trkpt><trkpt lat="45.7709936696498" lon="11.562540849356543"><ele>594.0</ele><time>2026-04-01T19:19:10Z</time></trkpt><trkpt lat="45.77100002187109" lon="11.562424684698783"><ele>594.0</ele><time>2026-04-01T19:19:11Z</time></trkpt><trkpt lat="45.77100688895225" lon="11.562305556113623"><ele>594.0</ele><time>2026-04-01T19:19:12Z</time></trkpt><trkpt lat="45.77100819327321" lon="11.562181349124096"><ele>594.0</ele><time>2026-04-01T19:19:13Z</time></trkpt><trkpt lat="45.7710118443471" lon="11.562050743450643"><ele>594.0</ele><time>2026-04-01T19:19:14Z</time></trkpt><trkpt lat="45.77101808172038" lon="11.561916083088947"><ele>594.0</ele><time>2026-04-01T19:19:15Z</time></trkpt><trkpt lat="45.77102987364059" lon="11.561778166386299"><ele>597.6</ele><time>2026-04-01T19:19:16Z</time></trkpt><trkpt lat="45.771047737895124" lon="11.561643748358028"><ele>601.2</ele><time>2026-04-01T19:19:17Z</time></trkpt><trkpt lat="45.77107015177131" lon="11.561507881040727"><ele>604.8000000000001</ele><time>2026-04-01T19:19:18Z</time></trkpt><trkpt lat="45.77110351336414" lon="11.561364752048775"><ele>608.4</ele><time>2026-04-01T19:19:19Z</time></trkpt><trkpt lat="45.77114022479012" lon="11.561229763977915"><ele>612.0</ele><time>2026-04-01T19:19:20Z</time></trkpt><trkpt lat="45.77118768557797" lon="11.561097850578888"><ele>612.0</ele><time>2026-04-01T19:19:21Z</time></trkpt><trkpt lat="45.77124820587464" lon="11.5609735972447"><ele>612.0</ele><time>2026-04-01T19:19:22Z</time></trkpt><trkpt lat="45.771318970090306" lon="11.560841414770056"><ele>612.0</ele><time>2026-04-01T19:19:23Z</time></trkpt><trkpt lat="45.77138701437078" lon="11.56072222253884"><ele>612.0</ele><time>2026-04-01T19:19:24Z</time></trkpt><trkpt lat="45.77144935982312" lon="11.560614246286121"><ele>612.0</ele><time>2026-04-01T19:19:25Z</time></trkpt><trkpt lat="45.77150605381584" lon="11.560517899671414"><ele>612.0</ele><time>2026-04-01T19:19:26Z</time></trkpt><trkpt lat="45.7715733087071" lon="11.560442504899523"><ele>612.0</ele><time>2026-04-01T19:19:27Z</time></trkpt><trkpt lat="45.77165207916776" lon="11.560402676933613"><ele>612.0</ele><time>2026-04-01T19:19:28Z</time></trkpt><trkpt lat="45.7717477522697" lon="11.560397700482435"><ele>612.0</ele><time>2026-04-01T19:19:29Z</time></trkpt><trkpt lat="45.77182975338734" lon="11.560424674088393"><ele>612.0</ele><time>2026-04-01T19:19:30Z</time></trkpt><trkpt lat="45.7719276396233" lon="11.560476163525552"><ele>612.8000000000001</ele><time>2026-04-01T19:19:31Z</time></trkpt><trkpt lat="45.77202339291429" lon="11.560534196784914"><ele>613.6</ele><time>2026-04-01T19:19:32Z</time></trkpt><trkpt lat="45.77211699440372" lon="11.560593617529781"><ele>614.4000000000001</ele><time>2026-04-01T19:19:33Z</time></trkpt><trkpt lat="45.7722163496273" lon="11.560655024433444"><ele>615.2</ele><time>2026-04-01T19:19:34Z</time></trkpt><trkpt lat="45.77232381313945" lon="11.560714356448553"><ele>616.0</ele><time>2026-04-01T19:19:35Z</time></trkpt><trkpt lat="45.77242848819228" lon="11.560777443813379"><ele>616.0</ele><time>2026-04-01T19:19:36Z</time></trkpt><trkpt lat="45.77253314047214" lon="11.560842415264693"><ele>616.0</ele><time>2026-04-01T19:19:37Z</time></trkpt><trkpt lat="45.77263645418378" lon="11.560904590034577"><ele>616.0</ele><time>2026-04-01T19:19:38Z</time></trkpt><trkpt lat="45.772740112734084" lon="11.560970213066415"><ele>616.0</ele><time>2026-04-01T19:19:39Z</time></trkpt><trkpt lat="45.772845735420205" lon="11.561033993655272"><ele>616.6</ele><time>2026-04-01T19:19:40Z</time></trkpt><trkpt lat="45.772955134663825" lon="11.561097797982406"><ele>617.2</ele><time>2026-04-01T19:19:41Z</time></trkpt><trkpt lat="45.773066865327145" lon="11.561164625068997"><ele>617.8</ele><time>2026-04-01T19:19:42Z</time></trkpt><trkpt lat="45.773163541250625" lon="11.561223274363849"><ele>618.4</ele><time>2026-04-01T19:19:43Z</time></trkpt><trkpt lat="45.77325792740335" lon="11.561285036538175"><ele>619.0</ele><time>2026-04-01T19:19:44Z</time></trkpt><trkpt lat="45.773348802233826" lon="11.561340884381778"><ele>620.6666666666667</ele><time>2026-04-01T19:19:45Z</time></trkpt><trkpt lat="45.77342763758953" lon="11.56138956129055"><ele>622.3333333333334</ele><time>2026-04-01T19:19:46Z</time></trkpt><trkpt lat="45.77350706868057" lon="11.56143569915585"><ele>624.0</ele><time>2026-04-01T19:19:47Z</time></trkpt><trkpt lat="45.77358339193154" lon="11.561474103817863"><ele>625.6666666666666</ele><time>2026-04-01T19:19:48Z</time></trkpt><trkpt lat="45.77365458664976" lon="11.561514525265672"><ele>627.3333333333333</ele><time>2026-04-01T19:19:49Z</time></trkpt><trkpt lat="45.773711501932326" lon="11.56157162755299"><ele>629.0</ele><time>2026-04-01T19:19:50Z</time></trkpt><trkpt lat="45.773743243368074" lon="11.56165629918709"><ele>629.0</ele><time>2026-04-01T19:19:51Z</time></trkpt><trkpt lat="45.77374063650846" lon="11.561761241631553"><ele>629.0</ele><time>2026-04-01T19:19:52Z</time></trkpt><trkpt lat="45.773700338154796" lon="11.561849406296506"><ele>629.0</ele><time>2026-04-01T19:19:53Z</time></trkpt><trkpt lat="45.77361502223041" lon="11.561858346248561"><ele>629.0</ele><time>2026-04-01T19:19:54Z</time></trkpt><trkpt lat="45.773546690413596" lon="11.561877783281595"><ele>629.0</ele><time>2026-04-01T19:19:55Z</time></trkpt><trkpt lat="45.773469171747415" lon="11.561925712670481"><ele>629.0</ele><time>2026-04-01T19:19:56Z</time></trkpt><trkpt lat="45.77338757846667" lon="11.56196077674257"><ele>629.6666666666666</ele><time>2026-04-01T19:19:57Z</time></trkpt><trkpt lat="45.77330950634024" lon="11.562011573984053"><ele>630.3333333333333</ele><time>2026-04-01T19:19:58Z</time></trkpt><trkpt lat="45.77323569389033" lon="11.562078287398622"><ele>631.0</ele><time>2026-04-01T19:19:59Z</time></trkpt><trkpt lat="45.77317032487302" lon="11.562150205928981"><ele>631.6666666666666</ele><time>2026-04-01T19:20:00Z</time></trkpt><trkpt lat="45.773121847874734" lon="11.562251456398995"><ele>632.3333333333334</ele><time>2026-04-01T19:20:01Z</time></trkpt><trkpt lat="45.773089006108734" lon="11.562360554722588"><ele>633.0</ele><time>2026-04-01T19:20:02Z</time></trkpt><trkpt lat="45.77307281286097" lon="11.562487480999142"><ele>634.8</ele><time>2026-04-01T19:20:03Z</time></trkpt><trkpt lat="45.77306440624735" lon="11.562617977860135"><ele>636.5999999999999</ele><time>2026-04-01T19:20:04Z</time></trkpt><trkpt lat="45.77304826821254" lon="11.562749433532892"><ele>638.4000000000001</ele><time>2026-04-01T19:20:05Z</time></trkpt><trkpt lat="45.77303021515468" lon="11.562878662596425"><ele>640.2</ele><time>2026-04-01T19:20:06Z</time></trkpt><trkpt lat="45.773000095435556" lon="11.563004948550105"><ele>642.0</ele><time>2026-04-01T19:20:07Z</time></trkpt><trkpt lat="45.77295576628654" lon="11.563129006795725"><ele>644.0</ele><time>2026-04-01T19:20:08Z</time></trkpt><trkpt lat="45.772903859445464" lon="11.563247541008444"><ele>646.0</ele><time>2026-04-01T19:20:09Z</time></trkpt><trkpt lat="45.772848715010554" lon="11.56336379173865"><ele>648.0</ele><time>2026-04-01T19:20:10Z</time></trkpt><trkpt lat="45.77279659238189" lon="11.563484129750968"><ele>650.0</ele><time>2026-04-01T19:20:11Z</time></trkpt><trkpt lat="45.77274803717347" lon="11.563614251198947"><ele>652.0</ele><time>2026-04-01T19:20:12Z</time></trkpt><trkpt lat="45.7727026538716" lon="11.56374552609058"><ele>651.8</ele><time>2026-04-01T19:20:13Z</time></trkpt><trkpt lat="45.77265588832307" lon="11.563880435270088"><ele>651.6</ele><time>2026-04-01T19:20:14Z</time></trkpt><trkpt lat="45.7726215942642" lon="11.564024109979483"><ele>651.4</ele><time>2026-04-01T19:20:15Z</time></trkpt><trkpt lat="45.77258286124301" lon="11.564158032363489"><ele>651.1999999999999</ele><time>2026-04-01T19:20:16Z</time></trkpt><trkpt lat="45.77253229998463" lon="11.564284028060735"><ele>651.0</ele><time>2026-04-01T19:20:17Z</time></trkpt><trkpt lat="45.77247170136479" lon="11.564401061957632"><ele>651.0</ele><time>2026-04-01T19:20:18Z</time></trkpt><trkpt lat="45.77240930459164" lon="11.564512616763407"><ele>651.0</ele><time>2026-04-01T19:20:19Z</time></trkpt><trkpt lat="45.77234770980854" lon="11.56462791748526"><ele>651.0</ele><time>2026-04-01T19:20:20Z</time></trkpt><trkpt lat="45.772293509687934" lon="11.56474373472421"><ele>651.0</ele><time>2026-04-01T19:20:21Z</time></trkpt><trkpt lat="45.77224515333171" lon="11.564863841524385"><ele>651.0</ele><time>2026-04-01T19:20:22Z</time></trkpt><trkpt lat="45.77221062344133" lon="11.564998154149617"><ele>652.8</ele><time>2026-04-01T19:20:23Z</time></trkpt><trkpt lat="45.77220015531989" lon="11.565139086462004"><ele>654.5999999999999</ele><time>2026-04-01T19:20:24Z</time></trkpt><trkpt lat="45.77222149955514" lon="11.565281593127017"><ele>656.4</ele><time>2026-04-01T19:20:25Z</time></trkpt><trkpt lat="45.77226681375509" lon="11.565414717191425"><ele>658.2</ele><time>2026-04-01T19:20:26Z</time></trkpt><trkpt lat="45.77232724018308" lon="11.565537139693756"><ele>660.0</ele><time>2026-04-01T19:20:27Z</time></trkpt><trkpt lat="45.77239141566026" lon="11.565655391925375"><ele>660.2</ele><time>2026-04-01T19:20:28Z</time></trkpt><trkpt lat="45.772459861407164" lon="11.565778763511183"><ele>660.4</ele><time>2026-04-01T19:20:29Z</time></trkpt><trkpt lat="45.77252618263678" lon="11.565907260492649"><ele>660.5999999999999</ele><time>2026-04-01T19:20:30Z</time></trkpt><trkpt lat="45.772590794190755" lon="11.56603373637647"><ele>660.8</ele><time>2026-04-01T19:20:31Z</time></trkpt><trkpt lat="45.77265615419116" lon="11.56616218483884"><ele>661.0</ele><time>2026-04-01T19:20:32Z</time></trkpt><trkpt lat="45.772723140818286" lon="11.566299307369254"><ele>663.4</ele><time>2026-04-01T19:20:33Z</time></trkpt><trkpt lat="45.77279432061144" lon="11.566424748302241"><ele>665.8</ele><time>2026-04-01T19:20:34Z</time></trkpt><trkpt lat="45.77285910011769" lon="11.566555820622035"><ele>668.1999999999999</ele><time>2026-04-01T19:20:35Z</time></trkpt><trkpt lat="45.77290785009201" lon="11.566698420326498"><ele>670.5999999999999</ele><time>2026-04-01T19:20:36Z</time></trkpt><trkpt lat="45.77293994790221" lon="11.566854681078995"><ele>673.0</ele><time>2026-04-01T19:20:36.999Z</time></trkpt><trkpt lat="45.77296343713502" lon="11.567017696296418"><ele>671.25</ele><time>2026-04-01T19:20:38.001Z</time></trkpt><trkpt lat="45.772983244837405" lon="11.567180608161406"><ele>669.5</ele><time>2026-04-01T19:20:39.001Z</time></trkpt><trkpt lat="45.773004194898554" lon="11.567343456571685"><ele>667.75</ele><time>2026-04-01T19:20:40.001Z</time></trkpt><trkpt lat="45.773024830852805" lon="11.567501871294228"><ele>666.0</ele><time>2026-04-01T19:20:41.001Z</time></trkpt><trkpt lat="45.7730482760895" lon="11.567652160174692"><ele>666.0</ele><time>2026-04-01T19:20:42.001Z</time></trkpt><trkpt lat="45.773079276167856" lon="11.56779651824019"><ele>666.0</ele><time>2026-04-01T19:20:43.001Z</time></trkpt><trkpt lat="45.77311873395798" lon="11.567941273667941"><ele>666.0</ele><time>2026-04-01T19:20:44.001Z</time></trkpt><trkpt lat="45.77317716083449" lon="11.568074148423417"><ele>666.0</ele><time>2026-04-01T19:20:45.001Z</time></trkpt><trkpt lat="45.77325295121557" lon="11.568182330704584"><ele>666.0</ele><time>2026-04-01T19:20:46.001Z</time></trkpt><trkpt lat="45.77334164933478" lon="11.56826671550435"><ele>665.1999999999999</ele><time>2026-04-01T19:20:47.001Z</time></trkpt><trkpt lat="45.773439673016675" lon="11.568332951340842"><ele>664.4</ele><time>2026-04-01T19:20:48.001Z</time></trkpt><trkpt lat="45.77354252196295" lon="11.568385194888009"><ele>663.6</ele><time>2026-04-01T19:20:49Z</time></trkpt><trkpt lat="45.77364606039781" lon="11.568432105978262"><ele>662.8</ele><time>2026-04-01T19:20:50Z</time></trkpt><trkpt lat="45.773748829627465" lon="11.568475492793151"><ele>662.0</ele><time>2026-04-01T19:20:51Z</time></trkpt><trkpt lat="45.77384527346116" lon="11.568530348978339"><ele>664.8</ele><time>2026-04-01T19:20:52Z</time></trkpt><trkpt lat="45.773940683805115" lon="11.568601689734663"><ele>667.6</ele><time>2026-04-01T19:20:53Z</time></trkpt><trkpt lat="45.77402302157472" lon="11.56869691596257"><ele>670.4</ele><time>2026-04-01T19:20:54Z</time></trkpt><trkpt lat="45.77409627256161" lon="11.56880668213633"><ele>673.1999999999999</ele><time>2026-04-01T19:20:55Z</time></trkpt><trkpt lat="45.77416653379209" lon="11.568920923552591"><ele>676.0</ele><time>2026-04-01T19:20:56Z</time></trkpt><trkpt lat="45.774228638948706" lon="11.56904553996851"><ele>676.0</ele><time>2026-04-01T19:20:57Z</time></trkpt><trkpt lat="45.77428909267412" lon="11.56917693492209"><ele>676.0</ele><time>2026-04-01T19:20:58Z</time></trkpt><trkpt lat="45.774342310565636" lon="11.569309793950072"><ele>676.0</ele><time>2026-04-01T19:20:59Z</time></trkpt><trkpt lat="45.774388171317575" lon="11.569442083191355"><ele>676.0</ele><time>2026-04-01T19:21:00Z</time></trkpt><trkpt lat="45.77442604939463" lon="11.56956588886523"><ele>676.0</ele><time>2026-04-01T19:21:01Z</time></trkpt><trkpt lat="45.77445724119907" lon="11.5696731492383"><ele>678.5999999999999</ele><time>2026-04-01T19:21:02Z</time></trkpt><trkpt lat="45.774497759967964" lon="11.569746314979273"><ele>681.2</ele><time>2026-04-01T19:21:03Z</time></trkpt><trkpt lat="45.77459451473109" lon="11.569795051139158"><ele>683.8</ele><time>2026-04-01T19:21:05Z</time></trkpt><trkpt lat="45.77466445476418" lon="11.569678699264339"><ele>686.4000000000001</ele><time>2026-04-01T19:21:07Z</time></trkpt><trkpt lat="45.77464735792384" lon="11.56949065821868"><ele>689.0</ele><time>2026-04-01T19:21:09Z</time></trkpt><trkpt lat="45.77464356753075" lon="11.569368928421262"><ele>690.3333333333333</ele><time>2026-04-01T19:21:10Z</time></trkpt><trkpt lat="45.774634651793164" lon="11.569241846997794"><ele>691.6666666666666</ele><time>2026-04-01T19:21:11Z</time></trkpt><trkpt lat="45.774631003942964" lon="11.56912583361236"><ele>693.0</ele><time>2026-04-01T19:21:12Z</time></trkpt><trkpt lat="45.774626326223064" lon="11.569006441045516"><ele>694.3333333333334</ele><time>2026-04-01T19:21:13Z</time></trkpt><trkpt lat="45.77461758211265" lon="11.568878110930289"><ele>695.6666666666667</ele><time>2026-04-01T19:21:14Z</time></trkpt><trkpt lat="45.774600764416384" lon="11.568742045734563"><ele>697.0</ele><time>2026-04-01T19:21:15Z</time></trkpt><trkpt lat="45.7745752661254" lon="11.56861119468226"><ele>698.5</ele><time>2026-04-01T19:21:16Z</time></trkpt><trkpt lat="45.774538276463126" lon="11.568477487159008"><ele>700.0</ele><time>2026-04-01T19:21:17Z</time></trkpt><trkpt lat="45.77449562918551" lon="11.56834470880674"><ele>701.5</ele><time>2026-04-01T19:21:18Z</time></trkpt><trkpt lat="45.77442140641113" lon="11.56803507355502"><ele>703.0</ele><time>2026-04-01T19:21:20Z</time></trkpt><trkpt lat="45.77438900340819" lon="11.567899146261903"><ele>703.5</ele><time>2026-04-01T19:21:21Z</time></trkpt><trkpt lat="45.774361558342854" lon="11.567733012157078"><ele>704.0</ele><time>2026-04-01T19:21:22Z</time></trkpt><trkpt lat="45.77434022860543" lon="11.5675634138695"><ele>704.5</ele><time>2026-04-01T19:21:23Z</time></trkpt><trkpt lat="45.77432194139946" lon="11.567390482408072"><ele>705.0</ele><time>2026-04-01T19:21:24Z</time></trkpt><trkpt lat="45.774309143427665" lon="11.567212154232509"><ele>703.8</ele><time>2026-04-01T19:21:25Z</time></trkpt><trkpt lat="45.77430230364616" lon="11.567041300149558"><ele>702.6</ele><time>2026-04-01T19:21:26Z</time></trkpt><trkpt lat="45.77430071782198" lon="11.566888852643665"><ele>701.4000000000001</ele><time>2026-04-01T19:21:27Z</time></trkpt><trkpt lat="45.77430012325746" lon="11.566759695722462"><ele>700.2</ele><time>2026-04-01T19:21:28Z</time></trkpt><trkpt lat="45.77430960854816" lon="11.5666604352496"><ele>699.0</ele><time>2026-04-01T19:21:29Z</time></trkpt><trkpt lat="45.77438138636266" lon="11.56653613293248"><ele>699.0</ele><time>2026-04-01T19:21:31Z</time></trkpt><trkpt lat="45.77449283840582" lon="11.56655134849177"><ele>699.0</ele><time>2026-04-01T19:21:33Z</time></trkpt><trkpt lat="45.7745282055515" lon="11.566626412822602"><ele>699.0</ele><time>2026-04-01T19:21:34Z</time></trkpt><trkpt lat="45.774519988886105" lon="11.56673015097219"><ele>699.0</ele><time>2026-04-01T19:21:35Z</time></trkpt><trkpt lat="45.7745273540056" lon="11.566834177064582"><ele>699.0</ele><time>2026-04-01T19:21:36Z</time></trkpt><trkpt lat="45.77451895702284" lon="11.566944390084204"><ele>699.0</ele><time>2026-04-01T19:21:37Z</time></trkpt><trkpt lat="45.77451618773784" lon="11.567072399089373"><ele>700.0</ele><time>2026-04-01T19:21:38Z</time></trkpt><trkpt lat="45.77451410855745" lon="11.56719850471663"><ele>701.0</ele><time>2026-04-01T19:21:39Z</time></trkpt><trkpt lat="45.77451824712707" lon="11.567317825915854"><ele>702.0</ele><time>2026-04-01T19:21:40Z</time></trkpt><trkpt lat="45.77453909558418" lon="11.567439916368135"><ele>703.0</ele><time>2026-04-01T19:21:41Z</time></trkpt><trkpt lat="45.774577254784056" lon="11.567561929465493"><ele>704.0</ele><time>2026-04-01T19:21:42Z</time></trkpt><trkpt lat="45.77464085372961" lon="11.567666732178813"><ele>705.0</ele><time>2026-04-01T19:21:43Z</time></trkpt><trkpt lat="45.77472482069879" lon="11.567745073921062"><ele>705.0</ele><time>2026-04-01T19:21:44Z</time></trkpt><trkpt lat="45.77480903843567" lon="11.567818968488782"><ele>705.0</ele><time>2026-04-01T19:21:45Z</time></trkpt><trkpt lat="45.7748931235568" lon="11.56790211610518"><ele>705.0</ele><time>2026-04-01T19:21:46Z</time></trkpt><trkpt lat="45.774971207030866" lon="11.56800234712518"><ele>705.0</ele><time>2026-04-01T19:21:47Z</time></trkpt><trkpt lat="45.77503439375654" lon="11.568115059253198"><ele>705.0</ele><time>2026-04-01T19:21:48Z</time></trkpt><trkpt lat="45.77509719373567" lon="11.56823850187949"><ele>704.6</ele><time>2026-04-01T19:21:49Z</time></trkpt><trkpt lat="45.77514671017517" lon="11.568369584416178"><ele>704.2</ele><time>2026-04-01T19:21:50Z</time></trkpt><trkpt lat="45.77520018791828" lon="11.568503572278543"><ele>703.8</ele><time>2026-04-01T19:21:51Z</time></trkpt><trkpt lat="45.77525709285884" lon="11.568632344472656"><ele>703.4</ele><time>2026-04-01T19:21:52Z</time></trkpt><trkpt lat="45.77531840953811" lon="11.568761323934467"><ele>703.0</ele><time>2026-04-01T19:21:53Z</time></trkpt><trkpt lat="45.7753802612185" lon="11.568882571068798"><ele>706.4</ele><time>2026-04-01T19:21:54Z</time></trkpt><trkpt lat="45.77544235290413" lon="11.568997978797976"><ele>709.8</ele><time>2026-04-01T19:21:55Z</time></trkpt><trkpt lat="45.77551464165509" lon="11.56911162063189"><ele>713.2</ele><time>2026-04-01T19:21:56Z</time></trkpt><trkpt lat="45.7755952122664" lon="11.569219530246968"><ele>716.6</ele><time>2026-04-01T19:21:57Z</time></trkpt><trkpt lat="45.77568961912461" lon="11.56930184078847"><ele>720.0</ele><time>2026-04-01T19:21:58Z</time></trkpt><trkpt lat="45.77579316056629" lon="11.569384211284795"><ele>720.0</ele><time>2026-04-01T19:21:59Z</time></trkpt><trkpt lat="45.77590095011662" lon="11.569466332386854"><ele>720.0</ele><time>2026-04-01T19:22:00Z</time></trkpt><trkpt lat="45.776013457644304" lon="11.569549317144025"><ele>720.0</ele><time>2026-04-01T19:22:01Z</time></trkpt><trkpt lat="45.77611895974211" lon="11.569632913207933"><ele>720.0</ele><time>2026-04-01T19:22:02Z</time></trkpt><trkpt lat="45.77622415485715" lon="11.569720135968376"><ele>720.75</ele><time>2026-04-01T19:22:03Z</time></trkpt><trkpt lat="45.776335451510775" lon="11.569808773560341"><ele>721.5</ele><time>2026-04-01T19:22:04Z</time></trkpt><trkpt lat="45.776446816043126" lon="11.569899096543946"><ele>722.25</ele><time>2026-04-01T19:22:05Z</time></trkpt><trkpt lat="45.776559986557444" lon="11.56998171479584"><ele>723.0</ele><time>2026-04-01T19:22:06Z</time></trkpt><trkpt lat="45.77667344259472" lon="11.57006725071101"><ele>723.0</ele><time>2026-04-01T19:22:07Z</time></trkpt><trkpt lat="45.776786669328054" lon="11.570140455032808"><ele>723.0</ele><time>2026-04-01T19:22:08Z</time></trkpt><trkpt lat="45.77690820111503" lon="11.57021056118866"><ele>723.0</ele><time>2026-04-01T19:22:09Z</time></trkpt><trkpt lat="45.777033465076414" lon="11.570272589453337"><ele>723.0</ele><time>2026-04-01T19:22:10Z</time></trkpt><trkpt lat="45.77715834252937" lon="11.570335839375229"><ele>719.5</ele><time>2026-04-01T19:22:11Z</time></trkpt><trkpt lat="45.77728249614556" lon="11.570403938787228"><ele>716.0</ele><time>2026-04-01T19:22:12Z</time></trkpt><trkpt lat="45.7773999474457" lon="11.570471418546433"><ele>712.5</ele><time>2026-04-01T19:22:13Z</time></trkpt><trkpt lat="45.77750726765523" lon="11.570528756073262"><ele>709.0</ele><time>2026-04-01T19:22:14Z</time></trkpt><trkpt lat="45.77761437199481" lon="11.570564983262187"><ele>708.2</ele><time>2026-04-01T19:22:15Z</time></trkpt><trkpt lat="45.777722460138705" lon="11.57055734265789"><ele>707.4000000000001</ele><time>2026-04-01T19:22:16Z</time></trkpt><trkpt lat="45.77782639674668" lon="11.570497366133562"><ele>706.6</ele><time>2026-04-01T19:22:17Z</time></trkpt><trkpt lat="45.7779196507911" lon="11.570416589664502"><ele>705.8</ele><time>2026-04-01T19:22:18Z</time></trkpt><trkpt lat="45.778023942760306" lon="11.57035357917436"><ele>705.0</ele><time>2026-04-01T19:22:19Z</time></trkpt><trkpt lat="45.77813860032608" lon="11.570307173908096"><ele>712.5</ele><time>2026-04-01T19:22:20Z</time></trkpt><trkpt lat="45.778250803607364" lon="11.570275408548232"><ele>720.0</ele><time>2026-04-01T19:22:21Z</time></trkpt><trkpt lat="45.7783594340984" lon="11.570252707524768"><ele>727.5</ele><time>2026-04-01T19:22:22Z</time></trkpt><trkpt lat="45.778477285826916" lon="11.570221230038468"><ele>735.0</ele><time>2026-04-01T19:22:23Z</time></trkpt><trkpt lat="45.77858631062355" lon="11.570206104409944"><ele>735.0</ele><time>2026-04-01T19:22:24Z</time></trkpt><trkpt lat="45.77869961789987" lon="11.57017967175774"><ele>735.0</ele><time>2026-04-01T19:22:25Z</time></trkpt><trkpt lat="45.77881110099917" lon="11.57017650230409"><ele>735.0</ele><time>2026-04-01T19:22:26Z</time></trkpt><trkpt lat="45.77891541502336" lon="11.570174324558524"><ele>735.0</ele><time>2026-04-01T19:22:27Z</time></trkpt><trkpt lat="45.77902268612108" lon="11.57018336044287"><ele>735.0</ele><time>2026-04-01T19:22:28Z</time></trkpt><trkpt lat="45.77913042454184" lon="11.570174374764596"><ele>735.0</ele><time>2026-04-01T19:22:29Z</time></trkpt><trkpt lat="45.779231617382635" lon="11.570106418178467"><ele>735.0</ele><time>2026-04-01T19:22:30Z</time></trkpt><trkpt lat="45.7793246680322" lon="11.570024008779225"><ele>735.0</ele><time>2026-04-01T19:22:31Z</time></trkpt><trkpt lat="45.77940621751329" lon="11.569946909981226"><ele>735.0</ele><time>2026-04-01T19:22:32Z</time></trkpt><trkpt lat="45.77948973145363" lon="11.569860291013482"><ele>735.0</ele><time>2026-04-01T19:22:33Z</time></trkpt><trkpt lat="45.77958368347799" lon="11.569776287764737"><ele>731.0</ele><time>2026-04-01T19:22:34Z</time></trkpt><trkpt lat="45.779692486756176" lon="11.569698179148384"><ele>727.0</ele><time>2026-04-01T19:22:35Z</time></trkpt><trkpt lat="45.779800457530165" lon="11.569636381053858"><ele>723.0</ele><time>2026-04-01T19:22:36Z</time></trkpt><trkpt lat="45.779906901449756" lon="11.569575808310928"><ele>719.0</ele><time>2026-04-01T19:22:37Z</time></trkpt><trkpt lat="45.7800174569932" lon="11.569540228396686"><ele>719.0</ele><time>2026-04-01T19:22:38Z</time></trkpt><trkpt lat="45.78013248783177" lon="11.569539696113237"><ele>719.0</ele><time>2026-04-01T19:22:39Z</time></trkpt><trkpt lat="45.78024531514958" lon="11.569585245896977"><ele>719.0</ele><time>2026-04-01T19:22:40Z</time></trkpt><trkpt lat="45.780354862470354" lon="11.569636078366946"><ele>719.0</ele><time>2026-04-01T19:22:41Z</time></trkpt><trkpt lat="45.7804674451848" lon="11.569691740738557"><ele>723.0</ele><time>2026-04-01T19:22:41.999Z</time></trkpt><trkpt lat="45.78057852583623" lon="11.569749252902845"><ele>727.0</ele><time>2026-04-01T19:22:42.999Z</time></trkpt><trkpt lat="45.780694232780114" lon="11.569809771752523"><ele>731.0</ele><time>2026-04-01T19:22:44Z</time></trkpt><trkpt lat="45.780820083631106" lon="11.569864679594556"><ele>735.0</ele><time>2026-04-01T19:22:45Z</time></trkpt><trkpt lat="45.780941394064605" lon="11.569936190462682"><ele>740.5</ele><time>2026-04-01T19:22:46Z</time></trkpt><trkpt lat="45.78106912705455" lon="11.570001956073925"><ele>746.0</ele><time>2026-04-01T19:22:47Z</time></trkpt><trkpt lat="45.781200637792644" lon="11.570067569481093"><ele>751.5</ele><time>2026-04-01T19:22:48Z</time></trkpt><trkpt lat="45.78132716919895" lon="11.570139803957648"><ele>757.0</ele><time>2026-04-01T19:22:49Z</time></trkpt><trkpt lat="45.78146229824929" lon="11.570200477267235"><ele>757.0</ele><time>2026-04-01T19:22:50Z</time></trkpt><trkpt lat="45.781597360023724" lon="11.570249776887259"><ele>757.0</ele><time>2026-04-01T19:22:51Z</time></trkpt><trkpt lat="45.78173641576536" lon="11.570297591247666"><ele>757.0</ele><time>2026-04-01T19:22:52Z</time></trkpt><trkpt lat="45.781870101873245" lon="11.570357291763612"><ele>757.0</ele><time>2026-04-01T19:22:53Z</time></trkpt><trkpt lat="45.78200421720597" lon="11.57043062376146"><ele>755.5</ele><time>2026-04-01T19:22:54Z</time></trkpt><trkpt lat="45.78213414097957" lon="11.570531411865378"><ele>754.0</ele><time>2026-04-01T19:22:55Z</time></trkpt><trkpt lat="45.78225896392708" lon="11.570647687302781"><ele>752.5</ele><time>2026-04-01T19:22:56Z</time></trkpt><trkpt lat="45.78237964914632" lon="11.570754637366067"><ele>751.0</ele><time>2026-04-01T19:22:57Z</time></trkpt><trkpt lat="45.78250620132732" lon="11.570849298352215"><ele>751.0</ele><time>2026-04-01T19:22:58Z</time></trkpt><trkpt lat="45.782625494088954" lon="11.570949547141296"><ele>751.0</ele><time>2026-04-01T19:22:59Z</time></trkpt><trkpt lat="45.782731614110716" lon="11.571074312615954"><ele>751.0</ele><time>2026-04-01T19:23:00Z</time></trkpt><trkpt lat="45.782819233374454" lon="11.571225937803689"><ele>751.0</ele><time>2026-04-01T19:23:01Z</time></trkpt><trkpt lat="45.782893342032196" lon="11.571397097779833"><ele>748.0</ele><time>2026-04-01T19:23:02Z</time></trkpt><trkpt lat="45.78297195964106" lon="11.571564046862978"><ele>745.0</ele><time>2026-04-01T19:23:03Z</time></trkpt><trkpt lat="45.783052750717815" lon="11.571725436928133"><ele>742.0</ele><time>2026-04-01T19:23:04Z</time></trkpt><trkpt lat="45.783142126121994" lon="11.571909894853984"><ele>739.0</ele><time>2026-04-01T19:23:05Z</time></trkpt><trkpt lat="45.783236719382984" lon="11.572063553574203"><ele>739.0</ele><time>2026-04-01T19:23:06Z</time></trkpt><trkpt lat="45.78331842186383" lon="11.572201333557784"><ele>739.0</ele><time>2026-04-01T19:23:07Z</time></trkpt><trkpt lat="45.78340206608473" lon="11.572344747251245"><ele>739.0</ele><time>2026-04-01T19:23:08Z</time></trkpt><trkpt lat="45.783484676990774" lon="11.572499308010272"><ele>739.0</ele><time>2026-04-01T19:23:09Z</time></trkpt><trkpt lat="45.78357570056973" lon="11.572626385678701"><ele>741.6</ele><time>2026-04-01T19:23:10Z</time></trkpt><trkpt lat="45.78365393599201" lon="11.572742688842348"><ele>744.2</ele><time>2026-04-01T19:23:11Z</time></trkpt><trkpt lat="45.78371656250147" lon="11.572835616292801"><ele>746.8000000000001</ele><time>2026-04-01T19:23:12Z</time></trkpt><trkpt lat="45.7837801160379" lon="11.572916888741794"><ele>749.4000000000001</ele><time>2026-04-01T19:23:13Z</time></trkpt><trkpt lat="45.783836467465456" lon="11.573015532782826"><ele>752.0</ele><time>2026-04-01T19:23:14Z</time></trkpt><trkpt lat="45.783893209619436" lon="11.573110059635887"><ele>752.0</ele><time>2026-04-01T19:23:15Z</time></trkpt><trkpt lat="45.7839488831558" lon="11.573208863579275"><ele>752.0</ele><time>2026-04-01T19:23:16Z</time></trkpt><trkpt lat="45.784014144013085" lon="11.573310084311212"><ele>752.0</ele><time>2026-04-01T19:23:17Z</time></trkpt><trkpt lat="45.78408115556864" lon="11.5734183390984"><ele>752.0</ele><time>2026-04-01T19:23:18Z</time></trkpt><trkpt lat="45.78416299566325" lon="11.573528675597021"><ele>752.0</ele><time>2026-04-01T19:23:19Z</time></trkpt><trkpt lat="45.784230415137834" lon="11.573636651002255"><ele>748.6</ele><time>2026-04-01T19:23:20Z</time></trkpt><trkpt lat="45.78430152894784" lon="11.573742711787427"><ele>745.2</ele><time>2026-04-01T19:23:21Z</time></trkpt><trkpt lat="45.78437292338584" lon="11.573857597124539"><ele>741.8</ele><time>2026-04-01T19:23:22Z</time></trkpt><trkpt lat="45.784423650841504" lon="11.573998411907835"><ele>738.4</ele><time>2026-04-01T19:23:23Z</time></trkpt><trkpt lat="45.784495790001955" lon="11.574116975786259"><ele>735.0</ele><time>2026-04-01T19:23:24Z</time></trkpt><trkpt lat="45.78456831861477" lon="11.57423932015022"><ele>739.25</ele><time>2026-04-01T19:23:25Z</time></trkpt><trkpt lat="45.78463746400027" lon="11.574365420814408"><ele>743.5</ele><time>2026-04-01T19:23:26Z</time></trkpt><trkpt lat="45.78470368145273" lon="11.574500184038374"><ele>747.75</ele><time>2026-04-01T19:23:27Z</time></trkpt><trkpt lat="45.78476932951818" lon="11.574638676040689"><ele>752.0</ele><time>2026-04-01T19:23:28Z</time></trkpt><trkpt lat="45.7848327775685" lon="11.57477657016318"><ele>752.0</ele><time>2026-04-01T19:23:29Z</time></trkpt><trkpt lat="45.78490385760433" lon="11.574901952446453"><ele>752.0</ele><time>2026-04-01T19:23:30Z</time></trkpt><trkpt lat="45.78494885017541" lon="11.575049698726081"><ele>752.0</ele><time>2026-04-01T19:23:31Z</time></trkpt><trkpt lat="45.784994273570575" lon="11.575190666942351"><ele>752.0</ele><time>2026-04-01T19:23:32Z</time></trkpt><trkpt lat="45.78504250146262" lon="11.575325369959337"><ele>752.0</ele><time>2026-04-01T19:23:33Z</time></trkpt><trkpt lat="45.78508715814067" lon="11.575453380244548"><ele>750.5</ele><time>2026-04-01T19:23:34Z</time></trkpt><trkpt lat="45.78513245424436" lon="11.575574674293042"><ele>749.0</ele><time>2026-04-01T19:23:35Z</time></trkpt><trkpt lat="45.78517825809989" lon="11.575680848484852"><ele>747.5</ele><time>2026-04-01T19:23:36Z</time></trkpt><trkpt lat="45.78520611531872" lon="11.575787159226442"><ele>746.0</ele><time>2026-04-01T19:23:37Z</time></trkpt><trkpt lat="45.78522990570012" lon="11.575876068239657"><ele>744.5</ele><time>2026-04-01T19:23:38Z</time></trkpt><trkpt lat="45.78526612282908" lon="11.575998549491263"><ele>743.0</ele><time>2026-04-01T19:23:40Z</time></trkpt><trkpt lat="45.7853410147161" lon="11.576041871075907"><ele>747.1666666666666</ele><time>2026-04-01T19:23:42Z</time></trkpt><trkpt lat="45.78537529833238" lon="11.575906330381372"><ele>751.3333333333333</ele><time>2026-04-01T19:23:44Z</time></trkpt><trkpt lat="45.78533661726983" lon="11.575741822217957"><ele>755.5</ele><time>2026-04-01T19:23:46Z</time></trkpt><trkpt lat="45.78531019015316" lon="11.575651513375657"><ele>759.6666666666666</ele><time>2026-04-01T19:23:47Z</time></trkpt><trkpt lat="45.785279878828874" lon="11.57555162576628"><ele>763.8333333333334</ele><time>2026-04-01T19:23:48Z</time></trkpt><trkpt lat="45.785234892245626" lon="11.575455178946461"><ele>768.0</ele><time>2026-04-01T19:23:49Z</time></trkpt><trkpt lat="45.78520742175531" lon="11.575367419687359"><ele>768.0</ele><time>2026-04-01T19:23:50Z</time></trkpt><trkpt lat="45.78521290176717" lon="11.575239353302722"><ele>768.0</ele><time>2026-04-01T19:23:52Z</time></trkpt><trkpt lat="45.78529632034157" lon="11.575235269544415"><ele>768.0</ele><time>2026-04-01T19:23:54Z</time></trkpt><trkpt lat="45.78532659052547" lon="11.575342708268748"><ele>768.0</ele><time>2026-04-01T19:23:55Z</time></trkpt><trkpt lat="45.78540811900505" lon="11.575478644486275"><ele>768.0</ele><time>2026-04-01T19:23:57Z</time></trkpt><trkpt lat="45.785454538444995" lon="11.575566760797239"><ele>768.0</ele><time>2026-04-01T19:23:58Z</time></trkpt><trkpt lat="45.78549943485066" lon="11.575671933394162"><ele>768.0</ele><time>2026-04-01T19:23:59Z</time></trkpt><trkpt lat="45.7855261325925" lon="11.57578531236861"><ele>768.0</ele><time>2026-04-01T19:24:00Z</time></trkpt><trkpt lat="45.7855385584509" lon="11.575894396131366"><ele>768.0</ele><time>2026-04-01T19:24:01Z</time></trkpt><trkpt lat="45.78555525462204" lon="11.575981885048131"><ele>768.0</ele><time>2026-04-01T19:24:02Z</time></trkpt><trkpt lat="45.78561684850237" lon="11.576115281641787"><ele>768.0</ele><time>2026-04-01T19:24:04Z</time></trkpt><trkpt lat="45.7857245392936" lon="11.576103135107498"><ele>768.0</ele><time>2026-04-01T19:24:06Z</time></trkpt><trkpt lat="45.785706086752754" lon="11.575949096015613"><ele>768.0</ele><time>2026-04-01T19:24:07Z</time></trkpt><trkpt lat="45.785690125800194" lon="11.575859198933719"><ele>768.0</ele><time>2026-04-01T19:24:08Z</time></trkpt><trkpt lat="45.785684746769064" lon="11.575756007734176"><ele>768.0</ele><time>2026-04-01T19:24:09Z</time></trkpt><trkpt lat="45.7856736649596" lon="11.575634280847773"><ele>768.0</ele><time>2026-04-01T19:24:10Z</time></trkpt><trkpt lat="45.78565212329421" lon="11.57551662134168"><ele>768.0</ele><time>2026-04-01T19:24:11Z</time></trkpt><trkpt lat="45.78562949054165" lon="11.5754254792592"><ele>770.5</ele><time>2026-04-01T19:24:12Z</time></trkpt><trkpt lat="45.78560888879447" lon="11.575327156233438"><ele>773.0</ele><time>2026-04-01T19:24:13Z</time></trkpt><trkpt lat="45.78558509840481" lon="11.575221339797048"><ele>775.5</ele><time>2026-04-01T19:24:13.999Z</time></trkpt><trkpt lat="45.78556099677919" lon="11.57511073145334"><ele>778.0</ele><time>2026-04-01T19:24:14.999Z</time></trkpt><trkpt lat="45.78553746746439" lon="11.57500235996764"><ele>780.5</ele><time>2026-04-01T19:24:15.999Z</time></trkpt><trkpt lat="45.7855169463827" lon="11.574892515403219"><ele>783.0</ele><time>2026-04-01T19:24:16.999Z</time></trkpt><trkpt lat="45.7854950507402" lon="11.574775568938247"><ele>783.0</ele><time>2026-04-01T19:24:17.999Z</time></trkpt><trkpt lat="45.7854646435092" lon="11.574660343621105"><ele>783.0</ele><time>2026-04-01T19:24:18.999Z</time></trkpt><trkpt lat="45.78543785524578" lon="11.574538349099216"><ele>783.0</ele><time>2026-04-01T19:24:19.999Z</time></trkpt><trkpt lat="45.785406877262005" lon="11.574419985733511"><ele>783.0</ele><time>2026-04-01T19:24:20.999Z</time></trkpt><trkpt lat="45.7853669131769" lon="11.5743047374278"><ele>783.0</ele><time>2026-04-01T19:24:21.999Z</time></trkpt><trkpt lat="45.78531286656567" lon="11.574197613915032"><ele>783.0</ele><time>2026-04-01T19:24:22.999Z</time></trkpt><trkpt lat="45.785260590177735" lon="11.57409293414906"><ele>780.2</ele><time>2026-04-01T19:24:23.999Z</time></trkpt><trkpt lat="45.785202215888994" lon="11.573989197223499"><ele>777.4</ele><time>2026-04-01T19:24:24.999Z</time></trkpt><trkpt lat="45.78514680755103" lon="11.573888435482141"><ele>774.6</ele><time>2026-04-01T19:24:25.999Z</time></trkpt><trkpt lat="45.78509275424522" lon="11.573780886565018"><ele>771.8000000000001</ele><time>2026-04-01T19:24:26.999Z</time></trkpt><trkpt lat="45.785039815067364" lon="11.573676708431964"><ele>769.0</ele><time>2026-04-01T19:24:27.999Z</time></trkpt><trkpt lat="45.78498465061304" lon="11.5735658668448"><ele>774.6</ele><time>2026-04-01T19:24:28.999Z</time></trkpt><trkpt lat="45.784924634300246" lon="11.573458232125292"><ele>780.2</ele><time>2026-04-01T19:24:29.999Z</time></trkpt><trkpt lat="45.78487360088186" lon="11.573346540679058"><ele>785.8000000000001</ele><time>2026-04-01T19:24:30.999Z</time></trkpt><trkpt lat="45.78480326851742" lon="11.573242594237856"><ele>791.4000000000001</ele><time>2026-04-01T19:24:31.999Z</time></trkpt><trkpt lat="45.7847302874707" lon="11.57314408043443"><ele>797.0</ele><time>2026-04-01T19:24:32.999Z</time></trkpt><trkpt lat="45.78464635198921" lon="11.573055219488017"><ele>797.0</ele><time>2026-04-01T19:24:33.999Z</time></trkpt><trkpt lat="45.78456335371007" lon="11.57295302487735"><ele>797.0</ele><time>2026-04-01T19:24:34.999Z</time></trkpt><trkpt lat="45.78448334539526" lon="11.57284522546761"><ele>797.0</ele><time>2026-04-01T19:24:35.999Z</time></trkpt><trkpt lat="45.78440191796409" lon="11.572732589344149"><ele>797.0</ele><time>2026-04-01T19:24:36.999Z</time></trkpt><trkpt lat="45.78432697277774" lon="11.572623087221904"><ele>797.0</ele><time>2026-04-01T19:24:37.999Z</time></trkpt><trkpt lat="45.78425078861181" lon="11.572508423942176"><ele>799.2</ele><time>2026-04-01T19:24:38.999Z</time></trkpt><trkpt lat="45.78417138338486" lon="11.572396593184061"><ele>801.4000000000001</ele><time>2026-04-01T19:24:39.999Z</time></trkpt><trkpt lat="45.784098359174735" lon="11.572274391580642"><ele>803.5999999999999</ele><time>2026-04-01T19:24:40.999Z</time></trkpt><trkpt lat="45.78402209835203" lon="11.572160207233642"><ele>805.8</ele><time>2026-04-01T19:24:41.999Z</time></trkpt><trkpt lat="45.78395917634743" lon="11.572027983218092"><ele>808.0</ele><time>2026-04-01T19:24:42.999Z</time></trkpt><trkpt lat="45.78390847848022" lon="11.571888139029824"><ele>808.0</ele><time>2026-04-01T19:24:43.999Z</time></trkpt><trkpt lat="45.78385492717278" lon="11.571746847895856"><ele>808.0</ele><time>2026-04-01T19:24:44.999Z</time></trkpt><trkpt lat="45.783805482227976" lon="11.571591941518667"><ele>808.0</ele><time>2026-04-01T19:24:45.999Z</time></trkpt><trkpt lat="45.78374491049506" lon="11.57145129188903"><ele>808.0</ele><time>2026-04-01T19:24:46.999Z</time></trkpt><trkpt lat="45.783674684359184" lon="11.571318854865854"><ele>810.25</ele><time>2026-04-01T19:24:47.999Z</time></trkpt><trkpt lat="45.78361749199429" lon="11.571167045082536"><ele>812.5</ele><time>2026-04-01T19:24:48.999Z</time></trkpt><trkpt lat="45.78355810182854" lon="11.57103058923355"><ele>814.75</ele><time>2026-04-01T19:24:50Z</time></trkpt><trkpt lat="45.7834981455072" lon="11.57088929347395"><ele>817.0</ele><time>2026-04-01T19:24:51Z</time></trkpt><trkpt lat="45.78345130653228" lon="11.570738623052423"><ele>814.2</ele><time>2026-04-01T19:24:52Z</time></trkpt><trkpt lat="45.78340913767716" lon="11.57058233915337"><ele>811.4000000000001</ele><time>2026-04-01T19:24:53Z</time></trkpt><trkpt lat="45.783371926627204" lon="11.570433964752633"><ele>808.5999999999999</ele><time>2026-04-01T19:24:54Z</time></trkpt><trkpt lat="45.78333653142265" lon="11.570299697681211"><ele>805.8</ele><time>2026-04-01T19:24:55Z</time></trkpt><trkpt lat="45.78330228372563" lon="11.57017944075431"><ele>803.0</ele><time>2026-04-01T19:24:56Z</time></trkpt><trkpt lat="45.78327598797544" lon="11.570068208712325"><ele>803.0000000000001</ele><time>2026-04-01T19:24:57Z</time></trkpt><trkpt lat="45.783275905969845" lon="11.569970165410679"><ele>803.0</ele><time>2026-04-01T19:24:58Z</time></trkpt><trkpt lat="45.783328213057835" lon="11.569806047710177"><ele>803.0</ele><time>2026-04-01T19:25:00Z</time></trkpt><trkpt lat="45.783379057663424" lon="11.56972928475346"><ele>803.0</ele><time>2026-04-01T19:25:01Z</time></trkpt><trkpt lat="45.78344778934031" lon="11.56965674048016"><ele>803.0000000000001</ele><time>2026-04-01T19:25:02Z</time></trkpt><trkpt lat="45.78352564199229" lon="11.569591455351839"><ele>803.0</ele><time>2026-04-01T19:25:03Z</time></trkpt><trkpt lat="45.78361145887876" lon="11.569543499560597"><ele>802.25</ele><time>2026-04-01T19:25:04Z</time></trkpt><trkpt lat="45.78371896748028" lon="11.569504867797853"><ele>801.5</ele><time>2026-04-01T19:25:05Z</time></trkpt><trkpt lat="45.783836475708554" lon="11.569469910162018"><ele>800.75</ele><time>2026-04-01T19:25:06Z</time></trkpt><trkpt lat="45.783955457800964" lon="11.569423111200514"><ele>800.0</ele><time>2026-04-01T19:25:07Z</time></trkpt><trkpt lat="45.784085654981155" lon="11.569352066652973"><ele>800.0</ele><time>2026-04-01T19:25:08Z</time></trkpt><trkpt lat="45.78422996951106" lon="11.56930175286544"><ele>800.0</ele><time>2026-04-01T19:25:09Z</time></trkpt><trkpt lat="45.784356871831605" lon="11.569235849300785"><ele>800.0</ele><time>2026-04-01T19:25:10Z</time></trkpt><trkpt lat="45.784478538589916" lon="11.569171798766522"><ele>800.0</ele><time>2026-04-01T19:25:11Z</time></trkpt><trkpt lat="45.784605901461504" lon="11.569109381657755"><ele>804.25</ele><time>2026-04-01T19:25:12Z</time></trkpt><trkpt lat="45.78473641868547" lon="11.569052591311342"><ele>808.5</ele><time>2026-04-01T19:25:13Z</time></trkpt><trkpt lat="45.78486895735951" lon="11.569001863598572"><ele>812.75</ele><time>2026-04-01T19:25:14Z</time></trkpt><trkpt lat="45.78500126964443" lon="11.568940093314179"><ele>817.0</ele><time>2026-04-01T19:25:15Z</time></trkpt><trkpt lat="45.78515264239684" lon="11.568875246905348"><ele>817.3333333333333</ele><time>2026-04-01T19:25:16Z</time></trkpt><trkpt lat="45.78529001277516" lon="11.568781991803023"><ele>817.6666666666667</ele><time>2026-04-01T19:25:17Z</time></trkpt><trkpt lat="45.78541968515743" lon="11.568673177790437"><ele>818.0</ele><time>2026-04-01T19:25:18Z</time></trkpt><trkpt lat="45.78554735778623" lon="11.568550041892857"><ele>818.0</ele><time>2026-04-01T19:25:19Z</time></trkpt><trkpt lat="45.785669390559924" lon="11.568436568906396"><ele>818.0</ele><time>2026-04-01T19:25:20Z</time></trkpt><trkpt lat="45.78578436496757" lon="11.568330507544056"><ele>818.0</ele><time>2026-04-01T19:25:21Z</time></trkpt><trkpt lat="45.78590892669511" lon="11.568225893228604"><ele>818.0</ele><time>2026-04-01T19:25:22Z</time></trkpt><trkpt lat="45.786033343527485" lon="11.568119537580262"><ele>816.5</ele><time>2026-04-01T19:25:23Z</time></trkpt><trkpt lat="45.786163189458115" lon="11.56802608810587"><ele>815.0</ele><time>2026-04-01T19:25:24Z</time></trkpt><trkpt lat="45.78629619409199" lon="11.567941675032733"><ele>813.5</ele><time>2026-04-01T19:25:25Z</time></trkpt><trkpt lat="45.786430484331284" lon="11.567845511152216"><ele>812.0</ele><time>2026-04-01T19:25:26Z</time></trkpt><trkpt lat="45.78655990869993" lon="11.567736391553368"><ele>812.0</ele><time>2026-04-01T19:25:27Z</time></trkpt><trkpt lat="45.78667941765503" lon="11.567638959304855"><ele>812.0</ele><time>2026-04-01T19:25:28Z</time></trkpt><trkpt lat="45.78681589179657" lon="11.567545788108685"><ele>812.0</ele><time>2026-04-01T19:25:29Z</time></trkpt><trkpt lat="45.78694511959672" lon="11.567468917572993"><ele>812.0</ele><time>2026-04-01T19:25:30Z</time></trkpt><trkpt lat="45.78708250991074" lon="11.567381934804512"><ele>812.75</ele><time>2026-04-01T19:25:31Z</time></trkpt><trkpt lat="45.78721250838845" lon="11.567301338460595"><ele>813.5</ele><time>2026-04-01T19:25:32Z</time></trkpt><trkpt lat="45.78733864910671" lon="11.567208782017255"><ele>814.25</ele><time>2026-04-01T19:25:33Z</time></trkpt><trkpt lat="45.787454934973965" lon="11.567099355436781"><ele>815.0</ele><time>2026-04-01T19:25:34Z</time></trkpt><trkpt lat="45.787566486088835" lon="11.566957557750847"><ele>815.0</ele><time>2026-04-01T19:25:35Z</time></trkpt><trkpt lat="45.787649547700326" lon="11.56677322543235"><ele>815.0</ele><time>2026-04-01T19:25:36Z</time></trkpt><trkpt lat="45.78770288594899" lon="11.566581277694612"><ele>815.0</ele><time>2026-04-01T19:25:37Z</time></trkpt><trkpt lat="45.78778042616203" lon="11.566416641114794"><ele>815.0</ele><time>2026-04-01T19:25:38Z</time></trkpt><trkpt lat="45.78787249939675" lon="11.566261053998028"><ele>818.0</ele><time>2026-04-01T19:25:39Z</time></trkpt><trkpt lat="45.78797328100609" lon="11.566112184945817"><ele>821.0</ele><time>2026-04-01T19:25:40Z</time></trkpt><trkpt lat="45.78808486957758" lon="11.565974500608007"><ele>824.0</ele><time>2026-04-01T19:25:41Z</time></trkpt><trkpt lat="45.788189650195065" lon="11.56584571727199"><ele>827.0</ele><time>2026-04-01T19:25:42Z</time></trkpt><trkpt lat="45.7882885548128" lon="11.565711392936318"><ele>827.0</ele><time>2026-04-01T19:25:43Z</time></trkpt><trkpt lat="45.788388623330476" lon="11.565576130038698"><ele>827.0</ele><time>2026-04-01T19:25:44Z</time></trkpt><trkpt lat="45.788487866193755" lon="11.565426667304388"><ele>827.0</ele><time>2026-04-01T19:25:45Z</time></trkpt><trkpt lat="45.788581343055206" lon="11.565259692021879"><ele>827.0</ele><time>2026-04-01T19:25:46Z</time></trkpt><trkpt lat="45.78867127617459" lon="11.565040590777429"><ele>829.0</ele><time>2026-04-01T19:25:47Z</time></trkpt><trkpt lat="45.78869794533695" lon="11.56483684459097"><ele>831.0</ele><time>2026-04-01T19:25:48Z</time></trkpt><trkpt lat="45.78873374926783" lon="11.564673009415921"><ele>833.0</ele><time>2026-04-01T19:25:49Z</time></trkpt><trkpt lat="45.78877211326673" lon="11.564470597699104"><ele>835.0</ele><time>2026-04-01T19:25:50Z</time></trkpt><trkpt lat="45.788812606960725" lon="11.564256869854548"><ele>835.0</ele><time>2026-04-01T19:25:51Z</time></trkpt><trkpt lat="45.78885010410445" lon="11.56406697121341"><ele>835.0</ele><time>2026-04-01T19:25:52Z</time></trkpt><trkpt lat="45.7889369598988" lon="11.563885577594712"><ele>835.0</ele><time>2026-04-01T19:25:53Z</time></trkpt><trkpt lat="45.789033232847395" lon="11.563723642824908"><ele>835.0</ele><time>2026-04-01T19:25:54Z</time></trkpt><trkpt lat="45.78914537052509" lon="11.563567292450609"><ele>835.5</ele><time>2026-04-01T19:25:55Z</time></trkpt><trkpt lat="45.78924425636826" lon="11.56339879118304"><ele>836.0</ele><time>2026-04-01T19:25:56Z</time></trkpt><trkpt lat="45.7893323536377" lon="11.563232025384513"><ele>836.5</ele><time>2026-04-01T19:25:57Z</time></trkpt><trkpt lat="45.789401883082895" lon="11.563044463081319"><ele>837.0</ele><time>2026-04-01T19:25:58Z</time></trkpt><trkpt lat="45.78944780676774" lon="11.562843730747367"><ele>837.0</ele><time>2026-04-01T19:25:59Z</time></trkpt><trkpt lat="45.78947343809847" lon="11.562623845513505"><ele>837.0</ele><time>2026-04-01T19:26:00Z</time></trkpt><trkpt lat="45.78951063326783" lon="11.562418035227164"><ele>837.0</ele><time>2026-04-01T19:26:01Z</time></trkpt><trkpt lat="45.789516824149906" lon="11.56220765990323"><ele>835.25</ele><time>2026-04-01T19:26:02Z</time></trkpt><trkpt lat="45.78955022053556" lon="11.562012643807787"><ele>833.5</ele><time>2026-04-01T19:26:03Z</time></trkpt><trkpt lat="45.789608678145875" lon="11.561839740621323"><ele>831.75</ele><time>2026-04-01T19:26:04Z</time></trkpt><trkpt lat="45.78966804198691" lon="11.56168451633005"><ele>830.0</ele><time>2026-04-01T19:26:05Z</time></trkpt><trkpt lat="45.7897180444634" lon="11.561545825578868"><ele>830.0</ele><time>2026-04-01T19:26:06Z</time></trkpt><trkpt lat="45.78977216176591" lon="11.561402107387094"><ele>830.0</ele><time>2026-04-01T19:26:06.999Z</time></trkpt><trkpt lat="45.78982016072278" lon="11.561250196294834"><ele>830.0</ele><time>2026-04-01T19:26:07.999Z</time></trkpt><trkpt lat="45.78985215183121" lon="11.561091247626583"><ele>830.0</ele><time>2026-04-01T19:26:08.999Z</time></trkpt><trkpt lat="45.78986997559606" lon="11.560923142017208"><ele>829.75</ele><time>2026-04-01T19:26:09.999Z</time></trkpt><trkpt lat="45.789907839069244" lon="11.560766140911198"><ele>829.5</ele><time>2026-04-01T19:26:10.999Z</time></trkpt><trkpt lat="45.789939848908865" lon="11.560597319481284"><ele>829.25</ele><time>2026-04-01T19:26:11.999Z</time></trkpt><trkpt lat="45.78989998278046" lon="11.56041000392218"><ele>829.0</ele><time>2026-04-01T19:26:12.999Z</time></trkpt><trkpt lat="45.789924785407536" lon="11.56026009477874"><ele>830.25</ele><time>2026-04-01T19:26:13.999Z</time></trkpt><trkpt lat="45.78993165175944" lon="11.560104203489972"><ele>831.5</ele><time>2026-04-01T19:26:14.999Z</time></trkpt><trkpt lat="45.78993067643188" lon="11.55993267213642"><ele>832.75</ele><time>2026-04-01T19:26:15.999Z</time></trkpt><trkpt lat="45.789938213844366" lon="11.559731570065399"><ele>834.0</ele><time>2026-04-01T19:26:16.999Z</time></trkpt><trkpt lat="45.78993600128923" lon="11.559528292010304"><ele>835.25</ele><time>2026-04-01T19:26:17.999Z</time></trkpt><trkpt lat="45.78992939081513" lon="11.559323001288348"><ele>836.5</ele><time>2026-04-01T19:26:18.999Z</time></trkpt><trkpt lat="45.78992797892684" lon="11.559132837398467"><ele>837.75</ele><time>2026-04-01T19:26:19.999Z</time></trkpt><trkpt lat="45.78991530529537" lon="11.558936807998887"><ele>839.0</ele><time>2026-04-01T19:26:20.999Z</time></trkpt><trkpt lat="45.789907739754625" lon="11.558741484674146"><ele>840.5</ele><time>2026-04-01T19:26:21.999Z</time></trkpt><trkpt lat="45.78990091434745" lon="11.558547572054051"><ele>842.0</ele><time>2026-04-01T19:26:22.999Z</time></trkpt><trkpt lat="45.78989973174303" lon="11.558363515636275"><ele>843.5</ele><time>2026-04-01T19:26:23.999Z</time></trkpt><trkpt lat="45.78989037801549" lon="11.558175782664055"><ele>845.0</ele><time>2026-04-01T19:26:24.999Z</time></trkpt><trkpt lat="45.78988167960727" lon="11.557990240578315"><ele>847.25</ele><time>2026-04-01T19:26:25.999Z</time></trkpt><trkpt lat="45.78986507569242" lon="11.557802753153958"><ele>849.5</ele><time>2026-04-01T19:26:26.999Z</time></trkpt><trkpt lat="45.78984333793029" lon="11.557618229648277"><ele>851.75</ele><time>2026-04-01T19:26:27.999Z</time></trkpt><trkpt lat="45.78982577951311" lon="11.557441597115474"><ele>854.0</ele><time>2026-04-01T19:26:28.999Z</time></trkpt><trkpt lat="45.78981595584431" lon="11.557270549517177"><ele>854.0</ele><time>2026-04-01T19:26:29.999Z</time></trkpt><trkpt lat="45.78979630501519" lon="11.557122618475102"><ele>854.0000000000001</ele><time>2026-04-01T19:26:30.999Z</time></trkpt><trkpt lat="45.78977831205568" lon="11.556993148103448"><ele>854.0000000000001</ele><time>2026-04-01T19:26:31.999Z</time></trkpt><trkpt lat="45.78978823311275" lon="11.556895108352295"><ele>854.0</ele><time>2026-04-01T19:26:32.999Z</time></trkpt><trkpt lat="45.78987665730547" lon="11.556853114125522"><ele>854.0</ele><time>2026-04-01T19:26:34.999Z</time></trkpt><trkpt lat="45.78983866643619" lon="11.556986805716333"><ele>854.0000000000001</ele><time>2026-04-01T19:26:36.999Z</time></trkpt><trkpt lat="45.78984409489896" lon="11.557093934677253"><ele>854.0</ele><time>2026-04-01T19:26:37.999Z</time></trkpt><trkpt lat="45.78985017181925" lon="11.557205799838131"><ele>854.0</ele><time>2026-04-01T19:26:38.999Z</time></trkpt><trkpt lat="45.78986725601432" lon="11.557329657030866"><ele>854.0</ele><time>2026-04-01T19:26:39.999Z</time></trkpt><trkpt lat="45.789887751284475" lon="11.557437760069496"><ele>854.0000000000001</ele><time>2026-04-01T19:26:40.999Z</time></trkpt><trkpt lat="45.78992397516603" lon="11.557569359938492"><ele>854.0</ele><time>2026-04-01T19:26:41.999Z</time></trkpt><trkpt lat="45.78997718032325" lon="11.557687606906741"><ele>854.0000000000001</ele><time>2026-04-01T19:26:42.999Z</time></trkpt><trkpt lat="45.79001285910689" lon="11.557809479506025"><ele>854.0</ele><time>2026-04-01T19:26:43.999Z</time></trkpt><trkpt lat="45.790047342679806" lon="11.557929638374935"><ele>854.0</ele><time>2026-04-01T19:26:44.999Z</time></trkpt><trkpt lat="45.790080295490924" lon="11.558046609046563"><ele>854.0</ele><time>2026-04-01T19:26:45.999Z</time></trkpt><trkpt lat="45.79010491232654" lon="11.558138652527065"><ele>854.0000000000001</ele><time>2026-04-01T19:26:46.999Z</time></trkpt><trkpt lat="45.790185514122776" lon="11.55822673759022"><ele>854.0</ele><time>2026-04-01T19:26:48.999Z</time></trkpt><trkpt lat="45.79026367905805" lon="11.558109237216515"><ele>858.5000000000001</ele><time>2026-04-01T19:26:50.999Z</time></trkpt><trkpt lat="45.79025231098116" lon="11.558011132105197"><ele>863.0</ele><time>2026-04-01T19:26:51.999Z</time></trkpt><trkpt lat="45.79023405085501" lon="11.55790827600962"><ele>867.5</ele><time>2026-04-01T19:26:52.999Z</time></trkpt><trkpt lat="45.790213220959735" lon="11.557790426940114"><ele>872.0</ele><time>2026-04-01T19:26:53.999Z</time></trkpt><trkpt lat="45.790199248850655" lon="11.557681820984774"><ele>876.5000000000001</ele><time>2026-04-01T19:26:54.999Z</time></trkpt><trkpt lat="45.79018992822992" lon="11.5575666596972"><ele>881.0</ele><time>2026-04-01T19:26:56Z</time></trkpt><trkpt lat="45.790177260644356" lon="11.557441484458394"><ele>876.4</ele><time>2026-04-01T19:26:57Z</time></trkpt><trkpt lat="45.79016408983705" lon="11.55731084372403"><ele>871.8</ele><time>2026-04-01T19:26:58Z</time></trkpt><trkpt lat="45.79015427619741" lon="11.55716428492768"><ele>867.1999999999999</ele><time>2026-04-01T19:26:59Z</time></trkpt><trkpt lat="45.79014016336689" lon="11.557024600657094"><ele>862.5999999999999</ele><time>2026-04-01T19:27:00Z</time></trkpt><trkpt lat="45.79012747345063" lon="11.556871673097756"><ele>858.0</ele><time>2026-04-01T19:27:01Z</time></trkpt><trkpt lat="45.79011607085661" lon="11.55672039140703"><ele>858.0</ele><time>2026-04-01T19:27:02Z</time></trkpt><trkpt lat="45.79009802988449" lon="11.556558780646798"><ele>858.0</ele><time>2026-04-01T19:27:03Z</time></trkpt><trkpt lat="45.790071661970465" lon="11.556389650236573"><ele>858.0</ele><time>2026-04-01T19:27:04Z</time></trkpt><trkpt lat="45.79003921704907" lon="11.55620234426975"><ele>858.0</ele><time>2026-04-01T19:27:05Z</time></trkpt><trkpt lat="45.79002354635316" lon="11.555996098469219"><ele>860.75</ele><time>2026-04-01T19:27:06Z</time></trkpt><trkpt lat="45.789979945321676" lon="11.555790994634807"><ele>863.5</ele><time>2026-04-01T19:27:07Z</time></trkpt><trkpt lat="45.78993841868013" lon="11.555599665107254"><ele>866.25</ele><time>2026-04-01T19:27:08Z</time></trkpt><trkpt lat="45.78989422009003" lon="11.555416314087816"><ele>869.0</ele><time>2026-04-01T19:27:09Z</time></trkpt><trkpt lat="45.78985210608479" lon="11.555236484645233"><ele>871.5</ele><time>2026-04-01T19:27:10Z</time></trkpt><trkpt lat="45.78980844728508" lon="11.555050035422457"><ele>874.0</ele><time>2026-04-01T19:27:11Z</time></trkpt><trkpt lat="45.789765523987334" lon="11.554862334425634"><ele>876.5</ele><time>2026-04-01T19:27:12Z</time></trkpt><trkpt lat="45.789721544744154" lon="11.554672304799597"><ele>879.0</ele><time>2026-04-01T19:27:13Z</time></trkpt><trkpt lat="45.78968264948317" lon="11.554487502365241"><ele>879.25</ele><time>2026-04-01T19:27:14Z</time></trkpt><trkpt lat="45.789643559949106" lon="11.554313801969284"><ele>879.5</ele><time>2026-04-01T19:27:15Z</time></trkpt><trkpt lat="45.7896046869331" lon="11.5541435446198"><ele>879.75</ele><time>2026-04-01T19:27:16Z</time></trkpt><trkpt lat="45.789562902742965" lon="11.553984699940086"><ele>880.0</ele><time>2026-04-01T19:27:17Z</time></trkpt><trkpt lat="45.78952325667665" lon="11.553845777343929"><ele>880.0</ele><time>2026-04-01T19:27:18Z</time></trkpt><trkpt lat="45.78948893571942" lon="11.553719564277964"><ele>880.0</ele><time>2026-04-01T19:27:19Z</time></trkpt><trkpt lat="45.78945884490532" lon="11.55362280194451"><ele>880.0</ele><time>2026-04-01T19:27:20Z</time></trkpt><trkpt lat="45.78947244554339" lon="11.553484908531058"><ele>880.0</ele><time>2026-04-01T19:27:22Z</time></trkpt><trkpt lat="45.789549378181796" lon="11.553444838146575"><ele>880.0</ele><time>2026-04-01T19:27:24Z</time></trkpt><trkpt lat="45.78963585261512" lon="11.553555298078152"><ele>880.3333333333333</ele><time>2026-04-01T19:27:26Z</time></trkpt><trkpt lat="45.78969016701611" lon="11.553605351133964"><ele>880.6666666666666</ele><time>2026-04-01T19:27:27Z</time></trkpt><trkpt lat="45.78974573538439" lon="11.553661674062104"><ele>881.0</ele><time>2026-04-01T19:27:28Z</time></trkpt><trkpt lat="45.78981250782173" lon="11.553686915822428"><ele>881.3333333333333</ele><time>2026-04-01T19:27:29Z</time></trkpt><trkpt lat="45.78989520303536" lon="11.553676476007483"><ele>881.6666666666666</ele><time>2026-04-01T19:27:30Z</time></trkpt><trkpt lat="45.78997999474288" lon="11.5536197753686"><ele>882.0</ele><time>2026-04-01T19:27:31Z</time></trkpt><trkpt lat="45.790043785672694" lon="11.553534779677909"><ele>882.0</ele><time>2026-04-01T19:27:32Z</time></trkpt><trkpt lat="45.79010255896984" lon="11.55343841973107"><ele>882.0</ele><time>2026-04-01T19:27:33Z</time></trkpt><trkpt lat="45.79016042774572" lon="11.553328471575313"><ele>882.0</ele><time>2026-04-01T19:27:34Z</time></trkpt><trkpt lat="45.7902332254205" lon="11.553230496045412"><ele>882.0</ele><time>2026-04-01T19:27:35Z</time></trkpt><trkpt lat="45.79032113809213" lon="11.55314907946212"><ele>882.0</ele><time>2026-04-01T19:27:36Z</time></trkpt><trkpt lat="45.79042656513339" lon="11.55308338926594"><ele>880.5</ele><time>2026-04-01T19:27:37Z</time></trkpt><trkpt lat="45.790536107872356" lon="11.55300873313842"><ele>879.0</ele><time>2026-04-01T19:27:38Z</time></trkpt><trkpt lat="45.790653232391016" lon="11.552931405590389"><ele>877.5</ele><time>2026-04-01T19:27:39Z</time></trkpt><trkpt lat="45.79076149823651" lon="11.552853265672393"><ele>876.0</ele><time>2026-04-01T19:27:40Z</time></trkpt><trkpt lat="45.790873631758394" lon="11.552776934251638"><ele>880.0</ele><time>2026-04-01T19:27:41Z</time></trkpt><trkpt lat="45.79098078397931" lon="11.552706456453391"><ele>884.0</ele><time>2026-04-01T19:27:42Z</time></trkpt><trkpt lat="45.791094864732" lon="11.552628495536736"><ele>888.0</ele><time>2026-04-01T19:27:43Z</time></trkpt><trkpt lat="45.79120852842148" lon="11.552550432395106"><ele>892.0</ele><time>2026-04-01T19:27:44Z</time></trkpt><trkpt lat="45.791318896379515" lon="11.55248051995978"><ele>892.0</ele><time>2026-04-01T19:27:45Z</time></trkpt><trkpt lat="45.791436081210705" lon="11.552432664228434"><ele>892.0</ele><time>2026-04-01T19:27:46Z</time></trkpt><trkpt lat="45.79155946205577" lon="11.55244218891562"><ele>892.0</ele><time>2026-04-01T19:27:47Z</time></trkpt><trkpt lat="45.79167418416526" lon="11.55247159712902"><ele>892.0</ele><time>2026-04-01T19:27:48Z</time></trkpt><trkpt lat="45.79178431085097" lon="11.552525711383954"><ele>895.0</ele><time>2026-04-01T19:27:49Z</time></trkpt><trkpt lat="45.791893339676115" lon="11.552606022771315"><ele>898.0</ele><time>2026-04-01T19:27:50Z</time></trkpt><trkpt lat="45.79199959757582" lon="11.552679766978653"><ele>901.0</ele><time>2026-04-01T19:27:51Z</time></trkpt><trkpt lat="45.79208897315199" lon="11.552769465534498"><ele>904.0</ele><time>2026-04-01T19:27:52Z</time></trkpt><trkpt lat="45.79218273941786" lon="11.552843798771578"><ele>900.3333333333333</ele><time>2026-04-01T19:27:53Z</time></trkpt><trkpt lat="45.79227700931295" lon="11.552905161678627"><ele>896.6666666666666</ele><time>2026-04-01T19:27:54Z</time></trkpt><trkpt lat="45.792365125654605" lon="11.552949857578804"><ele>893.0</ele><time>2026-04-01T19:27:55Z</time></trkpt><trkpt lat="45.79242919052165" lon="11.552968558582588"><ele>889.3333333333333</ele><time>2026-04-01T19:27:56Z</time></trkpt><trkpt lat="45.792495723632335" lon="11.55297672688541"><ele>885.6666666666666</ele><time>2026-04-01T19:27:57Z</time></trkpt><trkpt lat="45.792565093632675" lon="11.552978578946075"><ele>882.0</ele><time>2026-04-01T19:27:57.999Z</time></trkpt><trkpt lat="45.79263870026718" lon="11.552972400713527"><ele>882.8333333333334</ele><time>2026-04-01T19:27:58.999Z</time></trkpt><trkpt lat="45.792704222700166" lon="11.552976463986317"><ele>883.6666666666667</ele><time>2026-04-01T19:27:59.999Z</time></trkpt><trkpt lat="45.792787054204986" lon="11.552963189263677"><ele>884.5</ele><time>2026-04-01T19:28:00.999Z</time></trkpt><trkpt lat="45.79285621516072" lon="11.55292325084895"><ele>885.3333333333334</ele><time>2026-04-01T19:28:01.999Z</time></trkpt><trkpt lat="45.79293626417051" lon="11.55287106394577"><ele>886.1666666666667</ele><time>2026-04-01T19:28:02.999Z</time></trkpt><trkpt lat="45.7930139831807" lon="11.552801358434715"><ele>887.0</ele><time>2026-04-01T19:28:03.999Z</time></trkpt><trkpt lat="45.79308756863711" lon="11.552734623305435"><ele>890.2</ele><time>2026-04-01T19:28:04.999Z</time></trkpt><trkpt lat="45.793183102532566" lon="11.552678109723642"><ele>893.4000000000001</ele><time>2026-04-01T19:28:05.999Z</time></trkpt><trkpt lat="45.79328977723817" lon="11.552632227343892"><ele>896.5999999999999</ele><time>2026-04-01T19:28:06.999Z</time></trkpt><trkpt lat="45.79339829825337" lon="11.55264182498879"><ele>899.8</ele><time>2026-04-01T19:28:07.999Z</time></trkpt><trkpt lat="45.793509222121465" lon="11.55266787686042"><ele>903.0</ele><time>2026-04-01T19:28:08.999Z</time></trkpt><trkpt lat="45.793624429266764" lon="11.552725409915992"><ele>901.75</ele><time>2026-04-01T19:28:09.999Z</time></trkpt><trkpt lat="45.793747300780474" lon="11.552812181495026"><ele>900.5</ele><time>2026-04-01T19:28:10.999Z</time></trkpt><trkpt lat="45.79385834134316" lon="11.552893288252621"><ele>899.25</ele><time>2026-04-01T19:28:11.999Z</time></trkpt><trkpt lat="45.79397205392358" lon="11.552953721535447"><ele>898.0</ele><time>2026-04-01T19:28:12.999Z</time></trkpt><trkpt lat="45.79408722989277" lon="11.553022360832742"><ele>898.0</ele><time>2026-04-01T19:28:13.999Z</time></trkpt><trkpt lat="45.7942125813414" lon="11.553093441776081"><ele>898.0</ele><time>2026-04-01T19:28:14.999Z</time></trkpt><trkpt lat="45.79433336329043" lon="11.553162808818978"><ele>898.0</ele><time>2026-04-01T19:28:15.999Z</time></trkpt><trkpt lat="45.79445014966383" lon="11.553231281860157"><ele>898.0</ele><time>2026-04-01T19:28:16.999Z</time></trkpt><trkpt lat="45.79456030298287" lon="11.553300562887896"><ele>901.75</ele><time>2026-04-01T19:28:17.999Z</time></trkpt><trkpt lat="45.79466684998493" lon="11.553376769722323"><ele>905.5</ele><time>2026-04-01T19:28:18.999Z</time></trkpt><trkpt lat="45.79476013584039" lon="11.553479929230276"><ele>909.25</ele><time>2026-04-01T19:28:19.999Z</time></trkpt><trkpt lat="45.794826996785815" lon="11.553618142613375"><ele>913.0</ele><time>2026-04-01T19:28:20.999Z</time></trkpt><trkpt lat="45.79489184794781" lon="11.55375527408827"><ele>913.0</ele><time>2026-04-01T19:28:21.999Z</time></trkpt><trkpt lat="45.794949940189056" lon="11.55390024430674"><ele>913.0</ele><time>2026-04-01T19:28:22.999Z</time></trkpt><trkpt lat="45.79500688125348" lon="11.554048642565563"><ele>913.0</ele><time>2026-04-01T19:28:23.999Z</time></trkpt><trkpt lat="45.795070590490276" lon="11.554188647034765"><ele>913.0</ele><time>2026-04-01T19:28:24.999Z</time></trkpt><trkpt lat="45.79513946228343" lon="11.554334553261784"><ele>915.0</ele><time>2026-04-01T19:28:25.999Z</time></trkpt><trkpt lat="45.79519784228695" lon="11.554480785448533"><ele>917.0</ele><time>2026-04-01T19:28:26.999Z</time></trkpt><trkpt lat="45.7952547312006" lon="11.554618869508111"><ele>919.0</ele><time>2026-04-01T19:28:27.999Z</time></trkpt><trkpt lat="45.79531213619486" lon="11.554737568106374"><ele>921.0</ele><time>2026-04-01T19:28:28.999Z</time></trkpt><trkpt lat="45.795368902858264" lon="11.554850954103339"><ele>923.0</ele><time>2026-04-01T19:28:29.999Z</time></trkpt><trkpt lat="45.79547017883712" lon="11.554907554698797"><ele>923.0</ele><time>2026-04-01T19:28:30.999Z</time></trkpt><trkpt lat="45.79557049796996" lon="11.554952431534192"><ele>923.0</ele><time>2026-04-01T19:28:31.999Z</time></trkpt><trkpt lat="45.79567590007418" lon="11.5549621777824"><ele>923.0</ele><time>2026-04-01T19:28:32.999Z</time></trkpt><trkpt lat="45.79577012852615" lon="11.554983152595582"><ele>923.0</ele><time>2026-04-01T19:28:33.999Z</time></trkpt><trkpt lat="45.795862668124364" lon="11.555031455057136"><ele>923.0</ele><time>2026-04-01T19:28:34.999Z</time></trkpt><trkpt lat="45.79594746807128" lon="11.555124545893639"><ele>926.8</ele><time>2026-04-01T19:28:35.999Z</time></trkpt><trkpt lat="45.79601030029937" lon="11.55525265618704"><ele>930.5999999999999</ele><time>2026-04-01T19:28:36.999Z</time></trkpt><trkpt lat="45.796047377323255" lon="11.555394794705485"><ele>934.4000000000001</ele><time>2026-04-01T19:28:37.999Z</time></trkpt><trkpt lat="45.79608834111442" lon="11.555543964741238"><ele>938.2</ele><time>2026-04-01T19:28:38.999Z</time></trkpt><trkpt lat="45.7961371281604" lon="11.555700683885801"><ele>942.0</ele><time>2026-04-01T19:28:39.999Z</time></trkpt><trkpt lat="45.796191757608064" lon="11.555849698115736"><ele>942.0</ele><time>2026-04-01T19:28:40.999Z</time></trkpt><trkpt lat="45.79626082020461" lon="11.555997224337844"><ele>942.0</ele><time>2026-04-01T19:28:41.999Z</time></trkpt><trkpt lat="45.79633597596768" lon="11.556138285379388"><ele>942.0</ele><time>2026-04-01T19:28:42.999Z</time></trkpt><trkpt lat="45.79641144532899" lon="11.556274712894218"><ele>942.0</ele><time>2026-04-01T19:28:43.999Z</time></trkpt><trkpt lat="45.796486309250874" lon="11.556395878039924"><ele>938.2</ele><time>2026-04-01T19:28:44.999Z</time></trkpt><trkpt lat="45.7965446946871" lon="11.55652207981207"><ele>934.4000000000001</ele><time>2026-04-01T19:28:45.999Z</time></trkpt><trkpt lat="45.796621935910046" lon="11.55663169337179"><ele>930.5999999999999</ele><time>2026-04-01T19:28:46.999Z</time></trkpt><trkpt lat="45.79669145656492" lon="11.556757863553583"><ele>926.8</ele><time>2026-04-01T19:28:47.999Z</time></trkpt><trkpt lat="45.79674336930743" lon="11.556899060316763"><ele>923.0</ele><time>2026-04-01T19:28:48.999Z</time></trkpt><trkpt lat="45.796778337965954" lon="11.557052554983938"><ele>924.2</ele><time>2026-04-01T19:28:49.999Z</time></trkpt><trkpt lat="45.79681333747689" lon="11.557205864419933"><ele>925.4</ele><time>2026-04-01T19:28:50.999Z</time></trkpt><trkpt lat="45.79685710223107" lon="11.557349734423807"><ele>926.6000000000001</ele><time>2026-04-01T19:28:51.999Z</time></trkpt><trkpt lat="45.79692865266159" lon="11.557466007384065"><ele>927.8000000000001</ele><time>2026-04-01T19:28:52.999Z</time></trkpt><trkpt lat="45.79702769549039" lon="11.557539805012622"><ele>929.0</ele><time>2026-04-01T19:28:53.999Z</time></trkpt><trkpt lat="45.797142147497176" lon="11.55758989396727"><ele>929.0</ele><time>2026-04-01T19:28:54.999Z</time></trkpt><trkpt lat="45.79725450543915" lon="11.557636275849374"><ele>929.0</ele><time>2026-04-01T19:28:55.999Z</time></trkpt><trkpt lat="45.79737145501929" lon="11.557683747496622"><ele>929.0</ele><time>2026-04-01T19:28:56.999Z</time></trkpt><trkpt lat="45.79748568686889" lon="11.557730622399651"><ele>929.0</ele><time>2026-04-01T19:28:57.999Z</time></trkpt><trkpt lat="45.79759774339595" lon="11.557788831772518"><ele>931.0</ele><time>2026-04-01T19:28:58.999Z</time></trkpt><trkpt lat="45.79771078059839" lon="11.557840765795927"><ele>933.0</ele><time>2026-04-01T19:28:59.999Z</time></trkpt><trkpt lat="45.797829745653544" lon="11.55788939504518"><ele>935.0</ele><time>2026-04-01T19:29:00.999Z</time></trkpt><trkpt lat="45.79793693305917" lon="11.557939068787569"><ele>937.0</ele><time>2026-04-01T19:29:02Z</time></trkpt><trkpt lat="45.79804911090968" lon="11.557994112090494"><ele>937.0</ele><time>2026-04-01T19:29:03Z</time></trkpt><trkpt lat="45.79816025802407" lon="11.558048492002317"><ele>937.0</ele><time>2026-04-01T19:29:04Z</time></trkpt><trkpt lat="45.79827261446683" lon="11.558103562899635"><ele>937.0</ele><time>2026-04-01T19:29:05Z</time></trkpt><trkpt lat="45.798377974557404" lon="11.558157530680875"><ele>937.0</ele><time>2026-04-01T19:29:06Z</time></trkpt><trkpt lat="45.798471412604414" lon="11.558244976608853"><ele>935.25</ele><time>2026-04-01T19:29:07Z</time></trkpt><trkpt lat="45.79852418075288" lon="11.558399315654023"><ele>933.5</ele><time>2026-04-01T19:29:08Z</time></trkpt><trkpt lat="45.79855201662704" lon="11.558566282899644"><ele>931.75</ele><time>2026-04-01T19:29:09Z</time></trkpt><trkpt lat="45.79853531925653" lon="11.558728516377608"><ele>930.0</ele><time>2026-04-01T19:29:10Z</time></trkpt><trkpt lat="45.79848721998047" lon="11.558875292160307"><ele>930.0</ele><time>2026-04-01T19:29:11Z</time></trkpt><trkpt lat="45.79843809648218" lon="11.559021298894049"><ele>930.0</ele><time>2026-04-01T19:29:12Z</time></trkpt><trkpt lat="45.79842924388592" lon="11.559181764953527"><ele>930.0</ele><time>2026-04-01T19:29:13Z</time></trkpt><trkpt lat="45.798460569465455" lon="11.559340215893481"><ele>930.0</ele><time>2026-04-01T19:29:14Z</time></trkpt><trkpt lat="45.798540788061764" lon="11.559461604823367"><ele>929.25</ele><time>2026-04-01T19:29:15Z</time></trkpt><trkpt lat="45.79864149839837" lon="11.559552715499684"><ele>928.5</ele><time>2026-04-01T19:29:16Z</time></trkpt><trkpt lat="45.798763525197444" lon="11.559595655668325"><ele>927.75</ele><time>2026-04-01T19:29:17Z</time></trkpt><trkpt lat="45.798885001845015" lon="11.559587133643088"><ele>927.0</ele><time>2026-04-01T19:29:18Z</time></trkpt><trkpt lat="45.79899804843103" lon="11.559544896157098"><ele>930.75</ele><time>2026-04-01T19:29:19Z</time></trkpt><trkpt lat="45.79911064373791" lon="11.559494746865637"><ele>934.5</ele><time>2026-04-01T19:29:20Z</time></trkpt><trkpt lat="45.79921920173872" lon="11.559424776179034"><ele>938.25</ele><time>2026-04-01T19:29:21Z</time></trkpt><trkpt lat="45.79932086123629" lon="11.559340866071462"><ele>942.0</ele><time>2026-04-01T19:29:22Z</time></trkpt><trkpt lat="45.799428453920164" lon="11.55923835774559"><ele>942.0</ele><time>2026-04-01T19:29:23Z</time></trkpt><trkpt lat="45.79953754876187" lon="11.559139680111564"><ele>942.0</ele><time>2026-04-01T19:29:24Z</time></trkpt><trkpt lat="45.79964448003136" lon="11.5590432931484"><ele>942.0</ele><time>2026-04-01T19:29:25Z</time></trkpt><trkpt lat="45.79974630165819" lon="11.558952048590426"><ele>942.0</ele><time>2026-04-01T19:29:26Z</time></trkpt><trkpt lat="45.79984995344342" lon="11.558858506472276"><ele>942.0</ele><time>2026-04-01T19:29:27Z</time></trkpt><trkpt lat="45.79995774714277" lon="11.558784471415612"><ele>942.0</ele><time>2026-04-01T19:29:28Z</time></trkpt><trkpt lat="45.80005247787746" lon="11.558706806968695"><ele>942.0</ele><time>2026-04-01T19:29:29Z</time></trkpt><trkpt lat="45.80015401019489" lon="11.558663607036827"><ele>942.0</ele><time>2026-04-01T19:29:30Z</time></trkpt><trkpt lat="45.800263592053795" lon="11.558658366403575"><ele>942.0</ele><time>2026-04-01T19:29:31Z</time></trkpt><trkpt lat="45.80036666610866" lon="11.558700013244474"><ele>946.6</ele><time>2026-04-01T19:29:32Z</time></trkpt><trkpt lat="45.80046078032023" lon="11.55878286378949"><ele>951.2</ele><time>2026-04-01T19:29:33Z</time></trkpt><trkpt lat="45.80053813149029" lon="11.558902232584309"><ele>955.8</ele><time>2026-04-01T19:29:34Z</time></trkpt><trkpt lat="45.800590094476426" lon="11.559037918923273"><ele>960.4</ele><time>2026-04-01T19:29:35Z</time></trkpt><trkpt lat="45.80061491050155" lon="11.559190511614835"><ele>965.0</ele><time>2026-04-01T19:29:36Z</time></trkpt><trkpt lat="45.800634383157266" lon="11.559340501115557"><ele>965.0</ele><time>2026-04-01T19:29:37Z</time></trkpt><trkpt lat="45.80064047304165" lon="11.559479751844997"><ele>965.0</ele><time>2026-04-01T19:29:38Z</time></trkpt><trkpt lat="45.800646085654044" lon="11.55961561725453"><ele>965.0</ele><time>2026-04-01T19:29:39Z</time></trkpt><trkpt lat="45.8006512170095" lon="11.559763620718524"><ele>965.0</ele><time>2026-04-01T19:29:40Z</time></trkpt><trkpt lat="45.80065326051825" lon="11.559911323361655"><ele>965.0</ele><time>2026-04-01T19:29:41Z</time></trkpt><trkpt lat="45.80064896129732" lon="11.56006963576175"><ele>964.4</ele><time>2026-04-01T19:29:42Z</time></trkpt><trkpt lat="45.80064445617475" lon="11.560241648899714"><ele>963.8</ele><time>2026-04-01T19:29:43Z</time></trkpt><trkpt lat="45.80064027136944" lon="11.56040811355762"><ele>963.2</ele><time>2026-04-01T19:29:44Z</time></trkpt><trkpt lat="45.80062914354479" lon="11.560558569629585"><ele>962.6</ele><time>2026-04-01T19:29:45Z</time></trkpt><trkpt lat="45.80062162743538" lon="11.560708304491179"><ele>962.0</ele><time>2026-04-01T19:29:46Z</time></trkpt><trkpt lat="45.80061553125363" lon="11.560870714874651"><ele>962.0</ele><time>2026-04-01T19:29:47Z</time></trkpt><trkpt lat="45.8005901483745" lon="11.561032698379373"><ele>962.0</ele><time>2026-04-01T19:29:48Z</time></trkpt><trkpt lat="45.80055262320371" lon="11.561192044583327"><ele>962.0</ele><time>2026-04-01T19:29:49Z</time></trkpt><trkpt lat="45.800508879989785" lon="11.561354053551423"><ele>962.0</ele><time>2026-04-01T19:29:50Z</time></trkpt><trkpt lat="45.80046080106489" lon="11.561509762364425"><ele>963.0</ele><time>2026-04-01T19:29:51Z</time></trkpt><trkpt lat="45.80041762313226" lon="11.561657510930143"><ele>964.0</ele><time>2026-04-01T19:29:52Z</time></trkpt><trkpt lat="45.800390869512334" lon="11.56179432029272"><ele>965.0</ele><time>2026-04-01T19:29:53Z</time></trkpt><trkpt lat="45.80036170408761" lon="11.561928289823497"><ele>966.0</ele><time>2026-04-01T19:29:54Z</time></trkpt><trkpt lat="45.800386347228695" lon="11.56206977212205"><ele>967.0</ele><time>2026-04-01T19:29:55Z</time></trkpt><trkpt lat="45.80044266419155" lon="11.562189445734248"><ele>967.0</ele><time>2026-04-01T19:29:56Z</time></trkpt><trkpt lat="45.80049678933125" lon="11.562315307679867"><ele>967.0</ele><time>2026-04-01T19:29:57Z</time></trkpt><trkpt lat="45.80055278066198" lon="11.5624464817305"><ele>967.0</ele><time>2026-04-01T19:29:58Z</time></trkpt><trkpt lat="45.80060597530303" lon="11.562587196331599"><ele>967.0</ele><time>2026-04-01T19:29:59Z</time></trkpt><trkpt lat="45.80065790790589" lon="11.562732987508427"><ele>967.0</ele><time>2026-04-01T19:30:00Z</time></trkpt><trkpt lat="45.80070928921016" lon="11.56287352076077"><ele>965.8</ele><time>2026-04-01T19:30:01Z</time></trkpt><trkpt lat="45.80076284083426" lon="11.563014093479083"><ele>964.6</ele><time>2026-04-01T19:30:02Z</time></trkpt><trkpt lat="45.800813395546065" lon="11.563139766443467"><ele>963.3999999999999</ele><time>2026-04-01T19:30:03Z</time></trkpt><trkpt lat="45.800855614613646" lon="11.563255260618288"><ele>962.1999999999999</ele><time>2026-04-01T19:30:04Z</time></trkpt><trkpt lat="45.800909649570386" lon="11.563359486171416"><ele>961.0</ele><time>2026-04-01T19:30:05Z</time></trkpt><trkpt lat="45.800982213601614" lon="11.563447154398263"><ele>964.4</ele><time>2026-04-01T19:30:06Z</time></trkpt><trkpt lat="45.80108296762154" lon="11.563517590146864"><ele>967.8</ele><time>2026-04-01T19:30:07Z</time></trkpt><trkpt lat="45.80118630250498" lon="11.56353876803002"><ele>971.1999999999999</ele><time>2026-04-01T19:30:08Z</time></trkpt><trkpt lat="45.80128841149585" lon="11.563556381709246"><ele>974.5999999999999</ele><time>2026-04-01T19:30:09Z</time></trkpt><trkpt lat="45.80139174496832" lon="11.56356274173872"><ele>978.0</ele><time>2026-04-01T19:30:10Z</time></trkpt><trkpt lat="45.80149150228629" lon="11.563549489720419"><ele>978.0</ele><time>2026-04-01T19:30:11Z</time></trkpt><trkpt lat="45.80158685296819" lon="11.56353696294603"><ele>978.0</ele><time>2026-04-01T19:30:12Z</time></trkpt><trkpt lat="45.801682228841216" lon="11.563519835303136"><ele>978.0</ele><time>2026-04-01T19:30:13Z</time></trkpt><trkpt lat="45.80178028567845" lon="11.563538282835419"><ele>978.0</ele><time>2026-04-01T19:30:14Z</time></trkpt><trkpt lat="45.801867565144086" lon="11.563593693860215"><ele>978.0</ele><time>2026-04-01T19:30:14.999Z</time></trkpt><trkpt lat="45.801932710554176" lon="11.56369969679999"><ele>980.4</ele><time>2026-04-01T19:30:15.999Z</time></trkpt><trkpt lat="45.80196960833161" lon="11.563830020763717"><ele>982.8</ele><time>2026-04-01T19:30:16.999Z</time></trkpt><trkpt lat="45.80198038247416" lon="11.563975703627195"><ele>985.2</ele><time>2026-04-01T19:30:17.999Z</time></trkpt><trkpt lat="45.80198961888924" lon="11.564123700551722"><ele>987.6</ele><time>2026-04-01T19:30:18.999Z</time></trkpt><trkpt lat="45.80200093410539" lon="11.56427479179473"><ele>990.0</ele><time>2026-04-01T19:30:19.999Z</time></trkpt><trkpt lat="45.80202203521683" lon="11.564417751484266"><ele>988.4</ele><time>2026-04-01T19:30:20.999Z</time></trkpt><trkpt lat="45.80204765655512" lon="11.564561178188654"><ele>986.8</ele><time>2026-04-01T19:30:21.999Z</time></trkpt><trkpt lat="45.802108567451555" lon="11.564692490570229"><ele>985.2</ele><time>2026-04-01T19:30:22.999Z</time></trkpt><trkpt lat="45.802189864435775" lon="11.564798948335538"><ele>983.6</ele><time>2026-04-01T19:30:23.999Z</time></trkpt><trkpt lat="45.8022742109161" lon="11.564905386723355"><ele>982.0</ele><time>2026-04-01T19:30:24.999Z</time></trkpt><trkpt lat="45.80236018217477" lon="11.565017812293076"><ele>982.0</ele><time>2026-04-01T19:30:25.999Z</time></trkpt><trkpt lat="45.80244010069539" lon="11.565118958746808"><ele>982.0</ele><time>2026-04-01T19:30:26.999Z</time></trkpt><trkpt lat="45.8025327712771" lon="11.565203906021354"><ele>982.0</ele><time>2026-04-01T19:30:27.999Z</time></trkpt><trkpt lat="45.80263273771876" lon="11.565258760852384"><ele>982.0</ele><time>2026-04-01T19:30:28.999Z</time></trkpt><trkpt lat="45.80273890203122" lon="11.565276676327647"><ele>982.0</ele><time>2026-04-01T19:30:29.999Z</time></trkpt><trkpt lat="45.80284032534587" lon="11.565265741145442"><ele>983.8</ele><time>2026-04-01T19:30:30.999Z</time></trkpt><trkpt lat="45.802942633148064" lon="11.56523370025447"><ele>985.6</ele><time>2026-04-01T19:30:31.999Z</time></trkpt><trkpt lat="45.80304450114391" lon="11.565205310733543"><ele>987.3999999999999</ele><time>2026-04-01T19:30:32.999Z</time></trkpt><trkpt lat="45.80315088351778" lon="11.56518699277075"><ele>989.1999999999999</ele><time>2026-04-01T19:30:33.999Z</time></trkpt><trkpt lat="45.803257369234025" lon="11.565176923598086"><ele>991.0</ele><time>2026-04-01T19:30:34.999Z</time></trkpt><trkpt lat="45.8033629310232" lon="11.565192118120878"><ele>991.0</ele><time>2026-04-01T19:30:35.999Z</time></trkpt><trkpt lat="45.80347297644207" lon="11.565228694287748"><ele>990.9999999999999</ele><time>2026-04-01T19:30:36.999Z</time></trkpt><trkpt lat="45.80357144701459" lon="11.565294017653892"><ele>990.9999999999999</ele><time>2026-04-01T19:30:37.999Z</time></trkpt><trkpt lat="45.8036623186932" lon="11.565375535110789"><ele>991.0</ele><time>2026-04-01T19:30:38.999Z</time></trkpt><trkpt lat="45.803740165361454" lon="11.56545636651228"><ele>991.0</ele><time>2026-04-01T19:30:39.999Z</time></trkpt><trkpt lat="45.8038137754304" lon="11.565528537967952"><ele>991.75</ele><time>2026-04-01T19:30:40.999Z</time></trkpt><trkpt lat="45.80387837876406" lon="11.565594547983821"><ele>992.5</ele><time>2026-04-01T19:30:41.999Z</time></trkpt><trkpt lat="45.803967470967955" lon="11.565672562606055"><ele>993.25</ele><time>2026-04-01T19:30:43.999Z</time></trkpt><trkpt lat="45.8040753861016" lon="11.565522178010779"><ele>994.0</ele><time>2026-04-01T19:30:45.999Z</time></trkpt><trkpt lat="45.80411034476672" lon="11.56534178332335"><ele>994.8333333333333</ele><time>2026-04-01T19:30:47.999Z</time></trkpt><trkpt lat="45.804120182002144" lon="11.565229800585188"><ele>995.6666666666666</ele><time>2026-04-01T19:30:48.999Z</time></trkpt><trkpt lat="45.80411779401708" lon="11.565127916273067"><ele>996.5</ele><time>2026-04-01T19:30:49.999Z</time></trkpt><trkpt lat="45.804118408792775" lon="11.565009849059026"><ele>997.3333333333333</ele><time>2026-04-01T19:30:50.999Z</time></trkpt><trkpt lat="45.8040970453306" lon="11.564886667379401"><ele>998.1666666666666</ele><time>2026-04-01T19:30:51.999Z</time></trkpt><trkpt lat="45.80407344699294" lon="11.564761682687374"><ele>999.0</ele><time>2026-04-01T19:30:52.999Z</time></trkpt><trkpt lat="45.80405024299684" lon="11.56464954015011"><ele>999.0</ele><time>2026-04-01T19:30:53.999Z</time></trkpt><trkpt lat="45.80401073764371" lon="11.564549556141507"><ele>999.0</ele><time>2026-04-01T19:30:54.999Z</time></trkpt><trkpt lat="45.80398448897362" lon="11.564446815463462"><ele>999.0</ele><time>2026-04-01T19:30:55.999Z</time></trkpt><trkpt lat="45.80395868812646" lon="11.56434079397835"><ele>999.0</ele><time>2026-04-01T19:30:56.999Z</time></trkpt><trkpt lat="45.80387144438377" lon="11.564259745740104"><ele>999.0</ele><time>2026-04-01T19:30:57.999Z</time></trkpt><trkpt lat="45.803765255968415" lon="11.564252086943755"><ele>999.0</ele><time>2026-04-01T19:30:58.999Z</time></trkpt><trkpt lat="45.803673993954085" lon="11.564296573956591"><ele>999.0</ele><time>2026-04-01T19:30:59.999Z</time></trkpt><trkpt lat="45.803589768125555" lon="11.564328564255527"><ele>999.0000000000001</ele><time>2026-04-01T19:31:00.999Z</time></trkpt><trkpt lat="45.803496360210936" lon="11.564373438902647"><ele>999.0000000000001</ele><time>2026-04-01T19:31:01.999Z</time></trkpt><trkpt lat="45.80340631140752" lon="11.56441944055025"><ele>999.0</ele><time>2026-04-01T19:31:02.999Z</time></trkpt><trkpt lat="45.80332825339856" lon="11.564472368388603"><ele>999.0</ele><time>2026-04-01T19:31:03.999Z</time></trkpt><trkpt lat="45.803248312867254" lon="11.564508814425729"><ele>999.0</ele><time>2026-04-01T19:31:04.999Z</time></trkpt><trkpt lat="45.80315829942335" lon="11.564510771810665"><ele>999.0</ele><time>2026-04-01T19:31:05.999Z</time></trkpt><trkpt lat="45.80307914684382" lon="11.564470473165887"><ele>999.0</ele><time>2026-04-01T19:31:06.999Z</time></trkpt><trkpt lat="45.80305571588339" lon="11.564367284967325"><ele>999.0</ele><time>2026-04-01T19:31:08Z</time></trkpt><trkpt lat="45.80305245141102" lon="11.564268894073136"><ele>999.0</ele><time>2026-04-01T19:31:09Z</time></trkpt><trkpt lat="45.803047805555074" lon="11.56416229995233"><ele>999.0</ele><time>2026-04-01T19:31:10Z</time></trkpt><trkpt lat="45.80305495595579" lon="11.564056807945333"><ele>999.0</ele><time>2026-04-01T19:31:11Z</time></trkpt><trkpt lat="45.803077369433446" lon="11.563961064437141"><ele>999.0</ele><time>2026-04-01T19:31:12Z</time></trkpt><trkpt lat="45.80311429147451" lon="11.563869597916641"><ele>999.0</ele><time>2026-04-01T19:31:13Z</time></trkpt><trkpt lat="45.80316691471694" lon="11.563762725224215"><ele>999.0</ele><time>2026-04-01T19:31:14Z</time></trkpt><trkpt lat="45.803214470167504" lon="11.563679475258139"><ele>999.0</ele><time>2026-04-01T19:31:15Z</time></trkpt><trkpt lat="45.803271221066446" lon="11.563578541438558"><ele>999.0</ele><time>2026-04-01T19:31:16Z</time></trkpt><trkpt lat="45.803322862994975" lon="11.563472891604677"><ele>999.4000000000001</ele><time>2026-04-01T19:31:17Z</time></trkpt><trkpt lat="45.80337113337465" lon="11.563362700718686"><ele>999.8000000000001</ele><time>2026-04-01T19:31:18Z</time></trkpt><trkpt lat="45.8034157128931" lon="11.563226392802726"><ele>1000.1999999999999</ele><time>2026-04-01T19:31:19Z</time></trkpt><trkpt lat="45.80344712548156" lon="11.56308274964967"><ele>1000.5999999999999</ele><time>2026-04-01T19:31:20Z</time></trkpt><trkpt lat="45.803465212378484" lon="11.562947850520324"><ele>1001.0</ele><time>2026-04-01T19:31:21Z</time></trkpt><trkpt lat="45.80347371649292" lon="11.562796189718439"><ele>1002.0</ele><time>2026-04-01T19:31:22Z</time></trkpt><trkpt lat="45.80346145422476" lon="11.562642285708417"><ele>1002.9999999999999</ele><time>2026-04-01T19:31:23Z</time></trkpt><trkpt lat="45.80342391151174" lon="11.562530617507871"><ele>1003.9999999999999</ele><time>2026-04-01T19:31:24Z</time></trkpt><trkpt lat="45.80335406238716" lon="11.562423087337814"><ele>1005.0</ele><time>2026-04-01T19:31:25Z</time></trkpt><trkpt lat="45.803268299182754" lon="11.562330065091034"><ele>1006.0</ele><time>2026-04-01T19:31:26Z</time></trkpt><trkpt lat="45.8031975762809" lon="11.562251804943331"><ele>1006.0</ele><time>2026-04-01T19:31:27Z</time></trkpt><trkpt lat="45.80311129843151" lon="11.56211473941992"><ele>1006.0</ele><time>2026-04-01T19:31:28Z</time></trkpt><trkpt lat="45.80306903367931" lon="11.561999099310473"><ele>1006.0</ele><time>2026-04-01T19:31:29Z</time></trkpt><trkpt lat="45.803025695308555" lon="11.561873287040864"><ele>1006.0</ele><time>2026-04-01T19:31:30Z</time></trkpt><trkpt lat="45.802952966517026" lon="11.561701531131597"><ele>1005.0</ele><time>2026-04-01T19:31:31Z</time></trkpt><trkpt lat="45.80289885858643" lon="11.561562323696451"><ele>1003.9999999999999</ele><time>2026-04-01T19:31:32Z</time></trkpt><trkpt lat="45.8028276363749" lon="11.561465897546347"><ele>1002.9999999999999</ele><time>2026-04-01T19:31:33Z</time></trkpt><trkpt lat="45.80272961032887" lon="11.56137863661937"><ele>1002.0</ele><time>2026-04-01T19:31:34Z</time></trkpt><trkpt lat="45.80266444429965" lon="11.561259338997674"><ele>1001.0</ele><time>2026-04-01T19:31:35Z</time></trkpt><trkpt lat="45.802619768480184" lon="11.561126097123415"><ele>1003.0</ele><time>2026-04-01T19:31:36Z</time></trkpt><trkpt lat="45.802592265863815" lon="11.560984913341034"><ele>1004.9999999999999</ele><time>2026-04-01T19:31:37Z</time></trkpt><trkpt lat="45.8025764505811" lon="11.56083992189078"><ele>1006.9999999999999</ele><time>2026-04-01T19:31:38Z</time></trkpt><trkpt lat="45.80253386296329" lon="11.560695986121333"><ele>1009.0</ele><time>2026-04-01T19:31:39Z</time></trkpt><trkpt lat="45.80249828953705" lon="11.560550065570434"><ele>1011.0</ele><time>2026-04-01T19:31:40Z</time></trkpt><trkpt lat="45.80241577968989" lon="11.56044312717758"><ele>1013.1999999999999</ele><time>2026-04-01T19:31:41Z</time></trkpt><trkpt lat="45.80233964672138" lon="11.56033332139462"><ele>1015.3999999999999</ele><time>2026-04-01T19:31:42Z</time></trkpt><trkpt lat="45.80227827412434" lon="11.560210205684859"><ele>1017.6</ele><time>2026-04-01T19:31:43Z</time></trkpt><trkpt lat="45.80224679438056" lon="11.560082112161453"><ele>1019.8</ele><time>2026-04-01T19:31:44Z</time></trkpt><trkpt lat="45.802204358950185" lon="11.559944677258235"><ele>1022.0</ele><time>2026-04-01T19:31:45Z</time></trkpt><trkpt lat="45.80214386022772" lon="11.559807439423704"><ele>1022.0</ele><time>2026-04-01T19:31:46Z</time></trkpt><trkpt lat="45.80210977943288" lon="11.559638750686883"><ele>1022.0</ele><time>2026-04-01T19:31:47Z</time></trkpt><trkpt lat="45.802069399844136" lon="11.559513574438288"><ele>1022.0</ele><time>2026-04-01T19:31:48Z</time></trkpt><trkpt lat="45.80203628666749" lon="11.559376722788105"><ele>1022.0</ele><time>2026-04-01T19:31:49Z</time></trkpt><trkpt lat="45.802034104544596" lon="11.559205241217049"><ele>1022.0</ele><time>2026-04-01T19:31:50Z</time></trkpt><trkpt lat="45.80203383399493" lon="11.559089098965199"><ele>1023.0</ele><time>2026-04-01T19:31:51Z</time></trkpt><trkpt lat="45.802088625115914" lon="11.558970962064219"><ele>1024.0</ele><time>2026-04-01T19:31:52Z</time></trkpt><trkpt lat="45.80215435730279" lon="11.55887885870665"><ele>1025.0</ele><time>2026-04-01T19:31:53Z</time></trkpt><trkpt lat="45.80222900973074" lon="11.558787324747625"><ele>1026.0</ele><time>2026-04-01T19:31:54Z</time></trkpt><trkpt lat="45.802307400532996" lon="11.558700747545766"><ele>1027.0</ele><time>2026-04-01T19:31:55Z</time></trkpt><trkpt lat="45.802391063236264" lon="11.558607537964559"><ele>1027.0</ele><time>2026-04-01T19:31:56Z</time></trkpt><trkpt lat="45.802465582139625" lon="11.558516144865731"><ele>1027.0</ele><time>2026-04-01T19:31:57Z</time></trkpt><trkpt lat="45.802522979448895" lon="11.558399257967581"><ele>1027.0</ele><time>2026-04-01T19:31:58Z</time></trkpt><trkpt lat="45.8025520079492" lon="11.558255685652629"><ele>1027.0</ele><time>2026-04-01T19:31:59Z</time></trkpt><trkpt lat="45.802506166265566" lon="11.558118730049168"><ele>1027.0</ele><time>2026-04-01T19:32:00Z</time></trkpt><trkpt lat="45.80245097333923" lon="11.558014962588828"><ele>1027.0</ele><time>2026-04-01T19:32:01Z</time></trkpt><trkpt lat="45.80237997865014" lon="11.557943857178477"><ele>1027.0</ele><time>2026-04-01T19:32:02Z</time></trkpt><trkpt lat="45.80231364349601" lon="11.557880974258707"><ele>1027.0</ele><time>2026-04-01T19:32:03Z</time></trkpt><trkpt lat="45.80223732645852" lon="11.557822057629725"><ele>1027.0</ele><time>2026-04-01T19:32:04Z</time></trkpt><trkpt lat="45.80217546165764" lon="11.557721235598152"><ele>1027.0</ele><time>2026-04-01T19:32:05Z</time></trkpt><trkpt lat="45.802137038515134" lon="11.557625677242156"><ele>1027.0</ele><time>2026-04-01T19:32:06Z</time></trkpt><trkpt lat="45.8020922494981" lon="11.557499557830644"><ele>1028.8</ele><time>2026-04-01T19:32:07Z</time></trkpt><trkpt lat="45.802054525632215" lon="11.557365499326671"><ele>1030.6</ele><time>2026-04-01T19:32:08Z</time></trkpt><trkpt lat="45.802024989140136" lon="11.557234267133698"><ele>1032.3999999999999</ele><time>2026-04-01T19:32:09Z</time></trkpt><trkpt lat="45.80197994133218" lon="11.557101905573296"><ele>1034.2</ele><time>2026-04-01T19:32:10Z</time></trkpt><trkpt lat="45.801967197389146" lon="11.556956782553598"><ele>1036.0</ele><time>2026-04-01T19:32:11Z</time></trkpt><trkpt lat="45.80193135547365" lon="11.556803032977088"><ele>1034.3999999999999</ele><time>2026-04-01T19:32:12Z</time></trkpt><trkpt lat="45.80187397658544" lon="11.556667886314775"><ele>1032.8</ele><time>2026-04-01T19:32:13Z</time></trkpt><trkpt lat="45.801804530159714" lon="11.556530420983089"><ele>1031.1999999999998</ele><time>2026-04-01T19:32:14Z</time></trkpt><trkpt lat="45.80173848146331" lon="11.556439449799297"><ele>1029.6</ele><time>2026-04-01T19:32:15Z</time></trkpt><trkpt lat="45.801663133500085" lon="11.556326048813276"><ele>1028.0</ele><time>2026-04-01T19:32:16Z</time></trkpt><trkpt lat="45.8015681339128" lon="11.556259814089543"><ele>1032.75</ele><time>2026-04-01T19:32:17Z</time></trkpt><trkpt lat="45.80147026283446" lon="11.556151299094134"><ele>1037.5</ele><time>2026-04-01T19:32:18Z</time></trkpt><trkpt lat="45.80136567243893" lon="11.556085794431324"><ele>1042.25</ele><time>2026-04-01T19:32:19Z</time></trkpt><trkpt lat="45.80128617759178" lon="11.556005219593377"><ele>1047.0</ele><time>2026-04-01T19:32:20Z</time></trkpt><trkpt lat="45.801212334882365" lon="11.55586850593578"><ele>1047.0</ele><time>2026-04-01T19:32:21Z</time></trkpt><trkpt lat="45.80116325109426" lon="11.555719981835649"><ele>1047.0</ele><time>2026-04-01T19:32:22Z</time></trkpt><trkpt lat="45.80112009479819" lon="11.555566666870796"><ele>1047.0</ele><time>2026-04-01T19:32:23Z</time></trkpt><trkpt lat="45.80109610509968" lon="11.555408165488434"><ele>1047.0</ele><time>2026-04-01T19:32:24Z</time></trkpt><trkpt lat="45.80109279640538" lon="11.555271977443077"><ele>1047.0</ele><time>2026-04-01T19:32:25Z</time></trkpt><trkpt lat="45.80108446715197" lon="11.555111259717222"><ele>1048.6666666666667</ele><time>2026-04-01T19:32:26Z</time></trkpt><trkpt lat="45.80107623999431" lon="11.55499446127955"><ele>1050.3333333333333</ele><time>2026-04-01T19:32:26.999Z</time></trkpt><trkpt lat="45.801071584275256" lon="11.554872366552564"><ele>1052.0</ele><time>2026-04-01T19:32:27.999Z</time></trkpt><trkpt lat="45.80105790537644" lon="11.554738675919968"><ele>1053.6666666666665</ele><time>2026-04-01T19:32:28.999Z</time></trkpt><trkpt lat="45.80105451382537" lon="11.554616270229353"><ele>1055.3333333333333</ele><time>2026-04-01T19:32:29.999Z</time></trkpt><trkpt lat="45.80103746775894" lon="11.554472061394394"><ele>1057.0</ele><time>2026-04-01T19:32:30.999Z</time></trkpt><trkpt lat="45.801029031304786" lon="11.554340532544424"><ele>1058.4</ele><time>2026-04-01T19:32:31.999Z</time></trkpt><trkpt lat="45.80103011637577" lon="11.554199900291756"><ele>1059.8000000000002</ele><time>2026-04-01T19:32:32.999Z</time></trkpt><trkpt lat="45.80104345527017" lon="11.55405625264611"><ele>1061.2</ele><time>2026-04-01T19:32:33.999Z</time></trkpt><trkpt lat="45.80105534953441" lon="11.55390766375119"><ele>1062.6000000000001</ele><time>2026-04-01T19:32:34.999Z</time></trkpt><trkpt lat="45.801056786714554" lon="11.553751763050181"><ele>1064.0</ele><time>2026-04-01T19:32:35.999Z</time></trkpt><trkpt lat="45.801041812844154" lon="11.553594787913447"><ele>1065.0</ele><time>2026-04-01T19:32:36.999Z</time></trkpt><trkpt lat="45.801012341335685" lon="11.55343656482544"><ele>1066.0</ele><time>2026-04-01T19:32:37.999Z</time></trkpt><trkpt lat="45.80098771972602" lon="11.553278548583469"><ele>1067.0</ele><time>2026-04-01T19:32:38.999Z</time></trkpt><trkpt lat="45.80096128051668" lon="11.553134065868711"><ele>1068.0</ele><time>2026-04-01T19:32:39.999Z</time></trkpt><trkpt lat="45.80095200769662" lon="11.552981242202833"><ele>1069.0</ele><time>2026-04-01T19:32:40.999Z</time></trkpt><trkpt lat="45.800915496467475" lon="11.55284002866326"><ele>1066.8</ele><time>2026-04-01T19:32:41.999Z</time></trkpt><trkpt lat="45.80086118978589" lon="11.552717181270769"><ele>1064.6000000000001</ele><time>2026-04-01T19:32:42.999Z</time></trkpt><trkpt lat="45.800785533354905" lon="11.552630398645041"><ele>1062.4</ele><time>2026-04-01T19:32:43.999Z</time></trkpt><trkpt lat="45.800695600459875" lon="11.552575560368533"><ele>1060.2</ele><time>2026-04-01T19:32:44.999Z</time></trkpt><trkpt lat="45.80059720475955" lon="11.552562305599116"><ele>1058.0</ele><time>2026-04-01T19:32:45.999Z</time></trkpt><trkpt lat="45.80051487733479" lon="11.552669140839432"><ele>1058.0</ele><time>2026-04-01T19:32:46.999Z</time></trkpt><trkpt lat="45.8004354477497" lon="11.552719940038052"><ele>1058.0</ele><time>2026-04-01T19:32:47.999Z</time></trkpt><trkpt lat="45.80035115214557" lon="11.55279722180576"><ele>1058.0</ele><time>2026-04-01T19:32:48.999Z</time></trkpt><trkpt lat="45.80026640214549" lon="11.552875051239166"><ele>1058.0</ele><time>2026-04-01T19:32:49.999Z</time></trkpt><trkpt lat="45.800180451560976" lon="11.552957547219291"><ele>1058.0</ele><time>2026-04-01T19:32:50.999Z</time></trkpt><trkpt lat="45.80008423516718" lon="11.553057808800997"><ele>1057.0</ele><time>2026-04-01T19:32:51.999Z</time></trkpt><trkpt lat="45.80000610488896" lon="11.553162827402588"><ele>1056.0</ele><time>2026-04-01T19:32:52.999Z</time></trkpt><trkpt lat="45.799908457008" lon="11.553242544991274"><ele>1055.0</ele><time>2026-04-01T19:32:53.999Z</time></trkpt><trkpt lat="45.79982777878096" lon="11.553349065411775"><ele>1054.0</ele><time>2026-04-01T19:32:54.999Z</time></trkpt><trkpt lat="45.799733879950935" lon="11.553409454299643"><ele>1053.0</ele><time>2026-04-01T19:32:55.999Z</time></trkpt><trkpt lat="45.799631737741464" lon="11.553459415245468"><ele>1053.0</ele><time>2026-04-01T19:32:56.999Z</time></trkpt><trkpt lat="45.79952354783232" lon="11.553453547055165"><ele>1053.0</ele><time>2026-04-01T19:32:57.999Z</time></trkpt><trkpt lat="45.7994206167116" lon="11.553455249315912"><ele>1053.0</ele><time>2026-04-01T19:32:58.999Z</time></trkpt><trkpt lat="45.79931959506826" lon="11.55341383922638"><ele>1053.0</ele><time>2026-04-01T19:32:59.999Z</time></trkpt><trkpt lat="45.79921949470374" lon="11.553361801581614"><ele>1053.0</ele><time>2026-04-01T19:33:00.999Z</time></trkpt><trkpt lat="45.7991254910293" lon="11.553282281694091"><ele>1053.0</ele><time>2026-04-01T19:33:01.999Z</time></trkpt><trkpt lat="45.79903633229227" lon="11.5532156911876"><ele>1053.0</ele><time>2026-04-01T19:33:02.999Z</time></trkpt><trkpt lat="45.79894272485502" lon="11.553140571976849"><ele>1053.0</ele><time>2026-04-01T19:33:03.999Z</time></trkpt><trkpt lat="45.79885423243842" lon="11.553062091705465"><ele>1053.0</ele><time>2026-04-01T19:33:04.999Z</time></trkpt><trkpt lat="45.79876708552161" lon="11.552994689852783"><ele>1053.0</ele><time>2026-04-01T19:33:05.999Z</time></trkpt><trkpt lat="45.798709804975495" lon="11.552880434080539"><ele>1055.2</ele><time>2026-04-01T19:33:06.999Z</time></trkpt><trkpt lat="45.79865907739944" lon="11.552764279822062"><ele>1057.4</ele><time>2026-04-01T19:33:07.999Z</time></trkpt><trkpt lat="45.79863048952508" lon="11.552641149351317"><ele>1059.6000000000001</ele><time>2026-04-01T19:33:08.999Z</time></trkpt><trkpt lat="45.79861183970084" lon="11.552508139715108"><ele>1061.8</ele><time>2026-04-01T19:33:09.999Z</time></trkpt><trkpt lat="45.79860107236358" lon="11.552378937583336"><ele>1064.0</ele><time>2026-04-01T19:33:10.999Z</time></trkpt><trkpt lat="45.798589774236454" lon="11.552236806640465"><ele>1064.0</ele><time>2026-04-01T19:33:11.999Z</time></trkpt><trkpt lat="45.79856108163902" lon="11.552092522352964"><ele>1064.0</ele><time>2026-04-01T19:33:12.999Z</time></trkpt><trkpt lat="45.79850678100144" lon="11.551956956649638"><ele>1064.0</ele><time>2026-04-01T19:33:14Z</time></trkpt><trkpt lat="45.7984465444285" lon="11.551826973525255"><ele>1064.0</ele><time>2026-04-01T19:33:15Z</time></trkpt><trkpt lat="45.79837605765048" lon="11.551700863168406"><ele>1064.0</ele><time>2026-04-01T19:33:16Z</time></trkpt><trkpt lat="45.798294096578104" lon="11.551591512248205"><ele>1063.8</ele><time>2026-04-01T19:33:17Z</time></trkpt><trkpt lat="45.79819599105565" lon="11.55151080352243"><ele>1063.6000000000001</ele><time>2026-04-01T19:33:18Z</time></trkpt><trkpt lat="45.79808747678285" lon="11.55147654364184"><ele>1063.4</ele><time>2026-04-01T19:33:19Z</time></trkpt><trkpt lat="45.79797510699921" lon="11.551535499300211"><ele>1063.2</ele><time>2026-04-01T19:33:20Z</time></trkpt><trkpt lat="45.79787711571033" lon="11.551568038839177"><ele>1063.0</ele><time>2026-04-01T19:33:21Z</time></trkpt><trkpt lat="45.797785175814695" lon="11.551569307053082"><ele>1063.0</ele><time>2026-04-01T19:33:22Z</time></trkpt><trkpt lat="45.797712456006295" lon="11.55151269356287"><ele>1063.0</ele><time>2026-04-01T19:33:23Z</time></trkpt><trkpt lat="45.79764918923217" lon="11.551450290327116"><ele>1063.0</ele><time>2026-04-01T19:33:24Z</time></trkpt><trkpt lat="45.79759064956434" lon="11.551370713479864"><ele>1063.0</ele><time>2026-04-01T19:33:25Z</time></trkpt><trkpt lat="45.797531268374705" lon="11.55127919641504"><ele>1063.0</ele><time>2026-04-01T19:33:26Z</time></trkpt><trkpt lat="45.797480800853926" lon="11.551176846064457"><ele>1063.0</ele><time>2026-04-01T19:33:27Z</time></trkpt><trkpt lat="45.79744017651645" lon="11.551060219238575"><ele>1063.4</ele><time>2026-04-01T19:33:28Z</time></trkpt><trkpt lat="45.79740163764249" lon="11.550934943209137"><ele>1063.8</ele><time>2026-04-01T19:33:29Z</time></trkpt><trkpt lat="45.79734836047156" lon="11.55080716384201"><ele>1064.2</ele><time>2026-04-01T19:33:30Z</time></trkpt><trkpt lat="45.797324774117776" lon="11.55066468984482"><ele>1064.6</ele><time>2026-04-01T19:33:31Z</time></trkpt><trkpt lat="45.79728718042837" lon="11.55052942635859"><ele>1065.0</ele><time>2026-04-01T19:33:32Z</time></trkpt><trkpt lat="45.79723455188615" lon="11.550401447179697"><ele>1067.2</ele><time>2026-04-01T19:33:33Z</time></trkpt><trkpt lat="45.79716879740433" lon="11.550285416643154"><ele>1069.4</ele><time>2026-04-01T19:33:34Z</time></trkpt><trkpt lat="45.79709454108925" lon="11.550180799317495"><ele>1071.6</ele><time>2026-04-01T19:33:35Z</time></trkpt><trkpt lat="45.79701675851067" lon="11.550079704888665"><ele>1073.8</ele><time>2026-04-01T19:33:36Z</time></trkpt><trkpt lat="45.79695984324056" lon="11.549956266587596"><ele>1076.0</ele><time>2026-04-01T19:33:37Z</time></trkpt><trkpt lat="45.79689933304436" lon="11.549850738259353"><ele>1076.0</ele><time>2026-04-01T19:33:38Z</time></trkpt><trkpt lat="45.7968375916951" lon="11.549740084698952"><ele>1076.0</ele><time>2026-04-01T19:33:39Z</time></trkpt><trkpt lat="45.79679927775977" lon="11.549620490082651"><ele>1076.0</ele><time>2026-04-01T19:33:40Z</time></trkpt><trkpt lat="45.796782260751264" lon="11.549492424041489"><ele>1076.0</ele><time>2026-04-01T19:33:41Z</time></trkpt><trkpt lat="45.79678307339071" lon="11.549364046357578"><ele>1076.0</ele><time>2026-04-01T19:33:42Z</time></trkpt><trkpt lat="45.79680134992148" lon="11.549230020247023"><ele>1076.8333333333335</ele><time>2026-04-01T19:33:43Z</time></trkpt><trkpt lat="45.79684005675398" lon="11.549108660444002"><ele>1077.6666666666667</ele><time>2026-04-01T19:33:44Z</time></trkpt><trkpt lat="45.79688978283941" lon="11.548998385235032"><ele>1078.5</ele><time>2026-04-01T19:33:45Z</time></trkpt><trkpt lat="45.79695176904812" lon="11.548902510803503"><ele>1079.3333333333333</ele><time>2026-04-01T19:33:46Z</time></trkpt><trkpt lat="45.79701506994721" lon="11.548842611175687"><ele>1080.1666666666665</ele><time>2026-04-01T19:33:47Z</time></trkpt><trkpt lat="45.79706827024237" lon="11.54878996059694"><ele>1081.0</ele><time>2026-04-01T19:33:48Z</time></trkpt><trkpt lat="45.79713341958271" lon="11.54865483873714"><ele>1081.5</ele><time>2026-04-01T19:33:50Z</time></trkpt><trkpt lat="45.79711409544997" lon="11.54855385952114"><ele>1082.0</ele><time>2026-04-01T19:33:51Z</time></trkpt><trkpt lat="45.797081532661096" lon="11.548473018602028"><ele>1082.5</ele><time>2026-04-01T19:33:52Z</time></trkpt><trkpt lat="45.79702535732816" lon="11.548320537913717"><ele>1083.0</ele><time>2026-04-01T19:33:54Z</time></trkpt><trkpt lat="45.7968291036488" lon="11.54834880434677"><ele>1081.0</ele><time>2026-04-01T19:33:55Z</time></trkpt><trkpt lat="45.79674408221378" lon="11.548308462576227"><ele>1079.0</ele><time>2026-04-01T19:33:56Z</time></trkpt><trkpt lat="45.796649884094556" lon="11.54826786458231"><ele>1077.0</ele><time>2026-04-01T19:33:57Z</time></trkpt><trkpt lat="45.79655493398113" lon="11.548227749793515"><ele>1075.0</ele><time>2026-04-01T19:33:58Z</time></trkpt><trkpt lat="45.796460214012804" lon="11.548193362368998"><ele>1073.0</ele><time>2026-04-01T19:33:59Z</time></trkpt><trkpt lat="45.79636590775935" lon="11.548149370151062"><ele>1073.0</ele><time>2026-04-01T19:34:00Z</time></trkpt><trkpt lat="45.79628226191516" lon="11.548092321778347"><ele>1073.0</ele><time>2026-04-01T19:34:01Z</time></trkpt><trkpt lat="45.796202465075964" lon="11.548014699728268"><ele>1073.0</ele><time>2026-04-01T19:34:02Z</time></trkpt><trkpt lat="45.79613206126344" lon="11.547928030332328"><ele>1073.0</ele><time>2026-04-01T19:34:03Z</time></trkpt><trkpt lat="45.796057540123414" lon="11.547834426223082"><ele>1073.0</ele><time>2026-04-01T19:34:04Z</time></trkpt><trkpt lat="45.79599282239552" lon="11.547730874847117"><ele>1073.1666666666667</ele><time>2026-04-01T19:34:05Z</time></trkpt><trkpt lat="45.79594022555809" lon="11.547618474889696"><ele>1073.3333333333335</ele><time>2026-04-01T19:34:06Z</time></trkpt><trkpt lat="45.79589403228836" lon="11.54750029951416"><ele>1073.5</ele><time>2026-04-01T19:34:07Z</time></trkpt><trkpt lat="45.795856059155476" lon="11.547378770958373"><ele>1073.6666666666667</ele><time>2026-04-01T19:34:08Z</time></trkpt><trkpt lat="45.79582783815542" lon="11.547262674018805"><ele>1073.8333333333333</ele><time>2026-04-01T19:34:09Z</time></trkpt><trkpt lat="45.79581008856852" lon="11.547166595250449"><ele>1074.0</ele><time>2026-04-01T19:34:10Z</time></trkpt><trkpt lat="45.795811969596066" lon="11.547026439458516"><ele>1074.0</ele><time>2026-04-01T19:34:12Z</time></trkpt><trkpt lat="45.79583820400605" lon="11.546909647829011"><ele>1074.0</ele><time>2026-04-01T19:34:14Z</time></trkpt><trkpt lat="45.79585182865232" lon="11.546821219042169"><ele>1074.0</ele><time>2026-04-01T19:34:16Z</time></trkpt><trkpt lat="45.795873823665666" lon="11.54672196568849"><ele>1074.0</ele><time>2026-04-01T19:34:20Z</time></trkpt><trkpt lat="45.79589763752347" lon="11.546630824483925"><ele>1074.0</ele><time>2026-04-01T19:34:22Z</time></trkpt><trkpt lat="45.79594241386975" lon="11.546537603309858"><ele>1074.0</ele><time>2026-04-01T19:34:24Z</time></trkpt><trkpt lat="45.79601176451886" lon="11.546467083652301"><ele>1075.6666666666667</ele><time>2026-04-01T19:34:26Z</time></trkpt><trkpt lat="45.79607305471268" lon="11.546412018338852"><ele>1077.3333333333333</ele><time>2026-04-01T19:35:18.999Z</time></trkpt><trkpt lat="45.79613753143792" lon="11.546378046469748"><ele>1079.0</ele><time>2026-04-01T19:35:21Z</time></trkpt><trkpt lat="45.79621936884807" lon="11.546348250583431"><ele>1080.6666666666665</ele><time>2026-04-01T19:35:23Z</time></trkpt><trkpt lat="45.79632215163543" lon="11.54635133607528"><ele>1082.3333333333333</ele><time>2026-04-01T19:35:25Z</time></trkpt><trkpt lat="45.7964342783586" lon="11.546395492640812"><ele>1084.0</ele><time>2026-04-01T19:35:27Z</time></trkpt><trkpt lat="45.79654483031862" lon="11.546455901431361"><ele>1084.0</ele><time>2026-04-01T19:35:29Z</time></trkpt><trkpt lat="45.796655575206266" lon="11.546528854622217"><ele>1084.0</ele><time>2026-04-01T19:35:31Z</time></trkpt><trkpt lat="45.79676460857575" lon="11.546608694091885"><ele>1084.0</ele><time>2026-04-01T19:35:33Z</time></trkpt><trkpt lat="45.79687115690662" lon="11.546685750470315"><ele>1084.0</ele><time>2026-04-01T19:35:35Z</time></trkpt><trkpt lat="45.796977067307054" lon="11.54673556463061"><ele>1085.8</ele><time>2026-04-01T19:35:37Z</time></trkpt><trkpt lat="45.79706401266887" lon="11.546762843262313"><ele>1087.6000000000001</ele><time>2026-04-01T19:35:39Z</time></trkpt><trkpt lat="45.79715980476261" lon="11.546751224632912"><ele>1089.4</ele><time>2026-04-01T19:35:42Z</time></trkpt><trkpt lat="45.79726820568758" lon="11.546682034386839"><ele>1091.2</ele><time>2026-04-01T19:35:44Z</time></trkpt><trkpt lat="45.79735899183199" lon="11.546610049138245"><ele>1093.0</ele><time>2026-04-01T19:35:46Z</time></trkpt><trkpt lat="45.79744956399524" lon="11.546538567565864"><ele>1093.0</ele><time>2026-04-01T19:35:48Z</time></trkpt><trkpt lat="45.79754675697946" lon="11.546467677179608"><ele>1093.0</ele><time>2026-04-01T19:35:50Z</time></trkpt><trkpt lat="45.79763345311226" lon="11.54634350590736"><ele>1093.0</ele><time>2026-04-01T19:35:52Z</time></trkpt><trkpt lat="45.79771038881615" lon="11.546248103370209"><ele>1093.0</ele><time>2026-04-01T19:35:54Z</time></trkpt><trkpt lat="45.797758555233685" lon="11.546145795556459"><ele>1093.0</ele><time>2026-04-01T19:35:56Z</time></trkpt><trkpt lat="45.79780809261212" lon="11.546011825751052"><ele>1097.4</ele><time>2026-04-01T19:35:58Z</time></trkpt><trkpt lat="45.797868855052904" lon="11.545880864335878"><ele>1101.8</ele><time>2026-04-01T19:36:00Z</time></trkpt><trkpt lat="45.79792540801884" lon="11.545772292502793"><ele>1106.2</ele><time>2026-04-01T19:36:02Z</time></trkpt><trkpt lat="45.797952283079916" lon="11.545625465794812"><ele>1110.6</ele><time>2026-04-01T19:36:04Z</time></trkpt><trkpt lat="45.79794945994133" lon="11.545458416459539"><ele>1115.0</ele><time>2026-04-01T19:36:06Z</time></trkpt><trkpt lat="45.79790968755983" lon="11.545313675868154"><ele>1115.2</ele><time>2026-04-01T19:36:08Z</time></trkpt><trkpt lat="45.797880164122404" lon="11.545226856416978"><ele>1115.4</ele><time>2026-04-01T19:36:09Z</time></trkpt><trkpt lat="45.797840288125016" lon="11.54507289409803"><ele>1115.6</ele><time>2026-04-01T19:36:11Z</time></trkpt><trkpt lat="45.797818230067115" lon="11.544904441095628"><ele>1115.8</ele><time>2026-04-01T19:36:13Z</time></trkpt><trkpt lat="45.797807351983934" lon="11.544725346906167"><ele>1116.0</ele><time>2026-04-01T19:36:15Z</time></trkpt><trkpt lat="45.797801893575524" lon="11.544630302440131"><ele>1116.8333333333333</ele><time>2026-04-01T19:36:16Z</time></trkpt><trkpt lat="45.79779773643015" lon="11.54443496227149"><ele>1117.6666666666667</ele><time>2026-04-01T19:36:18Z</time></trkpt><trkpt lat="45.797792068087226" lon="11.544335257472763"><ele>1118.5</ele><time>2026-04-01T19:36:19Z</time></trkpt><trkpt lat="45.79778510625729" lon="11.544240099238952"><ele>1119.3333333333335</ele><time>2026-04-01T19:36:20Z</time></trkpt><trkpt lat="45.79778021577231" lon="11.544146856735782"><ele>1120.1666666666667</ele><time>2026-04-01T19:36:21Z</time></trkpt><trkpt lat="45.797777303003336" lon="11.544047125573833"><ele>1121.0</ele><time>2026-04-01T19:36:22Z</time></trkpt><trkpt lat="45.79777351520415" lon="11.543874903312316"><ele>1121.0</ele><time>2026-04-01T19:36:24Z</time></trkpt><trkpt lat="45.79779661497446" lon="11.543789587156526"><ele>1121.0</ele><time>2026-04-01T19:36:25Z</time></trkpt><trkpt lat="45.79782019482936" lon="11.543681732218174"><ele>1121.0</ele><time>2026-04-01T19:36:26Z</time></trkpt><trkpt lat="45.79784437913242" lon="11.543580311131672"><ele>1121.0</ele><time>2026-04-01T19:36:27Z</time></trkpt><trkpt lat="45.797821776621575" lon="11.543479146482236"><ele>1121.0</ele><time>2026-04-01T19:36:28Z</time></trkpt><trkpt lat="45.79781814413306" lon="11.543346852945717"><ele>1121.0</ele><time>2026-04-01T19:36:29Z</time></trkpt><trkpt lat="45.797850558013664" lon="11.543262642808786"><ele>1120.8333333333335</ele><time>2026-04-01T19:36:29.999Z</time></trkpt><trkpt lat="45.79786614422871" lon="11.543143683636037"><ele>1120.6666666666667</ele><time>2026-04-01T19:36:30.999Z</time></trkpt><trkpt lat="45.79789192695553" lon="11.543023832397331"><ele>1120.5</ele><time>2026-04-01T19:36:31.999Z</time></trkpt><trkpt lat="45.79791355337878" lon="11.542882283535617"><ele>1120.3333333333333</ele><time>2026-04-01T19:36:32.999Z</time></trkpt><trkpt lat="45.79790349846079" lon="11.542757503669337"><ele>1120.1666666666665</ele><time>2026-04-01T19:36:33.999Z</time></trkpt><trkpt lat="45.797936261839055" lon="11.542653959541557"><ele>1120.0</ele><time>2026-04-01T19:36:34.999Z</time></trkpt><trkpt lat="45.79794969345851" lon="11.54249583184575"><ele>1119.4</ele><time>2026-04-01T19:36:36.999Z</time></trkpt><trkpt lat="45.79798390073125" lon="11.542339362496334"><ele>1118.8</ele><time>2026-04-01T19:36:38.999Z</time></trkpt><trkpt lat="45.79799781618573" lon="11.54223873358164"><ele>1118.2</ele><time>2026-04-01T19:36:39.999Z</time></trkpt><trkpt lat="45.7980386616449" lon="11.542088038040331"><ele>1117.6</ele><time>2026-04-01T19:36:41.999Z</time></trkpt><trkpt lat="45.7980625324125" lon="11.541953365386926"><ele>1117.0</ele><time>2026-04-01T19:36:43.999Z</time></trkpt><trkpt lat="45.798104593625524" lon="11.541826533142066"><ele>1114.25</ele><time>2026-04-01T19:36:45.999Z</time></trkpt><trkpt lat="45.79814305580929" lon="11.541687613086054"><ele>1111.5</ele><time>2026-04-01T19:36:47.999Z</time></trkpt><trkpt lat="45.79818897267396" lon="11.541546567189135"><ele>1108.75</ele><time>2026-04-01T19:36:49.999Z</time></trkpt><trkpt lat="45.798237084213255" lon="11.541384582551002"><ele>1106.0</ele><time>2026-04-01T19:36:51.999Z</time></trkpt><trkpt lat="45.79830377179268" lon="11.541242597254739"><ele>1104.0</ele><time>2026-04-01T19:36:53.999Z</time></trkpt><trkpt lat="45.798335342824494" lon="11.541145340504393"><ele>1102.0</ele><time>2026-04-01T19:36:54.999Z</time></trkpt><trkpt lat="45.79836981990064" lon="11.541064775460288"><ele>1100.0</ele><time>2026-04-01T19:36:55.999Z</time></trkpt><trkpt lat="45.798415743776886" lon="11.540986411321871"><ele>1098.0</ele><time>2026-04-01T19:36:56.999Z</time></trkpt><trkpt lat="45.79846416011565" lon="11.540901820625031"><ele>1096.0</ele><time>2026-04-01T19:36:57.999Z</time></trkpt><trkpt lat="45.798547182670404" lon="11.54074054091414"><ele>1094.0</ele><time>2026-04-01T19:36:59.999Z</time></trkpt><trkpt lat="45.7985911912382" lon="11.540650888183299"><ele>1097.1666666666667</ele><time>2026-04-01T19:37:00.999Z</time></trkpt><trkpt lat="45.79864189958602" lon="11.540557845093426"><ele>1100.3333333333335</ele><time>2026-04-01T19:37:01.999Z</time></trkpt><trkpt lat="45.798723681692266" lon="11.540446985774715"><ele>1103.5</ele><time>2026-04-01T19:37:03.999Z</time></trkpt><trkpt lat="45.79878058090264" lon="11.54035078806007"><ele>1106.6666666666667</ele><time>2026-04-01T19:37:04.999Z</time></trkpt><trkpt lat="45.79882768368465" lon="11.54025242841901"><ele>1109.8333333333333</ele><time>2026-04-01T19:37:05.999Z</time></trkpt><trkpt lat="45.79884495422167" lon="11.54015971242416"><ele>1113.0</ele><time>2026-04-01T19:37:06.999Z</time></trkpt><trkpt lat="45.79891590020515" lon="11.540100667836759"><ele>1113.0</ele><time>2026-04-01T19:37:07.999Z</time></trkpt><trkpt lat="45.798940840934165" lon="11.54001101091941"><ele>1113.0</ele><time>2026-04-01T19:37:08.999Z</time></trkpt><trkpt lat="45.79902613124092" lon="11.539867105414501"><ele>1113.0</ele><time>2026-04-01T19:37:10.999Z</time></trkpt><trkpt lat="45.79911575095863" lon="11.539733237578767"><ele>1113.0</ele><time>2026-04-01T19:37:12.999Z</time></trkpt><trkpt lat="45.799202849253554" lon="11.539641190350451"><ele>1113.0</ele><time>2026-04-01T19:37:14.999Z</time></trkpt><trkpt lat="45.79924617170101" lon="11.539564981095843"><ele>1113.8</ele><time>2026-04-01T19:37:16.999Z</time></trkpt><trkpt lat="45.79923053127512" lon="11.539419212967637"><ele>1114.6</ele><time>2026-04-01T19:37:18.999Z</time></trkpt><trkpt lat="45.79912453927323" lon="11.539356266136995"><ele>1115.4</ele><time>2026-04-01T19:37:20.999Z</time></trkpt><trkpt lat="45.79902459599001" lon="11.539360627410707"><ele>1116.2</ele><time>2026-04-01T19:37:22.999Z</time></trkpt><trkpt lat="45.79895783684559" lon="11.539348378070681"><ele>1117.0</ele><time>2026-04-01T19:37:23.999Z</time></trkpt><trkpt lat="45.79885431422615" lon="11.539294228089451"><ele>1117.0</ele><time>2026-04-01T19:37:26Z</time></trkpt><trkpt lat="45.79875977340367" lon="11.539263398402937"><ele>1117.0</ele><time>2026-04-01T19:37:27Z</time></trkpt><trkpt lat="45.798674483657464" lon="11.539157319871478"><ele>1117.0</ele><time>2026-04-01T19:37:28Z</time></trkpt><trkpt lat="45.798603176750575" lon="11.53911438099087"><ele>1117.0</ele><time>2026-04-01T19:37:29Z</time></trkpt><trkpt lat="45.79848199392988" lon="11.539090806226648"><ele>1117.0</ele><time>2026-04-01T19:37:31Z</time></trkpt><trkpt lat="45.798402733508766" lon="11.539050655697364"><ele>1119.0</ele><time>2026-04-01T19:37:32Z</time></trkpt><trkpt lat="45.79827483672075" lon="11.538962531291036"><ele>1121.0</ele><time>2026-04-01T19:37:34Z</time></trkpt><trkpt lat="45.798233844821596" lon="11.538887469146967"><ele>1123.0</ele><time>2026-04-01T19:37:35Z</time></trkpt><trkpt lat="45.79819922544779" lon="11.538811242428517"><ele>1125.0</ele><time>2026-04-01T19:37:36Z</time></trkpt><trkpt lat="45.79816572313279" lon="11.538731082589425"><ele>1127.0</ele><time>2026-04-01T19:37:37Z</time></trkpt><trkpt lat="45.79812535571285" lon="11.538567586634077"><ele>1127.0</ele><time>2026-04-01T19:37:39Z</time></trkpt><trkpt lat="45.79808250528125" lon="11.538484738053311"><ele>1127.0</ele><time>2026-04-01T19:37:40Z</time></trkpt><trkpt lat="45.79801995674415" lon="11.53840614724433"><ele>1127.0</ele><time>2026-04-01T19:37:41Z</time></trkpt><trkpt lat="45.79795011079158" lon="11.538306557323846"><ele>1127.0</ele><time>2026-04-01T19:37:42Z</time></trkpt><trkpt lat="45.797903161115485" lon="11.538183244317615"><ele>1127.0</ele><time>2026-04-01T19:37:43Z</time></trkpt><trkpt lat="45.79785716677351" lon="11.53807450890543"><ele>1127.0</ele><time>2026-04-01T19:37:44Z</time></trkpt><trkpt lat="45.797789381769725" lon="11.537958075637045"><ele>1125.0</ele><time>2026-04-01T19:37:45Z</time></trkpt><trkpt lat="45.79774640705982" lon="11.537820769875548"><ele>1123.0</ele><time>2026-04-01T19:37:46Z</time></trkpt><trkpt lat="45.7976906487714" lon="11.537739032141461"><ele>1121.0</ele><time>2026-04-01T19:37:48Z</time></trkpt><trkpt lat="45.79768142309909" lon="11.537612628869756"><ele>1119.0</ele><time>2026-04-01T19:37:51Z</time></trkpt><trkpt lat="45.79761938215874" lon="11.537556988538174"><ele>1117.0</ele><time>2026-04-01T19:37:55Z</time></trkpt><trkpt lat="45.797543483022395" lon="11.537376924492575"><ele>1117.0</ele><time>2026-04-01T19:37:58Z</time></trkpt><trkpt lat="45.79751233495117" lon="11.537266312730326"><ele>1117.0</ele><time>2026-04-01T19:37:59Z</time></trkpt><trkpt lat="45.79747259766313" lon="11.537150109424939"><ele>1117.0</ele><time>2026-04-01T19:38:00Z</time></trkpt><trkpt lat="45.79742533393991" lon="11.537023058829286"><ele>1117.0</ele><time>2026-04-01T19:38:01Z</time></trkpt><trkpt lat="45.79739178213143" lon="11.536909268769877"><ele>1117.0</ele><time>2026-04-01T19:38:02Z</time></trkpt><trkpt lat="45.79735095001161" lon="11.53679361023553"><ele>1119.6666666666665</ele><time>2026-04-01T19:38:03Z</time></trkpt><trkpt lat="45.797311793149134" lon="11.536697446562158"><ele>1122.3333333333333</ele><time>2026-04-01T19:38:04Z</time></trkpt><trkpt lat="45.79724977503214" lon="11.536614010240484"><ele>1125.0</ele><time>2026-04-01T19:38:05Z</time></trkpt><trkpt lat="45.797180487456224" lon="11.536565894547088"><ele>1127.6666666666667</ele><time>2026-04-01T19:38:06Z</time></trkpt><trkpt lat="45.79711383801764" lon="11.536473483712552"><ele>1130.3333333333335</ele><time>2026-04-01T19:38:07Z</time></trkpt><trkpt lat="45.79703649582229" lon="11.536392819384218"><ele>1133.0</ele><time>2026-04-01T19:38:08Z</time></trkpt><trkpt lat="45.79696148592483" lon="11.536317800854457"><ele>1133.0</ele><time>2026-04-01T19:38:09Z</time></trkpt><trkpt lat="45.79683910032994" lon="11.536229069101719"><ele>1133.0</ele><time>2026-04-01T19:38:10Z</time></trkpt><trkpt lat="45.79672914748731" lon="11.536179991686778"><ele>1133.0</ele><time>2026-04-01T19:38:11Z</time></trkpt><trkpt lat="45.796676375769785" lon="11.536107297741493"><ele>1133.0</ele><time>2026-04-01T19:38:12Z</time></trkpt><trkpt lat="45.7966517540319" lon="11.535980830507489"><ele>1133.0</ele><time>2026-04-01T19:38:13Z</time></trkpt><trkpt lat="45.79659790453947" lon="11.535758239585277"><ele>1132.75</ele><time>2026-04-01T19:38:15Z</time></trkpt><trkpt lat="45.79654589930832" lon="11.53564406424606"><ele>1132.5</ele><time>2026-04-01T19:38:16Z</time></trkpt><trkpt lat="45.796457261396384" lon="11.535556725141277"><ele>1132.25</ele><time>2026-04-01T19:38:17Z</time></trkpt><trkpt lat="45.79637360857095" lon="11.53545285835779"><ele>1132.0</ele><time>2026-04-01T19:38:18Z</time></trkpt><trkpt lat="45.79633979000952" lon="11.535162031203491"><ele>1132.0</ele><time>2026-04-01T19:38:19Z</time></trkpt><trkpt lat="45.7965900083444" lon="11.534924140195939"><ele>1132.0</ele><time>2026-04-01T19:38:20Z</time></trkpt><trkpt lat="45.79654225585594" lon="11.534755372353882"><ele>1132.0</ele><time>2026-04-01T19:38:20.999Z</time></trkpt><trkpt lat="45.79669600201107" lon="11.534640344142225"><ele>1132.3333333333333</ele><time>2026-04-01T19:38:22.999Z</time></trkpt><trkpt lat="45.796833601796514" lon="11.53434816665603"><ele>1132.6666666666667</ele><time>2026-04-01T19:38:23.999Z</time></trkpt><trkpt lat="45.79683914793949" lon="11.534094081085733"><ele>1133.0</ele><time>2026-04-01T19:38:24.999Z</time></trkpt><trkpt lat="45.796871712348995" lon="11.533906170668391"><ele>1138.8333333333335</ele><time>2026-04-01T19:38:25.999Z</time></trkpt><trkpt lat="45.79690600671328" lon="11.533770780487334"><ele>1144.6666666666667</ele><time>2026-04-01T19:38:26.999Z</time></trkpt><trkpt lat="45.796950651029626" lon="11.533678083896291"><ele>1150.5</ele><time>2026-04-01T19:38:27.999Z</time></trkpt><trkpt lat="45.796992909707456" lon="11.533609648650037"><ele>1156.3333333333333</ele><time>2026-04-01T19:38:28.999Z</time></trkpt><trkpt lat="45.79701947194329" lon="11.533491883783498"><ele>1162.1666666666665</ele><time>2026-04-01T19:38:30.999Z</time></trkpt><trkpt lat="45.796927521565884" lon="11.533381729685987"><ele>1168.0</ele><time>2026-04-01T19:38:31.999Z</time></trkpt><trkpt lat="45.79686338278212" lon="11.533333180136077"><ele>1168.6666666666665</ele><time>2026-04-01T19:38:32.999Z</time></trkpt><trkpt lat="45.79681088182539" lon="11.53319387400307"><ele>1169.3333333333333</ele><time>2026-04-01T19:38:34.999Z</time></trkpt><trkpt lat="45.79682931636485" lon="11.53304441935937"><ele>1170.0</ele><time>2026-04-01T19:38:35.999Z</time></trkpt><trkpt lat="45.79683603916815" lon="11.53290050843255"><ele>1170.6666666666667</ele><time>2026-04-01T19:38:37.999Z</time></trkpt><trkpt lat="45.79683671769504" lon="11.532809285563168"><ele>1171.3333333333335</ele><time>2026-04-01T19:38:38.999Z</time></trkpt><trkpt lat="45.796843341449296" lon="11.532715021519948"><ele>1172.0</ele><time>2026-04-01T19:38:40.02Z</time></trkpt><trkpt lat="45.79684910009486" lon="11.532623254738168"><ele>1172.6666666666667</ele><time>2026-04-01T19:38:41.02Z</time></trkpt><trkpt lat="45.79685423096399" lon="11.53253133676033"><ele>1173.3333333333333</ele><time>2026-04-01T19:38:42.02Z</time></trkpt><trkpt lat="45.79685945927219" lon="11.532440297743667"><ele>1174.0</ele><time>2026-04-01T19:38:43.021Z</time></trkpt><trkpt lat="45.797859954702126" lon="11.523302756726435"><ele>1182.0</ele><time>2026-04-01T19:40:44.998Z</time></trkpt><trkpt lat="45.797865184452235" lon="11.523159155374254"><ele>1190.0</ele><time>2026-04-01T19:40:47Z</time></trkpt><trkpt lat="45.7978365728413" lon="11.523078474977735"><ele>1198.0</ele><time>2026-04-01T19:40:49Z</time></trkpt><trkpt lat="45.797840331775426" lon="11.523183248826106"><ele>1206.0</ele><time>2026-04-01T19:40:54Z</time></trkpt><trkpt lat="45.79796688151362" lon="11.523232611898942"><ele>1214.0</ele><time>2026-04-01T19:41:11Z</time></trkpt><trkpt lat="45.79810337984026" lon="11.523246171618153"><ele>1214.0</ele><time>2026-04-01T19:41:18Z</time></trkpt><trkpt lat="45.79816703651874" lon="11.5232626914913"><ele>1214.0</ele><time>2026-04-01T19:41:21Z</time></trkpt><trkpt lat="45.79823275470544" lon="11.523270864231339"><ele>1214.0</ele><time>2026-04-01T19:41:24Z</time></trkpt><trkpt lat="45.79832278307728" lon="11.523284443047716"><ele>1214.0</ele><time>2026-04-01T19:41:27Z</time></trkpt><trkpt lat="45.798394213365874" lon="11.523281541324513"><ele>1214.0</ele><time>2026-04-01T19:41:30Z</time></trkpt><trkpt lat="45.798568773653145" lon="11.523262418435984"><ele>1216.5</ele><time>2026-04-01T19:41:35Z</time></trkpt><trkpt lat="45.7986374691468" lon="11.523189735758358"><ele>1219.0</ele><time>2026-04-01T19:41:37Z</time></trkpt><trkpt lat="45.79869187271787" lon="11.52310530045713"><ele>1221.5</ele><time>2026-04-01T19:41:40Z</time></trkpt><trkpt lat="45.79873981098952" lon="11.52304250807201"><ele>1224.0</ele><time>2026-04-01T19:41:42Z</time></trkpt><trkpt lat="45.79878255994033" lon="11.522953091906889"><ele>1226.5</ele><time>2026-04-01T19:41:45Z</time></trkpt><trkpt lat="45.798829430757166" lon="11.522848184242376"><ele>1229.0</ele><time>2026-04-01T19:41:48.999Z</time></trkpt><trkpt lat="45.79890107992393" lon="11.522805704518328"><ele>1229.5714285714287</ele><time>2026-04-01T19:41:50.999Z</time></trkpt><trkpt lat="45.79892599990989" lon="11.522687550772957"><ele>1230.142857142857</ele><time>2026-04-01T19:41:54.999Z</time></trkpt><trkpt lat="45.79900552988363" lon="11.522693304908117"><ele>1230.7142857142858</ele><time>2026-04-01T19:42:10.999Z</time></trkpt><trkpt lat="45.79905372915432" lon="11.522609606332528"><ele>1231.2857142857142</ele><time>2026-04-01T19:42:21.999Z</time></trkpt><trkpt lat="45.79900594874882" lon="11.522548632281731"><ele>1231.857142857143</ele><time>2026-04-01T19:42:24.999Z</time></trkpt><trkpt lat="45.79894779065495" lon="11.522499197625772"><ele>1232.4285714285716</ele><time>2026-04-01T19:42:27.999Z</time></trkpt><trkpt lat="45.79898681304771" lon="11.522412926969885"><ele>1233.0</ele><time>2026-04-01T19:42:33.999Z</time></trkpt><trkpt lat="45.79905047977811" lon="11.52249400126886"><ele>1233.0</ele><time>2026-04-01T19:42:36.999Z</time></trkpt><trkpt lat="45.79909672177746" lon="11.522571018106705"><ele>1233.0</ele><time>2026-04-01T19:42:38.999Z</time></trkpt><trkpt lat="45.79913654028893" lon="11.522647085970561"><ele>1233.0</ele><time>2026-04-01T19:42:39.999Z</time></trkpt><trkpt lat="45.79919931346801" lon="11.52274619580657"><ele>1233.0</ele><time>2026-04-01T19:42:41.999Z</time></trkpt><trkpt lat="45.79928104267265" lon="11.522761416007558"><ele>1233.0</ele><time>2026-04-01T19:42:44.999Z</time></trkpt><trkpt lat="45.79934482193796" lon="11.522703498270907"><ele>1233.0</ele><time>2026-04-01T19:43:02Z</time></trkpt><trkpt lat="45.79943228820678" lon="11.522698314934065"><ele>1233.0</ele><time>2026-04-01T19:43:06Z</time></trkpt><trkpt lat="45.79944428431211" lon="11.522585996803993"><ele>1233.0</ele><time>2026-04-01T19:43:09Z</time></trkpt><trkpt lat="45.79938190034818" lon="11.522554114386587"><ele>1233.0</ele><time>2026-04-01T19:43:11Z</time></trkpt><trkpt lat="45.79931742317489" lon="11.52259574966096"><ele>1233.0</ele><time>2026-04-01T19:43:13Z</time></trkpt><trkpt lat="45.79927883378367" lon="11.52268663744978"><ele>1233.0</ele><time>2026-04-01T19:43:16Z</time></trkpt><trkpt lat="45.79922707000576" lon="11.52274689852366"><ele>1233.0</ele><time>2026-04-01T19:43:20Z</time></trkpt><trkpt lat="45.79924088441526" lon="11.522850174189015"><ele>1233.0</ele><time>2026-04-01T19:44:05.999Z</time></trkpt><trkpt lat="45.79929532930923" lon="11.522957281580492"><ele>1235.2</ele><time>2026-04-01T19:44:10.999Z</time></trkpt><trkpt lat="45.79933813884795" lon="11.523080506812915"><ele>1237.4</ele><time>2026-04-01T19:44:12.999Z</time></trkpt><trkpt lat="45.79937351282889" lon="11.523200992799062"><ele>1239.6000000000001</ele><time>2026-04-01T19:44:14.999Z</time></trkpt><trkpt lat="45.79939923883666" lon="11.5233728126951"><ele>1241.8</ele><time>2026-04-01T19:44:16.999Z</time></trkpt><trkpt lat="45.79939778865173" lon="11.523469045195796"><ele>1244.0</ele><time>2026-04-01T19:44:17.999Z</time></trkpt><trkpt lat="45.799398105879455" lon="11.523583457355501"><ele>1244.0</ele><time>2026-04-01T19:44:18.999Z</time></trkpt><trkpt lat="45.7993862633239" lon="11.523708387830242"><ele>1244.0</ele><time>2026-04-01T19:44:19.999Z</time></trkpt><trkpt lat="45.79937221935836" lon="11.523831622828292"><ele>1244.0</ele><time>2026-04-01T19:44:20.999Z</time></trkpt><trkpt lat="45.79934684299482" lon="11.523939451342669"><ele>1244.0</ele><time>2026-04-01T19:44:21.999Z</time></trkpt><trkpt lat="45.79931808027346" lon="11.524045562956179"><ele>1244.0</ele><time>2026-04-01T19:44:22.999Z</time></trkpt><trkpt lat="45.799284261797396" lon="11.524147481689239"><ele>1244.0</ele><time>2026-04-01T19:44:23.999Z</time></trkpt><trkpt lat="45.7992443620824" lon="11.52424393014708"><ele>1243.3333333333335</ele><time>2026-04-01T19:44:24.999Z</time></trkpt><trkpt lat="45.79920497862644" lon="11.524330716892694"><ele>1242.6666666666667</ele><time>2026-04-01T19:44:25.999Z</time></trkpt><trkpt lat="45.79918173309749" lon="11.524421262209158"><ele>1242.0</ele><time>2026-04-01T19:44:26.999Z</time></trkpt><trkpt lat="45.799185045740515" lon="11.524518913867643"><ele>1241.3333333333333</ele><time>2026-04-01T19:44:27.999Z</time></trkpt><trkpt lat="45.79922823350154" lon="11.524669422931813"><ele>1240.6666666666665</ele><time>2026-04-01T19:44:29.999Z</time></trkpt><trkpt lat="45.79930762622385" lon="11.52478787649651"><ele>1240.0</ele><time>2026-04-01T19:44:31.999Z</time></trkpt><trkpt lat="45.79936197616872" lon="11.524862192695153"><ele>1243.7142857142858</ele><time>2026-04-01T19:44:32.999Z</time></trkpt><trkpt lat="45.79941390360576" lon="11.524934734493762"><ele>1247.4285714285713</ele><time>2026-04-01T19:44:33.999Z</time></trkpt><trkpt lat="45.79944390585384" lon="11.525027075723525"><ele>1251.142857142857</ele><time>2026-04-01T19:44:34.999Z</time></trkpt><trkpt lat="45.799476038151596" lon="11.525107252505286"><ele>1254.857142857143</ele><time>2026-04-01T19:44:35.999Z</time></trkpt><trkpt lat="45.799491938241076" lon="11.52519600833433"><ele>1258.5714285714287</ele><time>2026-04-01T19:44:36.999Z</time></trkpt><trkpt lat="45.7994920544417" lon="11.525317203352769"><ele>1262.2857142857142</ele><time>2026-04-01T19:44:37.999Z</time></trkpt><trkpt lat="45.79947564641816" lon="11.525414619975688"><ele>1266.0</ele><time>2026-04-01T19:44:38.999Z</time></trkpt><trkpt lat="45.79945862553205" lon="11.525512318814847"><ele>1267.2</ele><time>2026-04-01T19:44:39.999Z</time></trkpt><trkpt lat="45.799439366542416" lon="11.525653809803707"><ele>1268.3999999999999</ele><time>2026-04-01T19:44:40.999Z</time></trkpt><trkpt lat="45.79942309981856" lon="11.525791296983812"><ele>1269.6</ele><time>2026-04-01T19:44:41.999Z</time></trkpt><trkpt lat="45.79940905267687" lon="11.525910024339716"><ele>1270.8</ele><time>2026-04-01T19:44:42.999Z</time></trkpt><trkpt lat="45.79939149172367" lon="11.526045777229175"><ele>1272.0</ele><time>2026-04-01T19:44:43.999Z</time></trkpt><trkpt lat="45.79937563967828" lon="11.526152560609699"><ele>1272.8333333333333</ele><time>2026-04-01T19:44:44.999Z</time></trkpt><trkpt lat="45.799357710518706" lon="11.526268859419197"><ele>1273.6666666666667</ele><time>2026-04-01T19:44:45.999Z</time></trkpt><trkpt lat="45.799337890731394" lon="11.526384452443166"><ele>1274.5</ele><time>2026-04-01T19:44:46.999Z</time></trkpt><trkpt lat="45.799318309354774" lon="11.52647748208702"><ele>1275.3333333333335</ele><time>2026-04-01T19:44:47.999Z</time></trkpt><trkpt lat="45.79929394305812" lon="11.526563907336948"><ele>1276.1666666666667</ele><time>2026-04-01T19:44:48.999Z</time></trkpt><trkpt lat="45.799253385938584" lon="11.52670367773365"><ele>1277.0</ele><time>2026-04-01T19:44:50.999Z</time></trkpt><trkpt lat="45.7992101836456" lon="11.526820887657328"><ele>1272.8571428571427</ele><time>2026-04-01T19:44:52.999Z</time></trkpt><trkpt lat="45.79919680680876" lon="11.526929995174871"><ele>1268.7142857142858</ele><time>2026-04-01T19:44:54.999Z</time></trkpt><trkpt lat="45.79919471663127" lon="11.527060221133773"><ele>1264.5714285714284</ele><time>2026-04-01T19:44:56.998Z</time></trkpt><trkpt lat="45.79919301255266" lon="11.527154138990234"><ele>1260.4285714285713</ele><time>2026-04-01T19:44:57.998Z</time></trkpt><trkpt lat="45.79918026224082" lon="11.527256754725434"><ele>1256.2857142857142</ele><time>2026-04-01T19:44:59Z</time></trkpt><trkpt lat="45.79917130735008" lon="11.527362543873165"><ele>1252.142857142857</ele><time>2026-04-01T19:45:00Z</time></trkpt><trkpt lat="45.79915512120239" lon="11.527455579752033"><ele>1248.0</ele><time>2026-04-01T19:45:01Z</time></trkpt><trkpt lat="45.799141943709635" lon="11.527573409479459"><ele>1248.0</ele><time>2026-04-01T19:45:02Z</time></trkpt><trkpt lat="45.79913522133525" lon="11.52768443314734"><ele>1248.0</ele><time>2026-04-01T19:45:03Z</time></trkpt><trkpt lat="45.79912174431222" lon="11.527806162767549"><ele>1248.0</ele><time>2026-04-01T19:45:04Z</time></trkpt><trkpt lat="45.79910855470137" lon="11.527926575623784"><ele>1248.0</ele><time>2026-04-01T19:45:05Z</time></trkpt><trkpt lat="45.799094873232995" lon="11.52805959747048"><ele>1248.0</ele><time>2026-04-01T19:45:06Z</time></trkpt><trkpt lat="45.79907920855056" lon="11.528198485665008"><ele>1248.0</ele><time>2026-04-01T19:45:07Z</time></trkpt><trkpt lat="45.799069362755986" lon="11.528344920601796"><ele>1248.4</ele><time>2026-04-01T19:45:08Z</time></trkpt><trkpt lat="45.799064371086196" lon="11.528491536382514"><ele>1248.8</ele><time>2026-04-01T19:45:09Z</time></trkpt><trkpt lat="45.79906698186816" lon="11.528625066766736"><ele>1249.2</ele><time>2026-04-01T19:45:10Z</time></trkpt><trkpt lat="45.799066304402245" lon="11.528756622123383"><ele>1249.6</ele><time>2026-04-01T19:45:11Z</time></trkpt><trkpt lat="45.79905283714838" lon="11.528883405387445"><ele>1250.0</ele><time>2026-04-01T19:45:12Z</time></trkpt><trkpt lat="45.799015339034895" lon="11.528992870462337"><ele>1250.3333333333335</ele><time>2026-04-01T19:45:13Z</time></trkpt><trkpt lat="45.79898968780793" lon="11.529113050708045"><ele>1250.6666666666667</ele><time>2026-04-01T19:45:14Z</time></trkpt><trkpt lat="45.79893517894618" lon="11.529211798463358"><ele>1251.0</ele><time>2026-04-01T19:45:15Z</time></trkpt><trkpt lat="45.79892291922124" lon="11.529327742775262"><ele>1251.3333333333333</ele><time>2026-04-01T19:45:16Z</time></trkpt><trkpt lat="45.79890422620846" lon="11.529421274856029"><ele>1251.6666666666665</ele><time>2026-04-01T19:45:17Z</time></trkpt><trkpt lat="45.79889519079899" lon="11.529526464416183"><ele>1252.0</ele><time>2026-04-01T19:45:18Z</time></trkpt><trkpt lat="45.798882781369095" lon="11.52964047093229"><ele>1253.1666666666665</ele><time>2026-04-01T19:45:19Z</time></trkpt><trkpt lat="45.79888038017709" lon="11.529753623432377"><ele>1254.3333333333333</ele><time>2026-04-01T19:45:20Z</time></trkpt><trkpt lat="45.79887442130338" lon="11.529865916416918"><ele>1255.5</ele><time>2026-04-01T19:45:21Z</time></trkpt><trkpt lat="45.79887086756768" lon="11.529984278028955"><ele>1256.6666666666667</ele><time>2026-04-01T19:45:22Z</time></trkpt><trkpt lat="45.7988718913825" lon="11.530108934480127"><ele>1257.8333333333335</ele><time>2026-04-01T19:45:23Z</time></trkpt><trkpt lat="45.798873394153865" lon="11.530237089395218"><ele>1259.0</ele><time>2026-04-01T19:45:24Z</time></trkpt><trkpt lat="45.79887702648067" lon="11.530362278414852"><ele>1258.0</ele><time>2026-04-01T19:45:25Z</time></trkpt><trkpt lat="45.79888496736497" lon="11.530485558510744"><ele>1257.0</ele><time>2026-04-01T19:45:26Z</time></trkpt><trkpt lat="45.798903503335985" lon="11.530598592460967"><ele>1256.0</ele><time>2026-04-01T19:45:27Z</time></trkpt><trkpt lat="45.798926569158056" lon="11.530696844650754"><ele>1255.0</ele><time>2026-04-01T19:45:28Z</time></trkpt><trkpt lat="45.7989449417529" lon="11.530798154534715"><ele>1254.0</ele><time>2026-04-01T19:45:29Z</time></trkpt><trkpt lat="45.799014371129914" lon="11.53086543494082"><ele>1253.0</ele><time>2026-04-01T19:45:30Z</time></trkpt><trkpt lat="45.799082315256896" lon="11.53091391499909"><ele>1253.0</ele><time>2026-04-01T19:45:31Z</time></trkpt><trkpt lat="45.7991618166502" lon="11.530938231198828"><ele>1253.0</ele><time>2026-04-01T19:45:32Z</time></trkpt><trkpt lat="45.79923774308672" lon="11.53093791668035"><ele>1253.0</ele><time>2026-04-01T19:45:33Z</time></trkpt><trkpt lat="45.799312704534366" lon="11.53094026595246"><ele>1253.0</ele><time>2026-04-01T19:45:34Z</time></trkpt><trkpt lat="45.79939142290565" lon="11.530942734401297"><ele>1253.0</ele><time>2026-04-01T19:45:35Z</time></trkpt><trkpt lat="45.799472330955496" lon="11.530947881640412"><ele>1253.0</ele><time>2026-04-01T19:45:36Z</time></trkpt><trkpt lat="45.799550637488785" lon="11.530945187913868"><ele>1254.0</ele><time>2026-04-01T19:45:37Z</time></trkpt><trkpt lat="45.79963265310534" lon="11.530943116670246"><ele>1255.0</ele><time>2026-04-01T19:45:38Z</time></trkpt><trkpt lat="45.79972052037179" lon="11.530947561436694"><ele>1256.0</ele><time>2026-04-01T19:45:39Z</time></trkpt><trkpt lat="45.799804671680135" lon="11.530947237709722"><ele>1257.0</ele><time>2026-04-01T19:45:40Z</time></trkpt><trkpt lat="45.79989077428506" lon="11.530945298236709"><ele>1258.0</ele><time>2026-04-01T19:45:41Z</time></trkpt><trkpt lat="45.79997571111245" lon="11.530948287241698"><ele>1259.0</ele><time>2026-04-01T19:45:42Z</time></trkpt><trkpt lat="45.80005324477404" lon="11.530949098588138"><ele>1259.0</ele><time>2026-04-01T19:45:43Z</time></trkpt><trkpt lat="45.800130478133084" lon="11.530948434328343"><ele>1259.0</ele><time>2026-04-01T19:45:44Z</time></trkpt><trkpt lat="45.80020250605757" lon="11.530964055846827"><ele>1259.0</ele><time>2026-04-01T19:45:45Z</time></trkpt><trkpt lat="45.80026997460976" lon="11.530994307120693"><ele>1259.0</ele><time>2026-04-01T19:45:46Z</time></trkpt><trkpt lat="45.80032283004873" lon="11.531055204189904"><ele>1259.0</ele><time>2026-04-01T19:45:47Z</time></trkpt><trkpt lat="45.80034454390036" lon="11.531146985212764"><ele>1259.0</ele><time>2026-04-01T19:45:48Z</time></trkpt><trkpt lat="45.800362066828896" lon="11.531236970528528"><ele>1259.0</ele><time>2026-04-01T19:45:49Z</time></trkpt><trkpt lat="45.800308519128656" lon="11.531326126031317"><ele>1257.5</ele><time>2026-04-01T19:45:49.999Z</time></trkpt><trkpt lat="45.80027131340459" lon="11.531434760123533"><ele>1256.0</ele><time>2026-04-01T19:45:50.999Z</time></trkpt><trkpt lat="45.80025122777187" lon="11.531543328587876"><ele>1254.5</ele><time>2026-04-01T19:45:51.999Z</time></trkpt><trkpt lat="45.80020254279916" lon="11.531650875894075"><ele>1253.0</ele><time>2026-04-01T19:45:52.999Z</time></trkpt><trkpt lat="45.800162697953894" lon="11.531757556844564"><ele>1251.5</ele><time>2026-04-01T19:45:53.999Z</time></trkpt><trkpt lat="45.8001244021706" lon="11.531858340090384"><ele>1250.0</ele><time>2026-04-01T19:45:54.999Z</time></trkpt><trkpt lat="45.80008536937474" lon="11.531958611347909"><ele>1250.0</ele><time>2026-04-01T19:45:55.999Z</time></trkpt><trkpt lat="45.800043754983264" lon="11.532055798859382"><ele>1250.0</ele><time>2026-04-01T19:45:56.999Z</time></trkpt><trkpt lat="45.800007797632134" lon="11.532150659279303"><ele>1250.0</ele><time>2026-04-01T19:45:57.999Z</time></trkpt><trkpt lat="45.79998714289483" lon="11.532237399396179"><ele>1250.0</ele><time>2026-04-01T19:45:58.999Z</time></trkpt><trkpt lat="45.80002230901448" lon="11.532406837605334"><ele>1250.0</ele><time>2026-04-01T19:46:00.999Z</time></trkpt><trkpt lat="45.80007511908774" lon="11.532469397486292"><ele>1250.0</ele><time>2026-04-01T19:46:01.999Z</time></trkpt><trkpt lat="45.80013470643409" lon="11.532508859198714"><ele>1252.2857142857144</ele><time>2026-04-01T19:46:02.999Z</time></trkpt><trkpt lat="45.80019728493743" lon="11.53254328544118"><ele>1254.5714285714287</ele><time>2026-04-01T19:46:03.999Z</time></trkpt><trkpt lat="45.80026005002837" lon="11.532583271569454"><ele>1256.857142857143</ele><time>2026-04-01T19:46:04.999Z</time></trkpt><trkpt lat="45.800325303907776" lon="11.532624352521552"><ele>1259.1428571428573</ele><time>2026-04-01T19:46:05.999Z</time></trkpt><trkpt lat="45.80039234036071" lon="11.53267243127668"><ele>1261.4285714285716</ele><time>2026-04-01T19:46:06.999Z</time></trkpt><trkpt lat="45.80046047242652" lon="11.532724438611782"><ele>1263.7142857142858</ele><time>2026-04-01T19:46:07.999Z</time></trkpt><trkpt lat="45.80052866517202" lon="11.532776192362931"><ele>1266.0</ele><time>2026-04-01T19:46:08.999Z</time></trkpt><trkpt lat="45.800602026532395" lon="11.532824123814196"><ele>1266.0</ele><time>2026-04-01T19:46:09.999Z</time></trkpt><trkpt lat="45.80067951769653" lon="11.532867178034579"><ele>1266.0</ele><time>2026-04-01T19:46:10.999Z</time></trkpt><trkpt lat="45.8007557511882" lon="11.532916894782364"><ele>1266.0</ele><time>2026-04-01T19:46:11.999Z</time></trkpt><trkpt lat="45.80084030220741" lon="11.532927880512881"><ele>1266.0</ele><time>2026-04-01T19:46:12.999Z</time></trkpt><trkpt lat="45.80092181206052" lon="11.532902839267456"><ele>1266.0</ele><time>2026-04-01T19:46:13.999Z</time></trkpt><trkpt lat="45.801000004954794" lon="11.532908355490209"><ele>1266.0</ele><time>2026-04-01T19:46:14.999Z</time></trkpt><trkpt lat="45.80106827826751" lon="11.532952518274667"><ele>1266.1666666666667</ele><time>2026-04-01T19:46:15.999Z</time></trkpt><trkpt lat="45.80113002564591" lon="11.53302201065823"><ele>1266.3333333333333</ele><time>2026-04-01T19:46:16.999Z</time></trkpt><trkpt lat="45.80118551094295" lon="11.533112599223992"><ele>1266.5</ele><time>2026-04-01T19:46:17.999Z</time></trkpt><trkpt lat="45.80123430614969" lon="11.533207951744087"><ele>1266.6666666666665</ele><time>2026-04-01T19:46:18.999Z</time></trkpt><trkpt lat="45.80128249613191" lon="11.53331074471595"><ele>1266.8333333333333</ele><time>2026-04-01T19:46:19.999Z</time></trkpt><trkpt lat="45.80132937339137" lon="11.533405305311614"><ele>1267.0</ele><time>2026-04-01T19:46:20.999Z</time></trkpt><trkpt lat="45.80138308401586" lon="11.53349080740677"><ele>1267.0</ele><time>2026-04-01T19:46:21.999Z</time></trkpt><trkpt lat="45.801450650610576" lon="11.53355632517511"><ele>1267.0</ele><time>2026-04-01T19:46:22.999Z</time></trkpt><trkpt lat="45.80152863969498" lon="11.533597018892277"><ele>1267.0</ele><time>2026-04-01T19:46:23.999Z</time></trkpt><trkpt lat="45.80161056051274" lon="11.53362186203399"><ele>1267.0</ele><time>2026-04-01T19:46:24.999Z</time></trkpt><trkpt lat="45.80169668093927" lon="11.533614558587278"><ele>1267.0</ele><time>2026-04-01T19:46:25.999Z</time></trkpt><trkpt lat="45.801782950215475" lon="11.533598877838994"><ele>1267.0</ele><time>2026-04-01T19:46:26.999Z</time></trkpt><trkpt lat="45.80187000747378" lon="11.533580733771299"><ele>1266.8</ele><time>2026-04-01T19:46:27.999Z</time></trkpt><trkpt lat="45.80196098926129" lon="11.533569504354228"><ele>1266.6</ele><time>2026-04-01T19:46:28.999Z</time></trkpt><trkpt lat="45.80205742222142" lon="11.53355485783679"><ele>1266.3999999999999</ele><time>2026-04-01T19:46:29.999Z</time></trkpt><trkpt lat="45.80215414444407" lon="11.533542215781994"><ele>1266.2</ele><time>2026-04-01T19:46:30.999Z</time></trkpt><trkpt lat="45.802245812682706" lon="11.533535089687934"><ele>1266.0</ele><time>2026-04-01T19:46:31.999Z</time></trkpt><trkpt lat="45.80233093098471" lon="11.533515277627833"><ele>1266.0</ele><time>2026-04-01T19:46:32.999Z</time></trkpt><trkpt lat="45.80240043748446" lon="11.533473877074153"><ele>1266.0</ele><time>2026-04-01T19:46:33.999Z</time></trkpt><trkpt lat="45.80245296230006" lon="11.53340634856859"><ele>1266.0</ele><time>2026-04-01T19:46:34.999Z</time></trkpt><trkpt lat="45.80249314122562" lon="11.53330428254639"><ele>1266.0</ele><time>2026-04-01T19:46:35.999Z</time></trkpt><trkpt lat="45.802522494245" lon="11.53322001041682"><ele>1266.0</ele><time>2026-04-01T19:46:36.999Z</time></trkpt><trkpt lat="45.80260437305864" lon="11.533098083916023"><ele>1266.0</ele><time>2026-04-01T19:46:38.999Z</time></trkpt><trkpt lat="45.802675596618585" lon="11.533073206930817"><ele>1267.0</ele><time>2026-04-01T19:46:39.999Z</time></trkpt><trkpt lat="45.80280040863049" lon="11.53309439675526"><ele>1268.0</ele><time>2026-04-01T19:46:41.999Z</time></trkpt><trkpt lat="45.80286649827069" lon="11.533139948562876"><ele>1269.0</ele><time>2026-04-01T19:46:42.999Z</time></trkpt><trkpt lat="45.80292386285787" lon="11.533194388063816"><ele>1270.0</ele><time>2026-04-01T19:46:43.999Z</time></trkpt><trkpt lat="45.80297758525136" lon="11.533255174984095"><ele>1271.0</ele><time>2026-04-01T19:46:44.999Z</time></trkpt><trkpt lat="45.80303701900455" lon="11.533314833378293"><ele>1272.0</ele><time>2026-04-01T19:46:45.999Z</time></trkpt><trkpt lat="45.80310450127977" lon="11.533345810859498"><ele>1272.0</ele><time>2026-04-01T19:46:46.999Z</time></trkpt><trkpt lat="45.80318289273247" lon="11.533359583276788"><ele>1272.0</ele><time>2026-04-01T19:46:47.999Z</time></trkpt><trkpt lat="45.80326671710214" lon="11.533375160049891"><ele>1272.0</ele><time>2026-04-01T19:46:48.999Z</time></trkpt><trkpt lat="45.8033548731504" lon="11.533392943493551"><ele>1272.0</ele><time>2026-04-01T19:46:49.999Z</time></trkpt><trkpt lat="45.803439220093196" lon="11.533417022198469"><ele>1272.0</ele><time>2026-04-01T19:46:50.999Z</time></trkpt><trkpt lat="45.803520305516216" lon="11.53345513287044"><ele>1272.0</ele><time>2026-04-01T19:46:51.999Z</time></trkpt><trkpt lat="45.80359572954377" lon="11.533513728359155"><ele>1271.2</ele><time>2026-04-01T19:46:52.999Z</time></trkpt><trkpt lat="45.80366504134653" lon="11.53359027460708"><ele>1270.4</ele><time>2026-04-01T19:46:53.999Z</time></trkpt><trkpt lat="45.803738807318545" lon="11.533673717335141"><ele>1269.6</ele><time>2026-04-01T19:46:54.999Z</time></trkpt><trkpt lat="45.8038130023975" lon="11.533766059153976"><ele>1268.8</ele><time>2026-04-01T19:46:55.999Z</time></trkpt><trkpt lat="45.803877924789795" lon="11.533857808479679"><ele>1268.0</ele><time>2026-04-01T19:46:56.999Z</time></trkpt><trkpt lat="45.803940984515904" lon="11.533936830762933"><ele>1268.0</ele><time>2026-04-01T19:46:57.999Z</time></trkpt><trkpt lat="45.804007144791015" lon="11.534008828860902"><ele>1268.0</ele><time>2026-04-01T19:46:58.999Z</time></trkpt><trkpt lat="45.80407654629952" lon="11.534071691841223"><ele>1268.0</ele><time>2026-04-01T19:46:59.999Z</time></trkpt><trkpt lat="45.804155441849915" lon="11.534117385868543"><ele>1268.0</ele><time>2026-04-01T19:47:00.999Z</time></trkpt><trkpt lat="45.80424179248795" lon="11.534150756898184"><ele>1268.0</ele><time>2026-04-01T19:47:01.999Z</time></trkpt><trkpt lat="45.804329179139046" lon="11.534185054048876"><ele>1268.0</ele><time>2026-04-01T19:47:02.999Z</time></trkpt><trkpt lat="45.80441456362793" lon="11.53421625325919"><ele>1268.8333333333335</ele><time>2026-04-01T19:47:03.999Z</time></trkpt><trkpt lat="45.80450687108743" lon="11.534256403375261"><ele>1269.6666666666667</ele><time>2026-04-01T19:47:05Z</time></trkpt><trkpt lat="45.80458871859571" lon="11.534308668203272"><ele>1270.5</ele><time>2026-04-01T19:47:06Z</time></trkpt><trkpt lat="45.8046655258461" lon="11.534369746605693"><ele>1271.3333333333333</ele><time>2026-04-01T19:47:07Z</time></trkpt><trkpt lat="45.804741705493704" lon="11.53440788474357"><ele>1272.1666666666665</ele><time>2026-04-01T19:47:08Z</time></trkpt><trkpt lat="45.80481459964961" lon="11.534436404081413"><ele>1273.0</ele><time>2026-04-01T19:47:09Z</time></trkpt><trkpt lat="45.80488055991961" lon="11.534453197760778"><ele>1273.0</ele><time>2026-04-01T19:47:10Z</time></trkpt><trkpt lat="45.80494370032137" lon="11.534467539586538"><ele>1273.0</ele><time>2026-04-01T19:47:11Z</time></trkpt><trkpt lat="45.80504752994102" lon="11.534514386889152"><ele>1273.0</ele><time>2026-04-01T19:47:13Z</time></trkpt><trkpt lat="45.80513187930106" lon="11.534522319947753"><ele>1273.0</ele><time>2026-04-01T19:47:15Z</time></trkpt><trkpt lat="45.80519642760009" lon="11.534534597902498"><ele>1273.0</ele><time>2026-04-01T19:47:19Z</time></trkpt><trkpt lat="45.805301552977205" lon="11.534489944222285"><ele>1273.0</ele><time>2026-04-01T19:47:22Z</time></trkpt><trkpt lat="45.805376687926206" lon="11.534353778112193"><ele>1272.6666666666665</ele><time>2026-04-01T19:47:24Z</time></trkpt><trkpt lat="45.805418032074776" lon="11.5342612487569"><ele>1272.3333333333333</ele><time>2026-04-01T19:47:25Z</time></trkpt><trkpt lat="45.80544060659937" lon="11.534167607632336"><ele>1272.0</ele><time>2026-04-01T19:47:26Z</time></trkpt><trkpt lat="45.80545589492775" lon="11.534076792322018"><ele>1271.6666666666667</ele><time>2026-04-01T19:47:27Z</time></trkpt><trkpt lat="45.805518507714204" lon="11.534052280645554"><ele>1271.3333333333335</ele><time>2026-04-01T19:47:30Z</time></trkpt><trkpt lat="45.80556932539656" lon="11.534188482921186"><ele>1271.0</ele><time>2026-04-01T19:47:33Z</time></trkpt><trkpt lat="45.80559123898147" lon="11.534339984238272"><ele>1271.0</ele><time>2026-04-01T19:47:35Z</time></trkpt><trkpt lat="45.805637824751074" lon="11.534501089116972"><ele>1271.0</ele><time>2026-04-01T19:47:37Z</time></trkpt><trkpt lat="45.805665919158734" lon="11.534599156162896"><ele>1271.0</ele><time>2026-04-01T19:47:38Z</time></trkpt><trkpt lat="45.805682666385536" lon="11.534690691314317"><ele>1271.0</ele><time>2026-04-01T19:47:39Z</time></trkpt><trkpt lat="45.80570249666984" lon="11.534793426244176"><ele>1271.0</ele><time>2026-04-01T19:47:40Z</time></trkpt><trkpt lat="45.8057223021267" lon="11.534895812979656"><ele>1271.0</ele><time>2026-04-01T19:47:41Z</time></trkpt><trkpt lat="45.805739770880386" lon="11.535000465464764"><ele>1271.857142857143</ele><time>2026-04-01T19:47:42Z</time></trkpt><trkpt lat="45.80576008549148" lon="11.535103449600458"><ele>1272.7142857142858</ele><time>2026-04-01T19:47:43Z</time></trkpt><trkpt lat="45.80577800387745" lon="11.535201411718331"><ele>1273.5714285714284</ele><time>2026-04-01T19:47:44Z</time></trkpt><trkpt lat="45.80579360489885" lon="11.535301559009651"><ele>1274.4285714285716</ele><time>2026-04-01T19:47:45Z</time></trkpt><trkpt lat="45.80581217195454" lon="11.535403307741431"><ele>1275.2857142857142</ele><time>2026-04-01T19:47:46Z</time></trkpt><trkpt lat="45.80582978626511" lon="11.535510854884675"><ele>1276.142857142857</ele><time>2026-04-01T19:47:47Z</time></trkpt><trkpt lat="45.80584683504407" lon="11.535616237470698"><ele>1277.0</ele><time>2026-04-01T19:47:48Z</time></trkpt><trkpt lat="45.80586066442325" lon="11.535723292533797"><ele>1277.5</ele><time>2026-04-01T19:47:49Z</time></trkpt><trkpt lat="45.805869590096854" lon="11.535825824512406"><ele>1278.0</ele><time>2026-04-01T19:47:50Z</time></trkpt><trkpt lat="45.80587819290039" lon="11.535923599369784"><ele>1278.5</ele><time>2026-04-01T19:47:51Z</time></trkpt><trkpt lat="45.80588483893753" lon="11.536031791144229"><ele>1279.0</ele><time>2026-04-01T19:47:52Z</time></trkpt><trkpt lat="45.8058919835717" lon="11.536134712216535"><ele>1279.5</ele><time>2026-04-01T19:47:53Z</time></trkpt><trkpt lat="45.805898181415756" lon="11.536259634111044"><ele>1280.0</ele><time>2026-04-01T19:47:54Z</time></trkpt><trkpt lat="45.80590618724424" lon="11.53637744957684"><ele>1281.1666666666667</ele><time>2026-04-01T19:47:55Z</time></trkpt><trkpt lat="45.80591698864826" lon="11.536490898297938"><ele>1282.3333333333335</ele><time>2026-04-01T19:47:56Z</time></trkpt><trkpt lat="45.805924504770786" lon="11.53660608097408"><ele>1283.5</ele><time>2026-04-01T19:47:56.999Z</time></trkpt><trkpt lat="45.8059337306648" lon="11.53673554844683"><ele>1284.6666666666667</ele><time>2026-04-01T19:47:57.999Z</time></trkpt><trkpt lat="45.8059448864361" lon="11.536865245310533"><ele>1285.8333333333333</ele><time>2026-04-01T19:47:58.999Z</time></trkpt><trkpt lat="45.80595217656634" lon="11.53697476870984"><ele>1287.0</ele><time>2026-04-01T19:47:59.999Z</time></trkpt><trkpt lat="45.80595620021992" lon="11.537090094492369"><ele>1288.0</ele><time>2026-04-01T19:48:00.999Z</time></trkpt><trkpt lat="45.80596104582468" lon="11.537204026802762"><ele>1289.0</ele><time>2026-04-01T19:48:01.999Z</time></trkpt><trkpt lat="45.805957032738974" lon="11.537305365242199"><ele>1290.0</ele><time>2026-04-01T19:48:02.999Z</time></trkpt><trkpt lat="45.80594842805304" lon="11.537410278303977"><ele>1291.0</ele><time>2026-04-01T19:48:03.999Z</time></trkpt><trkpt lat="45.805923224835595" lon="11.537562091038858"><ele>1292.0</ele><time>2026-04-01T19:48:05.999Z</time></trkpt><trkpt lat="45.80590367391572" lon="11.537710757382005"><ele>1293.0</ele><time>2026-04-01T19:48:07.999Z</time></trkpt><trkpt lat="45.80587874508976" lon="11.537877717422884"><ele>1293.75</ele><time>2026-04-01T19:48:09.999Z</time></trkpt><trkpt lat="45.805881577629556" lon="11.538045906776894"><ele>1294.5</ele><time>2026-04-01T19:48:11.999Z</time></trkpt><trkpt lat="45.805906314063755" lon="11.538199289765224"><ele>1295.25</ele><time>2026-04-01T19:48:13.999Z</time></trkpt><trkpt lat="45.80593407556481" lon="11.538362964781612"><ele>1296.0</ele><time>2026-04-01T19:48:15.999Z</time></trkpt><trkpt lat="45.80596972130929" lon="11.538529435224536"><ele>1302.75</ele><time>2026-04-01T19:48:17.999Z</time></trkpt><trkpt lat="45.80602205482621" lon="11.538683833432364"><ele>1309.5</ele><time>2026-04-01T19:48:19.999Z</time></trkpt><trkpt lat="45.80606974796545" lon="11.538829284114346"><ele>1316.25</ele><time>2026-04-01T19:48:21.999Z</time></trkpt><trkpt lat="45.806100506873875" lon="11.53899800353232"><ele>1323.0</ele><time>2026-04-01T19:48:23.999Z</time></trkpt><trkpt lat="45.80612702285937" lon="11.539170213222981"><ele>1323.2</ele><time>2026-04-01T19:48:25.999Z</time></trkpt><trkpt lat="45.80614993324097" lon="11.53936033302025"><ele>1323.4</ele><time>2026-04-01T19:48:27.999Z</time></trkpt><trkpt lat="45.80615396569359" lon="11.539478532032735"><ele>1323.6000000000001</ele><time>2026-04-01T19:48:28.999Z</time></trkpt><trkpt lat="45.80616952545" lon="11.539567854582552"><ele>1323.8000000000002</ele><time>2026-04-01T19:48:29.999Z</time></trkpt><trkpt lat="45.80619416191004" lon="11.53972558501319"><ele>1324.0</ele><time>2026-04-01T19:48:31.999Z</time></trkpt><trkpt lat="45.806254395972694" lon="11.539830666905791"><ele>1323.4</ele><time>2026-04-01T19:48:33.999Z</time></trkpt><trkpt lat="45.80634229762612" lon="11.539944715701541"><ele>1322.8000000000002</ele><time>2026-04-01T19:48:35.999Z</time></trkpt><trkpt lat="45.80642595099396" lon="11.540011550337345"><ele>1322.1999999999998</ele><time>2026-04-01T19:48:37.999Z</time></trkpt><trkpt lat="45.80652787846793" lon="11.540112833920206"><ele>1321.6</ele><time>2026-04-01T19:48:39.999Z</time></trkpt><trkpt lat="45.80662241254222" lon="11.540131884866488"><ele>1321.0</ele><time>2026-04-01T19:48:41.999Z</time></trkpt><trkpt lat="45.806725313447835" lon="11.540119396202593"><ele>1321.0</ele><time>2026-04-01T19:48:43.999Z</time></trkpt><trkpt lat="45.806818857338406" lon="11.540047206035416"><ele>1321.0</ele><time>2026-04-01T19:48:45.999Z</time></trkpt><trkpt lat="45.8068676335684" lon="11.539931713750665"><ele>1321.0</ele><time>2026-04-01T19:48:47.999Z</time></trkpt><trkpt lat="45.80690994039418" lon="11.539805863987157"><ele>1321.0</ele><time>2026-04-01T19:48:49.999Z</time></trkpt><trkpt lat="45.80693995356153" lon="11.539705881365103"><ele>1321.0</ele><time>2026-04-01T19:48:51.999Z</time></trkpt><trkpt lat="45.80699927511211" lon="11.539618532084923"><ele>1322.8333333333333</ele><time>2026-04-01T19:49:29Z</time></trkpt><trkpt lat="45.80700239329952" lon="11.539520437715934"><ele>1324.6666666666665</ele><time>2026-04-01T19:49:34Z</time></trkpt><trkpt lat="45.80703271158615" lon="11.539396489879172"><ele>1326.5</ele><time>2026-04-01T19:49:37Z</time></trkpt><trkpt lat="45.80704645563058" lon="11.53927954638362"><ele>1328.3333333333333</ele><time>2026-04-01T19:49:40Z</time></trkpt><trkpt lat="45.80706714732616" lon="11.539173582142922"><ele>1330.1666666666667</ele><time>2026-04-01T19:49:42Z</time></trkpt><trkpt lat="45.80709222177655" lon="11.539075503327009"><ele>1332.0</ele><time>2026-04-01T19:49:44Z</time></trkpt><trkpt lat="45.807099886891926" lon="11.538940967653302"><ele>1332.0</ele><time>2026-04-01T19:49:47Z</time></trkpt><trkpt lat="45.80708690610325" lon="11.538834899852453"><ele>1332.0</ele><time>2026-04-01T19:49:49Z</time></trkpt><trkpt lat="45.807089310357725" lon="11.538741733592467"><ele>1332.0</ele><time>2026-04-01T19:49:52Z</time></trkpt></trkseg><trkseg><trkpt lat="45.8071648702452" lon="11.539489645521659"><ele>1332.0</ele><time>2026-04-01T20:07:59.991Z</time></trkpt><trkpt lat="45.807151877437384" lon="11.539399040861468"><ele>1332.0</ele><time>2026-04-01T20:08:05.006Z</time></trkpt><trkpt lat="45.80707457890819" lon="11.539436033699928"><ele>1332.0</ele><time>2026-04-01T20:08:09.005Z</time></trkpt><trkpt lat="45.807044771932866" lon="11.539518382192544"><ele>1332.0</ele><time>2026-04-01T20:08:11.004Z</time></trkpt><trkpt lat="45.807035791314874" lon="11.539614263392686"><ele>1332.0</ele><time>2026-04-01T20:08:13.004Z</time></trkpt><trkpt lat="45.80699413071964" lon="11.539722940095253"><ele>1332.0</ele><time>2026-04-01T20:08:15.003Z</time></trkpt><trkpt lat="45.80694702171731" lon="11.539784290301737"><ele>1332.0</ele><time>2026-04-01T20:08:17.003Z</time></trkpt><trkpt lat="45.806894095653135" lon="11.539843467468067"><ele>1330.4285714285716</ele><time>2026-04-01T20:08:19.002Z</time></trkpt><trkpt lat="45.80691340052777" lon="11.539946757252126"><ele>1328.8571428571427</ele><time>2026-04-01T20:08:22.002Z</time></trkpt><trkpt lat="45.80698353258417" lon="11.53995103516294"><ele>1327.2857142857142</ele><time>2026-04-01T20:08:25.001Z</time></trkpt><trkpt lat="45.807029513745576" lon="11.539873449613482"><ele>1325.7142857142858</ele><time>2026-04-01T20:08:32.001Z</time></trkpt><trkpt lat="45.80708417342434" lon="11.539805755371205"><ele>1324.1428571428573</ele><time>2026-04-01T20:08:35Z</time></trkpt><trkpt lat="45.8071445069581" lon="11.539760687887032"><ele>1322.5714285714284</ele><time>2026-04-01T20:08:37Z</time></trkpt><trkpt lat="45.80721844738846" lon="11.539720151738232"><ele>1321.0</ele><time>2026-04-01T20:08:39Z</time></trkpt><trkpt lat="45.8073005725359" lon="11.539713520099971"><ele>1321.0</ele><time>2026-04-01T20:08:41Z</time></trkpt><trkpt lat="45.807386235709366" lon="11.539763536901601"><ele>1321.0</ele><time>2026-04-01T20:08:43Z</time></trkpt><trkpt lat="45.807435919716575" lon="11.539859604617797"><ele>1321.0</ele><time>2026-04-01T20:08:45Z</time></trkpt><trkpt lat="45.80745375549679" lon="11.539982424311766"><ele>1321.0</ele><time>2026-04-01T20:08:47Z</time></trkpt><trkpt lat="45.807460920211284" lon="11.540105696991304"><ele>1321.0</ele><time>2026-04-01T20:08:49Z</time></trkpt><trkpt lat="45.80748006258252" lon="11.540227881362743"><ele>1321.0</ele><time>2026-04-01T20:08:50.999Z</time></trkpt><trkpt lat="45.80750699054481" lon="11.540318283408157"><ele>1320.0</ele><time>2026-04-01T20:08:52.999Z</time></trkpt><trkpt lat="45.807543910376666" lon="11.540407861112799"><ele>1319.0</ele><time>2026-04-01T20:08:54.999Z</time></trkpt><trkpt lat="45.807613334240344" lon="11.540489385459471"><ele>1318.0</ele><time>2026-04-01T20:08:58.999Z</time></trkpt><trkpt lat="45.80768138260639" lon="11.54050553942052"><ele>1317.0</ele><time>2026-04-01T20:09:01.999Z</time></trkpt><trkpt lat="45.80776858950038" lon="11.540559194050877"><ele>1316.0</ele><time>2026-04-01T20:09:03.999Z</time></trkpt><trkpt lat="45.807817315179925" lon="11.540629498548963"><ele>1315.0</ele><time>2026-04-01T20:09:05.999Z</time></trkpt><trkpt lat="45.807872235615584" lon="11.54071837331206"><ele>1314.0</ele><time>2026-04-01T20:09:07.999Z</time></trkpt><trkpt lat="45.807881006084074" lon="11.54082506984439"><ele>1313.0</ele><time>2026-04-01T20:09:09.999Z</time></trkpt><trkpt lat="45.80788011944259" lon="11.540927775277847"><ele>1312.0</ele><time>2026-04-01T20:09:11.999Z</time></trkpt><trkpt lat="45.80790661976029" lon="11.5411619689106"><ele>1311.0</ele><time>2026-04-01T20:09:13.999Z</time></trkpt><trkpt lat="45.80788133717619" lon="11.541264281892659"><ele>1310.0</ele><time>2026-04-01T20:09:15.999Z</time></trkpt><trkpt lat="45.80786353168242" lon="11.541368504331228"><ele>1308.5</ele><time>2026-04-01T20:09:17.999Z</time></trkpt><trkpt lat="45.807849522301616" lon="11.541472913390335"><ele>1307.0</ele><time>2026-04-01T20:09:20.999Z</time></trkpt><trkpt lat="45.80782301905346" lon="11.54161066832758"><ele>1305.5</ele><time>2026-04-01T20:09:23.999Z</time></trkpt><trkpt lat="45.807803572716054" lon="11.54172916403717"><ele>1304.0</ele><time>2026-04-01T20:09:26.998Z</time></trkpt><trkpt lat="45.80780638215429" lon="11.541854140723787"><ele>1302.5</ele><time>2026-04-01T20:09:29.998Z</time></trkpt><trkpt lat="45.80787592792953" lon="11.541947793346159"><ele>1301.0</ele><time>2026-04-01T20:09:32.998Z</time></trkpt><trkpt lat="45.80793685942208" lon="11.54198031915461"><ele>1301.0</ele><time>2026-04-01T20:09:34.998Z</time></trkpt><trkpt lat="45.808017339955654" lon="11.542025310451306"><ele>1301.0</ele><time>2026-04-01T20:09:37.998Z</time></trkpt><trkpt lat="45.808080890690015" lon="11.542045700311164"><ele>1301.0</ele><time>2026-04-01T20:09:39.998Z</time></trkpt><trkpt lat="45.80815924966831" lon="11.542074844998027"><ele>1301.0</ele><time>2026-04-01T20:09:42.998Z</time></trkpt><trkpt lat="45.80823521018433" lon="11.542095507066492"><ele>1301.0</ele><time>2026-04-01T20:09:45.998Z</time></trkpt><trkpt lat="45.808298516052176" lon="11.542112811682536"><ele>1301.0</ele><time>2026-04-01T20:09:47.998Z</time></trkpt><trkpt lat="45.80836789833546" lon="11.542151068341829"><ele>1301.0</ele><time>2026-04-01T20:09:49.998Z</time></trkpt><trkpt lat="45.80842851585256" lon="11.542214593998802"><ele>1300.7142857142858</ele><time>2026-04-01T20:09:51.998Z</time></trkpt><trkpt lat="45.808462548133704" lon="11.542296172153376"><ele>1300.4285714285716</ele><time>2026-04-01T20:09:53.998Z</time></trkpt><trkpt lat="45.808532535013825" lon="11.542309089231724"><ele>1300.1428571428573</ele><time>2026-04-01T20:09:56.998Z</time></trkpt><trkpt lat="45.808596373005784" lon="11.542346328735677"><ele>1299.857142857143</ele><time>2026-04-01T20:10:00.998Z</time></trkpt><trkpt lat="45.80865944793147" lon="11.542390341501783"><ele>1299.5714285714287</ele><time>2026-04-01T20:10:03.998Z</time></trkpt><trkpt lat="45.808743267239315" lon="11.542337937223591"><ele>1299.2857142857144</ele><time>2026-04-01T20:10:08Z</time></trkpt><trkpt lat="45.80872846648582" lon="11.542223693571735"><ele>1299.0</ele><time>2026-04-01T20:10:11Z</time></trkpt><trkpt lat="45.80865985233771" lon="11.542183898864097"><ele>1299.0</ele><time>2026-04-01T20:10:15Z</time></trkpt><trkpt lat="45.8086455576763" lon="11.542285792026943"><ele>1299.0</ele><time>2026-04-01T20:10:18Z</time></trkpt><trkpt lat="45.80864602013366" lon="11.542382318264728"><ele>1299.0</ele><time>2026-04-01T20:10:22Z</time></trkpt><trkpt lat="45.808722440015835" lon="11.542466514224115"><ele>1299.0</ele><time>2026-04-01T20:10:26Z</time></trkpt><trkpt lat="45.808801164637394" lon="11.542422214062466"><ele>1299.0</ele><time>2026-04-01T20:10:29Z</time></trkpt><trkpt lat="45.80879819945888" lon="11.542321412498245"><ele>1299.0</ele><time>2026-04-01T20:10:31Z</time></trkpt><trkpt lat="45.80875635345699" lon="11.542241845091276"><ele>1299.0</ele><time>2026-04-01T20:10:33Z</time></trkpt><trkpt lat="45.80870570523821" lon="11.542128834291185"><ele>1299.0</ele><time>2026-04-01T20:10:36Z</time></trkpt><trkpt lat="45.80866972235182" lon="11.542029783769244"><ele>1299.0</ele><time>2026-04-01T20:10:39Z</time></trkpt><trkpt lat="45.80864107037227" lon="11.541914650436171"><ele>1299.0</ele><time>2026-04-01T20:10:42Z</time></trkpt><trkpt lat="45.80868753076304" lon="11.541842981431994"><ele>1299.0</ele><time>2026-04-01T20:10:45Z</time></trkpt><trkpt lat="45.808759992812384" lon="11.541851088949215"><ele>1299.0</ele><time>2026-04-01T20:10:47.999Z</time></trkpt><trkpt lat="45.80881128190495" lon="11.541914571006481"><ele>1299.0000000000002</ele><time>2026-04-01T20:10:49.999Z</time></trkpt><trkpt lat="45.808853147212275" lon="11.541995356999106"><ele>1299.0</ele><time>2026-04-01T20:10:52.999Z</time></trkpt><trkpt lat="45.80890770986223" lon="11.542057975426552"><ele>1299.0</ele><time>2026-04-01T20:10:56.999Z</time></trkpt><trkpt lat="45.80896313311282" lon="11.542124769065024"><ele>1299.0</ele><time>2026-04-01T20:10:59.999Z</time></trkpt><trkpt lat="45.809013640586635" lon="11.54221145966889"><ele>1299.0</ele><time>2026-04-01T20:11:01.999Z</time></trkpt><trkpt lat="45.80906586935589" lon="11.542306404630388"><ele>1299.0000000000002</ele><time>2026-04-01T20:11:04.999Z</time></trkpt><trkpt lat="45.809117083668234" lon="11.542358957721127"><ele>1299.0</ele><time>2026-04-01T20:11:06.999Z</time></trkpt><trkpt lat="45.80918072602191" lon="11.542401994205202"><ele>1299.0</ele><time>2026-04-01T20:11:09.999Z</time></trkpt><trkpt lat="45.809255690841475" lon="11.5424178123827"><ele>1299.0</ele><time>2026-04-01T20:11:13.999Z</time></trkpt><trkpt lat="45.80932093308757" lon="11.54240099190465"><ele>1299.0</ele><time>2026-04-01T20:11:15.999Z</time></trkpt><trkpt lat="45.809365396078555" lon="11.54231300547939"><ele>1299.0</ele><time>2026-04-01T20:11:17.999Z</time></trkpt><trkpt lat="45.80939277188505" lon="11.542221092141238"><ele>1299.0</ele><time>2026-04-01T20:11:19.999Z</time></trkpt><trkpt lat="45.80940647590916" lon="11.542077465757078"><ele>1299.0</ele><time>2026-04-01T20:11:22.999Z</time></trkpt><trkpt lat="45.80946791776513" lon="11.542010043757157"><ele>1294.5</ele><time>2026-04-01T20:11:25.999Z</time></trkpt><trkpt lat="45.80951862534568" lon="11.541893513052518"><ele>1290.0</ele><time>2026-04-01T20:11:28.999Z</time></trkpt><trkpt lat="45.80959635700552" lon="11.541620226971128"><ele>1285.5</ele><time>2026-04-01T20:11:29.999Z</time></trkpt><trkpt lat="45.80969069107803" lon="11.541572674539468"><ele>1281.0</ele><time>2026-04-01T20:11:31.999Z</time></trkpt><trkpt lat="45.80978984627614" lon="11.541532131949696"><ele>1281.0</ele><time>2026-04-01T20:11:33.999Z</time></trkpt><trkpt lat="45.81000111331468" lon="11.541552446681832"><ele>1281.0</ele><time>2026-04-01T20:11:37.999Z</time></trkpt><trkpt lat="45.8101095978709" lon="11.541566683243126"><ele>1281.0</ele><time>2026-04-01T20:11:39.998Z</time></trkpt><trkpt lat="45.81025726954595" lon="11.541568916649735"><ele>1279.5</ele><time>2026-04-01T20:11:44.998Z</time></trkpt><trkpt lat="45.81034052629845" lon="11.541551381022"><ele>1278.0</ele><time>2026-04-01T20:11:47.998Z</time></trkpt><trkpt lat="45.810424127817015" lon="11.541557280284588"><ele>1276.5</ele><time>2026-04-01T20:11:50.998Z</time></trkpt><trkpt lat="45.81052724101169" lon="11.541540151864911"><ele>1275.0</ele><time>2026-04-01T20:11:53.998Z</time></trkpt><trkpt lat="45.810594530258875" lon="11.541549538983723"><ele>1273.5</ele><time>2026-04-01T20:11:58.998Z</time></trkpt><trkpt lat="45.810665971628076" lon="11.541565641137101"><ele>1272.0</ele><time>2026-04-01T20:12:01.998Z</time></trkpt><trkpt lat="45.810757575844654" lon="11.541591600633161"><ele>1272.0</ele><time>2026-04-01T20:12:03.998Z</time></trkpt><trkpt lat="45.81083334992733" lon="11.541585963735772"><ele>1272.0</ele><time>2026-04-01T20:12:05.998Z</time></trkpt><trkpt lat="45.81090249693331" lon="11.541584843408762"><ele>1272.0</ele><time>2026-04-01T20:12:07.998Z</time></trkpt><trkpt lat="45.81096540784219" lon="11.541593520514336"><ele>1272.0</ele><time>2026-04-01T20:12:09.998Z</time></trkpt><trkpt lat="45.811042299881954" lon="11.541586745665116"><ele>1272.0</ele><time>2026-04-01T20:12:14Z</time></trkpt><trkpt lat="45.81111098263629" lon="11.541588977235495"><ele>1272.0</ele><time>2026-04-01T20:12:18Z</time></trkpt><trkpt lat="45.81118466668508" lon="11.541572226624567"><ele>1272.0</ele><time>2026-04-01T20:12:20Z</time></trkpt><trkpt lat="45.81125136282306" lon="11.541561675446992"><ele>1271.4285714285713</ele><time>2026-04-01T20:12:22Z</time></trkpt><trkpt lat="45.8113272581082" lon="11.541559081794365"><ele>1270.857142857143</ele><time>2026-04-01T20:12:24Z</time></trkpt><trkpt lat="45.811401022491204" lon="11.541553303372915"><ele>1270.2857142857142</ele><time>2026-04-01T20:12:26Z</time></trkpt><trkpt lat="45.81147371106587" lon="11.541562606927702"><ele>1269.7142857142858</ele><time>2026-04-01T20:12:28Z</time></trkpt><trkpt lat="45.81153582703484" lon="11.54158326716026"><ele>1269.142857142857</ele><time>2026-04-01T20:12:30Z</time></trkpt><trkpt lat="45.81159289286271" lon="11.54164319887431"><ele>1268.5714285714287</ele><time>2026-04-01T20:12:32Z</time></trkpt><trkpt lat="45.81165239114927" lon="11.54160469793206"><ele>1268.0</ele><time>2026-04-01T20:15:45.999Z</time></trkpt><trkpt lat="45.81169022534332" lon="11.541510215287097"><ele>1268.0</ele><time>2026-04-01T20:18:41Z</time></trkpt><trkpt lat="45.8116599132853" lon="11.541637217468907"><ele>1268.0</ele><time>2026-04-01T20:19:29.999Z</time></trkpt><trkpt lat="45.81159711457149" lon="11.541599751285352"><ele>1268.0</ele><time>2026-04-01T20:21:08Z</time></trkpt><trkpt lat="45.81157926157144" lon="11.54151143973796"><ele>1268.0</ele><time>2026-04-01T20:25:03Z</time></trkpt><trkpt lat="45.811508201170405" lon="11.541548636461322"><ele>1268.0</ele><time>2026-04-01T20:25:23Z</time></trkpt><trkpt lat="45.81145461746652" lon="11.54159951076008"><ele>1268.0</ele><time>2026-04-01T20:26:12.999Z</time></trkpt><trkpt lat="45.81140897119356" lon="11.541537234239943"><ele>1268.0</ele><time>2026-04-01T20:26:22.999Z</time></trkpt><trkpt lat="45.811349160662424" lon="11.541569070457331"><ele>1268.0</ele><time>2026-04-01T20:26:31.998Z</time></trkpt><trkpt lat="45.81127472032853" lon="11.541581230484164"><ele>1268.0</ele><time>2026-04-01T20:26:35.998Z</time></trkpt><trkpt lat="45.811196168817325" lon="11.541581345392409"><ele>1268.0</ele><time>2026-04-01T20:26:37.998Z</time></trkpt><trkpt lat="45.81111848791135" lon="11.541566527811328"><ele>1268.0</ele><time>2026-04-01T20:26:40.998Z</time></trkpt><trkpt lat="45.8110208234383" lon="11.541588391989862"><ele>1268.0</ele><time>2026-04-01T20:26:42.998Z</time></trkpt><trkpt lat="45.81095397097541" lon="11.541588277795487"><ele>1268.0</ele><time>2026-04-01T20:26:44.998Z</time></trkpt><trkpt lat="45.81085972537584" lon="11.541597429869014"><ele>1268.5714285714287</ele><time>2026-04-01T20:26:47.998Z</time></trkpt><trkpt lat="45.810796590344914" lon="11.541583441149067"><ele>1269.142857142857</ele><time>2026-04-01T20:26:49.998Z</time></trkpt><trkpt lat="45.810721125385456" lon="11.541548206098343"><ele>1269.7142857142858</ele><time>2026-04-01T20:26:51.998Z</time></trkpt><trkpt lat="45.8106336381601" lon="11.541549493298229"><ele>1270.2857142857142</ele><time>2026-04-01T20:26:53.998Z</time></trkpt><trkpt lat="45.81056796243106" lon="11.541555216169169"><ele>1270.857142857143</ele><time>2026-04-01T20:26:56Z</time></trkpt><trkpt lat="45.81049516927798" lon="11.541536249108779"><ele>1271.4285714285713</ele><time>2026-04-01T20:26:58Z</time></trkpt><trkpt lat="45.81042022267151" lon="11.54153731143498"><ele>1272.0</ele><time>2026-04-01T20:27:00Z</time></trkpt><trkpt lat="45.810345970378705" lon="11.541544811604094"><ele>1272.0</ele><time>2026-04-01T20:27:02Z</time></trkpt><trkpt lat="45.81027264827767" lon="11.541555476332126"><ele>1272.0</ele><time>2026-04-01T20:27:04Z</time></trkpt><trkpt lat="45.81020713865958" lon="11.541563344378378"><ele>1272.0</ele><time>2026-04-01T20:27:06Z</time></trkpt><trkpt lat="45.81011615029781" lon="11.541559836670041"><ele>1272.0</ele><time>2026-04-01T20:27:09Z</time></trkpt><trkpt lat="45.810036029529925" lon="11.541540932784345"><ele>1272.0</ele><time>2026-04-01T20:27:11Z</time></trkpt><trkpt lat="45.80996549059775" lon="11.541531384681672"><ele>1272.0</ele><time>2026-04-01T20:27:13Z</time></trkpt><trkpt lat="45.809899626810676" lon="11.54152227269917"><ele>1272.0</ele><time>2026-04-01T20:27:15Z</time></trkpt><trkpt lat="45.80980231100737" lon="11.541537776955508"><ele>1273.8</ele><time>2026-04-01T20:27:17Z</time></trkpt><trkpt lat="45.809697105123185" lon="11.541553794425571"><ele>1275.6</ele><time>2026-04-01T20:27:19Z</time></trkpt><trkpt lat="45.80959035271189" lon="11.541591492591945"><ele>1277.3999999999999</ele><time>2026-04-01T20:27:21Z</time></trkpt><trkpt lat="45.809508704954254" lon="11.541688852831795"><ele>1279.2</ele><time>2026-04-01T20:27:23Z</time></trkpt><trkpt lat="45.80943691608123" lon="11.541803124543048"><ele>1281.0</ele><time>2026-04-01T20:27:25Z</time></trkpt><trkpt lat="45.80938916398519" lon="11.54195982744467"><ele>1283.6666666666667</ele><time>2026-04-01T20:27:27Z</time></trkpt><trkpt lat="45.80938222511064" lon="11.542066530179042"><ele>1286.3333333333333</ele><time>2026-04-01T20:27:29Z</time></trkpt><trkpt lat="45.809364925795016" lon="11.542170315688361"><ele>1289.0</ele><time>2026-04-01T20:27:32Z</time></trkpt><trkpt lat="45.809316792760484" lon="11.542312597469929"><ele>1291.6666666666665</ele><time>2026-04-01T20:27:35Z</time></trkpt><trkpt lat="45.809232489614324" lon="11.542370675372513"><ele>1294.3333333333333</ele><time>2026-04-01T20:27:37Z</time></trkpt><trkpt lat="45.809156603933836" lon="11.542329457271059"><ele>1297.0</ele><time>2026-04-01T20:27:39.999Z</time></trkpt><trkpt lat="45.80908047072155" lon="11.542254138947323"><ele>1297.3333333333333</ele><time>2026-04-01T20:27:43.999Z</time></trkpt><trkpt lat="45.80902810577872" lon="11.542201983055739"><ele>1297.6666666666665</ele><time>2026-04-01T20:27:45.999Z</time></trkpt><trkpt lat="45.808950538181236" lon="11.542134725010785"><ele>1298.0</ele><time>2026-04-01T20:27:48.999Z</time></trkpt><trkpt lat="45.80890310300757" lon="11.5420387766593"><ele>1298.3333333333333</ele><time>2026-04-01T20:27:51.999Z</time></trkpt><trkpt lat="45.80878638521819" lon="11.541999555119537"><ele>1298.6666666666667</ele><time>2026-04-01T20:27:54.999Z</time></trkpt><trkpt lat="45.80879355792265" lon="11.542102544901187"><ele>1299.0</ele><time>2026-04-01T20:28:00.999Z</time></trkpt><trkpt lat="45.80880240134135" lon="11.542258416787348"><ele>1299.0</ele><time>2026-04-01T20:28:02.999Z</time></trkpt><trkpt lat="45.808836756964446" lon="11.542353146219794"><ele>1299.0</ele><time>2026-04-01T20:28:03.999Z</time></trkpt><trkpt lat="45.80879493650529" lon="11.542461317761475"><ele>1299.0</ele><time>2026-04-01T20:28:05.999Z</time></trkpt><trkpt lat="45.808698956312604" lon="11.542446011239653"><ele>1299.0</ele><time>2026-04-01T20:28:08.999Z</time></trkpt><trkpt lat="45.808602466832376" lon="11.542358616781154"><ele>1299.0</ele><time>2026-04-01T20:28:10.999Z</time></trkpt><trkpt lat="45.80853791948139" lon="11.542301992806413"><ele>1299.0</ele><time>2026-04-01T20:28:12.999Z</time></trkpt><trkpt lat="45.80847110989367" lon="11.542226005219307"><ele>1299.4</ele><time>2026-04-01T20:28:14.999Z</time></trkpt><trkpt lat="45.808387871641344" lon="11.542151110357322"><ele>1299.8000000000002</ele><time>2026-04-01T20:28:16.999Z</time></trkpt><trkpt lat="45.808280290968405" lon="11.542100442623614"><ele>1300.1999999999998</ele><time>2026-04-01T20:28:18.999Z</time></trkpt><trkpt lat="45.80816983745345" lon="11.54206466463876"><ele>1300.6</ele><time>2026-04-01T20:28:20.999Z</time></trkpt><trkpt lat="45.80806022218086" lon="11.542012624504641"><ele>1301.0</ele><time>2026-04-01T20:28:22.999Z</time></trkpt><trkpt lat="45.80796634604845" lon="11.541989090252109"><ele>1301.0</ele><time>2026-04-01T20:28:24.999Z</time></trkpt><trkpt lat="45.80786822236145" lon="11.541915468400092"><ele>1301.0</ele><time>2026-04-01T20:28:26.999Z</time></trkpt><trkpt lat="45.80780679064488" lon="11.541788638100924"><ele>1301.0</ele><time>2026-04-01T20:28:28.999Z</time></trkpt><trkpt lat="45.80781920658248" lon="11.54162533050123"><ele>1301.0</ele><time>2026-04-01T20:28:30.999Z</time></trkpt><trkpt lat="45.80785624297535" lon="11.541456388353163"><ele>1301.0</ele><time>2026-04-01T20:28:32.998Z</time></trkpt><trkpt lat="45.80788253853144" lon="11.5412849759734"><ele>1301.0</ele><time>2026-04-01T20:28:34.998Z</time></trkpt><trkpt lat="45.80790764202438" lon="11.541191815290489"><ele>1301.0</ele><time>2026-04-01T20:28:35.998Z</time></trkpt><trkpt lat="45.807923491975686" lon="11.5410642388672"><ele>1301.0</ele><time>2026-04-01T20:28:36.998Z</time></trkpt><trkpt lat="45.80794475520087" lon="11.540975463221187"><ele>1301.0</ele><time>2026-04-01T20:28:37.998Z</time></trkpt><trkpt lat="45.807955585947504" lon="11.540882057778301"><ele>1301.0</ele><time>2026-04-01T20:28:38.998Z</time></trkpt><trkpt lat="45.80794830093081" lon="11.54070808636709"><ele>1302.5</ele><time>2026-04-01T20:28:40.998Z</time></trkpt><trkpt lat="45.80787389480738" lon="11.540586520149382"><ele>1304.0</ele><time>2026-04-01T20:28:42.998Z</time></trkpt><trkpt lat="45.807764724123636" lon="11.54053890035299"><ele>1305.5</ele><time>2026-04-01T20:28:44.998Z</time></trkpt><trkpt lat="45.80770313316305" lon="11.540513971728902"><ele>1307.0</ele><time>2026-04-01T20:28:45.998Z</time></trkpt><trkpt lat="45.807641983782084" lon="11.540484033750696"><ele>1308.5</ele><time>2026-04-01T20:28:46.998Z</time></trkpt><trkpt lat="45.80757301440889" lon="11.540394794882223"><ele>1310.0</ele><time>2026-04-01T20:28:48.998Z</time></trkpt><trkpt lat="45.80752041585226" lon="11.540252577271037"><ele>1312.2</ele><time>2026-04-01T20:28:50.998Z</time></trkpt><trkpt lat="45.8074728031934" lon="11.540102239206265"><ele>1314.4</ele><time>2026-04-01T20:28:52.998Z</time></trkpt><trkpt lat="45.80744747137869" lon="11.539948213661576"><ele>1316.6</ele><time>2026-04-01T20:28:54.998Z</time></trkpt><trkpt lat="45.8074059739715" lon="11.53980675500083"><ele>1318.8</ele><time>2026-04-01T20:28:56.998Z</time></trkpt><trkpt lat="45.807341581143845" lon="11.539723745228446"><ele>1321.0</ele><time>2026-04-01T20:28:58.998Z</time></trkpt><trkpt lat="45.807225915991275" lon="11.539708557762266"><ele>1321.0</ele><time>2026-04-01T20:29:00.998Z</time></trkpt><trkpt lat="45.80711329530009" lon="11.539759111048776"><ele>1321.0</ele><time>2026-04-01T20:29:03Z</time></trkpt><trkpt lat="45.80705963066687" lon="11.53983043200317"><ele>1321.0</ele><time>2026-04-01T20:29:04Z</time></trkpt><trkpt lat="45.80697416010271" lon="11.53992286202924"><ele>1321.0</ele><time>2026-04-01T20:29:06Z</time></trkpt><trkpt lat="45.80690384378022" lon="11.539941351706982"><ele>1321.0</ele><time>2026-04-01T20:29:08Z</time></trkpt><trkpt lat="45.80684339050166" lon="11.540014766459736"><ele>1321.0</ele><time>2026-04-01T20:29:12Z</time></trkpt><trkpt lat="45.80677540458396" lon="11.540077855091461"><ele>1321.0</ele><time>2026-04-01T20:29:16Z</time></trkpt><trkpt lat="45.806708949246215" lon="11.540105305940498"><ele>1321.0</ele><time>2026-04-01T20:29:18Z</time></trkpt><trkpt lat="45.80664466946101" lon="11.540109995883446"><ele>1321.0</ele><time>2026-04-01T20:29:20Z</time></trkpt><trkpt lat="45.80655173585479" lon="11.540071885571358"><ele>1321.0</ele><time>2026-04-01T20:29:22Z</time></trkpt><trkpt lat="45.80646166365969" lon="11.540022008986648"><ele>1321.0</ele><time>2026-04-01T20:29:24Z</time></trkpt><trkpt lat="45.80639759472294" lon="11.539985768283142"><ele>1321.0</ele><time>2026-04-01T20:29:27Z</time></trkpt><trkpt lat="45.806315225097805" lon="11.539932489624546"><ele>1321.0</ele><time>2026-04-01T20:29:31Z</time></trkpt><trkpt lat="45.806277897601674" lon="11.539789149190952"><ele>1321.0</ele><time>2026-04-01T20:29:32Z</time></trkpt><trkpt lat="45.806259886755846" lon="11.539670597662676"><ele>1321.0</ele><time>2026-04-01T20:29:34.999Z</time></trkpt><trkpt lat="45.806249988323636" lon="11.53951331220131"><ele>1321.0</ele><time>2026-04-01T20:29:36.999Z</time></trkpt><trkpt lat="45.806238006942" lon="11.539387314118747"><ele>1321.0</ele><time>2026-04-01T20:29:37.999Z</time></trkpt><trkpt lat="45.8061955219873" lon="11.539217124838032"><ele>1321.5</ele><time>2026-04-01T20:29:39.999Z</time></trkpt><trkpt lat="45.80615787681499" lon="11.539059869255286"><ele>1322.0</ele><time>2026-04-01T20:29:41.999Z</time></trkpt><trkpt lat="45.80610408258197" lon="11.538906987824573"><ele>1322.5</ele><time>2026-04-01T20:29:43.999Z</time></trkpt><trkpt lat="45.80607063451291" lon="11.538745223148553"><ele>1323.0</ele><time>2026-04-01T20:29:45.999Z</time></trkpt><trkpt lat="45.80604559005797" lon="11.538607089483127"><ele>1323.0</ele><time>2026-04-01T20:29:47.999Z</time></trkpt><trkpt lat="45.806007839105746" lon="11.538459818695395"><ele>1323.0</ele><time>2026-04-01T20:29:49.999Z</time></trkpt><trkpt lat="45.80597110209031" lon="11.538303285625132"><ele>1323.0</ele><time>2026-04-01T20:29:51.999Z</time></trkpt><trkpt lat="45.805950017469264" lon="11.538211356409722"><ele>1323.0</ele><time>2026-04-01T20:29:52.999Z</time></trkpt><trkpt lat="45.805923564398" lon="11.538087143049024"><ele>1323.0</ele><time>2026-04-01T20:29:53.999Z</time></trkpt><trkpt lat="45.80590409915463" lon="11.537936973240807"><ele>1317.0</ele><time>2026-04-01T20:29:55.999Z</time></trkpt><trkpt lat="45.80591461833125" lon="11.537818072003358"><ele>1311.0</ele><time>2026-04-01T20:29:56.999Z</time></trkpt><trkpt lat="45.805925015319744" lon="11.537654285077185"><ele>1305.0</ele><time>2026-04-01T20:29:58.999Z</time></trkpt><trkpt lat="45.80593643160361" lon="11.537565113545314"><ele>1299.0</ele><time>2026-04-01T20:29:59.999Z</time></trkpt><trkpt lat="45.80595349662428" lon="11.537453872673904"><ele>1293.0</ele><time>2026-04-01T20:30:00.999Z</time></trkpt><trkpt lat="45.80598287233019" lon="11.537277588660942"><ele>1293.0</ele><time>2026-04-01T20:30:01.999Z</time></trkpt><trkpt lat="45.80598390907235" lon="11.537170595104573"><ele>1293.0</ele><time>2026-04-01T20:30:02.999Z</time></trkpt><trkpt lat="45.805980827782854" lon="11.537008794512092"><ele>1293.0</ele><time>2026-04-01T20:30:03.999Z</time></trkpt><trkpt lat="45.805973335128506" lon="11.536867397866235"><ele>1293.0</ele><time>2026-04-01T20:30:04.999Z</time></trkpt><trkpt lat="45.80596428293642" lon="11.536723162874775"><ele>1293.0</ele><time>2026-04-01T20:30:05.999Z</time></trkpt><trkpt lat="45.805948660313405" lon="11.536508343462216"><ele>1291.5</ele><time>2026-04-01T20:30:07.999Z</time></trkpt><trkpt lat="45.8059539016762" lon="11.536333470675629"><ele>1290.0</ele><time>2026-04-01T20:30:08.999Z</time></trkpt><trkpt lat="45.80595238141064" lon="11.536131728019395"><ele>1288.5</ele><time>2026-04-01T20:30:09.999Z</time></trkpt><trkpt lat="45.805903551125844" lon="11.536018884559999"><ele>1287.0</ele><time>2026-04-01T20:30:10.999Z</time></trkpt><trkpt lat="45.80589809355275" lon="11.535857428401348"><ele>1285.25</ele><time>2026-04-01T20:30:11.999Z</time></trkpt><trkpt lat="45.80588689719909" lon="11.535718344204495"><ele>1283.5</ele><time>2026-04-01T20:30:12.999Z</time></trkpt><trkpt lat="45.805845009920205" lon="11.53549558641976"><ele>1281.75</ele><time>2026-04-01T20:30:14.999Z</time></trkpt><trkpt lat="45.80583187061298" lon="11.535286588569413"><ele>1280.0</ele><time>2026-04-01T20:30:15.999Z</time></trkpt><trkpt lat="45.80580660400781" lon="11.535146287041403"><ele>1279.5</ele><time>2026-04-01T20:30:16.999Z</time></trkpt><trkpt lat="45.80577548224071" lon="11.534984631264786"><ele>1279.0</ele><time>2026-04-01T20:30:17.999Z</time></trkpt><trkpt lat="45.80574809781324" lon="11.534863423483937"><ele>1278.5</ele><time>2026-04-01T20:30:19.999Z</time></trkpt><trkpt lat="45.80572485442705" lon="11.534753004480667"><ele>1278.0</ele><time>2026-04-01T20:30:20.999Z</time></trkpt><trkpt lat="45.80570603756296" lon="11.534665531800359"><ele>1277.5</ele><time>2026-04-01T20:30:21.999Z</time></trkpt><trkpt lat="45.8056859030907" lon="11.53456493356683"><ele>1277.0</ele><time>2026-04-01T20:30:22.999Z</time></trkpt><trkpt lat="45.80564969016198" lon="11.534372064458992"><ele>1275.8</ele><time>2026-04-01T20:30:24.999Z</time></trkpt><trkpt lat="45.80563217224464" lon="11.534274441181656"><ele>1274.6</ele><time>2026-04-01T20:30:25.999Z</time></trkpt><trkpt lat="45.805568614965274" lon="11.534158736244162"><ele>1273.3999999999999</ele><time>2026-04-01T20:30:27.999Z</time></trkpt><trkpt lat="45.80551626293811" lon="11.534101963430762"><ele>1272.2</ele><time>2026-04-01T20:30:28.999Z</time></trkpt><trkpt lat="45.80540549254104" lon="11.53423258957269"><ele>1271.0</ele><time>2026-04-01T20:30:31.999Z</time></trkpt><trkpt lat="45.80535154015297" lon="11.534375348836113"><ele>1271.0</ele><time>2026-04-01T20:30:33.998Z</time></trkpt><trkpt lat="45.80527863582212" lon="11.534518407929692"><ele>1271.0</ele><time>2026-04-01T20:30:37.998Z</time></trkpt><trkpt lat="45.8051313902879" lon="11.534488541406537"><ele>1271.0</ele><time>2026-04-01T20:30:39.998Z</time></trkpt><trkpt lat="45.80506333799397" lon="11.534455871418963"><ele>1271.0</ele><time>2026-04-01T20:30:40.998Z</time></trkpt><trkpt lat="45.80499482131644" lon="11.534433513601865"><ele>1271.0</ele><time>2026-04-01T20:30:41.998Z</time></trkpt><trkpt lat="45.80492814673187" lon="11.534389424163214"><ele>1271.3333333333335</ele><time>2026-04-01T20:30:42.998Z</time></trkpt><trkpt lat="45.80485078979588" lon="11.534405929102164"><ele>1271.6666666666667</ele><time>2026-04-01T20:30:43.998Z</time></trkpt><trkpt lat="45.80478624608904" lon="11.534379565715973"><ele>1272.0</ele><time>2026-04-01T20:30:44.998Z</time></trkpt><trkpt lat="45.80471000846681" lon="11.534336234646917"><ele>1272.3333333333333</ele><time>2026-04-01T20:30:45.998Z</time></trkpt><trkpt lat="45.80464555439436" lon="11.534263324071137"><ele>1272.6666666666665</ele><time>2026-04-01T20:30:46.998Z</time></trkpt><trkpt lat="45.8045834442072" lon="11.534224717130874"><ele>1273.0</ele><time>2026-04-01T20:30:47.998Z</time></trkpt><trkpt lat="45.80450324401438" lon="11.534196159707516"><ele>1273.0</ele><time>2026-04-01T20:30:48.998Z</time></trkpt><trkpt lat="45.804427966902" lon="11.534163034090867"><ele>1273.0</ele><time>2026-04-01T20:30:49.998Z</time></trkpt><trkpt lat="45.80435624371477" lon="11.534126171198375"><ele>1273.0</ele><time>2026-04-01T20:30:50.998Z</time></trkpt><trkpt lat="45.80427461598048" lon="11.534084235521243"><ele>1273.0</ele><time>2026-04-01T20:30:51.998Z</time></trkpt><trkpt lat="45.804199637574605" lon="11.534063633907744"><ele>1273.0</ele><time>2026-04-01T20:30:52.998Z</time></trkpt><trkpt lat="45.804119093056904" lon="11.533990325808835"><ele>1273.0</ele><time>2026-04-01T20:30:53.998Z</time></trkpt><trkpt lat="45.804047580529826" lon="11.533936870666997"><ele>1272.0</ele><time>2026-04-01T20:30:54.998Z</time></trkpt><trkpt lat="45.80398142535935" lon="11.533883497988054"><ele>1271.0</ele><time>2026-04-01T20:30:55.998Z</time></trkpt><trkpt lat="45.803912443574625" lon="11.533792314488142"><ele>1270.0</ele><time>2026-04-01T20:30:56.998Z</time></trkpt><trkpt lat="45.80384087335875" lon="11.533689452077995"><ele>1269.0</ele><time>2026-04-01T20:30:57.998Z</time></trkpt><trkpt lat="45.803738730140445" lon="11.533580982991529"><ele>1268.0</ele><time>2026-04-01T20:30:59.998Z</time></trkpt><trkpt lat="45.803677693689686" lon="11.533536495826262"><ele>1269.0</ele><time>2026-04-01T20:31:00.998Z</time></trkpt><trkpt lat="45.80357585982814" lon="11.533402330752573"><ele>1270.0</ele><time>2026-04-01T20:31:02.998Z</time></trkpt><trkpt lat="45.803502194194216" lon="11.533329608706213"><ele>1271.0</ele><time>2026-04-01T20:31:03.998Z</time></trkpt><trkpt lat="45.8033491998867" lon="11.533306625243526"><ele>1272.0</ele><time>2026-04-01T20:31:05.998Z</time></trkpt><trkpt lat="45.80326972720273" lon="11.533296903647981"><ele>1272.0</ele><time>2026-04-01T20:31:06.998Z</time></trkpt><trkpt lat="45.80320529443995" lon="11.533279357548006"><ele>1272.0</ele><time>2026-04-01T20:31:08Z</time></trkpt><trkpt lat="45.80313046513282" lon="11.533258569894924"><ele>1272.0</ele><time>2026-04-01T20:31:10Z</time></trkpt><trkpt lat="45.80302206388034" lon="11.533221222051738"><ele>1272.0</ele><time>2026-04-01T20:31:13Z</time></trkpt><trkpt lat="45.802964935682105" lon="11.533161667568349"><ele>1272.0</ele><time>2026-04-01T20:31:14Z</time></trkpt><trkpt lat="45.802914512229506" lon="11.533106818431646"><ele>1272.0</ele><time>2026-04-01T20:31:15Z</time></trkpt><trkpt lat="45.8028001965749" lon="11.533032981549916"><ele>1272.0</ele><time>2026-04-01T20:31:17Z</time></trkpt><trkpt lat="45.80273328533568" lon="11.533036429062886"><ele>1272.0</ele><time>2026-04-01T20:31:18Z</time></trkpt><trkpt lat="45.80266104052022" lon="11.533029708293373"><ele>1272.0</ele><time>2026-04-01T20:31:19Z</time></trkpt><trkpt lat="45.80258320863396" lon="11.533048789821384"><ele>1272.0</ele><time>2026-04-01T20:31:20Z</time></trkpt><trkpt lat="45.802532322363234" lon="11.533107410496443"><ele>1272.0</ele><time>2026-04-01T20:31:21Z</time></trkpt><trkpt lat="45.80249236470915" lon="11.5332008557813"><ele>1272.0</ele><time>2026-04-01T20:31:22Z</time></trkpt><trkpt lat="45.80248319972683" lon="11.533294487896267"><ele>1272.0</ele><time>2026-04-01T20:31:23Z</time></trkpt><trkpt lat="45.80241284314893" lon="11.533432252445964"><ele>1270.8</ele><time>2026-04-01T20:31:25Z</time></trkpt><trkpt lat="45.80229884622708" lon="11.533486321485556"><ele>1269.6</ele><time>2026-04-01T20:31:27Z</time></trkpt><trkpt lat="45.80219166013287" lon="11.533507019839725"><ele>1268.3999999999999</ele><time>2026-04-01T20:31:29Z</time></trkpt><trkpt lat="45.802055138737515" lon="11.53352807060497"><ele>1267.2</ele><time>2026-04-01T20:31:31Z</time></trkpt><trkpt lat="45.80198165852444" lon="11.533545226955544"><ele>1266.0</ele><time>2026-04-01T20:31:32Z</time></trkpt><trkpt lat="45.80190841366564" lon="11.533555978217132"><ele>1266.0</ele><time>2026-04-01T20:31:33Z</time></trkpt><trkpt lat="45.80183390600224" lon="11.53357380215243"><ele>1266.0</ele><time>2026-04-01T20:31:34Z</time></trkpt><trkpt lat="45.80176841724367" lon="11.533559789260115"><ele>1266.0</ele><time>2026-04-01T20:31:35Z</time></trkpt><trkpt lat="45.80170452644609" lon="11.533571075808005"><ele>1266.0</ele><time>2026-04-01T20:31:36Z</time></trkpt><trkpt lat="45.80163751247711" lon="11.533572408851624"><ele>1266.0</ele><time>2026-04-01T20:31:37Z</time></trkpt><trkpt lat="45.80156556031359" lon="11.533565880710634"><ele>1266.0</ele><time>2026-04-01T20:31:38Z</time></trkpt><trkpt lat="45.80149672768567" lon="11.533544412397505"><ele>1266.0</ele><time>2026-04-01T20:31:39Z</time></trkpt><trkpt lat="45.801430873592366" lon="11.533491937268929"><ele>1266.142857142857</ele><time>2026-04-01T20:31:40Z</time></trkpt><trkpt lat="45.80137683305121" lon="11.533428372638797"><ele>1266.2857142857142</ele><time>2026-04-01T20:31:41Z</time></trkpt><trkpt lat="45.80132927687408" lon="11.533343240313684"><ele>1266.4285714285716</ele><time>2026-04-01T20:31:42Z</time></trkpt><trkpt lat="45.80128739212364" lon="11.533259902253276"><ele>1266.5714285714284</ele><time>2026-04-01T20:31:43Z</time></trkpt><trkpt lat="45.801255719596284" lon="11.533168590133698"><ele>1266.7142857142858</ele><time>2026-04-01T20:31:43.999Z</time></trkpt><trkpt lat="45.8012139912423" lon="11.533087651985225"><ele>1266.857142857143</ele><time>2026-04-01T20:31:44.999Z</time></trkpt><trkpt lat="45.80116938323693" lon="11.53301610967242"><ele>1267.0</ele><time>2026-04-01T20:31:45.999Z</time></trkpt><trkpt lat="45.80111222328263" lon="11.532949226589214"><ele>1267.0</ele><time>2026-04-01T20:31:46.999Z</time></trkpt><trkpt lat="45.80104934918544" lon="11.53290006924138"><ele>1267.0</ele><time>2026-04-01T20:31:47.999Z</time></trkpt><trkpt lat="45.800956098583654" lon="11.532878040476257"><ele>1267.0</ele><time>2026-04-01T20:31:48.999Z</time></trkpt><trkpt lat="45.800874000409905" lon="11.532879365953082"><ele>1267.0</ele><time>2026-04-01T20:31:49.999Z</time></trkpt><trkpt lat="45.80079176922876" lon="11.53289047732118"><ele>1267.0</ele><time>2026-04-01T20:31:50.999Z</time></trkpt><trkpt lat="45.80073850329273" lon="11.532828377124499"><ele>1267.0</ele><time>2026-04-01T20:31:51.999Z</time></trkpt><trkpt lat="45.80065183233171" lon="11.532768285074193"><ele>1266.8333333333333</ele><time>2026-04-01T20:31:52.999Z</time></trkpt><trkpt lat="45.80056955749826" lon="11.532707804512384"><ele>1266.6666666666665</ele><time>2026-04-01T20:31:53.999Z</time></trkpt><trkpt lat="45.80050152781587" lon="11.532672776974717"><ele>1266.5</ele><time>2026-04-01T20:31:54.999Z</time></trkpt><trkpt lat="45.80044120203634" lon="11.532639818601956"><ele>1266.3333333333333</ele><time>2026-04-01T20:31:55.999Z</time></trkpt><trkpt lat="45.80036687844822" lon="11.53258955659846"><ele>1266.1666666666667</ele><time>2026-04-01T20:31:56.999Z</time></trkpt><trkpt lat="45.80028337170353" lon="11.532544394031722"><ele>1266.0</ele><time>2026-04-01T20:31:57.999Z</time></trkpt><trkpt lat="45.800207243753576" lon="11.532506910048692"><ele>1264.0</ele><time>2026-04-01T20:31:58.999Z</time></trkpt><trkpt lat="45.80013405470497" lon="11.532462814483823"><ele>1262.0</ele><time>2026-04-01T20:31:59.999Z</time></trkpt><trkpt lat="45.800078581299545" lon="11.53240192622027"><ele>1260.0</ele><time>2026-04-01T20:32:00.999Z</time></trkpt><trkpt lat="45.80003401631572" lon="11.532278779655462"><ele>1258.0</ele><time>2026-04-01T20:32:02.999Z</time></trkpt><trkpt lat="45.80007537110752" lon="11.53208134878077"><ele>1256.0</ele><time>2026-04-01T20:32:04.999Z</time></trkpt><trkpt lat="45.80014071602731" lon="11.531915657042418"><ele>1258.6</ele><time>2026-04-01T20:32:06.999Z</time></trkpt><trkpt lat="45.80017438650338" lon="11.531819778187417"><ele>1261.1999999999998</ele><time>2026-04-01T20:32:07.999Z</time></trkpt><trkpt lat="45.800216232618304" lon="11.531697762212481"><ele>1263.8000000000002</ele><time>2026-04-01T20:32:08.999Z</time></trkpt><trkpt lat="45.80025323070805" lon="11.531602105777864"><ele>1266.4</ele><time>2026-04-01T20:32:09.999Z</time></trkpt><trkpt lat="45.800300848430496" lon="11.531482735214134"><ele>1269.0</ele><time>2026-04-01T20:32:10.999Z</time></trkpt><trkpt lat="45.800364518839274" lon="11.53131781858094"><ele>1269.857142857143</ele><time>2026-04-01T20:32:12.999Z</time></trkpt><trkpt lat="45.80038309575084" lon="11.5312218607875"><ele>1270.7142857142856</ele><time>2026-04-01T20:32:13.999Z</time></trkpt><trkpt lat="45.80038181201898" lon="11.531129661693484"><ele>1271.5714285714284</ele><time>2026-04-01T20:32:14.999Z</time></trkpt><trkpt lat="45.80035746315385" lon="11.531037795518955"><ele>1272.4285714285716</ele><time>2026-04-01T20:32:15.999Z</time></trkpt><trkpt lat="45.800303054027324" lon="11.530967757628197"><ele>1273.2857142857142</ele><time>2026-04-01T20:32:16.999Z</time></trkpt><trkpt lat="45.800228909645554" lon="11.530931330056937"><ele>1274.142857142857</ele><time>2026-04-01T20:32:17.999Z</time></trkpt><trkpt lat="45.80013439183949" lon="11.530921901091187"><ele>1275.0</ele><time>2026-04-01T20:32:18.999Z</time></trkpt><trkpt lat="45.80004162285071" lon="11.530921495994578"><ele>1271.8</ele><time>2026-04-01T20:32:19.999Z</time></trkpt><trkpt lat="45.79993832173366" lon="11.530918216775154"><ele>1268.6</ele><time>2026-04-01T20:32:20.999Z</time></trkpt><trkpt lat="45.7998461536766" lon="11.530916730537973"><ele>1265.4</ele><time>2026-04-01T20:32:21.999Z</time></trkpt><trkpt lat="45.79975188140377" lon="11.530916114181748"><ele>1262.2</ele><time>2026-04-01T20:32:22.999Z</time></trkpt><trkpt lat="45.799660888901855" lon="11.530910499293142"><ele>1259.0</ele><time>2026-04-01T20:32:23.999Z</time></trkpt><trkpt lat="45.799576328580756" lon="11.530916760087933"><ele>1259.0</ele><time>2026-04-01T20:32:24.999Z</time></trkpt><trkpt lat="45.799490591504934" lon="11.530890290517394"><ele>1259.0</ele><time>2026-04-01T20:32:25.999Z</time></trkpt><trkpt lat="45.799406798743284" lon="11.530887058272961"><ele>1259.0</ele><time>2026-04-01T20:32:26.999Z</time></trkpt><trkpt lat="45.79931484930162" lon="11.530883316609424"><ele>1259.0</ele><time>2026-04-01T20:32:27.999Z</time></trkpt><trkpt lat="45.79923007753315" lon="11.530885881481037"><ele>1259.0</ele><time>2026-04-01T20:32:28.999Z</time></trkpt><trkpt lat="45.79914329524277" lon="11.530877927692636"><ele>1259.0</ele><time>2026-04-01T20:32:29.999Z</time></trkpt><trkpt lat="45.799065922970165" lon="11.53084048036689"><ele>1259.0</ele><time>2026-04-01T20:32:30.999Z</time></trkpt><trkpt lat="45.79899443981732" lon="11.530783234939777"><ele>1259.0</ele><time>2026-04-01T20:32:31.999Z</time></trkpt><trkpt lat="45.79894427061486" lon="11.530705111261653"><ele>1259.0</ele><time>2026-04-01T20:32:32.999Z</time></trkpt><trkpt lat="45.79891699350209" lon="11.530615582436578"><ele>1259.0</ele><time>2026-04-01T20:32:33.999Z</time></trkpt><trkpt lat="45.79890564027031" lon="11.530520494287343"><ele>1259.0</ele><time>2026-04-01T20:32:34.999Z</time></trkpt><trkpt lat="45.7989016113411" lon="11.530416803587311"><ele>1259.0</ele><time>2026-04-01T20:32:35.999Z</time></trkpt><trkpt lat="45.79889176791214" lon="11.53029881362736"><ele>1259.0</ele><time>2026-04-01T20:32:36.999Z</time></trkpt><trkpt lat="45.798886265809415" lon="11.530174375022328"><ele>1259.0</ele><time>2026-04-01T20:32:37.999Z</time></trkpt><trkpt lat="45.79888206761857" lon="11.530040452170176"><ele>1259.0</ele><time>2026-04-01T20:32:38.999Z</time></trkpt><trkpt lat="45.79888391140469" lon="11.529916381408192"><ele>1259.0</ele><time>2026-04-01T20:32:39.999Z</time></trkpt><trkpt lat="45.79889241722656" lon="11.529784571728674"><ele>1259.0</ele><time>2026-04-01T20:32:40.999Z</time></trkpt><trkpt lat="45.79889909211843" lon="11.529651957673567"><ele>1259.0</ele><time>2026-04-01T20:32:41.999Z</time></trkpt><trkpt lat="45.79892581215748" lon="11.529524060290296"><ele>1257.8333333333335</ele><time>2026-04-01T20:32:42.999Z</time></trkpt><trkpt lat="45.79893366790787" lon="11.529393296264786"><ele>1256.6666666666667</ele><time>2026-04-01T20:32:43.999Z</time></trkpt><trkpt lat="45.79894862385897" lon="11.529275164555404"><ele>1255.5</ele><time>2026-04-01T20:32:44.999Z</time></trkpt><trkpt lat="45.798977794917874" lon="11.529165626830466"><ele>1254.3333333333333</ele><time>2026-04-01T20:32:45.999Z</time></trkpt><trkpt lat="45.79901399994716" lon="11.529063231375163"><ele>1253.1666666666665</ele><time>2026-04-01T20:32:46.999Z</time></trkpt><trkpt lat="45.79905208202431" lon="11.528968856782312"><ele>1252.0</ele><time>2026-04-01T20:32:47.998Z</time></trkpt><trkpt lat="45.79908148305385" lon="11.528866026743385"><ele>1252.0</ele><time>2026-04-01T20:32:48.998Z</time></trkpt><trkpt lat="45.79909671911023" lon="11.528750597758712"><ele>1252.0</ele><time>2026-04-01T20:32:49.998Z</time></trkpt><trkpt lat="45.79909651880442" lon="11.528626966571078"><ele>1252.0</ele><time>2026-04-01T20:32:50.998Z</time></trkpt><trkpt lat="45.799093654249305" lon="11.5285035237208"><ele>1252.0</ele><time>2026-04-01T20:32:51.998Z</time></trkpt><trkpt lat="45.799097722946115" lon="11.528367304102115"><ele>1252.0</ele><time>2026-04-01T20:32:52.998Z</time></trkpt><trkpt lat="45.79910701248498" lon="11.528225631136166"><ele>1252.0</ele><time>2026-04-01T20:32:53.998Z</time></trkpt><trkpt lat="45.799119096610134" lon="11.52807071964545"><ele>1251.6</ele><time>2026-04-01T20:32:54.998Z</time></trkpt><trkpt lat="45.799132639937824" lon="11.527920876685826"><ele>1251.2</ele><time>2026-04-01T20:32:55.998Z</time></trkpt><trkpt lat="45.799146802065465" lon="11.527769657221738"><ele>1250.8</ele><time>2026-04-01T20:32:56.998Z</time></trkpt><trkpt lat="45.79916292221703" lon="11.52761972676628"><ele>1250.4</ele><time>2026-04-01T20:32:57.998Z</time></trkpt><trkpt lat="45.79917605900441" lon="11.527468500748466"><ele>1250.0</ele><time>2026-04-01T20:32:58.998Z</time></trkpt><trkpt lat="45.799191232340156" lon="11.527317741220896"><ele>1249.6</ele><time>2026-04-01T20:32:59.998Z</time></trkpt><trkpt lat="45.799208522496635" lon="11.527169214677057"><ele>1249.2</ele><time>2026-04-01T20:33:00.998Z</time></trkpt><trkpt lat="45.79921995626419" lon="11.52701816932927"><ele>1248.8</ele><time>2026-04-01T20:33:01.998Z</time></trkpt><trkpt lat="45.799235531585424" lon="11.526875489468042"><ele>1248.4</ele><time>2026-04-01T20:33:02.998Z</time></trkpt><trkpt lat="45.79926814625654" lon="11.526730450794199"><ele>1248.0</ele><time>2026-04-01T20:33:03.998Z</time></trkpt><trkpt lat="45.799305292961755" lon="11.52659378919279"><ele>1252.8</ele><time>2026-04-01T20:33:04.998Z</time></trkpt><trkpt lat="45.79934727425543" lon="11.526452637525395"><ele>1257.6</ele><time>2026-04-01T20:33:05.998Z</time></trkpt><trkpt lat="45.79938326515363" lon="11.526306577017532"><ele>1262.4</ele><time>2026-04-01T20:33:06.998Z</time></trkpt><trkpt lat="45.79941441064219" lon="11.52615822567839"><ele>1267.2</ele><time>2026-04-01T20:33:07.998Z</time></trkpt><trkpt lat="45.79942904121312" lon="11.526015253153556"><ele>1272.0</ele><time>2026-04-01T20:33:08.998Z</time></trkpt><trkpt lat="45.799445158316196" lon="11.525874060747062"><ele>1272.0</ele><time>2026-04-01T20:33:09.998Z</time></trkpt><trkpt lat="45.79945922811817" lon="11.525733828861913"><ele>1272.0</ele><time>2026-04-01T20:33:10.998Z</time></trkpt><trkpt lat="45.79946580496793" lon="11.52560177463704"><ele>1272.0</ele><time>2026-04-01T20:33:11.998Z</time></trkpt><trkpt lat="45.799499556796775" lon="11.525470662943"><ele>1272.0</ele><time>2026-04-01T20:33:13Z</time></trkpt><trkpt lat="45.79951167536989" lon="11.52535787974306"><ele>1272.0</ele><time>2026-04-01T20:33:14Z</time></trkpt><trkpt lat="45.79952383566713" lon="11.525251531052204"><ele>1272.0</ele><time>2026-04-01T20:33:15Z</time></trkpt><trkpt lat="45.799515145285994" lon="11.525143226572295"><ele>1271.0</ele><time>2026-04-01T20:33:16Z</time></trkpt><trkpt lat="45.799493160428995" lon="11.525040261983197"><ele>1270.0</ele><time>2026-04-01T20:33:17Z</time></trkpt><trkpt lat="45.79944950412812" lon="11.524949401435746"><ele>1269.0</ele><time>2026-04-01T20:33:18Z</time></trkpt><trkpt lat="45.79939560985891" lon="11.524869892628594"><ele>1268.0</ele><time>2026-04-01T20:33:19Z</time></trkpt><trkpt lat="45.79933802906985" lon="11.524791235463917"><ele>1267.0</ele><time>2026-04-01T20:33:20Z</time></trkpt><trkpt lat="45.799280712435866" lon="11.52470642274084"><ele>1266.0</ele><time>2026-04-01T20:33:21Z</time></trkpt><trkpt lat="45.79923491854089" lon="11.524610129290942"><ele>1258.75</ele><time>2026-04-01T20:33:22Z</time></trkpt><trkpt lat="45.799211878802794" lon="11.524491009959227"><ele>1251.5</ele><time>2026-04-01T20:33:23Z</time></trkpt><trkpt lat="45.799158513868285" lon="11.524434967846345"><ele>1244.25</ele><time>2026-04-01T20:33:24Z</time></trkpt><trkpt lat="45.79913281686594" lon="11.524342965947797"><ele>1237.0</ele><time>2026-04-01T20:33:26Z</time></trkpt><trkpt lat="45.799327421550956" lon="11.524069481649814"><ele>1238.1666666666665</ele><time>2026-04-01T20:33:27Z</time></trkpt><trkpt lat="45.79936023896693" lon="11.523964818408398"><ele>1239.3333333333333</ele><time>2026-04-01T20:33:28Z</time></trkpt><trkpt lat="45.79938598346204" lon="11.52385229748903"><ele>1240.5</ele><time>2026-04-01T20:33:29Z</time></trkpt><trkpt lat="45.79940618685363" lon="11.52373765044893"><ele>1241.6666666666667</ele><time>2026-04-01T20:33:30Z</time></trkpt><trkpt lat="45.79941634199611" lon="11.523619008747755"><ele>1242.8333333333335</ele><time>2026-04-01T20:33:31Z</time></trkpt><trkpt lat="45.79941729332372" lon="11.523502404029244"><ele>1244.0</ele><time>2026-04-01T20:33:32Z</time></trkpt><trkpt lat="45.799413497690566" lon="11.523378853671868"><ele>1244.0</ele><time>2026-04-01T20:33:33Z</time></trkpt><trkpt lat="45.79940207249261" lon="11.52324565972417"><ele>1244.0</ele><time>2026-04-01T20:33:34Z</time></trkpt><trkpt lat="45.79937796963822" lon="11.523121808410082"><ele>1244.0</ele><time>2026-04-01T20:33:35Z</time></trkpt><trkpt lat="45.79934635375793" lon="11.523006504787553"><ele>1244.0</ele><time>2026-04-01T20:33:36Z</time></trkpt><trkpt lat="45.79929794579837" lon="11.522904950754297"><ele>1244.0</ele><time>2026-04-01T20:33:37Z</time></trkpt><trkpt lat="45.799246309919134" lon="11.522805624886804"><ele>1244.0</ele><time>2026-04-01T20:33:38Z</time></trkpt><trkpt lat="45.799196962602366" lon="11.522711227404972"><ele>1242.4285714285713</ele><time>2026-04-01T20:33:39Z</time></trkpt><trkpt lat="45.79914783123715" lon="11.522622305168323"><ele>1240.857142857143</ele><time>2026-04-01T20:33:40Z</time></trkpt><trkpt lat="45.79910705163567" lon="11.522546567434798"><ele>1239.2857142857142</ele><time>2026-04-01T20:33:41Z</time></trkpt><trkpt lat="45.799061782239626" lon="11.522455365363433"><ele>1237.7142857142858</ele><time>2026-04-01T20:33:43Z</time></trkpt><trkpt lat="45.799020790597424" lon="11.522382063860576"><ele>1236.142857142857</ele><time>2026-04-01T20:34:22.999Z</time></trkpt><trkpt lat="45.79894884890432" lon="11.522373590818956"><ele>1234.5714285714287</ele><time>2026-04-01T20:34:34.999Z</time></trkpt><trkpt lat="45.798885532890935" lon="11.52244195656562"><ele>1233.0</ele><time>2026-04-01T20:34:56.998Z</time></trkpt><trkpt lat="45.798901832540466" lon="11.522537617848709"><ele>1233.0</ele><time>2026-04-01T20:35:00.998Z</time></trkpt><trkpt lat="45.79893316439806" lon="11.522625821416442"><ele>1233.0</ele><time>2026-04-01T20:35:05.998Z</time></trkpt><trkpt lat="45.79888249076396" lon="11.522690357009271"><ele>1233.0</ele><time>2026-04-01T20:35:11.998Z</time></trkpt><trkpt lat="45.79886132594182" lon="11.522782447216414"><ele>1233.0</ele><time>2026-04-01T20:35:15.998Z</time></trkpt><trkpt lat="45.798830415762154" lon="11.522866308193906"><ele>1233.0</ele><time>2026-04-01T20:35:23Z</time></trkpt><trkpt lat="45.79875985105238" lon="11.522946300349945"><ele>1233.0</ele><time>2026-04-01T20:35:29Z</time></trkpt><trkpt lat="45.79870504337833" lon="11.5230018704349"><ele>1233.0</ele><time>2026-04-01T20:35:35Z</time></trkpt><trkpt lat="45.79867518016119" lon="11.523097659628448"><ele>1232.4285714285716</ele><time>2026-04-01T20:35:40Z</time></trkpt><trkpt lat="45.7986271869595" lon="11.523165496243946"><ele>1231.857142857143</ele><time>2026-04-01T20:35:43Z</time></trkpt><trkpt lat="45.79853531707528" lon="11.523244264050904"><ele>1231.2857142857142</ele><time>2026-04-01T20:35:47Z</time></trkpt><trkpt lat="45.79846276951666" lon="11.523263584914238"><ele>1230.7142857142858</ele><time>2026-04-01T20:35:51Z</time></trkpt><trkpt lat="45.79840564834369" lon="11.52321999221102"><ele>1230.142857142857</ele><time>2026-04-01T20:35:54Z</time></trkpt><trkpt lat="45.79834164822242" lon="11.523190370021345"><ele>1229.5714285714287</ele><time>2026-04-01T20:35:56Z</time></trkpt><trkpt lat="45.798281869126676" lon="11.523220875465016"><ele>1229.0</ele><time>2026-04-01T20:36:00Z</time></trkpt><trkpt lat="45.79823633095562" lon="11.523146129870618"><ele>1226.5</ele><time>2026-04-01T20:36:02Z</time></trkpt><trkpt lat="45.798170492587566" lon="11.523153241745499"><ele>1224.0</ele><time>2026-04-01T20:36:05.999Z</time></trkpt><trkpt lat="45.79812011121801" lon="11.523094699221966"><ele>1221.5</ele><time>2026-04-01T20:36:08.999Z</time></trkpt><trkpt lat="45.79805470641386" lon="11.52302783217564"><ele>1219.0</ele><time>2026-04-01T20:36:12.999Z</time></trkpt><trkpt lat="45.79802243348914" lon="11.523111766736378"><ele>1216.5</ele><time>2026-04-01T20:36:13.999Z</time></trkpt><trkpt lat="45.79795426810332" lon="11.523170650341829"><ele>1214.0</ele><time>2026-04-01T20:36:21.999Z</time></trkpt><trkpt lat="45.79790007261481" lon="11.523315581287475"><ele>1214.0</ele><time>2026-04-01T20:36:26.999Z</time></trkpt><trkpt lat="45.79790324902178" lon="11.523431738474853"><ele>1214.0</ele><time>2026-04-01T20:36:29.999Z</time></trkpt><trkpt lat="45.79793055146195" lon="11.52355027552836"><ele>1214.0</ele><time>2026-04-01T20:36:31.999Z</time></trkpt><trkpt lat="45.797917230637" lon="11.52368853452408"><ele>1214.0</ele><time>2026-04-01T20:36:33.999Z</time></trkpt><trkpt lat="45.79791952223229" lon="11.523812019406396"><ele>1214.0</ele><time>2026-04-01T20:36:35.999Z</time></trkpt><trkpt lat="45.79794129582853" lon="11.523919877947286"><ele>1214.0</ele><time>2026-04-01T20:36:37.999Z</time></trkpt><trkpt lat="45.79792633581282" lon="11.524014148303905"><ele>1214.0</ele><time>2026-04-01T20:36:38.999Z</time></trkpt><trkpt lat="45.797924976848066" lon="11.524117007412514"><ele>1214.0</ele><time>2026-04-01T20:36:39.999Z</time></trkpt><trkpt lat="45.79791243545088" lon="11.524281734886134"><ele>1214.0</ele><time>2026-04-01T20:36:41.999Z</time></trkpt><trkpt lat="45.79792048576147" lon="11.524387728918946"><ele>1214.0</ele><time>2026-04-01T20:36:43.999Z</time></trkpt><trkpt lat="45.797945055166885" lon="11.524501063914467"><ele>1214.0</ele><time>2026-04-01T20:36:45.999Z</time></trkpt><trkpt lat="45.79792118040446" lon="11.524660015236012"><ele>1213.5</ele><time>2026-04-01T20:36:47.999Z</time></trkpt><trkpt lat="45.79793410646846" lon="11.524759639518987"><ele>1213.0</ele><time>2026-04-01T20:36:49.999Z</time></trkpt><trkpt lat="45.797896215905205" lon="11.524902687194436"><ele>1212.5</ele><time>2026-04-01T20:36:52.999Z</time></trkpt><trkpt lat="45.79789114524556" lon="11.52502092913655"><ele>1212.0</ele><time>2026-04-01T20:36:54.999Z</time></trkpt><trkpt lat="45.79787375056442" lon="11.525156507687043"><ele>1211.5</ele><time>2026-04-01T20:36:56.998Z</time></trkpt><trkpt lat="45.797897592765125" lon="11.525257343496621"><ele>1211.0</ele><time>2026-04-01T20:36:58.998Z</time></trkpt><trkpt lat="45.79788601937641" lon="11.525382193020336"><ele>1210.8</ele><time>2026-04-01T20:37:00.998Z</time></trkpt><trkpt lat="45.797866009873445" lon="11.525564002742467"><ele>1210.6</ele><time>2026-04-01T20:37:02.998Z</time></trkpt><trkpt lat="45.79788112908173" lon="11.525676900470966"><ele>1210.4</ele><time>2026-04-01T20:37:04.998Z</time></trkpt><trkpt lat="45.797891460436624" lon="11.525769938202439"><ele>1210.2</ele><time>2026-04-01T20:37:06.998Z</time></trkpt><trkpt lat="45.79786908250839" lon="11.525997921580034"><ele>1210.0</ele><time>2026-04-01T20:37:08.998Z</time></trkpt><trkpt lat="45.79782984417839" lon="11.526187543893348"><ele>1210.2</ele><time>2026-04-01T20:37:10.998Z</time></trkpt><trkpt lat="45.79781285117572" lon="11.526347568360952"><ele>1210.4</ele><time>2026-04-01T20:37:12.998Z</time></trkpt><trkpt lat="45.79778578627073" lon="11.526435327391882"><ele>1210.6</ele><time>2026-04-01T20:37:15.998Z</time></trkpt><trkpt lat="45.797757001476505" lon="11.526624478952183"><ele>1210.8</ele><time>2026-04-01T20:37:17.998Z</time></trkpt><trkpt lat="45.79773165069899" lon="11.526776131894811"><ele>1211.0</ele><time>2026-04-01T20:37:19.998Z</time></trkpt><trkpt lat="45.797727333334635" lon="11.526896775777615"><ele>1211.0</ele><time>2026-04-01T20:37:21.998Z</time></trkpt><trkpt lat="45.79771017571403" lon="11.527036073387015"><ele>1211.0</ele><time>2026-04-01T20:37:23.998Z</time></trkpt><trkpt lat="45.79769013221352" lon="11.527170964483927"><ele>1211.0</ele><time>2026-04-01T20:37:26Z</time></trkpt><trkpt lat="45.797673236264345" lon="11.52731087649417"><ele>1211.0</ele><time>2026-04-01T20:37:28Z</time></trkpt><trkpt lat="45.79760702543518" lon="11.5275252023606"><ele>1203.2</ele><time>2026-04-01T20:37:32Z</time></trkpt><trkpt lat="45.79759180579111" lon="11.527745671758215"><ele>1195.3999999999999</ele><time>2026-04-01T20:37:33Z</time></trkpt><trkpt lat="45.79757841696323" lon="11.527854041702934"><ele>1187.6</ele><time>2026-04-01T20:37:36Z</time></trkpt><trkpt lat="45.79757280831945" lon="11.527961656454657"><ele>1179.8</ele><time>2026-04-01T20:37:38Z</time></trkpt><trkpt lat="45.79756470510724" lon="11.52807770833487"><ele>1172.0</ele><time>2026-04-01T20:37:40.02Z</time></trkpt><trkpt lat="45.7975523149611" lon="11.528187273371966"><ele>1161.0</ele><time>2026-04-01T20:37:42.021Z</time></trkpt><trkpt lat="45.79718698572871" lon="11.534866184537517"><ele>1161.0</ele><time>2026-04-01T20:39:22.998Z</time></trkpt><trkpt lat="45.796916449247284" lon="11.535029779479041"><ele>1161.0</ele><time>2026-04-01T20:39:24.998Z</time></trkpt><trkpt lat="45.7968832017237" lon="11.535106597389817"><ele>1161.0</ele><time>2026-04-01T20:39:25.998Z</time></trkpt><trkpt lat="45.796863149721105" lon="11.535257034354759"><ele>1161.0</ele><time>2026-04-01T20:39:27.998Z</time></trkpt><trkpt lat="45.79683924519983" lon="11.53534325181878"><ele>1161.0</ele><time>2026-04-01T20:39:29.998Z</time></trkpt><trkpt lat="45.79684377146828" lon="11.535464361211444"><ele>1161.0</ele><time>2026-04-01T20:39:33Z</time></trkpt><trkpt lat="45.79682283887403" lon="11.535580289810971"><ele>1161.0</ele><time>2026-04-01T20:39:36Z</time></trkpt><trkpt lat="45.79683409973425" lon="11.535699527764322"><ele>1161.0</ele><time>2026-04-01T20:39:38Z</time></trkpt><trkpt lat="45.796836341726916" lon="11.53580560333246"><ele>1161.0</ele><time>2026-04-01T20:39:40Z</time></trkpt><trkpt lat="45.79681881740568" lon="11.535919478907854"><ele>1159.1666666666667</ele><time>2026-04-01T20:39:42Z</time></trkpt><trkpt lat="45.79680765258589" lon="11.536046536648795"><ele>1157.3333333333333</ele><time>2026-04-01T20:39:44Z</time></trkpt><trkpt lat="45.79674849895629" lon="11.536138061223781"><ele>1155.5</ele><time>2026-04-01T20:39:57Z</time></trkpt><trkpt lat="45.7967791752841" lon="11.536223545248221"><ele>1153.6666666666665</ele><time>2026-04-01T20:45:33.998Z</time></trkpt><trkpt lat="45.796850780425096" lon="11.536212961927728"><ele>1151.8333333333333</ele><time>2026-04-01T20:52:12Z</time></trkpt><trkpt lat="45.796922399542304" lon="11.53626167245954"><ele>1150.0</ele><time>2026-04-01T20:52:17Z</time></trkpt><trkpt lat="45.79700027863777" lon="11.536342638073002"><ele>1146.6</ele><time>2026-04-01T20:52:19Z</time></trkpt><trkpt lat="45.79705298215076" lon="11.536407755355398"><ele>1143.2</ele><time>2026-04-01T20:52:22Z</time></trkpt><trkpt lat="45.79717384034294" lon="11.53646791317387"><ele>1139.8</ele><time>2026-04-01T20:52:24Z</time></trkpt><trkpt lat="45.79731002777842" lon="11.536582401587562"><ele>1136.4</ele><time>2026-04-01T20:52:28Z</time></trkpt><trkpt lat="45.797367401342306" lon="11.536682572123532"><ele>1133.0</ele><time>2026-04-01T20:52:30Z</time></trkpt><trkpt lat="45.79747678414591" lon="11.536993105161605"><ele>1135.8</ele><time>2026-04-01T20:52:37Z</time></trkpt><trkpt lat="45.79751365468734" lon="11.537117370103289"><ele>1138.6</ele><time>2026-04-01T20:52:39Z</time></trkpt><trkpt lat="45.79750543553837" lon="11.53724509007437"><ele>1141.4</ele><time>2026-04-01T20:52:41Z</time></trkpt><trkpt lat="45.79748772089495" lon="11.537346924495358"><ele>1144.2</ele><time>2026-04-01T20:52:43Z</time></trkpt><trkpt lat="45.79749658646642" lon="11.537463799505872"><ele>1147.0</ele><time>2026-04-01T20:52:45Z</time></trkpt><trkpt lat="45.79781657901551" lon="11.537241327696895"><ele>1147.0</ele><time>2026-04-01T20:52:47Z</time></trkpt><trkpt lat="45.79789301536194" lon="11.537383527328593"><ele>1147.0</ele><time>2026-04-01T20:52:50Z</time></trkpt><trkpt lat="45.79793772207712" lon="11.537447868876113"><ele>1147.0</ele><time>2026-04-01T20:52:51.999Z</time></trkpt><trkpt lat="45.79773493701446" lon="11.537761516068336"><ele>1137.0</ele><time>2026-04-01T20:52:54.999Z</time></trkpt><trkpt lat="45.79792644835793" lon="11.537895339357716"><ele>1127.0</ele><time>2026-04-01T20:53:02.999Z</time></trkpt><trkpt lat="45.797934122072114" lon="11.538238020585593"><ele>1127.0</ele><time>2026-04-01T20:53:03.999Z</time></trkpt><trkpt lat="45.797996071141945" lon="11.538425568385385"><ele>1127.0</ele><time>2026-04-01T20:53:11.999Z</time></trkpt><trkpt lat="45.79803687719206" lon="11.538623717861435"><ele>1127.0</ele><time>2026-04-01T20:53:13.999Z</time></trkpt><trkpt lat="45.798112116267966" lon="11.538705497110458"><ele>1127.0</ele><time>2026-04-01T20:53:15.999Z</time></trkpt><trkpt lat="45.79818747918355" lon="11.538816875758586"><ele>1125.3333333333335</ele><time>2026-04-01T20:53:17.999Z</time></trkpt><trkpt lat="45.798242510421545" lon="11.538904646762987"><ele>1123.6666666666667</ele><time>2026-04-01T20:53:19.999Z</time></trkpt><trkpt lat="45.79829184613705" lon="11.538973034517328"><ele>1122.0</ele><time>2026-04-01T20:53:21.999Z</time></trkpt><trkpt lat="45.79834766140664" lon="11.539053091399046"><ele>1120.3333333333333</ele><time>2026-04-01T20:53:23.999Z</time></trkpt><trkpt lat="45.798422744437616" lon="11.539122975600613"><ele>1118.6666666666665</ele><time>2026-04-01T20:53:24.999Z</time></trkpt><trkpt lat="45.79851404531185" lon="11.539194015390242"><ele>1117.0</ele><time>2026-04-01T20:53:26.999Z</time></trkpt><trkpt lat="45.798719661383124" lon="11.539200391000106"><ele>1117.0</ele><time>2026-04-01T20:53:30.999Z</time></trkpt><trkpt lat="45.79878967763919" lon="11.539211799253236"><ele>1117.0</ele><time>2026-04-01T20:53:32.999Z</time></trkpt><trkpt lat="45.7988300449182" lon="11.53913612944813"><ele>1117.0</ele><time>2026-04-01T20:53:34.999Z</time></trkpt><trkpt lat="45.79901402941771" lon="11.539114648086896"><ele>1117.0</ele><time>2026-04-01T20:53:38.999Z</time></trkpt><trkpt lat="45.79909633949892" lon="11.539156334210356"><ele>1117.0</ele><time>2026-04-01T20:53:39.999Z</time></trkpt><trkpt lat="45.79913502481858" lon="11.539276313902755"><ele>1117.0</ele><time>2026-04-01T20:53:42.999Z</time></trkpt><trkpt lat="45.799186656423885" lon="11.539361163353918"><ele>1117.0</ele><time>2026-04-01T20:53:44.999Z</time></trkpt><trkpt lat="45.79925965948417" lon="11.539409701144677"><ele>1117.0</ele><time>2026-04-01T20:53:46.998Z</time></trkpt><trkpt lat="45.79924530354118" lon="11.539605878409846"><ele>1117.0</ele><time>2026-04-01T20:53:54.998Z</time></trkpt><trkpt lat="45.79914704317967" lon="11.53962453310597"><ele>1117.0</ele><time>2026-04-01T20:53:55.998Z</time></trkpt><trkpt lat="45.79902457718481" lon="11.53978043622651"><ele>1116.2</ele><time>2026-04-01T20:53:57.998Z</time></trkpt><trkpt lat="45.799010964405014" lon="11.539881159142125"><ele>1115.4</ele><time>2026-04-01T20:53:59.998Z</time></trkpt><trkpt lat="45.79889490524427" lon="11.540013704711638"><ele>1114.6</ele><time>2026-04-01T20:54:01.998Z</time></trkpt><trkpt lat="45.7988742882296" lon="11.54017126281764"><ele>1113.8</ele><time>2026-04-01T20:54:02.998Z</time></trkpt><trkpt lat="45.798827429030666" lon="11.540294668472466"><ele>1113.0</ele><time>2026-04-01T20:54:04.998Z</time></trkpt><trkpt lat="45.79879477578443" lon="11.540407157315236"><ele>1116.0</ele><time>2026-04-01T20:54:06.998Z</time></trkpt><trkpt lat="45.79874581217415" lon="11.54047875790925"><ele>1119.0</ele><time>2026-04-01T20:54:08.998Z</time></trkpt><trkpt lat="45.79864883873638" lon="11.540526625236494"><ele>1122.0</ele><time>2026-04-01T20:54:10.998Z</time></trkpt><trkpt lat="45.79858668485225" lon="11.540678359036981"><ele>1125.0</ele><time>2026-04-01T20:54:13Z</time></trkpt><trkpt lat="45.798514508420745" lon="11.540790518269093"><ele>1128.0</ele><time>2026-04-01T20:54:15Z</time></trkpt><trkpt lat="45.7984506879873" lon="11.540924099845629"><ele>1124.3333333333333</ele><time>2026-04-01T20:54:17Z</time></trkpt><trkpt lat="45.79839443172576" lon="11.541011045143586"><ele>1120.6666666666667</ele><time>2026-04-01T20:54:19Z</time></trkpt><trkpt lat="45.798293172462266" lon="11.541078705791827"><ele>1117.0</ele><time>2026-04-01T20:54:21Z</time></trkpt><trkpt lat="45.7982255757803" lon="11.541134594044426"><ele>1113.3333333333335</ele><time>2026-04-01T20:54:23Z</time></trkpt><trkpt lat="45.798170921223566" lon="11.541258599761438"><ele>1109.6666666666667</ele><time>2026-04-01T20:54:25Z</time></trkpt><trkpt lat="45.7981209351582" lon="11.541323305609426"><ele>1106.0</ele><time>2026-04-01T20:54:26Z</time></trkpt><trkpt lat="45.79809623169167" lon="11.541456101069079"><ele>1106.0</ele><time>2026-04-01T20:54:27Z</time></trkpt><trkpt lat="45.797949643745454" lon="11.541474823700588"><ele>1106.0</ele><time>2026-04-01T20:54:28Z</time></trkpt><trkpt lat="45.798012633334224" lon="11.5416161115958"><ele>1106.0</ele><time>2026-04-01T20:54:29Z</time></trkpt><trkpt lat="45.79798444253786" lon="11.54170208328611"><ele>1106.0</ele><time>2026-04-01T20:54:30Z</time></trkpt><trkpt lat="45.797964395204055" lon="11.541830992871134"><ele>1106.0</ele><time>2026-04-01T20:54:32Z</time></trkpt><trkpt lat="45.79792959237092" lon="11.541938552085865"><ele>1106.0</ele><time>2026-04-01T20:54:34Z</time></trkpt><trkpt lat="45.797924577439794" lon="11.542037724016199"><ele>1106.0</ele><time>2026-04-01T20:54:36Z</time></trkpt><trkpt lat="45.797904415085085" lon="11.54213532204166"><ele>1106.0</ele><time>2026-04-01T20:54:38Z</time></trkpt><trkpt lat="45.79788035850861" lon="11.54223249905827"><ele>1106.0</ele><time>2026-04-01T20:54:39Z</time></trkpt><trkpt lat="45.79783264722099" lon="11.542370761108664"><ele>1106.0</ele><time>2026-04-01T20:54:41Z</time></trkpt><trkpt lat="45.7977862237952" lon="11.542506538575562"><ele>1106.0</ele><time>2026-04-01T20:54:43Z</time></trkpt><trkpt lat="45.797802820590775" lon="11.54265552722066"><ele>1107.8333333333335</ele><time>2026-04-01T20:54:45Z</time></trkpt><trkpt lat="45.797842701910135" lon="11.5427482394997"><ele>1109.6666666666667</ele><time>2026-04-01T20:54:46Z</time></trkpt><trkpt lat="45.797819522751794" lon="11.542848613109353"><ele>1111.5</ele><time>2026-04-01T20:54:48Z</time></trkpt><trkpt lat="45.79786749970187" lon="11.542940071909205"><ele>1113.3333333333333</ele><time>2026-04-01T20:54:49Z</time></trkpt><trkpt lat="45.79782720441259" lon="11.543056467210826"><ele>1115.1666666666665</ele><time>2026-04-01T20:54:51Z</time></trkpt><trkpt lat="45.79781455256084" lon="11.543165822785213"><ele>1117.0</ele><time>2026-04-01T20:54:53Z</time></trkpt><trkpt lat="45.79779057532907" lon="11.543283783352372"><ele>1117.5</ele><time>2026-04-01T20:54:55.999Z</time></trkpt><trkpt lat="45.797770105872374" lon="11.543407901588562"><ele>1118.0</ele><time>2026-04-01T20:54:57.999Z</time></trkpt><trkpt lat="45.79775874920735" lon="11.543498634735416"><ele>1118.5</ele><time>2026-04-01T20:54:58.999Z</time></trkpt><trkpt lat="45.79776095210222" lon="11.543591531335236"><ele>1119.0</ele><time>2026-04-01T20:55:00.999Z</time></trkpt><trkpt lat="45.79774363243948" lon="11.543699109800672"><ele>1119.5</ele><time>2026-04-01T20:55:02.999Z</time></trkpt><trkpt lat="45.79775699035502" lon="11.543906590899432"><ele>1120.0</ele><time>2026-04-01T20:55:04.999Z</time></trkpt><trkpt lat="45.797755450178215" lon="11.544012231931925"><ele>1120.2</ele><time>2026-04-01T20:55:05.999Z</time></trkpt><trkpt lat="45.7977768914552" lon="11.544118174501001"><ele>1120.4</ele><time>2026-04-01T20:55:07.999Z</time></trkpt><trkpt lat="45.797778971229135" lon="11.544281849030858"><ele>1120.6</ele><time>2026-04-01T20:55:09.999Z</time></trkpt><trkpt lat="45.79778123643044" lon="11.544374936948808"><ele>1120.8</ele><time>2026-04-01T20:55:10.999Z</time></trkpt><trkpt lat="45.7977862025469" lon="11.54454567810986"><ele>1121.0</ele><time>2026-04-01T20:55:12.999Z</time></trkpt><trkpt lat="45.797759825939906" lon="11.544693684412394"><ele>1120.0</ele><time>2026-04-01T20:55:14.999Z</time></trkpt><trkpt lat="45.79777877997012" lon="11.544828860852629"><ele>1119.0</ele><time>2026-04-01T20:55:16.999Z</time></trkpt><trkpt lat="45.79780353710773" lon="11.544960338885218"><ele>1118.0</ele><time>2026-04-01T20:55:18.999Z</time></trkpt><trkpt lat="45.797815678072666" lon="11.545105896124129"><ele>1117.0</ele><time>2026-04-01T20:55:20.999Z</time></trkpt><trkpt lat="45.7978442363223" lon="11.545259234903783"><ele>1116.0</ele><time>2026-04-01T20:55:22.999Z</time></trkpt><trkpt lat="45.79789059101794" lon="11.54539090129485"><ele>1115.8</ele><time>2026-04-01T20:55:24.999Z</time></trkpt><trkpt lat="45.79791702688073" lon="11.545521589100542"><ele>1115.6</ele><time>2026-04-01T20:55:26.999Z</time></trkpt><trkpt lat="45.79790760269456" lon="11.545627522610436"><ele>1115.4</ele><time>2026-04-01T20:55:28.999Z</time></trkpt><trkpt lat="45.79784417614992" lon="11.545798817109869"><ele>1115.2</ele><time>2026-04-01T20:55:30.999Z</time></trkpt><trkpt lat="45.79781230248284" lon="11.545918720554864"><ele>1115.0</ele><time>2026-04-01T20:55:32.999Z</time></trkpt><trkpt lat="45.79775137825716" lon="11.546056376679514"><ele>1115.0</ele><time>2026-04-01T20:55:34.999Z</time></trkpt><trkpt lat="45.797703469196534" lon="11.54614231011867"><ele>1115.0</ele><time>2026-04-01T20:55:36.999Z</time></trkpt><trkpt lat="45.79766737025097" lon="11.546261418692398"><ele>1115.0</ele><time>2026-04-01T20:55:38.999Z</time></trkpt><trkpt lat="45.797637474087956" lon="11.546376626393508"><ele>1115.0</ele><time>2026-04-01T20:55:40.999Z</time></trkpt><trkpt lat="45.79756348982862" lon="11.546471402513474"><ele>1115.0</ele><time>2026-04-01T20:55:42.999Z</time></trkpt><trkpt lat="45.797492118525405" lon="11.546543251669947"><ele>1115.0</ele><time>2026-04-01T20:55:44.999Z</time></trkpt><trkpt lat="45.797401025026666" lon="11.546617847271238"><ele>1110.6</ele><time>2026-04-01T20:55:46.999Z</time></trkpt><trkpt lat="45.797307735874085" lon="11.546688257334715"><ele>1106.2</ele><time>2026-04-01T20:55:48.998Z</time></trkpt><trkpt lat="45.79721255487589" lon="11.546763047874673"><ele>1101.8</ele><time>2026-04-01T20:55:50.998Z</time></trkpt><trkpt lat="45.797129134760475" lon="11.546774650926334"><ele>1097.4</ele><time>2026-04-01T20:55:52.998Z</time></trkpt><trkpt lat="45.79703291550978" lon="11.546771931955954"><ele>1093.0</ele><time>2026-04-01T20:55:55.998Z</time></trkpt><trkpt lat="45.79690958548279" lon="11.546768244287938"><ele>1091.2</ele><time>2026-04-01T20:55:57.998Z</time></trkpt><trkpt lat="45.79676145964362" lon="11.546692502108428"><ele>1089.4</ele><time>2026-04-01T20:55:59.998Z</time></trkpt><trkpt lat="45.79672351889203" lon="11.546565308950953"><ele>1087.6000000000001</ele><time>2026-04-01T20:56:01.998Z</time></trkpt><trkpt lat="45.796648743180214" lon="11.546501392712598"><ele>1085.8</ele><time>2026-04-01T20:56:03.998Z</time></trkpt><trkpt lat="45.796553638783955" lon="11.546446474008087"><ele>1084.0</ele><time>2026-04-01T20:56:05.998Z</time></trkpt><trkpt lat="45.796435103961144" lon="11.546416013827073"><ele>1084.0</ele><time>2026-04-01T20:56:07.998Z</time></trkpt><trkpt lat="45.79637029121718" lon="11.546408593358002"><ele>1084.0</ele><time>2026-04-01T20:56:08.998Z</time></trkpt><trkpt lat="45.79629245593177" lon="11.546354982476997"><ele>1084.0</ele><time>2026-04-01T20:56:10.998Z</time></trkpt><trkpt lat="45.796194691874426" lon="11.54636957122604"><ele>1084.0</ele><time>2026-04-01T20:56:12.998Z</time></trkpt><trkpt lat="45.79610790033173" lon="11.546407410526735"><ele>1084.0</ele><time>2026-04-01T20:56:14.998Z</time></trkpt><trkpt lat="45.79601104451147" lon="11.546443637140195"><ele>1084.0</ele><time>2026-04-01T20:56:16.998Z</time></trkpt><trkpt lat="45.79592254049657" lon="11.54650115005147"><ele>1082.6000000000001</ele><time>2026-04-01T20:56:19Z</time></trkpt><trkpt lat="45.795875614877566" lon="11.546599106889147"><ele>1081.2</ele><time>2026-04-01T20:56:21Z</time></trkpt><trkpt lat="45.79586397104757" lon="11.546738136918902"><ele>1079.8000000000002</ele><time>2026-04-01T20:56:23Z</time></trkpt><trkpt lat="45.79584278027622" lon="11.546876116770596"><ele>1078.4</ele><time>2026-04-01T20:56:25Z</time></trkpt><trkpt lat="45.79580005613762" lon="11.546981267066958"><ele>1077.0</ele><time>2026-04-01T20:56:27Z</time></trkpt><trkpt lat="45.795786399072924" lon="11.547107448086518"><ele>1077.0</ele><time>2026-04-01T20:56:29Z</time></trkpt><trkpt lat="45.79581022723249" lon="11.547232624162248"><ele>1077.0</ele><time>2026-04-01T20:56:31Z</time></trkpt><trkpt lat="45.79584903017992" lon="11.547402393168177"><ele>1077.0</ele><time>2026-04-01T20:56:33Z</time></trkpt><trkpt lat="45.795893281680556" lon="11.547568018880627"><ele>1077.0</ele><time>2026-04-01T20:56:35Z</time></trkpt><trkpt lat="45.7959262094842" lon="11.547664317900498"><ele>1077.0</ele><time>2026-04-01T20:56:36Z</time></trkpt><trkpt lat="45.79597798050769" lon="11.547750721383691"><ele>1076.3333333333333</ele><time>2026-04-01T20:56:37Z</time></trkpt><trkpt lat="45.79603685260444" lon="11.547831971570353"><ele>1075.6666666666667</ele><time>2026-04-01T20:56:38Z</time></trkpt><trkpt lat="45.79609050929169" lon="11.547921375495912"><ele>1075.0</ele><time>2026-04-01T20:56:39Z</time></trkpt><trkpt lat="45.796164256190906" lon="11.548013440209084"><ele>1074.3333333333335</ele><time>2026-04-01T20:56:40Z</time></trkpt><trkpt lat="45.79622046933628" lon="11.54807598452366"><ele>1073.6666666666667</ele><time>2026-04-01T20:56:41Z</time></trkpt><trkpt lat="45.79630164923089" lon="11.548140291298932"><ele>1073.0</ele><time>2026-04-01T20:56:42Z</time></trkpt><trkpt lat="45.79638513159334" lon="11.54816567932739"><ele>1073.0</ele><time>2026-04-01T20:56:43Z</time></trkpt><trkpt lat="45.79646700031289" lon="11.548218685614682"><ele>1073.0</ele><time>2026-04-01T20:56:44Z</time></trkpt><trkpt lat="45.79654654816736" lon="11.548260325975459"><ele>1073.0</ele><time>2026-04-01T20:56:45Z</time></trkpt><trkpt lat="45.79662457014967" lon="11.548299300075438"><ele>1073.0</ele><time>2026-04-01T20:56:46Z</time></trkpt><trkpt lat="45.7967059781885" lon="11.548335959984424"><ele>1073.0</ele><time>2026-04-01T20:56:47Z</time></trkpt><trkpt lat="45.7967877307031" lon="11.548383953259568"><ele>1073.0</ele><time>2026-04-01T20:56:48Z</time></trkpt><trkpt lat="45.79687612026394" lon="11.548415834027486"><ele>1074.3333333333335</ele><time>2026-04-01T20:56:49Z</time></trkpt><trkpt lat="45.79695974191655" lon="11.54843406590618"><ele>1075.6666666666667</ele><time>2026-04-01T20:56:50Z</time></trkpt><trkpt lat="45.7970304734161" lon="11.548472392931384"><ele>1077.0</ele><time>2026-04-01T20:56:51Z</time></trkpt><trkpt lat="45.79708538827843" lon="11.548574301921377"><ele>1078.3333333333333</ele><time>2026-04-01T20:56:53Z</time></trkpt><trkpt lat="45.79708501178391" lon="11.54869407508228"><ele>1079.6666666666665</ele><time>2026-04-01T20:56:57Z</time></trkpt><trkpt lat="45.79700793089682" lon="11.548783796675913"><ele>1081.0</ele><time>2026-04-01T20:56:58Z</time></trkpt><trkpt lat="45.796931387825545" lon="11.548873822167584"><ele>1081.0</ele><time>2026-04-01T20:56:59Z</time></trkpt><trkpt lat="45.79686270469067" lon="11.548993306742991"><ele>1081.0</ele><time>2026-04-01T20:56:59.999Z</time></trkpt><trkpt lat="45.79680999770633" lon="11.549124183688226"><ele>1081.0</ele><time>2026-04-01T20:57:00.999Z</time></trkpt><trkpt lat="45.796769485258345" lon="11.549297328609047"><ele>1081.0</ele><time>2026-04-01T20:57:01.999Z</time></trkpt><trkpt lat="45.79677331808854" lon="11.54942514614949"><ele>1081.0</ele><time>2026-04-01T20:57:02.999Z</time></trkpt><trkpt lat="45.79677677766844" lon="11.549559995263277"><ele>1080.0</ele><time>2026-04-01T20:57:03.999Z</time></trkpt><trkpt lat="45.796798628035894" lon="11.54969160814541"><ele>1079.0</ele><time>2026-04-01T20:57:04.999Z</time></trkpt><trkpt lat="45.79683686375611" lon="11.54984189513531"><ele>1078.0</ele><time>2026-04-01T20:57:05.999Z</time></trkpt><trkpt lat="45.79690138866389" lon="11.54996131186851"><ele>1077.0</ele><time>2026-04-01T20:57:06.999Z</time></trkpt><trkpt lat="45.796958982769034" lon="11.550042789462939"><ele>1076.0</ele><time>2026-04-01T20:57:07.999Z</time></trkpt><trkpt lat="45.79702648223904" lon="11.550144484881416"><ele>1076.0</ele><time>2026-04-01T20:57:08.999Z</time></trkpt><trkpt lat="45.79708026919121" lon="11.550210734530085"><ele>1076.0</ele><time>2026-04-01T20:57:09.999Z</time></trkpt><trkpt lat="45.79714673145474" lon="11.550309940976094"><ele>1076.0</ele><time>2026-04-01T20:57:10.999Z</time></trkpt><trkpt lat="45.79720226264103" lon="11.550415948496164"><ele>1076.0</ele><time>2026-04-01T20:57:11.999Z</time></trkpt><trkpt lat="45.79725825893695" lon="11.550525517228245"><ele>1076.0</ele><time>2026-04-01T20:57:12.999Z</time></trkpt><trkpt lat="45.79729210719287" lon="11.550646270495331"><ele>1076.0</ele><time>2026-04-01T20:57:13.999Z</time></trkpt><trkpt lat="45.79731643270793" lon="11.550765568448538"><ele>1073.8</ele><time>2026-04-01T20:57:14.999Z</time></trkpt><trkpt lat="45.79734867137808" lon="11.550876583666879"><ele>1071.6</ele><time>2026-04-01T20:57:15.999Z</time></trkpt><trkpt lat="45.79738441234699" lon="11.550999765918824"><ele>1069.4</ele><time>2026-04-01T20:57:16.999Z</time></trkpt><trkpt lat="45.79741579029218" lon="11.551098284822087"><ele>1067.2</ele><time>2026-04-01T20:57:17.999Z</time></trkpt><trkpt lat="45.79745117163736" lon="11.551200946264384"><ele>1065.0</ele><time>2026-04-01T20:57:18.999Z</time></trkpt><trkpt lat="45.79753576793789" lon="11.551356984372704"><ele>1064.6</ele><time>2026-04-01T20:57:20.999Z</time></trkpt><trkpt lat="45.797598847792855" lon="11.55144987494611"><ele>1064.2</ele><time>2026-04-01T20:57:21.999Z</time></trkpt><trkpt lat="45.79767771095305" lon="11.551537067673298"><ele>1063.8</ele><time>2026-04-01T20:57:22.999Z</time></trkpt><trkpt lat="45.79776640647016" lon="11.551591190068699"><ele>1063.4</ele><time>2026-04-01T20:57:23.999Z</time></trkpt><trkpt lat="45.79785954330409" lon="11.55160621513742"><ele>1063.0</ele><time>2026-04-01T20:57:24.999Z</time></trkpt><trkpt lat="45.79795523050293" lon="11.551572705718868"><ele>1063.0</ele><time>2026-04-01T20:57:25.999Z</time></trkpt><trkpt lat="45.7980443720101" lon="11.551559359670643"><ele>1063.0</ele><time>2026-04-01T20:57:26.999Z</time></trkpt><trkpt lat="45.79812830186414" lon="11.55157297479847"><ele>1063.0</ele><time>2026-04-01T20:57:27.999Z</time></trkpt><trkpt lat="45.79821098665141" lon="11.551590082895796"><ele>1063.0</ele><time>2026-04-01T20:57:28.999Z</time></trkpt><trkpt lat="45.79827301627923" lon="11.55163137729254"><ele>1063.0</ele><time>2026-04-01T20:57:29.999Z</time></trkpt><trkpt lat="45.798328796366945" lon="11.55170043985733"><ele>1063.0</ele><time>2026-04-01T20:57:30.999Z</time></trkpt><trkpt lat="45.79842032177384" lon="11.55185332996857"><ele>1063.0</ele><time>2026-04-01T20:57:32.999Z</time></trkpt><trkpt lat="45.7984848642069" lon="11.552018085581986"><ele>1063.0</ele><time>2026-04-01T20:57:34.999Z</time></trkpt><trkpt lat="45.798517103933946" lon="11.552118682392473"><ele>1063.0</ele><time>2026-04-01T20:57:35.999Z</time></trkpt><trkpt lat="45.798541015277806" lon="11.552217876654298"><ele>1063.0</ele><time>2026-04-01T20:57:36.999Z</time></trkpt><trkpt lat="45.79854768584951" lon="11.552323229032218"><ele>1063.0</ele><time>2026-04-01T20:57:37.999Z</time></trkpt><trkpt lat="45.798557699949185" lon="11.552435403561004"><ele>1063.0</ele><time>2026-04-01T20:57:38.999Z</time></trkpt><trkpt lat="45.79858321691263" lon="11.552583126038531"><ele>1063.1666666666665</ele><time>2026-04-01T20:57:39.999Z</time></trkpt><trkpt lat="45.79859961094472" lon="11.552686231795303"><ele>1063.3333333333333</ele><time>2026-04-01T20:57:40.999Z</time></trkpt><trkpt lat="45.798628509373046" lon="11.552799839051794"><ele>1063.5</ele><time>2026-04-01T20:57:41.999Z</time></trkpt><trkpt lat="45.79868662452675" lon="11.552927681257524"><ele>1063.6666666666667</ele><time>2026-04-01T20:57:42.999Z</time></trkpt><trkpt lat="45.79874993218865" lon="11.552997340152917"><ele>1063.8333333333335</ele><time>2026-04-01T20:57:43.999Z</time></trkpt><trkpt lat="45.798794220570564" lon="11.55310253184971"><ele>1064.0</ele><time>2026-04-01T20:57:44.999Z</time></trkpt><trkpt lat="45.79888429220958" lon="11.553189422841008"><ele>1061.8</ele><time>2026-04-01T20:57:45.999Z</time></trkpt><trkpt lat="45.798971598365306" lon="11.553232725724493"><ele>1059.6000000000001</ele><time>2026-04-01T20:57:46.999Z</time></trkpt><trkpt lat="45.79903630843093" lon="11.55329930533169"><ele>1057.4</ele><time>2026-04-01T20:57:47.999Z</time></trkpt><trkpt lat="45.799119647361664" lon="11.553374092811044"><ele>1055.2</ele><time>2026-04-01T20:57:48.999Z</time></trkpt><trkpt lat="45.79922565328912" lon="11.553405275497594"><ele>1053.0</ele><time>2026-04-01T20:57:49.999Z</time></trkpt><trkpt lat="45.79931257356158" lon="11.553441429722813"><ele>1053.0</ele><time>2026-04-01T20:57:50.999Z</time></trkpt><trkpt lat="45.79943348640346" lon="11.553487690585287"><ele>1053.0</ele><time>2026-04-01T20:57:51.999Z</time></trkpt><trkpt lat="45.79953693529278" lon="11.553508835440537"><ele>1053.0</ele><time>2026-04-01T20:57:52.998Z</time></trkpt><trkpt lat="45.799645178152225" lon="11.553491766562285"><ele>1053.0</ele><time>2026-04-01T20:57:53.998Z</time></trkpt><trkpt lat="45.79975405592753" lon="11.553462302222131"><ele>1053.0</ele><time>2026-04-01T20:57:54.998Z</time></trkpt><trkpt lat="45.79984947209191" lon="11.553388714650232"><ele>1053.0</ele><time>2026-04-01T20:57:55.998Z</time></trkpt><trkpt lat="45.79994001863865" lon="11.553297992173784"><ele>1053.0</ele><time>2026-04-01T20:57:56.998Z</time></trkpt><trkpt lat="45.80003481093672" lon="11.553201318661513"><ele>1053.0</ele><time>2026-04-01T20:57:57.998Z</time></trkpt><trkpt lat="45.800102059747424" lon="11.55312808819257"><ele>1053.0</ele><time>2026-04-01T20:57:58.998Z</time></trkpt><trkpt lat="45.800228456973876" lon="11.552997441122917"><ele>1052.4</ele><time>2026-04-01T20:57:59.998Z</time></trkpt><trkpt lat="45.80034017394906" lon="11.552891852679414"><ele>1051.8</ele><time>2026-04-01T20:58:00.998Z</time></trkpt><trkpt lat="45.80044316166709" lon="11.552798047520765"><ele>1051.2</ele><time>2026-04-01T20:58:01.998Z</time></trkpt><trkpt lat="45.80053565102066" lon="11.552709734294124"><ele>1050.6</ele><time>2026-04-01T20:58:02.998Z</time></trkpt><trkpt lat="45.800593808583116" lon="11.55264658142599"><ele>1050.0</ele><time>2026-04-01T20:58:03.998Z</time></trkpt><trkpt lat="45.80067542668465" lon="11.55258076859474"><ele>1050.0</ele><time>2026-04-01T20:58:04.998Z</time></trkpt><trkpt lat="45.80075200746475" lon="11.55256608095438"><ele>1050.0</ele><time>2026-04-01T20:58:05.998Z</time></trkpt><trkpt lat="45.80082646483883" lon="11.552563907745903"><ele>1050.0</ele><time>2026-04-01T20:58:06.998Z</time></trkpt><trkpt lat="45.80079539008113" lon="11.552680209625542"><ele>1050.0</ele><time>2026-04-01T20:58:08.998Z</time></trkpt><trkpt lat="45.80084588368697" lon="11.5527784466389"><ele>1050.0</ele><time>2026-04-01T20:58:12.998Z</time></trkpt><trkpt lat="45.80088826290726" lon="11.552908631242465"><ele>1050.0</ele><time>2026-04-01T20:58:14.998Z</time></trkpt><trkpt lat="45.800929996946806" lon="11.553097928984752"><ele>1050.0</ele><time>2026-04-01T20:58:15.998Z</time></trkpt><trkpt lat="45.80096182622299" lon="11.5532611356985"><ele>1050.0</ele><time>2026-04-01T20:58:16.998Z</time></trkpt><trkpt lat="45.80097845409441" lon="11.55335774516992"><ele>1050.0</ele><time>2026-04-01T20:58:17.998Z</time></trkpt><trkpt lat="45.80100538846982" lon="11.553451573231271"><ele>1050.0</ele><time>2026-04-01T20:58:18.998Z</time></trkpt><trkpt lat="45.80101114915738" lon="11.553564071984933"><ele>1050.0</ele><time>2026-04-01T20:58:20.998Z</time></trkpt><trkpt lat="45.80102383149964" lon="11.553707046531269"><ele>1050.0</ele><time>2026-04-01T20:58:22.998Z</time></trkpt><trkpt lat="45.80102545815124" lon="11.553911688720865"><ele>1047.5</ele><time>2026-04-01T20:58:23.998Z</time></trkpt><trkpt lat="45.80101381403705" lon="11.554051848690547"><ele>1045.0</ele><time>2026-04-01T20:58:25Z</time></trkpt><trkpt lat="45.80099444267328" lon="11.554177355216076"><ele>1042.5</ele><time>2026-04-01T20:58:26Z</time></trkpt><trkpt lat="45.800985973169894" lon="11.55445028449183"><ele>1040.0</ele><time>2026-04-01T20:58:27Z</time></trkpt><trkpt lat="45.80098179766708" lon="11.55455486899724"><ele>1042.8333333333335</ele><time>2026-04-01T20:58:28Z</time></trkpt><trkpt lat="45.80100200081368" lon="11.554720476710967"><ele>1045.6666666666667</ele><time>2026-04-01T20:58:29Z</time></trkpt><trkpt lat="45.80100753937659" lon="11.554812624106306"><ele>1048.5</ele><time>2026-04-01T20:58:30Z</time></trkpt><trkpt lat="45.80101577102004" lon="11.554944349709658"><ele>1051.3333333333333</ele><time>2026-04-01T20:58:31Z</time></trkpt><trkpt lat="45.8010323810976" lon="11.555089634117186"><ele>1054.1666666666665</ele><time>2026-04-01T20:58:32Z</time></trkpt><trkpt lat="45.80103642752934" lon="11.555193301350467"><ele>1057.0</ele><time>2026-04-01T20:58:33Z</time></trkpt><trkpt lat="45.80104000713619" lon="11.5552893865028"><ele>1053.6666666666665</ele><time>2026-04-01T20:58:34Z</time></trkpt><trkpt lat="45.80104940209162" lon="11.555577563908168"><ele>1050.3333333333333</ele><time>2026-04-01T20:58:35Z</time></trkpt><trkpt lat="45.801100792909494" lon="11.555801318475504"><ele>1047.0</ele><time>2026-04-01T20:58:36Z</time></trkpt><trkpt lat="45.80126662497494" lon="11.55607887455701"><ele>1047.0</ele><time>2026-04-01T20:58:37Z</time></trkpt><trkpt lat="45.801385717288774" lon="11.556171788513291"><ele>1047.0</ele><time>2026-04-01T20:58:38Z</time></trkpt><trkpt lat="45.801464335679086" lon="11.556216835401058"><ele>1047.0</ele><time>2026-04-01T20:58:39Z</time></trkpt><trkpt lat="45.80155698750786" lon="11.556301347813877"><ele>1047.0</ele><time>2026-04-01T20:58:40Z</time></trkpt><trkpt lat="45.801635917602624" lon="11.556394803435195"><ele>1047.0</ele><time>2026-04-01T20:58:41Z</time></trkpt><trkpt lat="45.801705113084424" lon="11.556492543000044"><ele>1048.0</ele><time>2026-04-01T20:58:42Z</time></trkpt><trkpt lat="45.80177609012537" lon="11.556583294979026"><ele>1049.0</ele><time>2026-04-01T20:58:43Z</time></trkpt><trkpt lat="45.80184784884457" lon="11.556709348634655"><ele>1050.0</ele><time>2026-04-01T20:58:44Z</time></trkpt><trkpt lat="45.8018884390513" lon="11.556858081324753"><ele>1051.0</ele><time>2026-04-01T20:58:45Z</time></trkpt><trkpt lat="45.80192250879871" lon="11.556985792547941"><ele>1052.0</ele><time>2026-04-01T20:58:46Z</time></trkpt><trkpt lat="45.8019454182719" lon="11.557104386055782"><ele>1048.0</ele><time>2026-04-01T20:58:47Z</time></trkpt><trkpt lat="45.801989314956074" lon="11.55725427064365"><ele>1044.0</ele><time>2026-04-01T20:58:48Z</time></trkpt><trkpt lat="45.80202680220373" lon="11.557459873016832"><ele>1040.0</ele><time>2026-04-01T20:58:50Z</time></trkpt><trkpt lat="45.802082484552294" lon="11.557602586819742"><ele>1036.0</ele><time>2026-04-01T20:58:51Z</time></trkpt><trkpt lat="45.80212123783288" lon="11.5577418341212"><ele>1036.0</ele><time>2026-04-01T20:58:52Z</time></trkpt><trkpt lat="45.80218147839788" lon="11.557843164179253"><ele>1036.0</ele><time>2026-04-01T20:58:53Z</time></trkpt><trkpt lat="45.80226209748696" lon="11.557951442087747"><ele>1036.0</ele><time>2026-04-01T20:58:54Z</time></trkpt><trkpt lat="45.80232335811067" lon="11.558001929618507"><ele>1036.0</ele><time>2026-04-01T20:58:55Z</time></trkpt><trkpt lat="45.80239008835944" lon="11.558062364232725"><ele>1036.0</ele><time>2026-04-01T20:58:56Z</time></trkpt><trkpt lat="45.802448866363505" lon="11.558148992757578"><ele>1036.0</ele><time>2026-04-01T20:58:57Z</time></trkpt><trkpt lat="45.802490496976134" lon="11.558267998039533"><ele>1034.2</ele><time>2026-04-01T20:58:58Z</time></trkpt><trkpt lat="45.802499150201385" lon="11.558361831085548"><ele>1032.3999999999999</ele><time>2026-04-01T20:58:59Z</time></trkpt><trkpt lat="45.80244431425677" lon="11.558485684979445"><ele>1030.6</ele><time>2026-04-01T20:59:01Z</time></trkpt><trkpt lat="45.802360153258434" lon="11.558581645503628"><ele>1028.8</ele><time>2026-04-01T20:59:02.999Z</time></trkpt><trkpt lat="45.80225232100404" lon="11.558701782472632"><ele>1027.0</ele><time>2026-04-01T20:59:04.999Z</time></trkpt><trkpt lat="45.80213880971122" lon="11.558833750851289"><ele>1027.0</ele><time>2026-04-01T20:59:06.999Z</time></trkpt><trkpt lat="45.80205874151449" lon="11.558964318979116"><ele>1027.0</ele><time>2026-04-01T20:59:07.999Z</time></trkpt><trkpt lat="45.802007896321626" lon="11.559155380739837"><ele>1027.0</ele><time>2026-04-01T20:59:09.999Z</time></trkpt><trkpt lat="45.80200224841456" lon="11.559301405504836"><ele>1027.0</ele><time>2026-04-01T20:59:10.999Z</time></trkpt><trkpt lat="45.802019848800896" lon="11.559460066608258"><ele>1026.0</ele><time>2026-04-01T20:59:11.999Z</time></trkpt><trkpt lat="45.802056900385686" lon="11.559602436442988"><ele>1025.0</ele><time>2026-04-01T20:59:12.999Z</time></trkpt><trkpt lat="45.802102000331104" lon="11.55974238340813"><ele>1024.0</ele><time>2026-04-01T20:59:13.999Z</time></trkpt><trkpt lat="45.802158651078045" lon="11.559906311323516"><ele>1023.0</ele><time>2026-04-01T20:59:14.999Z</time></trkpt><trkpt lat="45.802192172876126" lon="11.560043224972166"><ele>1022.0</ele><time>2026-04-01T20:59:15.999Z</time></trkpt><trkpt lat="45.802224367672295" lon="11.560169960234102"><ele>1022.0</ele><time>2026-04-01T20:59:16.999Z</time></trkpt><trkpt lat="45.802262544176585" lon="11.560296538297608"><ele>1022.0</ele><time>2026-04-01T20:59:17.999Z</time></trkpt><trkpt lat="45.8023237032395" lon="11.560433724605282"><ele>1022.0</ele><time>2026-04-01T20:59:18.999Z</time></trkpt><trkpt lat="45.80244243852037" lon="11.56056494492513"><ele>1022.0</ele><time>2026-04-01T20:59:20.999Z</time></trkpt><trkpt lat="45.80247657529817" lon="11.56066842825605"><ele>1022.0</ele><time>2026-04-01T20:59:21.999Z</time></trkpt><trkpt lat="45.80252511610944" lon="11.560780092679849"><ele>1021.3333333333334</ele><time>2026-04-01T20:59:22.999Z</time></trkpt><trkpt lat="45.80255242802755" lon="11.560888723764542"><ele>1020.6666666666667</ele><time>2026-04-01T20:59:23.999Z</time></trkpt><trkpt lat="45.80256950053141" lon="11.561003620156542"><ele>1020.0</ele><time>2026-04-01T20:59:24.999Z</time></trkpt><trkpt lat="45.80258288115957" lon="11.561117940708318"><ele>1019.3333333333333</ele><time>2026-04-01T20:59:25.999Z</time></trkpt><trkpt lat="45.80260979561831" lon="11.561270555595316"><ele>1018.6666666666666</ele><time>2026-04-01T20:59:27.999Z</time></trkpt><trkpt lat="45.80266326649542" lon="11.56137607455481"><ele>1018.0</ele><time>2026-04-01T20:59:28.999Z</time></trkpt><trkpt lat="45.802733408888244" lon="11.561462051701088"><ele>1017.9999999999999</ele><time>2026-04-01T20:59:29.999Z</time></trkpt><trkpt lat="45.802816608211145" lon="11.56155043513902"><ele>1018.0</ele><time>2026-04-01T20:59:30.999Z</time></trkpt><trkpt lat="45.80286362613877" lon="11.561621772523802"><ele>1018.0</ele><time>2026-04-01T20:59:31.999Z</time></trkpt><trkpt lat="45.80291824626986" lon="11.561731679814516"><ele>1018.0</ele><time>2026-04-01T20:59:32.999Z</time></trkpt><trkpt lat="45.80295987591553" lon="11.561842181880722"><ele>1017.9999999999999</ele><time>2026-04-01T20:59:33.999Z</time></trkpt><trkpt lat="45.80299409156344" lon="11.561944111169723"><ele>1018.0</ele><time>2026-04-01T20:59:34.999Z</time></trkpt><trkpt lat="45.80305803552977" lon="11.5621137730279"><ele>1015.5999999999999</ele><time>2026-04-01T20:59:35.999Z</time></trkpt><trkpt lat="45.80312147964485" lon="11.562254913476922"><ele>1013.1999999999999</ele><time>2026-04-01T20:59:36.999Z</time></trkpt><trkpt lat="45.803210348607784" lon="11.562358553900033"><ele>1010.8</ele><time>2026-04-01T20:59:38.999Z</time></trkpt><trkpt lat="45.803269547819866" lon="11.56241428113115"><ele>1008.4</ele><time>2026-04-01T20:59:39.999Z</time></trkpt><trkpt lat="45.80334454740318" lon="11.562511653462758"><ele>1006.0</ele><time>2026-04-01T20:59:40.999Z</time></trkpt><trkpt lat="45.80339534609656" lon="11.562617247334398"><ele>1005.9999999999999</ele><time>2026-04-01T20:59:41.999Z</time></trkpt><trkpt lat="45.80342122723739" lon="11.562753812520217"><ele>1006.0</ele><time>2026-04-01T20:59:42.999Z</time></trkpt><trkpt lat="45.80342186983789" lon="11.562865777119926"><ele>1006.0</ele><time>2026-04-01T20:59:43.999Z</time></trkpt><trkpt lat="45.803414508123424" lon="11.562957669705659"><ele>1006.0</ele><time>2026-04-01T20:59:44.999Z</time></trkpt><trkpt lat="45.803399400313445" lon="11.563069722938723"><ele>1005.9999999999999</ele><time>2026-04-01T20:59:45.999Z</time></trkpt><trkpt lat="45.803376207340214" lon="11.563175806967324"><ele>1006.0</ele><time>2026-04-01T20:59:46.999Z</time></trkpt><trkpt lat="45.80335553476152" lon="11.563301587780881"><ele>1004.3333333333333</ele><time>2026-04-01T20:59:48.999Z</time></trkpt><trkpt lat="45.80322312862193" lon="11.563588636881635"><ele>1002.6666666666667</ele><time>2026-04-01T20:59:50.999Z</time></trkpt><trkpt lat="45.80313171428879" lon="11.563748392350888"><ele>1001.0</ele><time>2026-04-01T20:59:51.999Z</time></trkpt><trkpt lat="45.803061894527545" lon="11.56388440125905"><ele>1000.5999999999999</ele><time>2026-04-01T20:59:52.999Z</time></trkpt><trkpt lat="45.80302465136826" lon="11.564012978385302"><ele>1000.1999999999999</ele><time>2026-04-01T20:59:53.999Z</time></trkpt><trkpt lat="45.80301485002512" lon="11.564172381694885"><ele>999.8000000000001</ele><time>2026-04-01T20:59:54.999Z</time></trkpt><trkpt lat="45.80302578227887" lon="11.564320961835588"><ele>999.4000000000001</ele><time>2026-04-01T20:59:55.999Z</time></trkpt><trkpt lat="45.80306499042259" lon="11.564482527530666"><ele>999.0</ele><time>2026-04-01T20:59:56.998Z</time></trkpt><trkpt lat="45.803149214898305" lon="11.564598646415783"><ele>999.0</ele><time>2026-04-01T20:59:57.998Z</time></trkpt><trkpt lat="45.80326378688128" lon="11.564693691233527"><ele>999.0</ele><time>2026-04-01T20:59:58.998Z</time></trkpt><trkpt lat="45.80343036195814" lon="11.56446862212593"><ele>999.0</ele><time>2026-04-01T20:59:59.998Z</time></trkpt><trkpt lat="45.80355475495167" lon="11.56439705255242"><ele>999.0</ele><time>2026-04-01T21:00:01.998Z</time></trkpt><trkpt lat="45.803645530684385" lon="11.564360083711977"><ele>999.0000000000001</ele><time>2026-04-01T21:00:02.998Z</time></trkpt><trkpt lat="45.803760821238996" lon="11.5643313377456"><ele>999.0000000000001</ele><time>2026-04-01T21:00:03.998Z</time></trkpt><trkpt lat="45.80388855722906" lon="11.564347627908456"><ele>999.0</ele><time>2026-04-01T21:00:04.998Z</time></trkpt><trkpt lat="45.80398264105308" lon="11.564404905630724"><ele>999.0</ele><time>2026-04-01T21:00:05.998Z</time></trkpt><trkpt lat="45.8039184566049" lon="11.564583002486334"><ele>999.0</ele><time>2026-04-01T21:00:11.998Z</time></trkpt><trkpt lat="45.80397333270922" lon="11.564916029523683"><ele>999.0</ele><time>2026-04-01T21:00:15.998Z</time></trkpt><trkpt lat="45.80407047708563" lon="11.565026748048338"><ele>999.0</ele><time>2026-04-01T21:00:16.998Z</time></trkpt><trkpt lat="45.803968592292" lon="11.565566267725096"><ele>999.0</ele><time>2026-04-01T21:00:18.998Z</time></trkpt><trkpt lat="45.80392435813461" lon="11.565647413994768"><ele>999.0</ele><time>2026-04-01T21:00:20.998Z</time></trkpt><trkpt lat="45.80379322340867" lon="11.565425040115633"><ele>999.0</ele><time>2026-04-01T21:00:24.998Z</time></trkpt><trkpt lat="45.80371391091228" lon="11.565351582342778"><ele>999.0</ele><time>2026-04-01T21:00:26.998Z</time></trkpt><trkpt lat="45.80356285022623" lon="11.565230910928364"><ele>997.0</ele><time>2026-04-01T21:00:28.998Z</time></trkpt><trkpt lat="45.80344141579867" lon="11.565164629742283"><ele>995.0</ele><time>2026-04-01T21:00:29.998Z</time></trkpt><trkpt lat="45.80328150563359" lon="11.565142326765855"><ele>993.0</ele><time>2026-04-01T21:00:31Z</time></trkpt><trkpt lat="45.80316261154663" lon="11.565154515991116"><ele>991.0</ele><time>2026-04-01T21:00:32Z</time></trkpt><trkpt lat="45.803028113585114" lon="11.565180654628232"><ele>991.0</ele><time>2026-04-01T21:00:33Z</time></trkpt><trkpt lat="45.802923557050704" lon="11.565202269023064"><ele>991.0</ele><time>2026-04-01T21:00:35Z</time></trkpt><trkpt lat="45.8028067896261" lon="11.565220208856802"><ele>991.0</ele><time>2026-04-01T21:00:36Z</time></trkpt><trkpt lat="45.802668954519476" lon="11.565221075154897"><ele>991.0</ele><time>2026-04-01T21:00:37Z</time></trkpt><trkpt lat="45.802564048911414" lon="11.565173228692318"><ele>989.1999999999999</ele><time>2026-04-01T21:00:38Z</time></trkpt><trkpt lat="45.802483921833904" lon="11.565117702618455"><ele>987.3999999999999</ele><time>2026-04-01T21:00:39Z</time></trkpt><trkpt lat="45.80243439957452" lon="11.565056245321982"><ele>985.6</ele><time>2026-04-01T21:00:40Z</time></trkpt><trkpt lat="45.80236132739479" lon="11.564950207393675"><ele>983.8</ele><time>2026-04-01T21:00:42Z</time></trkpt><trkpt lat="45.80226420298749" lon="11.564821223463898"><ele>982.0</ele><time>2026-04-01T21:00:43Z</time></trkpt><trkpt lat="45.8021378061756" lon="11.564653692739434"><ele>983.6</ele><time>2026-04-01T21:00:45Z</time></trkpt><trkpt lat="45.8020844747195" lon="11.564519689844005"><ele>985.2</ele><time>2026-04-01T21:00:46Z</time></trkpt><trkpt lat="45.80206663457581" lon="11.564388731252832"><ele>986.8</ele><time>2026-04-01T21:00:47Z</time></trkpt><trkpt lat="45.80205381170137" lon="11.564259094532071"><ele>988.4</ele><time>2026-04-01T21:00:48Z</time></trkpt><trkpt lat="45.802042716224825" lon="11.564146922030186"><ele>990.0</ele><time>2026-04-01T21:00:49Z</time></trkpt><trkpt lat="45.80203116389474" lon="11.564030129180038"><ele>990.0</ele><time>2026-04-01T21:00:50Z</time></trkpt><trkpt lat="45.802014645416186" lon="11.56389042349095"><ele>990.0</ele><time>2026-04-01T21:00:51Z</time></trkpt><trkpt lat="45.80180378022467" lon="11.563800062696567"><ele>990.0</ele><time>2026-04-01T21:00:52Z</time></trkpt><trkpt lat="45.801746479014966" lon="11.563714180599503"><ele>990.0</ele><time>2026-04-01T21:00:53Z</time></trkpt><trkpt lat="45.80168035811265" lon="11.563772656960992"><ele>987.0</ele><time>2026-04-01T21:00:54Z</time></trkpt><trkpt lat="45.801578990595736" lon="11.563782604251841"><ele>984.0</ele><time>2026-04-01T21:00:55Z</time></trkpt><trkpt lat="45.80148280396621" lon="11.563511105287509"><ele>981.0</ele><time>2026-04-01T21:00:56Z</time></trkpt><trkpt lat="45.801390124633045" lon="11.563510081541787"><ele>978.0</ele><time>2026-04-01T21:00:57Z</time></trkpt><trkpt lat="45.80131324185102" lon="11.563502727990722"><ele>978.0</ele><time>2026-04-01T21:00:58Z</time></trkpt><trkpt lat="45.80121490511508" lon="11.563484995189125"><ele>978.0</ele><time>2026-04-01T21:00:59Z</time></trkpt><trkpt lat="45.80113389589673" lon="11.563461602179181"><ele>978.0</ele><time>2026-04-01T21:01:00Z</time></trkpt><trkpt lat="45.80101306186196" lon="11.563393765812958"><ele>978.0</ele><time>2026-04-01T21:01:01Z</time></trkpt><trkpt lat="45.800959673303815" lon="11.563330841991593"><ele>978.0</ele><time>2026-04-01T21:01:02Z</time></trkpt><trkpt lat="45.80091549242047" lon="11.563251206586964"><ele>975.8</ele><time>2026-04-01T21:01:03Z</time></trkpt><trkpt lat="45.800877296248174" lon="11.56314701959249"><ele>973.5999999999999</ele><time>2026-04-01T21:01:04Z</time></trkpt><trkpt lat="45.800828957869705" lon="11.563024940779318"><ele>971.4000000000001</ele><time>2026-04-01T21:01:05Z</time></trkpt><trkpt lat="45.800776904097226" lon="11.56291223038934"><ele>969.2</ele><time>2026-04-01T21:01:05.999Z</time></trkpt><trkpt lat="45.800727472150186" lon="11.562776041336807"><ele>967.0</ele><time>2026-04-01T21:01:06.999Z</time></trkpt><trkpt lat="45.80067083946791" lon="11.56263222463097"><ele>967.0</ele><time>2026-04-01T21:01:07.999Z</time></trkpt><trkpt lat="45.80061415476626" lon="11.562464144509818"><ele>967.0</ele><time>2026-04-01T21:01:08.999Z</time></trkpt><trkpt lat="45.800563234080656" lon="11.562324393793311"><ele>967.0</ele><time>2026-04-01T21:01:09.999Z</time></trkpt><trkpt lat="45.80050674993722" lon="11.562180837998497"><ele>967.0</ele><time>2026-04-01T21:01:10.999Z</time></trkpt><trkpt lat="45.80045772656748" lon="11.562050271154757"><ele>967.0</ele><time>2026-04-01T21:01:11.999Z</time></trkpt><trkpt lat="45.80041196930604" lon="11.561918631329899"><ele>967.0</ele><time>2026-04-01T21:01:12.999Z</time></trkpt><trkpt lat="45.80038911043668" lon="11.561778094285922"><ele>967.0</ele><time>2026-04-01T21:01:13.999Z</time></trkpt><trkpt lat="45.80043971896881" lon="11.56166046749099"><ele>967.0</ele><time>2026-04-01T21:01:14.999Z</time></trkpt><trkpt lat="45.8005415193406" lon="11.56148454741976"><ele>967.0</ele><time>2026-04-01T21:01:16.999Z</time></trkpt><trkpt lat="45.80057112891833" lon="11.56135916279911"><ele>967.0</ele><time>2026-04-01T21:01:17.999Z</time></trkpt><trkpt lat="45.800591765462535" lon="11.56123732908715"><ele>967.0</ele><time>2026-04-01T21:01:18.999Z</time></trkpt><trkpt lat="45.800600954814584" lon="11.561061723600911"><ele>967.0</ele><time>2026-04-01T21:01:19.999Z</time></trkpt><trkpt lat="45.80065353277446" lon="11.560894745200493"><ele>967.0</ele><time>2026-04-01T21:01:20.999Z</time></trkpt><trkpt lat="45.80069674214428" lon="11.560669941587363"><ele>965.75</ele><time>2026-04-01T21:01:21.999Z</time></trkpt><trkpt lat="45.800705117083965" lon="11.560505319484006"><ele>964.5</ele><time>2026-04-01T21:01:22.999Z</time></trkpt><trkpt lat="45.80070919578088" lon="11.560381072336066"><ele>963.25</ele><time>2026-04-01T21:01:23.999Z</time></trkpt><trkpt lat="45.800697409659605" lon="11.560194692057006"><ele>962.0</ele><time>2026-04-01T21:01:25.999Z</time></trkpt><trkpt lat="45.80069166741759" lon="11.560008023200838"><ele>962.0</ele><time>2026-04-01T21:01:26.999Z</time></trkpt><trkpt lat="45.80068343951845" lon="11.559841558874156"><ele>962.0</ele><time>2026-04-01T21:01:27.999Z</time></trkpt><trkpt lat="45.80067656671667" lon="11.559674670317715"><ele>962.0</ele><time>2026-04-01T21:01:28.999Z</time></trkpt><trkpt lat="45.800660692356615" lon="11.55950418454446"><ele>962.0</ele><time>2026-04-01T21:01:29.999Z</time></trkpt><trkpt lat="45.80064332851853" lon="11.559331054078132"><ele>962.6</ele><time>2026-04-01T21:01:30.999Z</time></trkpt><trkpt lat="45.80066458366296" lon="11.559121481197394"><ele>963.2</ele><time>2026-04-01T21:01:31.999Z</time></trkpt><trkpt lat="45.800646714926806" lon="11.559001784283726"><ele>963.8</ele><time>2026-04-01T21:01:32.999Z</time></trkpt><trkpt lat="45.80061348528676" lon="11.55887772392174"><ele>964.4</ele><time>2026-04-01T21:01:33.999Z</time></trkpt><trkpt lat="45.80053323102937" lon="11.558742375180186"><ele>965.0</ele><time>2026-04-01T21:01:34.999Z</time></trkpt><trkpt lat="45.800467551175785" lon="11.558667931917025"><ele>964.25</ele><time>2026-04-01T21:01:35.999Z</time></trkpt><trkpt lat="45.800319943925665" lon="11.558638744002316"><ele>963.5</ele><time>2026-04-01T21:01:37.999Z</time></trkpt><trkpt lat="45.800202421590605" lon="11.558577694847465"><ele>962.75</ele><time>2026-04-01T21:01:38.999Z</time></trkpt><trkpt lat="45.80010383016358" lon="11.55865006838834"><ele>962.0</ele><time>2026-04-01T21:01:39.999Z</time></trkpt><trkpt lat="45.79999356447382" lon="11.558726806537804"><ele>957.0</ele><time>2026-04-01T21:01:40.999Z</time></trkpt><trkpt lat="45.79991137360384" lon="11.558767893955928"><ele>952.0</ele><time>2026-04-01T21:01:41.999Z</time></trkpt><trkpt lat="45.79983767809229" lon="11.558844156406476"><ele>947.0</ele><time>2026-04-01T21:01:42.999Z</time></trkpt><trkpt lat="45.79972265392" lon="11.55895578855417"><ele>942.0</ele><time>2026-04-01T21:01:43.999Z</time></trkpt><trkpt lat="45.799554235057656" lon="11.559037879099716"><ele>942.0</ele><time>2026-04-01T21:01:44.999Z</time></trkpt><trkpt lat="45.7994687377783" lon="11.559093503073743"><ele>942.0</ele><time>2026-04-01T21:01:45.999Z</time></trkpt><trkpt lat="45.79938802341663" lon="11.559154835951205"><ele>942.0</ele><time>2026-04-01T21:01:46.999Z</time></trkpt><trkpt lat="45.799289982725455" lon="11.55922168229603"><ele>942.0</ele><time>2026-04-01T21:01:47.999Z</time></trkpt><trkpt lat="45.799208769706794" lon="11.559289859095912"><ele>942.0</ele><time>2026-04-01T21:01:48.999Z</time></trkpt><trkpt lat="45.79907937539011" lon="11.559380433670126"><ele>942.5</ele><time>2026-04-01T21:01:49.999Z</time></trkpt><trkpt lat="45.798993233964964" lon="11.559412932428314"><ele>943.0</ele><time>2026-04-01T21:01:50.999Z</time></trkpt><trkpt lat="45.798899546647604" lon="11.559450698297328"><ele>943.5</ele><time>2026-04-01T21:01:51.999Z</time></trkpt><trkpt lat="45.79882611382505" lon="11.559461472758114"><ele>944.0</ele><time>2026-04-01T21:01:52.999Z</time></trkpt><trkpt lat="45.798739607333886" lon="11.559473029671196"><ele>944.5</ele><time>2026-04-01T21:01:53.999Z</time></trkpt><trkpt lat="45.798667356379816" lon="11.55942535386454"><ele>945.0</ele><time>2026-04-01T21:01:54.999Z</time></trkpt><trkpt lat="45.79856807012879" lon="11.559299603102186"><ele>945.0</ele><time>2026-04-01T21:01:56.999Z</time></trkpt><trkpt lat="45.7985305326329" lon="11.55917933903086"><ele>945.0</ele><time>2026-04-01T21:01:57.999Z</time></trkpt><trkpt lat="45.79850595225607" lon="11.559085261704398"><ele>945.0</ele><time>2026-04-01T21:01:58.999Z</time></trkpt><trkpt lat="45.798519731326095" lon="11.5589852132076"><ele>945.0</ele><time>2026-04-01T21:01:59.999Z</time></trkpt><trkpt lat="45.79854652156035" lon="11.558878389648488"><ele>945.0</ele><time>2026-04-01T21:02:00.999Z</time></trkpt><trkpt lat="45.79856565931973" lon="11.558766989103487"><ele>945.0</ele><time>2026-04-01T21:02:01.998Z</time></trkpt><trkpt lat="45.798582597058854" lon="11.55857780939301"><ele>943.4</ele><time>2026-04-01T21:02:03.998Z</time></trkpt><trkpt lat="45.798556738615964" lon="11.558444071593545"><ele>941.8</ele><time>2026-04-01T21:02:04.998Z</time></trkpt><trkpt lat="45.79851189988109" lon="11.558278958694391"><ele>940.2</ele><time>2026-04-01T21:02:05.998Z</time></trkpt><trkpt lat="45.79844255474336" lon="11.558173873065046"><ele>938.6</ele><time>2026-04-01T21:02:06.998Z</time></trkpt><trkpt lat="45.798355652307855" lon="11.558104021310635"><ele>937.0</ele><time>2026-04-01T21:02:07.998Z</time></trkpt><trkpt lat="45.79826777331893" lon="11.558058282097251"><ele>937.0</ele><time>2026-04-01T21:02:08.998Z</time></trkpt><trkpt lat="45.798164053665744" lon="11.558009430081135"><ele>937.0</ele><time>2026-04-01T21:02:09.998Z</time></trkpt><trkpt lat="45.7980768331738" lon="11.557968734652148"><ele>937.0</ele><time>2026-04-01T21:02:10.998Z</time></trkpt><trkpt lat="45.797938680136696" lon="11.55790427528867"><ele>937.0</ele><time>2026-04-01T21:02:11.998Z</time></trkpt><trkpt lat="45.79785599370855" lon="11.557852322119375"><ele>937.0</ele><time>2026-04-01T21:02:12.998Z</time></trkpt><trkpt lat="45.797769748414744" lon="11.557795523584636"><ele>935.0</ele><time>2026-04-01T21:02:13.998Z</time></trkpt><trkpt lat="45.79766716806123" lon="11.557734328870772"><ele>933.0</ele><time>2026-04-01T21:02:14.998Z</time></trkpt><trkpt lat="45.79752172680145" lon="11.557652757587507"><ele>931.0</ele><time>2026-04-01T21:02:15.998Z</time></trkpt><trkpt lat="45.79738603053449" lon="11.557580536223574"><ele>929.0</ele><time>2026-04-01T21:02:16.998Z</time></trkpt><trkpt lat="45.797285731932945" lon="11.557532471236327"><ele>929.0</ele><time>2026-04-01T21:02:17.998Z</time></trkpt><trkpt lat="45.797193270764815" lon="11.557482437448279"><ele>929.0000000000001</ele><time>2026-04-01T21:02:18.998Z</time></trkpt><trkpt lat="45.79708571749662" lon="11.557433561912255"><ele>929.0000000000001</ele><time>2026-04-01T21:02:19.998Z</time></trkpt><trkpt lat="45.79699014207933" lon="11.55737692616861"><ele>929.0</ele><time>2026-04-01T21:02:20.998Z</time></trkpt><trkpt lat="45.796912321086175" lon="11.55729241975909"><ele>929.0</ele><time>2026-04-01T21:02:21.998Z</time></trkpt><trkpt lat="45.796858498007076" lon="11.55717639594695"><ele>927.8000000000001</ele><time>2026-04-01T21:02:22.998Z</time></trkpt><trkpt lat="45.796816171869104" lon="11.557052979202858"><ele>926.6000000000001</ele><time>2026-04-01T21:02:23.998Z</time></trkpt><trkpt lat="45.79678062079646" lon="11.556915196618435"><ele>925.4</ele><time>2026-04-01T21:02:24.998Z</time></trkpt><trkpt lat="45.796748429956246" lon="11.556775922924052"><ele>924.2</ele><time>2026-04-01T21:02:25.998Z</time></trkpt><trkpt lat="45.796706965787294" lon="11.556665573624073"><ele>923.0</ele><time>2026-04-01T21:02:26.998Z</time></trkpt><trkpt lat="45.79666421979442" lon="11.556541400900178"><ele>923.0</ele><time>2026-04-01T21:02:27.998Z</time></trkpt><trkpt lat="45.796591879713574" lon="11.556492446191788"><ele>923.0</ele><time>2026-04-01T21:02:28.998Z</time></trkpt><trkpt lat="45.79657037849507" lon="11.556397626193583"><ele>923.0</ele><time>2026-04-01T21:02:29.998Z</time></trkpt><trkpt lat="45.79650790457706" lon="11.556279367061219"><ele>923.0</ele><time>2026-04-01T21:02:30.998Z</time></trkpt><trkpt lat="45.796421167811104" lon="11.556153495404228"><ele>923.0</ele><time>2026-04-01T21:02:31.998Z</time></trkpt><trkpt lat="45.796348415988405" lon="11.556007879329998"><ele>927.75</ele><time>2026-04-01T21:02:32.998Z</time></trkpt><trkpt lat="45.79628066545041" lon="11.555873295658646"><ele>932.5</ele><time>2026-04-01T21:02:33.998Z</time></trkpt><trkpt lat="45.79621999340556" lon="11.555719174186887"><ele>937.25</ele><time>2026-04-01T21:02:34.998Z</time></trkpt><trkpt lat="45.79617093789248" lon="11.555578314862439"><ele>942.0</ele><time>2026-04-01T21:02:35.998Z</time></trkpt><trkpt lat="45.796124407069826" lon="11.555438026678628"><ele>944.8</ele><time>2026-04-01T21:02:37Z</time></trkpt><trkpt lat="45.79607853260799" lon="11.555304245137556"><ele>947.6</ele><time>2026-04-01T21:02:38Z</time></trkpt><trkpt lat="45.796023490279666" lon="11.55517950504431"><ele>950.3999999999999</ele><time>2026-04-01T21:02:39Z</time></trkpt><trkpt lat="45.79594856810323" lon="11.555066368684496"><ele>953.1999999999999</ele><time>2026-04-01T21:02:40Z</time></trkpt><trkpt lat="45.795864387438314" lon="11.555005689542101"><ele>956.0</ele><time>2026-04-01T21:02:41Z</time></trkpt><trkpt lat="45.79577921627673" lon="11.554939735880698"><ele>949.4</ele><time>2026-04-01T21:02:42Z</time></trkpt><trkpt lat="45.795659153526096" lon="11.554923393221802"><ele>942.8</ele><time>2026-04-01T21:02:43Z</time></trkpt><trkpt lat="45.79557035258917" lon="11.554902194141796"><ele>936.1999999999999</ele><time>2026-04-01T21:02:44Z</time></trkpt><trkpt lat="45.795465156518105" lon="11.55487420877513"><ele>929.5999999999999</ele><time>2026-04-01T21:02:45Z</time></trkpt><trkpt lat="45.79538593125967" lon="11.554808206185331"><ele>923.0</ele><time>2026-04-01T21:02:46Z</time></trkpt><trkpt lat="45.79535369789116" lon="11.554730230100894"><ele>923.0</ele><time>2026-04-01T21:02:47Z</time></trkpt><trkpt lat="45.79529048107207" lon="11.55460592947501"><ele>923.0</ele><time>2026-04-01T21:02:48Z</time></trkpt><trkpt lat="45.795262998023546" lon="11.55450376854312"><ele>923.0</ele><time>2026-04-01T21:02:49Z</time></trkpt><trkpt lat="45.79521825480451" lon="11.554359071755565"><ele>923.0</ele><time>2026-04-01T21:02:50Z</time></trkpt><trkpt lat="45.79516570000658" lon="11.554204879796698"><ele>923.0</ele><time>2026-04-01T21:02:51Z</time></trkpt><trkpt lat="45.79510775956086" lon="11.554140319043112"><ele>922.25</ele><time>2026-04-01T21:02:52Z</time></trkpt><trkpt lat="45.79502031665265" lon="11.553952295145292"><ele>921.5</ele><time>2026-04-01T21:02:53Z</time></trkpt><trkpt lat="45.79495343041012" lon="11.553803947241223"><ele>920.75</ele><time>2026-04-01T21:02:54Z</time></trkpt><trkpt lat="45.79490465213228" lon="11.553680296445616"><ele>920.0</ele><time>2026-04-01T21:02:55Z</time></trkpt><trkpt lat="45.79483637002128" lon="11.553601069391084"><ele>920.0</ele><time>2026-04-01T21:02:56Z</time></trkpt><trkpt lat="45.79479953852722" lon="11.553494660108942"><ele>920.0</ele><time>2026-04-01T21:02:57Z</time></trkpt><trkpt lat="45.7947398626424" lon="11.553405935101802"><ele>920.0</ele><time>2026-04-01T21:02:58Z</time></trkpt><trkpt lat="45.79462693158182" lon="11.553304769379944"><ele>920.0</ele><time>2026-04-01T21:02:59Z</time></trkpt><trkpt lat="45.79452583852827" lon="11.553238887580006"><ele>920.0</ele><time>2026-04-01T21:03:00Z</time></trkpt><trkpt lat="45.794420416512025" lon="11.553172508268348"><ele>918.75</ele><time>2026-04-01T21:03:01Z</time></trkpt><trkpt lat="45.7942863644299" lon="11.553106621514747"><ele>917.5</ele><time>2026-04-01T21:03:02Z</time></trkpt><trkpt lat="45.79417434719785" lon="11.552981789564162"><ele>916.25</ele><time>2026-04-01T21:03:03Z</time></trkpt><trkpt lat="45.7940431499512" lon="11.55287867833074"><ele>915.0</ele><time>2026-04-01T21:03:04Z</time></trkpt><trkpt lat="45.79394190181388" lon="11.552815921375974"><ele>915.0</ele><time>2026-04-01T21:03:05Z</time></trkpt><trkpt lat="45.79382988226101" lon="11.552735021518101"><ele>915.0</ele><time>2026-04-01T21:03:06Z</time></trkpt><trkpt lat="45.79370300957718" lon="11.552669299562211"><ele>915.0</ele><time>2026-04-01T21:03:07Z</time></trkpt><trkpt lat="45.79359877938033" lon="11.552604453382362"><ele>915.0</ele><time>2026-04-01T21:03:08Z</time></trkpt><trkpt lat="45.793500043283004" lon="11.552481296734115"><ele>912.6</ele><time>2026-04-01T21:03:09Z</time></trkpt><trkpt lat="45.79341386072684" lon="11.55246951651846"><ele>910.2</ele><time>2026-04-01T21:03:10Z</time></trkpt><trkpt lat="45.7933535018555" lon="11.552513766193238"><ele>907.8</ele><time>2026-04-01T21:03:11Z</time></trkpt><trkpt lat="45.793209449918436" lon="11.552535757715226"><ele>905.4</ele><time>2026-04-01T21:03:12Z</time></trkpt><trkpt lat="45.7931409007325" lon="11.55260486501692"><ele>903.0</ele><time>2026-04-01T21:03:13Z</time></trkpt><trkpt lat="45.793060673120905" lon="11.552681882497708"><ele>903.0</ele><time>2026-04-01T21:03:13.999Z</time></trkpt><trkpt lat="45.79298676277709" lon="11.552756463074738"><ele>903.0</ele><time>2026-04-01T21:03:14.999Z</time></trkpt><trkpt lat="45.792899185137166" lon="11.552820424414966"><ele>903.0</ele><time>2026-04-01T21:03:15.999Z</time></trkpt><trkpt lat="45.79280012812387" lon="11.552874050680963"><ele>903.0</ele><time>2026-04-01T21:03:16.999Z</time></trkpt><trkpt lat="45.792705155120835" lon="11.552905961760349"><ele>903.0</ele><time>2026-04-01T21:03:17.999Z</time></trkpt><trkpt lat="45.792604420784585" lon="11.552935239931223"><ele>903.2</ele><time>2026-04-01T21:03:18.999Z</time></trkpt><trkpt lat="45.79250930227975" lon="11.55293360595707"><ele>903.4</ele><time>2026-04-01T21:03:19.999Z</time></trkpt><trkpt lat="45.79240547022158" lon="11.552920616357385"><ele>903.6000000000001</ele><time>2026-04-01T21:03:20.999Z</time></trkpt><trkpt lat="45.792325837503945" lon="11.552861439418383"><ele>903.8000000000001</ele><time>2026-04-01T21:03:21.999Z</time></trkpt><trkpt lat="45.79226584504141" lon="11.552797201459924"><ele>904.0</ele><time>2026-04-01T21:03:22.999Z</time></trkpt><trkpt lat="45.79216886087346" lon="11.552724847418927"><ele>904.0</ele><time>2026-04-01T21:03:23.999Z</time></trkpt><trkpt lat="45.79203265648704" lon="11.552651570317849"><ele>904.0</ele><time>2026-04-01T21:03:24.999Z</time></trkpt><trkpt lat="45.79190481366344" lon="11.552560783031913"><ele>904.0</ele><time>2026-04-01T21:03:25.999Z</time></trkpt><trkpt lat="45.791791413247594" lon="11.552481052807666"><ele>904.0</ele><time>2026-04-01T21:03:26.999Z</time></trkpt><trkpt lat="45.79168748285969" lon="11.55242731275725"><ele>901.0</ele><time>2026-04-01T21:03:27.999Z</time></trkpt><trkpt lat="45.791572242746334" lon="11.552397108564035"><ele>898.0</ele><time>2026-04-01T21:03:28.999Z</time></trkpt><trkpt lat="45.79143763371995" lon="11.552402604942916"><ele>895.0</ele><time>2026-04-01T21:03:29.999Z</time></trkpt><trkpt lat="45.79133667490663" lon="11.552432301977982"><ele>892.0</ele><time>2026-04-01T21:03:30.999Z</time></trkpt><trkpt lat="45.79123826052092" lon="11.552519325189088"><ele>892.0</ele><time>2026-04-01T21:03:31.999Z</time></trkpt><trkpt lat="45.79111987651821" lon="11.552601728751165"><ele>892.0</ele><time>2026-04-01T21:03:32.999Z</time></trkpt><trkpt lat="45.791004806100595" lon="11.552680017665582"><ele>892.0</ele><time>2026-04-01T21:03:33.999Z</time></trkpt><trkpt lat="45.790886838168326" lon="11.552757900811272"><ele>892.0</ele><time>2026-04-01T21:03:34.999Z</time></trkpt><trkpt lat="45.790764391313736" lon="11.55282457971118"><ele>888.8</ele><time>2026-04-01T21:03:35.999Z</time></trkpt><trkpt lat="45.79066151546858" lon="11.552893725093268"><ele>885.6</ele><time>2026-04-01T21:03:36.999Z</time></trkpt><trkpt lat="45.790578473470205" lon="11.552939845562474"><ele>882.3999999999999</ele><time>2026-04-01T21:03:37.999Z</time></trkpt><trkpt lat="45.79048012919118" lon="11.552991214009202"><ele>879.1999999999999</ele><time>2026-04-01T21:03:38.999Z</time></trkpt><trkpt lat="45.790370892043754" lon="11.553037253392418"><ele>876.0</ele><time>2026-04-01T21:03:39.999Z</time></trkpt><trkpt lat="45.79029232874991" lon="11.553106035960614"><ele>876.0</ele><time>2026-04-01T21:03:40.999Z</time></trkpt><trkpt lat="45.79018684361234" lon="11.55319276684335"><ele>875.9999999999999</ele><time>2026-04-01T21:03:41.999Z</time></trkpt><trkpt lat="45.79012140032482" lon="11.553280528601237"><ele>875.9999999999999</ele><time>2026-04-01T21:03:42.999Z</time></trkpt><trkpt lat="45.79005849871901" lon="11.553358442242878"><ele>876.0</ele><time>2026-04-01T21:03:43.999Z</time></trkpt><trkpt lat="45.790012489548005" lon="11.553447924413728"><ele>876.0</ele><time>2026-04-01T21:03:44.999Z</time></trkpt><trkpt lat="45.78994960274243" lon="11.553540318837458"><ele>877.1999999999999</ele><time>2026-04-01T21:03:45.999Z</time></trkpt><trkpt lat="45.78989094873907" lon="11.553592618844373"><ele>878.3999999999999</ele><time>2026-04-01T21:03:46.999Z</time></trkpt><trkpt lat="45.78982948180582" lon="11.553620052980698"><ele>879.6</ele><time>2026-04-01T21:03:47.999Z</time></trkpt><trkpt lat="45.78970794425363" lon="11.553587666565623"><ele>880.8</ele><time>2026-04-01T21:03:49.999Z</time></trkpt><trkpt lat="45.78960144232607" lon="11.55348130235032"><ele>882.0</ele><time>2026-04-01T21:03:51.999Z</time></trkpt><trkpt lat="45.78950956139179" lon="11.553417091178952"><ele>882.0</ele><time>2026-04-01T21:03:53.999Z</time></trkpt><trkpt lat="45.789434280237344" lon="11.553422801399659"><ele>882.0</ele><time>2026-04-01T21:03:55.999Z</time></trkpt><trkpt lat="45.789399125022726" lon="11.553624667872127"><ele>882.0</ele><time>2026-04-01T21:03:57.999Z</time></trkpt><trkpt lat="45.78941913280466" lon="11.553714948109214"><ele>882.0</ele><time>2026-04-01T21:03:58.999Z</time></trkpt><trkpt lat="45.78945323679795" lon="11.553797706127629"><ele>882.0</ele><time>2026-04-01T21:03:59.999Z</time></trkpt><trkpt lat="45.789477235374285" lon="11.553884573558236"><ele>882.0</ele><time>2026-04-01T21:04:00.999Z</time></trkpt><trkpt lat="45.78949199466415" lon="11.553988166517783"><ele>881.6</ele><time>2026-04-01T21:04:01.999Z</time></trkpt><trkpt lat="45.789519398629785" lon="11.554116868050219"><ele>881.2</ele><time>2026-04-01T21:04:02.999Z</time></trkpt><trkpt lat="45.789547870933106" lon="11.554250345319378"><ele>880.8</ele><time>2026-04-01T21:04:03.999Z</time></trkpt><trkpt lat="45.78957505062678" lon="11.554383306081126"><ele>880.4</ele><time>2026-04-01T21:04:04.999Z</time></trkpt><trkpt lat="45.78959783071594" lon="11.554522436114505"><ele>880.0</ele><time>2026-04-01T21:04:06.021Z</time></trkpt><trkpt lat="45.7896394314739" lon="11.554653236341187"><ele>879.75</ele><time>2026-04-01T21:04:07.022Z</time></trkpt><trkpt lat="45.789637527317026" lon="11.55483560418841"><ele>879.5</ele><time>2026-04-01T21:04:07.999Z</time></trkpt><trkpt lat="45.78974621158274" lon="11.555005101210725"><ele>879.25</ele><time>2026-04-01T21:04:08.999Z</time></trkpt><trkpt lat="45.78980495008414" lon="11.555165912510159"><ele>879.0</ele><time>2026-04-01T21:04:09.999Z</time></trkpt><trkpt lat="45.789828094296674" lon="11.555328040064069"><ele>876.5</ele><time>2026-04-01T21:04:10.999Z</time></trkpt><trkpt lat="45.78986231445518" lon="11.555479468308627"><ele>874.0</ele><time>2026-04-01T21:04:11.999Z</time></trkpt><trkpt lat="45.78989743606503" lon="11.555634885541684"><ele>871.5</ele><time>2026-04-01T21:04:12.998Z</time></trkpt><trkpt lat="45.78993123960242" lon="11.555785007965312"><ele>869.0</ele><time>2026-04-01T21:04:13.998Z</time></trkpt><trkpt lat="45.78996815223557" lon="11.555956256856616"><ele>869.0</ele><time>2026-04-01T21:04:14.998Z</time></trkpt><trkpt lat="45.79000269708668" lon="11.556133897983175"><ele>869.0</ele><time>2026-04-01T21:04:15.998Z</time></trkpt><trkpt lat="45.790019424081734" lon="11.556254313331918"><ele>869.0</ele><time>2026-04-01T21:04:16.998Z</time></trkpt><trkpt lat="45.79003981527533" lon="11.55644343902876"><ele>869.0</ele><time>2026-04-01T21:04:17.998Z</time></trkpt><trkpt lat="45.79005540280915" lon="11.556646393276184"><ele>866.25</ele><time>2026-04-01T21:04:18.998Z</time></trkpt><trkpt lat="45.79007229261233" lon="11.556866186063406"><ele>863.5</ele><time>2026-04-01T21:04:19.998Z</time></trkpt><trkpt lat="45.790080587515135" lon="11.557030342955148"><ele>860.75</ele><time>2026-04-01T21:04:20.998Z</time></trkpt><trkpt lat="45.79009499693238" lon="11.557215385627943"><ele>858.0</ele><time>2026-04-01T21:04:21.998Z</time></trkpt><trkpt lat="45.79010828202369" lon="11.557379974856264"><ele>857.2</ele><time>2026-04-01T21:04:22.998Z</time></trkpt><trkpt lat="45.79012506974796" lon="11.557555403713739"><ele>856.4</ele><time>2026-04-01T21:04:23.998Z</time></trkpt><trkpt lat="45.79013840438739" lon="11.557705578244056"><ele>855.6000000000001</ele><time>2026-04-01T21:04:24.998Z</time></trkpt><trkpt lat="45.79015086818481" lon="11.557852028724701"><ele>854.8000000000001</ele><time>2026-04-01T21:04:25.998Z</time></trkpt><trkpt lat="45.79016154526508" lon="11.558001254309895"><ele>854.0</ele><time>2026-04-01T21:04:26.998Z</time></trkpt><trkpt lat="45.790168501733476" lon="11.558116334092439"><ele>854.0</ele><time>2026-04-01T21:04:27.998Z</time></trkpt><trkpt lat="45.79017523059206" lon="11.55820818236348"><ele>854.0</ele><time>2026-04-01T21:04:28.998Z</time></trkpt><trkpt lat="45.79014524553829" lon="11.558291705613778"><ele>854.0</ele><time>2026-04-01T21:04:30.998Z</time></trkpt><trkpt lat="45.790111001001364" lon="11.558179057286242"><ele>854.0</ele><time>2026-04-01T21:04:33.998Z</time></trkpt><trkpt lat="45.79011200473531" lon="11.55806863209094"><ele>854.0</ele><time>2026-04-01T21:04:35.998Z</time></trkpt><trkpt lat="45.79007750334745" lon="11.557951613200458"><ele>854.0</ele><time>2026-04-01T21:04:37.998Z</time></trkpt><trkpt lat="45.790054831027895" lon="11.5578661682946"><ele>854.0</ele><time>2026-04-01T21:04:38.998Z</time></trkpt><trkpt lat="45.790033482145134" lon="11.5577687654426"><ele>854.0</ele><time>2026-04-01T21:04:39.998Z</time></trkpt><trkpt lat="45.79000150225284" lon="11.557639602537131"><ele>854.0000000000001</ele><time>2026-04-01T21:04:40.998Z</time></trkpt><trkpt lat="45.789978603638964" lon="11.557543306462065"><ele>854.0000000000001</ele><time>2026-04-01T21:04:41.998Z</time></trkpt><trkpt lat="45.78990493840256" lon="11.55736353099492"><ele>854.0</ele><time>2026-04-01T21:04:44Z</time></trkpt><trkpt lat="45.78988581447232" lon="11.557240224123714"><ele>854.0</ele><time>2026-04-01T21:04:45Z</time></trkpt><trkpt lat="45.78987284742522" lon="11.55707462203742"><ele>854.0</ele><time>2026-04-01T21:04:47Z</time></trkpt><trkpt lat="45.789870224105066" lon="11.55696111439507"><ele>854.0</ele><time>2026-04-01T21:04:49Z</time></trkpt><trkpt lat="45.78978972567328" lon="11.5567785750019"><ele>854.0</ele><time>2026-04-01T21:04:52Z</time></trkpt><trkpt lat="45.789734906423554" lon="11.557078685151145"><ele>854.0</ele><time>2026-04-01T21:04:55Z</time></trkpt><trkpt lat="45.78973995067299" lon="11.557169422173905"><ele>854.0000000000001</ele><time>2026-04-01T21:04:56Z</time></trkpt><trkpt lat="45.789731131173546" lon="11.557350244372227"><ele>854.0</ele><time>2026-04-01T21:04:58Z</time></trkpt><trkpt lat="45.78976586620785" lon="11.557459688822357"><ele>854.0</ele><time>2026-04-01T21:05:00Z</time></trkpt><trkpt lat="45.78976796119167" lon="11.557566351084075"><ele>854.0</ele><time>2026-04-01T21:05:01Z</time></trkpt><trkpt lat="45.7897735739144" lon="11.557672455168026"><ele>854.0000000000001</ele><time>2026-04-01T21:05:02Z</time></trkpt><trkpt lat="45.78978025833628" lon="11.557775922201468"><ele>854.0</ele><time>2026-04-01T21:05:03Z</time></trkpt><trkpt lat="45.789792481591334" lon="11.55788120382132"><ele>852.2</ele><time>2026-04-01T21:05:04Z</time></trkpt><trkpt lat="45.78979600382665" lon="11.557992985851952"><ele>850.4000000000001</ele><time>2026-04-01T21:05:05Z</time></trkpt><trkpt lat="45.78979717927194" lon="11.558104369570485"><ele>848.6</ele><time>2026-04-01T21:05:06Z</time></trkpt><trkpt lat="45.78979705953186" lon="11.558338768030213"><ele>846.8</ele><time>2026-04-01T21:05:08Z</time></trkpt><trkpt lat="45.789798206979064" lon="11.558488200646936"><ele>845.0</ele><time>2026-04-01T21:05:09Z</time></trkpt><trkpt lat="45.78979788918528" lon="11.558615721616544"><ele>843.8</ele><time>2026-04-01T21:05:10Z</time></trkpt><trkpt lat="45.78980107084894" lon="11.558793269200955"><ele>842.6</ele><time>2026-04-01T21:05:11Z</time></trkpt><trkpt lat="45.789805923271985" lon="11.558963627147351"><ele>841.4000000000001</ele><time>2026-04-01T21:05:12Z</time></trkpt><trkpt lat="45.7898080783244" lon="11.55910421219029"><ele>840.2</ele><time>2026-04-01T21:05:13Z</time></trkpt><trkpt lat="45.78981027869755" lon="11.559242672215072"><ele>839.0</ele><time>2026-04-01T21:05:14Z</time></trkpt><trkpt lat="45.789814063900174" lon="11.559386638874836"><ele>838.0</ele><time>2026-04-01T21:05:15Z</time></trkpt><trkpt lat="45.789821697042186" lon="11.559536839696781"><ele>837.0</ele><time>2026-04-01T21:05:16Z</time></trkpt><trkpt lat="45.789828577275394" lon="11.559676328416828"><ele>836.0</ele><time>2026-04-01T21:05:17Z</time></trkpt><trkpt lat="45.789833149902194" lon="11.559810653783728"><ele>835.0</ele><time>2026-04-01T21:05:18Z</time></trkpt><trkpt lat="45.78982121347356" lon="11.559949405500193"><ele>834.0</ele><time>2026-04-01T21:05:19Z</time></trkpt><trkpt lat="45.789821650518256" lon="11.560099981003544"><ele>834.0</ele><time>2026-04-01T21:05:20Z</time></trkpt><trkpt lat="45.78983284071467" lon="11.560204848531113"><ele>834.0</ele><time>2026-04-01T21:05:21Z</time></trkpt><trkpt lat="45.7898235344437" lon="11.560336135682798"><ele>834.0</ele><time>2026-04-01T21:05:22Z</time></trkpt><trkpt lat="45.78983786264002" lon="11.560456121640339"><ele>834.0</ele><time>2026-04-01T21:05:23Z</time></trkpt><trkpt lat="45.789803728324735" lon="11.560655471601867"><ele>834.0</ele><time>2026-04-01T21:05:24Z</time></trkpt><trkpt lat="45.78980403645897" lon="11.560796386672465"><ele>833.2</ele><time>2026-04-01T21:05:24.999Z</time></trkpt><trkpt lat="45.78980008114534" lon="11.560929901521783"><ele>832.4000000000001</ele><time>2026-04-01T21:05:25.999Z</time></trkpt><trkpt lat="45.78979053121447" lon="11.56106255342324"><ele>831.6</ele><time>2026-04-01T21:05:26.999Z</time></trkpt><trkpt lat="45.78977855169136" lon="11.561189445487255"><ele>830.8</ele><time>2026-04-01T21:05:27.999Z</time></trkpt><trkpt lat="45.789754186166505" lon="11.561322436504051"><ele>830.0</ele><time>2026-04-01T21:05:28.999Z</time></trkpt><trkpt lat="45.78973285660369" lon="11.56143845374384"><ele>830.0</ele><time>2026-04-01T21:05:29.999Z</time></trkpt><trkpt lat="45.78966830055863" lon="11.561575623711223"><ele>830.0</ele><time>2026-04-01T21:05:30.999Z</time></trkpt><trkpt lat="45.78962830600702" lon="11.561688377724783"><ele>830.0</ele><time>2026-04-01T21:05:31.999Z</time></trkpt><trkpt lat="45.78958835126625" lon="11.561803935953147"><ele>830.0</ele><time>2026-04-01T21:05:32.999Z</time></trkpt><trkpt lat="45.789548499880354" lon="11.561931509526113"><ele>830.0</ele><time>2026-04-01T21:05:33.999Z</time></trkpt><trkpt lat="45.78951528292734" lon="11.56208991758316"><ele>831.75</ele><time>2026-04-01T21:05:34.999Z</time></trkpt><trkpt lat="45.789492560846455" lon="11.562257957107372"><ele>833.5</ele><time>2026-04-01T21:05:35.999Z</time></trkpt><trkpt lat="45.789474760227925" lon="11.562443201512643"><ele>835.25</ele><time>2026-04-01T21:05:36.999Z</time></trkpt><trkpt lat="45.78945789404556" lon="11.562594978709447"><ele>837.0</ele><time>2026-04-01T21:05:37.999Z</time></trkpt><trkpt lat="45.78943695217926" lon="11.562765496169996"><ele>838.8</ele><time>2026-04-01T21:05:38.999Z</time></trkpt><trkpt lat="45.78940667747289" lon="11.56291885923543"><ele>840.6</ele><time>2026-04-01T21:05:39.999Z</time></trkpt><trkpt lat="45.789364215427725" lon="11.563068146468149"><ele>842.4</ele><time>2026-04-01T21:05:40.999Z</time></trkpt><trkpt lat="45.78930930669509" lon="11.563214532783041"><ele>844.1999999999999</ele><time>2026-04-01T21:05:41.999Z</time></trkpt><trkpt lat="45.7892460700931" lon="11.563320348020374"><ele>846.0</ele><time>2026-04-01T21:05:42.999Z</time></trkpt><trkpt lat="45.7891726555598" lon="11.563467185254126"><ele>843.25</ele><time>2026-04-01T21:05:43.999Z</time></trkpt><trkpt lat="45.78906253857115" lon="11.56357236963646"><ele>840.5</ele><time>2026-04-01T21:05:44.999Z</time></trkpt><trkpt lat="45.78898020204842" lon="11.563688871099194"><ele>837.75</ele><time>2026-04-01T21:05:45.999Z</time></trkpt><trkpt lat="45.7888923348857" lon="11.563812884247323"><ele>835.0</ele><time>2026-04-01T21:05:46.999Z</time></trkpt><trkpt lat="45.788820727625186" lon="11.563968150168611"><ele>835.0</ele><time>2026-04-01T21:05:47.999Z</time></trkpt><trkpt lat="45.78876811033183" lon="11.564114500254574"><ele>835.0</ele><time>2026-04-01T21:05:48.999Z</time></trkpt><trkpt lat="45.78873270361608" lon="11.564266078964895"><ele>835.0</ele><time>2026-04-01T21:05:49.999Z</time></trkpt><trkpt lat="45.78871035712372" lon="11.56438450216756"><ele>835.0</ele><time>2026-04-01T21:05:50.999Z</time></trkpt><trkpt lat="45.78867242369339" lon="11.564589066358787"><ele>835.6</ele><time>2026-04-01T21:05:51.999Z</time></trkpt><trkpt lat="45.788625802516975" lon="11.564750365390752"><ele>836.2</ele><time>2026-04-01T21:05:52.999Z</time></trkpt><trkpt lat="45.78863551664139" lon="11.564876964871646"><ele>836.8</ele><time>2026-04-01T21:05:53.999Z</time></trkpt><trkpt lat="45.78861402213583" lon="11.565029751313752"><ele>837.4</ele><time>2026-04-01T21:05:54.999Z</time></trkpt><trkpt lat="45.78858497194393" lon="11.565159230484143"><ele>838.0</ele><time>2026-04-01T21:05:55.999Z</time></trkpt><trkpt lat="45.78851278356566" lon="11.565297640073496"><ele>835.8</ele><time>2026-04-01T21:05:56.999Z</time></trkpt><trkpt lat="45.788453852040554" lon="11.565398316403911"><ele>833.5999999999999</ele><time>2026-04-01T21:05:57.999Z</time></trkpt><trkpt lat="45.788373639936935" lon="11.565516587813246"><ele>831.4000000000001</ele><time>2026-04-01T21:05:58.999Z</time></trkpt><trkpt lat="45.78829474018321" lon="11.565621139826396"><ele>829.2</ele><time>2026-04-01T21:05:59.999Z</time></trkpt><trkpt lat="45.78822220224166" lon="11.565716802702802"><ele>827.0</ele><time>2026-04-01T21:06:00.999Z</time></trkpt><trkpt lat="45.78813991703339" lon="11.565821700493418"><ele>827.0</ele><time>2026-04-01T21:06:01.999Z</time></trkpt><trkpt lat="45.78805888004182" lon="11.565958554527437"><ele>827.0</ele><time>2026-04-01T21:06:02.999Z</time></trkpt><trkpt lat="45.78797115683782" lon="11.566072457739503"><ele>827.0</ele><time>2026-04-01T21:06:03.999Z</time></trkpt><trkpt lat="45.787812963678604" lon="11.566251416647551"><ele>827.0</ele><time>2026-04-01T21:06:04.999Z</time></trkpt><trkpt lat="45.78772969263031" lon="11.566363394932779"><ele>824.6</ele><time>2026-04-01T21:06:05.999Z</time></trkpt><trkpt lat="45.78766489158831" lon="11.566467442394346"><ele>822.2</ele><time>2026-04-01T21:06:06.999Z</time></trkpt><trkpt lat="45.787605608082664" lon="11.566569075946989"><ele>819.8</ele><time>2026-04-01T21:06:07.999Z</time></trkpt><trkpt lat="45.787567308348414" lon="11.56664254349185"><ele>817.4</ele><time>2026-04-01T21:06:08.999Z</time></trkpt><trkpt lat="45.78749850609778" lon="11.56675708359545"><ele>815.0</ele><time>2026-04-01T21:06:09.999Z</time></trkpt><trkpt lat="45.78745106098303" lon="11.566887256655916"><ele>815.0</ele><time>2026-04-01T21:06:10.999Z</time></trkpt><trkpt lat="45.78736767320616" lon="11.567009030609446"><ele>815.0</ele><time>2026-04-01T21:06:11.999Z</time></trkpt><trkpt lat="45.78728376775169" lon="11.567095699221943"><ele>815.0</ele><time>2026-04-01T21:06:12.999Z</time></trkpt><trkpt lat="45.787185430276615" lon="11.567171468176204"><ele>815.0</ele><time>2026-04-01T21:06:13.999Z</time></trkpt><trkpt lat="45.78684647754046" lon="11.567396847991484"><ele>814.4</ele><time>2026-04-01T21:06:14.999Z</time></trkpt><trkpt lat="45.78675480435505" lon="11.56747158189587"><ele>813.8</ele><time>2026-04-01T21:06:15.999Z</time></trkpt><trkpt lat="45.78669485011967" lon="11.567521335435275"><ele>813.2</ele><time>2026-04-01T21:06:16.999Z</time></trkpt><trkpt lat="45.786610186539384" lon="11.567590693013598"><ele>812.6</ele><time>2026-04-01T21:06:17.999Z</time></trkpt><trkpt lat="45.78651722770082" lon="11.567666011583173"><ele>812.0</ele><time>2026-04-01T21:06:18.999Z</time></trkpt><trkpt lat="45.786378540874054" lon="11.567773015349768"><ele>812.0</ele><time>2026-04-01T21:06:19.999Z</time></trkpt><trkpt lat="45.78623920582318" lon="11.567849405207344"><ele>812.0</ele><time>2026-04-01T21:06:20.998Z</time></trkpt><trkpt lat="45.78611218846594" lon="11.56793571628806"><ele>812.0</ele><time>2026-04-01T21:06:21.998Z</time></trkpt><trkpt lat="45.785993746470346" lon="11.568022946490606"><ele>812.0</ele><time>2026-04-01T21:06:22.998Z</time></trkpt><trkpt lat="45.78593008650607" lon="11.568083141064449"><ele>813.5</ele><time>2026-04-01T21:06:23.998Z</time></trkpt><trkpt lat="45.7858149504486" lon="11.56819241932754"><ele>815.0</ele><time>2026-04-01T21:06:24.998Z</time></trkpt><trkpt lat="45.78572803418889" lon="11.56829422950646"><ele>816.5</ele><time>2026-04-01T21:06:25.998Z</time></trkpt><trkpt lat="45.785610933237" lon="11.568417054737791"><ele>818.0</ele><time>2026-04-01T21:06:26.998Z</time></trkpt><trkpt lat="45.785489068490044" lon="11.568541730145787"><ele>818.0</ele><time>2026-04-01T21:06:27.998Z</time></trkpt><trkpt lat="45.78537463120379" lon="11.56866616125267"><ele>818.0</ele><time>2026-04-01T21:06:28.998Z</time></trkpt><trkpt lat="45.7852504479449" lon="11.56875709938259"><ele>818.0</ele><time>2026-04-01T21:06:29.998Z</time></trkpt><trkpt lat="45.785081014588656" lon="11.56885973817785"><ele>817.75</ele><time>2026-04-01T21:06:30.998Z</time></trkpt><trkpt lat="45.78495220427626" lon="11.568922187686418"><ele>817.5</ele><time>2026-04-01T21:06:31.998Z</time></trkpt><trkpt lat="45.784838925494235" lon="11.568967809248342"><ele>817.25</ele><time>2026-04-01T21:06:32.998Z</time></trkpt><trkpt lat="45.78470589244173" lon="11.569022702596412"><ele>817.0</ele><time>2026-04-01T21:06:33.998Z</time></trkpt><trkpt lat="45.7845712407242" lon="11.56908397958182"><ele>817.0</ele><time>2026-04-01T21:06:36.998Z</time></trkpt><trkpt lat="45.784421068133874" lon="11.569154483865583"><ele>817.0</ele><time>2026-04-01T21:06:37.998Z</time></trkpt><trkpt lat="45.7842869614307" lon="11.569222320409052"><ele>817.0</ele><time>2026-04-01T21:06:38.998Z</time></trkpt><trkpt lat="45.784166138558994" lon="11.569282012935888"><ele>817.0</ele><time>2026-04-01T21:06:39.998Z</time></trkpt><trkpt lat="45.78406131979164" lon="11.569355003719123"><ele>813.6</ele><time>2026-04-01T21:06:40.998Z</time></trkpt><trkpt lat="45.783991038101306" lon="11.569355900896745"><ele>810.2</ele><time>2026-04-01T21:06:41.998Z</time></trkpt><trkpt lat="45.78389720773936" lon="11.56937964729716"><ele>806.8</ele><time>2026-04-01T21:06:42.998Z</time></trkpt><trkpt lat="45.783778994519736" lon="11.569411560697006"><ele>803.4</ele><time>2026-04-01T21:06:43.998Z</time></trkpt><trkpt lat="45.78368751465923" lon="11.569433313603506"><ele>800.0</ele><time>2026-04-01T21:06:44.998Z</time></trkpt><trkpt lat="45.78361353331488" lon="11.569460049267951"><ele>799.8333333333334</ele><time>2026-04-01T21:06:45.998Z</time></trkpt><trkpt lat="45.78350145126046" lon="11.569498154588041"><ele>799.6666666666667</ele><time>2026-04-01T21:06:47.998Z</time></trkpt><trkpt lat="45.783441639525456" lon="11.5695324440437"><ele>799.5</ele><time>2026-04-01T21:06:49Z</time></trkpt><trkpt lat="45.78337735084911" lon="11.56957755215398"><ele>799.3333333333333</ele><time>2026-04-01T21:06:51Z</time></trkpt><trkpt lat="45.78332453903388" lon="11.569628022829663"><ele>799.1666666666666</ele><time>2026-04-01T21:06:52Z</time></trkpt><trkpt lat="45.783268686724114" lon="11.569520958617757"><ele>799.0</ele><time>2026-04-01T21:06:53Z</time></trkpt><trkpt lat="45.783215045030346" lon="11.569333192937265"><ele>799.0</ele><time>2026-04-01T21:06:55Z</time></trkpt><trkpt lat="45.783176612030495" lon="11.569246857600419"><ele>799.0</ele><time>2026-04-01T21:06:56Z</time></trkpt><trkpt lat="45.7831204688472" lon="11.569187681123182"><ele>799.0</ele><time>2026-04-01T21:06:57Z</time></trkpt><trkpt lat="45.78306218428706" lon="11.569122980148249"><ele>799.0</ele><time>2026-04-01T21:06:58Z</time></trkpt><trkpt lat="45.78288772264401" lon="11.569037392661677"><ele>799.0</ele><time>2026-04-01T21:07:02Z</time></trkpt><trkpt lat="45.78280005790076" lon="11.568997585508436"><ele>799.0</ele><time>2026-04-01T21:07:03Z</time></trkpt><trkpt lat="45.78269021670383" lon="11.56893696522857"><ele>799.0</ele><time>2026-04-01T21:07:04Z</time></trkpt><trkpt lat="45.78262820972444" lon="11.568902744612084"><ele>799.0</ele><time>2026-04-01T21:07:05Z</time></trkpt><trkpt lat="45.78256690308945" lon="11.568868914294681"><ele>799.0</ele><time>2026-04-01T21:07:06Z</time></trkpt><trkpt lat="45.782371372915264" lon="11.568757023323476"><ele>798.4000000000001</ele><time>2026-04-01T21:07:07Z</time></trkpt><trkpt lat="45.78226788153556" lon="11.568696270100281"><ele>797.8</ele><time>2026-04-01T21:07:09Z</time></trkpt><trkpt lat="45.78218270630825" lon="11.568632692959373"><ele>797.2</ele><time>2026-04-01T21:07:11Z</time></trkpt><trkpt lat="45.782110652087404" lon="11.568591302730136"><ele>796.5999999999999</ele><time>2026-04-01T21:07:12Z</time></trkpt><trkpt lat="45.78202122040452" lon="11.568552596551866"><ele>796.0</ele><time>2026-04-01T21:07:13Z</time></trkpt><trkpt lat="45.78194062938237" lon="11.568524599439264"><ele>794.5999999999999</ele><time>2026-04-01T21:07:14Z</time></trkpt><trkpt lat="45.78184289764374" lon="11.568497055933678"><ele>793.2</ele><time>2026-04-01T21:07:15Z</time></trkpt><trkpt lat="45.78174086559495" lon="11.568478372945243"><ele>791.8</ele><time>2026-04-01T21:07:16Z</time></trkpt><trkpt lat="45.78163686622927" lon="11.56846696157426"><ele>790.4000000000001</ele><time>2026-04-01T21:07:17Z</time></trkpt><trkpt lat="45.78152231673234" lon="11.568460413400894"><ele>789.0</ele><time>2026-04-01T21:07:18Z</time></trkpt><trkpt lat="45.781423347448765" lon="11.568456970076435"><ele>789.0</ele><time>2026-04-01T21:07:19Z</time></trkpt><trkpt lat="45.78133320910095" lon="11.568458493812267"><ele>789.0</ele><time>2026-04-01T21:07:20Z</time></trkpt><trkpt lat="45.78121201496539" lon="11.568468259751834"><ele>789.0</ele><time>2026-04-01T21:07:21Z</time></trkpt><trkpt lat="45.7810805422069" lon="11.568465177416092"><ele>789.0</ele><time>2026-04-01T21:07:22Z</time></trkpt><trkpt lat="45.78097940204328" lon="11.568489162092597"><ele>789.0</ele><time>2026-04-01T21:07:23Z</time></trkpt><trkpt lat="45.7808734172369" lon="11.568513930046766"><ele>786.8000000000001</ele><time>2026-04-01T21:07:24Z</time></trkpt><trkpt lat="45.78076121911247" lon="11.56855010355852"><ele>784.6</ele><time>2026-04-01T21:07:25Z</time></trkpt><trkpt lat="45.78063741700616" lon="11.568603529670844"><ele>782.4</ele><time>2026-04-01T21:07:26Z</time></trkpt><trkpt lat="45.7805497935475" lon="11.56861551253405"><ele>780.2</ele><time>2026-04-01T21:07:27Z</time></trkpt><trkpt lat="45.780449336684455" lon="11.568648396724619"><ele>778.0</ele><time>2026-04-01T21:07:28Z</time></trkpt><trkpt lat="45.78033116146106" lon="11.568662423059942"><ele>775.5</ele><time>2026-04-01T21:07:28.999Z</time></trkpt><trkpt lat="45.78021488680772" lon="11.568695124004307"><ele>773.0</ele><time>2026-04-01T21:07:29.999Z</time></trkpt><trkpt lat="45.780087028300365" lon="11.568704049202989"><ele>770.5</ele><time>2026-04-01T21:07:30.999Z</time></trkpt><trkpt lat="45.77996149733966" lon="11.568730411642587"><ele>768.0</ele><time>2026-04-01T21:07:31.999Z</time></trkpt><trkpt lat="45.77984463096363" lon="11.568739941710824"><ele>765.5</ele><time>2026-04-01T21:07:32.999Z</time></trkpt><trkpt lat="45.77972458257862" lon="11.568733944398758"><ele>763.0</ele><time>2026-04-01T21:07:33.999Z</time></trkpt><trkpt lat="45.77959846020147" lon="11.568712200370504"><ele>760.5</ele><time>2026-04-01T21:07:34.999Z</time></trkpt><trkpt lat="45.779463576044705" lon="11.568697939443155"><ele>758.0</ele><time>2026-04-01T21:07:35.999Z</time></trkpt><trkpt lat="45.77932976097186" lon="11.568676313212581"><ele>756.25</ele><time>2026-04-01T21:07:36.999Z</time></trkpt><trkpt lat="45.77919693046101" lon="11.568663816487804"><ele>754.5</ele><time>2026-04-01T21:07:37.999Z</time></trkpt><trkpt lat="45.77905471452119" lon="11.568655371577108"><ele>752.75</ele><time>2026-04-01T21:07:38.999Z</time></trkpt><trkpt lat="45.77893993978419" lon="11.568663400664219"><ele>751.0</ele><time>2026-04-01T21:07:39.999Z</time></trkpt><trkpt lat="45.778738298665765" lon="11.568625553649852"><ele>751.0</ele><time>2026-04-01T21:07:41.999Z</time></trkpt><trkpt lat="45.77858698010135" lon="11.568639759870532"><ele>751.0</ele><time>2026-04-01T21:07:43.999Z</time></trkpt><trkpt lat="45.77846196488832" lon="11.568638536862018"><ele>751.0</ele><time>2026-04-01T21:07:44.999Z</time></trkpt><trkpt lat="45.778225803958435" lon="11.568614396165586"><ele>749.4</ele><time>2026-04-01T21:07:45.999Z</time></trkpt><trkpt lat="45.77813352594004" lon="11.568597436026621"><ele>747.8</ele><time>2026-04-01T21:07:46.999Z</time></trkpt><trkpt lat="45.77800648687955" lon="11.568594519047043"><ele>746.1999999999999</ele><time>2026-04-01T21:07:47.999Z</time></trkpt><trkpt lat="45.77789747384202" lon="11.568597238027232"><ele>744.5999999999999</ele><time>2026-04-01T21:07:48.999Z</time></trkpt><trkpt lat="45.777794352397926" lon="11.568598992984468"><ele>743.0</ele><time>2026-04-01T21:07:49.999Z</time></trkpt><trkpt lat="45.77767656739889" lon="11.568630773433455"><ele>742.0</ele><time>2026-04-01T21:07:50.999Z</time></trkpt><trkpt lat="45.777514402185105" lon="11.568616015707825"><ele>741.0</ele><time>2026-04-01T21:07:52.999Z</time></trkpt><trkpt lat="45.77737402513945" lon="11.568629215858234"><ele>740.0</ele><time>2026-04-01T21:07:53.999Z</time></trkpt><trkpt lat="45.777251135366406" lon="11.568646182143876"><ele>739.0</ele><time>2026-04-01T21:07:54.999Z</time></trkpt><trkpt lat="45.777131493888255" lon="11.56867185334786"><ele>739.75</ele><time>2026-04-01T21:07:55.999Z</time></trkpt><trkpt lat="45.77699451023717" lon="11.568696296668348"><ele>740.5</ele><time>2026-04-01T21:07:56.999Z</time></trkpt><trkpt lat="45.77686791185828" lon="11.568712386846903"><ele>741.25</ele><time>2026-04-01T21:07:57.999Z</time></trkpt><trkpt lat="45.7767508527782" lon="11.568722666902927"><ele>742.0</ele><time>2026-04-01T21:07:58.999Z</time></trkpt><trkpt lat="45.77662250953596" lon="11.56874824998479"><ele>738.5</ele><time>2026-04-01T21:07:59.999Z</time></trkpt><trkpt lat="45.77652234268073" lon="11.56877030739675"><ele>735.0</ele><time>2026-04-01T21:08:00.999Z</time></trkpt><trkpt lat="45.77644149658639" lon="11.568833437597563"><ele>731.5</ele><time>2026-04-01T21:08:01.999Z</time></trkpt><trkpt lat="45.776317337460995" lon="11.56892806962734"><ele>728.0</ele><time>2026-04-01T21:08:02.999Z</time></trkpt><trkpt lat="45.776210407598214" lon="11.568997749350554"><ele>728.0</ele><time>2026-04-01T21:08:03.999Z</time></trkpt><trkpt lat="45.776103420626136" lon="11.569072684376488"><ele>728.0</ele><time>2026-04-01T21:08:04.999Z</time></trkpt><trkpt lat="45.77599894612129" lon="11.56911789886787"><ele>728.0</ele><time>2026-04-01T21:08:05.999Z</time></trkpt><trkpt lat="45.775910104031055" lon="11.569148510794903"><ele>728.0</ele><time>2026-04-01T21:08:06.999Z</time></trkpt><trkpt lat="45.77581833001469" lon="11.569152852361318"><ele>728.0</ele><time>2026-04-01T21:08:07.999Z</time></trkpt><trkpt lat="45.775703579890454" lon="11.569112122685397"><ele>726.4</ele><time>2026-04-01T21:08:09.999Z</time></trkpt><trkpt lat="45.775625984090574" lon="11.569085512039427"><ele>724.8</ele><time>2026-04-01T21:08:11.999Z</time></trkpt><trkpt lat="45.77556076950921" lon="11.569080734371566"><ele>723.2</ele><time>2026-04-01T21:08:14.999Z</time></trkpt><trkpt lat="45.775480087901286" lon="11.568879467506163"><ele>721.6</ele><time>2026-04-01T21:08:21.999Z</time></trkpt><trkpt lat="45.77539766470166" lon="11.56875086742677"><ele>720.0</ele><time>2026-04-01T21:08:22.999Z</time></trkpt><trkpt lat="45.7753259375003" lon="11.568653326816156"><ele>719.75</ele><time>2026-04-01T21:08:23.999Z</time></trkpt><trkpt lat="45.775277047608405" lon="11.56855902673019"><ele>719.5</ele><time>2026-04-01T21:08:24.999Z</time></trkpt><trkpt lat="45.77519804159727" lon="11.568416857284008"><ele>719.25</ele><time>2026-04-01T21:08:25.999Z</time></trkpt><trkpt lat="45.775097952720614" lon="11.56821895219987"><ele>719.0</ele><time>2026-04-01T21:08:26.999Z</time></trkpt><trkpt lat="45.774997491693355" lon="11.568021204663504"><ele>716.2</ele><time>2026-04-01T21:08:27.999Z</time></trkpt><trkpt lat="45.774934724852066" lon="11.567893992548603"><ele>713.4000000000001</ele><time>2026-04-01T21:08:28.999Z</time></trkpt><trkpt lat="45.77483745575356" lon="11.567797505134864"><ele>710.6</ele><time>2026-04-01T21:08:29.998Z</time></trkpt><trkpt lat="45.77475290579441" lon="11.567753265377464"><ele>707.8</ele><time>2026-04-01T21:08:30.998Z</time></trkpt><trkpt lat="45.77468238179888" lon="11.567690204540645"><ele>705.0</ele><time>2026-04-01T21:08:31.998Z</time></trkpt><trkpt lat="45.77462308535049" lon="11.567587502841452"><ele>705.0</ele><time>2026-04-01T21:08:32.998Z</time></trkpt><trkpt lat="45.77457648802487" lon="11.567472629088398"><ele>705.0</ele><time>2026-04-01T21:08:33.998Z</time></trkpt><trkpt lat="45.77454635992297" lon="11.567356106291804"><ele>705.0</ele><time>2026-04-01T21:08:34.998Z</time></trkpt><trkpt lat="45.774533608313504" lon="11.56722595641773"><ele>705.0</ele><time>2026-04-01T21:08:35.998Z</time></trkpt><trkpt lat="45.77454703745666" lon="11.567082276857388"><ele>705.0</ele><time>2026-04-01T21:08:36.998Z</time></trkpt><trkpt lat="45.77455140258712" lon="11.566945033458728"><ele>704.0</ele><time>2026-04-01T21:08:37.998Z</time></trkpt><trkpt lat="45.77455315850547" lon="11.566827970239823"><ele>703.0</ele><time>2026-04-01T21:08:38.998Z</time></trkpt><trkpt lat="45.774553823625986" lon="11.566727833294838"><ele>702.0</ele><time>2026-04-01T21:08:39.998Z</time></trkpt><trkpt lat="45.77455458275071" lon="11.566613543960328"><ele>701.0</ele><time>2026-04-01T21:08:40.998Z</time></trkpt><trkpt lat="45.7745085880942" lon="11.566542602286397"><ele>700.0</ele><time>2026-04-01T21:08:41.998Z</time></trkpt><trkpt lat="45.774418189736075" lon="11.566514819511266"><ele>699.0</ele><time>2026-04-01T21:08:42.998Z</time></trkpt><trkpt lat="45.7743527901018" lon="11.566523819960896"><ele>697.3333333333334</ele><time>2026-04-01T21:08:43.998Z</time></trkpt><trkpt lat="45.774321241595366" lon="11.566602710766952"><ele>695.6666666666666</ele><time>2026-04-01T21:08:44.998Z</time></trkpt><trkpt lat="45.774306385962674" lon="11.566692360638719"><ele>694.0</ele><time>2026-04-01T21:08:45.998Z</time></trkpt><trkpt lat="45.77427790444133" lon="11.56687186249099"><ele>692.3333333333333</ele><time>2026-04-01T21:08:47.998Z</time></trkpt><trkpt lat="45.77427705718745" lon="11.566977891957407"><ele>690.6666666666666</ele><time>2026-04-01T21:08:48.998Z</time></trkpt><trkpt lat="45.77427784853221" lon="11.567088080038959"><ele>689.0</ele><time>2026-04-01T21:08:49.998Z</time></trkpt><trkpt lat="45.77428176306629" lon="11.567203946478411"><ele>689.0</ele><time>2026-04-01T21:08:50.998Z</time></trkpt><trkpt lat="45.77429183228925" lon="11.567346307658282"><ele>689.0</ele><time>2026-04-01T21:08:51.998Z</time></trkpt><trkpt lat="45.774305310963726" lon="11.567506843793701"><ele>689.0</ele><time>2026-04-01T21:08:52.998Z</time></trkpt><trkpt lat="45.77432152494547" lon="11.567674956374116"><ele>689.0</ele><time>2026-04-01T21:08:53.998Z</time></trkpt><trkpt lat="45.774340043354236" lon="11.567821801667698"><ele>689.0</ele><time>2026-04-01T21:08:55Z</time></trkpt><trkpt lat="45.77437950659238" lon="11.56794864620507"><ele>691.8000000000001</ele><time>2026-04-01T21:08:56Z</time></trkpt><trkpt lat="45.7743921886655" lon="11.568081935511945"><ele>694.6</ele><time>2026-04-01T21:08:57Z</time></trkpt><trkpt lat="45.7744268013569" lon="11.568214104275853"><ele>697.4</ele><time>2026-04-01T21:08:58Z</time></trkpt><trkpt lat="45.774477743302256" lon="11.56834016976954"><ele>700.2</ele><time>2026-04-01T21:08:59Z</time></trkpt><trkpt lat="45.774505429744025" lon="11.568457131182093"><ele>703.0</ele><time>2026-04-01T21:09:00Z</time></trkpt><trkpt lat="45.77453574867238" lon="11.568624250714493"><ele>701.8</ele><time>2026-04-01T21:09:01Z</time></trkpt><trkpt lat="45.77454914967979" lon="11.568764109761041"><ele>700.5999999999999</ele><time>2026-04-01T21:09:02Z</time></trkpt><trkpt lat="45.774557000225855" lon="11.56892340038884"><ele>699.4000000000001</ele><time>2026-04-01T21:09:03Z</time></trkpt><trkpt lat="45.77455222487486" lon="11.569055572226123"><ele>698.2</ele><time>2026-04-01T21:09:04Z</time></trkpt><trkpt lat="45.7745554919573" lon="11.569172374247064"><ele>697.0</ele><time>2026-04-01T21:09:05Z</time></trkpt><trkpt lat="45.77456413949347" lon="11.56929265660554"><ele>697.0</ele><time>2026-04-01T21:09:06Z</time></trkpt><trkpt lat="45.7745639882566" lon="11.569384371413818"><ele>697.0</ele><time>2026-04-01T21:09:07Z</time></trkpt><trkpt lat="45.774586452593866" lon="11.569539142568226"><ele>697.0</ele><time>2026-04-01T21:09:08Z</time></trkpt><trkpt lat="45.77457334907789" lon="11.569661353721724"><ele>697.0</ele><time>2026-04-01T21:09:10Z</time></trkpt><trkpt lat="45.7745276462837" lon="11.569731002706721"><ele>697.0</ele><time>2026-04-01T21:09:11Z</time></trkpt><trkpt lat="45.774457917932544" lon="11.569718272746806"><ele>697.0</ele><time>2026-04-01T21:09:12Z</time></trkpt><trkpt lat="45.77448622885082" lon="11.569614691919156"><ele>697.0</ele><time>2026-04-01T21:09:14Z</time></trkpt><trkpt lat="45.774520384282425" lon="11.569707061986852"><ele>697.0</ele><time>2026-04-01T21:09:16Z</time></trkpt><trkpt lat="45.77447034276548" lon="11.569557340972702"><ele>697.0</ele><time>2026-04-01T21:09:20Z</time></trkpt><trkpt lat="45.774439878860534" lon="11.56944847132768"><ele>697.0</ele><time>2026-04-01T21:09:21Z</time></trkpt><trkpt lat="45.774405203488385" lon="11.569344748476201"><ele>697.0</ele><time>2026-04-01T21:09:22Z</time></trkpt><trkpt lat="45.774361549132934" lon="11.569225233274281"><ele>697.0</ele><time>2026-04-01T21:09:23Z</time></trkpt><trkpt lat="45.77422023540243" lon="11.568937851616209"><ele>692.6666666666667</ele><time>2026-04-01T21:09:24Z</time></trkpt><trkpt lat="45.77412493455885" lon="11.568753791499303"><ele>688.3333333333334</ele><time>2026-04-01T21:09:25Z</time></trkpt><trkpt lat="45.77402530532305" lon="11.568622331165761"><ele>684.0</ele><time>2026-04-01T21:09:26Z</time></trkpt><trkpt lat="45.77384643054628" lon="11.568478706624434"><ele>684.0</ele><time>2026-04-01T21:09:27Z</time></trkpt><trkpt lat="45.77372740064766" lon="11.568419918574183"><ele>684.0</ele><time>2026-04-01T21:09:28Z</time></trkpt><trkpt lat="45.77360233253243" lon="11.568365496106491"><ele>684.0</ele><time>2026-04-01T21:09:28.999Z</time></trkpt><trkpt lat="45.77352424660852" lon="11.568328393808505"><ele>684.0</ele><time>2026-04-01T21:09:29.999Z</time></trkpt><trkpt lat="45.77344582925513" lon="11.568288237318816"><ele>684.0</ele><time>2026-04-01T21:09:30.999Z</time></trkpt><trkpt lat="45.773375671785914" lon="11.568262491499123"><ele>679.5</ele><time>2026-04-01T21:09:31.999Z</time></trkpt><trkpt lat="45.77329893129871" lon="11.568155399374195"><ele>675.0</ele><time>2026-04-01T21:09:32.999Z</time></trkpt><trkpt lat="45.77324394868159" lon="11.567996284663549"><ele>670.5</ele><time>2026-04-01T21:09:33.999Z</time></trkpt><trkpt lat="45.77319518877167" lon="11.567896324392844"><ele>666.0</ele><time>2026-04-01T21:09:34.999Z</time></trkpt><trkpt lat="45.77313930829272" lon="11.567717157120512"><ele>666.0</ele><time>2026-04-01T21:09:35.999Z</time></trkpt><trkpt lat="45.773078677688844" lon="11.56753243015888"><ele>666.0</ele><time>2026-04-01T21:09:36.999Z</time></trkpt><trkpt lat="45.773049164643425" lon="11.567342656531114"><ele>666.0</ele><time>2026-04-01T21:09:37.999Z</time></trkpt><trkpt lat="45.77301718493793" lon="11.567187261092434"><ele>666.0</ele><time>2026-04-01T21:09:38.999Z</time></trkpt><trkpt lat="45.772991058585504" lon="11.56696381283457"><ele>667.75</ele><time>2026-04-01T21:09:39.999Z</time></trkpt><trkpt lat="45.77296855638249" lon="11.566780380197129"><ele>669.5</ele><time>2026-04-01T21:09:40.999Z</time></trkpt><trkpt lat="45.772916187641336" lon="11.566612607166837"><ele>671.25</ele><time>2026-04-01T21:09:41.999Z</time></trkpt><trkpt lat="45.772844008920174" lon="11.566430838897768"><ele>673.0</ele><time>2026-04-01T21:09:42.999Z</time></trkpt><trkpt lat="45.77275872733667" lon="11.56625955511006"><ele>670.0</ele><time>2026-04-01T21:09:43.999Z</time></trkpt><trkpt lat="45.77267756213463" lon="11.566129998829057"><ele>667.0</ele><time>2026-04-01T21:09:44.999Z</time></trkpt><trkpt lat="45.77259628132506" lon="11.565968242254584"><ele>664.0</ele><time>2026-04-01T21:09:45.999Z</time></trkpt><trkpt lat="45.77252216169354" lon="11.56582833878933"><ele>661.0</ele><time>2026-04-01T21:09:46.999Z</time></trkpt><trkpt lat="45.772442708591775" lon="11.565670170865635"><ele>661.0</ele><time>2026-04-01T21:09:47.999Z</time></trkpt><trkpt lat="45.77237510113182" lon="11.565532873737043"><ele>661.0</ele><time>2026-04-01T21:09:48.999Z</time></trkpt><trkpt lat="45.772319689012164" lon="11.565426294352813"><ele>661.0</ele><time>2026-04-01T21:09:49.999Z</time></trkpt><trkpt lat="45.772258158894466" lon="11.565316003037529"><ele>661.0</ele><time>2026-04-01T21:09:50.999Z</time></trkpt><trkpt lat="45.77222943206262" lon="11.56518715876087"><ele>661.0</ele><time>2026-04-01T21:09:51.999Z</time></trkpt><trkpt lat="45.77222514519472" lon="11.565058728989637"><ele>660.8</ele><time>2026-04-01T21:09:52.999Z</time></trkpt><trkpt lat="45.77226317664009" lon="11.564942825252293"><ele>660.5999999999999</ele><time>2026-04-01T21:09:53.999Z</time></trkpt><trkpt lat="45.772302499315494" lon="11.564833941827466"><ele>660.4</ele><time>2026-04-01T21:09:54.999Z</time></trkpt><trkpt lat="45.77235076306333" lon="11.56471714380392"><ele>660.2</ele><time>2026-04-01T21:09:55.999Z</time></trkpt><trkpt lat="45.77240244868651" lon="11.5645941856808"><ele>660.0</ele><time>2026-04-01T21:09:56.999Z</time></trkpt><trkpt lat="45.77247049438726" lon="11.564496588733178"><ele>657.75</ele><time>2026-04-01T21:09:57.999Z</time></trkpt><trkpt lat="45.77254806784224" lon="11.56437679521503"><ele>655.5</ele><time>2026-04-01T21:09:58.999Z</time></trkpt><trkpt lat="45.77258768183625" lon="11.564248802347478"><ele>653.25</ele><time>2026-04-01T21:09:59.999Z</time></trkpt><trkpt lat="45.7726419129533" lon="11.564076780673561"><ele>651.0</ele><time>2026-04-01T21:10:00.999Z</time></trkpt><trkpt lat="45.772681816275714" lon="11.5638838980129"><ele>651.25</ele><time>2026-04-01T21:10:01.999Z</time></trkpt><trkpt lat="45.77272290957094" lon="11.563749870198311"><ele>651.5</ele><time>2026-04-01T21:10:02.999Z</time></trkpt><trkpt lat="45.77275888372429" lon="11.563640607289846"><ele>651.75</ele><time>2026-04-01T21:10:03.999Z</time></trkpt><trkpt lat="45.77284477777127" lon="11.563433924692681"><ele>652.0</ele><time>2026-04-01T21:10:04.999Z</time></trkpt><trkpt lat="45.77290901007207" lon="11.563300997410712"><ele>652.0</ele><time>2026-04-01T21:10:05.999Z</time></trkpt><trkpt lat="45.77295049771224" lon="11.563193504732682"><ele>652.0</ele><time>2026-04-01T21:10:06.999Z</time></trkpt><trkpt lat="45.773000685246636" lon="11.563050455700388"><ele>652.0</ele><time>2026-04-01T21:10:07.999Z</time></trkpt><trkpt lat="45.77303453249991" lon="11.56291168810193"><ele>652.0</ele><time>2026-04-01T21:10:08.999Z</time></trkpt><trkpt lat="45.77307013072017" lon="11.562774595537599"><ele>652.0</ele><time>2026-04-01T21:10:09.999Z</time></trkpt><trkpt lat="45.77308512037119" lon="11.562611773979356"><ele>650.0</ele><time>2026-04-01T21:10:10.999Z</time></trkpt><trkpt lat="45.7730994143588" lon="11.56246255164098"><ele>648.0</ele><time>2026-04-01T21:10:11.999Z</time></trkpt><trkpt lat="45.77312874178191" lon="11.56228676045676"><ele>646.0</ele><time>2026-04-01T21:10:13.999Z</time></trkpt><trkpt lat="45.7731668800146" lon="11.562200982219691"><ele>644.0</ele><time>2026-04-01T21:10:14.999Z</time></trkpt><trkpt lat="45.773226899400804" lon="11.562104644859325"><ele>642.0</ele><time>2026-04-01T21:10:15.999Z</time></trkpt><trkpt lat="45.77331551425818" lon="11.562012591469198"><ele>640.5</ele><time>2026-04-01T21:10:16.999Z</time></trkpt><trkpt lat="45.7733860640738" lon="11.561984798915853"><ele>639.0</ele><time>2026-04-01T21:10:17.999Z</time></trkpt><trkpt lat="45.773472453666535" lon="11.561931699002228"><ele>637.5</ele><time>2026-04-01T21:10:18.999Z</time></trkpt><trkpt lat="45.773556602772985" lon="11.561923193129774"><ele>636.0</ele><time>2026-04-01T21:10:19.999Z</time></trkpt><trkpt lat="45.773643065728855" lon="11.56188630885668"><ele>634.5</ele><time>2026-04-01T21:10:20.999Z</time></trkpt><trkpt lat="45.7737000599724" lon="11.561839647796726"><ele>633.0</ele><time>2026-04-01T21:10:21.999Z</time></trkpt><trkpt lat="45.773768637728224" lon="11.561745014334234"><ele>633.0</ele><time>2026-04-01T21:10:23.999Z</time></trkpt><trkpt lat="45.7737500947477" lon="11.561590467727214"><ele>633.0</ele><time>2026-04-01T21:10:25.999Z</time></trkpt><trkpt lat="45.77370281330767" lon="11.561507534184878"><ele>633.0</ele><time>2026-04-01T21:10:26.999Z</time></trkpt><trkpt lat="45.77360453925397" lon="11.561428210910625"><ele>633.0</ele><time>2026-04-01T21:10:28.998Z</time></trkpt><trkpt lat="45.773467374355484" lon="11.561365103522956"><ele>633.0</ele><time>2026-04-01T21:10:29.998Z</time></trkpt><trkpt lat="45.77337167733754" lon="11.561291212038574"><ele>633.0</ele><time>2026-04-01T21:10:30.998Z</time></trkpt><trkpt lat="45.77328393041231" lon="11.561238022763382"><ele>633.0</ele><time>2026-04-01T21:10:31.998Z</time></trkpt><trkpt lat="45.77317871676693" lon="11.561174247798943"><ele>633.0</ele><time>2026-04-01T21:10:32.998Z</time></trkpt><trkpt lat="45.77308459085107" lon="11.561117215705737"><ele>633.0</ele><time>2026-04-01T21:10:33.998Z</time></trkpt><trkpt lat="45.77299254835223" lon="11.561081271007662"><ele>633.0</ele><time>2026-04-01T21:10:34.998Z</time></trkpt><trkpt lat="45.772879500248926" lon="11.560966566837726"><ele>628.3333333333334</ele><time>2026-04-01T21:10:35.998Z</time></trkpt><trkpt lat="45.77270537949803" lon="11.560855022558483"><ele>623.6666666666667</ele><time>2026-04-01T21:10:36.998Z</time></trkpt><trkpt lat="45.77254618800572" lon="11.560756441345912"><ele>619.0</ele><time>2026-04-01T21:10:37.998Z</time></trkpt><trkpt lat="45.772404316153406" lon="11.560665410109353"><ele>618.4</ele><time>2026-04-01T21:10:38.998Z</time></trkpt><trkpt lat="45.772292525364556" lon="11.560594269881015"><ele>617.8</ele><time>2026-04-01T21:10:39.998Z</time></trkpt><trkpt lat="45.77219535307817" lon="11.560523483811773"><ele>617.2</ele><time>2026-04-01T21:10:40.998Z</time></trkpt><trkpt lat="45.77209699024138" lon="11.5604545058151"><ele>616.6</ele><time>2026-04-01T21:10:41.998Z</time></trkpt><trkpt lat="45.772008130395484" lon="11.560391742048132"><ele>616.0</ele><time>2026-04-01T21:10:42.998Z</time></trkpt><trkpt lat="45.77191925439513" lon="11.560343406802518"><ele>615.3333333333334</ele><time>2026-04-01T21:10:43.998Z</time></trkpt><trkpt lat="45.771844341846624" lon="11.560316274841572"><ele>614.6666666666667</ele><time>2026-04-01T21:10:44.998Z</time></trkpt><trkpt lat="45.77176244146624" lon="11.560308266092509"><ele>614.0</ele><time>2026-04-01T21:10:45.998Z</time></trkpt><trkpt lat="45.77168055458166" lon="11.560316952532894"><ele>613.3333333333334</ele><time>2026-04-01T21:10:46.998Z</time></trkpt><trkpt lat="45.77160654883986" lon="11.5603600233735"><ele>612.6666666666666</ele><time>2026-04-01T21:10:47.998Z</time></trkpt><trkpt lat="45.77153349320021" lon="11.560393308176236"><ele>612.0</ele><time>2026-04-01T21:10:48.998Z</time></trkpt><trkpt lat="45.77148361389921" lon="11.560467015489822"><ele>612.0</ele><time>2026-04-01T21:10:49.998Z</time></trkpt><trkpt lat="45.77141711213581" lon="11.560508641041363"><ele>612.0</ele><time>2026-04-01T21:10:50.998Z</time></trkpt><trkpt lat="45.77135072462331" lon="11.560591938359995"><ele>612.0</ele><time>2026-04-01T21:10:51.998Z</time></trkpt><trkpt lat="45.7712896958602" lon="11.560757574126141"><ele>612.0</ele><time>2026-04-01T21:10:52.998Z</time></trkpt><trkpt lat="45.771244818402145" lon="11.560888640701252"><ele>612.0</ele><time>2026-04-01T21:10:53.998Z</time></trkpt><trkpt lat="45.771176188733875" lon="11.561038958010867"><ele>614.25</ele><time>2026-04-01T21:10:54.998Z</time></trkpt><trkpt lat="45.77110513703931" lon="11.561231840361799"><ele>616.5</ele><time>2026-04-01T21:10:55.998Z</time></trkpt><trkpt lat="45.77106315136996" lon="11.5614028642987"><ele>618.75</ele><time>2026-04-01T21:10:56.998Z</time></trkpt><trkpt lat="45.7710384486456" lon="11.561556060574292"><ele>621.0</ele><time>2026-04-01T21:10:57.998Z</time></trkpt><trkpt lat="45.77103232102879" lon="11.561703240493108"><ele>615.6</ele><time>2026-04-01T21:10:58.998Z</time></trkpt><trkpt lat="45.77100348398572" lon="11.561852153816856"><ele>610.2</ele><time>2026-04-01T21:10:59.998Z</time></trkpt><trkpt lat="45.77098813760611" lon="11.561980799406637"><ele>604.8</ele><time>2026-04-01T21:11:01Z</time></trkpt><trkpt lat="45.7709818817705" lon="11.562137887871447"><ele>599.4</ele><time>2026-04-01T21:11:02Z</time></trkpt><trkpt lat="45.770965305388174" lon="11.562288925048952"><ele>594.0</ele><time>2026-04-01T21:11:03Z</time></trkpt><trkpt lat="45.770948970937525" lon="11.562441674811383"><ele>594.0</ele><time>2026-04-01T21:11:04Z</time></trkpt><trkpt lat="45.77089820190248" lon="11.5627467479654"><ele>594.0</ele><time>2026-04-01T21:11:05Z</time></trkpt><trkpt lat="45.7708740524307" lon="11.562908429481388"><ele>594.0</ele><time>2026-04-01T21:11:06Z</time></trkpt><trkpt lat="45.770879966917164" lon="11.563057508491154"><ele>594.0</ele><time>2026-04-01T21:11:07Z</time></trkpt><trkpt lat="45.77086268372882" lon="11.563209248701103"><ele>594.0</ele><time>2026-04-01T21:11:08Z</time></trkpt><trkpt lat="45.770848829719434" lon="11.563326590511354"><ele>594.0</ele><time>2026-04-01T21:11:09Z</time></trkpt><trkpt lat="45.77074220452567" lon="11.5633343302279"><ele>594.0</ele><time>2026-04-01T21:11:10Z</time></trkpt><trkpt lat="45.770868127813536" lon="11.563036559315368"><ele>594.0</ele><time>2026-04-01T21:11:12Z</time></trkpt><trkpt lat="45.770889101702366" lon="11.56286349366896"><ele>594.0</ele><time>2026-04-01T21:11:18Z</time></trkpt><trkpt lat="45.77090583847546" lon="11.562683512683702"><ele>594.0</ele><time>2026-04-01T21:11:20Z</time></trkpt><trkpt lat="45.77091549970457" lon="11.56258874310799"><ele>594.0</ele><time>2026-04-01T21:11:21Z</time></trkpt><trkpt lat="45.77084759704271" lon="11.562473206307683"><ele>594.0</ele><time>2026-04-01T21:11:22Z</time></trkpt><trkpt lat="45.77084706867488" lon="11.562326179619754"><ele>594.0</ele><time>2026-04-01T21:11:23Z</time></trkpt><trkpt lat="45.770848783818245" lon="11.562511415089196"><ele>588.0</ele><time>2026-04-01T21:11:24Z</time></trkpt><trkpt lat="45.7708261198567" lon="11.561732829918217"><ele>588.0</ele><time>2026-04-01T21:11:26Z</time></trkpt><trkpt lat="45.770834022127" lon="11.56157749896187"><ele>588.0</ele><time>2026-04-01T21:11:27Z</time></trkpt><trkpt lat="45.77084553070363" lon="11.56141157423634"><ele>588.0</ele><time>2026-04-01T21:11:28Z</time></trkpt><trkpt lat="45.770854976829824" lon="11.561278882632006"><ele>588.0</ele><time>2026-04-01T21:11:29Z</time></trkpt><trkpt lat="45.77087349447248" lon="11.561039832829383"><ele>586.25</ele><time>2026-04-01T21:11:30Z</time></trkpt><trkpt lat="45.770885128900616" lon="11.56089227324695"><ele>584.5</ele><time>2026-04-01T21:11:31Z</time></trkpt><trkpt lat="45.77089923575069" lon="11.560713355891334"><ele>582.75</ele><time>2026-04-01T21:11:32Z</time></trkpt><trkpt lat="45.77092009770032" lon="11.560457292154199"><ele>581.0</ele><time>2026-04-01T21:11:33Z</time></trkpt><trkpt lat="45.77093446777135" lon="11.560299668456894"><ele>578.75</ele><time>2026-04-01T21:11:34Z</time></trkpt><trkpt lat="45.77095782505032" lon="11.560122101600927"><ele>576.5</ele><time>2026-04-01T21:11:35Z</time></trkpt><trkpt lat="45.77098937427735" lon="11.559963184349845"><ele>574.25</ele><time>2026-04-01T21:11:36Z</time></trkpt><trkpt lat="45.77104159293308" lon="11.559775711608134"><ele>572.0</ele><time>2026-04-01T21:11:37Z</time></trkpt><trkpt lat="45.77108077300772" lon="11.559616414877809"><ele>572.0</ele><time>2026-04-01T21:11:38Z</time></trkpt><trkpt lat="45.77108960323867" lon="11.55949527061828"><ele>572.0</ele><time>2026-04-01T21:11:39Z</time></trkpt><trkpt lat="45.77112156165461" lon="11.559409380285148"><ele>572.0</ele><time>2026-04-01T21:11:40Z</time></trkpt><trkpt lat="45.77107985782124" lon="11.559595421255265"><ele>572.0</ele><time>2026-04-01T21:11:45Z</time></trkpt><trkpt lat="45.77087249017987" lon="11.559700635237457"><ele>572.0</ele><time>2026-04-01T21:11:45.999Z</time></trkpt><trkpt lat="45.77066775100611" lon="11.56025841455005"><ele>572.0</ele><time>2026-04-01T21:11:46.999Z</time></trkpt><trkpt lat="45.77067534481354" lon="11.560396088074587"><ele>574.25</ele><time>2026-04-01T21:11:48.999Z</time></trkpt><trkpt lat="45.7706405593056" lon="11.560578086640447"><ele>576.5</ele><time>2026-04-01T21:11:50.999Z</time></trkpt><trkpt lat="45.77060962062056" lon="11.560716868776458"><ele>578.75</ele><time>2026-04-01T21:11:51.999Z</time></trkpt><trkpt lat="45.7705751609166" lon="11.560869130649973"><ele>581.0</ele><time>2026-04-01T21:11:52.999Z</time></trkpt><trkpt lat="45.770542037816995" lon="11.561015284862357"><ele>581.0</ele><time>2026-04-01T21:11:53.999Z</time></trkpt><trkpt lat="45.77050764752169" lon="11.56116948969713"><ele>581.0</ele><time>2026-04-01T21:11:54.999Z</time></trkpt><trkpt lat="45.77047951549561" lon="11.5613074133457"><ele>581.0</ele><time>2026-04-01T21:11:55.999Z</time></trkpt><trkpt lat="45.77044578172931" lon="11.561597129703161"><ele>581.0</ele><time>2026-04-01T21:11:56.999Z</time></trkpt><trkpt lat="45.77042967567953" lon="11.561789143001388"><ele>582.4</ele><time>2026-04-01T21:11:57.999Z</time></trkpt><trkpt lat="45.77041571477196" lon="11.56195141906087"><ele>583.8</ele><time>2026-04-01T21:11:58.999Z</time></trkpt><trkpt lat="45.77039909952385" lon="11.562066539780323"><ele>585.1999999999999</ele><time>2026-04-01T21:11:59.999Z</time></trkpt><trkpt lat="45.77036324477568" lon="11.562222740771961"><ele>586.6</ele><time>2026-04-01T21:12:01.023Z</time></trkpt><trkpt lat="45.7703224263285" lon="11.562371182942442"><ele>588.0</ele><time>2026-04-01T21:12:02.023Z</time></trkpt><trkpt lat="45.77020338637372" lon="11.562853135393645"><ele>577.0</ele><time>2026-04-01T21:12:03.999Z</time></trkpt><trkpt lat="45.770150382927625" lon="11.5630259323627"><ele>566.0</ele><time>2026-04-01T21:12:04.999Z</time></trkpt><trkpt lat="45.77011021964692" lon="11.563221965822633"><ele>555.0</ele><time>2026-04-01T21:12:06.999Z</time></trkpt><trkpt lat="45.770065746671875" lon="11.563385228757594"><ele>544.0</ele><time>2026-04-01T21:12:07.999Z</time></trkpt><trkpt lat="45.77001155564041" lon="11.563548368791073"><ele>544.0</ele><time>2026-04-01T21:12:08.999Z</time></trkpt><trkpt lat="45.76996854512776" lon="11.56367895810831"><ele>544.0</ele><time>2026-04-01T21:12:09.999Z</time></trkpt><trkpt lat="45.76991883713627" lon="11.563870817670034"><ele>544.0</ele><time>2026-04-01T21:12:10.999Z</time></trkpt><trkpt lat="45.76989149189336" lon="11.56401913893801"><ele>544.0</ele><time>2026-04-01T21:12:11.999Z</time></trkpt><trkpt lat="45.76987053964652" lon="11.564172023432503"><ele>549.3333333333334</ele><time>2026-04-01T21:12:12.999Z</time></trkpt><trkpt lat="45.76984144856104" lon="11.564451284131819"><ele>554.6666666666666</ele><time>2026-04-01T21:12:14.999Z</time></trkpt><trkpt lat="45.76981014215245" lon="11.564602577399535"><ele>560.0</ele><time>2026-04-01T21:12:15.999Z</time></trkpt><trkpt lat="45.769801288914266" lon="11.564836645055806"><ele>563.3333333333333</ele><time>2026-04-01T21:12:16.999Z</time></trkpt><trkpt lat="45.76979170373408" lon="11.565016573001952"><ele>566.6666666666666</ele><time>2026-04-01T21:12:17.999Z</time></trkpt><trkpt lat="45.769666689988696" lon="11.565429585077345"><ele>570.0</ele><time>2026-04-01T21:12:18.999Z</time></trkpt><trkpt lat="45.769668383142076" lon="11.56527679300924"><ele>570.0</ele><time>2026-04-01T21:12:20.999Z</time></trkpt><trkpt lat="45.769644400313275" lon="11.565168392517927"><ele>570.0</ele><time>2026-04-01T21:12:28.999Z</time></trkpt><trkpt lat="45.769694926399225" lon="11.565086741710038"><ele>570.0</ele><time>2026-04-01T21:12:30.999Z</time></trkpt><trkpt lat="45.76973109501068" lon="11.5648309772677"><ele>570.0</ele><time>2026-04-01T21:12:31.999Z</time></trkpt><trkpt lat="45.7697455505145" lon="11.564657004245678"><ele>566.6666666666666</ele><time>2026-04-01T21:12:32.999Z</time></trkpt><trkpt lat="45.76976872640756" lon="11.56427997619297"><ele>563.3333333333333</ele><time>2026-04-01T21:12:33.999Z</time></trkpt><trkpt lat="45.769777138323605" lon="11.564134767268419"><ele>560.0</ele><time>2026-04-01T21:12:34.999Z</time></trkpt><trkpt lat="45.76977159501583" lon="11.563955486875994"><ele>560.0</ele><time>2026-04-01T21:12:35.999Z</time></trkpt><trkpt lat="45.76978933440063" lon="11.563781379096763"><ele>560.0</ele><time>2026-04-01T21:12:36.999Z</time></trkpt><trkpt lat="45.76981042566141" lon="11.563643079355948"><ele>560.0</ele><time>2026-04-01T21:12:37.999Z</time></trkpt><trkpt lat="45.769857291029574" lon="11.563563204630215"><ele>560.0</ele><time>2026-04-01T21:12:38.999Z</time></trkpt><trkpt lat="45.7698630666797" lon="11.563421387957018"><ele>560.0</ele><time>2026-04-01T21:12:39.999Z</time></trkpt><trkpt lat="45.76990748204571" lon="11.563284265978044"><ele>556.0</ele><time>2026-04-01T21:12:40.999Z</time></trkpt><trkpt lat="45.76992421487575" lon="11.563128217139985"><ele>552.0</ele><time>2026-04-01T21:12:41.999Z</time></trkpt><trkpt lat="45.769931906144166" lon="11.5629607208286"><ele>548.0</ele><time>2026-04-01T21:12:42.999Z</time></trkpt><trkpt lat="45.76993006891229" lon="11.562799230095267"><ele>544.0</ele><time>2026-04-01T21:12:43.999Z</time></trkpt><trkpt lat="45.769925651253345" lon="11.5626341201225"><ele>542.75</ele><time>2026-04-01T21:12:44.999Z</time></trkpt><trkpt lat="45.76992126931062" lon="11.562470342733748"><ele>541.5</ele><time>2026-04-01T21:12:45.999Z</time></trkpt><trkpt lat="45.76989565427426" lon="11.562254452299955"><ele>540.25</ele><time>2026-04-01T21:12:46.999Z</time></trkpt><trkpt lat="45.76986794209348" lon="11.562096477661871"><ele>539.0</ele><time>2026-04-01T21:12:47.999Z</time></trkpt><trkpt lat="45.76984315584757" lon="11.561950261285684"><ele>537.3333333333333</ele><time>2026-04-01T21:12:48.999Z</time></trkpt><trkpt lat="45.76984398816832" lon="11.561576808577964"><ele>535.6666666666666</ele><time>2026-04-01T21:12:49.998Z</time></trkpt><trkpt lat="45.76987376053817" lon="11.56145752938547"><ele>534.0</ele><time>2026-04-01T21:12:50.998Z</time></trkpt><trkpt lat="45.769944143182556" lon="11.561238704487492"><ele>534.0</ele><time>2026-04-01T21:12:51.998Z</time></trkpt><trkpt lat="45.76994414319125" lon="11.5611407232781"><ele>534.0</ele><time>2026-04-01T21:12:52.998Z</time></trkpt><trkpt lat="45.76969793293256" lon="11.561557168923075"><ele>534.0</ele><time>2026-04-01T21:12:53.998Z</time></trkpt><trkpt lat="45.769827648387995" lon="11.561355163444892"><ele>534.0</ele><time>2026-04-01T21:12:54.998Z</time></trkpt><trkpt lat="45.769859881014284" lon="11.561207208520925"><ele>534.0</ele><time>2026-04-01T21:12:55.998Z</time></trkpt><trkpt lat="45.769849325166575" lon="11.561090426845599"><ele>534.0</ele><time>2026-04-01T21:12:56.998Z</time></trkpt><trkpt lat="45.76986893697832" lon="11.561002616980112"><ele>534.0</ele><time>2026-04-01T21:12:57.998Z</time></trkpt><trkpt lat="45.76975995350223" lon="11.561244377909563"><ele>534.0</ele><time>2026-04-01T21:13:00.998Z</time></trkpt><trkpt lat="45.76972707479241" lon="11.561345623451741"><ele>534.0</ele><time>2026-04-01T21:13:01.998Z</time></trkpt><trkpt lat="45.7696909406593" lon="11.561456893624745"><ele>534.0</ele><time>2026-04-01T21:13:02.998Z</time></trkpt><trkpt lat="45.76965609417066" lon="11.561571427055403"><ele>534.0</ele><time>2026-04-01T21:13:03.998Z</time></trkpt><trkpt lat="45.7696293768363" lon="11.561703123524426"><ele>534.0</ele><time>2026-04-01T21:13:04.998Z</time></trkpt><trkpt lat="45.7696238420238" lon="11.561864674831371"><ele>534.0</ele><time>2026-04-01T21:13:05.998Z</time></trkpt><trkpt lat="45.76963005493657" lon="11.562000096554462"><ele>534.0</ele><time>2026-04-01T21:13:07Z</time></trkpt><trkpt lat="45.76963539893828" lon="11.562124019602908"><ele>534.0</ele><time>2026-04-01T21:13:08Z</time></trkpt><trkpt lat="45.76963271887516" lon="11.562242729306762"><ele>534.0</ele><time>2026-04-01T21:13:09Z</time></trkpt><trkpt lat="45.76961986519288" lon="11.562365868037496"><ele>534.0</ele><time>2026-04-01T21:13:10Z</time></trkpt><trkpt lat="45.7695929314485" lon="11.562481199592135"><ele>534.0</ele><time>2026-04-01T21:13:11Z</time></trkpt><trkpt lat="45.76956035640271" lon="11.56261372765437"><ele>536.5</ele><time>2026-04-01T21:13:12Z</time></trkpt><trkpt lat="45.76944442712034" lon="11.56289714748878"><ele>539.0</ele><time>2026-04-01T21:13:13Z</time></trkpt><trkpt lat="45.76942027412502" lon="11.563052852887893"><ele>541.5</ele><time>2026-04-01T21:13:14Z</time></trkpt><trkpt lat="45.769419465312225" lon="11.563152081465159"><ele>544.0</ele><time>2026-04-01T21:13:15Z</time></trkpt><trkpt lat="45.76938348370224" lon="11.563360675995963"><ele>534.75</ele><time>2026-04-01T21:13:16Z</time></trkpt><trkpt lat="45.76934756122757" lon="11.563492466029263"><ele>525.5</ele><time>2026-04-01T21:13:17Z</time></trkpt><trkpt lat="45.76927500124512" lon="11.56367508342008"><ele>516.25</ele><time>2026-04-01T21:13:18Z</time></trkpt><trkpt lat="45.769215358266564" lon="11.563845329960698"><ele>507.0</ele><time>2026-04-01T21:13:19Z</time></trkpt><trkpt lat="45.769151695455335" lon="11.564005024683702"><ele>507.0</ele><time>2026-04-01T21:13:20Z</time></trkpt><trkpt lat="45.76907495675423" lon="11.56415909301877"><ele>507.0</ele><time>2026-04-01T21:13:21Z</time></trkpt><trkpt lat="45.76899982832833" lon="11.564301730968483"><ele>507.0</ele><time>2026-04-01T21:13:22Z</time></trkpt><trkpt lat="45.768928849166876" lon="11.564431144513174"><ele>507.0</ele><time>2026-04-01T21:13:23Z</time></trkpt><trkpt lat="45.768896860060266" lon="11.56456928570831"><ele>508.0</ele><time>2026-04-01T21:13:24Z</time></trkpt><trkpt lat="45.76889090288539" lon="11.564712017619504"><ele>509.00000000000006</ele><time>2026-04-01T21:13:25Z</time></trkpt><trkpt lat="45.76889120123161" lon="11.564836462958601"><ele>510.00000000000006</ele><time>2026-04-01T21:13:26Z</time></trkpt><trkpt lat="45.7688901005716" lon="11.565007680079242"><ele>511.0</ele><time>2026-04-01T21:13:27Z</time></trkpt><trkpt lat="45.768878005837166" lon="11.56516424261804"><ele>512.0</ele><time>2026-04-01T21:13:28Z</time></trkpt><trkpt lat="45.768837835261195" lon="11.565329004930641"><ele>512.8000000000001</ele><time>2026-04-01T21:13:29Z</time></trkpt><trkpt lat="45.76879405552419" lon="11.565482972094463"><ele>513.6</ele><time>2026-04-01T21:13:30Z</time></trkpt><trkpt lat="45.76877935393008" lon="11.56561722655419"><ele>514.4000000000001</ele><time>2026-04-01T21:13:31Z</time></trkpt><trkpt lat="45.76877924831001" lon="11.56572000816737"><ele>515.2</ele><time>2026-04-01T21:13:32Z</time></trkpt><trkpt lat="45.76878698036995" lon="11.565849223277946"><ele>516.0</ele><time>2026-04-01T21:13:33Z</time></trkpt><trkpt lat="45.768800503494646" lon="11.565987736396183"><ele>516.0</ele><time>2026-04-01T21:13:34Z</time></trkpt><trkpt lat="45.76881390378686" lon="11.56615443399358"><ele>516.0</ele><time>2026-04-01T21:13:35Z</time></trkpt><trkpt lat="45.76880496180146" lon="11.566329268682326"><ele>516.0</ele><time>2026-04-01T21:13:36Z</time></trkpt><trkpt lat="45.768767388312774" lon="11.566497349846385"><ele>516.0</ele><time>2026-04-01T21:13:37Z</time></trkpt><trkpt lat="45.768748350384435" lon="11.566589356986949"><ele>516.0</ele><time>2026-04-01T21:13:38Z</time></trkpt><trkpt lat="45.76871490285549" lon="11.566721579177417"><ele>515.6</ele><time>2026-04-01T21:13:39Z</time></trkpt><trkpt lat="45.76863668630487" lon="11.56689069092281"><ele>515.2</ele><time>2026-04-01T21:13:42Z</time></trkpt><trkpt lat="45.76855572250089" lon="11.566943827588325"><ele>514.8</ele><time>2026-04-01T21:13:43Z</time></trkpt><trkpt lat="45.768487985572655" lon="11.56693001680687"><ele>514.4</ele><time>2026-04-01T21:13:44Z</time></trkpt><trkpt lat="45.76839671106842" lon="11.566886942764244"><ele>514.0</ele><time>2026-04-01T21:13:45Z</time></trkpt><trkpt lat="45.768321370157146" lon="11.566826166597865"><ele>509.4</ele><time>2026-04-01T21:13:47Z</time></trkpt><trkpt lat="45.76822015622468" lon="11.566735462277528"><ele>504.79999999999995</ele><time>2026-04-01T21:13:48.999Z</time></trkpt><trkpt lat="45.768147886933555" lon="11.566672655208832"><ele>500.20000000000005</ele><time>2026-04-01T21:13:49.999Z</time></trkpt><trkpt lat="45.768062986760505" lon="11.56660008107038"><ele>495.6</ele><time>2026-04-01T21:13:50.999Z</time></trkpt><trkpt lat="45.76798466066514" lon="11.566536874019995"><ele>491.0</ele><time>2026-04-01T21:13:51.999Z</time></trkpt><trkpt lat="45.76786298149769" lon="11.566469257218117"><ele>491.0</ele><time>2026-04-01T21:13:52.999Z</time></trkpt><trkpt lat="45.76778978804666" lon="11.566389085760983"><ele>491.0</ele><time>2026-04-01T21:13:53.999Z</time></trkpt><trkpt lat="45.767685750433834" lon="11.566340725037431"><ele>491.0</ele><time>2026-04-01T21:13:54.999Z</time></trkpt><trkpt lat="45.76759599116855" lon="11.566243887183466"><ele>491.0</ele><time>2026-04-01T21:13:55.999Z</time></trkpt><trkpt lat="45.767500262304104" lon="11.566153017314674"><ele>491.0</ele><time>2026-04-01T21:13:56.999Z</time></trkpt><trkpt lat="45.767418072248205" lon="11.566055560516238"><ele>490.25</ele><time>2026-04-01T21:13:57.999Z</time></trkpt><trkpt lat="45.76734183617912" lon="11.565942144586604"><ele>489.5</ele><time>2026-04-01T21:13:58.999Z</time></trkpt><trkpt lat="45.76725776058223" lon="11.565809050232108"><ele>488.75</ele><time>2026-04-01T21:13:59.999Z</time></trkpt><trkpt lat="45.767190444982816" lon="11.565670140275975"><ele>488.0</ele><time>2026-04-01T21:14:00.999Z</time></trkpt><trkpt lat="45.767129909792814" lon="11.565521510256445"><ele>488.0</ele><time>2026-04-01T21:14:01.999Z</time></trkpt><trkpt lat="45.76708303238133" lon="11.565374132131256"><ele>488.0</ele><time>2026-04-01T21:14:02.999Z</time></trkpt><trkpt lat="45.7669873467533" lon="11.565218463848883"><ele>488.0</ele><time>2026-04-01T21:14:03.999Z</time></trkpt><trkpt lat="45.76692593555764" lon="11.565072177848164"><ele>488.0</ele><time>2026-04-01T21:14:04.999Z</time></trkpt><trkpt lat="45.76686200123059" lon="11.564918744073493"><ele>488.75</ele><time>2026-04-01T21:14:05.999Z</time></trkpt><trkpt lat="45.7667917187727" lon="11.564753619899713"><ele>489.5</ele><time>2026-04-01T21:14:06.999Z</time></trkpt><trkpt lat="45.76672477166938" lon="11.56461173393681"><ele>490.25</ele><time>2026-04-01T21:14:07.999Z</time></trkpt><trkpt lat="45.76665238553738" lon="11.564456857614847"><ele>491.0</ele><time>2026-04-01T21:14:08.999Z</time></trkpt><trkpt lat="45.7665791624958" lon="11.564313755094362"><ele>487.6</ele><time>2026-04-01T21:14:09.999Z</time></trkpt><trkpt lat="45.7665031434459" lon="11.564184641716484"><ele>484.20000000000005</ele><time>2026-04-01T21:14:10.999Z</time></trkpt><trkpt lat="45.76642787280232" lon="11.564063098147672"><ele>480.79999999999995</ele><time>2026-04-01T21:14:11.999Z</time></trkpt><trkpt lat="45.7663574538218" lon="11.563946563943574"><ele>477.4</ele><time>2026-04-01T21:14:12.999Z</time></trkpt><trkpt lat="45.76630039528785" lon="11.56384505897439"><ele>474.0</ele><time>2026-04-01T21:14:13.999Z</time></trkpt><trkpt lat="45.766236292881004" lon="11.563765249953256"><ele>473.6666666666667</ele><time>2026-04-01T21:14:14.999Z</time></trkpt><trkpt lat="45.76613851730668" lon="11.563670970022415"><ele>473.33333333333337</ele><time>2026-04-01T21:14:16.999Z</time></trkpt><trkpt lat="45.76606831406113" lon="11.56366645818257"><ele>473.0</ele><time>2026-04-01T21:14:17.999Z</time></trkpt><trkpt lat="45.76601756335582" lon="11.563730097356967"><ele>472.6666666666667</ele><time>2026-04-01T21:14:18.999Z</time></trkpt><trkpt lat="45.76595893600474" lon="11.563851890161956"><ele>472.33333333333337</ele><time>2026-04-01T21:14:19.999Z</time></trkpt><trkpt lat="45.765928411004445" lon="11.563950962137458"><ele>472.0</ele><time>2026-04-01T21:14:20.999Z</time></trkpt><trkpt lat="45.76592753299146" lon="11.564060678568854"><ele>472.0</ele><time>2026-04-01T21:14:21.999Z</time></trkpt><trkpt lat="45.76591622597416" lon="11.564190169817083"><ele>472.00000000000006</ele><time>2026-04-01T21:14:22.999Z</time></trkpt><trkpt lat="45.76586639767384" lon="11.564341140883252"><ele>472.00000000000006</ele><time>2026-04-01T21:14:23.999Z</time></trkpt><trkpt lat="45.76586114367003" lon="11.564473818288448"><ele>472.0</ele><time>2026-04-01T21:14:24.999Z</time></trkpt><trkpt lat="45.76584397029126" lon="11.564621096941234"><ele>472.0</ele><time>2026-04-01T21:14:25.999Z</time></trkpt><trkpt lat="45.7658337164616" lon="11.564747773172911"><ele>473.0</ele><time>2026-04-01T21:14:26.999Z</time></trkpt><trkpt lat="45.765823655948296" lon="11.564899651809888"><ele>474.00000000000006</ele><time>2026-04-01T21:14:27.999Z</time></trkpt><trkpt lat="45.76581544351485" lon="11.565036793757974"><ele>475.00000000000006</ele><time>2026-04-01T21:14:28.999Z</time></trkpt><trkpt lat="45.76580641752054" lon="11.565183705836027"><ele>476.0</ele><time>2026-04-01T21:14:29.999Z</time></trkpt><trkpt lat="45.76580880388982" lon="11.565342381747211"><ele>477.0</ele><time>2026-04-01T21:14:30.999Z</time></trkpt><trkpt lat="45.765786175955235" lon="11.565498196797686"><ele>478.0</ele><time>2026-04-01T21:14:31.999Z</time></trkpt><trkpt lat="45.765785197594624" lon="11.565650951972703"><ele>479.00000000000006</ele><time>2026-04-01T21:14:32.999Z</time></trkpt><trkpt lat="45.76578138025248" lon="11.565834644002178"><ele>480.00000000000006</ele><time>2026-04-01T21:14:33.999Z</time></trkpt><trkpt lat="45.76575415529816" lon="11.56597059811075"><ele>481.0</ele><time>2026-04-01T21:14:34.999Z</time></trkpt><trkpt lat="45.76574930492853" lon="11.566113978224115"><ele>482.0</ele><time>2026-04-01T21:14:35.999Z</time></trkpt><trkpt lat="45.76574122597685" lon="11.566254276102558"><ele>483.20000000000005</ele><time>2026-04-01T21:14:36.999Z</time></trkpt><trkpt lat="45.76571962532879" lon="11.566372511279637"><ele>484.40000000000003</ele><time>2026-04-01T21:14:37.999Z</time></trkpt><trkpt lat="45.76568493969121" lon="11.566505751662273"><ele>485.59999999999997</ele><time>2026-04-01T21:14:38.999Z</time></trkpt><trkpt lat="45.765640570107955" lon="11.566694347405246"><ele>486.79999999999995</ele><time>2026-04-01T21:14:39.999Z</time></trkpt><trkpt lat="45.76555903827134" lon="11.56678783515635"><ele>488.0</ele><time>2026-04-01T21:14:40.999Z</time></trkpt><trkpt lat="45.76548998456622" lon="11.566850305086437"><ele>488.0</ele><time>2026-04-01T21:14:41.999Z</time></trkpt><trkpt lat="45.76538113591662" lon="11.566938994235414"><ele>488.0</ele><time>2026-04-01T21:14:42.999Z</time></trkpt><trkpt lat="45.765279525078135" lon="11.566975551182514"><ele>488.0</ele><time>2026-04-01T21:14:43.999Z</time></trkpt><trkpt lat="45.76514224929115" lon="11.566976780377788"><ele>488.0</ele><time>2026-04-01T21:14:44.999Z</time></trkpt><trkpt lat="45.76505492715242" lon="11.566948565456741"><ele>485.0</ele><time>2026-04-01T21:14:45.999Z</time></trkpt><trkpt lat="45.76496838732886" lon="11.566897721100965"><ele>481.99999999999994</ele><time>2026-04-01T21:14:46.999Z</time></trkpt><trkpt lat="45.76488968073258" lon="11.566833461061943"><ele>478.99999999999994</ele><time>2026-04-01T21:14:47.999Z</time></trkpt><trkpt lat="45.764833847818295" lon="11.56675475646943"><ele>476.0</ele><time>2026-04-01T21:14:48.999Z</time></trkpt><trkpt lat="45.76477663995394" lon="11.56665007046567"><ele>473.0</ele><time>2026-04-01T21:14:49.999Z</time></trkpt><trkpt lat="45.76472433071308" lon="11.56651848702722"><ele>473.0</ele><time>2026-04-01T21:14:50.999Z</time></trkpt><trkpt lat="45.7646760546115" lon="11.566398615697771"><ele>472.99999999999994</ele><time>2026-04-01T21:14:51.998Z</time></trkpt><trkpt lat="45.76460927842366" lon="11.56623394957907"><ele>472.99999999999994</ele><time>2026-04-01T21:14:52.998Z</time></trkpt><trkpt lat="45.764559496217814" lon="11.566118104161458"><ele>473.0</ele><time>2026-04-01T21:14:53.998Z</time></trkpt><trkpt lat="45.76450665952336" lon="11.566018728029912"><ele>473.0</ele><time>2026-04-01T21:14:54.998Z</time></trkpt><trkpt lat="45.76444055907168" lon="11.565945937730682"><ele>471.59999999999997</ele><time>2026-04-01T21:14:55.998Z</time></trkpt><trkpt lat="45.7643670116699" lon="11.565962881087186"><ele>470.19999999999993</ele><time>2026-04-01T21:14:56.998Z</time></trkpt><trkpt lat="45.76426244399832" lon="11.566049642530876"><ele>468.8</ele><time>2026-04-01T21:14:58.998Z</time></trkpt><trkpt lat="45.764225654731604" lon="11.566153986402655"><ele>467.4</ele><time>2026-04-01T21:14:59.998Z</time></trkpt><trkpt lat="45.764201491890596" lon="11.566269671047575"><ele>466.0</ele><time>2026-04-01T21:15:00.998Z</time></trkpt><trkpt lat="45.76419483924679" lon="11.566425204254296"><ele>466.00000000000006</ele><time>2026-04-01T21:15:01.998Z</time></trkpt><trkpt lat="45.764180077614526" lon="11.566545876835539"><ele>466.0</ele><time>2026-04-01T21:15:02.998Z</time></trkpt><trkpt lat="45.76416488305271" lon="11.566677134609554"><ele>466.0</ele><time>2026-04-01T21:15:03.998Z</time></trkpt><trkpt lat="45.76413348235975" lon="11.566799551577429"><ele>466.0</ele><time>2026-04-01T21:15:04.998Z</time></trkpt><trkpt lat="45.76411064697098" lon="11.566923031147601"><ele>466.00000000000006</ele><time>2026-04-01T21:15:05.998Z</time></trkpt><trkpt lat="45.76408235807451" lon="11.567028187033475"><ele>466.0</ele><time>2026-04-01T21:15:06.998Z</time></trkpt><trkpt lat="45.76404621936258" lon="11.567114273691105"><ele>467.0</ele><time>2026-04-01T21:15:07.998Z</time></trkpt><trkpt lat="45.76399804480983" lon="11.567195682426036"><ele>468.0</ele><time>2026-04-01T21:15:08.998Z</time></trkpt><trkpt lat="45.76393657168047" lon="11.567283160803347"><ele>469.0</ele><time>2026-04-01T21:15:09.998Z</time></trkpt><trkpt lat="45.76383525959348" lon="11.567345421826639"><ele>470.0</ele><time>2026-04-01T21:15:11.998Z</time></trkpt><trkpt lat="45.7637445384049" lon="11.567300927077321"><ele>471.0</ele><time>2026-04-01T21:15:14Z</time></trkpt><trkpt lat="45.763747451892606" lon="11.567156163150766"><ele>471.0</ele><time>2026-04-01T21:15:16Z</time></trkpt><trkpt lat="45.76377601939341" lon="11.567072388575099"><ele>471.0</ele><time>2026-04-01T21:15:17Z</time></trkpt><trkpt lat="45.763801392739005" lon="11.566967258111815"><ele>471.0</ele><time>2026-04-01T21:15:18Z</time></trkpt><trkpt lat="45.76385656660608" lon="11.566849666050052"><ele>471.0</ele><time>2026-04-01T21:15:19Z</time></trkpt><trkpt lat="45.76389749510174" lon="11.566704176164109"><ele>471.0</ele><time>2026-04-01T21:15:20Z</time></trkpt><trkpt lat="45.76391580869494" lon="11.566558641215344"><ele>470.0</ele><time>2026-04-01T21:15:21Z</time></trkpt><trkpt lat="45.76392489737176" lon="11.566432963691478"><ele>469.0</ele><time>2026-04-01T21:15:22Z</time></trkpt><trkpt lat="45.76393031965999" lon="11.566277111521234"><ele>468.0</ele><time>2026-04-01T21:15:23Z</time></trkpt><trkpt lat="45.76393806321577" lon="11.56612910927629"><ele>467.0</ele><time>2026-04-01T21:15:24Z</time></trkpt><trkpt lat="45.763942752997536" lon="11.566004170285392"><ele>466.0</ele><time>2026-04-01T21:15:25Z</time></trkpt><trkpt lat="45.76395568132452" lon="11.565892688271743"><ele>464.6</ele><time>2026-04-01T21:15:26Z</time></trkpt><trkpt lat="45.763976227337224" lon="11.56577916524552"><ele>463.20000000000005</ele><time>2026-04-01T21:15:27Z</time></trkpt><trkpt lat="45.764003667765735" lon="11.565661956107258"><ele>461.79999999999995</ele><time>2026-04-01T21:15:28Z</time></trkpt><trkpt lat="45.76403291720069" lon="11.565560840340064"><ele>460.4</ele><time>2026-04-01T21:15:29Z</time></trkpt><trkpt lat="45.76404659319374" lon="11.56539765827232"><ele>459.0</ele><time>2026-04-01T21:15:31Z</time></trkpt><trkpt lat="45.76398188562227" lon="11.565267115923717"><ele>459.0</ele><time>2026-04-01T21:15:33Z</time></trkpt><trkpt lat="45.76388184293235" lon="11.565313788394516"><ele>459.0</ele><time>2026-04-01T21:15:34Z</time></trkpt><trkpt lat="45.763848106988526" lon="11.565408710884391"><ele>459.0</ele><time>2026-04-01T21:15:35Z</time></trkpt><trkpt lat="45.763812944786345" lon="11.565487850252007"><ele>459.0</ele><time>2026-04-01T21:15:36Z</time></trkpt><trkpt lat="45.76375506166224" lon="11.565618127541933"><ele>459.0</ele><time>2026-04-01T21:15:38Z</time></trkpt><trkpt lat="45.76369899288944" lon="11.56572339757886"><ele>459.0</ele><time>2026-04-01T21:15:40Z</time></trkpt><trkpt lat="45.76362824601882" lon="11.565794323791309"><ele>459.0</ele><time>2026-04-01T21:15:41Z</time></trkpt><trkpt lat="45.763534589735585" lon="11.56583463781589"><ele>459.0</ele><time>2026-04-01T21:15:43Z</time></trkpt><trkpt lat="45.76346042350446" lon="11.565888171537722"><ele>459.0</ele><time>2026-04-01T21:15:44Z</time></trkpt><trkpt lat="45.76337601906725" lon="11.565983173664925"><ele>459.0</ele><time>2026-04-01T21:15:45Z</time></trkpt><trkpt lat="45.76332427524699" lon="11.566057015533742"><ele>459.0</ele><time>2026-04-01T21:15:46Z</time></trkpt><trkpt lat="45.763274281781364" lon="11.566143891377257"><ele>459.0</ele><time>2026-04-01T21:15:47Z</time></trkpt><trkpt lat="45.76319702803215" lon="11.566241409024327"><ele>457.79999999999995</ele><time>2026-04-01T21:15:48Z</time></trkpt><trkpt lat="45.76315481584275" lon="11.56635463205998"><ele>456.59999999999997</ele><time>2026-04-01T21:15:49Z</time></trkpt><trkpt lat="45.7630705509521" lon="11.566458979251697"><ele>455.4</ele><time>2026-04-01T21:15:50Z</time></trkpt><trkpt lat="45.76300074278225" lon="11.566578048817362"><ele>454.2</ele><time>2026-04-01T21:15:51Z</time></trkpt><trkpt lat="45.76293424032674" lon="11.566691410457887"><ele>453.0</ele><time>2026-04-01T21:15:52Z</time></trkpt><trkpt lat="45.76286595237021" lon="11.566819158373765"><ele>453.0</ele><time>2026-04-01T21:15:53Z</time></trkpt><trkpt lat="45.762802254679826" lon="11.566934862995916"><ele>452.99999999999994</ele><time>2026-04-01T21:15:54Z</time></trkpt><trkpt lat="45.76274329882155" lon="11.567047942003837"><ele>452.99999999999994</ele><time>2026-04-01T21:15:55Z</time></trkpt><trkpt lat="45.7626806807317" lon="11.567156371313281"><ele>453.0</ele><time>2026-04-01T21:15:56Z</time></trkpt><trkpt lat="45.76262469260161" lon="11.56726772208313"><ele>453.0</ele><time>2026-04-01T21:15:57Z</time></trkpt><trkpt lat="45.762566785752774" lon="11.567364341276127"><ele>451.79999999999995</ele><time>2026-04-01T21:15:57.999Z</time></trkpt><trkpt lat="45.76250011371254" lon="11.567448270615941"><ele>450.59999999999997</ele><time>2026-04-01T21:15:58.999Z</time></trkpt><trkpt lat="45.76242511830048" lon="11.567554679097789"><ele>449.40000000000003</ele><time>2026-04-01T21:15:59.999Z</time></trkpt><trkpt lat="45.76236249593333" lon="11.567612316230552"><ele>448.20000000000005</ele><time>2026-04-01T21:16:00.999Z</time></trkpt><trkpt lat="45.762261121216135" lon="11.567654929873921"><ele>447.0</ele><time>2026-04-01T21:16:01.999Z</time></trkpt><trkpt lat="45.762171216601814" lon="11.567701177069035"><ele>447.0</ele><time>2026-04-01T21:16:02.999Z</time></trkpt><trkpt lat="45.7620988106998" lon="11.567713728538216"><ele>447.00000000000006</ele><time>2026-04-01T21:16:03.999Z</time></trkpt><trkpt lat="45.76199768732484" lon="11.567711616389582"><ele>447.00000000000006</ele><time>2026-04-01T21:16:04.999Z</time></trkpt><trkpt lat="45.76191396828951" lon="11.567676815928145"><ele>447.0</ele><time>2026-04-01T21:16:05.999Z</time></trkpt><trkpt lat="45.76181760138099" lon="11.567630113960023"><ele>447.0</ele><time>2026-04-01T21:16:06.999Z</time></trkpt><trkpt lat="45.76173059535741" lon="11.56756422174088"><ele>445.40000000000003</ele><time>2026-04-01T21:16:07.999Z</time></trkpt><trkpt lat="45.761663990135645" lon="11.567484785056273"><ele>443.80000000000007</ele><time>2026-04-01T21:16:08.999Z</time></trkpt><trkpt lat="45.761592983348436" lon="11.567364122959521"><ele>442.2</ele><time>2026-04-01T21:16:09.999Z</time></trkpt><trkpt lat="45.761519922668555" lon="11.567287941888004"><ele>440.6</ele><time>2026-04-01T21:16:10.999Z</time></trkpt><trkpt lat="45.76145506917565" lon="11.567186835987169"><ele>439.0</ele><time>2026-04-01T21:16:11.999Z</time></trkpt><trkpt lat="45.76137491168348" lon="11.567105013685094"><ele>437.4</ele><time>2026-04-01T21:16:12.999Z</time></trkpt><trkpt lat="45.76128446321731" lon="11.56701652746368"><ele>435.79999999999995</ele><time>2026-04-01T21:16:13.999Z</time></trkpt><trkpt lat="45.76119617772274" lon="11.566928564608085"><ele>434.20000000000005</ele><time>2026-04-01T21:16:14.999Z</time></trkpt><trkpt lat="45.76111519968819" lon="11.566853645184757"><ele>432.6</ele><time>2026-04-01T21:16:15.999Z</time></trkpt><trkpt lat="45.76102680141331" lon="11.566763562690065"><ele>431.0</ele><time>2026-04-01T21:16:16.999Z</time></trkpt><trkpt lat="45.760935802323196" lon="11.566671364967775"><ele>431.0</ele><time>2026-04-01T21:16:17.999Z</time></trkpt><trkpt lat="45.760849683338286" lon="11.566574630097655"><ele>431.0</ele><time>2026-04-01T21:16:18.999Z</time></trkpt><trkpt lat="45.760775409745676" lon="11.566480686338307"><ele>431.0</ele><time>2026-04-01T21:16:19.999Z</time></trkpt><trkpt lat="45.760705443497024" lon="11.566386522702803"><ele>431.0</ele><time>2026-04-01T21:16:20.999Z</time></trkpt><trkpt lat="45.760647174822026" lon="11.566302826151398"><ele>431.0</ele><time>2026-04-01T21:16:21.999Z</time></trkpt><trkpt lat="45.760592649833676" lon="11.566225359095196"><ele>429.6</ele><time>2026-04-01T21:16:22.999Z</time></trkpt><trkpt lat="45.76053950360144" lon="11.566156908205592"><ele>428.20000000000005</ele><time>2026-04-01T21:16:23.999Z</time></trkpt><trkpt lat="45.76041930143773" lon="11.566092654228937"><ele>426.79999999999995</ele><time>2026-04-01T21:16:25.999Z</time></trkpt><trkpt lat="45.76035019118607" lon="11.566095554492946"><ele>425.4</ele><time>2026-04-01T21:16:26.999Z</time></trkpt><trkpt lat="45.76027363571429" lon="11.566124833112127"><ele>424.0</ele><time>2026-04-01T21:16:27.999Z</time></trkpt><trkpt lat="45.76015576128829" lon="11.566164711093355"><ele>424.5</ele><time>2026-04-01T21:16:28.999Z</time></trkpt><trkpt lat="45.76004730386371" lon="11.566315659307213"><ele>425.0</ele><time>2026-04-01T21:16:30.999Z</time></trkpt><trkpt lat="45.759989547667466" lon="11.566410336441544"><ele>425.5</ele><time>2026-04-01T21:16:31.999Z</time></trkpt><trkpt lat="45.75988138388947" lon="11.566529670918701"><ele>426.0</ele><time>2026-04-01T21:16:32.999Z</time></trkpt><trkpt lat="45.75982486546482" lon="11.56660241103141"><ele>426.0</ele><time>2026-04-01T21:16:33.999Z</time></trkpt><trkpt lat="45.7597114997271" lon="11.566730426297307"><ele>426.0</ele><time>2026-04-01T21:16:34.999Z</time></trkpt><trkpt lat="45.759622161263614" lon="11.566825560065917"><ele>426.0</ele><time>2026-04-01T21:16:35.999Z</time></trkpt><trkpt lat="45.759553223858774" lon="11.566906090654093"><ele>426.0</ele><time>2026-04-01T21:16:36.999Z</time></trkpt><trkpt lat="45.759478361330906" lon="11.56698121178707"><ele>426.0</ele><time>2026-04-01T21:16:38.999Z</time></trkpt><trkpt lat="45.759419633867935" lon="11.567048723097317"><ele>425.0</ele><time>2026-04-01T21:16:40.999Z</time></trkpt><trkpt lat="45.75935993152757" lon="11.567117355148246"><ele>424.0</ele><time>2026-04-01T21:16:42.999Z</time></trkpt><trkpt lat="45.75929440151296" lon="11.567192686475225"><ele>423.0</ele><time>2026-04-01T21:16:44.999Z</time></trkpt><trkpt lat="45.75938357222272" lon="11.567377194462692"><ele>422.0</ele><time>2026-04-01T21:17:45Z</time></trkpt><trkpt lat="45.759540612086134" lon="11.567355174271116"><ele>422.0</ele><time>2026-04-01T21:19:03.999Z</time></trkpt><trkpt lat="45.759352346420336" lon="11.567226930333597"><ele>422.0</ele><time>2026-04-01T21:19:05.999Z</time></trkpt><trkpt lat="45.759435084068784" lon="11.567364266587552"><ele>422.0</ele><time>2026-04-01T21:19:22.998Z</time></trkpt><trkpt lat="45.75936245713701" lon="11.567331086317962"><ele>422.0</ele><time>2026-04-01T21:22:41.999Z</time></trkpt><trkpt lat="45.7593006069547" lon="11.567360474662532"><ele>420.99999999999994</ele><time>2026-04-01T21:22:46.999Z</time></trkpt><trkpt lat="45.759201037035844" lon="11.567365083215027"><ele>420.0</ele><time>2026-04-01T21:22:49.999Z</time></trkpt><trkpt lat="45.75911203028867" lon="11.567449081473955"><ele>419.0</ele><time>2026-04-01T21:22:51.999Z</time></trkpt><trkpt lat="45.759050649826236" lon="11.567517343652222"><ele>418.0</ele><time>2026-04-01T21:22:52.999Z</time></trkpt><trkpt lat="45.75899942774038" lon="11.567600482268007"><ele>416.99999999999994</ele><time>2026-04-01T21:22:53.999Z</time></trkpt><trkpt lat="45.758929063895145" lon="11.567664954211851"><ele>416.0</ele><time>2026-04-01T21:22:54.999Z</time></trkpt><trkpt lat="45.75883455044475" lon="11.567721815135368"><ele>416.0</ele><time>2026-04-01T21:22:55.999Z</time></trkpt><trkpt lat="45.75874798167895" lon="11.56781336350648"><ele>416.0</ele><time>2026-04-01T21:22:56.999Z</time></trkpt><trkpt lat="45.75867856565964" lon="11.567876802566952"><ele>416.0</ele><time>2026-04-01T21:22:57.999Z</time></trkpt><trkpt lat="45.75857153958066" lon="11.567962400852904"><ele>416.0</ele><time>2026-04-01T21:22:58.999Z</time></trkpt><trkpt lat="45.75846876456795" lon="11.568029091203822"><ele>416.0</ele><time>2026-04-01T21:22:59.999Z</time></trkpt><trkpt lat="45.758358864228164" lon="11.56809390579312"><ele>415.20000000000005</ele><time>2026-04-01T21:23:00.999Z</time></trkpt><trkpt lat="45.75824872399315" lon="11.568150845071232"><ele>414.40000000000003</ele><time>2026-04-01T21:23:01.999Z</time></trkpt><trkpt lat="45.75812918324699" lon="11.568175648346882"><ele>413.6</ele><time>2026-04-01T21:23:02.999Z</time></trkpt><trkpt lat="45.7580121686961" lon="11.568206178891467"><ele>412.8</ele><time>2026-04-01T21:23:03.999Z</time></trkpt><trkpt lat="45.757940480982185" lon="11.56823308018608"><ele>412.0</ele><time>2026-04-01T21:23:04.999Z</time></trkpt><trkpt lat="45.75783603808031" lon="11.568246753935084"><ele>412.0</ele><time>2026-04-01T21:23:05.999Z</time></trkpt><trkpt lat="45.757734434395985" lon="11.568259598494812"><ele>412.0</ele><time>2026-04-01T21:23:06.999Z</time></trkpt><trkpt lat="45.75764702236152" lon="11.56827019030687"><ele>412.0</ele><time>2026-04-01T21:23:07.999Z</time></trkpt><trkpt lat="45.75754188827441" lon="11.568286595375186"><ele>412.0</ele><time>2026-04-01T21:23:08.999Z</time></trkpt><trkpt lat="45.757428815639386" lon="11.568308857577236"><ele>412.0</ele><time>2026-04-01T21:23:09.999Z</time></trkpt><trkpt lat="45.75733578101433" lon="11.56832040362681"><ele>410.40000000000003</ele><time>2026-04-01T21:23:10.999Z</time></trkpt><trkpt lat="45.75725156854749" lon="11.568347032430543"><ele>408.8</ele><time>2026-04-01T21:23:11.999Z</time></trkpt><trkpt lat="45.75714764899097" lon="11.568397291828175"><ele>407.2</ele><time>2026-04-01T21:23:12.999Z</time></trkpt><trkpt lat="45.75706057678615" lon="11.568450354392183"><ele>405.6</ele><time>2026-04-01T21:23:13.999Z</time></trkpt><trkpt lat="45.75696640732335" lon="11.568521304478098"><ele>404.0</ele><time>2026-04-01T21:23:14.999Z</time></trkpt><trkpt lat="45.756878791848884" lon="11.568595222283744"><ele>403.79999999999995</ele><time>2026-04-01T21:23:15.999Z</time></trkpt><trkpt lat="45.75680258056712" lon="11.568680411109794"><ele>403.59999999999997</ele><time>2026-04-01T21:23:16.999Z</time></trkpt><trkpt lat="45.75671113799663" lon="11.56875636755524"><ele>403.4</ele><time>2026-04-01T21:23:17.999Z</time></trkpt><trkpt lat="45.75662802336255" lon="11.568830667653419"><ele>403.2</ele><time>2026-04-01T21:23:18.998Z</time></trkpt><trkpt lat="45.75654813396937" lon="11.568909375905692"><ele>403.0</ele><time>2026-04-01T21:23:19.998Z</time></trkpt><trkpt lat="45.75646222440362" lon="11.568964028655103"><ele>403.0</ele><time>2026-04-01T21:23:20.998Z</time></trkpt><trkpt lat="45.75636825270931" lon="11.569016159383178"><ele>403.0</ele><time>2026-04-01T21:23:21.998Z</time></trkpt><trkpt lat="45.756261333351674" lon="11.569058921065439"><ele>403.0</ele><time>2026-04-01T21:23:22.998Z</time></trkpt><trkpt lat="45.75615719943484" lon="11.56905363211566"><ele>403.0</ele><time>2026-04-01T21:23:23.998Z</time></trkpt><trkpt lat="45.756077160269726" lon="11.569017816220523"><ele>403.0</ele><time>2026-04-01T21:23:24.998Z</time></trkpt><trkpt lat="45.75598251037857" lon="11.5689506793924"><ele>403.2</ele><time>2026-04-01T21:23:25.998Z</time></trkpt><trkpt lat="45.755918631589246" lon="11.568872960845269"><ele>403.4</ele><time>2026-04-01T21:23:26.998Z</time></trkpt><trkpt lat="45.7558759085985" lon="11.568786042172214"><ele>403.59999999999997</ele><time>2026-04-01T21:23:27.998Z</time></trkpt><trkpt lat="45.75582195291057" lon="11.568682953200343"><ele>403.79999999999995</ele><time>2026-04-01T21:23:28.998Z</time></trkpt><trkpt lat="45.75574848629284" lon="11.568585672576752"><ele>404.0</ele><time>2026-04-01T21:23:29.998Z</time></trkpt><trkpt lat="45.75567596059304" lon="11.568434318311505"><ele>403.0</ele><time>2026-04-01T21:23:30.998Z</time></trkpt><trkpt lat="45.755587275198174" lon="11.56830051687224"><ele>402.0</ele><time>2026-04-01T21:23:31.998Z</time></trkpt><trkpt lat="45.755503761559396" lon="11.568176837381523"><ele>401.0</ele><time>2026-04-01T21:23:32.998Z</time></trkpt><trkpt lat="45.75542437214099" lon="11.56806484403295"><ele>400.0</ele><time>2026-04-01T21:23:33.998Z</time></trkpt><trkpt lat="45.75526369623606" lon="11.567820753302701"><ele>398.75</ele><time>2026-04-01T21:23:35.998Z</time></trkpt><trkpt lat="45.75518369209298" lon="11.567709852803388"><ele>397.5</ele><time>2026-04-01T21:23:37Z</time></trkpt><trkpt lat="45.755107269425174" lon="11.567590874279599"><ele>396.25</ele><time>2026-04-01T21:23:38Z</time></trkpt><trkpt lat="45.75501701868657" lon="11.567458245605335"><ele>395.0</ele><time>2026-04-01T21:23:39Z</time></trkpt><trkpt lat="45.75494047655278" lon="11.567334512538023"><ele>395.0</ele><time>2026-04-01T21:23:40Z</time></trkpt><trkpt lat="45.75487326669074" lon="11.567227342842413"><ele>395.0</ele><time>2026-04-01T21:23:41Z</time></trkpt><trkpt lat="45.75480635310925" lon="11.56713213681068"><ele>395.0</ele><time>2026-04-01T21:23:42Z</time></trkpt><trkpt lat="45.75476088993287" lon="11.567013232484417"><ele>395.0</ele><time>2026-04-01T21:23:43Z</time></trkpt><trkpt lat="45.7546858102266" lon="11.566937560203694"><ele>395.0</ele><time>2026-04-01T21:23:44Z</time></trkpt><trkpt lat="45.75460938670863" lon="11.566878021588362"><ele>395.16666666666663</ele><time>2026-04-01T21:23:45Z</time></trkpt><trkpt lat="45.754529608225404" lon="11.566867618597591"><ele>395.3333333333333</ele><time>2026-04-01T21:23:46Z</time></trkpt><trkpt lat="45.75444817773655" lon="11.566864940797869"><ele>395.5</ele><time>2026-04-01T21:23:47Z</time></trkpt><trkpt lat="45.75435145104465" lon="11.56687048373829"><ele>395.66666666666663</ele><time>2026-04-01T21:23:48Z</time></trkpt><trkpt lat="45.754276234682145" lon="11.56692848275735"><ele>395.8333333333333</ele><time>2026-04-01T21:23:49Z</time></trkpt><trkpt lat="45.75419926797095" lon="11.567004514471067"><ele>396.0</ele><time>2026-04-01T21:23:50Z</time></trkpt><trkpt lat="45.75411844070669" lon="11.567093541074554"><ele>396.0</ele><time>2026-04-01T21:23:51Z</time></trkpt><trkpt lat="45.75404495583096" lon="11.56720538927738"><ele>396.0</ele><time>2026-04-01T21:23:52Z</time></trkpt><trkpt lat="45.75396668338801" lon="11.567311896052981"><ele>396.0</ele><time>2026-04-01T21:23:53Z</time></trkpt><trkpt lat="45.753893376067204" lon="11.567437721687552"><ele>396.0</ele><time>2026-04-01T21:23:54Z</time></trkpt><trkpt lat="45.75381313708787" lon="11.567559115554626"><ele>396.0</ele><time>2026-04-01T21:23:55Z</time></trkpt><trkpt lat="45.75374774275108" lon="11.567667480000772"><ele>396.0</ele><time>2026-04-01T21:23:56Z</time></trkpt><trkpt lat="45.75368486016701" lon="11.567760208285788"><ele>396.0</ele><time>2026-04-01T21:23:57Z</time></trkpt><trkpt lat="45.753639952979285" lon="11.567842828731289"><ele>396.0</ele><time>2026-04-01T21:23:58Z</time></trkpt><trkpt lat="45.75359617230062" lon="11.5679291708281"><ele>396.0</ele><time>2026-04-01T21:23:59Z</time></trkpt><trkpt lat="45.75359739977055" lon="11.56805001633022"><ele>396.0</ele><time>2026-04-01T21:24:00Z</time></trkpt><trkpt lat="45.75358785974128" lon="11.568168678300417"><ele>396.0</ele><time>2026-04-01T21:24:01Z</time></trkpt><trkpt lat="45.753620281987544" lon="11.568284542984117"><ele>395.8</ele><time>2026-04-01T21:24:02Z</time></trkpt><trkpt lat="45.75366180059123" lon="11.568404022379434"><ele>395.6</ele><time>2026-04-01T21:24:03Z</time></trkpt><trkpt lat="45.75371925650681" lon="11.568517084174278"><ele>395.4</ele><time>2026-04-01T21:24:04Z</time></trkpt><trkpt lat="45.7537451137176" lon="11.568644210876181"><ele>395.2</ele><time>2026-04-01T21:24:05Z</time></trkpt><trkpt lat="45.753783235689916" lon="11.568764765128686"><ele>395.0</ele><time>2026-04-01T21:24:06Z</time></trkpt><trkpt lat="45.7538073037863" lon="11.568892369808847"><ele>395.0</ele><time>2026-04-01T21:24:07Z</time></trkpt><trkpt lat="45.75382595651477" lon="11.569027080336317"><ele>395.0</ele><time>2026-04-01T21:24:08Z</time></trkpt><trkpt lat="45.75384718695468" lon="11.569160597859575"><ele>395.0</ele><time>2026-04-01T21:24:09Z</time></trkpt><trkpt lat="45.753851461964935" lon="11.569289408249185"><ele>395.0</ele><time>2026-04-01T21:24:10Z</time></trkpt><trkpt lat="45.753850957595915" lon="11.569419156016584"><ele>395.0</ele><time>2026-04-01T21:24:11Z</time></trkpt><trkpt lat="45.753837069324256" lon="11.56953608666112"><ele>394.99999999999994</ele><time>2026-04-01T21:24:12Z</time></trkpt><trkpt lat="45.75380877239969" lon="11.569641084984607"><ele>395.0</ele><time>2026-04-01T21:24:13Z</time></trkpt><trkpt lat="45.75377068916893" lon="11.569738261912972"><ele>395.0</ele><time>2026-04-01T21:24:14Z</time></trkpt><trkpt lat="45.75371899839731" lon="11.56982720028275"><ele>395.0</ele><time>2026-04-01T21:24:15Z</time></trkpt><trkpt lat="45.753648437102896" lon="11.56990765556224"><ele>394.99999999999994</ele><time>2026-04-01T21:24:16Z</time></trkpt><trkpt lat="45.753558395652654" lon="11.569977900053212"><ele>395.0</ele><time>2026-04-01T21:24:17Z</time></trkpt><trkpt lat="45.75345584340565" lon="11.570042475063069"><ele>390.4</ele><time>2026-04-01T21:24:18Z</time></trkpt><trkpt lat="45.75336889567211" lon="11.57007024673792"><ele>385.8</ele><time>2026-04-01T21:24:19Z</time></trkpt><trkpt lat="45.7532617446557" lon="11.570111826382073"><ele>381.20000000000005</ele><time>2026-04-01T21:24:20Z</time></trkpt><trkpt lat="45.75316303170234" lon="11.570157908374272"><ele>376.6</ele><time>2026-04-01T21:24:21Z</time></trkpt><trkpt lat="45.7530804291382" lon="11.570230623134707"><ele>372.0</ele><time>2026-04-01T21:24:22Z</time></trkpt><trkpt lat="45.75299236042949" lon="11.570320061006912"><ele>371.0</ele><time>2026-04-01T21:24:23Z</time></trkpt><trkpt lat="45.75289658658594" lon="11.570412438526823"><ele>370.0</ele><time>2026-04-01T21:24:23.999Z</time></trkpt><trkpt lat="45.752801698198724" lon="11.570501820091293"><ele>369.0</ele><time>2026-04-01T21:24:24.999Z</time></trkpt><trkpt lat="45.75270602952298" lon="11.570592728308302"><ele>368.0</ele><time>2026-04-01T21:24:25.999Z</time></trkpt><trkpt lat="45.75261551671737" lon="11.570679721428835"><ele>368.0</ele><time>2026-04-01T21:24:26.999Z</time></trkpt><trkpt lat="45.7525267992357" lon="11.570768352851564"><ele>368.0</ele><time>2026-04-01T21:24:27.999Z</time></trkpt><trkpt lat="45.75245188950645" lon="11.570841902784508"><ele>368.0</ele><time>2026-04-01T21:24:28.999Z</time></trkpt><trkpt lat="45.75238463473508" lon="11.570925780971043"><ele>368.0</ele><time>2026-04-01T21:24:29.999Z</time></trkpt><trkpt lat="45.752332455185204" lon="11.571026613026959"><ele>368.0</ele><time>2026-04-01T21:24:30.999Z</time></trkpt><trkpt lat="45.75229720796392" lon="11.571151329817189"><ele>369.79999999999995</ele><time>2026-04-01T21:24:31.999Z</time></trkpt><trkpt lat="45.7522860037528" lon="11.571296125253923"><ele>371.6</ele><time>2026-04-01T21:24:32.999Z</time></trkpt><trkpt lat="45.752276337369736" lon="11.571445136204396"><ele>373.4</ele><time>2026-04-01T21:24:33.999Z</time></trkpt><trkpt lat="45.75226505102388" lon="11.571595930660136"><ele>375.20000000000005</ele><time>2026-04-01T21:24:34.999Z</time></trkpt><trkpt lat="45.7522540856589" lon="11.571757129572406"><ele>377.0</ele><time>2026-04-01T21:24:35.999Z</time></trkpt><trkpt lat="45.75223987676287" lon="11.571921820218721"><ele>376.5</ele><time>2026-04-01T21:24:36.999Z</time></trkpt><trkpt lat="45.75222459172983" lon="11.572082232840032"><ele>376.0</ele><time>2026-04-01T21:24:37.999Z</time></trkpt><trkpt lat="45.75221334673659" lon="11.572249908690013"><ele>375.5</ele><time>2026-04-01T21:24:38.999Z</time></trkpt><trkpt lat="45.75220174848531" lon="11.572417904435824"><ele>375.0</ele><time>2026-04-01T21:24:39.999Z</time></trkpt><trkpt lat="45.75218808353999" lon="11.57257700712557"><ele>375.0</ele><time>2026-04-01T21:24:40.999Z</time></trkpt><trkpt lat="45.75217518653924" lon="11.572742227878507"><ele>375.0</ele><time>2026-04-01T21:24:41.999Z</time></trkpt><trkpt lat="45.752168173277674" lon="11.572901239705512"><ele>375.0</ele><time>2026-04-01T21:24:42.999Z</time></trkpt><trkpt lat="45.752156444243205" lon="11.573062487891509"><ele>375.0</ele><time>2026-04-01T21:24:43.999Z</time></trkpt><trkpt lat="45.75214691915348" lon="11.57322218451239"><ele>373.6</ele><time>2026-04-01T21:24:44.999Z</time></trkpt><trkpt lat="45.75213667663695" lon="11.573386036421253"><ele>372.2</ele><time>2026-04-01T21:24:45.999Z</time></trkpt><trkpt lat="45.75212218666725" lon="11.573540542601865"><ele>370.79999999999995</ele><time>2026-04-01T21:24:46.999Z</time></trkpt><trkpt lat="45.75209136150529" lon="11.573675554372185"><ele>369.4</ele><time>2026-04-01T21:24:47.999Z</time></trkpt><trkpt lat="45.75203653164026" lon="11.573793152937636"><ele>368.0</ele><time>2026-04-01T21:24:48.999Z</time></trkpt><trkpt lat="45.75196961890378" lon="11.573884101083273"><ele>365.2</ele><time>2026-04-01T21:24:49.999Z</time></trkpt><trkpt lat="45.75188664824609" lon="11.573952721280149"><ele>362.4</ele><time>2026-04-01T21:24:50.999Z</time></trkpt><trkpt lat="45.75179616294767" lon="11.573992542682037"><ele>359.59999999999997</ele><time>2026-04-01T21:24:51.999Z</time></trkpt><trkpt lat="45.75168339465158" lon="11.574033464922795"><ele>356.79999999999995</ele><time>2026-04-01T21:24:52.999Z</time></trkpt><trkpt lat="45.75157313207041" lon="11.574074938394846"><ele>354.0</ele><time>2026-04-01T21:24:53.999Z</time></trkpt><trkpt lat="45.751468903703" lon="11.574115475698658"><ele>354.0</ele><time>2026-04-01T21:24:54.999Z</time></trkpt><trkpt lat="45.75136641691098" lon="11.574134034960187"><ele>354.0</ele><time>2026-04-01T21:24:55.999Z</time></trkpt><trkpt lat="45.75127214077941" lon="11.574161683963991"><ele>354.0</ele><time>2026-04-01T21:24:56.999Z</time></trkpt><trkpt lat="45.75118171517448" lon="11.574168064938084"><ele>354.0</ele><time>2026-04-01T21:24:57.999Z</time></trkpt><trkpt lat="45.75109067186246" lon="11.574115273773302"><ele>354.0</ele><time>2026-04-01T21:24:58.999Z</time></trkpt><trkpt lat="45.75101367664771" lon="11.574028702276216"><ele>353.6</ele><time>2026-04-01T21:24:59.999Z</time></trkpt><trkpt lat="45.75095155181012" lon="11.57392723503916"><ele>353.2</ele><time>2026-04-01T21:25:00.999Z</time></trkpt><trkpt lat="45.7509036639267" lon="11.573813181545523"><ele>352.8</ele><time>2026-04-01T21:25:01.999Z</time></trkpt><trkpt lat="45.75087997292462" lon="11.57368638172884"><ele>352.40000000000003</ele><time>2026-04-01T21:25:02.999Z</time></trkpt><trkpt lat="45.7508754460262" lon="11.573560563834622"><ele>352.0</ele><time>2026-04-01T21:25:03.999Z</time></trkpt><trkpt lat="45.750870843254056" lon="11.57343926030954"><ele>352.0</ele><time>2026-04-01T21:25:04.999Z</time></trkpt><trkpt lat="45.75085533706163" lon="11.573324302565409"><ele>352.0</ele><time>2026-04-01T21:25:05.999Z</time></trkpt><trkpt lat="45.750824753589384" lon="11.573215374793309"><ele>352.0</ele><time>2026-04-01T21:25:06.999Z</time></trkpt><trkpt lat="45.75077627916391" lon="11.573115830060184"><ele>352.0</ele><time>2026-04-01T21:25:07.999Z</time></trkpt><trkpt lat="45.75071355747477" lon="11.57303130011653"><ele>352.0</ele><time>2026-04-01T21:25:08.999Z</time></trkpt><trkpt lat="45.750638094645666" lon="11.572945593651655"><ele>352.0</ele><time>2026-04-01T21:25:09.999Z</time></trkpt><trkpt lat="45.75056601062931" lon="11.572867433256397"><ele>351.40000000000003</ele><time>2026-04-01T21:25:10.999Z</time></trkpt><trkpt lat="45.75049169019695" lon="11.572785298777116"><ele>350.8</ele><time>2026-04-01T21:25:11.999Z</time></trkpt><trkpt lat="45.75041196094062" lon="11.572696741489086"><ele>350.2</ele><time>2026-04-01T21:25:12.999Z</time></trkpt><trkpt lat="45.750335661216006" lon="11.572606996598848"><ele>349.6</ele><time>2026-04-01T21:25:13.999Z</time></trkpt><trkpt lat="45.750260663398244" lon="11.572516942162308"><ele>349.0</ele><time>2026-04-01T21:25:14.999Z</time></trkpt><trkpt lat="45.750187361423436" lon="11.57243589433292"><ele>349.0</ele><time>2026-04-01T21:25:15.999Z</time></trkpt><trkpt lat="45.75011810395844" lon="11.572360809646584"><ele>349.0</ele><time>2026-04-01T21:25:16.999Z</time></trkpt><trkpt lat="45.75005006636575" lon="11.572292365706609"><ele>349.0</ele><time>2026-04-01T21:25:17.999Z</time></trkpt><trkpt lat="45.749969072636674" lon="11.57225248137275"><ele>349.0</ele><time>2026-04-01T21:25:18.999Z</time></trkpt><trkpt lat="45.749883083215806" lon="11.572250755906898"><ele>349.0</ele><time>2026-04-01T21:25:19.999Z</time></trkpt><trkpt lat="45.74979986911155" lon="11.572269528618198"><ele>349.0</ele><time>2026-04-01T21:25:20.999Z</time></trkpt><trkpt lat="45.74972255645571" lon="11.572316278704971"><ele>349.0</ele><time>2026-04-01T21:25:21.999Z</time></trkpt><trkpt lat="45.749648603911126" lon="11.572394462827518"><ele>349.0</ele><time>2026-04-01T21:25:22.999Z</time></trkpt><trkpt lat="45.7495814555195" lon="11.572478360066786"><ele>349.0</ele><time>2026-04-01T21:25:23.999Z</time></trkpt><trkpt lat="45.74952831988302" lon="11.572585711722184"><ele>349.0</ele><time>2026-04-01T21:25:24.998Z</time></trkpt><trkpt lat="45.74948635109421" lon="11.572707203912419"><ele>349.0</ele><time>2026-04-01T21:25:25.998Z</time></trkpt><trkpt lat="45.74945771865618" lon="11.57283682650399"><ele>349.79999999999995</ele><time>2026-04-01T21:25:26.998Z</time></trkpt><trkpt lat="45.74943774130934" lon="11.572969313997007"><ele>350.59999999999997</ele><time>2026-04-01T21:25:27.998Z</time></trkpt><trkpt lat="45.74942653170625" lon="11.573103713079131"><ele>351.4</ele><time>2026-04-01T21:25:28.998Z</time></trkpt><trkpt lat="45.74940818111758" lon="11.573239196997832"><ele>352.2</ele><time>2026-04-01T21:25:29.998Z</time></trkpt><trkpt lat="45.74939193157275" lon="11.573377358657886"><ele>353.0</ele><time>2026-04-01T21:25:30.998Z</time></trkpt><trkpt lat="45.749369600396115" lon="11.573513458650947"><ele>350.0</ele><time>2026-04-01T21:25:31.998Z</time></trkpt><trkpt lat="45.74934495829154" lon="11.573649070675584"><ele>347.0</ele><time>2026-04-01T21:25:32.998Z</time></trkpt><trkpt lat="45.749292434047014" lon="11.573773138119401"><ele>344.0</ele><time>2026-04-01T21:25:33.998Z</time></trkpt><trkpt lat="45.74924896822319" lon="11.573899221865164"><ele>341.0</ele><time>2026-04-01T21:25:34.998Z</time></trkpt><trkpt lat="45.749200579296755" lon="11.574026691944582"><ele>338.0</ele><time>2026-04-01T21:25:35.998Z</time></trkpt><trkpt lat="45.749149433078586" lon="11.57415251863242"><ele>337.79999999999995</ele><time>2026-04-01T21:25:36.998Z</time></trkpt><trkpt lat="45.74908132950216" lon="11.57428024847107"><ele>337.6</ele><time>2026-04-01T21:25:37.998Z</time></trkpt><trkpt lat="45.74900783666334" lon="11.574370782147813"><ele>337.4</ele><time>2026-04-01T21:25:38.998Z</time></trkpt><trkpt lat="45.74892135327959" lon="11.574441125336886"><ele>337.20000000000005</ele><time>2026-04-01T21:25:39.998Z</time></trkpt><trkpt lat="45.748818808745" lon="11.574433227254293"><ele>337.0</ele><time>2026-04-01T21:25:40.998Z</time></trkpt><trkpt lat="45.748720651078806" lon="11.574406589666955"><ele>337.0</ele><time>2026-04-01T21:25:41.998Z</time></trkpt><trkpt lat="45.748631845486734" lon="11.574343050326238"><ele>337.0</ele><time>2026-04-01T21:25:43Z</time></trkpt><trkpt lat="45.74853683575534" lon="11.574281117243157"><ele>337.0</ele><time>2026-04-01T21:25:44Z</time></trkpt><trkpt lat="45.7484494533967" lon="11.574192787266945"><ele>337.0</ele><time>2026-04-01T21:25:45Z</time></trkpt><trkpt lat="45.74836475597653" lon="11.57410782136632"><ele>337.0</ele><time>2026-04-01T21:25:46Z</time></trkpt><trkpt lat="45.74827829368728" lon="11.574035533207745"><ele>334.8</ele><time>2026-04-01T21:25:47Z</time></trkpt><trkpt lat="45.74818471541043" lon="11.573970323730867"><ele>332.6</ele><time>2026-04-01T21:25:48Z</time></trkpt><trkpt lat="45.748086671862815" lon="11.573908975775437"><ele>330.40000000000003</ele><time>2026-04-01T21:25:49Z</time></trkpt><trkpt lat="45.747985518399325" lon="11.573895129451218"><ele>328.20000000000005</ele><time>2026-04-01T21:25:50Z</time></trkpt><trkpt lat="45.7478786920962" lon="11.573889392373244"><ele>326.0</ele><time>2026-04-01T21:25:51Z</time></trkpt><trkpt lat="45.747770445666866" lon="11.573883206340515"><ele>325.0</ele><time>2026-04-01T21:25:52Z</time></trkpt><trkpt lat="45.74765694060372" lon="11.573888683548232"><ele>324.0</ele><time>2026-04-01T21:25:53Z</time></trkpt><trkpt lat="45.74754307390686" lon="11.57389168600877"><ele>323.0</ele><time>2026-04-01T21:25:54Z</time></trkpt><trkpt lat="45.747427931177455" lon="11.573891506613215"><ele>322.0</ele><time>2026-04-01T21:25:55Z</time></trkpt><trkpt lat="45.74730968145873" lon="11.573892105528337"><ele>322.0</ele><time>2026-04-01T21:25:56Z</time></trkpt><trkpt lat="45.74719472019431" lon="11.573894811111057"><ele>322.0</ele><time>2026-04-01T21:25:57Z</time></trkpt><trkpt lat="45.74707992468647" lon="11.573893027260237"><ele>322.0</ele><time>2026-04-01T21:25:58Z</time></trkpt><trkpt lat="45.746964957485005" lon="11.573890007518882"><ele>322.0</ele><time>2026-04-01T21:25:59Z</time></trkpt><trkpt lat="45.746848766106915" lon="11.573879629032275"><ele>320.75</ele><time>2026-04-01T21:26:00Z</time></trkpt><trkpt lat="45.74673254204282" lon="11.573853622551663"><ele>319.5</ele><time>2026-04-01T21:26:01Z</time></trkpt><trkpt lat="45.7466183303221" lon="11.573812648662129"><ele>318.25</ele><time>2026-04-01T21:26:02Z</time></trkpt><trkpt lat="45.74650631268806" lon="11.573757705182754"><ele>317.0</ele><time>2026-04-01T21:26:03Z</time></trkpt><trkpt lat="45.74640349012736" lon="11.573681040770671"><ele>314.8</ele><time>2026-04-01T21:26:04Z</time></trkpt><trkpt lat="45.74631406390208" lon="11.573576703196212"><ele>312.6</ele><time>2026-04-01T21:26:05Z</time></trkpt><trkpt lat="45.74623734381991" lon="11.573454568898429"><ele>310.40000000000003</ele><time>2026-04-01T21:26:06Z</time></trkpt><trkpt lat="45.74618495011266" lon="11.57331430559241"><ele>308.2</ele><time>2026-04-01T21:26:07Z</time></trkpt><trkpt lat="45.746111620960775" lon="11.573218193311986"><ele>306.0</ele><time>2026-04-01T21:26:08Z</time></trkpt><trkpt lat="45.74604721179674" lon="11.573119929869113"><ele>305.8333333333333</ele><time>2026-04-01T21:26:09Z</time></trkpt><trkpt lat="45.7459691847946" lon="11.573047371330224"><ele>305.6666666666667</ele><time>2026-04-01T21:26:10Z</time></trkpt><trkpt lat="45.7458751444156" lon="11.573014216255478"><ele>305.5</ele><time>2026-04-01T21:26:11Z</time></trkpt><trkpt lat="45.7457972777339" lon="11.57300213460553"><ele>305.33333333333337</ele><time>2026-04-01T21:26:12Z</time></trkpt><trkpt lat="45.74572511027858" lon="11.573025695284565"><ele>305.1666666666667</ele><time>2026-04-01T21:26:13Z</time></trkpt><trkpt lat="45.745665125013005" lon="11.573075162873586"><ele>305.0</ele><time>2026-04-01T21:26:14Z</time></trkpt><trkpt lat="45.74560957798821" lon="11.573143323647018"><ele>305.0</ele><time>2026-04-01T21:26:15Z</time></trkpt><trkpt lat="45.74556337944716" lon="11.573233292754885"><ele>305.0</ele><time>2026-04-01T21:26:16Z</time></trkpt><trkpt lat="45.74553320555537" lon="11.573340067141736"><ele>305.0</ele><time>2026-04-01T21:26:17Z</time></trkpt><trkpt lat="45.745516584628916" lon="11.57346401701613"><ele>305.0</ele><time>2026-04-01T21:26:18Z</time></trkpt><trkpt lat="45.745502104886064" lon="11.573585656302727"><ele>305.0</ele><time>2026-04-01T21:26:19Z</time></trkpt><trkpt lat="45.74548608550867" lon="11.573713715666106"><ele>305.0</ele><time>2026-04-01T21:26:19.999Z</time></trkpt><trkpt lat="45.74546829130459" lon="11.573850591114232"><ele>305.6</ele><time>2026-04-01T21:26:20.999Z</time></trkpt><trkpt lat="45.7454486638959" lon="11.573998480894485"><ele>306.2</ele><time>2026-04-01T21:26:21.999Z</time></trkpt><trkpt lat="45.74542541087883" lon="11.574152021070004"><ele>306.8</ele><time>2026-04-01T21:26:22.999Z</time></trkpt><trkpt lat="45.745405147916465" lon="11.574316970662816"><ele>307.4</ele><time>2026-04-01T21:26:23.999Z</time></trkpt><trkpt lat="45.74538519427483" lon="11.574481570446908"><ele>308.0</ele><time>2026-04-01T21:26:24.999Z</time></trkpt><trkpt lat="45.74536284327147" lon="11.574648935119843"><ele>308.0</ele><time>2026-04-01T21:26:25.999Z</time></trkpt><trkpt lat="45.74534061693506" lon="11.57481927935052"><ele>308.0</ele><time>2026-04-01T21:26:26.999Z</time></trkpt><trkpt lat="45.74531479627164" lon="11.574990750427466"><ele>308.0</ele><time>2026-04-01T21:26:27.999Z</time></trkpt><trkpt lat="45.745287632233946" lon="11.575160286691185"><ele>308.0</ele><time>2026-04-01T21:26:28.999Z</time></trkpt><trkpt lat="45.74524798948641" lon="11.575327602498321"><ele>304.25</ele><time>2026-04-01T21:26:29.999Z</time></trkpt><trkpt lat="45.74519761409101" lon="11.575491133285029"><ele>300.5</ele><time>2026-04-01T21:26:30.999Z</time></trkpt><trkpt lat="45.745140022133455" lon="11.575647799085807"><ele>296.75</ele><time>2026-04-01T21:26:31.999Z</time></trkpt><trkpt lat="45.74507770423508" lon="11.575800915468434"><ele>293.0</ele><time>2026-04-01T21:26:32.999Z</time></trkpt><trkpt lat="45.74501626034256" lon="11.575955090265213"><ele>293.0</ele><time>2026-04-01T21:26:33.999Z</time></trkpt><trkpt lat="45.74496173337962" lon="11.576115095323155"><ele>293.0</ele><time>2026-04-01T21:26:34.999Z</time></trkpt><trkpt lat="45.74491303879411" lon="11.576279764131996"><ele>293.0</ele><time>2026-04-01T21:26:35.999Z</time></trkpt><trkpt lat="45.744864767223845" lon="11.576447779706637"><ele>293.0</ele><time>2026-04-01T21:26:36.999Z</time></trkpt><trkpt lat="45.744825448341174" lon="11.576621604487501"><ele>293.25</ele><time>2026-04-01T21:26:37.999Z</time></trkpt><trkpt lat="45.74479386646635" lon="11.576800165281572"><ele>293.5</ele><time>2026-04-01T21:26:38.999Z</time></trkpt><trkpt lat="45.74476435060889" lon="11.576977167610126"><ele>293.75</ele><time>2026-04-01T21:26:39.999Z</time></trkpt><trkpt lat="45.74473973229398" lon="11.577156265916141"><ele>294.0</ele><time>2026-04-01T21:26:40.999Z</time></trkpt><trkpt lat="45.74470753183279" lon="11.577325866389987"><ele>294.0</ele><time>2026-04-01T21:26:41.999Z</time></trkpt><trkpt lat="45.74467986676285" lon="11.577488971121868"><ele>294.0</ele><time>2026-04-01T21:26:42.999Z</time></trkpt><trkpt lat="45.74464753406127" lon="11.577643797893678"><ele>294.0</ele><time>2026-04-01T21:26:43.999Z</time></trkpt><trkpt lat="45.74461688799706" lon="11.577787012211886"><ele>294.0</ele><time>2026-04-01T21:26:44.999Z</time></trkpt><trkpt lat="45.74456677588782" lon="11.577909957558775"><ele>294.0</ele><time>2026-04-01T21:26:45.999Z</time></trkpt><trkpt lat="45.74450976197161" lon="11.578020166137096"><ele>294.0</ele><time>2026-04-01T21:26:46.999Z</time></trkpt><trkpt lat="45.744429333607" lon="11.57810237126782"><ele>294.0</ele><time>2026-04-01T21:26:47.999Z</time></trkpt><trkpt lat="45.74433509831888" lon="11.578169761424423"><ele>294.0</ele><time>2026-04-01T21:26:48.999Z</time></trkpt><trkpt lat="45.74423665167393" lon="11.578233682196158"><ele>294.0</ele><time>2026-04-01T21:26:49.999Z</time></trkpt><trkpt lat="45.744132658432385" lon="11.578294786723992"><ele>294.0</ele><time>2026-04-01T21:26:50.999Z</time></trkpt><trkpt lat="45.74402245994869" lon="11.578359898205392"><ele>294.25</ele><time>2026-04-01T21:26:51.999Z</time></trkpt><trkpt lat="45.74391383735424" lon="11.578428120542618"><ele>294.5</ele><time>2026-04-01T21:26:52.999Z</time></trkpt><trkpt lat="45.743808423557475" lon="11.57849037959429"><ele>294.75</ele><time>2026-04-01T21:26:53.999Z</time></trkpt><trkpt lat="45.74370519013719" lon="11.578552606205198"><ele>295.0</ele><time>2026-04-01T21:26:54.999Z</time></trkpt><trkpt lat="45.743601960588045" lon="11.578617742633986"><ele>294.0</ele><time>2026-04-01T21:26:55.999Z</time></trkpt><trkpt lat="45.74350220827834" lon="11.57868256196574"><ele>293.0</ele><time>2026-04-01T21:26:56.999Z</time></trkpt><trkpt lat="45.74340676503263" lon="11.578764238555943"><ele>292.0</ele><time>2026-04-01T21:26:57.999Z</time></trkpt><trkpt lat="45.743317586114266" lon="11.578861181839262"><ele>291.0</ele><time>2026-04-01T21:26:58.999Z</time></trkpt><trkpt lat="45.743240949106124" lon="11.578986061796256"><ele>290.0</ele><time>2026-04-01T21:26:59.999Z</time></trkpt><trkpt lat="45.743181596609595" lon="11.579131409947268"><ele>290.0</ele><time>2026-04-01T21:27:00.999Z</time></trkpt><trkpt lat="45.74312374252405" lon="11.57927701302581"><ele>290.0</ele><time>2026-04-01T21:27:01.999Z</time></trkpt><trkpt lat="45.74306125642994" lon="11.57941330239415"><ele>290.0</ele><time>2026-04-01T21:27:02.999Z</time></trkpt><trkpt lat="45.742989112756185" lon="11.57954103807029"><ele>290.0</ele><time>2026-04-01T21:27:03.999Z</time></trkpt><trkpt lat="45.7429055717154" lon="11.579655039011499"><ele>289.75</ele><time>2026-04-01T21:27:04.999Z</time></trkpt><trkpt lat="45.74281546078743" lon="11.579751550187705"><ele>289.5</ele><time>2026-04-01T21:27:05.999Z</time></trkpt><trkpt lat="45.74272033604235" lon="11.579835936314442"><ele>289.25</ele><time>2026-04-01T21:27:06.999Z</time></trkpt><trkpt lat="45.74261756903408" lon="11.579901995411511"><ele>289.0</ele><time>2026-04-01T21:27:07.999Z</time></trkpt><trkpt lat="45.74250599986506" lon="11.57995246580002"><ele>289.0</ele><time>2026-04-01T21:27:08.999Z</time></trkpt><trkpt lat="45.74239301478184" lon="11.57997702672534"><ele>289.0</ele><time>2026-04-01T21:27:09.999Z</time></trkpt><trkpt lat="45.74228042301522" lon="11.579944673258272"><ele>289.0</ele><time>2026-04-01T21:27:10.999Z</time></trkpt><trkpt lat="45.74217345780829" lon="11.579915662139738"><ele>289.0</ele><time>2026-04-01T21:27:11.999Z</time></trkpt><trkpt lat="45.74206506900823" lon="11.57988964391304"><ele>289.0</ele><time>2026-04-01T21:27:12.999Z</time></trkpt><trkpt lat="45.741954561645585" lon="11.579850653725671"><ele>287.75</ele><time>2026-04-01T21:27:13.999Z</time></trkpt><trkpt lat="45.741843659207014" lon="11.57981819971529"><ele>286.5</ele><time>2026-04-01T21:27:14.999Z</time></trkpt><trkpt lat="45.74172617836745" lon="11.579805362758316"><ele>285.25</ele><time>2026-04-01T21:27:15.999Z</time></trkpt><trkpt lat="45.741608282188366" lon="11.579819100490248"><ele>284.0</ele><time>2026-04-01T21:27:16.999Z</time></trkpt><trkpt lat="45.74148782400814" lon="11.57985499619385"><ele>284.0</ele><time>2026-04-01T21:27:17.999Z</time></trkpt><trkpt lat="45.74136747122834" lon="11.579896969504269"><ele>284.0</ele><time>2026-04-01T21:27:18.999Z</time></trkpt><trkpt lat="45.74124915000911" lon="11.57994312665643"><ele>284.0</ele><time>2026-04-01T21:27:19.999Z</time></trkpt><trkpt lat="45.741136474154246" lon="11.57999008117347"><ele>284.0</ele><time>2026-04-01T21:27:20.999Z</time></trkpt><trkpt lat="45.74102172814137" lon="11.580043296141168"><ele>285.0</ele><time>2026-04-01T21:27:21.999Z</time></trkpt><trkpt lat="45.74090734710406" lon="11.580097876205368"><ele>286.0</ele><time>2026-04-01T21:27:22.999Z</time></trkpt><trkpt lat="45.74079235051874" lon="11.580159815820696"><ele>287.0</ele><time>2026-04-01T21:27:23.999Z</time></trkpt><trkpt lat="45.74068011966352" lon="11.580229938642097"><ele>288.0</ele><time>2026-04-01T21:27:24.999Z</time></trkpt><trkpt lat="45.74056949152401" lon="11.580304026926957"><ele>289.25</ele><time>2026-04-01T21:27:25.999Z</time></trkpt><trkpt lat="45.74046071375041" lon="11.580377727820249"><ele>290.5</ele><time>2026-04-01T21:27:26.999Z</time></trkpt><trkpt lat="45.740355967486124" lon="11.580447731638948"><ele>291.75</ele><time>2026-04-01T21:27:27.999Z</time></trkpt><trkpt lat="45.740254074245776" lon="11.580527529663492"><ele>293.0</ele><time>2026-04-01T21:27:28.998Z</time></trkpt><trkpt lat="45.74016440998438" lon="11.58062898166349"><ele>293.0</ele><time>2026-04-01T21:27:29.998Z</time></trkpt><trkpt lat="45.74008485145224" lon="11.580750274698833"><ele>293.0</ele><time>2026-04-01T21:27:30.998Z</time></trkpt><trkpt lat="45.740025149905584" lon="11.580885791052967"><ele>293.0</ele><time>2026-04-01T21:27:31.998Z</time></trkpt><trkpt lat="45.739981052974215" lon="11.581018212870754"><ele>293.0</ele><time>2026-04-01T21:27:32.998Z</time></trkpt><trkpt lat="45.73993875737261" lon="11.581136503359687"><ele>293.0</ele><time>2026-04-01T21:27:33.998Z</time></trkpt><trkpt lat="45.73989528161009" lon="11.581243745233909"><ele>291.0</ele><time>2026-04-01T21:27:34.998Z</time></trkpt><trkpt lat="45.739836963176096" lon="11.581334416996832"><ele>289.0</ele><time>2026-04-01T21:27:35.998Z</time></trkpt><trkpt lat="45.73976269591068" lon="11.581411831309689"><ele>287.0</ele><time>2026-04-01T21:27:36.998Z</time></trkpt><trkpt lat="45.73967911895761" lon="11.581475280506597"><ele>285.0</ele><time>2026-04-01T21:27:37.998Z</time></trkpt><trkpt lat="45.73959204859436" lon="11.581532772996754"><ele>283.0</ele><time>2026-04-01T21:27:38.998Z</time></trkpt><trkpt lat="45.739506426838304" lon="11.58160975970766"><ele>283.0</ele><time>2026-04-01T21:27:39.998Z</time></trkpt><trkpt lat="45.73942720785601" lon="11.581713826717028"><ele>283.0</ele><time>2026-04-01T21:27:40.998Z</time></trkpt><trkpt lat="45.739355134810154" lon="11.581839504332255"><ele>283.0</ele><time>2026-04-01T21:27:41.998Z</time></trkpt><trkpt lat="45.73929534714971" lon="11.581965693313098"><ele>283.0</ele><time>2026-04-01T21:27:42.998Z</time></trkpt><trkpt lat="45.73923991086789" lon="11.582093797230513"><ele>283.0</ele><time>2026-04-01T21:27:43.998Z</time></trkpt><trkpt lat="45.7391842460385" lon="11.582221872876715"><ele>285.4</ele><time>2026-04-01T21:27:44.998Z</time></trkpt><trkpt lat="45.73911348564022" lon="11.582330667479152"><ele>287.8</ele><time>2026-04-01T21:27:45.998Z</time></trkpt><trkpt lat="45.73902607544537" lon="11.582412483473101"><ele>290.2</ele><time>2026-04-01T21:27:46.998Z</time></trkpt><trkpt lat="45.73892671724356" lon="11.582466522529133"><ele>292.6</ele><time>2026-04-01T21:27:47.998Z</time></trkpt><trkpt lat="45.738817534007" lon="11.58246783321397"><ele>295.0</ele><time>2026-04-01T21:27:49Z</time></trkpt><trkpt lat="45.73871558720132" lon="11.582475330287"><ele>295.0</ele><time>2026-04-01T21:27:50Z</time></trkpt><trkpt lat="45.738610093553994" lon="11.58245233163689"><ele>295.0</ele><time>2026-04-01T21:27:51Z</time></trkpt><trkpt lat="45.73850416062401" lon="11.582401736663984"><ele>295.0</ele><time>2026-04-01T21:27:52Z</time></trkpt><trkpt lat="45.738391477169664" lon="11.582374974214137"><ele>295.0</ele><time>2026-04-01T21:27:53Z</time></trkpt><trkpt lat="45.738282449617756" lon="11.582326506705613"><ele>295.0</ele><time>2026-04-01T21:27:54Z</time></trkpt><trkpt lat="45.73816368940297" lon="11.582291735411117"><ele>295.0</ele><time>2026-04-01T21:27:55Z</time></trkpt><trkpt lat="45.738038150252265" lon="11.58227688272864"><ele>295.0</ele><time>2026-04-01T21:27:56Z</time></trkpt><trkpt lat="45.73791695065061" lon="11.582266988439658"><ele>295.0</ele><time>2026-04-01T21:27:57Z</time></trkpt><trkpt lat="45.73779749837374" lon="11.582269646080121"><ele>295.0</ele><time>2026-04-01T21:27:58Z</time></trkpt><trkpt lat="45.737680794607016" lon="11.58228202733833"><ele>295.0</ele><time>2026-04-01T21:27:59Z</time></trkpt><trkpt lat="45.73756046680473" lon="11.582306691334656"><ele>295.0</ele><time>2026-04-01T21:28:00Z</time></trkpt><trkpt lat="45.73744241895084" lon="11.582342231990397"><ele>295.0</ele><time>2026-04-01T21:28:01Z</time></trkpt><trkpt lat="45.7373257541724" lon="11.582373350467254"><ele>295.0</ele><time>2026-04-01T21:28:02Z</time></trkpt><trkpt lat="45.73720796076801" lon="11.582399455111142"><ele>295.0</ele><time>2026-04-01T21:28:03Z</time></trkpt><trkpt lat="45.737095272008524" lon="11.582413526600703"><ele>295.0</ele><time>2026-04-01T21:28:04Z</time></trkpt><trkpt lat="45.73697884401108" lon="11.582416192525116"><ele>295.0</ele><time>2026-04-01T21:28:05Z</time></trkpt><trkpt lat="45.7368621925814" lon="11.582387431937521"><ele>295.0</ele><time>2026-04-01T21:28:06Z</time></trkpt><trkpt lat="45.73675063743962" lon="11.582336536914223"><ele>294.5</ele><time>2026-04-01T21:28:07Z</time></trkpt><trkpt lat="45.73664215013669" lon="11.58227159654295"><ele>294.0</ele><time>2026-04-01T21:28:08Z</time></trkpt><trkpt lat="45.73653447340184" lon="11.582202057898133"><ele>293.5</ele><time>2026-04-01T21:28:09Z</time></trkpt><trkpt lat="45.73642699689699" lon="11.58213282727807"><ele>293.0</ele><time>2026-04-01T21:28:10Z</time></trkpt><trkpt lat="45.736324927946335" lon="11.582088711802001"><ele>293.0</ele><time>2026-04-01T21:28:11Z</time></trkpt><trkpt lat="45.73621808631257" lon="11.582070218269912"><ele>293.0</ele><time>2026-04-01T21:28:12Z</time></trkpt><trkpt lat="45.73610856030239" lon="11.582079214255856"><ele>293.0</ele><time>2026-04-01T21:28:13Z</time></trkpt><trkpt lat="45.7359978142838" lon="11.582112932985119"><ele>293.0</ele><time>2026-04-01T21:28:14Z</time></trkpt><trkpt lat="45.73588977750032" lon="11.58218389456457"><ele>293.0</ele><time>2026-04-01T21:28:15Z</time></trkpt><trkpt lat="45.73578268426329" lon="11.582263256033173"><ele>293.5</ele><time>2026-04-01T21:28:16Z</time></trkpt><trkpt lat="45.7356727840644" lon="11.582333660466578"><ele>294.0</ele><time>2026-04-01T21:28:17Z</time></trkpt><trkpt lat="45.73556065864449" lon="11.582408273071295"><ele>294.5</ele><time>2026-04-01T21:28:18Z</time></trkpt><trkpt lat="45.73544801693876" lon="11.582485086939231"><ele>295.0</ele><time>2026-04-01T21:28:19Z</time></trkpt><trkpt lat="45.7353327224777" lon="11.582564001563256"><ele>294.25</ele><time>2026-04-01T21:28:20Z</time></trkpt><trkpt lat="45.73521932830179" lon="11.582645447534695"><ele>293.5</ele><time>2026-04-01T21:28:21Z</time></trkpt><trkpt lat="45.73510581002881" lon="11.582731303129304"><ele>292.75</ele><time>2026-04-01T21:28:22Z</time></trkpt><trkpt lat="45.734996982773524" lon="11.582817615961902"><ele>292.0</ele><time>2026-04-01T21:28:23Z</time></trkpt><trkpt lat="45.73488888858928" lon="11.582896607963567"><ele>291.5</ele><time>2026-04-01T21:28:24Z</time></trkpt><trkpt lat="45.734781739319324" lon="11.58298176237514"><ele>291.0</ele><time>2026-04-01T21:28:25Z</time></trkpt><trkpt lat="45.734674227914546" lon="11.583063730053897"><ele>290.5</ele><time>2026-04-01T21:28:26Z</time></trkpt><trkpt lat="45.734566312086976" lon="11.583138793650946"><ele>290.0</ele><time>2026-04-01T21:28:27Z</time></trkpt><trkpt lat="45.734452130046805" lon="11.583199840871753"><ele>289.0</ele><time>2026-04-01T21:28:27.999Z</time></trkpt><trkpt lat="45.73433042650524" lon="11.583241292913513"><ele>288.0</ele><time>2026-04-01T21:28:28.999Z</time></trkpt><trkpt lat="45.734208050106055" lon="11.58326589609632"><ele>287.0</ele><time>2026-04-01T21:28:29.999Z</time></trkpt><trkpt lat="45.734084073422736" lon="11.583272646201541"><ele>286.0</ele><time>2026-04-01T21:28:30.999Z</time></trkpt><trkpt lat="45.73395999674224" lon="11.583253689359378"><ele>286.0</ele><time>2026-04-01T21:28:31.999Z</time></trkpt><trkpt lat="45.733837503502514" lon="11.583215031593564"><ele>286.0</ele><time>2026-04-01T21:28:32.999Z</time></trkpt><trkpt lat="45.73371070530567" lon="11.583168511673568"><ele>286.0</ele><time>2026-04-01T21:28:33.999Z</time></trkpt><trkpt lat="45.73358460895374" lon="11.58312328852093"><ele>286.0</ele><time>2026-04-01T21:28:34.999Z</time></trkpt><trkpt lat="45.733455013279574" lon="11.583075705219573"><ele>286.0</ele><time>2026-04-01T21:28:35.999Z</time></trkpt><trkpt lat="45.73332411996807" lon="11.58302250838674"><ele>286.0</ele><time>2026-04-01T21:28:36.999Z</time></trkpt><trkpt lat="45.733189433204025" lon="11.58297279935346"><ele>286.0</ele><time>2026-04-01T21:28:37.999Z</time></trkpt><trkpt lat="45.73305089000156" lon="11.582915172111711"><ele>286.0</ele><time>2026-04-01T21:28:38.999Z</time></trkpt><trkpt lat="45.73291240616132" lon="11.582859403607323"><ele>286.0</ele><time>2026-04-01T21:28:39.999Z</time></trkpt><trkpt lat="45.73277113503455" lon="11.582808715157338"><ele>286.0</ele><time>2026-04-01T21:28:40.999Z</time></trkpt><trkpt lat="45.732629774219355" lon="11.582760761694729"><ele>286.0</ele><time>2026-04-01T21:28:41.999Z</time></trkpt><trkpt lat="45.73249827338822" lon="11.582714883385908"><ele>286.0</ele><time>2026-04-01T21:28:42.999Z</time></trkpt><trkpt lat="45.73235806949576" lon="11.58266922183548"><ele>286.0</ele><time>2026-04-01T21:28:43.999Z</time></trkpt><trkpt lat="45.732236232072914" lon="11.582624527908816"><ele>286.0</ele><time>2026-04-01T21:28:44.999Z</time></trkpt><trkpt lat="45.73211290587407" lon="11.582588702174727"><ele>286.0</ele><time>2026-04-01T21:28:45.999Z</time></trkpt><trkpt lat="45.731973371333254" lon="11.582521242242787"><ele>286.0</ele><time>2026-04-01T21:28:46.999Z</time></trkpt><trkpt lat="45.731866123254775" lon="11.582544155505126"><ele>286.6</ele><time>2026-04-01T21:28:47.999Z</time></trkpt><trkpt lat="45.73175668967253" lon="11.582543156475884"><ele>287.20000000000005</ele><time>2026-04-01T21:28:48.999Z</time></trkpt><trkpt lat="45.731658886114715" lon="11.582564712378565"><ele>287.79999999999995</ele><time>2026-04-01T21:28:49.999Z</time></trkpt><trkpt lat="45.731572137490936" lon="11.582611379515896"><ele>288.4</ele><time>2026-04-01T21:28:50.999Z</time></trkpt><trkpt lat="45.73149174982976" lon="11.582690693439735"><ele>289.0</ele><time>2026-04-01T21:28:51.999Z</time></trkpt><trkpt lat="45.731413834336585" lon="11.582780109538167"><ele>288.8</ele><time>2026-04-01T21:28:52.999Z</time></trkpt><trkpt lat="45.731341254001315" lon="11.582884716324783"><ele>288.59999999999997</ele><time>2026-04-01T21:28:53.999Z</time></trkpt><trkpt lat="45.73127229454339" lon="11.583000722320048"><ele>288.4</ele><time>2026-04-01T21:28:54.999Z</time></trkpt><trkpt lat="45.73120497687644" lon="11.583108663476008"><ele>288.2</ele><time>2026-04-01T21:28:55.999Z</time></trkpt><trkpt lat="45.731132487724636" lon="11.58322018752002"><ele>288.0</ele><time>2026-04-01T21:28:56.999Z</time></trkpt><trkpt lat="45.73105558298798" lon="11.58333030491736"><ele>288.0</ele><time>2026-04-01T21:28:57.999Z</time></trkpt><trkpt lat="45.73097696126026" lon="11.583446258291643"><ele>288.0</ele><time>2026-04-01T21:28:58.999Z</time></trkpt><trkpt lat="45.73089511862434" lon="11.58355499172454"><ele>288.0</ele><time>2026-04-01T21:28:59.999Z</time></trkpt><trkpt lat="45.7308116220921" lon="11.58365403671357"><ele>288.0</ele><time>2026-04-01T21:29:00.999Z</time></trkpt><trkpt lat="45.73072484759776" lon="11.583746050048008"><ele>288.0</ele><time>2026-04-01T21:29:01.999Z</time></trkpt><trkpt lat="45.73062955586782" lon="11.583821944887003"><ele>287.6</ele><time>2026-04-01T21:29:02.999Z</time></trkpt><trkpt lat="45.73052915757214" lon="11.583889278500344"><ele>287.20000000000005</ele><time>2026-04-01T21:29:03.999Z</time></trkpt><trkpt lat="45.73043035556718" lon="11.583934180329132"><ele>286.8</ele><time>2026-04-01T21:29:04.999Z</time></trkpt><trkpt lat="45.73032690693459" lon="11.583961579259485"><ele>286.40000000000003</ele><time>2026-04-01T21:29:05.999Z</time></trkpt><trkpt lat="45.730222286220176" lon="11.583956859164878"><ele>286.0</ele><time>2026-04-01T21:29:06.999Z</time></trkpt><trkpt lat="45.73011607598401" lon="11.583921648504631"><ele>285.6</ele><time>2026-04-01T21:29:07.999Z</time></trkpt><trkpt lat="45.73002017640891" lon="11.583859484555404"><ele>285.20000000000005</ele><time>2026-04-01T21:29:08.999Z</time></trkpt><trkpt lat="45.72991856121419" lon="11.583785481778433"><ele>284.79999999999995</ele><time>2026-04-01T21:29:09.999Z</time></trkpt><trkpt lat="45.72982087470966" lon="11.583703674795597"><ele>284.4</ele><time>2026-04-01T21:29:10.999Z</time></trkpt><trkpt lat="45.729729149363735" lon="11.583614827287231"><ele>284.0</ele><time>2026-04-01T21:29:11.999Z</time></trkpt><trkpt lat="45.729649654389505" lon="11.583507194248437"><ele>283.75</ele><time>2026-04-01T21:29:12.999Z</time></trkpt><trkpt lat="45.72956909046271" lon="11.583392000366397"><ele>283.5</ele><time>2026-04-01T21:29:13.999Z</time></trkpt><trkpt lat="45.72949175390695" lon="11.58326977230331"><ele>283.25</ele><time>2026-04-01T21:29:14.999Z</time></trkpt><trkpt lat="45.7294099017367" lon="11.583146736768583"><ele>283.0</ele><time>2026-04-01T21:29:15.999Z</time></trkpt><trkpt lat="45.729316444029536" lon="11.583041967241414"><ele>280.75</ele><time>2026-04-01T21:29:16.999Z</time></trkpt><trkpt lat="45.72921717861978" lon="11.582953791132367"><ele>278.5</ele><time>2026-04-01T21:29:17.999Z</time></trkpt><trkpt lat="45.72910818390673" lon="11.582896831597937"><ele>276.25</ele><time>2026-04-01T21:29:18.999Z</time></trkpt><trkpt lat="45.72898803665775" lon="11.582876380491028"><ele>274.0</ele><time>2026-04-01T21:29:19.999Z</time></trkpt><trkpt lat="45.72886844100381" lon="11.582874376824762"><ele>274.0</ele><time>2026-04-01T21:29:20.999Z</time></trkpt><trkpt lat="45.72874648270395" lon="11.582858065924507"><ele>274.0</ele><time>2026-04-01T21:29:21.999Z</time></trkpt><trkpt lat="45.72862289001683" lon="11.582840891177097"><ele>274.0</ele><time>2026-04-01T21:29:22.999Z</time></trkpt><trkpt lat="45.72850468195457" lon="11.582809795732816"><ele>274.0</ele><time>2026-04-01T21:29:23.999Z</time></trkpt><trkpt lat="45.72838670624579" lon="11.582759946974958"><ele>272.5</ele><time>2026-04-01T21:29:24.999Z</time></trkpt><trkpt lat="45.728274756878506" lon="11.582698528773408"><ele>271.0</ele><time>2026-04-01T21:29:25.999Z</time></trkpt><trkpt lat="45.72816147511018" lon="11.582623830076749"><ele>269.5</ele><time>2026-04-01T21:29:26.999Z</time></trkpt><trkpt lat="45.72805578089614" lon="11.582534987936993"><ele>268.0</ele><time>2026-04-01T21:29:27.999Z</time></trkpt><trkpt lat="45.7279614319156" lon="11.582445933974364"><ele>268.0</ele><time>2026-04-01T21:29:28.999Z</time></trkpt><trkpt lat="45.72787361950929" lon="11.5823526819448"><ele>268.0</ele><time>2026-04-01T21:29:29.999Z</time></trkpt><trkpt lat="45.72780135362752" lon="11.582246479627068"><ele>268.0</ele><time>2026-04-01T21:29:30.999Z</time></trkpt><trkpt lat="45.727747609160815" lon="11.582125697949168"><ele>268.0</ele><time>2026-04-01T21:29:31.999Z</time></trkpt><trkpt lat="45.727712119895365" lon="11.581987136633517"><ele>268.0</ele><time>2026-04-01T21:29:32.999Z</time></trkpt><trkpt lat="45.72768537798527" lon="11.58184351174689"><ele>266.3333333333333</ele><time>2026-04-01T21:29:33.999Z</time></trkpt><trkpt lat="45.727669149198476" lon="11.581704863835835"><ele>264.66666666666663</ele><time>2026-04-01T21:29:34.999Z</time></trkpt><trkpt lat="45.7276486426415" lon="11.581586755630244"><ele>263.0</ele><time>2026-04-01T21:29:35.999Z</time></trkpt><trkpt lat="45.727613196059764" lon="11.581484280637508"><ele>261.3333333333333</ele><time>2026-04-01T21:29:36.999Z</time></trkpt><trkpt lat="45.727550986795386" lon="11.581396965954772"><ele>259.6666666666667</ele><time>2026-04-01T21:29:37.999Z</time></trkpt><trkpt lat="45.727474870127814" lon="11.581333448410295"><ele>258.0</ele><time>2026-04-01T21:29:38.998Z</time></trkpt><trkpt lat="45.727387378463305" lon="11.581294011785449"><ele>258.0</ele><time>2026-04-01T21:29:39.998Z</time></trkpt><trkpt lat="45.72729056001333" lon="11.581273794329203"><ele>258.0</ele><time>2026-04-01T21:29:40.998Z</time></trkpt><trkpt lat="45.727193967901805" lon="11.581272687297513"><ele>258.0</ele><time>2026-04-01T21:29:41.998Z</time></trkpt><trkpt lat="45.7270930086635" lon="11.581284211987123"><ele>258.0</ele><time>2026-04-01T21:29:42.998Z</time></trkpt><trkpt lat="45.72699571266016" lon="11.58130303044518"><ele>258.0</ele><time>2026-04-01T21:29:43.998Z</time></trkpt><trkpt lat="45.72690721558622" lon="11.581330947458547"><ele>255.66666666666666</ele><time>2026-04-01T21:29:44.998Z</time></trkpt><trkpt lat="45.72682955929315" lon="11.581368603069901"><ele>253.33333333333331</ele><time>2026-04-01T21:29:45.998Z</time></trkpt><trkpt lat="45.72676775827403" lon="11.581420094923985"><ele>251.0</ele><time>2026-04-01T21:29:46.998Z</time></trkpt><trkpt lat="45.72671917728294" lon="11.581495600221443"><ele>248.66666666666666</ele><time>2026-04-01T21:29:47.998Z</time></trkpt><trkpt lat="45.72668959328547" lon="11.581595847275578"><ele>246.33333333333331</ele><time>2026-04-01T21:29:48.998Z</time></trkpt><trkpt lat="45.72667703105833" lon="11.581720339802194"><ele>244.0</ele><time>2026-04-01T21:29:49.998Z</time></trkpt><trkpt lat="45.72669462096748" lon="11.581850524948173"><ele>244.0</ele><time>2026-04-01T21:29:50.998Z</time></trkpt><trkpt lat="45.72671946063696" lon="11.581984733484875"><ele>243.99999999999997</ele><time>2026-04-01T21:29:51.998Z</time></trkpt><trkpt lat="45.72674462188902" lon="11.582117935817482"><ele>243.99999999999997</ele><time>2026-04-01T21:29:52.998Z</time></trkpt><trkpt lat="45.7267708098087" lon="11.582257534811154"><ele>244.0</ele><time>2026-04-01T21:29:53.998Z</time></trkpt><trkpt lat="45.726797625518515" lon="11.582406193143166"><ele>244.0</ele><time>2026-04-01T21:29:55Z</time></trkpt><trkpt lat="45.72682639840296" lon="11.58255716385543"><ele>243.79999999999998</ele><time>2026-04-01T21:29:56Z</time></trkpt><trkpt lat="45.72685771153277" lon="11.582711347557973"><ele>243.59999999999997</ele><time>2026-04-01T21:29:57Z</time></trkpt><trkpt lat="45.72688911405045" lon="11.582864034684196"><ele>243.4</ele><time>2026-04-01T21:29:58Z</time></trkpt><trkpt lat="45.72691802929394" lon="11.583015409931722"><ele>243.2</ele><time>2026-04-01T21:29:59Z</time></trkpt><trkpt lat="45.72694701181315" lon="11.583169625993937"><ele>243.0</ele><time>2026-04-01T21:30:00Z</time></trkpt><trkpt lat="45.7269749957688" lon="11.583311660280804"><ele>244.0</ele><time>2026-04-01T21:30:01Z</time></trkpt><trkpt lat="45.72700163689278" lon="11.58344796188426"><ele>245.0</ele><time>2026-04-01T21:30:02Z</time></trkpt><trkpt lat="45.727027718886916" lon="11.583569982633595"><ele>246.0</ele><time>2026-04-01T21:30:03Z</time></trkpt><trkpt lat="45.72704996654657" lon="11.583680472293228"><ele>247.0</ele><time>2026-04-01T21:30:04Z</time></trkpt><trkpt lat="45.727063056297496" lon="11.583787364213048"><ele>248.0</ele><time>2026-04-01T21:30:05Z</time></trkpt><trkpt lat="45.727054553799505" lon="11.583894862817914"><ele>249.0</ele><time>2026-04-01T21:30:06Z</time></trkpt><trkpt lat="45.727030333668814" lon="11.583997478339995"><ele>249.0</ele><time>2026-04-01T21:30:07Z</time></trkpt><trkpt lat="45.72698638812365" lon="11.584084283082229"><ele>249.0</ele><time>2026-04-01T21:30:08Z</time></trkpt><trkpt lat="45.72692768927359" lon="11.584152968938298"><ele>249.0</ele><time>2026-04-01T21:30:09Z</time></trkpt><trkpt lat="45.72685536547732" lon="11.584190803653978"><ele>249.0</ele><time>2026-04-01T21:30:10Z</time></trkpt><trkpt lat="45.726775812406956" lon="11.584200515937148"><ele>249.0</ele><time>2026-04-01T21:30:11Z</time></trkpt><trkpt lat="45.72669369329015" lon="11.584177340259185"><ele>249.0</ele><time>2026-04-01T21:30:12Z</time></trkpt><trkpt lat="45.726613678259945" lon="11.584122441612049"><ele>247.2</ele><time>2026-04-01T21:30:13Z</time></trkpt><trkpt lat="45.72653237979567" lon="11.584051656439474"><ele>245.39999999999998</ele><time>2026-04-01T21:30:14Z</time></trkpt><trkpt lat="45.726448369374026" lon="11.583976387521611"><ele>243.6</ele><time>2026-04-01T21:30:15Z</time></trkpt><trkpt lat="45.7263529149032" lon="11.583900508180474"><ele>241.8</ele><time>2026-04-01T21:30:16Z</time></trkpt><trkpt lat="45.726256110960534" lon="11.583818407932943"><ele>240.0</ele><time>2026-04-01T21:30:17Z</time></trkpt><trkpt lat="45.72615411214504" lon="11.583732959305461"><ele>237.75</ele><time>2026-04-01T21:30:18Z</time></trkpt><trkpt lat="45.72605377249022" lon="11.58364712866466"><ele>235.5</ele><time>2026-04-01T21:30:19Z</time></trkpt><trkpt lat="45.7259472665248" lon="11.583558940847391"><ele>233.25</ele><time>2026-04-01T21:30:20Z</time></trkpt><trkpt lat="45.72583957238999" lon="11.583474854283363"><ele>231.0</ele><time>2026-04-01T21:30:21Z</time></trkpt><trkpt lat="45.725729998569214" lon="11.583387610084513"><ele>231.0</ele><time>2026-04-01T21:30:22Z</time></trkpt><trkpt lat="45.72562054637973" lon="11.58329927033959"><ele>231.0</ele><time>2026-04-01T21:30:23Z</time></trkpt><trkpt lat="45.725512221669305" lon="11.583212487834775"><ele>231.0</ele><time>2026-04-01T21:30:24Z</time></trkpt><trkpt lat="45.7254054561525" lon="11.583126221541225"><ele>231.0</ele><time>2026-04-01T21:30:25Z</time></trkpt><trkpt lat="45.72530288895564" lon="11.58303609424011"><ele>230.5</ele><time>2026-04-01T21:30:26Z</time></trkpt><trkpt lat="45.72520361238841" lon="11.582935701176005"><ele>230.0</ele><time>2026-04-01T21:30:27Z</time></trkpt><trkpt lat="45.725112288869525" lon="11.582811329608544"><ele>229.5</ele><time>2026-04-01T21:30:28Z</time></trkpt><trkpt lat="45.725034668629704" lon="11.582670518197917"><ele>229.0</ele><time>2026-04-01T21:30:29Z</time></trkpt><trkpt lat="45.72496603393842" lon="11.582511410971724"><ele>227.5</ele><time>2026-04-01T21:30:30Z</time></trkpt><trkpt lat="45.72490613366572" lon="11.582341572635757"><ele>226.0</ele><time>2026-04-01T21:30:31Z</time></trkpt><trkpt lat="45.724850826114505" lon="11.582166631643622"><ele>224.5</ele><time>2026-04-01T21:30:32Z</time></trkpt><trkpt lat="45.724797152841035" lon="11.58198981349773"><ele>223.0</ele><time>2026-04-01T21:30:33Z</time></trkpt><trkpt lat="45.72474073517148" lon="11.581814392900005"><ele>222.5</ele><time>2026-04-01T21:30:34Z</time></trkpt><trkpt lat="45.72468540359266" lon="11.58163852221088"><ele>222.0</ele><time>2026-04-01T21:30:35Z</time></trkpt><trkpt lat="45.724628615392255" lon="11.581466324345104"><ele>221.5</ele><time>2026-04-01T21:30:35.999Z</time></trkpt><trkpt lat="45.7245717709749" lon="11.581293782761545"><ele>221.0</ele><time>2026-04-01T21:30:36.999Z</time></trkpt><trkpt lat="45.72450682858062" lon="11.58113177330407"><ele>220.75</ele><time>2026-04-01T21:30:37.999Z</time></trkpt><trkpt lat="45.72443118912201" lon="11.580992054042449"><ele>220.5</ele><time>2026-04-01T21:30:38.999Z</time></trkpt><trkpt lat="45.72433654900209" lon="11.580879451355505"><ele>220.25</ele><time>2026-04-01T21:30:39.999Z</time></trkpt><trkpt lat="45.724231565792635" lon="11.580795425676618"><ele>220.0</ele><time>2026-04-01T21:30:40.999Z</time></trkpt><trkpt lat="45.72411969473301" lon="11.580723866530434"><ele>218.0</ele><time>2026-04-01T21:30:41.999Z</time></trkpt><trkpt lat="45.724007695936834" lon="11.580655301097432"><ele>216.0</ele><time>2026-04-01T21:30:42.999Z</time></trkpt><trkpt lat="45.72389428953405" lon="11.580581012119582"><ele>214.0</ele><time>2026-04-01T21:30:43.999Z</time></trkpt><trkpt lat="45.72378607333418" lon="11.580500024597844"><ele>212.0</ele><time>2026-04-01T21:30:44.999Z</time></trkpt><trkpt lat="45.72367226162936" lon="11.580427364029779"><ele>211.75</ele><time>2026-04-01T21:30:45.999Z</time></trkpt><trkpt lat="45.72356311686809" lon="11.58035742610251"><ele>211.5</ele><time>2026-04-01T21:30:46.999Z</time></trkpt><trkpt lat="45.723448852211334" lon="11.580286172654917"><ele>211.25</ele><time>2026-04-01T21:30:47.999Z</time></trkpt><trkpt lat="45.723339391945586" lon="11.580216398973885"><ele>211.0</ele><time>2026-04-01T21:30:48.999Z</time></trkpt><trkpt lat="45.72322862939667" lon="11.580144682501915"><ele>211.0</ele><time>2026-04-01T21:30:49.999Z</time></trkpt><trkpt lat="45.7231148089421" lon="11.580073920618222"><ele>211.0</ele><time>2026-04-01T21:30:50.999Z</time></trkpt><trkpt lat="45.723000328794505" lon="11.580001588709594"><ele>211.0</ele><time>2026-04-01T21:30:51.999Z</time></trkpt><trkpt lat="45.72288621819737" lon="11.579933227674703"><ele>211.0</ele><time>2026-04-01T21:30:52.999Z</time></trkpt><trkpt lat="45.722773572269915" lon="11.579864538893105"><ele>209.25</ele><time>2026-04-01T21:30:53.999Z</time></trkpt><trkpt lat="45.72265970378136" lon="11.579789602381881"><ele>207.5</ele><time>2026-04-01T21:30:54.999Z</time></trkpt><trkpt lat="45.72254531907894" lon="11.579708051065493"><ele>205.75</ele><time>2026-04-01T21:30:55.999Z</time></trkpt><trkpt lat="45.72243711099115" lon="11.57960328882638"><ele>204.0</ele><time>2026-04-01T21:30:56.999Z</time></trkpt><trkpt lat="45.722338745335634" lon="11.57947914502062"><ele>204.0</ele><time>2026-04-01T21:30:57.999Z</time></trkpt><trkpt lat="45.722246466539985" lon="11.579338564796206"><ele>204.0</ele><time>2026-04-01T21:30:58.999Z</time></trkpt><trkpt lat="45.72215845153992" lon="11.579187962662454"><ele>204.0</ele><time>2026-04-01T21:30:59.999Z</time></trkpt><trkpt lat="45.72207087286281" lon="11.57903586313812"><ele>204.0</ele><time>2026-04-01T21:31:00.999Z</time></trkpt><trkpt lat="45.72198357663174" lon="11.578880614982241"><ele>202.25</ele><time>2026-04-01T21:31:01.999Z</time></trkpt><trkpt lat="45.72189335228051" lon="11.57873047272007"><ele>200.5</ele><time>2026-04-01T21:31:02.999Z</time></trkpt><trkpt lat="45.721791958188376" lon="11.578593992604354"><ele>198.75</ele><time>2026-04-01T21:31:03.999Z</time></trkpt><trkpt lat="45.721676656084846" lon="11.578491240752335"><ele>197.0</ele><time>2026-04-01T21:31:04.999Z</time></trkpt><trkpt lat="45.7215561068288" lon="11.578403533421474"><ele>197.0</ele><time>2026-04-01T21:31:05.999Z</time></trkpt><trkpt lat="45.72143419649689" lon="11.578322992811998"><ele>197.0</ele><time>2026-04-01T21:31:06.999Z</time></trkpt><trkpt lat="45.72132028292837" lon="11.578240300496898"><ele>197.0</ele><time>2026-04-01T21:31:07.999Z</time></trkpt><trkpt lat="45.721206361757005" lon="11.578164223419227"><ele>197.0</ele><time>2026-04-01T21:31:08.999Z</time></trkpt><trkpt lat="45.72109313154333" lon="11.578082094123099"><ele>196.5</ele><time>2026-04-01T21:31:09.999Z</time></trkpt><trkpt lat="45.72097949900698" lon="11.57798907115744"><ele>196.0</ele><time>2026-04-01T21:31:10.999Z</time></trkpt><trkpt lat="45.720865026866456" lon="11.577890434322338"><ele>195.5</ele><time>2026-04-01T21:31:11.999Z</time></trkpt><trkpt lat="45.7207533594768" lon="11.577778375575905"><ele>195.0</ele><time>2026-04-01T21:31:12.999Z</time></trkpt><trkpt lat="45.72064587437102" lon="11.577655378733947"><ele>195.0</ele><time>2026-04-01T21:31:13.999Z</time></trkpt><trkpt lat="45.7205462957943" lon="11.57751872887536"><ele>195.0</ele><time>2026-04-01T21:31:14.999Z</time></trkpt><trkpt lat="45.72045182128841" lon="11.577378680258937"><ele>195.0</ele><time>2026-04-01T21:31:15.999Z</time></trkpt><trkpt lat="45.72036701948825" lon="11.577235985426778"><ele>195.0</ele><time>2026-04-01T21:31:16.999Z</time></trkpt><trkpt lat="45.72027642326921" lon="11.577102604802068"><ele>194.25</ele><time>2026-04-01T21:31:17.999Z</time></trkpt><trkpt lat="45.720176765874406" lon="11.576977345153004"><ele>193.5</ele><time>2026-04-01T21:31:18.999Z</time></trkpt><trkpt lat="45.72007286693849" lon="11.576857267404451"><ele>192.75</ele><time>2026-04-01T21:31:19.999Z</time></trkpt><trkpt lat="45.71996692481178" lon="11.576742531472657"><ele>192.0</ele><time>2026-04-01T21:31:20.999Z</time></trkpt><trkpt lat="45.719858348250476" lon="11.576633187209689"><ele>192.0</ele><time>2026-04-01T21:31:21.999Z</time></trkpt><trkpt lat="45.71974697798902" lon="11.576537445025933"><ele>192.0</ele><time>2026-04-01T21:31:22.999Z</time></trkpt><trkpt lat="45.71963541759926" lon="11.57644856147676"><ele>192.0</ele><time>2026-04-01T21:31:23.999Z</time></trkpt><trkpt lat="45.71951922820979" lon="11.576369592066468"><ele>192.0</ele><time>2026-04-01T21:31:24.999Z</time></trkpt><trkpt lat="45.71940194349145" lon="11.576296209234872"><ele>192.25</ele><time>2026-04-01T21:31:25.999Z</time></trkpt><trkpt lat="45.719282408950896" lon="11.57623898602229"><ele>192.5</ele><time>2026-04-01T21:31:26.999Z</time></trkpt><trkpt lat="45.719158048307044" lon="11.576193347962977"><ele>192.75</ele><time>2026-04-01T21:31:27.999Z</time></trkpt><trkpt lat="45.71902966219794" lon="11.576156878339429"><ele>193.0</ele><time>2026-04-01T21:31:28.999Z</time></trkpt><trkpt lat="45.71889849519338" lon="11.576115436904571"><ele>193.0</ele><time>2026-04-01T21:31:29.999Z</time></trkpt><trkpt lat="45.718764452189056" lon="11.576074154230843"><ele>193.0</ele><time>2026-04-01T21:31:30.999Z</time></trkpt><trkpt lat="45.718626257262514" lon="11.576035385890956"><ele>193.0</ele><time>2026-04-01T21:31:31.999Z</time></trkpt><trkpt lat="45.718488949052386" lon="11.575996750584606"><ele>193.0</ele><time>2026-04-01T21:31:32.999Z</time></trkpt><trkpt lat="45.718353248504506" lon="11.575963250954285"><ele>191.5</ele><time>2026-04-01T21:31:33.999Z</time></trkpt><trkpt lat="45.71821735547843" lon="11.575927896952562"><ele>190.0</ele><time>2026-04-01T21:31:34.999Z</time></trkpt><trkpt lat="45.71808483064762" lon="11.575894670165354"><ele>188.5</ele><time>2026-04-01T21:31:35.999Z</time></trkpt><trkpt lat="45.71794940099369" lon="11.575861947509043"><ele>187.0</ele><time>2026-04-01T21:31:36.999Z</time></trkpt><trkpt lat="45.7178109542475" lon="11.575828508876587"><ele>183.75</ele><time>2026-04-01T21:31:37.999Z</time></trkpt><trkpt lat="45.71766986201675" lon="11.57580350769385"><ele>180.5</ele><time>2026-04-01T21:31:38.999Z</time></trkpt><trkpt lat="45.71752860596791" lon="11.575787964347379"><ele>177.25</ele><time>2026-04-01T21:31:39.999Z</time></trkpt><trkpt lat="45.71739011701443" lon="11.575779600166134"><ele>174.0</ele><time>2026-04-01T21:31:40.999Z</time></trkpt><trkpt lat="45.717256760684755" lon="11.575771087338696"><ele>174.0</ele><time>2026-04-01T21:31:41.999Z</time></trkpt><trkpt lat="45.717125507990254" lon="11.575760550651726"><ele>174.0</ele><time>2026-04-01T21:31:42.999Z</time></trkpt><trkpt lat="45.71699985576357" lon="11.575743967985046"><ele>174.0</ele><time>2026-04-01T21:31:43.999Z</time></trkpt><trkpt lat="45.71688284052316" lon="11.57569060213466"><ele>174.0</ele><time>2026-04-01T21:31:44.999Z</time></trkpt><trkpt lat="45.71677694456823" lon="11.57561273546657"><ele>172.0</ele><time>2026-04-01T21:31:45.999Z</time></trkpt><trkpt lat="45.716684850125084" lon="11.575510207651098"><ele>170.0</ele><time>2026-04-01T21:31:46.999Z</time></trkpt><trkpt lat="45.71660329854736" lon="11.57540902140808"><ele>168.0</ele><time>2026-04-01T21:31:47.999Z</time></trkpt><trkpt lat="45.71649390406771" lon="11.57531348966587"><ele>166.0</ele><time>2026-04-01T21:31:48.999Z</time></trkpt><trkpt lat="45.71638165731109" lon="11.57523572869658"><ele>166.0</ele><time>2026-04-01T21:31:49.999Z</time></trkpt><trkpt lat="45.71626089286404" lon="11.575171897206873"><ele>166.0</ele><time>2026-04-01T21:31:50.998Z</time></trkpt><trkpt lat="45.716131269837604" lon="11.575133031946324"><ele>166.0</ele><time>2026-04-01T21:31:51.998Z</time></trkpt><trkpt lat="45.71599798285119" lon="11.575091180267476"><ele>166.0</ele><time>2026-04-01T21:31:52.998Z</time></trkpt><trkpt lat="45.71586139318652" lon="11.575048063431774"><ele>164.5</ele><time>2026-04-01T21:31:53.998Z</time></trkpt><trkpt lat="45.715722550294075" lon="11.575003921255385"><ele>163.0</ele><time>2026-04-01T21:31:54.998Z</time></trkpt><trkpt lat="45.71557849965605" lon="11.574955486233756"><ele>161.5</ele><time>2026-04-01T21:31:55.998Z</time></trkpt><trkpt lat="45.715437204231144" lon="11.574907967529763"><ele>160.0</ele><time>2026-04-01T21:31:56.998Z</time></trkpt><trkpt lat="45.71529404100372" lon="11.574862830331032"><ele>159.25</ele><time>2026-04-01T21:31:57.998Z</time></trkpt><trkpt lat="45.715150945359575" lon="11.574817009995247"><ele>158.5</ele><time>2026-04-01T21:31:58.998Z</time></trkpt><trkpt lat="45.7150105418746" lon="11.574769479539825"><ele>157.75</ele><time>2026-04-01T21:31:59.998Z</time></trkpt><trkpt lat="45.71487059859772" lon="11.574722392092688"><ele>157.0</ele><time>2026-04-01T21:32:01Z</time></trkpt><trkpt lat="45.7147350363597" lon="11.57467581226507"><ele>157.0</ele><time>2026-04-01T21:32:02Z</time></trkpt><trkpt lat="45.71460311359412" lon="11.574632421596986"><ele>157.0</ele><time>2026-04-01T21:32:03Z</time></trkpt><trkpt lat="45.71447552038091" lon="11.574592902821438"><ele>157.0</ele><time>2026-04-01T21:32:04Z</time></trkpt><trkpt lat="45.714344583663866" lon="11.57456906931127"><ele>157.0</ele><time>2026-04-01T21:32:05Z</time></trkpt><trkpt lat="45.714213079149665" lon="11.574569538769369"><ele>157.5</ele><time>2026-04-01T21:32:06Z</time></trkpt><trkpt lat="45.714081587621976" lon="11.574598371722699"><ele>158.0</ele><time>2026-04-01T21:32:07Z</time></trkpt><trkpt lat="45.71395741938132" lon="11.57465802390291"><ele>158.5</ele><time>2026-04-01T21:32:08Z</time></trkpt><trkpt lat="45.71383756225519" lon="11.574742469520281"><ele>159.0</ele><time>2026-04-01T21:32:09Z</time></trkpt><trkpt lat="45.713715647938486" lon="11.574824163845323"><ele>159.0</ele><time>2026-04-01T21:32:10Z</time></trkpt><trkpt lat="45.71359147907018" lon="11.574902581409967"><ele>159.0</ele><time>2026-04-01T21:32:11Z</time></trkpt><trkpt lat="45.71346465663733" lon="11.574983369872633"><ele>159.0</ele><time>2026-04-01T21:32:12Z</time></trkpt><trkpt lat="45.71333677296984" lon="11.575064482080576"><ele>159.0</ele><time>2026-04-01T21:32:13Z</time></trkpt><trkpt lat="45.71320684647737" lon="11.575146517041375"><ele>158.75</ele><time>2026-04-01T21:32:14Z</time></trkpt><trkpt lat="45.71308338544529" lon="11.575225967867405"><ele>158.5</ele><time>2026-04-01T21:32:15Z</time></trkpt><trkpt lat="45.7129614517073" lon="11.575301246253138"><ele>158.25</ele><time>2026-04-01T21:32:16Z</time></trkpt><trkpt lat="45.71283535361901" lon="11.575369260801843"><ele>158.0</ele><time>2026-04-01T21:32:17Z</time></trkpt><trkpt lat="45.71270421208837" lon="11.57541885426143"><ele>155.0</ele><time>2026-04-01T21:32:18Z</time></trkpt><trkpt lat="45.712566896734316" lon="11.575453381667831"><ele>152.0</ele><time>2026-04-01T21:32:19Z</time></trkpt><trkpt lat="45.71242860793335" lon="11.575481204762573"><ele>149.0</ele><time>2026-04-01T21:32:20Z</time></trkpt><trkpt lat="45.712288651901666" lon="11.575510235362866"><ele>146.0</ele><time>2026-04-01T21:32:21Z</time></trkpt><trkpt lat="45.71214825314679" lon="11.575551742095517"><ele>146.0</ele><time>2026-04-01T21:32:22Z</time></trkpt><trkpt lat="45.71201077514162" lon="11.575593255057528"><ele>146.0</ele><time>2026-04-01T21:32:23Z</time></trkpt><trkpt lat="45.71187729834945" lon="11.57562405171607"><ele>146.0</ele><time>2026-04-01T21:32:24Z</time></trkpt><trkpt lat="45.71174836847816" lon="11.575660718549361"><ele>146.0</ele><time>2026-04-01T21:32:25Z</time></trkpt><trkpt lat="45.71162008290971" lon="11.575700157314657"><ele>144.0</ele><time>2026-04-01T21:32:26Z</time></trkpt><trkpt lat="45.71149277137643" lon="11.575732909673418"><ele>142.0</ele><time>2026-04-01T21:32:27Z</time></trkpt><trkpt lat="45.71136458044906" lon="11.575756819579246"><ele>140.0</ele><time>2026-04-01T21:32:28Z</time></trkpt><trkpt lat="45.71123834085288" lon="11.575762663091645"><ele>138.0</ele><time>2026-04-01T21:32:29Z</time></trkpt><trkpt lat="45.71111853636595" lon="11.575737552138227"><ele>137.0</ele><time>2026-04-01T21:32:30Z</time></trkpt><trkpt lat="45.71100564100996" lon="11.575681164430126"><ele>136.0</ele><time>2026-04-01T21:32:31Z</time></trkpt><trkpt lat="45.7108981005865" lon="11.575592842550698"><ele>135.0</ele><time>2026-04-01T21:32:32Z</time></trkpt><trkpt lat="45.710809702560965" lon="11.575478149964667"><ele>134.0</ele><time>2026-04-01T21:32:33Z</time></trkpt><trkpt lat="45.71073523725253" lon="11.575348958233619"><ele>134.0</ele><time>2026-04-01T21:32:34Z</time></trkpt><trkpt lat="45.71066890503838" lon="11.575211237545151"><ele>134.0</ele><time>2026-04-01T21:32:35Z</time></trkpt><trkpt lat="45.71060771369367" lon="11.575068792052242"><ele>134.0</ele><time>2026-04-01T21:32:36Z</time></trkpt><trkpt lat="45.71055399428247" lon="11.574915681529488"><ele>134.0</ele><time>2026-04-01T21:32:37Z</time></trkpt><trkpt lat="45.71050003570308" lon="11.57475919314125"><ele>134.0</ele><time>2026-04-01T21:32:38Z</time></trkpt><trkpt lat="45.71045185169708" lon="11.574595643802294"><ele>134.0</ele><time>2026-04-01T21:32:39Z</time></trkpt><trkpt lat="45.71041015616371" lon="11.574431782990212"><ele>134.0</ele><time>2026-04-01T21:32:40Z</time></trkpt><trkpt lat="45.71037429915859" lon="11.574267411513368"><ele>134.0</ele><time>2026-04-01T21:32:41Z</time></trkpt><trkpt lat="45.71034576858836" lon="11.574099827105195"><ele>135.0</ele><time>2026-04-01T21:32:42Z</time></trkpt><trkpt lat="45.71031708044514" lon="11.573932593287449"><ele>136.0</ele><time>2026-04-01T21:32:43Z</time></trkpt><trkpt lat="45.710285627268874" lon="11.573773861961417"><ele>137.0</ele><time>2026-04-01T21:32:44Z</time></trkpt><trkpt lat="45.710248333037086" lon="11.573627628151556"><ele>138.0</ele><time>2026-04-01T21:32:45Z</time></trkpt><trkpt lat="45.710211030885034" lon="11.573499820906195"><ele>139.0</ele><time>2026-04-01T21:32:46Z</time></trkpt><trkpt lat="45.71016969171559" lon="11.57340034784495"><ele>137.83333333333334</ele><time>2026-04-01T21:32:47Z</time></trkpt><trkpt lat="45.7101331734194" lon="11.573319233257493"><ele>136.66666666666669</ele><time>2026-04-01T21:32:48Z</time></trkpt><trkpt lat="45.71007341851665" lon="11.57320814581486"><ele>135.5</ele><time>2026-04-01T21:32:50Z</time></trkpt><trkpt lat="45.71000769501446" lon="11.573073637717648"><ele>134.33333333333334</ele><time>2026-04-01T21:32:52Z</time></trkpt><trkpt lat="45.70997452468061" lon="11.572988531223443"><ele>133.16666666666666</ele><time>2026-04-01T21:32:53Z</time></trkpt><trkpt lat="45.70994422487961" lon="11.57288599850634"><ele>132.0</ele><time>2026-04-01T21:32:54Z</time></trkpt><trkpt lat="45.709911513239334" lon="11.572773766509156"><ele>132.0</ele><time>2026-04-01T21:32:55Z</time></trkpt><trkpt lat="45.70987356859547" lon="11.572664733880156"><ele>132.0</ele><time>2026-04-01T21:32:56Z</time></trkpt><trkpt lat="45.70983392642254" lon="11.572566758601079"><ele>132.0</ele><time>2026-04-01T21:32:57Z</time></trkpt><trkpt lat="45.70977705143165" lon="11.57247781811792"><ele>132.0</ele><time>2026-04-01T21:32:57.999Z</time></trkpt><trkpt lat="45.70970185408239" lon="11.572412566652817"><ele>132.0</ele><time>2026-04-01T21:32:58.999Z</time></trkpt><trkpt lat="45.70961277555534" lon="11.572377254799104"><ele>132.0</ele><time>2026-04-01T21:32:59.999Z</time></trkpt><trkpt lat="45.7095169253967" lon="11.572359515485108"><ele>132.0</ele><time>2026-04-01T21:33:00.999Z</time></trkpt><trkpt lat="45.709415548134125" lon="11.572344843876119"><ele>132.0</ele><time>2026-04-01T21:33:01.999Z</time></trkpt><trkpt lat="45.70930619289952" lon="11.572329301084675"><ele>132.0</ele><time>2026-04-01T21:33:02.999Z</time></trkpt><trkpt lat="45.70918773918785" lon="11.572310457392904"><ele>132.0</ele><time>2026-04-01T21:33:03.999Z</time></trkpt><trkpt lat="45.70905988989771" lon="11.572291245638134"><ele>129.25</ele><time>2026-04-01T21:33:04.999Z</time></trkpt><trkpt lat="45.70892109480455" lon="11.572270433994275"><ele>126.5</ele><time>2026-04-01T21:33:05.999Z</time></trkpt><trkpt lat="45.708783635845286" lon="11.572252351283224"><ele>123.75</ele><time>2026-04-01T21:33:06.999Z</time></trkpt><trkpt lat="45.708640710860976" lon="11.572228277892897"><ele>121.0</ele><time>2026-04-01T21:33:07.999Z</time></trkpt><trkpt lat="45.70849870616649" lon="11.572203126364528"><ele>120.25</ele><time>2026-04-01T21:33:08.999Z</time></trkpt><trkpt lat="45.70835443685679" lon="11.572175701141994"><ele>119.5</ele><time>2026-04-01T21:33:09.999Z</time></trkpt><trkpt lat="45.708214197882256" lon="11.572142853942163"><ele>118.75</ele><time>2026-04-01T21:33:10.999Z</time></trkpt><trkpt lat="45.70807561227604" lon="11.572101104083087"><ele>118.0</ele><time>2026-04-01T21:33:11.999Z</time></trkpt><trkpt lat="45.707938686856274" lon="11.57205227222827"><ele>117.5</ele><time>2026-04-01T21:33:12.999Z</time></trkpt><trkpt lat="45.70780493027658" lon="11.571993767936142"><ele>117.0</ele><time>2026-04-01T21:33:13.999Z</time></trkpt><trkpt lat="45.70767228579828" lon="11.571932836248976"><ele>116.5</ele><time>2026-04-01T21:33:14.999Z</time></trkpt><trkpt lat="45.707539351740316" lon="11.571868664726383"><ele>116.0</ele><time>2026-04-01T21:33:15.999Z</time></trkpt><trkpt lat="45.70740994719079" lon="11.571799090358995"><ele>116.0</ele><time>2026-04-01T21:33:16.999Z</time></trkpt><trkpt lat="45.70728631975808" lon="11.57172871715614"><ele>116.0</ele><time>2026-04-01T21:33:17.999Z</time></trkpt><trkpt lat="45.70716478204837" lon="11.5716508371157"><ele>116.0</ele><time>2026-04-01T21:33:18.999Z</time></trkpt><trkpt lat="45.707044614798725" lon="11.571570630089166"><ele>116.0</ele><time>2026-04-01T21:33:19.999Z</time></trkpt><trkpt lat="45.706928215584796" lon="11.571484288499224"><ele>114.75</ele><time>2026-04-01T21:33:20.999Z</time></trkpt><trkpt lat="45.70682275592395" lon="11.5713853015388"><ele>113.5</ele><time>2026-04-01T21:33:21.999Z</time></trkpt><trkpt lat="45.706729456939655" lon="11.571267654060442"><ele>112.25</ele><time>2026-04-01T21:33:22.999Z</time></trkpt><trkpt lat="45.70664777736296" lon="11.571135729132754"><ele>111.0</ele><time>2026-04-01T21:33:23.999Z</time></trkpt><trkpt lat="45.706580911795044" lon="11.570988490825654"><ele>110.75</ele><time>2026-04-01T21:33:24.999Z</time></trkpt><trkpt lat="45.70652842255061" lon="11.570828623567786"><ele>110.5</ele><time>2026-04-01T21:33:25.999Z</time></trkpt><trkpt lat="45.706489380593496" lon="11.57065937786196"><ele>110.25</ele><time>2026-04-01T21:33:26.999Z</time></trkpt><trkpt lat="45.70646819976494" lon="11.570483805102507"><ele>110.0</ele><time>2026-04-01T21:33:27.999Z</time></trkpt><trkpt lat="45.70646347590444" lon="11.570304245281871"><ele>109.5</ele><time>2026-04-01T21:33:28.999Z</time></trkpt><trkpt lat="45.70647031994965" lon="11.5701228525943"><ele>109.0</ele><time>2026-04-01T21:33:29.999Z</time></trkpt><trkpt lat="45.70648591826284" lon="11.569937690572972"><ele>108.5</ele><time>2026-04-01T21:33:30.999Z</time></trkpt><trkpt lat="45.70650527142344" lon="11.569755077081563"><ele>108.0</ele><time>2026-04-01T21:33:31.999Z</time></trkpt><trkpt lat="45.70651877246904" lon="11.569577002495182"><ele>107.5</ele><time>2026-04-01T21:33:32.999Z</time></trkpt><trkpt lat="45.70653303379664" lon="11.569403497882561"><ele>107.0</ele><time>2026-04-01T21:33:33.999Z</time></trkpt><trkpt lat="45.706547131464234" lon="11.569237964914233"><ele>106.5</ele><time>2026-04-01T21:33:34.999Z</time></trkpt><trkpt lat="45.7065529120485" lon="11.56907069318819"><ele>106.0</ele><time>2026-04-01T21:33:35.999Z</time></trkpt><trkpt lat="45.70654417880762" lon="11.56890727463923"><ele>106.0</ele><time>2026-04-01T21:33:36.999Z</time></trkpt><trkpt lat="45.70652292968609" lon="11.568745107265533"><ele>106.0</ele><time>2026-04-01T21:33:37.999Z</time></trkpt><trkpt lat="45.70648945746674" lon="11.568585033894335"><ele>106.0</ele><time>2026-04-01T21:33:38.999Z</time></trkpt><trkpt lat="45.70645855438485" lon="11.56842264076061"><ele>106.0</ele><time>2026-04-01T21:33:39.999Z</time></trkpt><trkpt lat="45.706427769708455" lon="11.56826136524281"><ele>105.75</ele><time>2026-04-01T21:33:40.999Z</time></trkpt><trkpt lat="45.70639723538091" lon="11.568100545975808"><ele>105.5</ele><time>2026-04-01T21:33:41.999Z</time></trkpt><trkpt lat="45.70636647090723" lon="11.567937706491001"><ele>105.25</ele><time>2026-04-01T21:33:42.999Z</time></trkpt><trkpt lat="45.70633456662006" lon="11.56777607593494"><ele>105.0</ele><time>2026-04-01T21:33:43.999Z</time></trkpt><trkpt lat="45.706304860106826" lon="11.567607922066431"><ele>105.5</ele><time>2026-04-01T21:33:44.999Z</time></trkpt><trkpt lat="45.706275826081715" lon="11.567439401262758"><ele>106.0</ele><time>2026-04-01T21:33:45.999Z</time></trkpt><trkpt lat="45.7062402000389" lon="11.567270790772213"><ele>106.5</ele><time>2026-04-01T21:33:46.999Z</time></trkpt><trkpt lat="45.70621010277817" lon="11.567103128706567"><ele>107.0</ele><time>2026-04-01T21:33:47.999Z</time></trkpt><trkpt lat="45.70617761280359" lon="11.56693693189305"><ele>107.25</ele><time>2026-04-01T21:33:48.999Z</time></trkpt><trkpt lat="45.70614631237158" lon="11.566773520040929"><ele>107.5</ele><time>2026-04-01T21:33:49.999Z</time></trkpt><trkpt lat="45.70611590894996" lon="11.566611481575139"><ele>107.75</ele><time>2026-04-01T21:33:50.999Z</time></trkpt><trkpt lat="45.70609160481979" lon="11.5664474057196"><ele>108.0</ele><time>2026-04-01T21:33:51.999Z</time></trkpt><trkpt lat="45.70608298457602" lon="11.566282957707195"><ele>108.0</ele><time>2026-04-01T21:33:52.999Z</time></trkpt><trkpt lat="45.70607586632838" lon="11.566121695577245"><ele>108.00000000000001</ele><time>2026-04-01T21:33:53.999Z</time></trkpt><trkpt lat="45.70607974132688" lon="11.565966971619524"><ele>108.00000000000001</ele><time>2026-04-01T21:33:54.999Z</time></trkpt><trkpt lat="45.70608665420361" lon="11.565834333277351"><ele>108.0</ele><time>2026-04-01T21:33:55.999Z</time></trkpt><trkpt lat="45.70609730222303" lon="11.565719232984568"><ele>108.0</ele><time>2026-04-01T21:33:56.999Z</time></trkpt><trkpt lat="45.706108110527715" lon="11.565626395046507"><ele>108.0</ele><time>2026-04-01T21:33:57.999Z</time></trkpt><trkpt lat="45.70612080970653" lon="11.565509245405899"><ele>108.00000000000001</ele><time>2026-04-01T21:33:59.999Z</time></trkpt><trkpt lat="45.70614303159599" lon="11.565375816429794"><ele>108.00000000000001</ele><time>2026-04-01T21:35:03Z</time></trkpt><trkpt lat="45.706160846742385" lon="11.565271553443504"><ele>108.0</ele><time>2026-04-01T21:35:05Z</time></trkpt><trkpt lat="45.7061821345089" lon="11.565182064935945"><ele>108.0</ele><time>2026-04-01T21:35:06.999Z</time></trkpt><trkpt lat="45.706040319527915" lon="11.565116587641024"><ele>108.0</ele><time>2026-04-01T21:35:07.999Z</time></trkpt><trkpt lat="45.705969906223814" lon="11.565101676944797"><ele>108.0</ele><time>2026-04-01T21:35:08.999Z</time></trkpt><trkpt lat="45.70590181101984" lon="11.565092637062948"><ele>108.0</ele><time>2026-04-01T21:35:09.999Z</time></trkpt><trkpt lat="45.70582445925048" lon="11.56508134748875"><ele>108.0</ele><time>2026-04-01T21:35:10.999Z</time></trkpt><trkpt lat="45.70574025948973" lon="11.565073448334243"><ele>108.0</ele><time>2026-04-01T21:35:11.999Z</time></trkpt><trkpt lat="45.705645206864396" lon="11.565063785421144"><ele>108.0</ele><time>2026-04-01T21:35:12.999Z</time></trkpt><trkpt lat="45.705537253490796" lon="11.565046269727267"><ele>108.0</ele><time>2026-04-01T21:35:13.999Z</time></trkpt><trkpt lat="45.70543004738953" lon="11.565030058555596"><ele>108.0</ele><time>2026-04-01T21:35:14.999Z</time></trkpt><trkpt lat="45.705321593912636" lon="11.565017410366442"><ele>108.0</ele><time>2026-04-01T21:35:15.999Z</time></trkpt><trkpt lat="45.70520393889164" lon="11.565005920880232"><ele>108.0</ele><time>2026-04-01T21:35:16.999Z</time></trkpt><trkpt lat="45.70508317356475" lon="11.564989439110164"><ele>107.75</ele><time>2026-04-01T21:35:17.999Z</time></trkpt><trkpt lat="45.70495965454137" lon="11.564973665861697"><ele>107.5</ele><time>2026-04-01T21:35:18.999Z</time></trkpt><trkpt lat="45.70483594805514" lon="11.564960485696615"><ele>107.25</ele><time>2026-04-01T21:35:19.999Z</time></trkpt><trkpt lat="45.70471118568117" lon="11.564942331693583"><ele>107.0</ele><time>2026-04-01T21:35:20.999Z</time></trkpt><trkpt lat="45.704585302354346" lon="11.564926197614454"><ele>107.0</ele><time>2026-04-01T21:35:21.999Z</time></trkpt><trkpt lat="45.70445927167724" lon="11.564909645027726"><ele>107.0</ele><time>2026-04-01T21:35:22.999Z</time></trkpt><trkpt lat="45.70433174279282" lon="11.564887865339962"><ele>107.0</ele><time>2026-04-01T21:35:23.999Z</time></trkpt><trkpt lat="45.70420368996256" lon="11.564866317855506"><ele>107.0</ele><time>2026-04-01T21:35:24.999Z</time></trkpt><trkpt lat="45.704076355388864" lon="11.564846023843604"><ele>106.5</ele><time>2026-04-01T21:35:25.999Z</time></trkpt><trkpt lat="45.70394061325127" lon="11.56483075605295"><ele>106.0</ele><time>2026-04-01T21:35:26.999Z</time></trkpt><trkpt lat="45.70380282070213" lon="11.564814098814088"><ele>105.5</ele><time>2026-04-01T21:35:27.999Z</time></trkpt><trkpt lat="45.70366808244068" lon="11.564805171909105"><ele>105.0</ele><time>2026-04-01T21:35:28.999Z</time></trkpt><trkpt lat="45.70353202438476" lon="11.564790379460542"><ele>105.0</ele><time>2026-04-01T21:35:29.999Z</time></trkpt><trkpt lat="45.7033970721169" lon="11.564786121036406"><ele>105.0</ele><time>2026-04-01T21:35:30.999Z</time></trkpt><trkpt lat="45.703261557662806" lon="11.564777687162398"><ele>105.0</ele><time>2026-04-01T21:35:31.999Z</time></trkpt><trkpt lat="45.703121967961536" lon="11.564774980324843"><ele>105.0</ele><time>2026-04-01T21:35:32.999Z</time></trkpt><trkpt lat="45.702983041385274" lon="11.564766298935858"><ele>105.0</ele><time>2026-04-01T21:35:33.999Z</time></trkpt><trkpt lat="45.702846373821515" lon="11.564760286546706"><ele>105.0</ele><time>2026-04-01T21:35:34.999Z</time></trkpt><trkpt lat="45.70270961298892" lon="11.564751168603909"><ele>105.0</ele><time>2026-04-01T21:35:35.999Z</time></trkpt><trkpt lat="45.70257522551751" lon="11.56474471057843"><ele>105.0</ele><time>2026-04-01T21:35:36.999Z</time></trkpt><trkpt lat="45.70244109441428" lon="11.564733986504892"><ele>105.0</ele><time>2026-04-01T21:35:37.999Z</time></trkpt><trkpt lat="45.70230678539416" lon="11.564723993600948"><ele>105.0</ele><time>2026-04-01T21:35:38.999Z</time></trkpt><trkpt lat="45.70217184405737" lon="11.564711022676226"><ele>105.0</ele><time>2026-04-01T21:35:39.999Z</time></trkpt><trkpt lat="45.702038918318806" lon="11.564690683818975"><ele>105.0</ele><time>2026-04-01T21:35:40.999Z</time></trkpt><trkpt lat="45.70190505404381" lon="11.564661915162965"><ele>105.0</ele><time>2026-04-01T21:35:41.999Z</time></trkpt><trkpt lat="45.70177891454925" lon="11.564626793882034"><ele>105.0</ele><time>2026-04-01T21:35:42.999Z</time></trkpt><trkpt lat="45.70165285230221" lon="11.564589802453929"><ele>105.0</ele><time>2026-04-01T21:35:43.999Z</time></trkpt><trkpt lat="45.70153648693894" lon="11.564545688955063"><ele>105.0</ele><time>2026-04-01T21:35:44.999Z</time></trkpt><trkpt lat="45.70142834892896" lon="11.564504268593097"><ele>105.0</ele><time>2026-04-01T21:35:45.999Z</time></trkpt><trkpt lat="45.70132885988424" lon="11.564475612365946"><ele>105.0</ele><time>2026-04-01T21:35:46.999Z</time></trkpt><trkpt lat="45.70122649456453" lon="11.564407894593904"><ele>105.0</ele><time>2026-04-01T21:35:47.999Z</time></trkpt><trkpt lat="45.70115571829862" lon="11.564403116219271"><ele>105.0</ele><time>2026-04-01T21:35:48.999Z</time></trkpt><trkpt lat="45.701086823562484" lon="11.564364832143918"><ele>105.0</ele><time>2026-04-01T21:35:49.999Z</time></trkpt><trkpt lat="45.70103406245729" lon="11.564291125384788"><ele>105.0</ele><time>2026-04-01T21:35:50.999Z</time></trkpt><trkpt lat="45.70100290806897" lon="11.564203650504213"><ele>105.0</ele><time>2026-04-01T21:35:51.999Z</time></trkpt><trkpt lat="45.70099434838238" lon="11.564109354070707"><ele>105.0</ele><time>2026-04-01T21:35:52.999Z</time></trkpt><trkpt lat="45.700975335741795" lon="11.564020658418483"><ele>105.0</ele><time>2026-04-01T21:35:53.999Z</time></trkpt><trkpt lat="45.70095853653213" lon="11.563933275074639"><ele>105.0</ele><time>2026-04-01T21:35:54.999Z</time></trkpt><trkpt lat="45.70088286393804" lon="11.563883238109774"><ele>105.0</ele><time>2026-04-01T21:35:55.999Z</time></trkpt><trkpt lat="45.7008072285183" lon="11.563888883644319"><ele>105.0</ele><time>2026-04-01T21:35:56.999Z</time></trkpt><trkpt lat="45.7007344279158" lon="11.563907040844523"><ele>105.0</ele><time>2026-04-01T21:35:57.999Z</time></trkpt><trkpt lat="45.70066072845249" lon="11.563949837315775"><ele>105.0</ele><time>2026-04-01T21:35:58.999Z</time></trkpt><trkpt lat="45.70058302092583" lon="11.56398752272656"><ele>105.0</ele><time>2026-04-01T21:35:59.999Z</time></trkpt><trkpt lat="45.70048671257343" lon="11.564018504000156"><ele>105.0</ele><time>2026-04-01T21:36:00.999Z</time></trkpt><trkpt lat="45.70040452110151" lon="11.564035805424082"><ele>105.0</ele><time>2026-04-01T21:36:01.999Z</time></trkpt><trkpt lat="45.70031004727568" lon="11.56403649819733"><ele>105.0</ele><time>2026-04-01T21:36:02.999Z</time></trkpt><trkpt lat="45.700210666209806" lon="11.564017366462938"><ele>104.6</ele><time>2026-04-01T21:36:03.999Z</time></trkpt><trkpt lat="45.70011301253414" lon="11.563985825381723"><ele>104.2</ele><time>2026-04-01T21:36:04.999Z</time></trkpt><trkpt lat="45.70000725905667" lon="11.563947237684589"><ele>103.80000000000001</ele><time>2026-04-01T21:36:05.999Z</time></trkpt><trkpt lat="45.69989847808292" lon="11.56391380085471"><ele>103.4</ele><time>2026-04-01T21:36:06.999Z</time></trkpt><trkpt lat="45.699784923173155" lon="11.563881812719021"><ele>103.0</ele><time>2026-04-01T21:36:07.999Z</time></trkpt><trkpt lat="45.699664985258906" lon="11.563855952005358"><ele>103.0</ele><time>2026-04-01T21:36:08.999Z</time></trkpt><trkpt lat="45.69953273527973" lon="11.563826316173929"><ele>103.0</ele><time>2026-04-01T21:36:09.999Z</time></trkpt><trkpt lat="45.69940113294002" lon="11.563812368108819"><ele>103.0</ele><time>2026-04-01T21:36:10.999Z</time></trkpt><trkpt lat="45.69926588848872" lon="11.563803221942846"><ele>103.0</ele><time>2026-04-01T21:36:11.999Z</time></trkpt><trkpt lat="45.69912856513865" lon="11.563783695352397"><ele>102.75</ele><time>2026-04-01T21:36:13Z</time></trkpt><trkpt lat="45.698986367634284" lon="11.563765196602272"><ele>102.5</ele><time>2026-04-01T21:36:14Z</time></trkpt><trkpt lat="45.6988415380844" lon="11.563745200880847"><ele>102.25</ele><time>2026-04-01T21:36:15Z</time></trkpt><trkpt lat="45.698690546765704" lon="11.56372566073922"><ele>102.0</ele><time>2026-04-01T21:36:16Z</time></trkpt><trkpt lat="45.69854082831261" lon="11.563707068350283"><ele>101.66666666666666</ele><time>2026-04-01T21:36:17Z</time></trkpt><trkpt lat="45.698387190213815" lon="11.56369105387184"><ele>101.33333333333333</ele><time>2026-04-01T21:36:18Z</time></trkpt><trkpt lat="45.69823042671125" lon="11.563673145957999"><ele>101.0</ele><time>2026-04-01T21:36:19Z</time></trkpt><trkpt lat="45.69807088707048" lon="11.563655814504411"><ele>101.0</ele><time>2026-04-01T21:36:20Z</time></trkpt><trkpt lat="45.69791065027303" lon="11.563638774631203"><ele>101.0</ele><time>2026-04-01T21:36:21Z</time></trkpt><trkpt lat="45.697750381538185" lon="11.563619958764201"><ele>101.0</ele><time>2026-04-01T21:36:22Z</time></trkpt><trkpt lat="45.69758835658641" lon="11.5636016185185"><ele>101.0</ele><time>2026-04-01T21:36:23Z</time></trkpt><trkpt lat="45.697428164867816" lon="11.563587929019667"><ele>101.0</ele><time>2026-04-01T21:36:24Z</time></trkpt><trkpt lat="45.697264258731295" lon="11.563570295771882"><ele>101.0</ele><time>2026-04-01T21:36:25Z</time></trkpt><trkpt lat="45.697104663273684" lon="11.563550202595417"><ele>101.0</ele><time>2026-04-01T21:36:26Z</time></trkpt><trkpt lat="45.696944113265175" lon="11.563532024555883"><ele>101.0</ele><time>2026-04-01T21:36:27Z</time></trkpt><trkpt lat="45.696784086079546" lon="11.563510576968582"><ele>101.0</ele><time>2026-04-01T21:36:28Z</time></trkpt><trkpt lat="45.696621531208905" lon="11.563488820603311"><ele>100.33333333333333</ele><time>2026-04-01T21:36:29Z</time></trkpt><trkpt lat="45.69646208671646" lon="11.563469156327598"><ele>99.66666666666666</ele><time>2026-04-01T21:36:30Z</time></trkpt><trkpt lat="45.6963040827791" lon="11.5634478798306"><ele>99.0</ele><time>2026-04-01T21:36:31Z</time></trkpt><trkpt lat="45.6961438035665" lon="11.56342847167803"><ele>99.66666666666666</ele><time>2026-04-01T21:36:32Z</time></trkpt><trkpt lat="45.6959845036466" lon="11.563406289661874"><ele>100.33333333333333</ele><time>2026-04-01T21:36:33Z</time></trkpt><trkpt lat="45.69582245683891" lon="11.563386523140316"><ele>101.0</ele><time>2026-04-01T21:36:34Z</time></trkpt><trkpt lat="45.695661048287704" lon="11.563366019666928"><ele>101.0</ele><time>2026-04-01T21:36:35Z</time></trkpt><trkpt lat="45.69549933826432" lon="11.56334593534666"><ele>101.0</ele><time>2026-04-01T21:36:36Z</time></trkpt><trkpt lat="45.69533646826312" lon="11.563324634633627"><ele>101.0</ele><time>2026-04-01T21:36:37Z</time></trkpt><trkpt lat="45.69517230528082" lon="11.56330438715602"><ele>100.66666666666666</ele><time>2026-04-01T21:36:38Z</time></trkpt><trkpt lat="45.6950100564338" lon="11.563283999163732"><ele>100.33333333333334</ele><time>2026-04-01T21:36:39Z</time></trkpt><trkpt lat="45.69485402015795" lon="11.56326465881536"><ele>100.0</ele><time>2026-04-01T21:36:40Z</time></trkpt><trkpt lat="45.69470000750214" lon="11.563245256882896"><ele>100.0</ele><time>2026-04-01T21:36:41Z</time></trkpt><trkpt lat="45.69455117395222" lon="11.563228225117259"><ele>100.0</ele><time>2026-04-01T21:36:42Z</time></trkpt><trkpt lat="45.69440824933241" lon="11.56321646298171"><ele>100.0</ele><time>2026-04-01T21:36:43Z</time></trkpt><trkpt lat="45.69427380670918" lon="11.563209690137446"><ele>100.0</ele><time>2026-04-01T21:36:44Z</time></trkpt><trkpt lat="45.694147672792326" lon="11.563201625576085"><ele>99.8</ele><time>2026-04-01T21:36:45Z</time></trkpt><trkpt lat="45.69403294301757" lon="11.563201554655032"><ele>99.6</ele><time>2026-04-01T21:36:46Z</time></trkpt><trkpt lat="45.69392889419576" lon="11.563202966731128"><ele>99.4</ele><time>2026-04-01T21:36:47Z</time></trkpt><trkpt lat="45.69383440620138" lon="11.56319917068765"><ele>99.2</ele><time>2026-04-01T21:36:48Z</time></trkpt><trkpt lat="45.69374917193901" lon="11.563200513601279"><ele>99.0</ele><time>2026-04-01T21:36:49Z</time></trkpt><trkpt lat="45.693662955893295" lon="11.56310653805152"><ele>98.80000000000001</ele><time>2026-04-01T21:36:50Z</time></trkpt><trkpt lat="45.69357931449755" lon="11.563048582743559"><ele>98.60000000000001</ele><time>2026-04-01T21:36:51Z</time></trkpt><trkpt lat="45.69349615496564" lon="11.562993473034393"><ele>98.4</ele><time>2026-04-01T21:36:52Z</time></trkpt><trkpt lat="45.69339209452011" lon="11.56299017385409"><ele>98.2</ele><time>2026-04-01T21:36:53Z</time></trkpt><trkpt lat="45.693292245170504" lon="11.563041481451128"><ele>98.0</ele><time>2026-04-01T21:36:54Z</time></trkpt><trkpt lat="45.69321685967103" lon="11.56314080497735"><ele>98.0</ele><time>2026-04-01T21:36:55Z</time></trkpt><trkpt lat="45.69312021406165" lon="11.563159118636836"><ele>98.0</ele><time>2026-04-01T21:36:56Z</time></trkpt><trkpt lat="45.69302073322128" lon="11.563136837776687"><ele>98.0</ele><time>2026-04-01T21:36:57Z</time></trkpt><trkpt lat="45.692919742949734" lon="11.563091534171162"><ele>98.0</ele><time>2026-04-01T21:36:58Z</time></trkpt><trkpt lat="45.692812725098754" lon="11.563046260629147"><ele>98.0</ele><time>2026-04-01T21:36:59Z</time></trkpt><trkpt lat="45.692702457571194" lon="11.562994640185844"><ele>98.0</ele><time>2026-04-01T21:37:00Z</time></trkpt><trkpt lat="45.69258947732618" lon="11.56293967210704"><ele>98.0</ele><time>2026-04-01T21:37:01Z</time></trkpt><trkpt lat="45.69247242621984" lon="11.562887357079946"><ele>98.0</ele><time>2026-04-01T21:37:02Z</time></trkpt><trkpt lat="45.69234827923203" lon="11.562844594601232"><ele>98.0</ele><time>2026-04-01T21:37:03Z</time></trkpt><trkpt lat="45.69222027336464" lon="11.562807849600354"><ele>98.0</ele><time>2026-04-01T21:37:04Z</time></trkpt><trkpt lat="45.69208906542326" lon="11.562780040124588"><ele>98.0</ele><time>2026-04-01T21:37:04.999Z</time></trkpt><trkpt lat="45.691952844878365" lon="11.562753932360776"><ele>98.0</ele><time>2026-04-01T21:37:05.999Z</time></trkpt><trkpt lat="45.691811729470956" lon="11.562730542786358"><ele>98.0</ele><time>2026-04-01T21:37:06.999Z</time></trkpt><trkpt lat="45.69167495800819" lon="11.562707111317875"><ele>97.75</ele><time>2026-04-01T21:37:07.999Z</time></trkpt><trkpt lat="45.69153472526172" lon="11.562690781704752"><ele>97.5</ele><time>2026-04-01T21:37:08.999Z</time></trkpt><trkpt lat="45.69139362766905" lon="11.562669226705193"><ele>97.25</ele><time>2026-04-01T21:37:09.999Z</time></trkpt><trkpt lat="45.69124811173913" lon="11.562648360113117"><ele>97.0</ele><time>2026-04-01T21:37:10.999Z</time></trkpt><trkpt lat="45.69110570708159" lon="11.562627579049323"><ele>97.0</ele><time>2026-04-01T21:37:11.999Z</time></trkpt><trkpt lat="45.69096412534352" lon="11.562608338095028"><ele>97.0</ele><time>2026-04-01T21:37:12.999Z</time></trkpt><trkpt lat="45.690824815009854" lon="11.562591916351995"><ele>97.0</ele><time>2026-04-01T21:37:13.999Z</time></trkpt><trkpt lat="45.690686869146774" lon="11.562572624867112"><ele>97.0</ele><time>2026-04-01T21:37:14.999Z</time></trkpt><trkpt lat="45.690545791336454" lon="11.5625637591064"><ele>97.0</ele><time>2026-04-01T21:37:15.999Z</time></trkpt><trkpt lat="45.69040267593468" lon="11.562560898747721"><ele>97.0</ele><time>2026-04-01T21:37:16.999Z</time></trkpt><trkpt lat="45.690261413100146" lon="11.562554503220865"><ele>97.0</ele><time>2026-04-01T21:37:17.999Z</time></trkpt><trkpt lat="45.690120411817695" lon="11.562552717778539"><ele>97.0</ele><time>2026-04-01T21:37:18.999Z</time></trkpt><trkpt lat="45.68997235858583" lon="11.562538575430052"><ele>97.0</ele><time>2026-04-01T21:37:19.999Z</time></trkpt><trkpt lat="45.68982468151808" lon="11.56251380722871"><ele>97.0</ele><time>2026-04-01T21:37:20.999Z</time></trkpt><trkpt lat="45.68967663374202" lon="11.562495240437388"><ele>97.0</ele><time>2026-04-01T21:37:21.999Z</time></trkpt><trkpt lat="45.6895278475336" lon="11.562478381542824"><ele>97.0</ele><time>2026-04-01T21:37:22.999Z</time></trkpt><trkpt lat="45.68937373415753" lon="11.562462088700928"><ele>96.66666666666667</ele><time>2026-04-01T21:37:23.999Z</time></trkpt><trkpt lat="45.689214697715016" lon="11.56244053331085"><ele>96.33333333333334</ele><time>2026-04-01T21:37:24.999Z</time></trkpt><trkpt lat="45.68905224959753" lon="11.562451261762515"><ele>96.0</ele><time>2026-04-01T21:37:25.999Z</time></trkpt><trkpt lat="45.68888880025673" lon="11.562467616661854"><ele>96.0</ele><time>2026-04-01T21:37:26.999Z</time></trkpt><trkpt lat="45.688722606802735" lon="11.562503791105494"><ele>96.0</ele><time>2026-04-01T21:37:27.999Z</time></trkpt><trkpt lat="45.68856128122018" lon="11.562569186765145"><ele>96.0</ele><time>2026-04-01T21:37:28.999Z</time></trkpt><trkpt lat="45.688401520123946" lon="11.562650996900476"><ele>96.0</ele><time>2026-04-01T21:37:29.999Z</time></trkpt><trkpt lat="45.68825127238024" lon="11.562758746389374"><ele>96.0</ele><time>2026-04-01T21:37:30.999Z</time></trkpt><trkpt lat="45.688099378520775" lon="11.562872143613824"><ele>96.0</ele><time>2026-04-01T21:37:31.999Z</time></trkpt><trkpt lat="45.687954855151155" lon="11.56299976996847"><ele>95.66666666666667</ele><time>2026-04-01T21:37:32.999Z</time></trkpt><trkpt lat="45.68780512387296" lon="11.563131106153044"><ele>95.33333333333334</ele><time>2026-04-01T21:37:33.999Z</time></trkpt><trkpt lat="45.68765350166639" lon="11.563263235315985"><ele>95.0</ele><time>2026-04-01T21:37:34.999Z</time></trkpt><trkpt lat="45.68749844620569" lon="11.563396578463816"><ele>95.66666666666667</ele><time>2026-04-01T21:37:35.999Z</time></trkpt><trkpt lat="45.68734522693786" lon="11.563528880251042"><ele>96.33333333333334</ele><time>2026-04-01T21:37:36.999Z</time></trkpt><trkpt lat="45.68719834535437" lon="11.56365771876447"><ele>97.0</ele><time>2026-04-01T21:37:37.999Z</time></trkpt><trkpt lat="45.687053623156444" lon="11.563786746248253"><ele>96.33333333333334</ele><time>2026-04-01T21:37:38.999Z</time></trkpt><trkpt lat="45.68690549449419" lon="11.563913495338491"><ele>95.66666666666667</ele><time>2026-04-01T21:37:39.999Z</time></trkpt><trkpt lat="45.68676131159751" lon="11.56403550136988"><ele>95.0</ele><time>2026-04-01T21:37:40.999Z</time></trkpt><trkpt lat="45.68661552609488" lon="11.564158461505615"><ele>95.0</ele><time>2026-04-01T21:37:41.999Z</time></trkpt><trkpt lat="45.68647136445077" lon="11.564286594631078"><ele>95.0</ele><time>2026-04-01T21:37:42.999Z</time></trkpt><trkpt lat="45.68632256913888" lon="11.564410033148832"><ele>95.0</ele><time>2026-04-01T21:37:43.999Z</time></trkpt><trkpt lat="45.686174770900664" lon="11.564537891970888"><ele>94.66666666666667</ele><time>2026-04-01T21:37:44.999Z</time></trkpt><trkpt lat="45.68602897890563" lon="11.564664386994671"><ele>94.33333333333333</ele><time>2026-04-01T21:37:45.999Z</time></trkpt><trkpt lat="45.68588386947907" lon="11.564792903605106"><ele>94.0</ele><time>2026-04-01T21:37:46.999Z</time></trkpt><trkpt lat="45.68573751527327" lon="11.56491666898805"><ele>94.0</ele><time>2026-04-01T21:37:47.999Z</time></trkpt><trkpt lat="45.68559157368091" lon="11.56504366555338"><ele>94.0</ele><time>2026-04-01T21:37:48.999Z</time></trkpt><trkpt lat="45.68544777753495" lon="11.565166639068194"><ele>94.0</ele><time>2026-04-01T21:37:49.999Z</time></trkpt><trkpt lat="45.685304456244815" lon="11.565293174169918"><ele>93.0</ele><time>2026-04-01T21:37:50.999Z</time></trkpt><trkpt lat="45.68516132918519" lon="11.565419335123044"><ele>92.0</ele><time>2026-04-01T21:37:51.999Z</time></trkpt><trkpt lat="45.68501590953806" lon="11.565542000948021"><ele>91.0</ele><time>2026-04-01T21:37:52.999Z</time></trkpt><trkpt lat="45.684871034829925" lon="11.565661138034093"><ele>91.0</ele><time>2026-04-01T21:37:53.999Z</time></trkpt><trkpt lat="45.68472558444653" lon="11.56578375457411"><ele>91.0</ele><time>2026-04-01T21:37:54.999Z</time></trkpt><trkpt lat="45.68458289043102" lon="11.565905060601816"><ele>91.0</ele><time>2026-04-01T21:37:55.999Z</time></trkpt><trkpt lat="45.68443827375379" lon="11.566027687714406"><ele>90.66666666666666</ele><time>2026-04-01T21:37:56.999Z</time></trkpt><trkpt lat="45.68429420638503" lon="11.566150411031142"><ele>90.33333333333333</ele><time>2026-04-01T21:37:57.999Z</time></trkpt><trkpt lat="45.68415073982465" lon="11.566278055768953"><ele>90.0</ele><time>2026-04-01T21:37:58.999Z</time></trkpt><trkpt lat="45.68400628345962" lon="11.566403882182628"><ele>90.0</ele><time>2026-04-01T21:37:59.999Z</time></trkpt><trkpt lat="45.683860798073205" lon="11.566528390425056"><ele>90.0</ele><time>2026-04-01T21:38:00.999Z</time></trkpt><trkpt lat="45.683712621603085" lon="11.56665504176577"><ele>90.0</ele><time>2026-04-01T21:38:01.999Z</time></trkpt><trkpt lat="45.683563746612805" lon="11.566782759858306"><ele>90.0</ele><time>2026-04-01T21:38:02.999Z</time></trkpt><trkpt lat="45.683417290890226" lon="11.56690912385214"><ele>90.0</ele><time>2026-04-01T21:38:03.999Z</time></trkpt><trkpt lat="45.68326453796333" lon="11.567039204028037"><ele>90.0</ele><time>2026-04-01T21:38:04.999Z</time></trkpt><trkpt lat="45.683114440063456" lon="11.567165662467325"><ele>90.0</ele><time>2026-04-01T21:38:05.999Z</time></trkpt><trkpt lat="45.68295981055462" lon="11.567295899918403"><ele>90.0</ele><time>2026-04-01T21:38:06.999Z</time></trkpt><trkpt lat="45.682805189372026" lon="11.567427980365913"><ele>90.0</ele><time>2026-04-01T21:38:07.999Z</time></trkpt><trkpt lat="45.68265045707076" lon="11.56756319917156"><ele>90.0</ele><time>2026-04-01T21:38:08.999Z</time></trkpt><trkpt lat="45.68249180380743" lon="11.567699455414228"><ele>90.0</ele><time>2026-04-01T21:38:09.999Z</time></trkpt><trkpt lat="45.682334121383256" lon="11.567835990870382"><ele>90.0</ele><time>2026-04-01T21:38:10.998Z</time></trkpt><trkpt lat="45.682178508341565" lon="11.567969684088382"><ele>90.0</ele><time>2026-04-01T21:38:11.998Z</time></trkpt><trkpt lat="45.68202178270513" lon="11.568106285199919"><ele>90.0</ele><time>2026-04-01T21:38:12.998Z</time></trkpt><trkpt lat="45.68186469511935" lon="11.568243133000122"><ele>90.0</ele><time>2026-04-01T21:38:13.998Z</time></trkpt><trkpt lat="45.681706001723676" lon="11.568381256509607"><ele>89.33333333333333</ele><time>2026-04-01T21:38:14.998Z</time></trkpt><trkpt lat="45.68154255877157" lon="11.568519415059045"><ele>88.66666666666666</ele><time>2026-04-01T21:38:15.998Z</time></trkpt><trkpt lat="45.68137230736263" lon="11.568659673534755"><ele>88.0</ele><time>2026-04-01T21:38:16.998Z</time></trkpt><trkpt lat="45.68119972055047" lon="11.56879974894802"><ele>88.0</ele><time>2026-04-01T21:38:17.998Z</time></trkpt><trkpt lat="45.68101982509916" lon="11.568944278408482"><ele>88.0</ele><time>2026-04-01T21:38:19Z</time></trkpt><trkpt lat="45.68083648505246" lon="11.56908406275408"><ele>88.0</ele><time>2026-04-01T21:38:20Z</time></trkpt><trkpt lat="45.68064037330159" lon="11.56921614862442"><ele>88.0</ele><time>2026-04-01T21:38:21Z</time></trkpt><trkpt lat="45.68044101021881" lon="11.569336969054644"><ele>88.0</ele><time>2026-04-01T21:38:22Z</time></trkpt><trkpt lat="45.68023118018117" lon="11.56945350145984"><ele>88.0</ele><time>2026-04-01T21:38:23Z</time></trkpt><trkpt lat="45.68001813026364" lon="11.569564871263825"><ele>88.0</ele><time>2026-04-01T21:38:24Z</time></trkpt><trkpt lat="45.67980343460101" lon="11.569682090356363"><ele>88.0</ele><time>2026-04-01T21:38:25Z</time></trkpt><trkpt lat="45.67958648931137" lon="11.569796727385127"><ele>87.0</ele><time>2026-04-01T21:38:26Z</time></trkpt><trkpt lat="45.67936795072531" lon="11.569909858599546"><ele>86.0</ele><time>2026-04-01T21:38:27Z</time></trkpt><trkpt lat="45.67914355873338" lon="11.570023312638346"><ele>86.0</ele><time>2026-04-01T21:38:28Z</time></trkpt><trkpt lat="45.67891848091202" lon="11.570141323946048"><ele>86.0</ele><time>2026-04-01T21:38:29Z</time></trkpt><trkpt lat="45.678691854443485" lon="11.570255989503138"><ele>86.5</ele><time>2026-04-01T21:38:30Z</time></trkpt><trkpt lat="45.67846583625275" lon="11.570372685883848"><ele>87.0</ele><time>2026-04-01T21:38:31Z</time></trkpt><trkpt lat="45.67825013083211" lon="11.570487606010408"><ele>87.0</ele><time>2026-04-01T21:38:32Z</time></trkpt><trkpt lat="45.67803392139046" lon="11.570603055007277"><ele>87.0</ele><time>2026-04-01T21:38:33Z</time></trkpt><trkpt lat="45.677823367390154" lon="11.570709456728444"><ele>86.66666666666667</ele><time>2026-04-01T21:38:34Z</time></trkpt><trkpt lat="45.677617422881056" lon="11.570810757211728"><ele>86.33333333333334</ele><time>2026-04-01T21:38:35Z</time></trkpt><trkpt lat="45.67741320267034" lon="11.570915651127189"><ele>86.0</ele><time>2026-04-01T21:38:36Z</time></trkpt><trkpt lat="45.677208987327596" lon="11.571018708796215"><ele>86.0</ele><time>2026-04-01T21:38:37Z</time></trkpt><trkpt lat="45.67700687174068" lon="11.57112816228986"><ele>86.0</ele><time>2026-04-01T21:38:38Z</time></trkpt><trkpt lat="45.676806885887174" lon="11.571235510668147"><ele>86.0</ele><time>2026-04-01T21:38:39Z</time></trkpt><trkpt lat="45.67660522516015" lon="11.571340206883335"><ele>86.0</ele><time>2026-04-01T21:38:40Z</time></trkpt><trkpt lat="45.67640620284668" lon="11.571448486534033"><ele>86.0</ele><time>2026-04-01T21:38:41Z</time></trkpt><trkpt lat="45.67620641056778" lon="11.571553333672913"><ele>86.0</ele><time>2026-04-01T21:38:42Z</time></trkpt><trkpt lat="45.67600551618048" lon="11.571658358630932"><ele>86.0</ele><time>2026-04-01T21:38:43Z</time></trkpt><trkpt lat="45.675805483148366" lon="11.571758294643118"><ele>86.0</ele><time>2026-04-01T21:38:44Z</time></trkpt><trkpt lat="45.675606107524224" lon="11.571858091008043"><ele>86.0</ele><time>2026-04-01T21:38:45Z</time></trkpt><trkpt lat="45.67540356004043" lon="11.571960204358058"><ele>84.66666666666667</ele><time>2026-04-01T21:38:46Z</time></trkpt><trkpt lat="45.67520574832071" lon="11.57205292535916"><ele>83.33333333333333</ele><time>2026-04-01T21:38:47Z</time></trkpt><trkpt lat="45.67500005676565" lon="11.572131217087195"><ele>82.0</ele><time>2026-04-01T21:38:48Z</time></trkpt><trkpt lat="45.674792037453756" lon="11.572201406915946"><ele>82.0</ele><time>2026-04-01T21:38:49Z</time></trkpt><trkpt lat="45.674581113858004" lon="11.572266173175018"><ele>82.0</ele><time>2026-04-01T21:38:50Z</time></trkpt><trkpt lat="45.674370570202605" lon="11.572327760119302"><ele>82.0</ele><time>2026-04-01T21:38:51Z</time></trkpt><trkpt lat="45.67415921645384" lon="11.572388858954644"><ele>81.33333333333333</ele><time>2026-04-01T21:38:52Z</time></trkpt><trkpt lat="45.67394915778852" lon="11.572448751187773"><ele>80.66666666666667</ele><time>2026-04-01T21:38:53Z</time></trkpt><trkpt lat="45.67374025903705" lon="11.572512864354314"><ele>80.0</ele><time>2026-04-01T21:38:54Z</time></trkpt><trkpt lat="45.673528184352726" lon="11.57257557819472"><ele>79.66666666666667</ele><time>2026-04-01T21:38:55Z</time></trkpt><trkpt lat="45.673318776663535" lon="11.572638384753924"><ele>79.33333333333333</ele><time>2026-04-01T21:38:56Z</time></trkpt><trkpt lat="45.673108309521865" lon="11.572703206571513"><ele>79.0</ele><time>2026-04-01T21:38:57Z</time></trkpt><trkpt lat="45.672897157111244" lon="11.572768338015312"><ele>79.66666666666666</ele><time>2026-04-01T21:38:58Z</time></trkpt><trkpt lat="45.67268651796403" lon="11.572831171795233"><ele>80.33333333333333</ele><time>2026-04-01T21:38:59Z</time></trkpt><trkpt lat="45.67247616592198" lon="11.572892427390341"><ele>81.0</ele><time>2026-04-01T21:39:00Z</time></trkpt><trkpt lat="45.672268764134316" lon="11.572953877887326"><ele>80.0</ele><time>2026-04-01T21:39:01Z</time></trkpt><trkpt lat="45.672068531745076" lon="11.5730120434594"><ele>79.0</ele><time>2026-04-01T21:39:02Z</time></trkpt><trkpt lat="45.67187089894264" lon="11.57307350691587"><ele>78.0</ele><time>2026-04-01T21:39:03Z</time></trkpt><trkpt lat="45.67167959096808" lon="11.573132006711127"><ele>78.0</ele><time>2026-04-01T21:39:04Z</time></trkpt><trkpt lat="45.6714881670654" lon="11.573169072016958"><ele>78.0</ele><time>2026-04-01T21:39:05Z</time></trkpt><trkpt lat="45.671305684531035" lon="11.573226664833609"><ele>78.0</ele><time>2026-04-01T21:39:06Z</time></trkpt><trkpt lat="45.67112527204528" lon="11.573295071895709"><ele>77.66666666666667</ele><time>2026-04-01T21:39:07Z</time></trkpt><trkpt lat="45.67094877683846" lon="11.573372614790564"><ele>77.33333333333334</ele><time>2026-04-01T21:39:08Z</time></trkpt><trkpt lat="45.67078370301797" lon="11.573463841781443"><ele>77.0</ele><time>2026-04-01T21:39:09Z</time></trkpt><trkpt lat="45.6706278167254" lon="11.573566783161892"><ele>77.0</ele><time>2026-04-01T21:39:09.999Z</time></trkpt><trkpt lat="45.67049115222712" lon="11.573673896716688"><ele>77.0</ele><time>2026-04-01T21:39:10.999Z</time></trkpt><trkpt lat="45.6703771400504" lon="11.573792402863857"><ele>77.0</ele><time>2026-04-01T21:39:11.999Z</time></trkpt><trkpt lat="45.67029629441458" lon="11.573903554347584"><ele>77.0</ele><time>2026-04-01T21:39:12.999Z</time></trkpt><trkpt lat="45.6702179205165" lon="11.573967914284342"><ele>77.42857142857143</ele><time>2026-04-01T21:39:13.999Z</time></trkpt><trkpt lat="45.67014649549094" lon="11.573984068270132"><ele>77.85714285714286</ele><time>2026-04-01T21:39:14.999Z</time></trkpt><trkpt lat="45.67008131060283" lon="11.573969091673423"><ele>78.28571428571428</ele><time>2026-04-01T21:39:15.999Z</time></trkpt><trkpt lat="45.67001768408514" lon="11.573938186654587"><ele>78.71428571428572</ele><time>2026-04-01T21:39:16.999Z</time></trkpt><trkpt lat="45.6699505842008" lon="11.573924866551033"><ele>79.14285714285714</ele><time>2026-04-01T21:39:17.999Z</time></trkpt><trkpt lat="45.669886608363306" lon="11.573954003401253"><ele>79.57142857142857</ele><time>2026-04-01T21:39:18.999Z</time></trkpt><trkpt lat="45.66983666277481" lon="11.574022443367754"><ele>80.0</ele><time>2026-04-01T21:39:19.999Z</time></trkpt><trkpt lat="45.6697951723708" lon="11.574111025717247"><ele>80.0</ele><time>2026-04-01T21:39:20.999Z</time></trkpt><trkpt lat="45.66975979505748" lon="11.57421092134525"><ele>80.0</ele><time>2026-04-01T21:39:21.999Z</time></trkpt><trkpt lat="45.66971316024412" lon="11.57431088689003"><ele>80.0</ele><time>2026-04-01T21:39:22.999Z</time></trkpt><trkpt lat="45.66964868457677" lon="11.5744098298239"><ele>80.0</ele><time>2026-04-01T21:39:23.999Z</time></trkpt><trkpt lat="45.669563692138105" lon="11.574500843750853"><ele>80.0</ele><time>2026-04-01T21:39:24.999Z</time></trkpt><trkpt lat="45.66947100221507" lon="11.574597204128631"><ele>79.75</ele><time>2026-04-01T21:39:25.999Z</time></trkpt><trkpt lat="45.669383069531364" lon="11.574679539056676"><ele>79.5</ele><time>2026-04-01T21:39:26.999Z</time></trkpt><trkpt lat="45.669284001326794" lon="11.574779553934047"><ele>79.25</ele><time>2026-04-01T21:39:27.999Z</time></trkpt><trkpt lat="45.669177977688264" lon="11.574875653613976"><ele>79.0</ele><time>2026-04-01T21:39:28.999Z</time></trkpt><trkpt lat="45.66907016566553" lon="11.574974557062609"><ele>79.0</ele><time>2026-04-01T21:39:29.999Z</time></trkpt><trkpt lat="45.66895006640482" lon="11.57506501974849"><ele>79.0</ele><time>2026-04-01T21:39:30.999Z</time></trkpt><trkpt lat="45.66882849976846" lon="11.57516105536906"><ele>79.0</ele><time>2026-04-01T21:39:31.999Z</time></trkpt><trkpt lat="45.66869862940046" lon="11.575259754010624"><ele>79.0</ele><time>2026-04-01T21:39:32.999Z</time></trkpt><trkpt lat="45.668561720282526" lon="11.575359735578541"><ele>78.66666666666666</ele><time>2026-04-01T21:39:33.999Z</time></trkpt><trkpt lat="45.6684262164182" lon="11.575457720404103"><ele>78.33333333333333</ele><time>2026-04-01T21:39:34.999Z</time></trkpt><trkpt lat="45.66829221635523" lon="11.575555830853691"><ele>78.0</ele><time>2026-04-01T21:39:35.999Z</time></trkpt><trkpt lat="45.668148247866625" lon="11.575655925341774"><ele>78.0</ele><time>2026-04-01T21:39:36.999Z</time></trkpt><trkpt lat="45.668000741709626" lon="11.57575667820917"><ele>78.0</ele><time>2026-04-01T21:39:37.999Z</time></trkpt><trkpt lat="45.66784987878299" lon="11.5758586330966"><ele>78.0</ele><time>2026-04-01T21:39:38.999Z</time></trkpt><trkpt lat="45.66769812639902" lon="11.57596154959551"><ele>78.33333333333333</ele><time>2026-04-01T21:39:39.999Z</time></trkpt><trkpt lat="45.66754541302778" lon="11.57606646234043"><ele>78.66666666666666</ele><time>2026-04-01T21:39:40.999Z</time></trkpt><trkpt lat="45.66738941407461" lon="11.576171686814446"><ele>79.0</ele><time>2026-04-01T21:39:41.999Z</time></trkpt><trkpt lat="45.667232244213665" lon="11.576282211504436"><ele>78.33333333333333</ele><time>2026-04-01T21:39:42.999Z</time></trkpt><trkpt lat="45.66707196760485" lon="11.57639123319506"><ele>77.66666666666667</ele><time>2026-04-01T21:39:43.999Z</time></trkpt><trkpt lat="45.66690778557447" lon="11.57650218154441"><ele>77.0</ele><time>2026-04-01T21:39:44.999Z</time></trkpt><trkpt lat="45.66674675379465" lon="11.576615600069147"><ele>77.0</ele><time>2026-04-01T21:39:45.999Z</time></trkpt><trkpt lat="45.66658184872543" lon="11.57672886879574"><ele>77.0</ele><time>2026-04-01T21:39:46.999Z</time></trkpt><trkpt lat="45.666415667105426" lon="11.576843457964685"><ele>77.0</ele><time>2026-04-01T21:39:47.999Z</time></trkpt><trkpt lat="45.666246684855366" lon="11.576959699778984"><ele>76.66666666666667</ele><time>2026-04-01T21:39:48.999Z</time></trkpt><trkpt lat="45.66608284727416" lon="11.577074209163985"><ele>76.33333333333333</ele><time>2026-04-01T21:39:49.999Z</time></trkpt><trkpt lat="45.66590807709916" lon="11.577167686645097"><ele>76.0</ele><time>2026-04-01T21:39:50.999Z</time></trkpt><trkpt lat="45.66574775058796" lon="11.577302005540698"><ele>76.0</ele><time>2026-04-01T21:39:51.999Z</time></trkpt><trkpt lat="45.665580150406925" lon="11.577416824042402"><ele>76.0</ele><time>2026-04-01T21:39:52.999Z</time></trkpt><trkpt lat="45.66540929325059" lon="11.577529945590149"><ele>76.0</ele><time>2026-04-01T21:39:53.999Z</time></trkpt><trkpt lat="45.66524002854928" lon="11.577646804875084"><ele>76.33333333333333</ele><time>2026-04-01T21:39:54.999Z</time></trkpt><trkpt lat="45.665070284547106" lon="11.577763586810946"><ele>76.66666666666667</ele><time>2026-04-01T21:39:55.999Z</time></trkpt><trkpt lat="45.66490051203692" lon="11.57788296438529"><ele>77.0</ele><time>2026-04-01T21:39:56.999Z</time></trkpt><trkpt lat="45.66473205282386" lon="11.577998707674826"><ele>77.0</ele><time>2026-04-01T21:39:57.999Z</time></trkpt><trkpt lat="45.66456410378326" lon="11.578112632946299"><ele>77.0</ele><time>2026-04-01T21:39:58.999Z</time></trkpt><trkpt lat="45.66439404668416" lon="11.5782237073754"><ele>77.0</ele><time>2026-04-01T21:39:59.999Z</time></trkpt><trkpt lat="45.664224761871886" lon="11.578329725680428"><ele>76.33333333333334</ele><time>2026-04-01T21:40:00.999Z</time></trkpt><trkpt lat="45.664055415961435" lon="11.578424519629495"><ele>75.66666666666667</ele><time>2026-04-01T21:40:01.999Z</time></trkpt><trkpt lat="45.66388511903656" lon="11.578514249763819"><ele>75.0</ele><time>2026-04-01T21:40:02.999Z</time></trkpt><trkpt lat="45.663714532790024" lon="11.578599494822852"><ele>74.0</ele><time>2026-04-01T21:40:03.999Z</time></trkpt><trkpt lat="45.663540086842815" lon="11.57868515521879"><ele>73.0</ele><time>2026-04-01T21:40:04.999Z</time></trkpt><trkpt lat="45.66336782420519" lon="11.578769898106852"><ele>72.0</ele><time>2026-04-01T21:40:05.999Z</time></trkpt><trkpt lat="45.66319484029926" lon="11.578854488358417"><ele>72.0</ele><time>2026-04-01T21:40:06.999Z</time></trkpt><trkpt lat="45.66302207195326" lon="11.57893717218031"><ele>72.0</ele><time>2026-04-01T21:40:07.999Z</time></trkpt><trkpt lat="45.66284784852693" lon="11.579018126610306"><ele>72.0</ele><time>2026-04-01T21:40:08.999Z</time></trkpt><trkpt lat="45.66267490701346" lon="11.579102995183627"><ele>72.66666666666667</ele><time>2026-04-01T21:40:09.999Z</time></trkpt><trkpt lat="45.662499251467814" lon="11.579186929525456"><ele>73.33333333333334</ele><time>2026-04-01T21:40:10.999Z</time></trkpt><trkpt lat="45.66232128450074" lon="11.579271700829146"><ele>74.0</ele><time>2026-04-01T21:40:11.999Z</time></trkpt><trkpt lat="45.66214305712806" lon="11.579354083401919"><ele>74.0</ele><time>2026-04-01T21:40:12.999Z</time></trkpt><trkpt lat="45.66196332715522" lon="11.579439120041437"><ele>74.0</ele><time>2026-04-01T21:40:13.999Z</time></trkpt><trkpt lat="45.66178248848834" lon="11.579526053088081"><ele>74.0</ele><time>2026-04-01T21:40:14.998Z</time></trkpt><trkpt lat="45.661601525179925" lon="11.579612828188504"><ele>74.0</ele><time>2026-04-01T21:40:15.998Z</time></trkpt><trkpt lat="45.66142009711535" lon="11.579699188212597"><ele>74.0</ele><time>2026-04-01T21:40:16.998Z</time></trkpt><trkpt lat="45.661241196061454" lon="11.57978091217819"><ele>74.0</ele><time>2026-04-01T21:40:17.998Z</time></trkpt><trkpt lat="45.661063978813154" lon="11.579865880708926"><ele>73.33333333333334</ele><time>2026-04-01T21:40:18.998Z</time></trkpt><trkpt lat="45.66088636698751" lon="11.57994812429258"><ele>72.66666666666667</ele><time>2026-04-01T21:40:19.998Z</time></trkpt><trkpt lat="45.66071217849598" lon="11.580038553599925"><ele>72.0</ele><time>2026-04-01T21:40:20.998Z</time></trkpt><trkpt lat="45.660538747560565" lon="11.580128381443359"><ele>72.0</ele><time>2026-04-01T21:40:21.998Z</time></trkpt><trkpt lat="45.6603661801753" lon="11.580215287084973"><ele>72.0</ele><time>2026-04-01T21:40:22.998Z</time></trkpt><trkpt lat="45.66018770740081" lon="11.580280184876107"><ele>72.0</ele><time>2026-04-01T21:40:23.998Z</time></trkpt><trkpt lat="45.660015864083" lon="11.580387549182968"><ele>72.0</ele><time>2026-04-01T21:40:25Z</time></trkpt><trkpt lat="45.65983917405608" lon="11.580470181027595"><ele>72.0</ele><time>2026-04-01T21:40:26Z</time></trkpt><trkpt lat="45.659662025061735" lon="11.580557213002425"><ele>72.0</ele><time>2026-04-01T21:40:27Z</time></trkpt><trkpt lat="45.659486025419284" lon="11.580639783530817"><ele>72.0</ele><time>2026-04-01T21:40:28Z</time></trkpt><trkpt lat="45.65930876138942" lon="11.580725763016808"><ele>72.0</ele><time>2026-04-01T21:40:29Z</time></trkpt><trkpt lat="45.65913089296979" lon="11.580811412996189"><ele>72.0</ele><time>2026-04-01T21:40:30Z</time></trkpt><trkpt lat="45.65895138036469" lon="11.580895898242016"><ele>72.0</ele><time>2026-04-01T21:40:31Z</time></trkpt><trkpt lat="45.658772892489836" lon="11.580978371670296"><ele>72.0</ele><time>2026-04-01T21:40:32Z</time></trkpt><trkpt lat="45.65859681153497" lon="11.581061148256579"><ele>72.0</ele><time>2026-04-01T21:40:33Z</time></trkpt><trkpt lat="45.65841996738741" lon="11.58114189315687"><ele>71.66666666666667</ele><time>2026-04-01T21:40:34Z</time></trkpt><trkpt lat="45.65824475310357" lon="11.581226495454636"><ele>71.33333333333334</ele><time>2026-04-01T21:40:35Z</time></trkpt><trkpt lat="45.65807255573784" lon="11.581310498092206"><ele>71.0</ele><time>2026-04-01T21:40:36Z</time></trkpt><trkpt lat="45.65790039535459" lon="11.581391759424534"><ele>71.0</ele><time>2026-04-01T21:40:37Z</time></trkpt><trkpt lat="45.65772682605127" lon="11.58147402057056"><ele>71.0</ele><time>2026-04-01T21:40:38Z</time></trkpt><trkpt lat="45.65755771670395" lon="11.581555060687252"><ele>71.0</ele><time>2026-04-01T21:40:39Z</time></trkpt><trkpt lat="45.65738880169448" lon="11.581631871311155"><ele>71.0</ele><time>2026-04-01T21:40:40Z</time></trkpt><trkpt lat="45.65722361322888" lon="11.581713142933621"><ele>71.0</ele><time>2026-04-01T21:40:41Z</time></trkpt><trkpt lat="45.65705875026217" lon="11.58179456279093"><ele>71.0</ele><time>2026-04-01T21:40:42Z</time></trkpt><trkpt lat="45.656891787109096" lon="11.581873150641893"><ele>70.66666666666667</ele><time>2026-04-01T21:40:43Z</time></trkpt><trkpt lat="45.65672632027197" lon="11.581949447943606"><ele>70.33333333333333</ele><time>2026-04-01T21:40:44Z</time></trkpt><trkpt lat="45.65656450452802" lon="11.582029553331914"><ele>70.0</ele><time>2026-04-01T21:40:45Z</time></trkpt><trkpt lat="45.6564013861533" lon="11.582106406358093"><ele>70.0</ele><time>2026-04-01T21:40:46Z</time></trkpt><trkpt lat="45.6562391568428" lon="11.582185952905576"><ele>70.0</ele><time>2026-04-01T21:40:47Z</time></trkpt><trkpt lat="45.65607798878025" lon="11.582261851900018"><ele>70.0</ele><time>2026-04-01T21:40:48Z</time></trkpt><trkpt lat="45.655917746100386" lon="11.58233503314847"><ele>70.33333333333333</ele><time>2026-04-01T21:40:49Z</time></trkpt><trkpt lat="45.655755226802235" lon="11.582411280927156"><ele>70.66666666666667</ele><time>2026-04-01T21:40:50Z</time></trkpt><trkpt lat="45.65559169673405" lon="11.582487838856608"><ele>71.0</ele><time>2026-04-01T21:40:51Z</time></trkpt><trkpt lat="45.65543153727413" lon="11.582568024414586"><ele>70.0</ele><time>2026-04-01T21:40:52Z</time></trkpt><trkpt lat="45.65526754654982" lon="11.582647337013995"><ele>69.0</ele><time>2026-04-01T21:40:53Z</time></trkpt><trkpt lat="45.655109606871434" lon="11.582727568404493"><ele>68.0</ele><time>2026-04-01T21:40:54Z</time></trkpt><trkpt lat="45.654953343296775" lon="11.582801720292482"><ele>68.33333333333334</ele><time>2026-04-01T21:40:55Z</time></trkpt><trkpt lat="45.65479999874119" lon="11.582876510868013"><ele>68.66666666666667</ele><time>2026-04-01T21:40:56Z</time></trkpt><trkpt lat="45.65464308216371" lon="11.582955022812362"><ele>69.0</ele><time>2026-04-01T21:40:57Z</time></trkpt><trkpt lat="45.65448743726591" lon="11.583032210339102"><ele>68.66666666666667</ele><time>2026-04-01T21:40:58Z</time></trkpt><trkpt lat="45.65433391876817" lon="11.583102529774164"><ele>68.33333333333334</ele><time>2026-04-01T21:40:59Z</time></trkpt><trkpt lat="45.65418992860931" lon="11.583177198216136"><ele>68.0</ele><time>2026-04-01T21:41:00Z</time></trkpt><trkpt lat="45.65404656983358" lon="11.58324793964505"><ele>68.0</ele><time>2026-04-01T21:41:01Z</time></trkpt><trkpt lat="45.653909908879285" lon="11.583312183543002"><ele>68.0</ele><time>2026-04-01T21:41:02Z</time></trkpt><trkpt lat="45.65377985960209" lon="11.583372588493244"><ele>68.0</ele><time>2026-04-01T21:41:03Z</time></trkpt><trkpt lat="45.65366138752908" lon="11.58343071629554"><ele>68.0</ele><time>2026-04-01T21:41:04Z</time></trkpt><trkpt lat="45.65354731788773" lon="11.5834866820785"><ele>68.2</ele><time>2026-04-01T21:41:05Z</time></trkpt><trkpt lat="45.65344606201772" lon="11.583536441515996"><ele>68.4</ele><time>2026-04-01T21:41:06Z</time></trkpt><trkpt lat="45.65336008724689" lon="11.583572771780855"><ele>68.60000000000001</ele><time>2026-04-01T21:41:07Z</time></trkpt><trkpt lat="45.653288883726304" lon="11.583598335551455"><ele>68.8</ele><time>2026-04-01T21:41:08Z</time></trkpt><trkpt lat="45.65316487689295" lon="11.583626306461687"><ele>69.0</ele><time>2026-04-01T21:41:10Z</time></trkpt><trkpt lat="45.65310006161216" lon="11.583628800016557"><ele>69.0</ele><time>2026-04-01T21:41:11Z</time></trkpt><trkpt lat="45.6530262403144" lon="11.583615335221742"><ele>69.0</ele><time>2026-04-01T21:41:12Z</time></trkpt><trkpt lat="45.652945686355295" lon="11.583579241480852"><ele>69.0</ele><time>2026-04-01T21:41:13Z</time></trkpt><trkpt lat="45.6528692390485" lon="11.583519810824457"><ele>69.0</ele><time>2026-04-01T21:41:13.999Z</time></trkpt><trkpt lat="45.65278841127544" lon="11.583460192433595"><ele>69.0</ele><time>2026-04-01T21:41:14.999Z</time></trkpt><trkpt lat="45.652717035518194" lon="11.58333974191286"><ele>69.0</ele><time>2026-04-01T21:41:15.999Z</time></trkpt><trkpt lat="45.65264442019641" lon="11.583223802370284"><ele>68.8</ele><time>2026-04-01T21:41:16.999Z</time></trkpt><trkpt lat="45.652579481254406" lon="11.583110637852618"><ele>68.60000000000001</ele><time>2026-04-01T21:41:17.999Z</time></trkpt><trkpt lat="45.652513110983385" lon="11.582986117995869"><ele>68.4</ele><time>2026-04-01T21:41:18.999Z</time></trkpt><trkpt lat="45.65244125618528" lon="11.58286213387182"><ele>68.2</ele><time>2026-04-01T21:41:19.999Z</time></trkpt><trkpt lat="45.65236723681076" lon="11.582732242895403"><ele>68.0</ele><time>2026-04-01T21:41:20.999Z</time></trkpt><trkpt lat="45.65229301470186" lon="11.582592283472357"><ele>68.0</ele><time>2026-04-01T21:41:21.999Z</time></trkpt><trkpt lat="45.65221096351013" lon="11.5824563950764"><ele>68.0</ele><time>2026-04-01T21:41:22.999Z</time></trkpt><trkpt lat="45.65212603019938" lon="11.582315981529005"><ele>68.0</ele><time>2026-04-01T21:41:23.999Z</time></trkpt><trkpt lat="45.652037581133406" lon="11.582169695358719"><ele>68.0</ele><time>2026-04-01T21:41:24.999Z</time></trkpt><trkpt lat="45.65194294177351" lon="11.582025356073842"><ele>67.75</ele><time>2026-04-01T21:41:25.999Z</time></trkpt><trkpt lat="45.65184753339765" lon="11.581880687683595"><ele>67.5</ele><time>2026-04-01T21:41:26.999Z</time></trkpt><trkpt lat="45.65174765234085" lon="11.581736968921781"><ele>67.25</ele><time>2026-04-01T21:41:27.999Z</time></trkpt><trkpt lat="45.651670500573246" lon="11.5815675187535"><ele>67.0</ele><time>2026-04-01T21:41:28.999Z</time></trkpt><trkpt lat="45.65157292078848" lon="11.58141781951314"><ele>67.0</ele><time>2026-04-01T21:41:29.999Z</time></trkpt><trkpt lat="45.6514714801795" lon="11.581272420241907"><ele>67.0</ele><time>2026-04-01T21:41:30.999Z</time></trkpt><trkpt lat="45.65136965822464" lon="11.581122734071787"><ele>67.0</ele><time>2026-04-01T21:41:31.999Z</time></trkpt><trkpt lat="45.65127025863617" lon="11.580987111011408"><ele>67.0</ele><time>2026-04-01T21:41:32.999Z</time></trkpt><trkpt lat="45.65117511284622" lon="11.58084120836383"><ele>67.5</ele><time>2026-04-01T21:41:33.999Z</time></trkpt><trkpt lat="45.6510817045673" lon="11.580712612726915"><ele>68.0</ele><time>2026-04-01T21:41:34.999Z</time></trkpt><trkpt lat="45.65098389080535" lon="11.580574274181565"><ele>68.5</ele><time>2026-04-01T21:41:35.999Z</time></trkpt><trkpt lat="45.65088698210123" lon="11.580435105676681"><ele>69.0</ele><time>2026-04-01T21:41:36.999Z</time></trkpt><trkpt lat="45.650779413468435" lon="11.580292254826716"><ele>69.0</ele><time>2026-04-01T21:41:37.999Z</time></trkpt><trkpt lat="45.65069134907361" lon="11.580149634861577"><ele>69.0</ele><time>2026-04-01T21:41:38.999Z</time></trkpt><trkpt lat="45.65060391293403" lon="11.580014917176864"><ele>69.0</ele><time>2026-04-01T21:41:39.999Z</time></trkpt><trkpt lat="45.650506472737945" lon="11.57988194730377"><ele>69.0</ele><time>2026-04-01T21:41:40.999Z</time></trkpt><trkpt lat="45.650418135437924" lon="11.579770330126681"><ele>69.0</ele><time>2026-04-01T21:41:41.999Z</time></trkpt><trkpt lat="45.65034077088341" lon="11.579671276077779"><ele>69.0</ele><time>2026-04-01T21:41:42.999Z</time></trkpt><trkpt lat="45.65027562672633" lon="11.579571049037687"><ele>69.0</ele><time>2026-04-01T21:41:43.999Z</time></trkpt><trkpt lat="45.65021511794167" lon="11.579479825003608"><ele>69.0</ele><time>2026-04-01T21:41:44.999Z</time></trkpt><trkpt lat="45.65015159013909" lon="11.579391513978452"><ele>69.0</ele><time>2026-04-01T21:41:45.999Z</time></trkpt><trkpt lat="45.65009689862279" lon="11.579309927334005"><ele>69.0</ele><time>2026-04-01T21:41:46.999Z</time></trkpt><trkpt lat="45.65004207572998" lon="11.579224243395256"><ele>69.0</ele><time>2026-04-01T21:41:47.999Z</time></trkpt><trkpt lat="45.6500144864343" lon="11.579115554770098"><ele>69.0</ele><time>2026-04-01T21:41:48.999Z</time></trkpt><trkpt lat="45.65001599217762" lon="11.579009669947158"><ele>69.0</ele><time>2026-04-01T21:41:49.999Z</time></trkpt><trkpt lat="45.65000151006987" lon="11.578904060100664"><ele>69.0</ele><time>2026-04-01T21:41:50.999Z</time></trkpt><trkpt lat="45.649960244964994" lon="11.578808151667683"><ele>69.0</ele><time>2026-04-01T21:41:51.999Z</time></trkpt><trkpt lat="45.64988766202479" lon="11.578749824522301"><ele>69.0</ele><time>2026-04-01T21:41:52.999Z</time></trkpt><trkpt lat="45.64981645917257" lon="11.578722441356287"><ele>69.0</ele><time>2026-04-01T21:41:53.999Z</time></trkpt><trkpt lat="45.64972855811967" lon="11.578712127746366"><ele>69.0</ele><time>2026-04-01T21:41:54.999Z</time></trkpt><trkpt lat="45.649634027428306" lon="11.578687122035415"><ele>69.0</ele><time>2026-04-01T21:41:55.999Z</time></trkpt><trkpt lat="45.649536578414356" lon="11.578658918520919"><ele>69.0</ele><time>2026-04-01T21:41:56.999Z</time></trkpt><trkpt lat="45.649436796144194" lon="11.57861923536298"><ele>68.25</ele><time>2026-04-01T21:41:57.999Z</time></trkpt><trkpt lat="45.64933613723952" lon="11.57853664360936"><ele>67.5</ele><time>2026-04-01T21:41:58.999Z</time></trkpt><trkpt lat="45.64923388218712" lon="11.57848013025928"><ele>66.75</ele><time>2026-04-01T21:41:59.999Z</time></trkpt><trkpt lat="45.64912004417044" lon="11.578428473690035"><ele>66.0</ele><time>2026-04-01T21:42:00.999Z</time></trkpt><trkpt lat="45.64899759814091" lon="11.578368569986043"><ele>66.0</ele><time>2026-04-01T21:42:01.999Z</time></trkpt><trkpt lat="45.648873110311975" lon="11.578312764189903"><ele>66.0</ele><time>2026-04-01T21:42:02.999Z</time></trkpt><trkpt lat="45.64874994857004" lon="11.578241820377412"><ele>66.0</ele><time>2026-04-01T21:42:03.999Z</time></trkpt><trkpt lat="45.64862303097185" lon="11.578179129827237"><ele>66.0</ele><time>2026-04-01T21:42:04.999Z</time></trkpt><trkpt lat="45.6484916824398" lon="11.578117332982062"><ele>65.75</ele><time>2026-04-01T21:42:05.999Z</time></trkpt><trkpt lat="45.64836185137116" lon="11.578051878461974"><ele>65.5</ele><time>2026-04-01T21:42:06.999Z</time></trkpt><trkpt lat="45.648229507086995" lon="11.577989491770778"><ele>65.25</ele><time>2026-04-01T21:42:07.999Z</time></trkpt><trkpt lat="45.64809516496215" lon="11.57793084037268"><ele>65.0</ele><time>2026-04-01T21:42:08.999Z</time></trkpt><trkpt lat="45.64796449157605" lon="11.577867986766796"><ele>65.0</ele><time>2026-04-01T21:42:09.999Z</time></trkpt><trkpt lat="45.64783509835181" lon="11.577803062706437"><ele>65.0</ele><time>2026-04-01T21:42:10.999Z</time></trkpt><trkpt lat="45.64770431047935" lon="11.577739679832625"><ele>65.0</ele><time>2026-04-01T21:42:11.999Z</time></trkpt><trkpt lat="45.647575004789125" lon="11.577679971210324"><ele>65.0</ele><time>2026-04-01T21:42:12.999Z</time></trkpt><trkpt lat="45.64744501374688" lon="11.577615852499386"><ele>65.0</ele><time>2026-04-01T21:42:13.999Z</time></trkpt><trkpt lat="45.64730954084001" lon="11.577553393361308"><ele>65.0</ele><time>2026-04-01T21:42:14.999Z</time></trkpt><trkpt lat="45.6471706573523" lon="11.577489979799848"><ele>65.0</ele><time>2026-04-01T21:42:15.999Z</time></trkpt><trkpt lat="45.64703429696187" lon="11.577423734062098"><ele>65.0</ele><time>2026-04-01T21:42:16.998Z</time></trkpt><trkpt lat="45.64689877999848" lon="11.577360426882178"><ele>64.75</ele><time>2026-04-01T21:42:17.998Z</time></trkpt><trkpt lat="45.646762381815925" lon="11.577296077542576"><ele>64.5</ele><time>2026-04-01T21:42:18.998Z</time></trkpt><trkpt lat="45.64662311233506" lon="11.577233345094534"><ele>64.25</ele><time>2026-04-01T21:42:19.998Z</time></trkpt><trkpt lat="45.64648406654484" lon="11.577166265484509"><ele>64.0</ele><time>2026-04-01T21:42:20.998Z</time></trkpt><trkpt lat="45.64634412299912" lon="11.577098950818367"><ele>64.0</ele><time>2026-04-01T21:42:21.998Z</time></trkpt><trkpt lat="45.64620207232752" lon="11.5770289536787"><ele>64.0</ele><time>2026-04-01T21:42:22.998Z</time></trkpt><trkpt lat="45.64605994505988" lon="11.576956911745903"><ele>64.0</ele><time>2026-04-01T21:42:23.998Z</time></trkpt><trkpt lat="45.645914892810225" lon="11.576887685683955"><ele>63.666666666666664</ele><time>2026-04-01T21:42:24.998Z</time></trkpt><trkpt lat="45.64576784906811" lon="11.576808047756264"><ele>63.33333333333333</ele><time>2026-04-01T21:42:25.998Z</time></trkpt><trkpt lat="45.645622070945926" lon="11.576737586893945"><ele>63.0</ele><time>2026-04-01T21:42:26.998Z</time></trkpt><trkpt lat="45.64547201350373" lon="11.576665956189792"><ele>63.0</ele><time>2026-04-01T21:42:27.998Z</time></trkpt><trkpt lat="45.645319666158116" lon="11.576586443340007"><ele>63.0</ele><time>2026-04-01T21:42:28.998Z</time></trkpt><trkpt lat="45.645166633560954" lon="11.576513043818265"><ele>63.0</ele><time>2026-04-01T21:42:29.998Z</time></trkpt><trkpt lat="45.64501365393652" lon="11.576438225725267"><ele>64.0</ele><time>2026-04-01T21:42:31Z</time></trkpt><trkpt lat="45.644864167492756" lon="11.576366838714588"><ele>65.0</ele><time>2026-04-01T21:42:32Z</time></trkpt><trkpt lat="45.644715713992625" lon="11.576297530703112"><ele>66.0</ele><time>2026-04-01T21:42:33Z</time></trkpt><trkpt lat="45.64456686071743" lon="11.576226239534739"><ele>65.33333333333333</ele><time>2026-04-01T21:42:34Z</time></trkpt><trkpt lat="45.64441585763563" lon="11.576160455120158"><ele>64.66666666666666</ele><time>2026-04-01T21:42:35Z</time></trkpt><trkpt lat="45.644266707771884" lon="11.576094507427529"><ele>64.0</ele><time>2026-04-01T21:42:36Z</time></trkpt><trkpt lat="45.64411792064322" lon="11.576029062545935"><ele>64.0</ele><time>2026-04-01T21:42:37Z</time></trkpt><trkpt lat="45.64397317144234" lon="11.57596454660587"><ele>64.0</ele><time>2026-04-01T21:42:38Z</time></trkpt><trkpt lat="45.643833315724656" lon="11.57590218072148"><ele>64.0</ele><time>2026-04-01T21:42:39Z</time></trkpt><trkpt lat="45.6436948706091" lon="11.575841717700053"><ele>64.0</ele><time>2026-04-01T21:42:40Z</time></trkpt><trkpt lat="45.64355877865537" lon="11.575780323719808"><ele>63.5</ele><time>2026-04-01T21:42:41Z</time></trkpt><trkpt lat="45.64342757871058" lon="11.575726326779861"><ele>63.0</ele><time>2026-04-01T21:42:42Z</time></trkpt><trkpt lat="45.64330514373097" lon="11.575675414067742"><ele>62.5</ele><time>2026-04-01T21:42:43Z</time></trkpt><trkpt lat="45.64318938258232" lon="11.575631428476553"><ele>62.0</ele><time>2026-04-01T21:42:44Z</time></trkpt><trkpt lat="45.64308426230563" lon="11.575598433506613"><ele>62.00000000000001</ele><time>2026-04-01T21:42:45Z</time></trkpt><trkpt lat="45.6429867316269" lon="11.575561102668011"><ele>62.0</ele><time>2026-04-01T21:42:46Z</time></trkpt><trkpt lat="45.64289607172713" lon="11.575524833253018"><ele>62.0</ele><time>2026-04-01T21:42:47Z</time></trkpt><trkpt lat="45.6428146467877" lon="11.57549066469845"><ele>62.0</ele><time>2026-04-01T21:42:48Z</time></trkpt><trkpt lat="45.642740749463485" lon="11.57546619552045"><ele>62.00000000000001</ele><time>2026-04-01T21:42:49Z</time></trkpt><trkpt lat="45.64267286102505" lon="11.575439776416955"><ele>62.0</ele><time>2026-04-01T21:42:50Z</time></trkpt><trkpt lat="45.642615669900785" lon="11.575392468551943"><ele>62.0</ele><time>2026-04-01T21:42:51Z</time></trkpt><trkpt lat="45.64257563610451" lon="11.57531509245915"><ele>62.0</ele><time>2026-04-01T21:42:52Z</time></trkpt><trkpt lat="45.64255534924789" lon="11.575102440201675"><ele>62.0</ele><time>2026-04-01T21:42:54Z</time></trkpt><trkpt lat="45.64257223048811" lon="11.574986571820062"><ele>62.0</ele><time>2026-04-01T21:42:55Z</time></trkpt><trkpt lat="45.642593803853" lon="11.574855727022952"><ele>62.0</ele><time>2026-04-01T21:42:56Z</time></trkpt><trkpt lat="45.6426153386737" lon="11.574709559444246"><ele>62.0</ele><time>2026-04-01T21:42:57Z</time></trkpt><trkpt lat="45.642639553379425" lon="11.574569752964775"><ele>62.0</ele><time>2026-04-01T21:42:58Z</time></trkpt><trkpt lat="45.64266151049893" lon="11.574416662734887"><ele>62.0</ele><time>2026-04-01T21:42:59Z</time></trkpt><trkpt lat="45.64268319210928" lon="11.574259165620042"><ele>62.0</ele><time>2026-04-01T21:43:00Z</time></trkpt><trkpt lat="45.64270933711214" lon="11.574094189883732"><ele>62.0</ele><time>2026-04-01T21:43:01Z</time></trkpt><trkpt lat="45.642736369179424" lon="11.573921679122497"><ele>62.0</ele><time>2026-04-01T21:43:02Z</time></trkpt><trkpt lat="45.64276306717816" lon="11.573748193417282"><ele>62.0</ele><time>2026-04-01T21:43:03Z</time></trkpt><trkpt lat="45.642788469805936" lon="11.573576520702895"><ele>62.0</ele><time>2026-04-01T21:43:04Z</time></trkpt><trkpt lat="45.642816206288025" lon="11.573406206298714"><ele>62.0</ele><time>2026-04-01T21:43:05Z</time></trkpt><trkpt lat="45.64283696554755" lon="11.573244660607914"><ele>62.0</ele><time>2026-04-01T21:43:06Z</time></trkpt><trkpt lat="45.642860609974996" lon="11.573084725460864"><ele>62.0</ele><time>2026-04-01T21:43:07Z</time></trkpt><trkpt lat="45.642883045595276" lon="11.572931989549955"><ele>62.0</ele><time>2026-04-01T21:43:08Z</time></trkpt><trkpt lat="45.64290409398393" lon="11.572782715729389"><ele>62.0</ele><time>2026-04-01T21:43:09Z</time></trkpt><trkpt lat="45.6429222334532" lon="11.572630649588282"><ele>62.0</ele><time>2026-04-01T21:43:10Z</time></trkpt><trkpt lat="45.64292994963896" lon="11.572486044693854"><ele>62.0</ele><time>2026-04-01T21:43:11Z</time></trkpt><trkpt lat="45.642935923499174" lon="11.572348390434724"><ele>62.0</ele><time>2026-04-01T21:43:12Z</time></trkpt><trkpt lat="45.64293323544497" lon="11.572227450581897"><ele>62.0</ele><time>2026-04-01T21:43:13Z</time></trkpt><trkpt lat="45.64292432234608" lon="11.572125381890181"><ele>62.0</ele><time>2026-04-01T21:43:14Z</time></trkpt><trkpt lat="45.64288063691746" lon="11.571981099776654"><ele>62.0</ele><time>2026-04-01T21:43:15.999Z</time></trkpt><trkpt lat="45.64273107933224" lon="11.571958470846855"><ele>62.0</ele><time>2026-04-01T21:43:18.999Z</time></trkpt><trkpt lat="45.64261979173862" lon="11.572047531103733"><ele>62.0</ele><time>2026-04-01T21:43:20.999Z</time></trkpt><trkpt lat="45.6425080320982" lon="11.572137324260128"><ele>62.0</ele><time>2026-04-01T21:43:22.999Z</time></trkpt><trkpt lat="45.642446554528796" lon="11.572187693462146"><ele>62.0</ele><time>2026-04-01T21:43:23.999Z</time></trkpt><trkpt lat="45.642381925670136" lon="11.572241816901638"><ele>62.0</ele><time>2026-04-01T21:43:24.999Z</time></trkpt><trkpt lat="45.64231794596185" lon="11.572296119864035"><ele>62.0</ele><time>2026-04-01T21:43:25.999Z</time></trkpt><trkpt lat="45.642252158672655" lon="11.57233628635395"><ele>62.0</ele><time>2026-04-01T21:43:26.999Z</time></trkpt><trkpt lat="45.64219545996954" lon="11.572379727106714"><ele>62.0</ele><time>2026-04-01T21:43:27.999Z</time></trkpt><trkpt lat="45.64208092748108" lon="11.572429642858152"><ele>62.0</ele><time>2026-04-01T21:43:29.999Z</time></trkpt><trkpt lat="45.64198291826544" lon="11.572430982702336"><ele>62.0</ele><time>2026-04-01T21:43:31.999Z</time></trkpt><trkpt lat="45.641916395425305" lon="11.572220708171361"><ele>62.0</ele><time>2026-04-01T21:43:35.999Z</time></trkpt><trkpt lat="45.64193759829666" lon="11.572068911033668"><ele>62.0</ele><time>2026-04-01T21:43:37.999Z</time></trkpt><trkpt lat="45.64195195578092" lon="11.57192902238963"><ele>62.0</ele><time>2026-04-01T21:43:39.999Z</time></trkpt><trkpt lat="45.64194898045239" lon="11.571816900601819"><ele>62.0</ele><time>2026-04-01T21:43:41.999Z</time></trkpt><trkpt lat="45.64195855355992" lon="11.571681020750107"><ele>62.0</ele><time>2026-04-01T21:44:26.998Z</time></trkpt><trkpt lat="45.64195144527904" lon="11.571567742936457"><ele>62.2</ele><time>2026-04-01T21:44:29.998Z</time></trkpt><trkpt lat="45.641948220741135" lon="11.571435497996397"><ele>62.400000000000006</ele><time>2026-04-01T21:44:31.998Z</time></trkpt><trkpt lat="45.641954343207274" lon="11.571275984554745"><ele>62.599999999999994</ele><time>2026-04-01T21:44:33.998Z</time></trkpt><trkpt lat="45.64190511097869" lon="11.571157388170516"><ele>62.8</ele><time>2026-04-01T21:44:35.998Z</time></trkpt><trkpt lat="45.64182566282572" lon="11.57109020136783"><ele>63.0</ele><time>2026-04-01T21:44:38Z</time></trkpt><trkpt lat="45.64173198013304" lon="11.571086514507156"><ele>63.0</ele><time>2026-04-01T21:44:41Z</time></trkpt><trkpt lat="45.641669174223395" lon="11.571108348375658"><ele>63.0</ele><time>2026-04-01T21:44:43Z</time></trkpt><trkpt lat="45.641755118793235" lon="11.571237886270875"><ele>63.0</ele><time>2026-04-01T21:44:46Z</time></trkpt><trkpt lat="45.641846527989905" lon="11.571399815141154"><ele>63.0</ele><time>2026-04-01T21:44:51Z</time></trkpt><trkpt lat="45.64191304830772" lon="11.57145696051481"><ele>63.0</ele><time>2026-04-01T21:44:52Z</time></trkpt><trkpt lat="45.64197081212091" lon="11.571534757285718"><ele>62.833333333333336</ele><time>2026-04-01T21:44:53Z</time></trkpt><trkpt lat="45.64201913990835" lon="11.571615513555788"><ele>62.66666666666667</ele><time>2026-04-01T21:44:54Z</time></trkpt><trkpt lat="45.64209734050098" lon="11.57174108469705"><ele>62.5</ele><time>2026-04-01T21:44:56Z</time></trkpt><trkpt lat="45.64210698941074" lon="11.571851429912885"><ele>62.333333333333336</ele><time>2026-04-01T21:44:57Z</time></trkpt><trkpt lat="45.64211788178988" lon="11.571949504807275"><ele>62.16666666666667</ele><time>2026-04-01T21:44:58Z</time></trkpt><trkpt lat="45.642067787441015" lon="11.572055094962286"><ele>62.0</ele><time>2026-04-01T21:44:59Z</time></trkpt><trkpt lat="45.64208258927335" lon="11.572176950331853"><ele>62.0</ele><time>2026-04-01T21:45:01Z</time></trkpt><trkpt lat="45.64187760857616" lon="11.572283694479632"><ele>62.0</ele><time>2026-04-01T21:45:03Z</time></trkpt><trkpt lat="45.642073344679446" lon="11.572343952764852"><ele>62.0</ele><time>2026-04-01T21:45:04Z</time></trkpt><trkpt lat="45.641907192542085" lon="11.572582662837533"><ele>62.0</ele><time>2026-04-01T21:45:06Z</time></trkpt><trkpt lat="45.64167341475679" lon="11.57250163873736"><ele>62.0</ele><time>2026-04-01T21:45:07Z</time></trkpt><trkpt lat="45.641572765443655" lon="11.572518775832844"><ele>62.0</ele><time>2026-04-01T21:45:08Z</time></trkpt><trkpt lat="45.64146349147077" lon="11.572510877693189"><ele>62.0</ele><time>2026-04-01T21:45:09Z</time></trkpt><trkpt lat="45.641359293610044" lon="11.572502866075975"><ele>62.0</ele><time>2026-04-01T21:45:10Z</time></trkpt><trkpt lat="45.64124451750576" lon="11.572515190326028"><ele>62.0</ele><time>2026-04-01T21:45:11Z</time></trkpt><trkpt lat="45.641154691105" lon="11.57249783831753"><ele>62.0</ele><time>2026-04-01T21:45:12Z</time></trkpt><trkpt lat="45.64098148106578" lon="11.572478362805509"><ele>62.0</ele><time>2026-04-01T21:45:14Z</time></trkpt><trkpt lat="45.64085213245302" lon="11.572767880470952"><ele>62.0</ele><time>2026-04-01T21:45:16Z</time></trkpt><trkpt lat="45.64085916597439" lon="11.572903142404165"><ele>62.0</ele><time>2026-04-01T21:45:17Z</time></trkpt><trkpt lat="45.64082037018065" lon="11.573039785355418"><ele>62.0</ele><time>2026-04-01T21:45:18Z</time></trkpt><trkpt lat="45.64084500767345" lon="11.57317703884083"><ele>62.00000000000001</ele><time>2026-04-01T21:45:19Z</time></trkpt><trkpt lat="45.64082625462227" lon="11.573269413415463"><ele>62.0</ele><time>2026-04-01T21:45:20Z</time></trkpt><trkpt lat="45.64081057184524" lon="11.573365361464889"><ele>62.0</ele><time>2026-04-01T21:45:20.999Z</time></trkpt><trkpt lat="45.640797277158185" lon="11.573469573249932"><ele>62.0</ele><time>2026-04-01T21:45:21.999Z</time></trkpt><trkpt lat="45.64072062860791" lon="11.573489433445012"><ele>62.00000000000001</ele><time>2026-04-01T21:45:23.999Z</time></trkpt><trkpt lat="45.64062393148151" lon="11.573474721832934"><ele>62.0</ele><time>2026-04-01T21:45:25.999Z</time></trkpt><trkpt lat="45.64048723764339" lon="11.573490844497437"><ele>62.0</ele><time>2026-04-01T21:45:29.999Z</time></trkpt><trkpt lat="45.64042615643105" lon="11.573464305821847"><ele>62.0</ele><time>2026-04-01T21:45:30.999Z</time></trkpt><trkpt lat="45.64032607611299" lon="11.573458266704977"><ele>62.0</ele><time>2026-04-01T21:45:31.999Z</time></trkpt><trkpt lat="45.64017473784957" lon="11.573448224421558"><ele>62.0</ele><time>2026-04-01T21:45:32.999Z</time></trkpt><trkpt lat="45.640051746061765" lon="11.57343484334252"><ele>62.0</ele><time>2026-04-01T21:45:33.999Z</time></trkpt><trkpt lat="45.63993619836228" lon="11.573488776306014"><ele>62.0</ele><time>2026-04-01T21:45:34.999Z</time></trkpt><trkpt lat="45.63984370465379" lon="11.573549785576128"><ele>62.0</ele><time>2026-04-01T21:45:35.999Z</time></trkpt><trkpt lat="45.63966183846119" lon="11.573684372516052"><ele>62.0</ele><time>2026-04-01T21:45:36.999Z</time></trkpt><trkpt lat="45.63955053764194" lon="11.57372930118163"><ele>62.0</ele><time>2026-04-01T21:45:37.999Z</time></trkpt><trkpt lat="45.639467228035834" lon="11.573781364318343"><ele>61.833333333333336</ele><time>2026-04-01T21:45:38.999Z</time></trkpt><trkpt lat="45.63938457297335" lon="11.573831105662263"><ele>61.66666666666667</ele><time>2026-04-01T21:45:39.999Z</time></trkpt><trkpt lat="45.6392956944152" lon="11.573856891942363"><ele>61.5</ele><time>2026-04-01T21:45:40.999Z</time></trkpt><trkpt lat="45.63922188691917" lon="11.573886186132727"><ele>61.33333333333333</ele><time>2026-04-01T21:45:41.999Z</time></trkpt><trkpt lat="45.63913605290994" lon="11.57387804769131"><ele>61.166666666666664</ele><time>2026-04-01T21:45:42.999Z</time></trkpt><trkpt lat="45.63904962096913" lon="11.573848749954587"><ele>61.0</ele><time>2026-04-01T21:45:44.011Z</time></trkpt><trkpt lat="45.63895756464232" lon="11.573810546861974"><ele>61.0</ele><time>2026-04-01T21:45:45.999Z</time></trkpt><trkpt lat="45.638834721836616" lon="11.573787393916355"><ele>60.99999999999999</ele><time>2026-04-01T21:45:48.999Z</time></trkpt><trkpt lat="45.63869317877873" lon="11.573738086059269"><ele>60.99999999999999</ele><time>2026-04-01T21:45:49.999Z</time></trkpt><trkpt lat="45.63860181298729" lon="11.573707655184421"><ele>61.0</ele><time>2026-04-01T21:45:50.999Z</time></trkpt><trkpt lat="45.63853283838697" lon="11.57368419253424"><ele>61.0</ele><time>2026-04-01T21:45:51.999Z</time></trkpt><trkpt lat="45.63843040861541" lon="11.573647788338594"><ele>60.599999999999994</ele><time>2026-04-01T21:45:53.999Z</time></trkpt><trkpt lat="45.638335158472216" lon="11.573631880694528"><ele>60.199999999999996</ele><time>2026-04-01T21:45:54.999Z</time></trkpt><trkpt lat="45.638258795322336" lon="11.573583869026299"><ele>59.800000000000004</ele><time>2026-04-01T21:45:57.999Z</time></trkpt><trkpt lat="45.638083360954234" lon="11.573651791744147"><ele>59.400000000000006</ele><time>2026-04-01T21:45:59.999Z</time></trkpt><trkpt lat="45.6380118521597" lon="11.573670963122305"><ele>59.0</ele><time>2026-04-01T21:46:00.999Z</time></trkpt><trkpt lat="45.637938549025144" lon="11.573687124869888"><ele>59.0</ele><time>2026-04-01T21:46:01.999Z</time></trkpt><trkpt lat="45.63787537270024" lon="11.573607531568195"><ele>59.00000000000001</ele><time>2026-04-01T21:46:02.999Z</time></trkpt><trkpt lat="45.63778152830429" lon="11.573571787060516"><ele>59.00000000000001</ele><time>2026-04-01T21:46:03.999Z</time></trkpt><trkpt lat="45.63767950524463" lon="11.57353288414524"><ele>59.0</ele><time>2026-04-01T21:46:04.999Z</time></trkpt><trkpt lat="45.637562351717996" lon="11.573488211719944"><ele>59.0</ele><time>2026-04-01T21:46:05.999Z</time></trkpt><trkpt lat="45.637442659653615" lon="11.573442571505774"><ele>58.75</ele><time>2026-04-01T21:46:06.999Z</time></trkpt><trkpt lat="45.637351505793234" lon="11.57340701774777"><ele>58.5</ele><time>2026-04-01T21:46:07.999Z</time></trkpt><trkpt lat="45.6372260600446" lon="11.573358238981093"><ele>58.25</ele><time>2026-04-01T21:46:08.999Z</time></trkpt><trkpt lat="45.637057134146616" lon="11.573292675684032"><ele>58.0</ele><time>2026-04-01T21:46:09.999Z</time></trkpt><trkpt lat="45.636902225213106" lon="11.57323299263193"><ele>58.0</ele><time>2026-04-01T21:46:10.999Z</time></trkpt><trkpt lat="45.6367682071901" lon="11.573181574584035"><ele>58.0</ele><time>2026-04-01T21:46:11.999Z</time></trkpt><trkpt lat="45.63663011417034" lon="11.573129038085062"><ele>58.0</ele><time>2026-04-01T21:46:12.999Z</time></trkpt><trkpt lat="45.63648290287988" lon="11.573073032588734"><ele>58.0</ele><time>2026-04-01T21:46:13.999Z</time></trkpt><trkpt lat="45.63634920246889" lon="11.57302216719086"><ele>58.0</ele><time>2026-04-01T21:46:14.999Z</time></trkpt><trkpt lat="45.63621432338825" lon="11.572970853418841"><ele>58.0</ele><time>2026-04-01T21:46:15.999Z</time></trkpt><trkpt lat="45.63609276247372" lon="11.572924606432734"><ele>58.0</ele><time>2026-04-01T21:46:16.999Z</time></trkpt><trkpt lat="45.635958147132996" lon="11.572872712707127"><ele>58.0</ele><time>2026-04-01T21:46:17.999Z</time></trkpt><trkpt lat="45.63581386507927" lon="11.572823607975073"><ele>57.75</ele><time>2026-04-01T21:46:18.999Z</time></trkpt><trkpt lat="45.635696722526994" lon="11.572731505760197"><ele>57.5</ele><time>2026-04-01T21:46:19.999Z</time></trkpt><trkpt lat="45.63559260192898" lon="11.57261767110782"><ele>57.25</ele><time>2026-04-01T21:46:20.999Z</time></trkpt><trkpt lat="45.63549610821103" lon="11.572474080259779"><ele>57.0</ele><time>2026-04-01T21:46:21.999Z</time></trkpt><trkpt lat="45.635422049216416" lon="11.57231072683704"><ele>57.0</ele><time>2026-04-01T21:46:22.999Z</time></trkpt><trkpt lat="45.63536635791617" lon="11.572151479035467"><ele>57.0</ele><time>2026-04-01T21:46:23.998Z</time></trkpt><trkpt lat="45.63535418345713" lon="11.571961954671277"><ele>57.0</ele><time>2026-04-01T21:46:24.998Z</time></trkpt><trkpt lat="45.635333579051895" lon="11.571821546057011"><ele>57.0</ele><time>2026-04-01T21:46:26.998Z</time></trkpt><trkpt lat="45.635269981643475" lon="11.571680380354595"><ele>56.5</ele><time>2026-04-01T21:46:28.998Z</time></trkpt><trkpt lat="45.63519519420044" lon="11.571650268752649"><ele>56.0</ele><time>2026-04-01T21:46:29.998Z</time></trkpt><trkpt lat="45.63512682238993" lon="11.571643022098767"><ele>55.5</ele><time>2026-04-01T21:46:30.998Z</time></trkpt><trkpt lat="45.63505781429476" lon="11.57173000258027"><ele>55.0</ele><time>2026-04-01T21:46:31.998Z</time></trkpt><trkpt lat="45.63498058774439" lon="11.571790291134674"><ele>54.5</ele><time>2026-04-01T21:46:32.998Z</time></trkpt><trkpt lat="45.63492205184806" lon="11.571865200607462"><ele>54.0</ele><time>2026-04-01T21:46:33.998Z</time></trkpt><trkpt lat="45.63485456552322" lon="11.571943024478225"><ele>54.400000000000006</ele><time>2026-04-01T21:46:34.998Z</time></trkpt><trkpt lat="45.63477829282239" lon="11.572036929805574"><ele>54.800000000000004</ele><time>2026-04-01T21:46:35.998Z</time></trkpt><trkpt lat="45.63469344350734" lon="11.572128652928237"><ele>55.199999999999996</ele><time>2026-04-01T21:46:36.998Z</time></trkpt><trkpt lat="45.63459341942864" lon="11.572179217378181"><ele>55.599999999999994</ele><time>2026-04-01T21:46:37.998Z</time></trkpt><trkpt lat="45.6344739005989" lon="11.57221541625227"><ele>56.0</ele><time>2026-04-01T21:46:38.998Z</time></trkpt><trkpt lat="45.63435500588261" lon="11.572216085751828"><ele>56.0</ele><time>2026-04-01T21:46:39.998Z</time></trkpt><trkpt lat="45.63422809975625" lon="11.572213583821945"><ele>56.0</ele><time>2026-04-01T21:46:40.998Z</time></trkpt><trkpt lat="45.63409369667099" lon="11.572185913678052"><ele>56.0</ele><time>2026-04-01T21:46:41.998Z</time></trkpt><trkpt lat="45.63398113304082" lon="11.57207882673389"><ele>56.0</ele><time>2026-04-01T21:46:43Z</time></trkpt><trkpt lat="45.633841480767124" lon="11.572027608804122"><ele>55.75</ele><time>2026-04-01T21:46:44Z</time></trkpt><trkpt lat="45.63370034289491" lon="11.571966719408609"><ele>55.5</ele><time>2026-04-01T21:46:45Z</time></trkpt><trkpt lat="45.63360465918128" lon="11.57194713218198"><ele>55.25</ele><time>2026-04-01T21:46:46Z</time></trkpt><trkpt lat="45.633460344934946" lon="11.571899482204806"><ele>55.0</ele><time>2026-04-01T21:46:47Z</time></trkpt><trkpt lat="45.6333285854627" lon="11.571874732082893"><ele>55.0</ele><time>2026-04-01T21:46:48Z</time></trkpt><trkpt lat="45.63318777770211" lon="11.571825738852485"><ele>55.0</ele><time>2026-04-01T21:46:49Z</time></trkpt><trkpt lat="45.633068417882534" lon="11.571769608265214"><ele>55.0</ele><time>2026-04-01T21:46:50Z</time></trkpt><trkpt lat="45.6329252765913" lon="11.571707887954268"><ele>55.0</ele><time>2026-04-01T21:46:51Z</time></trkpt><trkpt lat="45.63279747378112" lon="11.57165009134353"><ele>55.0</ele><time>2026-04-01T21:46:52Z</time></trkpt><trkpt lat="45.632665985715306" lon="11.57160059646219"><ele>55.0</ele><time>2026-04-01T21:46:53Z</time></trkpt><trkpt lat="45.63250250354378" lon="11.571550625527617"><ele>55.0</ele><time>2026-04-01T21:46:54Z</time></trkpt><trkpt lat="45.63238712615159" lon="11.571489128019145"><ele>55.0</ele><time>2026-04-01T21:46:55Z</time></trkpt><trkpt lat="45.63226649689226" lon="11.571428490034359"><ele>55.0</ele><time>2026-04-01T21:46:56Z</time></trkpt><trkpt lat="45.632173193093145" lon="11.57138210446058"><ele>55.0</ele><time>2026-04-01T21:46:57Z</time></trkpt><trkpt lat="45.63208612948664" lon="11.571351192735388"><ele>55.0</ele><time>2026-04-01T21:46:58Z</time></trkpt><trkpt lat="45.6320126717491" lon="11.57133040913263"><ele>55.0</ele><time>2026-04-01T21:47:00Z</time></trkpt><trkpt lat="45.63193927547935" lon="11.571323416185948"><ele>55.0</ele><time>2026-04-01T21:47:50.999Z</time></trkpt><trkpt lat="45.63182846642833" lon="11.571279095156973"><ele>55.0</ele><time>2026-04-01T21:47:52.999Z</time></trkpt><trkpt lat="45.63175314117776" lon="11.571253277244677"><ele>55.0</ele><time>2026-04-01T21:47:53.999Z</time></trkpt><trkpt lat="45.63161601503552" lon="11.571200137148477"><ele>55.0</ele><time>2026-04-01T21:47:55.999Z</time></trkpt><trkpt lat="45.63152954765211" lon="11.571170408069392"><ele>55.0</ele><time>2026-04-01T21:47:56.999Z</time></trkpt><trkpt lat="45.631450124001006" lon="11.571144567497294"><ele>55.0</ele><time>2026-04-01T21:47:57.999Z</time></trkpt><trkpt lat="45.631374931655564" lon="11.571128056280934"><ele>54.8</ele><time>2026-04-01T21:47:58.999Z</time></trkpt><trkpt lat="45.63126049931658" lon="11.571074992026896"><ele>54.6</ele><time>2026-04-01T21:48:00.999Z</time></trkpt><trkpt lat="45.631174542025455" lon="11.571057262555378"><ele>54.400000000000006</ele><time>2026-04-01T21:48:02.999Z</time></trkpt><trkpt lat="45.6311322817081" lon="11.571279562250238"><ele>54.2</ele><time>2026-04-01T21:48:03.999Z</time></trkpt><trkpt lat="45.63113194182481" lon="11.571377227193246"><ele>54.0</ele><time>2026-04-01T21:48:04.999Z</time></trkpt><trkpt lat="45.631067614043126" lon="11.571482619164042"><ele>54.0</ele><time>2026-04-01T21:48:05.999Z</time></trkpt><trkpt lat="45.63103634427512" lon="11.571617670643837"><ele>54.00000000000001</ele><time>2026-04-01T21:48:06.999Z</time></trkpt><trkpt lat="45.63099797966845" lon="11.571747434593874"><ele>54.00000000000001</ele><time>2026-04-01T21:48:07.999Z</time></trkpt><trkpt lat="45.63095165332191" lon="11.571874529267287"><ele>54.0</ele><time>2026-04-01T21:48:08.999Z</time></trkpt><trkpt lat="45.63089523935409" lon="11.572006408020055"><ele>54.0</ele><time>2026-04-01T21:48:09.999Z</time></trkpt><trkpt lat="45.63086114595837" lon="11.572159567586565"><ele>54.0</ele><time>2026-04-01T21:48:10.999Z</time></trkpt><trkpt lat="45.63079151772509" lon="11.572311475010558"><ele>54.0</ele><time>2026-04-01T21:48:11.999Z</time></trkpt><trkpt lat="45.63074625427935" lon="11.572478899339467"><ele>54.0</ele><time>2026-04-01T21:48:12.999Z</time></trkpt><trkpt lat="45.63069057738368" lon="11.572648505164933"><ele>54.0</ele><time>2026-04-01T21:48:13.999Z</time></trkpt><trkpt lat="45.63063868284156" lon="11.572817813316927"><ele>54.0</ele><time>2026-04-01T21:48:14.999Z</time></trkpt><trkpt lat="45.6305851347795" lon="11.57298144321168"><ele>54.0</ele><time>2026-04-01T21:48:15.999Z</time></trkpt><trkpt lat="45.630525574963" lon="11.573156677865347"><ele>54.0</ele><time>2026-04-01T21:48:16.999Z</time></trkpt><trkpt lat="45.63044948395328" lon="11.573320644842749"><ele>54.0</ele><time>2026-04-01T21:48:17.999Z</time></trkpt><trkpt lat="45.63038773950759" lon="11.573481359302567"><ele>54.0</ele><time>2026-04-01T21:48:18.999Z</time></trkpt><trkpt lat="45.63032987684353" lon="11.57363117525551"><ele>54.0</ele><time>2026-04-01T21:48:19.999Z</time></trkpt><trkpt lat="45.630274038702886" lon="11.573797851460169"><ele>54.0</ele><time>2026-04-01T21:48:20.999Z</time></trkpt><trkpt lat="45.63022132071251" lon="11.57393857168793"><ele>54.0</ele><time>2026-04-01T21:48:21.999Z</time></trkpt><trkpt lat="45.63017065989187" lon="11.574104714481933"><ele>53.800000000000004</ele><time>2026-04-01T21:48:22.999Z</time></trkpt><trkpt lat="45.630134843438256" lon="11.57420760015214"><ele>53.60000000000001</ele><time>2026-04-01T21:48:23.999Z</time></trkpt><trkpt lat="45.630079567105426" lon="11.574343314877115"><ele>53.4</ele><time>2026-04-01T21:48:24.999Z</time></trkpt><trkpt lat="45.63001762674712" lon="11.574465111575298"><ele>53.2</ele><time>2026-04-01T21:48:25.999Z</time></trkpt><trkpt lat="45.629962761924126" lon="11.574580641574226"><ele>53.0</ele><time>2026-04-01T21:48:26.998Z</time></trkpt><trkpt lat="45.62988054580396" lon="11.574686559157817"><ele>53.0</ele><time>2026-04-01T21:48:27.998Z</time></trkpt><trkpt lat="45.62978358081538" lon="11.574783646066916"><ele>53.0</ele><time>2026-04-01T21:48:28.998Z</time></trkpt><trkpt lat="45.62966851944122" lon="11.57486353111368"><ele>53.0</ele><time>2026-04-01T21:48:29.998Z</time></trkpt><trkpt lat="45.62954975278514" lon="11.574886333708106"><ele>53.0</ele><time>2026-04-01T21:48:30.998Z</time></trkpt><trkpt lat="45.629435948274555" lon="11.57488611388865"><ele>53.0</ele><time>2026-04-01T21:48:31.998Z</time></trkpt><trkpt lat="45.62933506875366" lon="11.574832237886252"><ele>53.0</ele><time>2026-04-01T21:48:32.998Z</time></trkpt><trkpt lat="45.62922422265795" lon="11.574795837795644"><ele>53.0</ele><time>2026-04-01T21:48:33.998Z</time></trkpt><trkpt lat="45.62911784469222" lon="11.574760438391113"><ele>53.0</ele><time>2026-04-01T21:48:34.998Z</time></trkpt><trkpt lat="45.62901269495595" lon="11.574716311169821"><ele>53.0</ele><time>2026-04-01T21:48:35.998Z</time></trkpt><trkpt lat="45.628913600123006" lon="11.574669087424313"><ele>53.0</ele><time>2026-04-01T21:48:36.998Z</time></trkpt><trkpt lat="45.62881000305132" lon="11.574616259894318"><ele>53.0</ele><time>2026-04-01T21:48:37.998Z</time></trkpt><trkpt lat="45.6287142460368" lon="11.574556779398806"><ele>53.0</ele><time>2026-04-01T21:48:38.998Z</time></trkpt><trkpt lat="45.62861058802103" lon="11.57451393581175"><ele>53.0</ele><time>2026-04-01T21:48:39.998Z</time></trkpt><trkpt lat="45.6285209201694" lon="11.574458500903422"><ele>53.0</ele><time>2026-04-01T21:48:40.998Z</time></trkpt><trkpt lat="45.62841975269911" lon="11.574382731322185"><ele>52.75</ele><time>2026-04-01T21:48:41.998Z</time></trkpt><trkpt lat="45.62831099359956" lon="11.57430680600005"><ele>52.5</ele><time>2026-04-01T21:48:42.998Z</time></trkpt><trkpt lat="45.62820930272831" lon="11.574225696309187"><ele>52.25</ele><time>2026-04-01T21:48:43.998Z</time></trkpt><trkpt lat="45.62810598348729" lon="11.574143045960062"><ele>52.0</ele><time>2026-04-01T21:48:44.998Z</time></trkpt><trkpt lat="45.62801888418326" lon="11.574048287247585"><ele>52.0</ele><time>2026-04-01T21:48:45.998Z</time></trkpt><trkpt lat="45.6279118448813" lon="11.573985538278823"><ele>52.0</ele><time>2026-04-01T21:48:46.998Z</time></trkpt><trkpt lat="45.62778636708883" lon="11.573893798895408"><ele>52.0</ele><time>2026-04-01T21:48:47.998Z</time></trkpt><trkpt lat="45.627645591531376" lon="11.57380144010895"><ele>52.0</ele><time>2026-04-01T21:48:49Z</time></trkpt><trkpt lat="45.62753624650922" lon="11.573714439621812"><ele>51.75</ele><time>2026-04-01T21:48:50Z</time></trkpt><trkpt lat="45.62743733531929" lon="11.573618855844913"><ele>51.5</ele><time>2026-04-01T21:48:51Z</time></trkpt><trkpt lat="45.62730527649947" lon="11.573524317425207"><ele>51.25</ele><time>2026-04-01T21:48:52Z</time></trkpt><trkpt lat="45.62717830580124" lon="11.573430894531496"><ele>51.0</ele><time>2026-04-01T21:48:53Z</time></trkpt><trkpt lat="45.62708291016286" lon="11.57334003924754"><ele>51.0</ele><time>2026-04-01T21:48:54Z</time></trkpt><trkpt lat="45.62695169209277" lon="11.573233800731572"><ele>51.0</ele><time>2026-04-01T21:48:55Z</time></trkpt><trkpt lat="45.626842864477105" lon="11.573151137820801"><ele>51.0</ele><time>2026-04-01T21:48:56Z</time></trkpt><trkpt lat="45.62669943888634" lon="11.573070049213802"><ele>51.0</ele><time>2026-04-01T21:48:57Z</time></trkpt><trkpt lat="45.626576324530426" lon="11.572981236257403"><ele>51.0</ele><time>2026-04-01T21:48:58Z</time></trkpt><trkpt lat="45.626436306246845" lon="11.572866743394927"><ele>51.0</ele><time>2026-04-01T21:48:59Z</time></trkpt><trkpt lat="45.626317219219644" lon="11.572758906665292"><ele>51.0</ele><time>2026-04-01T21:49:00Z</time></trkpt><trkpt lat="45.626205332668476" lon="11.572669714033893"><ele>51.0</ele><time>2026-04-01T21:49:01Z</time></trkpt><trkpt lat="45.6261142763295" lon="11.572595770172423"><ele>50.8</ele><time>2026-04-01T21:49:02Z</time></trkpt><trkpt lat="45.62599927783162" lon="11.572501787555327"><ele>50.599999999999994</ele><time>2026-04-01T21:49:03Z</time></trkpt><trkpt lat="45.62592721220186" lon="11.572392977885245"><ele>50.4</ele><time>2026-04-01T21:49:04Z</time></trkpt><trkpt lat="45.625855795430056" lon="11.572311312475357"><ele>50.2</ele><time>2026-04-01T21:49:05Z</time></trkpt><trkpt lat="45.62581158218543" lon="11.572206211218022"><ele>50.0</ele><time>2026-04-01T21:49:06Z</time></trkpt><trkpt lat="45.62576051129631" lon="11.572082709207498"><ele>50.0</ele><time>2026-04-01T21:49:07Z</time></trkpt><trkpt lat="45.625752800992345" lon="11.571967590877852"><ele>50.0</ele><time>2026-04-01T21:49:08Z</time></trkpt><trkpt lat="45.62571835126193" lon="11.571852857342515"><ele>50.0</ele><time>2026-04-01T21:49:09Z</time></trkpt><trkpt lat="45.62565466984252" lon="11.571743402689494"><ele>50.0</ele><time>2026-04-01T21:49:10Z</time></trkpt><trkpt lat="45.62561172872242" lon="11.571617467092384"><ele>50.0</ele><time>2026-04-01T21:49:11Z</time></trkpt><trkpt lat="45.62556419176239" lon="11.571466348952812"><ele>50.0</ele><time>2026-04-01T21:49:12Z</time></trkpt><trkpt lat="45.62551523949754" lon="11.571330192814363"><ele>50.0</ele><time>2026-04-01T21:49:13Z</time></trkpt><trkpt lat="45.62546286277384" lon="11.571211972071454"><ele>50.0</ele><time>2026-04-01T21:49:14Z</time></trkpt><trkpt lat="45.62541119429974" lon="11.57113648431192"><ele>50.0</ele><time>2026-04-01T21:49:15Z</time></trkpt><trkpt lat="45.62538168866467" lon="11.571028778835014"><ele>50.0</ele><time>2026-04-01T21:49:16Z</time></trkpt><trkpt lat="45.62534666371239" lon="11.570901059927817"><ele>50.00000000000001</ele><time>2026-04-01T21:49:18Z</time></trkpt><trkpt lat="45.625303248233976" lon="11.570821426591804"><ele>50.0</ele><time>2026-04-01T21:49:20Z</time></trkpt><trkpt lat="45.62515885771733" lon="11.570829182160676"><ele>50.0</ele><time>2026-04-01T21:49:21Z</time></trkpt><trkpt lat="45.62510057886083" lon="11.57087509287889"><ele>50.0</ele><time>2026-04-01T21:49:22Z</time></trkpt><trkpt lat="45.62504282614989" lon="11.570920589118725"><ele>50.00000000000001</ele><time>2026-04-01T21:49:23Z</time></trkpt><trkpt lat="45.62497174241243" lon="11.570976587227648"><ele>50.0</ele><time>2026-04-01T21:49:24Z</time></trkpt><trkpt lat="45.62490619354096" lon="11.571028225159369"><ele>50.00000000000001</ele><time>2026-04-01T21:49:25Z</time></trkpt><trkpt lat="45.62483966765378" lon="11.571080632703396"><ele>50.0</ele><time>2026-04-01T21:49:26Z</time></trkpt><trkpt lat="45.62477231113434" lon="11.571133694615268"><ele>50.0</ele><time>2026-04-01T21:49:27Z</time></trkpt><trkpt lat="45.624688459386874" lon="11.571199750141025"><ele>50.0</ele><time>2026-04-01T21:49:28Z</time></trkpt><trkpt lat="45.624614670570445" lon="11.571254827182692"><ele>50.00000000000001</ele><time>2026-04-01T21:49:28.999Z</time></trkpt><trkpt lat="45.62455003809289" lon="11.571295430526252"><ele>50.0</ele><time>2026-04-01T21:49:29.999Z</time></trkpt><trkpt lat="45.624478476424294" lon="11.571277964976113"><ele>49.8</ele><time>2026-04-01T21:49:30.999Z</time></trkpt><trkpt lat="45.62438907318051" lon="11.571247224759496"><ele>49.6</ele><time>2026-04-01T21:49:31.999Z</time></trkpt><trkpt lat="45.62429054012582" lon="11.571226940780514"><ele>49.400000000000006</ele><time>2026-04-01T21:49:32.999Z</time></trkpt><trkpt lat="45.624199477576326" lon="11.571187812139872"><ele>49.2</ele><time>2026-04-01T21:49:33.999Z</time></trkpt><trkpt lat="45.62409815910034" lon="11.571156062482538"><ele>49.0</ele><time>2026-04-01T21:49:34.999Z</time></trkpt><trkpt lat="45.624000105785086" lon="11.571140885987608"><ele>49.0</ele><time>2026-04-01T21:49:35.999Z</time></trkpt><trkpt lat="45.62391601365451" lon="11.571102831143671"><ele>49.0</ele><time>2026-04-01T21:49:36.999Z</time></trkpt><trkpt lat="45.623827701535724" lon="11.571077138428146"><ele>49.0</ele><time>2026-04-01T21:49:37.999Z</time></trkpt><trkpt lat="45.62373757019257" lon="11.571046638136801"><ele>49.0</ele><time>2026-04-01T21:49:38.999Z</time></trkpt><trkpt lat="45.623647646683196" lon="11.57102647104247"><ele>49.0</ele><time>2026-04-01T21:49:39.999Z</time></trkpt><trkpt lat="45.62355747113553" lon="11.570990858772339"><ele>48.83333333333333</ele><time>2026-04-01T21:49:40.999Z</time></trkpt><trkpt lat="45.62348776314616" lon="11.570970516108558"><ele>48.666666666666664</ele><time>2026-04-01T21:49:41.999Z</time></trkpt><trkpt lat="45.62339717340417" lon="11.570941182141501"><ele>48.5</ele><time>2026-04-01T21:49:43.999Z</time></trkpt><trkpt lat="45.623334480770396" lon="11.57091916274401"><ele>48.33333333333333</ele><time>2026-04-01T21:49:45.999Z</time></trkpt><trkpt lat="45.6232299187738" lon="11.570884502015678"><ele>48.166666666666664</ele><time>2026-04-01T21:49:47.999Z</time></trkpt><trkpt lat="45.62314194992788" lon="11.5708521624717"><ele>48.0</ele><time>2026-04-01T21:49:49.999Z</time></trkpt><trkpt lat="45.623073269462786" lon="11.570839115970845"><ele>48.0</ele><time>2026-04-01T21:49:51.999Z</time></trkpt><trkpt lat="45.62301323687248" lon="11.570807509997953"><ele>48.0</ele><time>2026-04-01T21:50:10.999Z</time></trkpt><trkpt lat="45.623119775435725" lon="11.57081949850882"><ele>48.0</ele><time>2026-04-01T21:50:38.998Z</time></trkpt><trkpt lat="45.623184455411625" lon="11.570838222742328"><ele>48.0</ele><time>2026-04-01T21:50:41.998Z</time></trkpt><trkpt lat="45.623244185034736" lon="11.570873251233534"><ele>48.0</ele><time>2026-04-01T21:50:44.998Z</time></trkpt><trkpt lat="45.62335319108694" lon="11.570902434477645"><ele>48.0</ele><time>2026-04-01T21:51:04Z</time></trkpt><trkpt lat="45.62345515494533" lon="11.57094159232023"><ele>48.0</ele><time>2026-04-01T21:51:06Z</time></trkpt><trkpt lat="45.62356034609488" lon="11.570983181190313"><ele>48.0</ele><time>2026-04-01T21:51:07Z</time></trkpt><trkpt lat="45.62362467210779" lon="11.571001868535058"><ele>48.0</ele><time>2026-04-01T21:51:08Z</time></trkpt><trkpt lat="45.623701707649666" lon="11.571079445575762"><ele>48.0</ele><time>2026-04-01T21:51:09Z</time></trkpt><trkpt lat="45.62378038672206" lon="11.571104392599159"><ele>48.0</ele><time>2026-04-01T21:51:10Z</time></trkpt><trkpt lat="45.62386206266244" lon="11.571130289848181"><ele>48.0</ele><time>2026-04-01T21:51:11Z</time></trkpt><trkpt lat="45.62395954546892" lon="11.571161199031415"><ele>48.0</ele><time>2026-04-01T21:51:12Z</time></trkpt><trkpt lat="45.624068811916395" lon="11.571195444717459"><ele>48.0</ele><time>2026-04-01T21:51:13Z</time></trkpt><trkpt lat="45.624190137759825" lon="11.571233463993751"><ele>48.0</ele><time>2026-04-01T21:51:14Z</time></trkpt><trkpt lat="45.624291137633875" lon="11.571265113839193"><ele>48.0</ele><time>2026-04-01T21:51:15Z</time></trkpt><trkpt lat="45.62438066990334" lon="11.571293170130943"><ele>48.0</ele><time>2026-04-01T21:51:16Z</time></trkpt><trkpt lat="45.624473500469904" lon="11.571301380602625"><ele>48.4</ele><time>2026-04-01T21:51:17Z</time></trkpt><trkpt lat="45.62455533987675" lon="11.571342361091272"><ele>48.8</ele><time>2026-04-01T21:51:18Z</time></trkpt><trkpt lat="45.62463060697354" lon="11.571353408133694"><ele>49.2</ele><time>2026-04-01T21:51:19Z</time></trkpt><trkpt lat="45.624713406970436" lon="11.571241369696594"><ele>49.6</ele><time>2026-04-01T21:51:20Z</time></trkpt><trkpt lat="45.6247786799386" lon="11.571212915321917"><ele>50.0</ele><time>2026-04-01T21:51:21Z</time></trkpt><trkpt lat="45.6248720382743" lon="11.5711364473037"><ele>50.00000000000001</ele><time>2026-04-01T21:51:22Z</time></trkpt><trkpt lat="45.62495340775124" lon="11.571068347250126"><ele>50.0</ele><time>2026-04-01T21:51:23Z</time></trkpt><trkpt lat="45.62502298233114" lon="11.571017162988484"><ele>50.0</ele><time>2026-04-01T21:51:24Z</time></trkpt><trkpt lat="45.62511565903798" lon="11.570936034148792"><ele>50.0</ele><time>2026-04-01T21:51:25Z</time></trkpt><trkpt lat="45.625181521211694" lon="11.570889671621824"><ele>50.00000000000001</ele><time>2026-04-01T21:51:26Z</time></trkpt><trkpt lat="45.62523892541781" lon="11.570810768892892"><ele>50.0</ele><time>2026-04-01T21:51:29Z</time></trkpt><trkpt lat="45.62529759968841" lon="11.57076488792446"><ele>50.0</ele><time>2026-04-01T21:51:31.999Z</time></trkpt><trkpt lat="45.62535853087416" lon="11.571055577028272"><ele>50.0</ele><time>2026-04-01T21:51:36.999Z</time></trkpt><trkpt lat="45.62540356719039" lon="11.571169688310125"><ele>50.0</ele><time>2026-04-01T21:51:37.999Z</time></trkpt><trkpt lat="45.62547890634127" lon="11.571347934039311"><ele>50.0</ele><time>2026-04-01T21:51:38.999Z</time></trkpt><trkpt lat="45.62552829671602" lon="11.571485664734748"><ele>50.0</ele><time>2026-04-01T21:51:39.999Z</time></trkpt><trkpt lat="45.625569773987074" lon="11.571634940137228"><ele>50.0</ele><time>2026-04-01T21:51:40.999Z</time></trkpt><trkpt lat="45.62562772852503" lon="11.571752903426278"><ele>50.0</ele><time>2026-04-01T21:51:41.999Z</time></trkpt><trkpt lat="45.62566476689941" lon="11.571892860366322"><ele>50.0</ele><time>2026-04-01T21:51:42.999Z</time></trkpt><trkpt lat="45.62568955324811" lon="11.572035691851228"><ele>50.0</ele><time>2026-04-01T21:51:43.999Z</time></trkpt><trkpt lat="45.625751677849316" lon="11.572184936167949"><ele>50.0</ele><time>2026-04-01T21:51:44.999Z</time></trkpt><trkpt lat="45.62583927130847" lon="11.572333389081589"><ele>50.0</ele><time>2026-04-01T21:51:45.999Z</time></trkpt><trkpt lat="45.625915394006974" lon="11.572450153088932"><ele>50.0</ele><time>2026-04-01T21:51:46.999Z</time></trkpt><trkpt lat="45.62601013878879" lon="11.57255348813989"><ele>50.0</ele><time>2026-04-01T21:51:47.999Z</time></trkpt><trkpt lat="45.62610163063701" lon="11.572645780222294"><ele>50.25</ele><time>2026-04-01T21:51:48.999Z</time></trkpt><trkpt lat="45.62619222602042" lon="11.572740515916351"><ele>50.5</ele><time>2026-04-01T21:51:49.999Z</time></trkpt><trkpt lat="45.62629444758946" lon="11.572829992957077"><ele>50.75</ele><time>2026-04-01T21:51:50.999Z</time></trkpt><trkpt lat="45.62637240905109" lon="11.572908474797034"><ele>51.0</ele><time>2026-04-01T21:51:51.999Z</time></trkpt><trkpt lat="45.626491461405735" lon="11.57302712280874"><ele>51.0</ele><time>2026-04-01T21:51:52.999Z</time></trkpt><trkpt lat="45.62664389107423" lon="11.573136326573795"><ele>51.0</ele><time>2026-04-01T21:51:53.999Z</time></trkpt><trkpt lat="45.62675454679499" lon="11.573211644610621"><ele>51.0</ele><time>2026-04-01T21:51:54.999Z</time></trkpt><trkpt lat="45.62687582639064" lon="11.573282162887056"><ele>51.0</ele><time>2026-04-01T21:51:55.999Z</time></trkpt><trkpt lat="45.627023468406954" lon="11.573356237062315"><ele>51.0</ele><time>2026-04-01T21:51:56.999Z</time></trkpt><trkpt lat="45.62713624141642" lon="11.57344566534931"><ele>51.0</ele><time>2026-04-01T21:51:57.999Z</time></trkpt><trkpt lat="45.62726438815175" lon="11.573559815863693"><ele>51.0</ele><time>2026-04-01T21:51:58.999Z</time></trkpt><trkpt lat="45.62739289660935" lon="11.573658892961701"><ele>51.0</ele><time>2026-04-01T21:51:59.999Z</time></trkpt><trkpt lat="45.62750632646447" lon="11.573747244838168"><ele>51.0</ele><time>2026-04-01T21:52:00.999Z</time></trkpt><trkpt lat="45.62763635192593" lon="11.573847813447642"><ele>51.0</ele><time>2026-04-01T21:52:01.999Z</time></trkpt><trkpt lat="45.62773813659246" lon="11.573924966227116"><ele>51.0</ele><time>2026-04-01T21:52:02.999Z</time></trkpt><trkpt lat="45.627869131255295" lon="11.574022625354948"><ele>51.0</ele><time>2026-04-01T21:52:03.999Z</time></trkpt><trkpt lat="45.62797226885167" lon="11.574107037141824"><ele>51.25</ele><time>2026-04-01T21:52:04.999Z</time></trkpt><trkpt lat="45.62808119963617" lon="11.57420177001113"><ele>51.5</ele><time>2026-04-01T21:52:05.999Z</time></trkpt><trkpt lat="45.62820045063599" lon="11.574269929534633"><ele>51.75</ele><time>2026-04-01T21:52:06.999Z</time></trkpt><trkpt lat="45.62831995842024" lon="11.574349034423618"><ele>52.0</ele><time>2026-04-01T21:52:07.999Z</time></trkpt><trkpt lat="45.62842361812528" lon="11.574433588582869"><ele>51.99999999999999</ele><time>2026-04-01T21:52:08.999Z</time></trkpt><trkpt lat="45.628502654572294" lon="11.57448626452081"><ele>52.0</ele><time>2026-04-01T21:52:09.999Z</time></trkpt><trkpt lat="45.62858168983806" lon="11.574540666491904"><ele>52.0</ele><time>2026-04-01T21:52:10.999Z</time></trkpt><trkpt lat="45.6286498566473" lon="11.574606344458328"><ele>52.0</ele><time>2026-04-01T21:52:11.999Z</time></trkpt><trkpt lat="45.628708723594706" lon="11.574681570943445"><ele>51.99999999999999</ele><time>2026-04-01T21:52:12.999Z</time></trkpt><trkpt lat="45.62876918748527" lon="11.57474303779688"><ele>52.0</ele><time>2026-04-01T21:52:13.999Z</time></trkpt><trkpt lat="45.62884795387347" lon="11.574803105330712"><ele>52.166666666666664</ele><time>2026-04-01T21:52:14.999Z</time></trkpt><trkpt lat="45.628924400982946" lon="11.574859137919132"><ele>52.33333333333333</ele><time>2026-04-01T21:52:15.999Z</time></trkpt><trkpt lat="45.629008197813434" lon="11.574836793808425"><ele>52.5</ele><time>2026-04-01T21:52:16.999Z</time></trkpt><trkpt lat="45.62907542922205" lon="11.574807289198196"><ele>52.66666666666667</ele><time>2026-04-01T21:52:17.999Z</time></trkpt><trkpt lat="45.629152228047666" lon="11.574791550904422"><ele>52.833333333333336</ele><time>2026-04-01T21:52:18.999Z</time></trkpt><trkpt lat="45.629213857610054" lon="11.57481249041412"><ele>53.0</ele><time>2026-04-01T21:52:19.999Z</time></trkpt><trkpt lat="45.629286304644054" lon="11.574865195198806"><ele>53.0</ele><time>2026-04-01T21:52:20.999Z</time></trkpt><trkpt lat="45.62938776307283" lon="11.57489585911872"><ele>53.0</ele><time>2026-04-01T21:52:21.999Z</time></trkpt><trkpt lat="45.62947561118909" lon="11.57489713768722"><ele>53.0</ele><time>2026-04-01T21:52:22.999Z</time></trkpt><trkpt lat="45.62956246722192" lon="11.574926024655365"><ele>53.0</ele><time>2026-04-01T21:52:23.999Z</time></trkpt><trkpt lat="45.62966092118045" lon="11.575002160931653"><ele>53.0</ele><time>2026-04-01T21:52:24.999Z</time></trkpt><trkpt lat="45.629752435700034" lon="11.57504773694402"><ele>53.0</ele><time>2026-04-01T21:52:25.999Z</time></trkpt><trkpt lat="45.62983605597418" lon="11.57509291679357"><ele>53.0</ele><time>2026-04-01T21:52:26.999Z</time></trkpt><trkpt lat="45.62993133039023" lon="11.575136535150477"><ele>53.0</ele><time>2026-04-01T21:52:27.999Z</time></trkpt><trkpt lat="45.630024566738896" lon="11.575196174326386"><ele>53.0</ele><time>2026-04-01T21:52:28.999Z</time></trkpt><trkpt lat="45.63011256951534" lon="11.575254532763307"><ele>53.0</ele><time>2026-04-01T21:52:29.999Z</time></trkpt><trkpt lat="45.630202945273076" lon="11.575306430656159"><ele>52.8</ele><time>2026-04-01T21:52:30.999Z</time></trkpt><trkpt lat="45.630263766589174" lon="11.57535761149457"><ele>52.599999999999994</ele><time>2026-04-01T21:52:31.999Z</time></trkpt><trkpt lat="45.63037328957666" lon="11.575412108624846"><ele>52.400000000000006</ele><time>2026-04-01T21:52:32.999Z</time></trkpt><trkpt lat="45.6304630290526" lon="11.575459200934215"><ele>52.2</ele><time>2026-04-01T21:52:33.999Z</time></trkpt><trkpt lat="45.63055644066788" lon="11.575466065018354"><ele>52.0</ele><time>2026-04-01T21:52:34.999Z</time></trkpt><trkpt lat="45.63065960559089" lon="11.575476792363647"><ele>52.0</ele><time>2026-04-01T21:52:35.999Z</time></trkpt><trkpt lat="45.63074143486771" lon="11.575482514223927"><ele>52.0</ele><time>2026-04-01T21:52:36.999Z</time></trkpt><trkpt lat="45.6308209366709" lon="11.57549055713858"><ele>52.0</ele><time>2026-04-01T21:52:37.998Z</time></trkpt><trkpt lat="45.63088302694775" lon="11.575516207567393"><ele>52.0</ele><time>2026-04-01T21:52:38.998Z</time></trkpt><trkpt lat="45.630955633256725" lon="11.575531667638163"><ele>52.0</ele><time>2026-04-01T21:52:39.998Z</time></trkpt><trkpt lat="45.631018770966634" lon="11.575545325668859"><ele>52.0</ele><time>2026-04-01T21:52:40.998Z</time></trkpt><trkpt lat="45.631088921110845" lon="11.575563099447939"><ele>52.0</ele><time>2026-04-01T21:52:41.998Z</time></trkpt><trkpt lat="45.63115812587764" lon="11.575582928977012"><ele>52.0</ele><time>2026-04-01T21:52:42.998Z</time></trkpt><trkpt lat="45.63124308963964" lon="11.575606846245245"><ele>52.0</ele><time>2026-04-01T21:52:43.998Z</time></trkpt><trkpt lat="45.63133167667278" lon="11.575642613802389"><ele>52.0</ele><time>2026-04-01T21:52:44.998Z</time></trkpt><trkpt lat="45.63143078040399" lon="11.575683543132673"><ele>52.0</ele><time>2026-04-01T21:52:45.998Z</time></trkpt><trkpt lat="45.63153664867867" lon="11.575726990386427"><ele>52.0</ele><time>2026-04-01T21:52:46.998Z</time></trkpt><trkpt lat="45.631645657670866" lon="11.575767868292049"><ele>52.0</ele><time>2026-04-01T21:52:47.998Z</time></trkpt><trkpt lat="45.6317581202909" lon="11.575812862421685"><ele>52.0</ele><time>2026-04-01T21:52:48.998Z</time></trkpt><trkpt lat="45.63187469351453" lon="11.575864392490839"><ele>52.0</ele><time>2026-04-01T21:52:49.998Z</time></trkpt><trkpt lat="45.631985574106096" lon="11.57590998047033"><ele>52.0</ele><time>2026-04-01T21:52:50.998Z</time></trkpt><trkpt lat="45.632078006169685" lon="11.575971853704715"><ele>52.25</ele><time>2026-04-01T21:52:51.998Z</time></trkpt><trkpt lat="45.63218569923047" lon="11.57602248709476"><ele>52.5</ele><time>2026-04-01T21:52:52.998Z</time></trkpt><trkpt lat="45.63230933076597" lon="11.576083094126306"><ele>52.75</ele><time>2026-04-01T21:52:53.998Z</time></trkpt><trkpt lat="45.63243198267427" lon="11.57614319660105"><ele>53.0</ele><time>2026-04-01T21:52:54.998Z</time></trkpt><trkpt lat="45.63254086712091" lon="11.576210692732305"><ele>53.0</ele><time>2026-04-01T21:52:55.998Z</time></trkpt><trkpt lat="45.63265359224479" lon="11.57627354555929"><ele>53.0</ele><time>2026-04-01T21:52:56.998Z</time></trkpt><trkpt lat="45.63277767170182" lon="11.57632366489427"><ele>53.0</ele><time>2026-04-01T21:52:57.998Z</time></trkpt><trkpt lat="45.63291150903904" lon="11.576373537121126"><ele>53.0</ele><time>2026-04-01T21:52:58.998Z</time></trkpt><trkpt lat="45.63303116185791" lon="11.576423446783703"><ele>53.5</ele><time>2026-04-01T21:52:59.998Z</time></trkpt><trkpt lat="45.63315518883713" lon="11.576452556480762"><ele>54.0</ele><time>2026-04-01T21:53:01Z</time></trkpt><trkpt lat="45.633275707305195" lon="11.576460979267926"><ele>54.5</ele><time>2026-04-01T21:53:02Z</time></trkpt><trkpt lat="45.63338332683695" lon="11.576481118739508"><ele>55.0</ele><time>2026-04-01T21:53:03Z</time></trkpt><trkpt lat="45.633495749999575" lon="11.576482266695281"><ele>55.0</ele><time>2026-04-01T21:53:04Z</time></trkpt><trkpt lat="45.63362064200362" lon="11.57649890536466"><ele>55.0</ele><time>2026-04-01T21:53:05Z</time></trkpt><trkpt lat="45.63372959329411" lon="11.576500565889814"><ele>55.0</ele><time>2026-04-01T21:53:06Z</time></trkpt><trkpt lat="45.633829019828724" lon="11.576511696747177"><ele>55.0</ele><time>2026-04-01T21:53:07Z</time></trkpt><trkpt lat="45.633923974616316" lon="11.576506830557848"><ele>55.0</ele><time>2026-04-01T21:53:08Z</time></trkpt><trkpt lat="45.6340198706218" lon="11.576508065457576"><ele>55.0</ele><time>2026-04-01T21:53:09Z</time></trkpt><trkpt lat="45.63410759311271" lon="11.576515197771837"><ele>55.0</ele><time>2026-04-01T21:53:10Z</time></trkpt><trkpt lat="45.63420533253313" lon="11.576522321100837"><ele>55.0</ele><time>2026-04-01T21:53:11Z</time></trkpt><trkpt lat="45.63431983118229" lon="11.57652917730307"><ele>55.0</ele><time>2026-04-01T21:53:12Z</time></trkpt><trkpt lat="45.63443229949198" lon="11.576538039010611"><ele>55.0</ele><time>2026-04-01T21:53:13Z</time></trkpt><trkpt lat="45.63454188398068" lon="11.576541670224684"><ele>55.2</ele><time>2026-04-01T21:53:14Z</time></trkpt><trkpt lat="45.63465376448726" lon="11.576545236819324"><ele>55.4</ele><time>2026-04-01T21:53:15Z</time></trkpt><trkpt lat="45.634764455942324" lon="11.57655824542611"><ele>55.599999999999994</ele><time>2026-04-01T21:53:16Z</time></trkpt><trkpt lat="45.634869935246954" lon="11.576572230357646"><ele>55.8</ele><time>2026-04-01T21:53:17Z</time></trkpt><trkpt lat="45.63498036334412" lon="11.576573168836905"><ele>56.0</ele><time>2026-04-01T21:53:18Z</time></trkpt><trkpt lat="45.63509237378937" lon="11.576568620032104"><ele>56.0</ele><time>2026-04-01T21:53:19Z</time></trkpt><trkpt lat="45.63520571121639" lon="11.576578689159167"><ele>56.0</ele><time>2026-04-01T21:53:20Z</time></trkpt><trkpt lat="45.63531297886571" lon="11.57658612764609"><ele>56.0</ele><time>2026-04-01T21:53:21Z</time></trkpt><trkpt lat="45.6354240127262" lon="11.576599675199077"><ele>56.0</ele><time>2026-04-01T21:53:22Z</time></trkpt><trkpt lat="45.63554309925706" lon="11.576608420429247"><ele>56.8</ele><time>2026-04-01T21:53:23Z</time></trkpt><trkpt lat="45.63564411658613" lon="11.576623357585081"><ele>57.599999999999994</ele><time>2026-04-01T21:53:24Z</time></trkpt><trkpt lat="45.63574061774034" lon="11.576628321282028"><ele>58.4</ele><time>2026-04-01T21:53:25Z</time></trkpt><trkpt lat="45.63584297295544" lon="11.57662106612028"><ele>59.2</ele><time>2026-04-01T21:53:26Z</time></trkpt><trkpt lat="45.635942712758506" lon="11.576595423599484"><ele>60.0</ele><time>2026-04-01T21:53:27Z</time></trkpt><trkpt lat="45.63606247905321" lon="11.576572938086352"><ele>60.25</ele><time>2026-04-01T21:53:28Z</time></trkpt><trkpt lat="45.63617927807921" lon="11.576542707219877"><ele>60.5</ele><time>2026-04-01T21:53:29Z</time></trkpt><trkpt lat="45.63629238275673" lon="11.576517816564367"><ele>60.75</ele><time>2026-04-01T21:53:30Z</time></trkpt><trkpt lat="45.63638636744234" lon="11.576491590479696"><ele>61.0</ele><time>2026-04-01T21:53:31Z</time></trkpt><trkpt lat="45.636510103923825" lon="11.576464206778681"><ele>61.0</ele><time>2026-04-01T21:53:32Z</time></trkpt><trkpt lat="45.63662847280346" lon="11.576442175229866"><ele>60.99999999999999</ele><time>2026-04-01T21:53:33Z</time></trkpt><trkpt lat="45.63671825148154" lon="11.576430673139349"><ele>60.99999999999999</ele><time>2026-04-01T21:53:34Z</time></trkpt><trkpt lat="45.6368050921126" lon="11.576447826582926"><ele>61.0</ele><time>2026-04-01T21:53:35Z</time></trkpt><trkpt lat="45.63690118482846" lon="11.576494170555954"><ele>61.0</ele><time>2026-04-01T21:53:36Z</time></trkpt><trkpt lat="45.63697228416462" lon="11.576564494373722"><ele>61.0</ele><time>2026-04-01T21:53:37Z</time></trkpt><trkpt lat="45.637033457285256" lon="11.576669828736726"><ele>60.99999999999999</ele><time>2026-04-01T21:53:38Z</time></trkpt><trkpt lat="45.63709721428292" lon="11.576772397924532"><ele>60.99999999999999</ele><time>2026-04-01T21:53:39Z</time></trkpt><trkpt lat="45.6371690794186" lon="11.576868202085949"><ele>61.0</ele><time>2026-04-01T21:53:39.999Z</time></trkpt><trkpt lat="45.63723835189951" lon="11.57696620009124"><ele>61.0</ele><time>2026-04-01T21:53:40.999Z</time></trkpt><trkpt lat="45.637316487610036" lon="11.577049004361724"><ele>61.0</ele><time>2026-04-01T21:53:41.999Z</time></trkpt><trkpt lat="45.63741452128229" lon="11.577096607600115"><ele>60.99999999999999</ele><time>2026-04-01T21:53:42.999Z</time></trkpt><trkpt lat="45.63753113049373" lon="11.57716293636124"><ele>60.99999999999999</ele><time>2026-04-01T21:53:43.999Z</time></trkpt><trkpt lat="45.637637339101246" lon="11.57716481493854"><ele>61.0</ele><time>2026-04-01T21:53:44.999Z</time></trkpt><trkpt lat="45.63774771657287" lon="11.577148993918216"><ele>61.0</ele><time>2026-04-01T21:53:45.999Z</time></trkpt><trkpt lat="45.63786801235627" lon="11.57714998306436"><ele>60.5</ele><time>2026-04-01T21:53:46.999Z</time></trkpt><trkpt lat="45.63799902498136" lon="11.577156673660985"><ele>60.0</ele><time>2026-04-01T21:53:47.999Z</time></trkpt><trkpt lat="45.63811390267936" lon="11.577154902886482"><ele>59.5</ele><time>2026-04-01T21:53:48.999Z</time></trkpt><trkpt lat="45.6382339442131" lon="11.577152647881565"><ele>59.0</ele><time>2026-04-01T21:53:49.999Z</time></trkpt><trkpt lat="45.63833465542557" lon="11.577148377964185"><ele>59.0</ele><time>2026-04-01T21:53:50.999Z</time></trkpt><trkpt lat="45.638449004018845" lon="11.577159190266482"><ele>59.0</ele><time>2026-04-01T21:53:51.999Z</time></trkpt><trkpt lat="45.6385698998625" lon="11.577162805096664"><ele>59.0</ele><time>2026-04-01T21:53:52.999Z</time></trkpt><trkpt lat="45.638677749803875" lon="11.577173678829691"><ele>59.0</ele><time>2026-04-01T21:53:53.999Z</time></trkpt><trkpt lat="45.63878430990606" lon="11.577201192123646"><ele>59.2</ele><time>2026-04-01T21:53:54.999Z</time></trkpt><trkpt lat="45.63887917414046" lon="11.577250419801747"><ele>59.400000000000006</ele><time>2026-04-01T21:53:55.999Z</time></trkpt><trkpt lat="45.63896708266356" lon="11.577278945096968"><ele>59.6</ele><time>2026-04-01T21:53:56.999Z</time></trkpt><trkpt lat="45.639061906559895" lon="11.577286197460538"><ele>59.8</ele><time>2026-04-01T21:53:57.999Z</time></trkpt><trkpt lat="45.63914784537625" lon="11.577341213655158"><ele>60.0</ele><time>2026-04-01T21:53:58.999Z</time></trkpt><trkpt lat="45.63922948208255" lon="11.577380030256622"><ele>60.0</ele><time>2026-04-01T21:53:59.999Z</time></trkpt><trkpt lat="45.63931837501551" lon="11.57741114242867"><ele>60.0</ele><time>2026-04-01T21:54:00.999Z</time></trkpt><trkpt lat="45.63942760418143" lon="11.577450905250924"><ele>60.0</ele><time>2026-04-01T21:54:02.999Z</time></trkpt><trkpt lat="45.639516610918356" lon="11.577433319348932"><ele>60.0</ele><time>2026-04-01T21:54:04.999Z</time></trkpt><trkpt lat="45.63958835790816" lon="11.577349302089495"><ele>60.0</ele><time>2026-04-01T21:54:05.999Z</time></trkpt><trkpt lat="45.63959489291334" lon="11.577245986114585"><ele>60.166666666666664</ele><time>2026-04-01T21:54:06.999Z</time></trkpt><trkpt lat="45.63962295772597" lon="11.577165283514644"><ele>60.33333333333333</ele><time>2026-04-01T21:54:07.999Z</time></trkpt><trkpt lat="45.639639373653026" lon="11.577069192682224"><ele>60.5</ele><time>2026-04-01T21:54:08.999Z</time></trkpt><trkpt lat="45.63965525714195" lon="11.576958437810152"><ele>60.666666666666664</ele><time>2026-04-01T21:54:09.999Z</time></trkpt><trkpt lat="45.63967550195692" lon="11.576861684722791"><ele>60.83333333333333</ele><time>2026-04-01T21:54:10.999Z</time></trkpt><trkpt lat="45.6397054618394" lon="11.576693160151432"><ele>61.0</ele><time>2026-04-01T21:54:12.999Z</time></trkpt><trkpt lat="45.63972746939741" lon="11.576596519960411"><ele>61.0</ele><time>2026-04-01T21:54:13.999Z</time></trkpt><trkpt lat="45.63978710224201" lon="11.576473013833269"><ele>60.99999999999999</ele><time>2026-04-01T21:54:15.999Z</time></trkpt><trkpt lat="45.63989747780328" lon="11.576450294611591"><ele>60.99999999999999</ele><time>2026-04-01T21:54:17.999Z</time></trkpt><trkpt lat="45.63996114498583" lon="11.576441076366994"><ele>61.0</ele><time>2026-04-01T21:54:18.999Z</time></trkpt><trkpt lat="45.64006985677036" lon="11.576482075797927"><ele>61.0</ele><time>2026-04-01T21:54:20.999Z</time></trkpt><trkpt lat="45.64015589913639" lon="11.576486040899926"><ele>60.99999999999999</ele><time>2026-04-01T21:54:21.999Z</time></trkpt><trkpt lat="45.640229688227315" lon="11.576491894194357"><ele>61.0</ele><time>2026-04-01T21:54:22.999Z</time></trkpt><trkpt lat="45.64031945443017" lon="11.576499410109234"><ele>61.0</ele><time>2026-04-01T21:54:23.999Z</time></trkpt><trkpt lat="45.640404584634396" lon="11.576510822641902"><ele>61.0</ele><time>2026-04-01T21:54:24.999Z</time></trkpt><trkpt lat="45.64049303116061" lon="11.576525614755994"><ele>60.99999999999999</ele><time>2026-04-01T21:54:25.999Z</time></trkpt><trkpt lat="45.64058334647035" lon="11.576541735770808"><ele>61.0</ele><time>2026-04-01T21:54:26.999Z</time></trkpt><trkpt lat="45.64067239960544" lon="11.576569059063239"><ele>60.83333333333333</ele><time>2026-04-01T21:54:27.999Z</time></trkpt><trkpt lat="45.64074781783379" lon="11.576576260229986"><ele>60.666666666666664</ele><time>2026-04-01T21:54:28.999Z</time></trkpt><trkpt lat="45.64084002868863" lon="11.57659396450338"><ele>60.5</ele><time>2026-04-01T21:54:29.999Z</time></trkpt><trkpt lat="45.64090756733444" lon="11.576601077189121"><ele>60.33333333333333</ele><time>2026-04-01T21:54:30.999Z</time></trkpt><trkpt lat="45.640970993142474" lon="11.57661065951693"><ele>60.166666666666664</ele><time>2026-04-01T21:54:31.999Z</time></trkpt><trkpt lat="45.641050852121204" lon="11.576622682181045"><ele>60.0</ele><time>2026-04-01T21:54:33.999Z</time></trkpt><trkpt lat="45.6411271005878" lon="11.576656195365116"><ele>60.0</ele><time>2026-04-01T21:54:35.999Z</time></trkpt><trkpt lat="45.6411474708499" lon="11.576474556998978"><ele>60.0</ele><time>2026-04-01T21:54:37.999Z</time></trkpt><trkpt lat="45.641129638234666" lon="11.576354576682805"><ele>60.0</ele><time>2026-04-01T21:54:39.999Z</time></trkpt><trkpt lat="45.64115538671659" lon="11.57626374179945"><ele>60.0</ele><time>2026-04-01T21:54:41.999Z</time></trkpt><trkpt lat="45.64117817314474" lon="11.576158866433742"><ele>60.0</ele><time>2026-04-01T21:54:43.999Z</time></trkpt><trkpt lat="45.641209139944564" lon="11.576070630449228"><ele>60.0</ele><time>2026-04-01T21:54:45.999Z</time></trkpt><trkpt lat="45.64116736459622" lon="11.576000361545786"><ele>60.142857142857146</ele><time>2026-04-01T21:54:49.999Z</time></trkpt><trkpt lat="45.64108960785768" lon="11.576012543647371"><ele>60.28571428571428</ele><time>2026-04-01T21:54:52.998Z</time></trkpt><trkpt lat="45.64117712605383" lon="11.576001412619897"><ele>60.42857142857142</ele><time>2026-04-01T21:55:05.998Z</time></trkpt><trkpt lat="45.6412341209556" lon="11.576048036378094"><ele>60.57142857142857</ele><time>2026-04-01T21:55:31Z</time></trkpt><trkpt lat="45.64116238046415" lon="11.57602090627905"><ele>60.71428571428571</ele><time>2026-04-01T21:55:51.999Z</time></trkpt><trkpt lat="45.64110934051373" lon="11.575958556550152"><ele>60.85714285714285</ele><time>2026-04-01T22:00:42.999Z</time></trkpt><trkpt lat="45.641041953636226" lon="11.575921414583988"><ele>60.99999999999999</ele><time>2026-04-01T22:00:52.999Z</time></trkpt><trkpt lat="45.640958512629375" lon="11.575933720351113"><ele>61.0</ele><time>2026-04-01T22:00:54.999Z</time></trkpt><trkpt lat="45.64089343134972" lon="11.575978715849631"><ele>61.0</ele><time>2026-04-01T22:00:56.999Z</time></trkpt><trkpt lat="45.64088300859" lon="11.576242012387464"><ele>61.0</ele><time>2026-04-01T22:00:59.999Z</time></trkpt><trkpt lat="45.64086488821463" lon="11.576394631366417"><ele>61.0</ele><time>2026-04-01T22:01:01.999Z</time></trkpt><trkpt lat="45.640849747964545" lon="11.57652183966865"><ele>60.8</ele><time>2026-04-01T22:01:03.999Z</time></trkpt><trkpt lat="45.64082770668212" lon="11.57661594625655"><ele>60.599999999999994</ele><time>2026-04-01T22:01:06.999Z</time></trkpt><trkpt lat="45.64094243321628" lon="11.576620389775327"><ele>60.4</ele><time>2026-04-01T22:01:07.999Z</time></trkpt><trkpt lat="45.64106002094621" lon="11.576629259961676"><ele>60.2</ele><time>2026-04-01T22:01:09.999Z</time></trkpt><trkpt lat="45.641138992892195" lon="11.576647029747846"><ele>60.0</ele><time>2026-04-01T22:01:10.999Z</time></trkpt><trkpt lat="45.64123067333014" lon="11.576678361698345"><ele>60.0</ele><time>2026-04-01T22:01:11.999Z</time></trkpt><trkpt lat="45.641311236706805" lon="11.576689070521663"><ele>60.0</ele><time>2026-04-01T22:01:12.999Z</time></trkpt><trkpt lat="45.64140266651856" lon="11.57671438725063"><ele>60.0</ele><time>2026-04-01T22:01:13.999Z</time></trkpt><trkpt lat="45.64149615662693" lon="11.576727325135657"><ele>60.0</ele><time>2026-04-01T22:01:14.999Z</time></trkpt><trkpt lat="45.64158509685038" lon="11.576736963496106"><ele>60.0</ele><time>2026-04-01T22:01:15.999Z</time></trkpt><trkpt lat="45.64166811904597" lon="11.576747835133432"><ele>60.0</ele><time>2026-04-01T22:01:16.999Z</time></trkpt><trkpt lat="45.641750684316754" lon="11.576768085877216"><ele>60.0</ele><time>2026-04-01T22:01:17.999Z</time></trkpt><trkpt lat="45.64183128979363" lon="11.57677972999298"><ele>60.0</ele><time>2026-04-01T22:01:18.999Z</time></trkpt><trkpt lat="45.64191977698534" lon="11.576790771383259"><ele>60.0</ele><time>2026-04-01T22:01:19.999Z</time></trkpt><trkpt lat="45.64200036021447" lon="11.576810384351322"><ele>60.0</ele><time>2026-04-01T22:01:20.998Z</time></trkpt><trkpt lat="45.64208513136191" lon="11.576823933052813"><ele>60.0</ele><time>2026-04-01T22:01:21.998Z</time></trkpt><trkpt lat="45.64216416429892" lon="11.576836148589727"><ele>60.0</ele><time>2026-04-01T22:01:22.998Z</time></trkpt><trkpt lat="45.64222646941683" lon="11.576850961503494"><ele>60.333333333333336</ele><time>2026-04-01T22:01:23.998Z</time></trkpt><trkpt lat="45.64230118222955" lon="11.576868899927858"><ele>60.66666666666667</ele><time>2026-04-01T22:01:26Z</time></trkpt><trkpt lat="45.64236932464505" lon="11.576840164350829"><ele>61.0</ele><time>2026-04-01T22:01:30Z</time></trkpt><trkpt lat="45.64239827442935" lon="11.57670583828765"><ele>61.333333333333336</ele><time>2026-04-01T22:01:32Z</time></trkpt><trkpt lat="45.64240641522338" lon="11.57653642967891"><ele>61.66666666666667</ele><time>2026-04-01T22:01:34Z</time></trkpt><trkpt lat="45.64241631329869" lon="11.576428367267283"><ele>62.0</ele><time>2026-04-01T22:01:35Z</time></trkpt><trkpt lat="45.64243094511185" lon="11.576306087955986"><ele>62.0</ele><time>2026-04-01T22:01:36Z</time></trkpt><trkpt lat="45.64244604188645" lon="11.576162928653478"><ele>62.0</ele><time>2026-04-01T22:01:37Z</time></trkpt><trkpt lat="45.642465064547885" lon="11.57601506144961"><ele>62.0</ele><time>2026-04-01T22:01:38Z</time></trkpt><trkpt lat="45.64247551466384" lon="11.575864878644712"><ele>62.0</ele><time>2026-04-01T22:01:39Z</time></trkpt><trkpt lat="45.642479965371706" lon="11.575770139492803"><ele>62.0</ele><time>2026-04-01T22:01:40Z</time></trkpt><trkpt lat="45.64248820903822" lon="11.575621644079176"><ele>62.00000000000001</ele><time>2026-04-01T22:03:16.999Z</time></trkpt><trkpt lat="45.642500808293235" lon="11.575503318865147"><ele>62.0</ele><time>2026-04-01T22:03:18.999Z</time></trkpt><trkpt lat="45.6424878017301" lon="11.575377574629425"><ele>62.0</ele><time>2026-04-01T22:03:20.999Z</time></trkpt><trkpt lat="45.64240399233213" lon="11.575285156573306"><ele>62.0</ele><time>2026-04-01T22:03:22.999Z</time></trkpt><trkpt lat="45.6423393611955" lon="11.575268997266503"><ele>62.00000000000001</ele><time>2026-04-01T22:03:23.999Z</time></trkpt><trkpt lat="45.64226237532605" lon="11.57524856022978"><ele>62.0</ele><time>2026-04-01T22:03:24.999Z</time></trkpt><trkpt lat="45.642170902111594" lon="11.575210058095351"><ele>62.0</ele><time>2026-04-01T22:03:25.999Z</time></trkpt><trkpt lat="45.64207904580992" lon="11.57518059294554"><ele>62.0</ele><time>2026-04-01T22:03:26.999Z</time></trkpt><trkpt lat="45.64199133430401" lon="11.575150849754175"><ele>62.0</ele><time>2026-04-01T22:03:27.999Z</time></trkpt><trkpt lat="45.64189481922937" lon="11.575119449144392"><ele>62.0</ele><time>2026-04-01T22:03:28.999Z</time></trkpt><trkpt lat="45.64178333422091" lon="11.575076799001916"><ele>62.0</ele><time>2026-04-01T22:03:29.999Z</time></trkpt><trkpt lat="45.6416641757177" lon="11.575029092334276"><ele>61.75</ele><time>2026-04-01T22:03:31Z</time></trkpt><trkpt lat="45.64152968850735" lon="11.574986710543167"><ele>61.5</ele><time>2026-04-01T22:03:32Z</time></trkpt><trkpt lat="45.64139218782367" lon="11.574939406196131"><ele>61.25</ele><time>2026-04-01T22:03:33Z</time></trkpt><trkpt lat="45.64123754163285" lon="11.574883573473985"><ele>61.0</ele><time>2026-04-01T22:03:34Z</time></trkpt><trkpt lat="45.641094655006015" lon="11.574829866287054"><ele>61.0</ele><time>2026-04-01T22:03:35Z</time></trkpt><trkpt lat="45.64094613474434" lon="11.574770978372554"><ele>61.0</ele><time>2026-04-01T22:03:36Z</time></trkpt><trkpt lat="45.640785905555454" lon="11.574712438967996"><ele>61.0</ele><time>2026-04-01T22:03:37Z</time></trkpt><trkpt lat="45.64062867162823" lon="11.57465813977891"><ele>61.0</ele><time>2026-04-01T22:03:38Z</time></trkpt><trkpt lat="45.64045944363552" lon="11.574598600799344"><ele>61.0</ele><time>2026-04-01T22:03:39Z</time></trkpt><trkpt lat="45.64029325715225" lon="11.574528914901013"><ele>61.0</ele><time>2026-04-01T22:03:40Z</time></trkpt><trkpt lat="45.64012131993089" lon="11.574455969324042"><ele>61.33333333333333</ele><time>2026-04-01T22:03:41Z</time></trkpt><trkpt lat="45.63994784088049" lon="11.574378545378462"><ele>61.66666666666667</ele><time>2026-04-01T22:03:42Z</time></trkpt><trkpt lat="45.63977692939349" lon="11.574305331407128"><ele>62.0</ele><time>2026-04-01T22:03:43Z</time></trkpt><trkpt lat="45.63960403343132" lon="11.574237843131652"><ele>61.66666666666667</ele><time>2026-04-01T22:03:44Z</time></trkpt><trkpt lat="45.63943409092773" lon="11.574169802993568"><ele>61.33333333333333</ele><time>2026-04-01T22:03:45Z</time></trkpt><trkpt lat="45.63927756874891" lon="11.574105953734861"><ele>61.0</ele><time>2026-04-01T22:03:46Z</time></trkpt><trkpt lat="45.6391149569992" lon="11.574030357645643"><ele>61.0</ele><time>2026-04-01T22:03:47Z</time></trkpt><trkpt lat="45.638960599787836" lon="11.573968464323851"><ele>61.0</ele><time>2026-04-01T22:03:48Z</time></trkpt><trkpt lat="45.63879022508247" lon="11.57391113623414"><ele>61.0</ele><time>2026-04-01T22:03:49Z</time></trkpt><trkpt lat="45.638635194708264" lon="11.573848684057717"><ele>61.0</ele><time>2026-04-01T22:03:50Z</time></trkpt><trkpt lat="45.63846034953258" lon="11.57381197349754"><ele>61.0</ele><time>2026-04-01T22:03:51Z</time></trkpt><trkpt lat="45.63828568915718" lon="11.573776505665816"><ele>61.0</ele><time>2026-04-01T22:03:52Z</time></trkpt><trkpt lat="45.6381047414544" lon="11.573704610141872"><ele>60.33333333333333</ele><time>2026-04-01T22:03:53Z</time></trkpt><trkpt lat="45.637954412249314" lon="11.573641361380302"><ele>59.66666666666667</ele><time>2026-04-01T22:03:54Z</time></trkpt><trkpt lat="45.63780609707371" lon="11.57355239821171"><ele>59.0</ele><time>2026-04-01T22:03:55Z</time></trkpt><trkpt lat="45.63765071595184" lon="11.573493882344309"><ele>58.333333333333336</ele><time>2026-04-01T22:03:56Z</time></trkpt><trkpt lat="45.63747645871687" lon="11.573463633813919"><ele>57.66666666666667</ele><time>2026-04-01T22:03:57Z</time></trkpt><trkpt lat="45.63733969656864" lon="11.57339975954838"><ele>57.0</ele><time>2026-04-01T22:03:58Z</time></trkpt><trkpt lat="45.637206148465644" lon="11.573357139404301"><ele>57.0</ele><time>2026-04-01T22:03:59Z</time></trkpt><trkpt lat="45.63705446414105" lon="11.573310444141528"><ele>57.0</ele><time>2026-04-01T22:04:00Z</time></trkpt><trkpt lat="45.63689591915473" lon="11.573230562003387"><ele>57.0</ele><time>2026-04-01T22:04:01Z</time></trkpt><trkpt lat="45.63676187692185" lon="11.573203054567902"><ele>57.25</ele><time>2026-04-01T22:04:02Z</time></trkpt><trkpt lat="45.63662571804037" lon="11.573127364516845"><ele>57.5</ele><time>2026-04-01T22:04:03Z</time></trkpt><trkpt lat="45.63647010605294" lon="11.573068163074499"><ele>57.75</ele><time>2026-04-01T22:04:04Z</time></trkpt><trkpt lat="45.6363354679532" lon="11.57301694094064"><ele>58.0</ele><time>2026-04-01T22:04:05Z</time></trkpt><trkpt lat="45.63620544498564" lon="11.572967476518729"><ele>58.0</ele><time>2026-04-01T22:04:06Z</time></trkpt><trkpt lat="45.636079101953335" lon="11.572919410254736"><ele>58.0</ele><time>2026-04-01T22:04:07Z</time></trkpt><trkpt lat="45.63596305343031" lon="11.572874645603987"><ele>58.0</ele><time>2026-04-01T22:04:08Z</time></trkpt><trkpt lat="45.63584807827807" lon="11.572827840523084"><ele>58.0</ele><time>2026-04-01T22:04:09Z</time></trkpt><trkpt lat="45.63572921056988" lon="11.572790944882929"><ele>57.75</ele><time>2026-04-01T22:04:10Z</time></trkpt><trkpt lat="45.63563162979758" lon="11.572711208813766"><ele>57.5</ele><time>2026-04-01T22:04:11Z</time></trkpt><trkpt lat="45.63555550904658" lon="11.572591365849991"><ele>57.25</ele><time>2026-04-01T22:04:12Z</time></trkpt><trkpt lat="45.63548609447094" lon="11.572468535025259"><ele>57.0</ele><time>2026-04-01T22:04:13Z</time></trkpt><trkpt lat="45.63540899546064" lon="11.572330913964112"><ele>57.0</ele><time>2026-04-01T22:04:14Z</time></trkpt><trkpt lat="45.63537920566446" lon="11.572148642118634"><ele>57.0</ele><time>2026-04-01T22:04:15Z</time></trkpt><trkpt lat="45.63533813319355" lon="11.571982762602062"><ele>57.0</ele><time>2026-04-01T22:04:16Z</time></trkpt><trkpt lat="45.63532342368185" lon="11.5718393676342"><ele>57.0</ele><time>2026-04-01T22:04:17Z</time></trkpt><trkpt lat="45.63527143894794" lon="11.57174817726071"><ele>57.0</ele><time>2026-04-01T22:04:18Z</time></trkpt><trkpt lat="45.635116684473225" lon="11.571620062353421"><ele>56.75</ele><time>2026-04-01T22:04:20Z</time></trkpt><trkpt lat="45.63500085689559" lon="11.571707078284565"><ele>56.5</ele><time>2026-04-01T22:04:21.999Z</time></trkpt><trkpt lat="45.63494701523821" lon="11.571831040038143"><ele>56.25</ele><time>2026-04-01T22:04:22.999Z</time></trkpt><trkpt lat="45.63488984217633" lon="11.57195121534041"><ele>56.0</ele><time>2026-04-01T22:04:23.999Z</time></trkpt><trkpt lat="45.63479822725439" lon="11.572058119219859"><ele>56.0</ele><time>2026-04-01T22:04:24.999Z</time></trkpt><trkpt lat="45.63471013220075" lon="11.572142543135163"><ele>55.99999999999999</ele><time>2026-04-01T22:04:25.999Z</time></trkpt><trkpt lat="45.63460604924809" lon="11.572211199203007"><ele>55.99999999999999</ele><time>2026-04-01T22:04:26.999Z</time></trkpt><trkpt lat="45.63450206307354" lon="11.57224378761319"><ele>56.0</ele><time>2026-04-01T22:04:27.999Z</time></trkpt><trkpt lat="45.63438881645585" lon="11.572248108100545"><ele>56.0</ele><time>2026-04-01T22:04:28.999Z</time></trkpt><trkpt lat="45.63427602667273" lon="11.572223392032809"><ele>56.0</ele><time>2026-04-01T22:04:29.999Z</time></trkpt><trkpt lat="45.63415742668861" lon="11.572214397312257"><ele>56.0</ele><time>2026-04-01T22:04:30.999Z</time></trkpt><trkpt lat="45.63406252478964" lon="11.572103692913185"><ele>56.0</ele><time>2026-04-01T22:04:31.999Z</time></trkpt><trkpt lat="45.63388361728938" lon="11.572037870378615"><ele>56.0</ele><time>2026-04-01T22:04:32.999Z</time></trkpt><trkpt lat="45.633687649764276" lon="11.571965238928799"><ele>55.333333333333336</ele><time>2026-04-01T22:04:33.999Z</time></trkpt><trkpt lat="45.63352770966777" lon="11.57190360167808"><ele>54.66666666666667</ele><time>2026-04-01T22:04:34.999Z</time></trkpt><trkpt lat="45.63338440059179" lon="11.571857008093984"><ele>54.0</ele><time>2026-04-01T22:04:35.999Z</time></trkpt><trkpt lat="45.63323479614182" lon="11.571806794921633"><ele>54.0</ele><time>2026-04-01T22:04:36.999Z</time></trkpt><trkpt lat="45.633082061771404" lon="11.571746861230865"><ele>54.0</ele><time>2026-04-01T22:04:37.999Z</time></trkpt><trkpt lat="45.63292219294007" lon="11.571699585922378"><ele>54.0</ele><time>2026-04-01T22:04:38.999Z</time></trkpt><trkpt lat="45.63278023969843" lon="11.571641741592122"><ele>54.25</ele><time>2026-04-01T22:04:39.999Z</time></trkpt><trkpt lat="45.632626914518255" lon="11.571596721062038"><ele>54.5</ele><time>2026-04-01T22:04:40.999Z</time></trkpt><trkpt lat="45.63247796873978" lon="11.5715417462682"><ele>54.75</ele><time>2026-04-01T22:04:41.999Z</time></trkpt><trkpt lat="45.632358907751474" lon="11.571445678778794"><ele>55.0</ele><time>2026-04-01T22:04:42.999Z</time></trkpt><trkpt lat="45.63221988290106" lon="11.571388683565027"><ele>55.0</ele><time>2026-04-01T22:04:43.999Z</time></trkpt><trkpt lat="45.63208910874982" lon="11.571334325045507"><ele>55.0</ele><time>2026-04-01T22:04:44.999Z</time></trkpt><trkpt lat="45.63196503420199" lon="11.571284275889509"><ele>55.0</ele><time>2026-04-01T22:04:45.999Z</time></trkpt><trkpt lat="45.63182274254943" lon="11.571223074483461"><ele>55.0</ele><time>2026-04-01T22:04:46.999Z</time></trkpt><trkpt lat="45.631682628545754" lon="11.571164445995386"><ele>54.75</ele><time>2026-04-01T22:04:47.999Z</time></trkpt><trkpt lat="45.63153919561936" lon="11.57111723957929"><ele>54.5</ele><time>2026-04-01T22:04:48.999Z</time></trkpt><trkpt lat="45.631402176236094" lon="11.571065241320701"><ele>54.25</ele><time>2026-04-01T22:04:49.999Z</time></trkpt><trkpt lat="45.63125356510874" lon="11.57101043441547"><ele>54.0</ele><time>2026-04-01T22:04:50.999Z</time></trkpt><trkpt lat="45.6311226480976" lon="11.570961919981139"><ele>54.0</ele><time>2026-04-01T22:04:51.999Z</time></trkpt><trkpt lat="45.63097151773238" lon="11.570915472166478"><ele>54.0</ele><time>2026-04-01T22:04:52.999Z</time></trkpt><trkpt lat="45.63079441654093" lon="11.570849594808434"><ele>54.0</ele><time>2026-04-01T22:04:53.999Z</time></trkpt><trkpt lat="45.63065859017304" lon="11.570799329113749"><ele>54.0</ele><time>2026-04-01T22:04:54.999Z</time></trkpt><trkpt lat="45.63047292594978" lon="11.570812953640283"><ele>54.0</ele><time>2026-04-01T22:04:55.999Z</time></trkpt><trkpt lat="45.63033027577732" lon="11.57078836459807"><ele>54.0</ele><time>2026-04-01T22:04:56.999Z</time></trkpt><trkpt lat="45.630166970885206" lon="11.570785153887597"><ele>53.66666666666667</ele><time>2026-04-01T22:04:57.999Z</time></trkpt><trkpt lat="45.63001818179184" lon="11.570784127661272"><ele>53.333333333333336</ele><time>2026-04-01T22:04:58.999Z</time></trkpt><trkpt lat="45.629864831784346" lon="11.57080777360282"><ele>53.0</ele><time>2026-04-01T22:04:59.999Z</time></trkpt><trkpt lat="45.62971288127204" lon="11.570808337773663"><ele>53.0</ele><time>2026-04-01T22:05:00.999Z</time></trkpt><trkpt lat="45.629554338980086" lon="11.570783569795772"><ele>53.0</ele><time>2026-04-01T22:05:01.999Z</time></trkpt><trkpt lat="45.62941272955295" lon="11.570782282366183"><ele>53.0</ele><time>2026-04-01T22:05:02.999Z</time></trkpt><trkpt lat="45.62925827865736" lon="11.570793853923272"><ele>52.66666666666667</ele><time>2026-04-01T22:05:03.999Z</time></trkpt><trkpt lat="45.62911119850915" lon="11.57079010418322"><ele>52.33333333333333</ele><time>2026-04-01T22:05:04.999Z</time></trkpt><trkpt lat="45.62896561894497" lon="11.57080186758479"><ele>52.0</ele><time>2026-04-01T22:05:05.999Z</time></trkpt><trkpt lat="45.6288033659098" lon="11.570813542229532"><ele>52.0</ele><time>2026-04-01T22:05:06.999Z</time></trkpt><trkpt lat="45.62866486004961" lon="11.570818832042788"><ele>52.0</ele><time>2026-04-01T22:05:07.999Z</time></trkpt><trkpt lat="45.62851983514822" lon="11.570818316232915"><ele>52.0</ele><time>2026-04-01T22:05:08.999Z</time></trkpt><trkpt lat="45.62837010357722" lon="11.5708191369807"><ele>52.0</ele><time>2026-04-01T22:05:09.999Z</time></trkpt><trkpt lat="45.6282350388496" lon="11.570821712233107"><ele>52.0</ele><time>2026-04-01T22:05:10.999Z</time></trkpt><trkpt lat="45.628059338391445" lon="11.570779330593046"><ele>52.0</ele><time>2026-04-01T22:05:11.999Z</time></trkpt><trkpt lat="45.62789313180004" lon="11.570747912647912"><ele>52.0</ele><time>2026-04-01T22:05:12.999Z</time></trkpt><trkpt lat="45.62772802520478" lon="11.570710069091902"><ele>52.0</ele><time>2026-04-01T22:05:13.999Z</time></trkpt><trkpt lat="45.62757494462402" lon="11.570666539200447"><ele>52.0</ele><time>2026-04-01T22:05:14.999Z</time></trkpt><trkpt lat="45.62742208878356" lon="11.570614881683584"><ele>52.0</ele><time>2026-04-01T22:05:15.999Z</time></trkpt><trkpt lat="45.62725760257894" lon="11.57055659976295"><ele>52.0</ele><time>2026-04-01T22:05:16.999Z</time></trkpt><trkpt lat="45.62709242869811" lon="11.570492060979781"><ele>52.0</ele><time>2026-04-01T22:05:17.999Z</time></trkpt><trkpt lat="45.62692351221515" lon="11.570427495440908"><ele>52.0</ele><time>2026-04-01T22:05:18.999Z</time></trkpt><trkpt lat="45.62675535546497" lon="11.570361204354874"><ele>52.0</ele><time>2026-04-01T22:05:19.999Z</time></trkpt><trkpt lat="45.62658784887205" lon="11.570300673680945"><ele>52.0</ele><time>2026-04-01T22:05:20.999Z</time></trkpt><trkpt lat="45.62641292154117" lon="11.570237630159761"><ele>52.0</ele><time>2026-04-01T22:05:21.999Z</time></trkpt><trkpt lat="45.6262385080273" lon="11.570175999552367"><ele>51.666666666666664</ele><time>2026-04-01T22:05:22.999Z</time></trkpt><trkpt lat="45.62607255506186" lon="11.57011735860352"><ele>51.33333333333333</ele><time>2026-04-01T22:05:23.999Z</time></trkpt><trkpt lat="45.62590678621344" lon="11.57005878266805"><ele>51.0</ele><time>2026-04-01T22:05:24.999Z</time></trkpt><trkpt lat="45.62573231460484" lon="11.569997131666018"><ele>51.0</ele><time>2026-04-01T22:05:25.999Z</time></trkpt><trkpt lat="45.62557076328764" lon="11.569940045962804"><ele>51.0</ele><time>2026-04-01T22:05:26.999Z</time></trkpt><trkpt lat="45.62541294623323" lon="11.569884279901578"><ele>51.0</ele><time>2026-04-01T22:05:27.999Z</time></trkpt><trkpt lat="45.62525687503968" lon="11.56983067635158"><ele>50.33333333333333</ele><time>2026-04-01T22:05:28.999Z</time></trkpt><trkpt lat="45.62509572182983" lon="11.56977607113963"><ele>49.666666666666664</ele><time>2026-04-01T22:05:29.999Z</time></trkpt><trkpt lat="45.62492918173369" lon="11.569741851022528"><ele>49.0</ele><time>2026-04-01T22:05:30.999Z</time></trkpt><trkpt lat="45.62476963139296" lon="11.569686714977484"><ele>49.0</ele><time>2026-04-01T22:05:31.999Z</time></trkpt><trkpt lat="45.624630374209595" lon="11.56961825774145"><ele>49.0</ele><time>2026-04-01T22:05:32.999Z</time></trkpt><trkpt lat="45.62450057203656" lon="11.569569563324539"><ele>49.0</ele><time>2026-04-01T22:05:33.999Z</time></trkpt><trkpt lat="45.62438439115401" lon="11.569541758847523"><ele>49.0</ele><time>2026-04-01T22:05:34.999Z</time></trkpt><trkpt lat="45.624281199469266" lon="11.569476115621976"><ele>48.800000000000004</ele><time>2026-04-01T22:05:35.999Z</time></trkpt><trkpt lat="45.62420571048674" lon="11.569370647765398"><ele>48.6</ele><time>2026-04-01T22:05:37Z</time></trkpt><trkpt lat="45.62415852517766" lon="11.569246066360497"><ele>48.4</ele><time>2026-04-01T22:05:38Z</time></trkpt><trkpt lat="45.62413056037741" lon="11.569125913899862"><ele>48.2</ele><time>2026-04-01T22:05:39Z</time></trkpt><trkpt lat="45.6240815771911" lon="11.569041928016755"><ele>48.0</ele><time>2026-04-01T22:05:40Z</time></trkpt><trkpt lat="45.62399859311506" lon="11.569028632763327"><ele>48.0</ele><time>2026-04-01T22:05:41Z</time></trkpt><trkpt lat="45.623915204947004" lon="11.569048325978791"><ele>48.0</ele><time>2026-04-01T22:05:42Z</time></trkpt><trkpt lat="45.62383720169061" lon="11.569111591699695"><ele>48.0</ele><time>2026-04-01T22:05:43Z</time></trkpt><trkpt lat="45.62375789473469" lon="11.569189395785664"><ele>48.0</ele><time>2026-04-01T22:05:44Z</time></trkpt><trkpt lat="45.623663430852616" lon="11.569242459984693"><ele>48.0</ele><time>2026-04-01T22:05:45Z</time></trkpt><trkpt lat="45.62355050309182" lon="11.569252186534419"><ele>48.0</ele><time>2026-04-01T22:05:46Z</time></trkpt><trkpt lat="45.62343050439313" lon="11.569223077087528"><ele>48.0</ele><time>2026-04-01T22:05:47Z</time></trkpt><trkpt lat="45.62330606096288" lon="11.56916765677657"><ele>48.0</ele><time>2026-04-01T22:05:48Z</time></trkpt><trkpt lat="45.62317065716533" lon="11.569130413579783"><ele>48.0</ele><time>2026-04-01T22:05:49Z</time></trkpt><trkpt lat="45.623020263884854" lon="11.569083230406688"><ele>48.0</ele><time>2026-04-01T22:05:50Z</time></trkpt><trkpt lat="45.62286972173552" lon="11.569037057944684"><ele>48.0</ele><time>2026-04-01T22:05:51Z</time></trkpt><trkpt lat="45.62272694940463" lon="11.568991480831661"><ele>48.0</ele><time>2026-04-01T22:05:52Z</time></trkpt><trkpt lat="45.62258475093286" lon="11.568934938650798"><ele>48.0</ele><time>2026-04-01T22:05:53Z</time></trkpt><trkpt lat="45.62242942677347" lon="11.568883694737224"><ele>48.0</ele><time>2026-04-01T22:05:54Z</time></trkpt><trkpt lat="45.62226791815265" lon="11.568831486864745"><ele>48.0</ele><time>2026-04-01T22:05:55Z</time></trkpt><trkpt lat="45.622107531802214" lon="11.568779016215558"><ele>48.0</ele><time>2026-04-01T22:05:56Z</time></trkpt><trkpt lat="45.62194056698677" lon="11.568730868189366"><ele>48.66666666666667</ele><time>2026-04-01T22:05:57Z</time></trkpt><trkpt lat="45.62177520836899" lon="11.568676306720675"><ele>49.333333333333336</ele><time>2026-04-01T22:05:58Z</time></trkpt><trkpt lat="45.621609163022285" lon="11.56861947251048"><ele>50.0</ele><time>2026-04-01T22:05:59Z</time></trkpt><trkpt lat="45.62144121399876" lon="11.568563322220824"><ele>50.0</ele><time>2026-04-01T22:06:00Z</time></trkpt><trkpt lat="45.62127556443327" lon="11.568508377361947"><ele>50.0</ele><time>2026-04-01T22:06:01Z</time></trkpt><trkpt lat="45.621109475523966" lon="11.568453972404917"><ele>50.0</ele><time>2026-04-01T22:06:02Z</time></trkpt><trkpt lat="45.620943963943944" lon="11.568400864620543"><ele>49.0</ele><time>2026-04-01T22:06:03Z</time></trkpt><trkpt lat="45.62077344488874" lon="11.568341991722491"><ele>48.0</ele><time>2026-04-01T22:06:04Z</time></trkpt><trkpt lat="45.62060262404278" lon="11.568283535719905"><ele>47.0</ele><time>2026-04-01T22:06:05Z</time></trkpt><trkpt lat="45.62043307315835" lon="11.568225411004502"><ele>47.0</ele><time>2026-04-01T22:06:06Z</time></trkpt><trkpt lat="45.620263616981305" lon="11.568168482008705"><ele>47.0</ele><time>2026-04-01T22:06:07Z</time></trkpt><trkpt lat="45.620092000775955" lon="11.568112966889963"><ele>47.0</ele><time>2026-04-01T22:06:08Z</time></trkpt><trkpt lat="45.61991786619978" lon="11.568055893814151"><ele>47.0</ele><time>2026-04-01T22:06:09Z</time></trkpt><trkpt lat="45.61974095761001" lon="11.567997219981235"><ele>47.0</ele><time>2026-04-01T22:06:10Z</time></trkpt><trkpt lat="45.619563642135056" lon="11.567939090699962"><ele>47.0</ele><time>2026-04-01T22:06:11Z</time></trkpt><trkpt lat="45.61938714542177" lon="11.567881713576616"><ele>46.0</ele><time>2026-04-01T22:06:12Z</time></trkpt><trkpt lat="45.619209089834534" lon="11.567819478001718"><ele>45.0</ele><time>2026-04-01T22:06:13Z</time></trkpt><trkpt lat="45.61903173601744" lon="11.567758555537937"><ele>44.0</ele><time>2026-04-01T22:06:14Z</time></trkpt><trkpt lat="45.61885354416632" lon="11.567697478007803"><ele>44.0</ele><time>2026-04-01T22:06:15Z</time></trkpt><trkpt lat="45.618676037161414" lon="11.567638212937478"><ele>44.0</ele><time>2026-04-01T22:06:16Z</time></trkpt><trkpt lat="45.6185004005794" lon="11.567578601543305"><ele>44.0</ele><time>2026-04-01T22:06:17Z</time></trkpt><trkpt lat="45.618321387968514" lon="11.567520266129362"><ele>44.0</ele><time>2026-04-01T22:06:18Z</time></trkpt><trkpt lat="45.61814751491318" lon="11.567462469816261"><ele>44.0</ele><time>2026-04-01T22:06:19Z</time></trkpt><trkpt lat="45.61797345720974" lon="11.567402167516304"><ele>44.0</ele><time>2026-04-01T22:06:20Z</time></trkpt><trkpt lat="45.61779691729491" lon="11.56734296887797"><ele>44.33333333333333</ele><time>2026-04-01T22:06:21Z</time></trkpt><trkpt lat="45.61762248339677" lon="11.567290279129066"><ele>44.666666666666664</ele><time>2026-04-01T22:06:22Z</time></trkpt><trkpt lat="45.61745096192028" lon="11.56723891611594"><ele>45.0</ele><time>2026-04-01T22:06:23Z</time></trkpt><trkpt lat="45.61728181229937" lon="11.567183334130478"><ele>45.0</ele><time>2026-04-01T22:06:24Z</time></trkpt><trkpt lat="45.61711081321763" lon="11.567124925038026"><ele>45.0</ele><time>2026-04-01T22:06:25Z</time></trkpt><trkpt lat="45.61694636918681" lon="11.567064362441103"><ele>45.0</ele><time>2026-04-01T22:06:26Z</time></trkpt><trkpt lat="45.61678611720866" lon="11.566974252643373"><ele>44.666666666666664</ele><time>2026-04-01T22:06:27Z</time></trkpt><trkpt lat="45.61664537387525" lon="11.566857278804772"><ele>44.33333333333333</ele><time>2026-04-01T22:06:28Z</time></trkpt><trkpt lat="45.61652047828411" lon="11.566724754748284"><ele>44.0</ele><time>2026-04-01T22:06:29Z</time></trkpt><trkpt lat="45.61641578632845" lon="11.566573132733499"><ele>44.0</ele><time>2026-04-01T22:06:30Z</time></trkpt><trkpt lat="45.61632653477621" lon="11.56641073150389"><ele>44.0</ele><time>2026-04-01T22:06:31Z</time></trkpt><trkpt lat="45.616235938698" lon="11.56625223202429"><ele>44.0</ele><time>2026-04-01T22:06:32Z</time></trkpt><trkpt lat="45.616130331870885" lon="11.566112341994703"><ele>44.0</ele><time>2026-04-01T22:06:33Z</time></trkpt><trkpt lat="45.616009715742166" lon="11.565991753789092"><ele>44.33333333333333</ele><time>2026-04-01T22:06:34Z</time></trkpt><trkpt lat="45.61587270670633" lon="11.565884419487912"><ele>44.666666666666664</ele><time>2026-04-01T22:06:35Z</time></trkpt><trkpt lat="45.6157266013853" lon="11.565782562220036"><ele>45.0</ele><time>2026-04-01T22:06:36Z</time></trkpt><trkpt lat="45.61556997645845" lon="11.565716151466127"><ele>45.0</ele><time>2026-04-01T22:06:37Z</time></trkpt><trkpt lat="45.61540374630331" lon="11.565654117391494"><ele>45.0</ele><time>2026-04-01T22:06:38Z</time></trkpt><trkpt lat="45.61523662584055" lon="11.565587616919709"><ele>45.0</ele><time>2026-04-01T22:06:39Z</time></trkpt><trkpt lat="45.615066988844994" lon="11.56552047471109"><ele>44.666666666666664</ele><time>2026-04-01T22:06:40Z</time></trkpt><trkpt lat="45.61489413469553" lon="11.565449533451325"><ele>44.33333333333333</ele><time>2026-04-01T22:06:40.999Z</time></trkpt><trkpt lat="45.614717482126174" lon="11.565380217049263"><ele>44.0</ele><time>2026-04-01T22:06:41.999Z</time></trkpt><trkpt lat="45.61454318355313" lon="11.565308956744092"><ele>43.33333333333333</ele><time>2026-04-01T22:06:42.999Z</time></trkpt><trkpt lat="45.614370123954075" lon="11.565240501569209"><ele>42.666666666666664</ele><time>2026-04-01T22:06:43.999Z</time></trkpt><trkpt lat="45.61420068215606" lon="11.5651773495325"><ele>42.0</ele><time>2026-04-01T22:06:44.999Z</time></trkpt><trkpt lat="45.61403165634463" lon="11.56510810811325"><ele>42.0</ele><time>2026-04-01T22:06:45.999Z</time></trkpt><trkpt lat="45.61386149021628" lon="11.56503810018042"><ele>42.0</ele><time>2026-04-01T22:06:46.999Z</time></trkpt><trkpt lat="45.61369008812507" lon="11.56496615237198"><ele>42.0</ele><time>2026-04-01T22:06:47.999Z</time></trkpt><trkpt lat="45.61351588968411" lon="11.564891098506429"><ele>42.0</ele><time>2026-04-01T22:06:48.999Z</time></trkpt><trkpt lat="45.61334270881605" lon="11.564817882236172"><ele>42.0</ele><time>2026-04-01T22:06:49.999Z</time></trkpt><trkpt lat="45.61317360938265" lon="11.564731733005692"><ele>42.0</ele><time>2026-04-01T22:06:50.999Z</time></trkpt><trkpt lat="45.61301112731184" lon="11.564647808249768"><ele>42.0</ele><time>2026-04-01T22:06:51.999Z</time></trkpt><trkpt lat="45.61284826177383" lon="11.564565074971615"><ele>42.0</ele><time>2026-04-01T22:06:52.999Z</time></trkpt><trkpt lat="45.61268311550723" lon="11.564476186801901"><ele>42.0</ele><time>2026-04-01T22:06:53.999Z</time></trkpt><trkpt lat="45.61252298157383" lon="11.564383344287043"><ele>41.666666666666664</ele><time>2026-04-01T22:06:54.999Z</time></trkpt><trkpt lat="45.612364671724116" lon="11.564281567529559"><ele>41.33333333333333</ele><time>2026-04-01T22:06:55.999Z</time></trkpt><trkpt lat="45.61221055266199" lon="11.56418050821061"><ele>41.0</ele><time>2026-04-01T22:06:56.999Z</time></trkpt><trkpt lat="45.612063628008926" lon="11.564065892071518"><ele>41.0</ele><time>2026-04-01T22:06:57.999Z</time></trkpt><trkpt lat="45.61192334764855" lon="11.56394734380409"><ele>41.0</ele><time>2026-04-01T22:06:58.999Z</time></trkpt><trkpt lat="45.61178802845817" lon="11.563818163029604"><ele>41.0</ele><time>2026-04-01T22:06:59.999Z</time></trkpt><trkpt lat="45.61165913949743" lon="11.563691858004384"><ele>40.75</ele><time>2026-04-01T22:07:00.999Z</time></trkpt><trkpt lat="45.61154427920637" lon="11.563571055639049"><ele>40.5</ele><time>2026-04-01T22:07:01.999Z</time></trkpt><trkpt lat="45.611451671062134" lon="11.563470501760976"><ele>40.25</ele><time>2026-04-01T22:07:02.999Z</time></trkpt><trkpt lat="45.611380080860854" lon="11.56335522012509"><ele>40.0</ele><time>2026-04-01T22:07:03.999Z</time></trkpt><trkpt lat="45.61133540606733" lon="11.563221156949696"><ele>40.0</ele><time>2026-04-01T22:07:04.999Z</time></trkpt><trkpt lat="45.61131121719179" lon="11.563082813338207"><ele>40.0</ele><time>2026-04-01T22:07:05.999Z</time></trkpt><trkpt lat="45.61129742690561" lon="11.562947930747413"><ele>40.0</ele><time>2026-04-01T22:07:06.999Z</time></trkpt><trkpt lat="45.61126146197709" lon="11.562813107721396"><ele>40.0</ele><time>2026-04-01T22:07:07.999Z</time></trkpt><trkpt lat="45.611193211073164" lon="11.562713369082784"><ele>40.0</ele><time>2026-04-01T22:07:08.999Z</time></trkpt><trkpt lat="45.61110714530611" lon="11.56263802311265"><ele>40.2</ele><time>2026-04-01T22:07:09.999Z</time></trkpt><trkpt lat="45.611008594891096" lon="11.562603176767674"><ele>40.4</ele><time>2026-04-01T22:07:10.999Z</time></trkpt><trkpt lat="45.61090945527835" lon="11.562567018105094"><ele>40.599999999999994</ele><time>2026-04-01T22:07:11.999Z</time></trkpt><trkpt lat="45.61080883896043" lon="11.562513714594745"><ele>40.8</ele><time>2026-04-01T22:07:12.999Z</time></trkpt><trkpt lat="45.61070502294161" lon="11.562444188591607"><ele>41.0</ele><time>2026-04-01T22:07:13.999Z</time></trkpt><trkpt lat="45.6106047864756" lon="11.562350498504708"><ele>41.0</ele><time>2026-04-01T22:07:14.999Z</time></trkpt><trkpt lat="45.6105067463891" lon="11.56223681066289"><ele>41.0</ele><time>2026-04-01T22:07:15.999Z</time></trkpt><trkpt lat="45.61041743196039" lon="11.562110300835066"><ele>41.0</ele><time>2026-04-01T22:07:16.999Z</time></trkpt><trkpt lat="45.61033960430101" lon="11.561966488584211"><ele>41.0</ele><time>2026-04-01T22:07:17.999Z</time></trkpt><trkpt lat="45.61025607293619" lon="11.561821355454615"><ele>41.0</ele><time>2026-04-01T22:07:18.999Z</time></trkpt><trkpt lat="45.610165591750224" lon="11.561672749160325"><ele>41.0</ele><time>2026-04-01T22:07:19.999Z</time></trkpt><trkpt lat="45.610077355010375" lon="11.561523179387375"><ele>41.0</ele><time>2026-04-01T22:07:20.999Z</time></trkpt><trkpt lat="45.6099881911926" lon="11.561367345027696"><ele>41.0</ele><time>2026-04-01T22:07:21.999Z</time></trkpt><trkpt lat="45.60989688047364" lon="11.56120667204291"><ele>40.666666666666664</ele><time>2026-04-01T22:07:22.999Z</time></trkpt><trkpt lat="45.60980078940007" lon="11.561039225840716"><ele>40.333333333333336</ele><time>2026-04-01T22:07:23.999Z</time></trkpt><trkpt lat="45.60970313959825" lon="11.56086699506449"><ele>40.0</ele><time>2026-04-01T22:07:24.999Z</time></trkpt><trkpt lat="45.60960623791746" lon="11.560695402270508"><ele>40.0</ele><time>2026-04-01T22:07:25.999Z</time></trkpt><trkpt lat="45.60950907287095" lon="11.560521895184268"><ele>40.0</ele><time>2026-04-01T22:07:26.999Z</time></trkpt><trkpt lat="45.609410559493824" lon="11.560349814561622"><ele>40.0</ele><time>2026-04-01T22:07:27.999Z</time></trkpt><trkpt lat="45.60931295798243" lon="11.560180069894743"><ele>39.66666666666667</ele><time>2026-04-01T22:07:28.999Z</time></trkpt><trkpt lat="45.609213775465676" lon="11.560012738026671"><ele>39.333333333333336</ele><time>2026-04-01T22:07:29.999Z</time></trkpt><trkpt lat="45.609113952477905" lon="11.559844124745762"><ele>39.0</ele><time>2026-04-01T22:07:30.999Z</time></trkpt><trkpt lat="45.6090161121303" lon="11.559670930923696"><ele>39.0</ele><time>2026-04-01T22:07:31.999Z</time></trkpt><trkpt lat="45.60891823839345" lon="11.559497176074506"><ele>39.0</ele><time>2026-04-01T22:07:32.999Z</time></trkpt><trkpt lat="45.608821539722456" lon="11.559326302143658"><ele>39.0</ele><time>2026-04-01T22:07:33.999Z</time></trkpt><trkpt lat="45.60872699085196" lon="11.559157155180776"><ele>39.333333333333336</ele><time>2026-04-01T22:07:34.999Z</time></trkpt><trkpt lat="45.60862782809772" lon="11.558983864814843"><ele>39.66666666666667</ele><time>2026-04-01T22:07:35.999Z</time></trkpt><trkpt lat="45.60852704923182" lon="11.558812069501066"><ele>40.0</ele><time>2026-04-01T22:07:36.999Z</time></trkpt><trkpt lat="45.60842716320507" lon="11.558637626113429"><ele>40.0</ele><time>2026-04-01T22:07:37.999Z</time></trkpt><trkpt lat="45.60832723192543" lon="11.558460399247267"><ele>40.0</ele><time>2026-04-01T22:07:38.999Z</time></trkpt><trkpt lat="45.608226378824355" lon="11.5582856538611"><ele>40.0</ele><time>2026-04-01T22:07:39.999Z</time></trkpt><trkpt lat="45.60812607956927" lon="11.558109399087046"><ele>40.0</ele><time>2026-04-01T22:07:40.999Z</time></trkpt><trkpt lat="45.60802446289846" lon="11.5579347192125"><ele>40.0</ele><time>2026-04-01T22:07:41.999Z</time></trkpt><trkpt lat="45.60792282318797" lon="11.557755158414771"><ele>40.0</ele><time>2026-04-01T22:07:43Z</time></trkpt><trkpt lat="45.60782205178783" lon="11.557578986883014"><ele>39.66666666666667</ele><time>2026-04-01T22:07:44Z</time></trkpt><trkpt lat="45.607720642535035" lon="11.557396685210154"><ele>39.333333333333336</ele><time>2026-04-01T22:07:45Z</time></trkpt><trkpt lat="45.60761766746658" lon="11.557218807687036"><ele>39.0</ele><time>2026-04-01T22:07:46Z</time></trkpt><trkpt lat="45.60751671910203" lon="11.557045171888245"><ele>39.0</ele><time>2026-04-01T22:07:47Z</time></trkpt><trkpt lat="45.60741137651479" lon="11.556871709193183"><ele>39.0</ele><time>2026-04-01T22:07:48Z</time></trkpt><trkpt lat="45.607307795756775" lon="11.55669248553803"><ele>39.0</ele><time>2026-04-01T22:07:49Z</time></trkpt><trkpt lat="45.607201365717195" lon="11.556518852483508"><ele>39.0</ele><time>2026-04-01T22:07:50Z</time></trkpt><trkpt lat="45.607080253157335" lon="11.556366728966697"><ele>39.0</ele><time>2026-04-01T22:07:51Z</time></trkpt><trkpt lat="45.60694930982036" lon="11.556229064588493"><ele>39.0</ele><time>2026-04-01T22:07:52Z</time></trkpt><trkpt lat="45.60680999275277" lon="11.556116735422307"><ele>39.333333333333336</ele><time>2026-04-01T22:07:53Z</time></trkpt><trkpt lat="45.606664907416175" lon="11.55601745805738"><ele>39.66666666666667</ele><time>2026-04-01T22:07:54Z</time></trkpt><trkpt lat="45.60651150980641" lon="11.555931574350264"><ele>40.0</ele><time>2026-04-01T22:07:55Z</time></trkpt><trkpt lat="45.60635911048453" lon="11.555864173753317"><ele>40.0</ele><time>2026-04-01T22:07:56Z</time></trkpt><trkpt lat="45.606200233907906" lon="11.55579937721493"><ele>40.0</ele><time>2026-04-01T22:07:57Z</time></trkpt><trkpt lat="45.60603961982161" lon="11.555746022637429"><ele>40.0</ele><time>2026-04-01T22:07:58Z</time></trkpt><trkpt lat="45.60587702489776" lon="11.555705375304347"><ele>40.66666666666667</ele><time>2026-04-01T22:07:59Z</time></trkpt><trkpt lat="45.60571383828086" lon="11.555684806601494"><ele>41.333333333333336</ele><time>2026-04-01T22:08:00Z</time></trkpt><trkpt lat="45.60555103173206" lon="11.555655610507378"><ele>42.0</ele><time>2026-04-01T22:08:01Z</time></trkpt><trkpt lat="45.60538873206392" lon="11.55562769744665"><ele>41.666666666666664</ele><time>2026-04-01T22:08:02Z</time></trkpt><trkpt lat="45.60522544798938" lon="11.55559724551281"><ele>41.33333333333333</ele><time>2026-04-01T22:08:03Z</time></trkpt><trkpt lat="45.60505873795794" lon="11.555568359038054"><ele>41.0</ele><time>2026-04-01T22:08:04Z</time></trkpt><trkpt lat="45.604888794857985" lon="11.555542060552764"><ele>41.0</ele><time>2026-04-01T22:08:05Z</time></trkpt><trkpt lat="45.60472133942248" lon="11.555506207674085"><ele>41.0</ele><time>2026-04-01T22:08:06Z</time></trkpt><trkpt lat="45.604552208701016" lon="11.555467289535839"><ele>41.0</ele><time>2026-04-01T22:08:07Z</time></trkpt><trkpt lat="45.604378244696385" lon="11.555434979185913"><ele>40.666666666666664</ele><time>2026-04-01T22:08:08Z</time></trkpt><trkpt lat="45.60420644938618" lon="11.555399418367093"><ele>40.333333333333336</ele><time>2026-04-01T22:08:09Z</time></trkpt><trkpt lat="45.604030772187066" lon="11.555363930090472"><ele>40.0</ele><time>2026-04-01T22:08:10Z</time></trkpt><trkpt lat="45.603860195592496" lon="11.555324513975151"><ele>39.66666666666667</ele><time>2026-04-01T22:08:11Z</time></trkpt><trkpt lat="45.603687543254594" lon="11.555286847274328"><ele>39.333333333333336</ele><time>2026-04-01T22:08:12Z</time></trkpt><trkpt lat="45.60351328070311" lon="11.555253295563142"><ele>39.0</ele><time>2026-04-01T22:08:13Z</time></trkpt><trkpt lat="45.6033380811135" lon="11.555223883043585"><ele>39.666666666666664</ele><time>2026-04-01T22:08:14Z</time></trkpt><trkpt lat="45.60316056695304" lon="11.55519989166983"><ele>40.33333333333333</ele><time>2026-04-01T22:08:15Z</time></trkpt><trkpt lat="45.60298606750937" lon="11.55518804733092"><ele>41.0</ele><time>2026-04-01T22:08:16Z</time></trkpt><trkpt lat="45.602811018707015" lon="11.555197178870392"><ele>41.0</ele><time>2026-04-01T22:08:17Z</time></trkpt><trkpt lat="45.60263851889373" lon="11.55522116888666"><ele>41.0</ele><time>2026-04-01T22:08:18Z</time></trkpt><trkpt lat="45.60246895839686" lon="11.55525644664181"><ele>41.0</ele><time>2026-04-01T22:08:19Z</time></trkpt><trkpt lat="45.60229852164934" lon="11.555304325032184"><ele>41.0</ele><time>2026-04-01T22:08:20Z</time></trkpt><trkpt lat="45.60213170306521" lon="11.555370595649395"><ele>41.0</ele><time>2026-04-01T22:08:21Z</time></trkpt><trkpt lat="45.601966651637916" lon="11.555450628731261"><ele>41.0</ele><time>2026-04-01T22:08:22Z</time></trkpt><trkpt lat="45.60180356413278" lon="11.555533960499858"><ele>41.666666666666664</ele><time>2026-04-01T22:08:23Z</time></trkpt><trkpt lat="45.6016412875341" lon="11.555612451302123"><ele>42.333333333333336</ele><time>2026-04-01T22:08:24Z</time></trkpt><trkpt lat="45.60148028650975" lon="11.555702350034213"><ele>43.0</ele><time>2026-04-01T22:08:25Z</time></trkpt><trkpt lat="45.60132110592393" lon="11.555784869309207"><ele>42.333333333333336</ele><time>2026-04-01T22:08:26Z</time></trkpt><trkpt lat="45.60116039033241" lon="11.555866679533777"><ele>41.666666666666664</ele><time>2026-04-01T22:08:27Z</time></trkpt><trkpt lat="45.6010018064447" lon="11.555945247955776"><ele>41.0</ele><time>2026-04-01T22:08:28Z</time></trkpt><trkpt lat="45.60083871510476" lon="11.55602564554121"><ele>41.0</ele><time>2026-04-01T22:08:29Z</time></trkpt><trkpt lat="45.60067971350546" lon="11.556104457243592"><ele>41.0</ele><time>2026-04-01T22:08:30Z</time></trkpt><trkpt lat="45.600513117525644" lon="11.556181329534306"><ele>41.0</ele><time>2026-04-01T22:08:31Z</time></trkpt><trkpt lat="45.60035158831413" lon="11.556260745151503"><ele>41.33333333333333</ele><time>2026-04-01T22:08:32Z</time></trkpt><trkpt lat="45.60019032932824" lon="11.556339405528531"><ele>41.666666666666664</ele><time>2026-04-01T22:08:33Z</time></trkpt><trkpt lat="45.600034019492476" lon="11.55641700287017"><ele>42.0</ele><time>2026-04-01T22:08:34Z</time></trkpt><trkpt lat="45.59987469033832" lon="11.55649944975046"><ele>42.0</ele><time>2026-04-01T22:08:35Z</time></trkpt><trkpt lat="45.59971916664603" lon="11.556580121301387"><ele>42.0</ele><time>2026-04-01T22:08:36Z</time></trkpt><trkpt lat="45.599558819541976" lon="11.55666230379486"><ele>42.0</ele><time>2026-04-01T22:08:37Z</time></trkpt><trkpt lat="45.59940844650641" lon="11.556743838911682"><ele>41.333333333333336</ele><time>2026-04-01T22:08:38Z</time></trkpt><trkpt lat="45.59925727814765" lon="11.556825525393414"><ele>40.66666666666667</ele><time>2026-04-01T22:08:39Z</time></trkpt><trkpt lat="45.59910629277498" lon="11.55690141309242"><ele>40.0</ele><time>2026-04-01T22:08:40Z</time></trkpt><trkpt lat="45.598963961465614" lon="11.556972589581001"><ele>40.0</ele><time>2026-04-01T22:08:41Z</time></trkpt><trkpt lat="45.59881867381696" lon="11.557035035552259"><ele>40.0</ele><time>2026-04-01T22:08:42Z</time></trkpt><trkpt lat="45.59867009669342" lon="11.557069745089173"><ele>40.0</ele><time>2026-04-01T22:08:43Z</time></trkpt><trkpt lat="45.59852422022388" lon="11.557083333491468"><ele>40.0</ele><time>2026-04-01T22:08:44Z</time></trkpt><trkpt lat="45.59837976245161" lon="11.557089986019935"><ele>40.333333333333336</ele><time>2026-04-01T22:08:45Z</time></trkpt><trkpt lat="45.59823001124304" lon="11.55708344898677"><ele>40.666666666666664</ele><time>2026-04-01T22:08:46Z</time></trkpt><trkpt lat="45.598081795770135" lon="11.557071276989657"><ele>41.0</ele><time>2026-04-01T22:08:47Z</time></trkpt><trkpt lat="45.59792961675318" lon="11.557058381076985"><ele>41.0</ele><time>2026-04-01T22:08:48Z</time></trkpt><trkpt lat="45.59777459022743" lon="11.557038937630423"><ele>41.0</ele><time>2026-04-01T22:08:49Z</time></trkpt><trkpt lat="45.5976187689267" lon="11.557016509430543"><ele>41.0</ele><time>2026-04-01T22:08:50Z</time></trkpt><trkpt lat="45.59746688203029" lon="11.556995185836643"><ele>41.0</ele><time>2026-04-01T22:08:51Z</time></trkpt><trkpt lat="45.59731462368127" lon="11.556978880782149"><ele>41.0</ele><time>2026-04-01T22:08:52Z</time></trkpt><trkpt lat="45.59716419684735" lon="11.556959314011975"><ele>41.0</ele><time>2026-04-01T22:08:53Z</time></trkpt><trkpt lat="45.59701562325658" lon="11.556945440488946"><ele>40.666666666666664</ele><time>2026-04-01T22:08:54Z</time></trkpt><trkpt lat="45.5968659062126" lon="11.556933944981571"><ele>40.333333333333336</ele><time>2026-04-01T22:08:54.999Z</time></trkpt><trkpt lat="45.59671156306069" lon="11.556919470902539"><ele>40.0</ele><time>2026-04-01T22:08:55.999Z</time></trkpt><trkpt lat="45.59655943857175" lon="11.55690958984613"><ele>40.0</ele><time>2026-04-01T22:08:56.999Z</time></trkpt><trkpt lat="45.59640869423556" lon="11.556903700640767"><ele>40.0</ele><time>2026-04-01T22:08:57.999Z</time></trkpt><trkpt lat="45.59625578558102" lon="11.556899204488118"><ele>40.0</ele><time>2026-04-01T22:08:58.999Z</time></trkpt><trkpt lat="45.59610205251921" lon="11.556885087672551"><ele>40.0</ele><time>2026-04-01T22:08:59.999Z</time></trkpt><trkpt lat="45.59594645218472" lon="11.556872418620753"><ele>40.0</ele><time>2026-04-01T22:09:00.999Z</time></trkpt><trkpt lat="45.59578993866336" lon="11.556860405321414"><ele>40.0</ele><time>2026-04-01T22:09:01.999Z</time></trkpt><trkpt lat="45.59563333566018" lon="11.556847189629202"><ele>40.0</ele><time>2026-04-01T22:09:02.999Z</time></trkpt><trkpt lat="45.595472447157036" lon="11.55682707713572"><ele>40.0</ele><time>2026-04-01T22:09:03.999Z</time></trkpt><trkpt lat="45.59531131503911" lon="11.556814106829764"><ele>40.0</ele><time>2026-04-01T22:09:04.999Z</time></trkpt><trkpt lat="45.595153876115496" lon="11.556785047685118"><ele>40.0</ele><time>2026-04-01T22:09:05.999Z</time></trkpt><trkpt lat="45.59500292482167" lon="11.556755328941488"><ele>40.0</ele><time>2026-04-01T22:09:06.999Z</time></trkpt><trkpt lat="45.59485239184672" lon="11.556707319984683"><ele>40.0</ele><time>2026-04-01T22:09:07.999Z</time></trkpt><trkpt lat="45.594702365514884" lon="11.556648169843136"><ele>40.0</ele><time>2026-04-01T22:09:08.999Z</time></trkpt><trkpt lat="45.594552874316015" lon="11.556581806914407"><ele>40.0</ele><time>2026-04-01T22:09:09.999Z</time></trkpt><trkpt lat="45.5944084374487" lon="11.556507861460386"><ele>40.0</ele><time>2026-04-01T22:09:10.999Z</time></trkpt><trkpt lat="45.59425615766739" lon="11.556438173823407"><ele>39.66666666666667</ele><time>2026-04-01T22:09:11.999Z</time></trkpt><trkpt lat="45.59410573379369" lon="11.55639078529406"><ele>39.333333333333336</ele><time>2026-04-01T22:09:12.999Z</time></trkpt><trkpt lat="45.59395257399775" lon="11.556369477361601"><ele>39.0</ele><time>2026-04-01T22:09:13.999Z</time></trkpt><trkpt lat="45.59379382139851" lon="11.556373380852873"><ele>39.0</ele><time>2026-04-01T22:09:14.999Z</time></trkpt><trkpt lat="45.593635993210526" lon="11.556399457633386"><ele>39.0</ele><time>2026-04-01T22:09:15.999Z</time></trkpt><trkpt lat="45.59347958606219" lon="11.556434706287488"><ele>39.0</ele><time>2026-04-01T22:09:16.999Z</time></trkpt><trkpt lat="45.59332337055424" lon="11.556484604696248"><ele>39.0</ele><time>2026-04-01T22:09:17.999Z</time></trkpt><trkpt lat="45.59316793807924" lon="11.556539528963635"><ele>39.0</ele><time>2026-04-01T22:09:18.999Z</time></trkpt><trkpt lat="45.59301296977378" lon="11.556593567427761"><ele>39.0</ele><time>2026-04-01T22:09:19.999Z</time></trkpt><trkpt lat="45.59285943307777" lon="11.556650076312529"><ele>39.333333333333336</ele><time>2026-04-01T22:09:20.999Z</time></trkpt><trkpt lat="45.59270238939336" lon="11.556706905483539"><ele>39.66666666666667</ele><time>2026-04-01T22:09:21.999Z</time></trkpt><trkpt lat="45.592548499269476" lon="11.55676448652411"><ele>40.0</ele><time>2026-04-01T22:09:22.999Z</time></trkpt><trkpt lat="45.59239718037576" lon="11.556821856806183"><ele>40.0</ele><time>2026-04-01T22:09:23.999Z</time></trkpt><trkpt lat="45.592245323386166" lon="11.556873423934606"><ele>40.0</ele><time>2026-04-01T22:09:24.999Z</time></trkpt><trkpt lat="45.59209514521121" lon="11.556926844870993"><ele>40.0</ele><time>2026-04-01T22:09:25.999Z</time></trkpt><trkpt lat="45.5919465092252" lon="11.556973954772753"><ele>40.0</ele><time>2026-04-01T22:09:26.999Z</time></trkpt><trkpt lat="45.59180576126497" lon="11.557025773154303"><ele>40.0</ele><time>2026-04-01T22:09:27.999Z</time></trkpt><trkpt lat="45.59167513234485" lon="11.557075967495273"><ele>40.0</ele><time>2026-04-01T22:09:28.999Z</time></trkpt><trkpt lat="45.59154559133202" lon="11.557127532512798"><ele>40.0</ele><time>2026-04-01T22:09:29.999Z</time></trkpt><trkpt lat="45.59142004059582" lon="11.557172448041836"><ele>40.0</ele><time>2026-04-01T22:09:30.999Z</time></trkpt><trkpt lat="45.59129103502461" lon="11.557220094930582"><ele>40.0</ele><time>2026-04-01T22:09:31.999Z</time></trkpt><trkpt lat="45.59115506781803" lon="11.557254318081313"><ele>40.0</ele><time>2026-04-01T22:09:32.999Z</time></trkpt><trkpt lat="45.59100812943338" lon="11.557257237336819"><ele>40.0</ele><time>2026-04-01T22:09:33.999Z</time></trkpt><trkpt lat="45.59086641769189" lon="11.557274306962212"><ele>40.0</ele><time>2026-04-01T22:09:34.999Z</time></trkpt><trkpt lat="45.590725891653896" lon="11.557291168590234"><ele>40.0</ele><time>2026-04-01T22:09:35.999Z</time></trkpt><trkpt lat="45.5905815688742" lon="11.557290875716339"><ele>40.0</ele><time>2026-04-01T22:09:36.999Z</time></trkpt><trkpt lat="45.59043481328137" lon="11.55727879596399"><ele>40.0</ele><time>2026-04-01T22:09:37.999Z</time></trkpt><trkpt lat="45.590289301370476" lon="11.557264495246654"><ele>40.333333333333336</ele><time>2026-04-01T22:09:38.999Z</time></trkpt><trkpt lat="45.590137502688776" lon="11.557244071459342"><ele>40.666666666666664</ele><time>2026-04-01T22:09:39.999Z</time></trkpt><trkpt lat="45.58998688480829" lon="11.557218514005823"><ele>41.0</ele><time>2026-04-01T22:09:40.999Z</time></trkpt><trkpt lat="45.589832343511006" lon="11.55718866795473"><ele>41.0</ele><time>2026-04-01T22:09:41.999Z</time></trkpt><trkpt lat="45.589679524371405" lon="11.557159713588174"><ele>41.0</ele><time>2026-04-01T22:09:42.999Z</time></trkpt><trkpt lat="45.589531221356424" lon="11.557123163249427"><ele>41.0</ele><time>2026-04-01T22:09:43.999Z</time></trkpt><trkpt lat="45.58938002538075" lon="11.557081510995472"><ele>41.0</ele><time>2026-04-01T22:09:44.999Z</time></trkpt><trkpt lat="45.58923104634147" lon="11.55703829217317"><ele>41.0</ele><time>2026-04-01T22:09:45.999Z</time></trkpt><trkpt lat="45.58907734498552" lon="11.556991524985806"><ele>41.0</ele><time>2026-04-01T22:09:46.999Z</time></trkpt><trkpt lat="45.58892096043601" lon="11.55694340190208"><ele>41.0</ele><time>2026-04-01T22:09:47.999Z</time></trkpt><trkpt lat="45.58877061015066" lon="11.556891282071888"><ele>41.0</ele><time>2026-04-01T22:09:49Z</time></trkpt><trkpt lat="45.58860980050448" lon="11.556827175100853"><ele>41.0</ele><time>2026-04-01T22:09:50Z</time></trkpt><trkpt lat="45.58845541901456" lon="11.556772189997329"><ele>40.666666666666664</ele><time>2026-04-01T22:09:51Z</time></trkpt><trkpt lat="45.58829794926368" lon="11.556720901210698"><ele>40.333333333333336</ele><time>2026-04-01T22:09:52Z</time></trkpt><trkpt lat="45.588140445764765" lon="11.556661820975876"><ele>40.0</ele><time>2026-04-01T22:09:53Z</time></trkpt><trkpt lat="45.587983258722886" lon="11.55660336433545"><ele>39.66666666666667</ele><time>2026-04-01T22:09:54Z</time></trkpt><trkpt lat="45.58782552835534" lon="11.55654841565808"><ele>39.333333333333336</ele><time>2026-04-01T22:09:55Z</time></trkpt><trkpt lat="45.587668018236364" lon="11.556496704138397"><ele>39.0</ele><time>2026-04-01T22:09:56Z</time></trkpt><trkpt lat="45.58751089509723" lon="11.55643756458427"><ele>39.0</ele><time>2026-04-01T22:09:57Z</time></trkpt><trkpt lat="45.587350228580604" lon="11.556375529052321"><ele>39.0</ele><time>2026-04-01T22:09:58Z</time></trkpt><trkpt lat="45.58719568745575" lon="11.556321671885415"><ele>39.0</ele><time>2026-04-01T22:09:59Z</time></trkpt><trkpt lat="45.58703793976182" lon="11.556265037712144"><ele>38.666666666666664</ele><time>2026-04-01T22:10:00Z</time></trkpt><trkpt lat="45.58687781450368" lon="11.556206800339977"><ele>38.33333333333333</ele><time>2026-04-01T22:10:01Z</time></trkpt><trkpt lat="45.58672082309146" lon="11.556148519931439"><ele>38.0</ele><time>2026-04-01T22:10:02Z</time></trkpt><trkpt lat="45.586557501280666" lon="11.556088344824133"><ele>37.666666666666664</ele><time>2026-04-01T22:10:03Z</time></trkpt><trkpt lat="45.58639573557343" lon="11.556025349381304"><ele>37.333333333333336</ele><time>2026-04-01T22:10:04Z</time></trkpt><trkpt lat="45.58623406030806" lon="11.555966211180102"><ele>37.0</ele><time>2026-04-01T22:10:05Z</time></trkpt><trkpt lat="45.58607388232856" lon="11.55590667460559"><ele>37.0</ele><time>2026-04-01T22:10:06Z</time></trkpt><trkpt lat="45.585910207435504" lon="11.555837806123478"><ele>37.0</ele><time>2026-04-01T22:10:07Z</time></trkpt><trkpt lat="45.58575235297713" lon="11.555771570371535"><ele>37.0</ele><time>2026-04-01T22:10:08Z</time></trkpt><trkpt lat="45.585594403855886" lon="11.555695641220451"><ele>37.0</ele><time>2026-04-01T22:10:09Z</time></trkpt><trkpt lat="45.58543786299072" lon="11.555617162316569"><ele>37.0</ele><time>2026-04-01T22:10:10Z</time></trkpt><trkpt lat="45.58528583520344" lon="11.555533774275677"><ele>37.0</ele><time>2026-04-01T22:10:11Z</time></trkpt><trkpt lat="45.58513359323367" lon="11.555450198015189"><ele>37.333333333333336</ele><time>2026-04-01T22:10:12Z</time></trkpt><trkpt lat="45.58498438234912" lon="11.555363798034161"><ele>37.666666666666664</ele><time>2026-04-01T22:10:13Z</time></trkpt><trkpt lat="45.584834711541326" lon="11.555283056704834"><ele>38.0</ele><time>2026-04-01T22:10:14Z</time></trkpt><trkpt lat="45.5846871094692" lon="11.555204942857829"><ele>38.0</ele><time>2026-04-01T22:10:15Z</time></trkpt><trkpt lat="45.58454281516984" lon="11.555130133124205"><ele>38.0</ele><time>2026-04-01T22:10:16Z</time></trkpt><trkpt lat="45.58439678974054" lon="11.555053985902752"><ele>38.0</ele><time>2026-04-01T22:10:17Z</time></trkpt><trkpt lat="45.58425542507438" lon="11.554978698352555"><ele>38.0</ele><time>2026-04-01T22:10:18Z</time></trkpt><trkpt lat="45.584113504965515" lon="11.554897383865171"><ele>38.0</ele><time>2026-04-01T22:10:19Z</time></trkpt><trkpt lat="45.58396906972113" lon="11.554815170599532"><ele>38.0</ele><time>2026-04-01T22:10:20Z</time></trkpt><trkpt lat="45.58382707465351" lon="11.554725373672765"><ele>38.0</ele><time>2026-04-01T22:10:21Z</time></trkpt><trkpt lat="45.58368438158821" lon="11.554632369086308"><ele>38.0</ele><time>2026-04-01T22:10:22Z</time></trkpt><trkpt lat="45.583545024357356" lon="11.554533117093632"><ele>38.0</ele><time>2026-04-01T22:10:23Z</time></trkpt><trkpt lat="45.58340689562553" lon="11.55443443253619"><ele>39.0</ele><time>2026-04-01T22:10:24Z</time></trkpt><trkpt lat="45.583267161062096" lon="11.554333509596404"><ele>40.0</ele><time>2026-04-01T22:10:25Z</time></trkpt><trkpt lat="45.58312641190428" lon="11.55422735821652"><ele>41.0</ele><time>2026-04-01T22:10:26Z</time></trkpt><trkpt lat="45.58298615469317" lon="11.554117298913573"><ele>40.0</ele><time>2026-04-01T22:10:27Z</time></trkpt><trkpt lat="45.58284769643456" lon="11.554009094557713"><ele>39.0</ele><time>2026-04-01T22:10:28Z</time></trkpt><trkpt lat="45.58271023658265" lon="11.553900211102409"><ele>38.0</ele><time>2026-04-01T22:10:29Z</time></trkpt><trkpt lat="45.58257008116811" lon="11.553787429196294"><ele>38.33333333333333</ele><time>2026-04-01T22:10:30Z</time></trkpt><trkpt lat="45.58242991311797" lon="11.553677240594302"><ele>38.666666666666664</ele><time>2026-04-01T22:10:31Z</time></trkpt><trkpt lat="45.58229445478942" lon="11.55357345162395"><ele>39.0</ele><time>2026-04-01T22:10:32Z</time></trkpt><trkpt lat="45.58215356931894" lon="11.553471036252514"><ele>38.333333333333336</ele><time>2026-04-01T22:10:33Z</time></trkpt><trkpt lat="45.58200507198511" lon="11.55338265530698"><ele>37.66666666666667</ele><time>2026-04-01T22:10:34Z</time></trkpt><trkpt lat="45.5818554884864" lon="11.553304048177731"><ele>37.0</ele><time>2026-04-01T22:10:35Z</time></trkpt><trkpt lat="45.581704526192624" lon="11.553235203971512"><ele>37.0</ele><time>2026-04-01T22:10:36Z</time></trkpt><trkpt lat="45.58153908974954" lon="11.55318245328826"><ele>37.0</ele><time>2026-04-01T22:10:37Z</time></trkpt><trkpt lat="45.58138193434963" lon="11.553133404299242"><ele>37.0</ele><time>2026-04-01T22:10:38Z</time></trkpt><trkpt lat="45.5812208245939" lon="11.55308730542881"><ele>37.0</ele><time>2026-04-01T22:10:39Z</time></trkpt><trkpt lat="45.58105892914147" lon="11.553041134984744"><ele>37.0</ele><time>2026-04-01T22:10:40Z</time></trkpt><trkpt lat="45.580895631269875" lon="11.552992950654462"><ele>37.0</ele><time>2026-04-01T22:10:41Z</time></trkpt><trkpt lat="45.58072984730718" lon="11.552941168132147"><ele>37.0</ele><time>2026-04-01T22:10:42Z</time></trkpt><trkpt lat="45.58055875258028" lon="11.552887344856467"><ele>37.0</ele><time>2026-04-01T22:10:43Z</time></trkpt><trkpt lat="45.580389580435046" lon="11.552833484340017"><ele>37.0</ele><time>2026-04-01T22:10:44Z</time></trkpt><trkpt lat="45.58022020253877" lon="11.552775829346553"><ele>37.333333333333336</ele><time>2026-04-01T22:10:45Z</time></trkpt><trkpt lat="45.58005117042792" lon="11.552723194182606"><ele>37.666666666666664</ele><time>2026-04-01T22:10:46Z</time></trkpt><trkpt lat="45.57988666593765" lon="11.552675702877961"><ele>38.0</ele><time>2026-04-01T22:10:47Z</time></trkpt><trkpt lat="45.57972155946329" lon="11.552625839223097"><ele>38.0</ele><time>2026-04-01T22:10:48Z</time></trkpt><trkpt lat="45.57955213643596" lon="11.552578062274335"><ele>38.0</ele><time>2026-04-01T22:10:49Z</time></trkpt><trkpt lat="45.579386932333435" lon="11.552534635690865"><ele>38.0</ele><time>2026-04-01T22:10:50Z</time></trkpt><trkpt lat="45.57922384274393" lon="11.55250126414091"><ele>37.666666666666664</ele><time>2026-04-01T22:10:51Z</time></trkpt><trkpt lat="45.57904121105959" lon="11.552473697873591"><ele>37.333333333333336</ele><time>2026-04-01T22:10:51.999Z</time></trkpt><trkpt lat="45.57887704321787" lon="11.55246152027594"><ele>37.0</ele><time>2026-04-01T22:10:52.999Z</time></trkpt><trkpt lat="45.578709150298415" lon="11.552447691519992"><ele>37.0</ele><time>2026-04-01T22:10:53.999Z</time></trkpt><trkpt lat="45.578542994680504" lon="11.552439197495959"><ele>37.0</ele><time>2026-04-01T22:10:54.999Z</time></trkpt><trkpt lat="45.578372388197195" lon="11.552420572134869"><ele>37.0</ele><time>2026-04-01T22:10:55.999Z</time></trkpt><trkpt lat="45.57820746425541" lon="11.55241514345432"><ele>37.0</ele><time>2026-04-01T22:10:56.999Z</time></trkpt><trkpt lat="45.57804632069445" lon="11.55239939437848"><ele>37.0</ele><time>2026-04-01T22:10:57.999Z</time></trkpt><trkpt lat="45.57789131173677" lon="11.552362886981564"><ele>37.0</ele><time>2026-04-01T22:10:58.999Z</time></trkpt><trkpt lat="45.577742440224064" lon="11.55230521696144"><ele>37.0</ele><time>2026-04-01T22:10:59.999Z</time></trkpt><trkpt lat="45.57759771191476" lon="11.552224969777761"><ele>37.0</ele><time>2026-04-01T22:11:00.999Z</time></trkpt><trkpt lat="45.57746740692245" lon="11.552114480889355"><ele>37.0</ele><time>2026-04-01T22:11:01.999Z</time></trkpt><trkpt lat="45.577345865705375" lon="11.551999056457712"><ele>37.0</ele><time>2026-04-01T22:11:02.999Z</time></trkpt><trkpt lat="45.57722658926944" lon="11.55188674483178"><ele>37.0</ele><time>2026-04-01T22:11:03.999Z</time></trkpt><trkpt lat="45.57710263172232" lon="11.551776768815802"><ele>37.0</ele><time>2026-04-01T22:11:04.999Z</time></trkpt><trkpt lat="45.57697496085991" lon="11.551675740663894"><ele>37.0</ele><time>2026-04-01T22:11:05.999Z</time></trkpt><trkpt lat="45.57683873062263" lon="11.551586567901339"><ele>37.0</ele><time>2026-04-01T22:11:06.999Z</time></trkpt><trkpt lat="45.57670281815224" lon="11.551503475399754"><ele>37.0</ele><time>2026-04-01T22:11:07.999Z</time></trkpt><trkpt lat="45.57656111029177" lon="11.551419714507794"><ele>37.0</ele><time>2026-04-01T22:11:08.999Z</time></trkpt><trkpt lat="45.57641657823433" lon="11.551344869185666"><ele>37.0</ele><time>2026-04-01T22:11:09.999Z</time></trkpt><trkpt lat="45.57627304224113" lon="11.551265418780721"><ele>37.0</ele><time>2026-04-01T22:11:10.999Z</time></trkpt><trkpt lat="45.576124035663334" lon="11.551185938447844"><ele>37.0</ele><time>2026-04-01T22:11:11.999Z</time></trkpt><trkpt lat="45.57597488415683" lon="11.551102868616761"><ele>37.0</ele><time>2026-04-01T22:11:12.999Z</time></trkpt><trkpt lat="45.57582465823138" lon="11.551022728610924"><ele>37.0</ele><time>2026-04-01T22:11:13.999Z</time></trkpt><trkpt lat="45.57567166743204" lon="11.55093710347154"><ele>37.0</ele><time>2026-04-01T22:11:14.999Z</time></trkpt><trkpt lat="45.57551517642926" lon="11.550853784431286"><ele>37.0</ele><time>2026-04-01T22:11:15.999Z</time></trkpt><trkpt lat="45.57536102304778" lon="11.550770619163977"><ele>37.0</ele><time>2026-04-01T22:11:16.999Z</time></trkpt><trkpt lat="45.57520692423992" lon="11.550689561927562"><ele>37.0</ele><time>2026-04-01T22:11:17.999Z</time></trkpt><trkpt lat="45.575047648535666" lon="11.550618559868447"><ele>36.333333333333336</ele><time>2026-04-01T22:11:18.999Z</time></trkpt><trkpt lat="45.57488877488721" lon="11.550559347487711"><ele>35.666666666666664</ele><time>2026-04-01T22:11:19.999Z</time></trkpt><trkpt lat="45.574729422221615" lon="11.5505070740422"><ele>35.0</ele><time>2026-04-01T22:11:20.999Z</time></trkpt><trkpt lat="45.5745685254862" lon="11.550457276115445"><ele>35.0</ele><time>2026-04-01T22:11:21.999Z</time></trkpt><trkpt lat="45.57441137965089" lon="11.550405314478141"><ele>35.0</ele><time>2026-04-01T22:11:22.999Z</time></trkpt><trkpt lat="45.57425455333474" lon="11.550355069034525"><ele>35.0</ele><time>2026-04-01T22:11:23.999Z</time></trkpt><trkpt lat="45.574101158365735" lon="11.550308953908628"><ele>35.0</ele><time>2026-04-01T22:11:24.999Z</time></trkpt><trkpt lat="45.5739512656186" lon="11.550256755615022"><ele>35.0</ele><time>2026-04-01T22:11:25.999Z</time></trkpt><trkpt lat="45.57380456884744" lon="11.550197249473003"><ele>35.0</ele><time>2026-04-01T22:11:26.999Z</time></trkpt><trkpt lat="45.57366644927413" lon="11.550118374042954"><ele>35.25</ele><time>2026-04-01T22:11:27.999Z</time></trkpt><trkpt lat="45.573536941418745" lon="11.550019023216747"><ele>35.5</ele><time>2026-04-01T22:11:28.999Z</time></trkpt><trkpt lat="45.573414553711565" lon="11.549897740237357"><ele>35.75</ele><time>2026-04-01T22:11:29.999Z</time></trkpt><trkpt lat="45.5732929738651" lon="11.54976867796932"><ele>36.0</ele><time>2026-04-01T22:11:30.999Z</time></trkpt><trkpt lat="45.57317603526699" lon="11.549643337629716"><ele>36.0</ele><time>2026-04-01T22:11:31.999Z</time></trkpt><trkpt lat="45.57305707790273" lon="11.549509908004062"><ele>36.0</ele><time>2026-04-01T22:11:32.999Z</time></trkpt><trkpt lat="45.572935968379646" lon="11.54936048009237"><ele>36.0</ele><time>2026-04-01T22:11:33.999Z</time></trkpt><trkpt lat="45.572809928115085" lon="11.549217841033872"><ele>36.333333333333336</ele><time>2026-04-01T22:11:34.999Z</time></trkpt><trkpt lat="45.57269093966376" lon="11.549079464735025"><ele>36.66666666666667</ele><time>2026-04-01T22:11:35.999Z</time></trkpt><trkpt lat="45.572570923634274" lon="11.548938897819436"><ele>37.0</ele><time>2026-04-01T22:11:36.999Z</time></trkpt><trkpt lat="45.572451981314146" lon="11.548805637800124"><ele>37.333333333333336</ele><time>2026-04-01T22:11:37.999Z</time></trkpt><trkpt lat="45.57233078991435" lon="11.548667217922942"><ele>37.666666666666664</ele><time>2026-04-01T22:11:38.999Z</time></trkpt><trkpt lat="45.57220694811999" lon="11.54852917738176"><ele>38.0</ele><time>2026-04-01T22:11:39.999Z</time></trkpt><trkpt lat="45.57208324905799" lon="11.54839047177322"><ele>37.666666666666664</ele><time>2026-04-01T22:11:40.999Z</time></trkpt><trkpt lat="45.571959958416834" lon="11.54825148807698"><ele>37.333333333333336</ele><time>2026-04-01T22:11:41.999Z</time></trkpt><trkpt lat="45.57183356200175" lon="11.54810679154758"><ele>37.0</ele><time>2026-04-01T22:11:42.999Z</time></trkpt><trkpt lat="45.571709667106184" lon="11.547966262712242"><ele>37.0</ele><time>2026-04-01T22:11:43.999Z</time></trkpt><trkpt lat="45.57158476211334" lon="11.547822360046272"><ele>37.0</ele><time>2026-04-01T22:11:44.999Z</time></trkpt><trkpt lat="45.57145898361471" lon="11.547674664089724"><ele>37.0</ele><time>2026-04-01T22:11:45.999Z</time></trkpt><trkpt lat="45.571337267414755" lon="11.54753430247302"><ele>37.0</ele><time>2026-04-01T22:11:46.999Z</time></trkpt><trkpt lat="45.571208340127136" lon="11.547373552549606"><ele>37.0</ele><time>2026-04-01T22:11:47.999Z</time></trkpt><trkpt lat="45.57108049807033" lon="11.547237249507344"><ele>37.0</ele><time>2026-04-01T22:11:48.999Z</time></trkpt><trkpt lat="45.57095436818973" lon="11.547100904552199"><ele>36.66666666666667</ele><time>2026-04-01T22:11:49.999Z</time></trkpt><trkpt lat="45.57082733284055" lon="11.54696353809587"><ele>36.333333333333336</ele><time>2026-04-01T22:11:50.999Z</time></trkpt><trkpt lat="45.57069894157022" lon="11.546839334949157"><ele>36.0</ele><time>2026-04-01T22:11:51.999Z</time></trkpt><trkpt lat="45.57056772712816" lon="11.546736356553907"><ele>36.0</ele><time>2026-04-01T22:11:52.999Z</time></trkpt><trkpt lat="45.5704303181909" lon="11.546665860260232"><ele>36.0</ele><time>2026-04-01T22:11:53.999Z</time></trkpt><trkpt lat="45.57028374502204" lon="11.5466250916676"><ele>36.0</ele><time>2026-04-01T22:11:55Z</time></trkpt><trkpt lat="45.57013397502938" lon="11.54660081607443"><ele>36.0</ele><time>2026-04-01T22:11:56Z</time></trkpt><trkpt lat="45.569980292319606" lon="11.546599717845096"><ele>36.0</ele><time>2026-04-01T22:11:57Z</time></trkpt><trkpt lat="45.56982498338069" lon="11.546614585280844"><ele>36.0</ele><time>2026-04-01T22:11:58Z</time></trkpt><trkpt lat="45.569667444126665" lon="11.546638683771967"><ele>36.0</ele><time>2026-04-01T22:11:59Z</time></trkpt><trkpt lat="45.569507978695015" lon="11.546664285368296"><ele>36.0</ele><time>2026-04-01T22:12:00Z</time></trkpt><trkpt lat="45.569347879866484" lon="11.546690689706274"><ele>36.0</ele><time>2026-04-01T22:12:01Z</time></trkpt><trkpt lat="45.56918341071836" lon="11.546713325891096"><ele>36.0</ele><time>2026-04-01T22:12:02Z</time></trkpt><trkpt lat="45.56902393993864" lon="11.546744942975344"><ele>36.0</ele><time>2026-04-01T22:12:03Z</time></trkpt><trkpt lat="45.56885316425007" lon="11.54677088289623"><ele>36.0</ele><time>2026-04-01T22:12:04Z</time></trkpt><trkpt lat="45.56868323511111" lon="11.54680138729376"><ele>36.0</ele><time>2026-04-01T22:12:05Z</time></trkpt><trkpt lat="45.56851817693998" lon="11.54682755006952"><ele>36.333333333333336</ele><time>2026-04-01T22:12:06Z</time></trkpt><trkpt lat="45.56834704573123" lon="11.546855745059563"><ele>36.66666666666667</ele><time>2026-04-01T22:12:07Z</time></trkpt><trkpt lat="45.568175223435844" lon="11.546883927424844"><ele>37.0</ele><time>2026-04-01T22:12:08Z</time></trkpt><trkpt lat="45.56800235488534" lon="11.546911124977981"><ele>37.0</ele><time>2026-04-01T22:12:09Z</time></trkpt><trkpt lat="45.56783021245212" lon="11.54693465586543"><ele>37.0</ele><time>2026-04-01T22:12:10Z</time></trkpt><trkpt lat="45.56765496370049" lon="11.546958069942011"><ele>37.0</ele><time>2026-04-01T22:12:11Z</time></trkpt><trkpt lat="45.56748127994513" lon="11.546981484881206"><ele>37.0</ele><time>2026-04-01T22:12:12Z</time></trkpt><trkpt lat="45.567310824805745" lon="11.547005899422539"><ele>37.0</ele><time>2026-04-01T22:12:13Z</time></trkpt><trkpt lat="45.567142859271804" lon="11.547025080968547"><ele>37.0</ele><time>2026-04-01T22:12:14Z</time></trkpt><trkpt lat="45.566972454711504" lon="11.547037619698234"><ele>37.0</ele><time>2026-04-01T22:12:15Z</time></trkpt><trkpt lat="45.56680525388165" lon="11.547036882667825"><ele>37.0</ele><time>2026-04-01T22:12:16Z</time></trkpt><trkpt lat="45.56663976179693" lon="11.547013723610833"><ele>37.0</ele><time>2026-04-01T22:12:17Z</time></trkpt><trkpt lat="45.56647837393326" lon="11.546968755683402"><ele>37.0</ele><time>2026-04-01T22:12:18Z</time></trkpt><trkpt lat="45.56631971003518" lon="11.546905607723104"><ele>37.0</ele><time>2026-04-01T22:12:19Z</time></trkpt><trkpt lat="45.56615806565548" lon="11.546842209101321"><ele>37.0</ele><time>2026-04-01T22:12:20Z</time></trkpt><trkpt lat="45.56599528960631" lon="11.546790882762275"><ele>36.66666666666667</ele><time>2026-04-01T22:12:21Z</time></trkpt><trkpt lat="45.56583221116895" lon="11.546742298842396"><ele>36.333333333333336</ele><time>2026-04-01T22:12:22Z</time></trkpt><trkpt lat="45.565671729139844" lon="11.54669379685372"><ele>36.0</ele><time>2026-04-01T22:12:23Z</time></trkpt><trkpt lat="45.56551371007042" lon="11.546646818173427"><ele>35.333333333333336</ele><time>2026-04-01T22:12:24Z</time></trkpt><trkpt lat="45.56535909747004" lon="11.546596638557524"><ele>34.66666666666667</ele><time>2026-04-01T22:12:25Z</time></trkpt><trkpt lat="45.56519995462465" lon="11.546559070700553"><ele>34.0</ele><time>2026-04-01T22:12:26Z</time></trkpt><trkpt lat="45.565054956372954" lon="11.546521671889481"><ele>34.0</ele><time>2026-04-01T22:12:27Z</time></trkpt><trkpt lat="45.56493385762104" lon="11.546493390890172"><ele>34.0</ele><time>2026-04-01T22:12:28Z</time></trkpt><trkpt lat="45.564819881422174" lon="11.546450655083255"><ele>34.0</ele><time>2026-04-01T22:12:29Z</time></trkpt><trkpt lat="45.56471781758802" lon="11.546382701288417"><ele>34.0</ele><time>2026-04-01T22:12:30Z</time></trkpt><trkpt lat="45.564622114585845" lon="11.546304127629828"><ele>34.25</ele><time>2026-04-01T22:12:31Z</time></trkpt><trkpt lat="45.564514669722904" lon="11.546261877176596"><ele>34.5</ele><time>2026-04-01T22:12:32Z</time></trkpt><trkpt lat="45.56439563945276" lon="11.546233918728404"><ele>34.75</ele><time>2026-04-01T22:12:33Z</time></trkpt><trkpt lat="45.56426902391098" lon="11.546199260262783"><ele>35.0</ele><time>2026-04-01T22:12:34Z</time></trkpt><trkpt lat="45.56413571197009" lon="11.546157798150372"><ele>35.75</ele><time>2026-04-01T22:12:35Z</time></trkpt><trkpt lat="45.564000029575595" lon="11.546115113297951"><ele>36.5</ele><time>2026-04-01T22:12:36Z</time></trkpt><trkpt lat="45.56385542864795" lon="11.546067783212656"><ele>37.25</ele><time>2026-04-01T22:12:37Z</time></trkpt><trkpt lat="45.56370925814325" lon="11.546006318375598"><ele>38.0</ele><time>2026-04-01T22:12:38Z</time></trkpt><trkpt lat="45.56356154761572" lon="11.545932114456653"><ele>38.0</ele><time>2026-04-01T22:12:39Z</time></trkpt><trkpt lat="45.56340808675624" lon="11.54584859881556"><ele>38.0</ele><time>2026-04-01T22:12:40Z</time></trkpt><trkpt lat="45.56325309053844" lon="11.545753669505311"><ele>38.0</ele><time>2026-04-01T22:12:41Z</time></trkpt><trkpt lat="45.56311161964888" lon="11.545655964463359"><ele>38.0</ele><time>2026-04-01T22:12:42Z</time></trkpt><trkpt lat="45.5629801639052" lon="11.545515388489502"><ele>38.0</ele><time>2026-04-01T22:12:43Z</time></trkpt><trkpt lat="45.56284218338045" lon="11.545390941941816"><ele>38.0</ele><time>2026-04-01T22:12:44Z</time></trkpt><trkpt lat="45.562702331081" lon="11.545266955503566"><ele>37.33333333333333</ele><time>2026-04-01T22:12:45Z</time></trkpt><trkpt lat="45.56256014302993" lon="11.545140898301701"><ele>36.666666666666664</ele><time>2026-04-01T22:12:46Z</time></trkpt><trkpt lat="45.56241554418753" lon="11.545012703806119"><ele>36.0</ele><time>2026-04-01T22:12:47Z</time></trkpt><trkpt lat="45.5622728219991" lon="11.544886173060627"><ele>36.0</ele><time>2026-04-01T22:12:48Z</time></trkpt><trkpt lat="45.56213153232482" lon="11.54476222684441"><ele>36.0</ele><time>2026-04-01T22:12:48.999Z</time></trkpt><trkpt lat="45.56198294472514" lon="11.544658119211325"><ele>36.0</ele><time>2026-04-01T22:12:49.999Z</time></trkpt><trkpt lat="45.5618374753101" lon="11.544549361673003"><ele>35.666666666666664</ele><time>2026-04-01T22:12:50.999Z</time></trkpt><trkpt lat="45.56167871960797" lon="11.544477012363739"><ele>35.33333333333333</ele><time>2026-04-01T22:12:51.999Z</time></trkpt><trkpt lat="45.561519672784605" lon="11.544409316060468"><ele>35.0</ele><time>2026-04-01T22:12:52.999Z</time></trkpt><trkpt lat="45.56135555580625" lon="11.544353098125544"><ele>34.666666666666664</ele><time>2026-04-01T22:12:53.999Z</time></trkpt><trkpt lat="45.56119210257276" lon="11.544311968131929"><ele>34.333333333333336</ele><time>2026-04-01T22:12:54.999Z</time></trkpt><trkpt lat="45.561021822612986" lon="11.544297491798869"><ele>34.0</ele><time>2026-04-01T22:12:55.999Z</time></trkpt><trkpt lat="45.56085362783409" lon="11.544313809528502"><ele>34.0</ele><time>2026-04-01T22:12:56.999Z</time></trkpt><trkpt lat="45.56068387098036" lon="11.54435034234391"><ele>34.0</ele><time>2026-04-01T22:12:57.999Z</time></trkpt><trkpt lat="45.56051365868538" lon="11.544383568620441"><ele>34.0</ele><time>2026-04-01T22:12:58.999Z</time></trkpt><trkpt lat="45.56034465694459" lon="11.54441947632027"><ele>34.0</ele><time>2026-04-01T22:12:59.999Z</time></trkpt><trkpt lat="45.56017147496526" lon="11.544452867542859"><ele>34.0</ele><time>2026-04-01T22:13:00.999Z</time></trkpt><trkpt lat="45.55998522675666" lon="11.544466165388462"><ele>34.0</ele><time>2026-04-01T22:13:01.999Z</time></trkpt><trkpt lat="45.55980350179795" lon="11.544503378722016"><ele>34.0</ele><time>2026-04-01T22:13:02.999Z</time></trkpt><trkpt lat="45.55962492248599" lon="11.544540745940038"><ele>34.0</ele><time>2026-04-01T22:13:03.999Z</time></trkpt><trkpt lat="45.559461102407994" lon="11.544626533327673"><ele>34.0</ele><time>2026-04-01T22:13:04.999Z</time></trkpt><trkpt lat="45.55929861843601" lon="11.544656465750917"><ele>33.66666666666667</ele><time>2026-04-01T22:13:05.999Z</time></trkpt><trkpt lat="45.559131765688434" lon="11.544693016749253"><ele>33.333333333333336</ele><time>2026-04-01T22:13:06.999Z</time></trkpt><trkpt lat="45.55896784502954" lon="11.544726635006839"><ele>33.0</ele><time>2026-04-01T22:13:07.999Z</time></trkpt><trkpt lat="45.55880586460992" lon="11.544754487248788"><ele>33.75</ele><time>2026-04-01T22:13:08.999Z</time></trkpt><trkpt lat="45.55865679244084" lon="11.544771242484618"><ele>34.5</ele><time>2026-04-01T22:13:09.999Z</time></trkpt><trkpt lat="45.55853167025709" lon="11.544773000436441"><ele>35.25</ele><time>2026-04-01T22:13:10.999Z</time></trkpt><trkpt lat="45.55843077104162" lon="11.544748629690947"><ele>36.0</ele><time>2026-04-01T22:13:11.999Z</time></trkpt><trkpt lat="45.55834864306587" lon="11.544701036291691"><ele>36.0</ele><time>2026-04-01T22:13:12.999Z</time></trkpt><trkpt lat="45.55827410253937" lon="11.544621016891666"><ele>36.0</ele><time>2026-04-01T22:13:13.999Z</time></trkpt><trkpt lat="45.55822657717592" lon="11.544515121348315"><ele>36.0</ele><time>2026-04-01T22:13:14.999Z</time></trkpt><trkpt lat="45.55817124772441" lon="11.544430635843815"><ele>36.0</ele><time>2026-04-01T22:13:15.999Z</time></trkpt><trkpt lat="45.55809805799347" lon="11.544366968255067"><ele>36.0</ele><time>2026-04-01T22:13:16.999Z</time></trkpt><trkpt lat="45.558020781799385" lon="11.544349807038033"><ele>36.0</ele><time>2026-04-01T22:13:17.999Z</time></trkpt><trkpt lat="45.55795050715788" lon="11.54439001034737"><ele>36.0</ele><time>2026-04-01T22:13:18.999Z</time></trkpt><trkpt lat="45.55790309217722" lon="11.5444733172544"><ele>36.0</ele><time>2026-04-01T22:13:19.999Z</time></trkpt><trkpt lat="45.55788378997471" lon="11.544573948653488"><ele>36.0</ele><time>2026-04-01T22:13:20.999Z</time></trkpt><trkpt lat="45.5578965047974" lon="11.544681011147393"><ele>36.0</ele><time>2026-04-01T22:13:21.999Z</time></trkpt><trkpt lat="45.55795271894344" lon="11.544773829492444"><ele>36.0</ele><time>2026-04-01T22:13:22.999Z</time></trkpt><trkpt lat="45.55801768132847" lon="11.544852718888057"><ele>36.0</ele><time>2026-04-01T22:13:23.999Z</time></trkpt><trkpt lat="45.558098225183784" lon="11.544903832352995"><ele>36.0</ele><time>2026-04-01T22:13:24.999Z</time></trkpt><trkpt lat="45.55814491153984" lon="11.545077283140907"><ele>36.0</ele><time>2026-04-01T22:13:25.999Z</time></trkpt><trkpt lat="45.558101792789664" lon="11.545236155320277"><ele>36.0</ele><time>2026-04-01T22:13:26.999Z</time></trkpt><trkpt lat="45.55807281900816" lon="11.545382876942965"><ele>36.0</ele><time>2026-04-01T22:13:27.999Z</time></trkpt><trkpt lat="45.558045820661484" lon="11.545541311535231"><ele>36.25</ele><time>2026-04-01T22:13:28.999Z</time></trkpt><trkpt lat="45.55801909175013" lon="11.545715319322657"><ele>36.5</ele><time>2026-04-01T22:13:29.999Z</time></trkpt><trkpt lat="45.55798742308041" lon="11.545904760231721"><ele>36.75</ele><time>2026-04-01T22:13:30.999Z</time></trkpt><trkpt lat="45.55795831058156" lon="11.546110212104193"><ele>37.0</ele><time>2026-04-01T22:13:31.999Z</time></trkpt><trkpt lat="45.557930550412365" lon="11.546336186737465"><ele>36.0</ele><time>2026-04-01T22:13:32.999Z</time></trkpt><trkpt lat="45.557887144827916" lon="11.546569822407475"><ele>35.0</ele><time>2026-04-01T22:13:33.999Z</time></trkpt><trkpt lat="45.5578483827816" lon="11.546810546912731"><ele>34.0</ele><time>2026-04-01T22:13:34.999Z</time></trkpt><trkpt lat="45.55780584586396" lon="11.547042120492687"><ele>32.66666666666667</ele><time>2026-04-01T22:13:35.999Z</time></trkpt><trkpt lat="45.557764426847676" lon="11.54726465071532"><ele>31.333333333333336</ele><time>2026-04-01T22:13:36.999Z</time></trkpt><trkpt lat="45.557729767534894" lon="11.547479896924614"><ele>30.0</ele><time>2026-04-01T22:13:37.999Z</time></trkpt><trkpt lat="45.5576949655153" lon="11.547686643544873"><ele>30.25</ele><time>2026-04-01T22:13:38.999Z</time></trkpt><trkpt lat="45.55767058806017" lon="11.547894911045585"><ele>30.5</ele><time>2026-04-01T22:13:39.999Z</time></trkpt><trkpt lat="45.55763706712463" lon="11.548091678094007"><ele>30.75</ele><time>2026-04-01T22:13:40.999Z</time></trkpt><trkpt lat="45.557608560244944" lon="11.548265894535161"><ele>31.0</ele><time>2026-04-01T22:13:41.999Z</time></trkpt><trkpt lat="45.5575650394168" lon="11.548411835498788"><ele>31.000000000000004</ele><time>2026-04-01T22:13:42.999Z</time></trkpt><trkpt lat="45.557533656391115" lon="11.548544408702321"><ele>31.0</ele><time>2026-04-01T22:13:43.999Z</time></trkpt><trkpt lat="45.55748091702387" lon="11.548651611957618"><ele>31.0</ele><time>2026-04-01T22:13:44.999Z</time></trkpt><trkpt lat="45.55742323239781" lon="11.548721556804606"><ele>31.0</ele><time>2026-04-01T22:13:45.999Z</time></trkpt><trkpt lat="45.55738809133384" lon="11.548799493198961"><ele>31.000000000000004</ele><time>2026-04-01T22:13:46.999Z</time></trkpt><trkpt lat="45.55739093605751" lon="11.548898584423958"><ele>31.0</ele><time>2026-04-01T22:13:47.999Z</time></trkpt><trkpt lat="45.55741735153732" lon="11.548993290720512"><ele>31.333333333333336</ele><time>2026-04-01T22:13:48.999Z</time></trkpt><trkpt lat="45.557431790676674" lon="11.54909217696057"><ele>31.666666666666668</ele><time>2026-04-01T22:13:49.999Z</time></trkpt><trkpt lat="45.55743459876801" lon="11.549203231012264"><ele>32.0</ele><time>2026-04-01T22:13:50.999Z</time></trkpt><trkpt lat="45.557455938984" lon="11.549315938124224"><ele>32.333333333333336</ele><time>2026-04-01T22:13:51.999Z</time></trkpt><trkpt lat="45.55750500993283" lon="11.54940413106235"><ele>32.666666666666664</ele><time>2026-04-01T22:13:52.999Z</time></trkpt><trkpt lat="45.55758562327849" lon="11.54944354067089"><ele>33.0</ele><time>2026-04-01T22:13:53.999Z</time></trkpt><trkpt lat="45.55767281234787" lon="11.549471435168265"><ele>33.0</ele><time>2026-04-01T22:13:54.999Z</time></trkpt><trkpt lat="45.55776700340323" lon="11.54950436642298"><ele>33.0</ele><time>2026-04-01T22:13:55.999Z</time></trkpt><trkpt lat="45.55786738232938" lon="11.54955089451369"><ele>33.0</ele><time>2026-04-01T22:13:56.999Z</time></trkpt><trkpt lat="45.55796690550941" lon="11.549590145258373"><ele>33.0</ele><time>2026-04-01T22:13:57.998Z</time></trkpt><trkpt lat="45.558055836668025" lon="11.549635929152686"><ele>33.0</ele><time>2026-04-01T22:13:58.998Z</time></trkpt><trkpt lat="45.55814328612354" lon="11.549706338923679"><ele>33.166666666666664</ele><time>2026-04-01T22:13:59.998Z</time></trkpt><trkpt lat="45.55822717597165" lon="11.549779360788051"><ele>33.333333333333336</ele><time>2026-04-01T22:14:01Z</time></trkpt><trkpt lat="45.55830587797606" lon="11.549840214803336"><ele>33.5</ele><time>2026-04-01T22:14:02Z</time></trkpt><trkpt lat="45.558379056662375" lon="11.54989484643521"><ele>33.66666666666667</ele><time>2026-04-01T22:14:03Z</time></trkpt><trkpt lat="45.5584628417459" lon="11.549920048904534"><ele>33.833333333333336</ele><time>2026-04-01T22:14:04Z</time></trkpt><trkpt lat="45.55854644976509" lon="11.549921239393598"><ele>34.0</ele><time>2026-04-01T22:14:05Z</time></trkpt><trkpt lat="45.558635903913604" lon="11.54992209456079"><ele>34.0</ele><time>2026-04-01T22:14:06Z</time></trkpt><trkpt lat="45.55872528352612" lon="11.549927635611876"><ele>34.0</ele><time>2026-04-01T22:14:07Z</time></trkpt><trkpt lat="45.55881864730495" lon="11.549927114384959"><ele>34.0</ele><time>2026-04-01T22:14:08Z</time></trkpt><trkpt lat="45.55892460054467" lon="11.549926402114988"><ele>34.0</ele><time>2026-04-01T22:14:09Z</time></trkpt><trkpt lat="45.55902355473792" lon="11.54992434287229"><ele>34.0</ele><time>2026-04-01T22:14:10Z</time></trkpt><trkpt lat="45.559126542195585" lon="11.549923833669439"><ele>34.0</ele><time>2026-04-01T22:14:11Z</time></trkpt><trkpt lat="45.55922916039605" lon="11.549917003328432"><ele>34.0</ele><time>2026-04-01T22:14:12Z</time></trkpt><trkpt lat="45.5593293791838" lon="11.54991730824206"><ele>34.0</ele><time>2026-04-01T22:14:13Z</time></trkpt><trkpt lat="45.55941948641617" lon="11.549914994147557"><ele>34.0</ele><time>2026-04-01T22:14:14Z</time></trkpt><trkpt lat="45.55950672818317" lon="11.54993217942734"><ele>34.0</ele><time>2026-04-01T22:14:15Z</time></trkpt><trkpt lat="45.559593838929786" lon="11.549941228518803"><ele>34.4</ele><time>2026-04-01T22:14:16Z</time></trkpt><trkpt lat="45.55966503929141" lon="11.549949221690296"><ele>34.8</ele><time>2026-04-01T22:14:17Z</time></trkpt><trkpt lat="45.55976270578046" lon="11.549983483217188"><ele>35.2</ele><time>2026-04-01T22:14:19Z</time></trkpt><trkpt lat="45.559830279149956" lon="11.550013758285154"><ele>35.6</ele><time>2026-04-01T22:14:24Z</time></trkpt><trkpt lat="45.55975337878105" lon="11.549952874878523"><ele>36.0</ele><time>2026-04-01T22:14:35Z</time></trkpt><trkpt lat="45.55954784264013" lon="11.549937125973393"><ele>35.666666666666664</ele><time>2026-04-01T22:14:39Z</time></trkpt><trkpt lat="45.55946768326387" lon="11.549925468862"><ele>35.333333333333336</ele><time>2026-04-01T22:14:40Z</time></trkpt><trkpt lat="45.559373931219376" lon="11.549915480853237"><ele>35.0</ele><time>2026-04-01T22:14:41Z</time></trkpt><trkpt lat="45.55927756007185" lon="11.549913847534526"><ele>34.66666666666667</ele><time>2026-04-01T22:14:42Z</time></trkpt><trkpt lat="45.55918424023378" lon="11.549919854925049"><ele>34.333333333333336</ele><time>2026-04-01T22:14:43Z</time></trkpt><trkpt lat="45.55910416922849" lon="11.549919195911537"><ele>34.0</ele><time>2026-04-01T22:14:44Z</time></trkpt><trkpt lat="45.55901322276335" lon="11.549912998938815"><ele>34.0</ele><time>2026-04-01T22:14:45Z</time></trkpt><trkpt lat="45.558929879192675" lon="11.549909413385585"><ele>34.0</ele><time>2026-04-01T22:14:46Z</time></trkpt><trkpt lat="45.55885023715713" lon="11.549902444678136"><ele>34.0</ele><time>2026-04-01T22:14:47Z</time></trkpt><trkpt lat="45.55877179884946" lon="11.549890998858034"><ele>34.0</ele><time>2026-04-01T22:14:48Z</time></trkpt><trkpt lat="45.558703864930585" lon="11.54988512626218"><ele>34.0</ele><time>2026-04-01T22:14:49Z</time></trkpt><trkpt lat="45.55862579635816" lon="11.549869567406056"><ele>34.0</ele><time>2026-04-01T22:14:50.999Z</time></trkpt><trkpt lat="45.55863084082983" lon="11.549765429035075"><ele>34.0</ele><time>2026-04-01T22:16:02.998Z</time></trkpt><trkpt lat="45.558661069956464" lon="11.54968162403142"><ele>34.0</ele><time>2026-04-01T22:16:07Z</time></trkpt><trkpt lat="45.558720118322626" lon="11.549647137643896"><ele>34.0</ele><time>2026-04-01T22:16:14Z</time></trkpt><trkpt lat="45.558766626432046" lon="11.549567506467062"><ele>34.0</ele><time>2026-04-01T22:17:04.999Z</time></trkpt><trkpt lat="45.5585127789954" lon="11.549474420036699"><ele>34.0</ele><time>2026-04-01T22:17:09.999Z</time></trkpt><trkpt lat="45.55861658502736" lon="11.549606459491267"><ele>34.0</ele><time>2026-04-01T22:17:11.999Z</time></trkpt><trkpt lat="45.55870731883768" lon="11.549785810026545"><ele>34.0</ele><time>2026-04-01T22:17:12.999Z</time></trkpt><trkpt lat="45.55850696843407" lon="11.54954234792053"><ele>34.0</ele><time>2026-04-01T22:17:29.999Z</time></trkpt><trkpt lat="45.558740952014865" lon="11.549590796214366"><ele>34.0</ele><time>2026-04-01T22:17:33.999Z</time></trkpt><trkpt lat="45.55866301000809" lon="11.549481660423012"><ele>34.0</ele><time>2026-04-01T22:17:39.999Z</time></trkpt><trkpt lat="45.55867677093096" lon="11.549660833563237"><ele>34.0</ele><time>2026-04-01T22:17:46.999Z</time></trkpt><trkpt lat="45.55858377371526" lon="11.549646249051719"><ele>34.0</ele><time>2026-04-01T22:17:49.999Z</time></trkpt><trkpt lat="45.5585880905953" lon="11.549551683243056"><ele>34.0</ele><time>2026-04-01T22:19:19.999Z</time></trkpt><trkpt lat="45.55855912207745" lon="11.549467304012072"><ele>34.0</ele><time>2026-04-01T22:19:23.999Z</time></trkpt><trkpt lat="45.5585809284493" lon="11.549566505032598"><ele>34.0</ele><time>2026-04-01T23:46:17.998Z</time></trkpt><trkpt lat="45.55862805488139" lon="11.549641443926514"><ele>34.0</ele><time>2026-04-01T23:46:27Z</time></trkpt><trkpt lat="45.55855824739733" lon="11.549431356765387"><ele>34.0</ele><time>2026-04-02T01:11:21.999Z</time></trkpt><trkpt lat="45.55854739229607" lon="11.549524859572816"><ele>34.0</ele><time>2026-04-02T04:11:15Z</time></trkpt><trkpt lat="45.55859896952324" lon="11.549590676370814"><ele>34.0</ele><time>2026-04-02T04:11:24Z</time></trkpt><trkpt lat="45.558480791110895" lon="11.549472697068826"><ele>34.0</ele><time>2026-04-02T04:43:10.999Z</time></trkpt><trkpt lat="45.55864562831887" lon="11.549558480131804"><ele>34.0</ele><time>2026-04-02T04:48:23.998Z</time></trkpt><trkpt lat="45.55866020164798" lon="11.549657340163686"><ele>34.0</ele><time>2026-04-02T04:50:24.998Z</time></trkpt><trkpt lat="45.558566052380165" lon="11.549666161580985"><ele>34.0</ele><time>2026-04-02T04:50:27.998Z</time></trkpt><trkpt lat="45.55865567123084" lon="11.549617360524604"><ele>34.0</ele><time>2026-04-02T04:50:45.998Z</time></trkpt><trkpt lat="45.558577487244975" lon="11.549619600917604"><ele>34.0</ele><time>2026-04-02T04:53:51.999Z</time></trkpt><trkpt lat="45.55850012186682" lon="11.54956595142969"><ele>34.0</ele><time>2026-04-02T04:53:57.999Z</time></trkpt><trkpt lat="45.558578596400395" lon="11.549565092555031"><ele>34.0</ele><time>2026-04-02T04:54:19.999Z</time></trkpt><trkpt lat="45.558715868197055" lon="11.549527841869043"><ele>34.0</ele><time>2026-04-02T04:54:21.999Z</time></trkpt><trkpt lat="45.5587992231874" lon="11.549534926289423"><ele>34.0</ele><time>2026-04-02T04:54:56.998Z</time></trkpt><trkpt lat="45.558894891798104" lon="11.549593119813547"><ele>34.0</ele><time>2026-04-02T04:55:10.999Z</time></trkpt><trkpt lat="45.55879456696177" lon="11.549596084195384"><ele>34.0</ele><time>2026-04-02T04:55:14.999Z</time></trkpt><trkpt lat="45.558727434059236" lon="11.549631004878924"><ele>34.0</ele><time>2026-04-02T04:55:16.999Z</time></trkpt><trkpt lat="45.55867537710793" lon="11.549719150363922"><ele>34.0</ele><time>2026-04-02T04:55:19.999Z</time></trkpt><trkpt lat="45.5586416934691" lon="11.54979534499638"><ele>34.0</ele><time>2026-04-02T04:55:25.999Z</time></trkpt><trkpt lat="45.558555132279146" lon="11.549829299452021"><ele>34.0</ele><time>2026-04-02T04:56:07.999Z</time></trkpt><trkpt lat="45.558490810926905" lon="11.549815308318001"><ele>34.0</ele><time>2026-04-02T04:56:09.999Z</time></trkpt><trkpt lat="45.55838802789264" lon="11.549722573348097"><ele>34.0</ele><time>2026-04-02T04:56:12.999Z</time></trkpt><trkpt lat="45.55832834609308" lon="11.549654644826647"><ele>34.0</ele><time>2026-04-02T04:56:13.999Z</time></trkpt><trkpt lat="45.55825726534936" lon="11.5496204644203"><ele>34.0</ele><time>2026-04-02T04:56:14.999Z</time></trkpt><trkpt lat="45.558170587080326" lon="11.54958531479171"><ele>34.0</ele><time>2026-04-02T04:56:15.999Z</time></trkpt><trkpt lat="45.55809504646151" lon="11.549531324396208"><ele>34.0</ele><time>2026-04-02T04:56:16.999Z</time></trkpt><trkpt lat="45.55801372717199" lon="11.549499502432392"><ele>34.0</ele><time>2026-04-02T04:56:17.999Z</time></trkpt><trkpt lat="45.557876431619746" lon="11.549466762535438"><ele>33.833333333333336</ele><time>2026-04-02T04:56:18.999Z</time></trkpt><trkpt lat="45.557801970256406" lon="11.549435625871741"><ele>33.66666666666667</ele><time>2026-04-02T04:56:19.999Z</time></trkpt><trkpt lat="45.557719740267906" lon="11.54940723015899"><ele>33.5</ele><time>2026-04-02T04:56:20.999Z</time></trkpt><trkpt lat="45.55765434191734" lon="11.549362748672745"><ele>33.333333333333336</ele><time>2026-04-02T04:56:21.999Z</time></trkpt><trkpt lat="45.55760365784701" lon="11.549307338993998"><ele>33.166666666666664</ele><time>2026-04-02T04:56:22.999Z</time></trkpt><trkpt lat="45.55751200809072" lon="11.549266832325864"><ele>33.0</ele><time>2026-04-02T04:56:25.999Z</time></trkpt><trkpt lat="45.55754619549698" lon="11.549136655849132"><ele>33.0</ele><time>2026-04-02T04:56:28.999Z</time></trkpt><trkpt lat="45.5575465264416" lon="11.549015929303273"><ele>33.0</ele><time>2026-04-02T04:56:30.998Z</time></trkpt><trkpt lat="45.55754457379536" lon="11.548917660492647"><ele>33.0</ele><time>2026-04-02T04:56:31.998Z</time></trkpt><trkpt lat="45.55756344629013" lon="11.548831088506015"><ele>33.0</ele><time>2026-04-02T04:56:32.998Z</time></trkpt><trkpt lat="45.55758791494414" lon="11.54873569756494"><ele>33.0</ele><time>2026-04-02T04:56:33.998Z</time></trkpt><trkpt lat="45.557615180735255" lon="11.548637039937574"><ele>33.0</ele><time>2026-04-02T04:56:34.998Z</time></trkpt><trkpt lat="45.557643874769845" lon="11.548521060025314"><ele>33.0</ele><time>2026-04-02T04:56:35.998Z</time></trkpt><trkpt lat="45.55766463114368" lon="11.548379379924242"><ele>32.6</ele><time>2026-04-02T04:56:36.998Z</time></trkpt><trkpt lat="45.55768328117975" lon="11.548225310052274"><ele>32.199999999999996</ele><time>2026-04-02T04:56:37.998Z</time></trkpt><trkpt lat="45.557711940307826" lon="11.548102038620073"><ele>31.8</ele><time>2026-04-02T04:56:38.998Z</time></trkpt><trkpt lat="45.55773582002745" lon="11.54796712943937"><ele>31.4</ele><time>2026-04-02T04:56:39.998Z</time></trkpt><trkpt lat="45.55775753072469" lon="11.547838610512652"><ele>31.0</ele><time>2026-04-02T04:56:40.998Z</time></trkpt><trkpt lat="45.55776726262155" lon="11.547730377697908"><ele>30.8</ele><time>2026-04-02T04:56:41.998Z</time></trkpt><trkpt lat="45.557786976263145" lon="11.547596076198367"><ele>30.6</ele><time>2026-04-02T04:56:42.998Z</time></trkpt><trkpt lat="45.55780919657131" lon="11.547449329861047"><ele>30.4</ele><time>2026-04-02T04:56:43.998Z</time></trkpt><trkpt lat="45.55784391245834" lon="11.54733944840243"><ele>30.2</ele><time>2026-04-02T04:56:44.998Z</time></trkpt><trkpt lat="45.55788777003015" lon="11.547191646505151"><ele>30.0</ele><time>2026-04-02T04:56:45.998Z</time></trkpt><trkpt lat="45.557937826274674" lon="11.547046739007193"><ele>31.0</ele><time>2026-04-02T04:56:46.998Z</time></trkpt><trkpt lat="45.55797349516552" lon="11.546880392908845"><ele>32.0</ele><time>2026-04-02T04:56:47.998Z</time></trkpt><trkpt lat="45.55798725393411" lon="11.546682336023693"><ele>33.0</ele><time>2026-04-02T04:56:48.998Z</time></trkpt><trkpt lat="45.558009742575706" lon="11.546503061207325"><ele>34.0</ele><time>2026-04-02T04:56:49.998Z</time></trkpt><trkpt lat="45.55803845522004" lon="11.546327669007939"><ele>34.75</ele><time>2026-04-02T04:56:50.998Z</time></trkpt><trkpt lat="45.55807542943752" lon="11.546164645007552"><ele>35.5</ele><time>2026-04-02T04:56:51.998Z</time></trkpt><trkpt lat="45.55811653895547" lon="11.546023728427016"><ele>36.25</ele><time>2026-04-02T04:56:52.998Z</time></trkpt><trkpt lat="45.558134299317835" lon="11.545830124805937"><ele>37.0</ele><time>2026-04-02T04:56:53.998Z</time></trkpt><trkpt lat="45.55815696578606" lon="11.545664189588017"><ele>37.0</ele><time>2026-04-02T04:56:54.998Z</time></trkpt><trkpt lat="45.558185384386" lon="11.54550936282456"><ele>37.0</ele><time>2026-04-02T04:56:55.998Z</time></trkpt><trkpt lat="45.558212783317536" lon="11.545380295792285"><ele>37.0</ele><time>2026-04-02T04:56:56.998Z</time></trkpt><trkpt lat="45.558210604506684" lon="11.545270619930232"><ele>37.0</ele><time>2026-04-02T04:56:57.998Z</time></trkpt><trkpt lat="45.558247301494696" lon="11.545192442042227"><ele>37.0</ele><time>2026-04-02T04:56:58.998Z</time></trkpt><trkpt lat="45.55824593964759" lon="11.545078168436206"><ele>37.0</ele><time>2026-04-02T04:56:59.998Z</time></trkpt><trkpt lat="45.55825232221346" lon="11.54496049448834"><ele>36.800000000000004</ele><time>2026-04-02T04:57:00.998Z</time></trkpt><trkpt lat="45.5583111515213" lon="11.544867274273965"><ele>36.6</ele><time>2026-04-02T04:57:01.998Z</time></trkpt><trkpt lat="45.55840701259673" lon="11.5448279219719"><ele>36.400000000000006</ele><time>2026-04-02T04:57:02.998Z</time></trkpt><trkpt lat="45.55850534298967" lon="11.544789038464453"><ele>36.2</ele><time>2026-04-02T04:57:04.998Z</time></trkpt><trkpt lat="45.55857859573188" lon="11.544835529199334"><ele>36.0</ele><time>2026-04-02T04:57:05.998Z</time></trkpt><trkpt lat="45.558683902047164" lon="11.544812342419835"><ele>35.4</ele><time>2026-04-02T04:57:07.998Z</time></trkpt><trkpt lat="45.55875865382198" lon="11.54480213469241"><ele>34.8</ele><time>2026-04-02T04:57:08.998Z</time></trkpt><trkpt lat="45.55883621793978" lon="11.544787199247226"><ele>34.199999999999996</ele><time>2026-04-02T04:57:09.998Z</time></trkpt><trkpt lat="45.55892395494574" lon="11.544758950769918"><ele>33.6</ele><time>2026-04-02T04:57:10.998Z</time></trkpt><trkpt lat="45.55903817214446" lon="11.544714721817389"><ele>33.0</ele><time>2026-04-02T04:57:11.999Z</time></trkpt><trkpt lat="45.55914863637076" lon="11.544680811635567"><ele>33.0</ele><time>2026-04-02T04:57:12.999Z</time></trkpt><trkpt lat="45.55926176206783" lon="11.544646805386098"><ele>33.0</ele><time>2026-04-02T04:57:13.999Z</time></trkpt><trkpt lat="45.55936645476596" lon="11.54462311774177"><ele>33.0</ele><time>2026-04-02T04:57:14.999Z</time></trkpt><trkpt lat="45.55948549486254" lon="11.544586062222228"><ele>33.0</ele><time>2026-04-02T04:57:15.999Z</time></trkpt><trkpt lat="45.559611475601514" lon="11.544591459540902"><ele>33.25</ele><time>2026-04-02T04:57:16.999Z</time></trkpt><trkpt lat="45.55973907212417" lon="11.544564760327903"><ele>33.5</ele><time>2026-04-02T04:57:17.999Z</time></trkpt><trkpt lat="45.55985893097887" lon="11.544539680200007"><ele>33.75</ele><time>2026-04-02T04:57:18.999Z</time></trkpt><trkpt lat="45.55999162429086" lon="11.544512740495344"><ele>34.0</ele><time>2026-04-02T04:57:19.999Z</time></trkpt><trkpt lat="45.56009466471863" lon="11.544492046727282"><ele>34.0</ele><time>2026-04-02T04:57:20.999Z</time></trkpt><trkpt lat="45.56025502082834" lon="11.544444956077207"><ele>34.0</ele><time>2026-04-02T04:57:21.999Z</time></trkpt><trkpt lat="45.560357444706774" lon="11.54442532147015"><ele>34.0</ele><time>2026-04-02T04:57:22.999Z</time></trkpt><trkpt lat="45.56049128294959" lon="11.544418739541886"><ele>34.0</ele><time>2026-04-02T04:57:23.999Z</time></trkpt><trkpt lat="45.560616570062265" lon="11.544394080060139"><ele>34.0</ele><time>2026-04-02T04:57:24.999Z</time></trkpt><trkpt lat="45.560740828482864" lon="11.54436199631237"><ele>34.0</ele><time>2026-04-02T04:57:25.999Z</time></trkpt><trkpt lat="45.56086624130035" lon="11.54435783928346"><ele>34.0</ele><time>2026-04-02T04:57:26.999Z</time></trkpt><trkpt lat="45.5609802905574" lon="11.544335358477994"><ele>34.0</ele><time>2026-04-02T04:57:27.999Z</time></trkpt><trkpt lat="45.561142172240615" lon="11.544335348420642"><ele>34.25</ele><time>2026-04-02T04:57:28.999Z</time></trkpt><trkpt lat="45.56122857471497" lon="11.544333886609781"><ele>34.5</ele><time>2026-04-02T04:57:29.999Z</time></trkpt><trkpt lat="45.56134717346375" lon="11.544349729612685"><ele>34.75</ele><time>2026-04-02T04:57:30.999Z</time></trkpt><trkpt lat="45.56149858054292" lon="11.544413510720752"><ele>35.0</ele><time>2026-04-02T04:57:31.999Z</time></trkpt><trkpt lat="45.561730028864005" lon="11.544509432480115"><ele>35.2</ele><time>2026-04-02T04:57:33.999Z</time></trkpt><trkpt lat="45.56184165462123" lon="11.544574642302775"><ele>35.4</ele><time>2026-04-02T04:57:34.999Z</time></trkpt><trkpt lat="45.561943516119" lon="11.544650768809083"><ele>35.6</ele><time>2026-04-02T04:57:35.999Z</time></trkpt><trkpt lat="45.56204242173378" lon="11.544714887859246"><ele>35.8</ele><time>2026-04-02T04:57:36.999Z</time></trkpt><trkpt lat="45.562109521438416" lon="11.544798641449633"><ele>36.0</ele><time>2026-04-02T04:57:37.999Z</time></trkpt><trkpt lat="45.562191595033035" lon="11.544869990538396"><ele>36.0</ele><time>2026-04-02T04:57:38.999Z</time></trkpt><trkpt lat="45.56228128496714" lon="11.544949505391743"><ele>36.0</ele><time>2026-04-02T04:57:39.999Z</time></trkpt><trkpt lat="45.562357259881125" lon="11.545018595135069"><ele>36.0</ele><time>2026-04-02T04:57:40.999Z</time></trkpt><trkpt lat="45.56244069128024" lon="11.545103641189689"><ele>36.0</ele><time>2026-04-02T04:57:41.999Z</time></trkpt><trkpt lat="45.5625240164715" lon="11.545187918608164"><ele>36.0</ele><time>2026-04-02T04:57:42.999Z</time></trkpt><trkpt lat="45.56260222887474" lon="11.545263133725122"><ele>36.0</ele><time>2026-04-02T04:57:43.999Z</time></trkpt><trkpt lat="45.562697644339586" lon="11.545339857795696"><ele>36.0</ele><time>2026-04-02T04:57:44.999Z</time></trkpt><trkpt lat="45.56278987267162" lon="11.545424727411104"><ele>36.0</ele><time>2026-04-02T04:57:45.999Z</time></trkpt><trkpt lat="45.56288738094675" lon="11.545504714471255"><ele>36.0</ele><time>2026-04-02T04:57:46.999Z</time></trkpt><trkpt lat="45.562981814710895" lon="11.545577993240217"><ele>36.0</ele><time>2026-04-02T04:57:47.999Z</time></trkpt><trkpt lat="45.56308116830453" lon="11.54564816110809"><ele>36.4</ele><time>2026-04-02T04:57:48.999Z</time></trkpt><trkpt lat="45.56317555862891" lon="11.545726516524102"><ele>36.8</ele><time>2026-04-02T04:57:49.999Z</time></trkpt><trkpt lat="45.56327243268711" lon="11.545807283932486"><ele>37.199999999999996</ele><time>2026-04-02T04:57:50.999Z</time></trkpt><trkpt lat="45.5633715073455" lon="11.545880346295535"><ele>37.6</ele><time>2026-04-02T04:57:51.999Z</time></trkpt><trkpt lat="45.56347027540123" lon="11.54595162393567"><ele>38.0</ele><time>2026-04-02T04:57:52.999Z</time></trkpt><trkpt lat="45.563574951493806" lon="11.54601098976233"><ele>38.0</ele><time>2026-04-02T04:57:53.999Z</time></trkpt><trkpt lat="45.563689786032995" lon="11.546057175221666"><ele>38.0</ele><time>2026-04-02T04:57:54.999Z</time></trkpt><trkpt lat="45.56379178186171" lon="11.546096827607153"><ele>38.0</ele><time>2026-04-02T04:57:55.999Z</time></trkpt><trkpt lat="45.56389410176978" lon="11.546136549176918"><ele>38.0</ele><time>2026-04-02T04:57:56.999Z</time></trkpt><trkpt lat="45.56399974356407" lon="11.546181530487045"><ele>38.0</ele><time>2026-04-02T04:57:57.999Z</time></trkpt><trkpt lat="45.56409623709095" lon="11.546226258854064"><ele>37.5</ele><time>2026-04-02T04:57:58.999Z</time></trkpt><trkpt lat="45.56418205137642" lon="11.546264368849538"><ele>37.0</ele><time>2026-04-02T04:57:59.999Z</time></trkpt><trkpt lat="45.56425849559471" lon="11.546301874101268"><ele>36.5</ele><time>2026-04-02T04:58:00.999Z</time></trkpt><trkpt lat="45.5643553054417" lon="11.546353915360541"><ele>36.0</ele><time>2026-04-02T04:58:02.999Z</time></trkpt><trkpt lat="45.56440272759217" lon="11.546415521480432"><ele>35.5</ele><time>2026-04-02T04:58:07.999Z</time></trkpt><trkpt lat="45.56442908229908" lon="11.546507857219835"><ele>35.0</ele><time>2026-04-02T04:58:12.999Z</time></trkpt><trkpt lat="45.564447198992475" lon="11.546597161491917"><ele>35.0</ele><time>2026-04-02T04:58:13.999Z</time></trkpt><trkpt lat="45.564485938159734" lon="11.546681214778113"><ele>35.0</ele><time>2026-04-02T04:58:14.999Z</time></trkpt><trkpt lat="45.56454506608995" lon="11.546736525881508"><ele>35.0</ele><time>2026-04-02T04:58:15.999Z</time></trkpt><trkpt lat="45.56462523178423" lon="11.546748689987984"><ele>35.0</ele><time>2026-04-02T04:58:16.999Z</time></trkpt><trkpt lat="45.56470258701472" lon="11.546716042258868"><ele>35.0</ele><time>2026-04-02T04:58:17.999Z</time></trkpt><trkpt lat="45.564778712005285" lon="11.546659540998155"><ele>35.0</ele><time>2026-04-02T04:58:18.999Z</time></trkpt><trkpt lat="45.56486949099222" lon="11.54659442982548"><ele>34.8</ele><time>2026-04-02T04:58:19.999Z</time></trkpt><trkpt lat="45.56495513791144" lon="11.546552062157428"><ele>34.6</ele><time>2026-04-02T04:58:20.999Z</time></trkpt><trkpt lat="45.565054871673645" lon="11.546535107674135"><ele>34.4</ele><time>2026-04-02T04:58:21.999Z</time></trkpt><trkpt lat="45.56515683474976" lon="11.546589588283314"><ele>34.2</ele><time>2026-04-02T04:58:22.999Z</time></trkpt><trkpt lat="45.56527225602849" lon="11.546625775462022"><ele>34.0</ele><time>2026-04-02T04:58:23.999Z</time></trkpt><trkpt lat="45.56539469765518" lon="11.546664015488602"><ele>34.5</ele><time>2026-04-02T04:58:24.999Z</time></trkpt><trkpt lat="45.56552943323993" lon="11.546672656739712"><ele>35.0</ele><time>2026-04-02T04:58:25.999Z</time></trkpt><trkpt lat="45.56566715397527" lon="11.546714501759105"><ele>35.5</ele><time>2026-04-02T04:58:26.999Z</time></trkpt><trkpt lat="45.56580981199397" lon="11.54676367677647"><ele>36.0</ele><time>2026-04-02T04:58:27.999Z</time></trkpt><trkpt lat="45.56594664449227" lon="11.546815565012155"><ele>36.0</ele><time>2026-04-02T04:58:28.999Z</time></trkpt><trkpt lat="45.56610234806778" lon="11.546872410773265"><ele>36.0</ele><time>2026-04-02T04:58:29.999Z</time></trkpt><trkpt lat="45.56624808318585" lon="11.54691330608342"><ele>36.0</ele><time>2026-04-02T04:58:30.999Z</time></trkpt><trkpt lat="45.566398675900395" lon="11.546963741919324"><ele>36.333333333333336</ele><time>2026-04-02T04:58:31.999Z</time></trkpt><trkpt lat="45.56654977379877" lon="11.547009598298132"><ele>36.66666666666667</ele><time>2026-04-02T04:58:32.999Z</time></trkpt><trkpt lat="45.566701064043556" lon="11.547054015616753"><ele>37.0</ele><time>2026-04-02T04:58:33.999Z</time></trkpt><trkpt lat="45.56684752365612" lon="11.547080392193914"><ele>37.66666666666667</ele><time>2026-04-02T04:58:34.999Z</time></trkpt><trkpt lat="45.566995775579166" lon="11.547079769662727"><ele>38.333333333333336</ele><time>2026-04-02T04:58:35.999Z</time></trkpt><trkpt lat="45.56715444182384" lon="11.547070124050329"><ele>39.0</ele><time>2026-04-02T04:58:36.999Z</time></trkpt><trkpt lat="45.56730838326528" lon="11.547053245673771"><ele>38.333333333333336</ele><time>2026-04-02T04:58:37.999Z</time></trkpt><trkpt lat="45.56746900190609" lon="11.547032333279537"><ele>37.66666666666667</ele><time>2026-04-02T04:58:38.999Z</time></trkpt><trkpt lat="45.56762361179947" lon="11.5470107365677"><ele>37.0</ele><time>2026-04-02T04:58:39.999Z</time></trkpt><trkpt lat="45.56777238582356" lon="11.546989491686551"><ele>37.0</ele><time>2026-04-02T04:58:40.999Z</time></trkpt><trkpt lat="45.56792137138016" lon="11.54696951614357"><ele>37.0</ele><time>2026-04-02T04:58:41.999Z</time></trkpt><trkpt lat="45.568077978017676" lon="11.546937703864804"><ele>37.0</ele><time>2026-04-02T04:58:42.999Z</time></trkpt><trkpt lat="45.568232556092866" lon="11.546904607249505"><ele>37.0</ele><time>2026-04-02T04:58:43.999Z</time></trkpt><trkpt lat="45.568372225926844" lon="11.546882643684354"><ele>37.0</ele><time>2026-04-02T04:58:44.999Z</time></trkpt><trkpt lat="45.56850963850128" lon="11.546864746932664"><ele>37.0</ele><time>2026-04-02T04:58:45.999Z</time></trkpt><trkpt lat="45.56865316879783" lon="11.546835560711346"><ele>37.0</ele><time>2026-04-02T04:58:46.999Z</time></trkpt><trkpt lat="45.56879939941576" lon="11.54681136639268"><ele>36.75</ele><time>2026-04-02T04:58:47.999Z</time></trkpt><trkpt lat="45.56894712200246" lon="11.546809266340068"><ele>36.5</ele><time>2026-04-02T04:58:48.999Z</time></trkpt><trkpt lat="45.56909050109777" lon="11.546764858802254"><ele>36.25</ele><time>2026-04-02T04:58:49.999Z</time></trkpt><trkpt lat="45.56924152907503" lon="11.546760763921991"><ele>36.0</ele><time>2026-04-02T04:58:50.999Z</time></trkpt><trkpt lat="45.56938513983947" lon="11.54673710460164"><ele>36.0</ele><time>2026-04-02T04:58:51.999Z</time></trkpt><trkpt lat="45.56952659746252" lon="11.546690856657996"><ele>36.0</ele><time>2026-04-02T04:58:52.999Z</time></trkpt><trkpt lat="45.569669038859054" lon="11.546670620984477"><ele>36.0</ele><time>2026-04-02T04:58:53.999Z</time></trkpt><trkpt lat="45.5698167536626" lon="11.546654980399092"><ele>36.0</ele><time>2026-04-02T04:58:54.999Z</time></trkpt><trkpt lat="45.569974817991685" lon="11.546641963548275"><ele>36.0</ele><time>2026-04-02T04:58:55.999Z</time></trkpt><trkpt lat="45.57012579579623" lon="11.546653778146306"><ele>36.0</ele><time>2026-04-02T04:58:56.999Z</time></trkpt><trkpt lat="45.57027851713233" lon="11.546694942566997"><ele>36.0</ele><time>2026-04-02T04:58:57.999Z</time></trkpt><trkpt lat="45.57042350387329" lon="11.546750396823212"><ele>36.0</ele><time>2026-04-02T04:58:58.999Z</time></trkpt><trkpt lat="45.57055282330651" lon="11.546810505052152"><ele>36.0</ele><time>2026-04-02T04:58:59.999Z</time></trkpt><trkpt lat="45.57065451925878" lon="11.546884976708165"><ele>36.0</ele><time>2026-04-02T04:59:00.999Z</time></trkpt><trkpt lat="45.57075585969417" lon="11.54695959373163"><ele>36.0</ele><time>2026-04-02T04:59:01.999Z</time></trkpt><trkpt lat="45.57084766695852" lon="11.54704278128983"><ele>36.2</ele><time>2026-04-02T04:59:02.999Z</time></trkpt><trkpt lat="45.570932530449426" lon="11.547128026445048"><ele>36.400000000000006</ele><time>2026-04-02T04:59:03.999Z</time></trkpt><trkpt lat="45.57102075377126" lon="11.547215490052345"><ele>36.6</ele><time>2026-04-02T04:59:04.999Z</time></trkpt><trkpt lat="45.57109259110681" lon="11.547336150307025"><ele>36.800000000000004</ele><time>2026-04-02T04:59:05.999Z</time></trkpt><trkpt lat="45.57118610913276" lon="11.547433205489144"><ele>37.0</ele><time>2026-04-02T04:59:06.999Z</time></trkpt><trkpt lat="45.57128228704722" lon="11.547536572240608"><ele>37.0</ele><time>2026-04-02T04:59:07.999Z</time></trkpt><trkpt lat="45.57138047080481" lon="11.547648430831389"><ele>37.0</ele><time>2026-04-02T04:59:08.999Z</time></trkpt><trkpt lat="45.57148307072052" lon="11.547755877065265"><ele>37.0</ele><time>2026-04-02T04:59:09.999Z</time></trkpt><trkpt lat="45.571582751002744" lon="11.547867236734431"><ele>37.0</ele><time>2026-04-02T04:59:10.999Z</time></trkpt><trkpt lat="45.57167852477233" lon="11.547982755999369"><ele>37.0</ele><time>2026-04-02T04:59:11.998Z</time></trkpt><trkpt lat="45.57178274922492" lon="11.548098737651102"><ele>37.0</ele><time>2026-04-02T04:59:12.998Z</time></trkpt><trkpt lat="45.57187741409458" lon="11.548205771778388"><ele>37.0</ele><time>2026-04-02T04:59:13.998Z</time></trkpt><trkpt lat="45.571966669866825" lon="11.548304665640652"><ele>37.0</ele><time>2026-04-02T04:59:14.998Z</time></trkpt><trkpt lat="45.572064111897866" lon="11.548417106729278"><ele>37.0</ele><time>2026-04-02T04:59:15.998Z</time></trkpt><trkpt lat="45.57216850976407" lon="11.548542735035197"><ele>37.0</ele><time>2026-04-02T04:59:16.998Z</time></trkpt><trkpt lat="45.57227928332222" lon="11.548675940453586"><ele>37.0</ele><time>2026-04-02T04:59:18Z</time></trkpt><trkpt lat="45.572399358533886" lon="11.548810246706003"><ele>37.0</ele><time>2026-04-02T04:59:19Z</time></trkpt><trkpt lat="45.57250770757176" lon="11.54893846976062"><ele>37.0</ele><time>2026-04-02T04:59:20Z</time></trkpt><trkpt lat="45.572606463914575" lon="11.549071944964753"><ele>37.0</ele><time>2026-04-02T04:59:21Z</time></trkpt><trkpt lat="45.57272666803426" lon="11.549206001479444"><ele>37.0</ele><time>2026-04-02T04:59:22Z</time></trkpt><trkpt lat="45.57285472099425" lon="11.549341116569435"><ele>37.0</ele><time>2026-04-02T04:59:23Z</time></trkpt><trkpt lat="45.572982999342834" lon="11.549468332690319"><ele>36.75</ele><time>2026-04-02T04:59:24Z</time></trkpt><trkpt lat="45.573096772783266" lon="11.549583358547098"><ele>36.5</ele><time>2026-04-02T04:59:25Z</time></trkpt><trkpt lat="45.5732042350828" lon="11.549703022904644"><ele>36.25</ele><time>2026-04-02T04:59:26Z</time></trkpt><trkpt lat="45.57330345583936" lon="11.54981956804695"><ele>36.0</ele><time>2026-04-02T04:59:27Z</time></trkpt><trkpt lat="45.57340795526146" lon="11.549922507681933"><ele>36.0</ele><time>2026-04-02T04:59:28Z</time></trkpt><trkpt lat="45.573509312767605" lon="11.550030622596882"><ele>36.0</ele><time>2026-04-02T04:59:29Z</time></trkpt><trkpt lat="45.573622421362266" lon="11.550126143875431"><ele>36.0</ele><time>2026-04-02T04:59:30Z</time></trkpt><trkpt lat="45.573744491455386" lon="11.550209232830627"><ele>36.0</ele><time>2026-04-02T04:59:31Z</time></trkpt><trkpt lat="45.57387209835954" lon="11.55027260462314"><ele>35.75</ele><time>2026-04-02T04:59:32Z</time></trkpt><trkpt lat="45.57399700964687" lon="11.550316801508275"><ele>35.5</ele><time>2026-04-02T04:59:33Z</time></trkpt><trkpt lat="45.57412617504664" lon="11.550356256427367"><ele>35.25</ele><time>2026-04-02T04:59:34Z</time></trkpt><trkpt lat="45.574247900746826" lon="11.550399330033896"><ele>35.0</ele><time>2026-04-02T04:59:35Z</time></trkpt><trkpt lat="45.57436257235425" lon="11.55042956722144"><ele>35.0</ele><time>2026-04-02T04:59:36Z</time></trkpt><trkpt lat="45.574480700929804" lon="11.550466003299197"><ele>35.0</ele><time>2026-04-02T04:59:37Z</time></trkpt><trkpt lat="45.574594979267175" lon="11.55050282719367"><ele>35.0</ele><time>2026-04-02T04:59:38Z</time></trkpt><trkpt lat="45.574695895555664" lon="11.550533263812811"><ele>35.0</ele><time>2026-04-02T04:59:39Z</time></trkpt><trkpt lat="45.574800226209405" lon="11.550568217278151"><ele>35.0</ele><time>2026-04-02T04:59:40Z</time></trkpt><trkpt lat="45.57490469306888" lon="11.550601350748378"><ele>35.0</ele><time>2026-04-02T04:59:41Z</time></trkpt><trkpt lat="45.5750145382671" lon="11.550638781403089"><ele>35.0</ele><time>2026-04-02T04:59:42Z</time></trkpt><trkpt lat="45.575126149348435" lon="11.550680948151339"><ele>35.0</ele><time>2026-04-02T04:59:43Z</time></trkpt><trkpt lat="45.575231655304165" lon="11.550737273452953"><ele>35.0</ele><time>2026-04-02T04:59:44Z</time></trkpt><trkpt lat="45.575341199948056" lon="11.550792853352116"><ele>35.5</ele><time>2026-04-02T04:59:45Z</time></trkpt><trkpt lat="45.5754475246968" lon="11.55085209099187"><ele>36.0</ele><time>2026-04-02T04:59:46Z</time></trkpt><trkpt lat="45.575557112379556" lon="11.550922109234188"><ele>36.5</ele><time>2026-04-02T04:59:47Z</time></trkpt><trkpt lat="45.57567082720671" lon="11.550984793096887"><ele>37.0</ele><time>2026-04-02T04:59:48Z</time></trkpt><trkpt lat="45.57578134137211" lon="11.551046067854141"><ele>37.0</ele><time>2026-04-02T04:59:49Z</time></trkpt><trkpt lat="45.57589901107724" lon="11.551085659801368"><ele>37.0</ele><time>2026-04-02T04:59:50Z</time></trkpt><trkpt lat="45.57600270923246" lon="11.551159195255186"><ele>37.0</ele><time>2026-04-02T04:59:51Z</time></trkpt><trkpt lat="45.57612546833243" lon="11.551215708642939"><ele>37.0</ele><time>2026-04-02T04:59:52Z</time></trkpt><trkpt lat="45.576243690376465" lon="11.551276400447758"><ele>37.0</ele><time>2026-04-02T04:59:53Z</time></trkpt><trkpt lat="45.57636561889238" lon="11.551341617444814"><ele>37.0</ele><time>2026-04-02T04:59:54Z</time></trkpt><trkpt lat="45.57648250480939" lon="11.551407676756149"><ele>37.0</ele><time>2026-04-02T04:59:55Z</time></trkpt><trkpt lat="45.57660325692741" lon="11.551477147384126"><ele>37.0</ele><time>2026-04-02T04:59:56Z</time></trkpt><trkpt lat="45.57672057749679" lon="11.551569649487794"><ele>37.0</ele><time>2026-04-02T04:59:57Z</time></trkpt><trkpt lat="45.57685173781259" lon="11.551632306145851"><ele>37.0</ele><time>2026-04-02T04:59:58Z</time></trkpt><trkpt lat="45.57697702702578" lon="11.551721168182677"><ele>37.0</ele><time>2026-04-02T04:59:59Z</time></trkpt><trkpt lat="45.57709281214368" lon="11.551814212503245"><ele>37.0</ele><time>2026-04-02T05:00:00Z</time></trkpt><trkpt lat="45.57719742439136" lon="11.551938407276149"><ele>37.0</ele><time>2026-04-02T05:00:01Z</time></trkpt><trkpt lat="45.57731149839234" lon="11.552045325105073"><ele>37.0</ele><time>2026-04-02T05:00:02Z</time></trkpt><trkpt lat="45.57742450577161" lon="11.552146730548381"><ele>37.0</ele><time>2026-04-02T05:00:03Z</time></trkpt><trkpt lat="45.57754303344812" lon="11.55225154694335"><ele>37.0</ele><time>2026-04-02T05:00:04Z</time></trkpt><trkpt lat="45.577672115693474" lon="11.55235102654096"><ele>37.0</ele><time>2026-04-02T05:00:05Z</time></trkpt><trkpt lat="45.577805326594586" lon="11.552390214132936"><ele>37.0</ele><time>2026-04-02T05:00:06Z</time></trkpt><trkpt lat="45.577932451982186" lon="11.552455244485927"><ele>37.0</ele><time>2026-04-02T05:00:07Z</time></trkpt><trkpt lat="45.578082432659755" lon="11.55248163371087"><ele>37.0</ele><time>2026-04-02T05:00:08Z</time></trkpt><trkpt lat="45.57822602188807" lon="11.552476748799464"><ele>37.0</ele><time>2026-04-02T05:00:09Z</time></trkpt><trkpt lat="45.578368828098846" lon="11.552483346092094"><ele>37.0</ele><time>2026-04-02T05:00:10Z</time></trkpt><trkpt lat="45.57851864269074" lon="11.55249368476865"><ele>37.0</ele><time>2026-04-02T05:00:10.999Z</time></trkpt><trkpt lat="45.578665311567256" lon="11.552498870931654"><ele>37.0</ele><time>2026-04-02T05:00:11.999Z</time></trkpt><trkpt lat="45.57881234768417" lon="11.552510055148133"><ele>37.0</ele><time>2026-04-02T05:00:12.999Z</time></trkpt><trkpt lat="45.57896425936858" lon="11.55251437535915"><ele>37.0</ele><time>2026-04-02T05:00:13.999Z</time></trkpt><trkpt lat="45.57910090646334" lon="11.552527745736546"><ele>37.0</ele><time>2026-04-02T05:00:14.999Z</time></trkpt><trkpt lat="45.57924127908794" lon="11.552543863478078"><ele>37.0</ele><time>2026-04-02T05:00:15.999Z</time></trkpt><trkpt lat="45.579374750851066" lon="11.552573062613574"><ele>37.0</ele><time>2026-04-02T05:00:16.999Z</time></trkpt><trkpt lat="45.57951047882464" lon="11.552611125108937"><ele>37.0</ele><time>2026-04-02T05:00:17.999Z</time></trkpt><trkpt lat="45.57964395478009" lon="11.552652575749025"><ele>37.0</ele><time>2026-04-02T05:00:18.999Z</time></trkpt><trkpt lat="45.57976817041126" lon="11.552711902118595"><ele>37.0</ele><time>2026-04-02T05:00:19.999Z</time></trkpt><trkpt lat="45.57991121716021" lon="11.552742562754739"><ele>37.0</ele><time>2026-04-02T05:00:20.999Z</time></trkpt><trkpt lat="45.58005223015045" lon="11.55278169926976"><ele>37.0</ele><time>2026-04-02T05:00:21.999Z</time></trkpt><trkpt lat="45.5801970114838" lon="11.552833780161778"><ele>37.0</ele><time>2026-04-02T05:00:22.999Z</time></trkpt><trkpt lat="45.58033360059075" lon="11.55288005423444"><ele>37.0</ele><time>2026-04-02T05:00:23.999Z</time></trkpt><trkpt lat="45.58047342811362" lon="11.552914378331296"><ele>37.0</ele><time>2026-04-02T05:00:24.999Z</time></trkpt><trkpt lat="45.580606718394215" lon="11.552948855361361"><ele>37.0</ele><time>2026-04-02T05:00:25.999Z</time></trkpt><trkpt lat="45.58074660394043" lon="11.552986481845135"><ele>37.0</ele><time>2026-04-02T05:00:26.999Z</time></trkpt><trkpt lat="45.580891432835614" lon="11.553033232642536"><ele>37.0</ele><time>2026-04-02T05:00:27.999Z</time></trkpt><trkpt lat="45.58103118540828" lon="11.553073416638174"><ele>37.0</ele><time>2026-04-02T05:00:28.999Z</time></trkpt><trkpt lat="45.58117108370574" lon="11.55311690217449"><ele>37.0</ele><time>2026-04-02T05:00:29.999Z</time></trkpt><trkpt lat="45.58131069325702" lon="11.553160748060936"><ele>37.0</ele><time>2026-04-02T05:00:30.999Z</time></trkpt><trkpt lat="45.58145098562498" lon="11.553200661602109"><ele>37.0</ele><time>2026-04-02T05:00:31.999Z</time></trkpt><trkpt lat="45.581592712105824" lon="11.553246653121953"><ele>37.0</ele><time>2026-04-02T05:00:32.999Z</time></trkpt><trkpt lat="45.58172968788656" lon="11.553294217585622"><ele>37.0</ele><time>2026-04-02T05:00:33.999Z</time></trkpt><trkpt lat="45.581860927546565" lon="11.553358507423788"><ele>37.0</ele><time>2026-04-02T05:00:34.999Z</time></trkpt><trkpt lat="45.581989821558864" lon="11.553438963769327"><ele>37.0</ele><time>2026-04-02T05:00:35.999Z</time></trkpt><trkpt lat="45.582119420530425" lon="11.55351918619652"><ele>37.25</ele><time>2026-04-02T05:00:36.999Z</time></trkpt><trkpt lat="45.5822476970091" lon="11.553610600026312"><ele>37.5</ele><time>2026-04-02T05:00:37.999Z</time></trkpt><trkpt lat="45.58237087381757" lon="11.553697741346815"><ele>37.75</ele><time>2026-04-02T05:00:38.999Z</time></trkpt><trkpt lat="45.58249315650477" lon="11.553789055520877"><ele>38.0</ele><time>2026-04-02T05:00:39.999Z</time></trkpt><trkpt lat="45.58262017954542" lon="11.553879346719281"><ele>38.0</ele><time>2026-04-02T05:00:40.999Z</time></trkpt><trkpt lat="45.582742977233096" lon="11.55397180886669"><ele>38.0</ele><time>2026-04-02T05:00:41.999Z</time></trkpt><trkpt lat="45.58286586628194" lon="11.554065050912586"><ele>38.0</ele><time>2026-04-02T05:00:42.999Z</time></trkpt><trkpt lat="45.582992214155595" lon="11.554158236684518"><ele>38.0</ele><time>2026-04-02T05:00:43.999Z</time></trkpt><trkpt lat="45.58311808543728" lon="11.55425547234011"><ele>38.25</ele><time>2026-04-02T05:00:44.999Z</time></trkpt><trkpt lat="45.583232395922806" lon="11.554356038428212"><ele>38.5</ele><time>2026-04-02T05:00:45.999Z</time></trkpt><trkpt lat="45.58336351647395" lon="11.554438976201185"><ele>38.75</ele><time>2026-04-02T05:00:46.999Z</time></trkpt><trkpt lat="45.58347885258185" lon="11.554551403297625"><ele>39.0</ele><time>2026-04-02T05:00:47.999Z</time></trkpt><trkpt lat="45.583597909210944" lon="11.554638449356702"><ele>38.75</ele><time>2026-04-02T05:00:48.999Z</time></trkpt><trkpt lat="45.58371781096812" lon="11.554701420102754"><ele>38.5</ele><time>2026-04-02T05:00:49.999Z</time></trkpt><trkpt lat="45.583843217611026" lon="11.55478487699928"><ele>38.25</ele><time>2026-04-02T05:00:50.999Z</time></trkpt><trkpt lat="45.58396528521055" lon="11.554866087934657"><ele>38.0</ele><time>2026-04-02T05:00:51.999Z</time></trkpt><trkpt lat="45.58409624407729" lon="11.554941183687463"><ele>38.0</ele><time>2026-04-02T05:00:52.999Z</time></trkpt><trkpt lat="45.584225422323" lon="11.555011863463086"><ele>38.0</ele><time>2026-04-02T05:00:53.999Z</time></trkpt><trkpt lat="45.58435393631356" lon="11.555085829768148"><ele>38.0</ele><time>2026-04-02T05:00:54.999Z</time></trkpt><trkpt lat="45.58447778643657" lon="11.55515525105613"><ele>38.0</ele><time>2026-04-02T05:00:55.999Z</time></trkpt><trkpt lat="45.584597703272514" lon="11.555222141067235"><ele>38.0</ele><time>2026-04-02T05:00:56.999Z</time></trkpt><trkpt lat="45.584722032685406" lon="11.55528852404332"><ele>38.0</ele><time>2026-04-02T05:00:57.999Z</time></trkpt><trkpt lat="45.584845198873616" lon="11.555355572205634"><ele>38.0</ele><time>2026-04-02T05:00:58.999Z</time></trkpt><trkpt lat="45.58496882417528" lon="11.555416767929648"><ele>38.0</ele><time>2026-04-02T05:00:59.999Z</time></trkpt><trkpt lat="45.585092686604696" lon="11.555481657111347"><ele>37.75</ele><time>2026-04-02T05:01:00.999Z</time></trkpt><trkpt lat="45.585219531391274" lon="11.555552504182089"><ele>37.5</ele><time>2026-04-02T05:01:01.999Z</time></trkpt><trkpt lat="45.58534489311298" lon="11.55561605492042"><ele>37.25</ele><time>2026-04-02T05:01:02.999Z</time></trkpt><trkpt lat="45.58546233913849" lon="11.555687269004771"><ele>37.0</ele><time>2026-04-02T05:01:03.999Z</time></trkpt><trkpt lat="45.5855832561165" lon="11.555746727799251"><ele>37.0</ele><time>2026-04-02T05:01:04.999Z</time></trkpt><trkpt lat="45.58570109148444" lon="11.555802683871743"><ele>37.0</ele><time>2026-04-02T05:01:05.999Z</time></trkpt><trkpt lat="45.58581981501205" lon="11.55585874179667"><ele>37.0</ele><time>2026-04-02T05:01:06.999Z</time></trkpt><trkpt lat="45.58593894167926" lon="11.555907517430251"><ele>37.0</ele><time>2026-04-02T05:01:07.999Z</time></trkpt></trkseg></trk></gpx>